<?xml version="1.0" encoding="UTF-8" standalone="no" ?>
<gpx xmlns="http://www.topografix.com/GPX/1/1" xmlns:xsi="http://www.w3.org/2001/XMLSchema-instance" xsi:schemaLocation="http://www.topografix.com/GPX/1/1 http://www.topografix.com/GPX/1/1/gpx.xsd" version="1.1" creator="VisuGPX - https://www.visugpx.com">
  <metadata>
    <name>vtt 2013 a 2015</name>
    <desc><![CDATA[pour archive perso]]></desc>
  </metadata>
  <trk>
    <name><![CDATA[vtt la serre total]]></name>
    <trkseg>
      <trkpt lat="45.66579" lon="2.98062">
        <ele>885.9</ele>
        <time>2014-09-07T06:30:17Z</time>
      </trkpt>
      <trkpt lat="45.66596" lon="2.98057">
        <ele>888.3</ele>
        <time>2014-09-07T06:31:28Z</time>
      </trkpt>
      <trkpt lat="45.66558" lon="2.97851">
        <ele>907.9</ele>
        <time>2014-09-07T06:31:58Z</time>
      </trkpt>
      <trkpt lat="45.66535" lon="2.97786">
        <ele>912.4</ele>
        <time>2014-09-07T06:32:06Z</time>
      </trkpt>
      <trkpt lat="45.66443" lon="2.97354">
        <ele>922.2</ele>
        <time>2014-09-07T06:33:06Z</time>
      </trkpt>
      <trkpt lat="45.66276" lon="2.96964">
        <ele>937.2</ele>
        <time>2014-09-07T06:33:56Z</time>
      </trkpt>
      <trkpt lat="45.66183" lon="2.96911">
        <ele>940.6</ele>
        <time>2014-09-07T06:34:14Z</time>
      </trkpt>
      <trkpt lat="45.65902" lon="2.96659">
        <ele>944.6</ele>
        <time>2014-09-07T06:35:08Z</time>
      </trkpt>
      <trkpt lat="45.65795" lon="2.9662">
        <ele>948.4</ele>
        <time>2014-09-07T06:35:24Z</time>
      </trkpt>
      <trkpt lat="45.65698" lon="2.96566">
        <ele>953.6</ele>
        <time>2014-09-07T06:35:38Z</time>
      </trkpt>
      <trkpt lat="45.65611" lon="2.96495">
        <ele>964.3</ele>
        <time>2014-09-07T06:36:00Z</time>
      </trkpt>
      <trkpt lat="45.65544" lon="2.96508">
        <ele>969.5</ele>
        <time>2014-09-07T06:36:08Z</time>
      </trkpt>
      <trkpt lat="45.65277" lon="2.96321">
        <ele>969.9</ele>
        <time>2014-09-07T06:37:24Z</time>
      </trkpt>
      <trkpt lat="45.651" lon="2.96638">
        <ele>968.6</ele>
        <time>2014-09-07T06:38:30Z</time>
      </trkpt>
      <trkpt lat="45.64922" lon="2.96775">
        <ele>983.3</ele>
        <time>2014-09-07T06:39:12Z</time>
      </trkpt>
      <trkpt lat="45.64815" lon="2.96912">
        <ele>999.5</ele>
        <time>2014-09-07T06:39:34Z</time>
      </trkpt>
      <trkpt lat="45.6479" lon="2.96982">
        <ele>1007.8</ele>
        <time>2014-09-07T06:39:46Z</time>
      </trkpt>
      <trkpt lat="45.6475" lon="2.97026">
        <ele>1012.9</ele>
        <time>2014-09-07T06:39:58Z</time>
      </trkpt>
      <trkpt lat="45.64641" lon="2.97075">
        <ele>1024.3</ele>
        <time>2014-09-07T06:40:16Z</time>
      </trkpt>
      <trkpt lat="45.64614" lon="2.97019">
        <ele>1030</ele>
        <time>2014-09-07T06:40:26Z</time>
      </trkpt>
      <trkpt lat="45.64535" lon="2.96639">
        <ele>1030.9</ele>
        <time>2014-09-07T06:41:32Z</time>
      </trkpt>
      <trkpt lat="45.64528" lon="2.9629">
        <ele>1032.7</ele>
        <time>2014-09-07T06:42:32Z</time>
      </trkpt>
      <trkpt lat="45.64291" lon="2.95974">
        <ele>1030.4</ele>
        <time>2014-09-07T06:44:00Z</time>
      </trkpt>
      <trkpt lat="45.64301" lon="2.95792">
        <ele>1031.8</ele>
        <time>2014-09-07T06:44:24Z</time>
      </trkpt>
      <trkpt lat="45.64226" lon="2.95318">
        <ele>1037.7</ele>
        <time>2014-09-07T06:45:22Z</time>
      </trkpt>
      <trkpt lat="45.64122" lon="2.94974">
        <ele>1044</ele>
        <time>2014-09-07T06:46:02Z</time>
      </trkpt>
      <trkpt lat="45.64024" lon="2.9473">
        <ele>1048.4</ele>
        <time>2014-09-07T06:46:36Z</time>
      </trkpt>
      <trkpt lat="45.64007" lon="2.94475">
        <ele>1051</ele>
        <time>2014-09-07T06:47:06Z</time>
      </trkpt>
      <trkpt lat="45.64051" lon="2.94258">
        <ele>1047.2</ele>
        <time>2014-09-07T06:47:50Z</time>
      </trkpt>
      <trkpt lat="45.64022" lon="2.93912">
        <ele>1058.2</ele>
        <time>2014-09-07T06:48:26Z</time>
      </trkpt>
      <trkpt lat="45.63876" lon="2.93331">
        <ele>1071.3</ele>
        <time>2014-09-07T06:49:24Z</time>
      </trkpt>
      <trkpt lat="45.63687" lon="2.92893">
        <ele>1082.8</ele>
        <time>2014-09-07T06:50:16Z</time>
      </trkpt>
      <trkpt lat="45.63228" lon="2.92468">
        <ele>1096.1</ele>
        <time>2014-09-07T06:51:38Z</time>
      </trkpt>
      <trkpt lat="45.6315" lon="2.92341">
        <ele>1104.2</ele>
        <time>2014-09-07T06:51:50Z</time>
      </trkpt>
      <trkpt lat="45.63124" lon="2.92267">
        <ele>1108.5</ele>
        <time>2014-09-07T06:51:56Z</time>
      </trkpt>
      <trkpt lat="45.63002" lon="2.9175">
        <ele>1118.6</ele>
        <time>2014-09-07T06:52:40Z</time>
      </trkpt>
      <trkpt lat="45.62921" lon="2.91563">
        <ele>1125.7</ele>
        <time>2014-09-07T06:53:00Z</time>
      </trkpt>
      <trkpt lat="45.62768" lon="2.90735">
        <ele>1140.8</ele>
        <time>2014-09-07T06:54:40Z</time>
      </trkpt>
      <trkpt lat="45.62763" lon="2.90728">
        <ele>1142.3</ele>
        <time>2014-09-07T06:56:21Z</time>
      </trkpt>
      <trkpt lat="45.62729" lon="2.90633">
        <ele>1143.7</ele>
        <time>2014-09-07T06:56:37Z</time>
      </trkpt>
      <trkpt lat="45.62651" lon="2.90265">
        <ele>1150.5</ele>
        <time>2014-09-07T06:57:29Z</time>
      </trkpt>
      <trkpt lat="45.62628" lon="2.89925">
        <ele>1150.7</ele>
        <time>2014-09-07T06:58:29Z</time>
      </trkpt>
      <trkpt lat="45.62497" lon="2.89554">
        <ele>1141.5</ele>
        <time>2014-09-07T07:00:09Z</time>
      </trkpt>
      <trkpt lat="45.62466" lon="2.89403">
        <ele>1136.4</ele>
        <time>2014-09-07T07:03:15Z</time>
      </trkpt>
      <trkpt lat="45.62413" lon="2.89218">
        <ele>1131.8</ele>
        <time>2014-09-07T07:04:31Z</time>
      </trkpt>
      <trkpt lat="45.62234" lon="2.88903">
        <ele>1133.8</ele>
        <time>2014-09-07T07:05:41Z</time>
      </trkpt>
      <trkpt lat="45.62139" lon="2.88837">
        <ele>1140.5</ele>
        <time>2014-09-07T07:05:53Z</time>
      </trkpt>
      <trkpt lat="45.62005" lon="2.88674">
        <ele>1150.3</ele>
        <time>2014-09-07T07:06:11Z</time>
      </trkpt>
      <trkpt lat="45.61871" lon="2.88572">
        <ele>1163.4</ele>
        <time>2014-09-07T07:06:27Z</time>
      </trkpt>
      <trkpt lat="45.61807" lon="2.88475">
        <ele>1168.6</ele>
        <time>2014-09-07T07:06:39Z</time>
      </trkpt>
      <trkpt lat="45.61753" lon="2.88365">
        <ele>1173.3</ele>
        <time>2014-09-07T07:07:05Z</time>
      </trkpt>
      <trkpt lat="45.61702" lon="2.88369">
        <ele>1173</ele>
        <time>2014-09-07T07:13:03Z</time>
      </trkpt>
      <trkpt lat="45.61672" lon="2.88424">
        <ele>1169.4</ele>
        <time>2014-09-07T07:13:49Z</time>
      </trkpt>
      <trkpt lat="45.61612" lon="2.88435">
        <ele>1161.6</ele>
        <time>2014-09-07T07:15:16Z</time>
      </trkpt>
      <trkpt lat="45.61528" lon="2.88446">
        <ele>1151.7</ele>
        <time>2014-09-07T07:17:19Z</time>
      </trkpt>
      <trkpt lat="45.61463" lon="2.88443">
        <ele>1162.2</ele>
        <time>2014-09-07T07:18:37Z</time>
      </trkpt>
      <trkpt lat="45.61473" lon="2.8848">
        <ele>1159.2</ele>
        <time>2014-09-07T07:19:13Z</time>
      </trkpt>
      <trkpt lat="45.61469" lon="2.88519">
        <ele>1159.8</ele>
        <time>2014-09-07T07:20:02Z</time>
      </trkpt>
      <trkpt lat="45.61549" lon="2.88762">
        <ele>1148.9</ele>
        <time>2014-09-07T07:22:21Z</time>
      </trkpt>
      <trkpt lat="45.61588" lon="2.89133">
        <ele>1141.1</ele>
        <time>2014-09-07T07:24:47Z</time>
      </trkpt>
      <trkpt lat="45.6162" lon="2.89263">
        <ele>1142.1</ele>
        <time>2014-09-07T07:25:40Z</time>
      </trkpt>
      <trkpt lat="45.61607" lon="2.8925">
        <ele>1142.1</ele>
        <time>2014-09-07T07:27:46Z</time>
      </trkpt>
      <trkpt lat="45.61655" lon="2.89347">
        <ele>1135.6</ele>
        <time>2014-09-07T07:29:58Z</time>
      </trkpt>
      <trkpt lat="45.61693" lon="2.894">
        <ele>1130.8</ele>
        <time>2014-09-07T07:30:37Z</time>
      </trkpt>
      <trkpt lat="45.61846" lon="2.89582">
        <ele>1117.6</ele>
        <time>2014-09-07T07:32:42Z</time>
      </trkpt>
      <trkpt lat="45.61865" lon="2.89645">
        <ele>1118.5</ele>
        <time>2014-09-07T07:33:10Z</time>
      </trkpt>
      <trkpt lat="45.61848" lon="2.89708">
        <ele>1123.8</ele>
        <time>2014-09-07T07:33:20Z</time>
      </trkpt>
      <trkpt lat="45.61895" lon="2.89917">
        <ele>1134.4</ele>
        <time>2014-09-07T07:34:02Z</time>
      </trkpt>
      <trkpt lat="45.61901" lon="2.90115">
        <ele>1123.1</ele>
        <time>2014-09-07T07:35:36Z</time>
      </trkpt>
      <trkpt lat="45.62031" lon="2.90201">
        <ele>1114.4</ele>
        <time>2014-09-07T07:36:59Z</time>
      </trkpt>
      <trkpt lat="45.62134" lon="2.9032">
        <ele>1106.1</ele>
        <time>2014-09-07T07:38:11Z</time>
      </trkpt>
      <trkpt lat="45.62198" lon="2.90588">
        <ele>1096</ele>
        <time>2014-09-07T07:40:09Z</time>
      </trkpt>
      <trkpt lat="45.6227" lon="2.90757">
        <ele>1086.4</ele>
        <time>2014-09-07T07:41:18Z</time>
      </trkpt>
      <trkpt lat="45.62317" lon="2.90979">
        <ele>1082.9</ele>
        <time>2014-09-07T07:42:09Z</time>
      </trkpt>
      <trkpt lat="45.62353" lon="2.91102">
        <ele>1085.5</ele>
        <time>2014-09-07T07:42:48Z</time>
      </trkpt>
      <trkpt lat="45.62289" lon="2.91202">
        <ele>1092.8</ele>
        <time>2014-09-07T07:43:00Z</time>
      </trkpt>
      <trkpt lat="45.62188" lon="2.91244">
        <ele>1100.1</ele>
        <time>2014-09-07T07:43:16Z</time>
      </trkpt>
      <trkpt lat="45.62136" lon="2.9123">
        <ele>1105.5</ele>
        <time>2014-09-07T07:43:26Z</time>
      </trkpt>
      <trkpt lat="45.62101" lon="2.91174">
        <ele>1113.6</ele>
        <time>2014-09-07T07:43:38Z</time>
      </trkpt>
      <trkpt lat="45.62053" lon="2.91288">
        <ele>1122.8</ele>
        <time>2014-09-07T07:43:50Z</time>
      </trkpt>
      <trkpt lat="45.61919" lon="2.91493">
        <ele>1126.4</ele>
        <time>2014-09-07T07:44:27Z</time>
      </trkpt>
      <trkpt lat="45.6153" lon="2.92219">
        <ele>1146.9</ele>
        <time>2014-09-07T07:46:56Z</time>
      </trkpt>
      <trkpt lat="45.61507" lon="2.92192">
        <ele>1153.2</ele>
        <time>2014-09-07T07:47:26Z</time>
      </trkpt>
      <trkpt lat="45.61509" lon="2.91833">
        <ele>1164.1</ele>
        <time>2014-09-07T07:48:12Z</time>
      </trkpt>
      <trkpt lat="45.61478" lon="2.91847">
        <ele>1164.3</ele>
        <time>2014-09-07T07:55:03Z</time>
      </trkpt>
      <trkpt lat="45.61497" lon="2.9183">
        <ele>1164.5</ele>
        <time>2014-09-07T08:02:17Z</time>
      </trkpt>
      <trkpt lat="45.61509" lon="2.91826">
        <ele>1163.8</ele>
        <time>2014-09-07T08:09:16Z</time>
      </trkpt>
      <trkpt lat="45.61516" lon="2.91821">
        <ele>1163.6</ele>
        <time>2014-09-07T08:22:24Z</time>
      </trkpt>
      <trkpt lat="45.61506" lon="2.91813">
        <ele>1168.7</ele>
        <time>2014-09-07T08:30:11Z</time>
      </trkpt>
      <trkpt lat="45.61505" lon="2.91775">
        <ele>1173.6</ele>
        <time>2014-09-07T08:30:17Z</time>
      </trkpt>
      <trkpt lat="45.61546" lon="2.91545">
        <ele>1188.5</ele>
        <time>2014-09-07T08:30:41Z</time>
      </trkpt>
      <trkpt lat="45.61549" lon="2.91456">
        <ele>1196.8</ele>
        <time>2014-09-07T08:30:51Z</time>
      </trkpt>
      <trkpt lat="45.61537" lon="2.91367">
        <ele>1202</ele>
        <time>2014-09-07T08:31:01Z</time>
      </trkpt>
      <trkpt lat="45.61431" lon="2.91133">
        <ele>1210.8</ele>
        <time>2014-09-07T08:31:35Z</time>
      </trkpt>
      <trkpt lat="45.61282" lon="2.90551">
        <ele>1228.3</ele>
        <time>2014-09-07T08:32:47Z</time>
      </trkpt>
      <trkpt lat="45.6113" lon="2.8974">
        <ele>1244</ele>
        <time>2014-09-07T08:34:45Z</time>
      </trkpt>
      <trkpt lat="45.61096" lon="2.89385">
        <ele>1244.1</ele>
        <time>2014-09-07T08:36:25Z</time>
      </trkpt>
      <trkpt lat="45.61124" lon="2.88829">
        <ele>1243.2</ele>
        <time>2014-09-07T08:38:27Z</time>
      </trkpt>
      <trkpt lat="45.60978" lon="2.8766">
        <ele>1259.7</ele>
        <time>2014-09-07T08:43:20Z</time>
      </trkpt>
      <trkpt lat="45.60948" lon="2.87519">
        <ele>1266.3</ele>
        <time>2014-09-07T08:43:54Z</time>
      </trkpt>
      <trkpt lat="45.6087" lon="2.87331">
        <ele>1276.3</ele>
        <time>2014-09-07T08:44:34Z</time>
      </trkpt>
      <trkpt lat="45.60872" lon="2.87324">
        <ele>1277</ele>
        <time>2014-09-07T08:44:46Z</time>
      </trkpt>
      <trkpt lat="45.60861" lon="2.87071">
        <ele>1299.1</ele>
        <time>2014-09-07T08:45:32Z</time>
      </trkpt>
      <trkpt lat="45.60795" lon="2.86766">
        <ele>1321.5</ele>
        <time>2014-09-07T08:46:26Z</time>
      </trkpt>
      <trkpt lat="45.60821" lon="2.8662">
        <ele>1336.3</ele>
        <time>2014-09-07T08:47:06Z</time>
      </trkpt>
      <trkpt lat="45.60822" lon="2.8653">
        <ele>1342</ele>
        <time>2014-09-07T08:47:20Z</time>
      </trkpt>
      <trkpt lat="45.60809" lon="2.86458">
        <ele>1345.2</ele>
        <time>2014-09-07T08:47:32Z</time>
      </trkpt>
      <trkpt lat="45.60789" lon="2.86389">
        <ele>1349.9</ele>
        <time>2014-09-07T08:47:46Z</time>
      </trkpt>
      <trkpt lat="45.60756" lon="2.86344">
        <ele>1354.1</ele>
        <time>2014-09-07T08:47:58Z</time>
      </trkpt>
      <trkpt lat="45.60662" lon="2.86302">
        <ele>1358.5</ele>
        <time>2014-09-07T08:48:38Z</time>
      </trkpt>
      <trkpt lat="45.60609" lon="2.8619">
        <ele>1362.1</ele>
        <time>2014-09-07T08:49:46Z</time>
      </trkpt>
      <trkpt lat="45.60796" lon="2.86185">
        <ele>1358.6</ele>
        <time>2014-09-07T08:51:24Z</time>
      </trkpt>
      <trkpt lat="45.60922" lon="2.86114">
        <ele>1355</ele>
        <time>2014-09-07T08:52:53Z</time>
      </trkpt>
      <trkpt lat="45.60961" lon="2.86106">
        <ele>1361.1</ele>
        <time>2014-09-07T08:53:34Z</time>
      </trkpt>
      <trkpt lat="45.61085" lon="2.85978">
        <ele>1376.1</ele>
        <time>2014-09-07T08:55:13Z</time>
      </trkpt>
      <trkpt lat="45.61107" lon="2.85913">
        <ele>1385.8</ele>
        <time>2014-09-07T08:55:41Z</time>
      </trkpt>
      <trkpt lat="45.61122" lon="2.85801">
        <ele>1402.8</ele>
        <time>2014-09-07T08:56:19Z</time>
      </trkpt>
      <trkpt lat="45.6116" lon="2.85752">
        <ele>1406.1</ele>
        <time>2014-09-07T08:57:42Z</time>
      </trkpt>
      <trkpt lat="45.61121" lon="2.8567">
        <ele>1408.4</ele>
        <time>2014-09-07T08:58:10Z</time>
      </trkpt>
      <trkpt lat="45.61114" lon="2.85666">
        <ele>1409.1</ele>
        <time>2014-09-07T09:07:14Z</time>
      </trkpt>
      <trkpt lat="45.61001" lon="2.85532">
        <ele>1409.9</ele>
        <time>2014-09-07T09:08:14Z</time>
      </trkpt>
      <trkpt lat="45.60925" lon="2.8546">
        <ele>1406.7</ele>
        <time>2014-09-07T09:08:52Z</time>
      </trkpt>
      <trkpt lat="45.60594" lon="2.85397">
        <ele>1391</ele>
        <time>2014-09-07T09:11:40Z</time>
      </trkpt>
      <trkpt lat="45.60404" lon="2.85119">
        <ele>1384.5</ele>
        <time>2014-09-07T09:13:28Z</time>
      </trkpt>
      <trkpt lat="45.60281" lon="2.85025">
        <ele>1379.2</ele>
        <time>2014-09-07T09:14:26Z</time>
      </trkpt>
      <trkpt lat="45.60004" lon="2.84687">
        <ele>1364.4</ele>
        <time>2014-09-07T09:17:04Z</time>
      </trkpt>
      <trkpt lat="45.59979" lon="2.84637">
        <ele>1364.8</ele>
        <time>2014-09-07T09:17:18Z</time>
      </trkpt>
      <trkpt lat="45.59969" lon="2.84535">
        <ele>1363.7</ele>
        <time>2014-09-07T09:18:31Z</time>
      </trkpt>
      <trkpt lat="45.60019" lon="2.84461">
        <ele>1356.4</ele>
        <time>2014-09-07T09:20:12Z</time>
      </trkpt>
      <trkpt lat="45.6006" lon="2.84342">
        <ele>1347.5</ele>
        <time>2014-09-07T09:21:56Z</time>
      </trkpt>
      <trkpt lat="45.60054" lon="2.84286">
        <ele>1343.5</ele>
        <time>2014-09-07T09:22:59Z</time>
      </trkpt>
      <trkpt lat="45.60058" lon="2.84279">
        <ele>1342.1</ele>
        <time>2014-09-07T09:25:46Z</time>
      </trkpt>
      <trkpt lat="45.60067" lon="2.84265">
        <ele>1342.3</ele>
        <time>2014-09-07T09:26:08Z</time>
      </trkpt>
      <trkpt lat="45.6008" lon="2.84068">
        <ele>1325.6</ele>
        <time>2014-09-07T09:28:18Z</time>
      </trkpt>
      <trkpt lat="45.60019" lon="2.83711">
        <ele>1302.6</ele>
        <time>2014-09-07T09:31:36Z</time>
      </trkpt>
      <trkpt lat="45.59965" lon="2.83521">
        <ele>1289.7</ele>
        <time>2014-09-07T09:33:16Z</time>
      </trkpt>
      <trkpt lat="45.59963" lon="2.83432">
        <ele>1283.1</ele>
        <time>2014-09-07T09:34:04Z</time>
      </trkpt>
      <trkpt lat="45.59937" lon="2.83428">
        <ele>1283.4</ele>
        <time>2014-09-07T09:37:15Z</time>
      </trkpt>
      <trkpt lat="45.59933" lon="2.83408">
        <ele>1281.3</ele>
        <time>2014-09-07T09:37:45Z</time>
      </trkpt>
      <trkpt lat="45.59833" lon="2.83138">
        <ele>1262.6</ele>
        <time>2014-09-07T09:40:41Z</time>
      </trkpt>
      <trkpt lat="45.59749" lon="2.83082">
        <ele>1252.5</ele>
        <time>2014-09-07T09:42:03Z</time>
      </trkpt>
      <trkpt lat="45.59771" lon="2.83025">
        <ele>1248.9</ele>
        <time>2014-09-07T09:42:35Z</time>
      </trkpt>
      <trkpt lat="45.59753" lon="2.82896">
        <ele>1243.1</ele>
        <time>2014-09-07T09:43:35Z</time>
      </trkpt>
      <trkpt lat="45.59593" lon="2.82676">
        <ele>1223.9</ele>
        <time>2014-09-07T09:45:59Z</time>
      </trkpt>
      <trkpt lat="45.59546" lon="2.82561">
        <ele>1210.9</ele>
        <time>2014-09-07T09:47:11Z</time>
      </trkpt>
      <trkpt lat="45.59519" lon="2.82512">
        <ele>1205.1</ele>
        <time>2014-09-07T09:47:45Z</time>
      </trkpt>
      <trkpt lat="45.59482" lon="2.82478">
        <ele>1199.1</ele>
        <time>2014-09-07T09:48:11Z</time>
      </trkpt>
      <trkpt lat="45.59421" lon="2.82274">
        <ele>1199.2</ele>
        <time>2014-09-07T09:48:51Z</time>
      </trkpt>
      <trkpt lat="45.59483" lon="2.82186">
        <ele>1200.6</ele>
        <time>2014-09-07T09:49:03Z</time>
      </trkpt>
      <trkpt lat="45.59829" lon="2.8253">
        <ele>1210.2</ele>
        <time>2014-09-07T09:49:51Z</time>
      </trkpt>
      <trkpt lat="45.59969" lon="2.82636">
        <ele>1214.1</ele>
        <time>2014-09-07T09:50:09Z</time>
      </trkpt>
      <trkpt lat="45.6007" lon="2.82686">
        <ele>1220.2</ele>
        <time>2014-09-07T09:50:23Z</time>
      </trkpt>
      <trkpt lat="45.6009" lon="2.82619">
        <ele>1223.2</ele>
        <time>2014-09-07T09:50:29Z</time>
      </trkpt>
      <trkpt lat="45.60184" lon="2.82548">
        <ele>1228.3</ele>
        <time>2014-09-07T09:50:41Z</time>
      </trkpt>
      <trkpt lat="45.60315" lon="2.82546">
        <ele>1232.5</ele>
        <time>2014-09-07T09:50:55Z</time>
      </trkpt>
      <trkpt lat="45.605" lon="2.8258">
        <ele>1238.9</ele>
        <time>2014-09-07T09:51:19Z</time>
      </trkpt>
      <trkpt lat="45.60724" lon="2.82517">
        <ele>1246.8</ele>
        <time>2014-09-07T09:51:47Z</time>
      </trkpt>
      <trkpt lat="45.60849" lon="2.82542">
        <ele>1250</ele>
        <time>2014-09-07T09:52:03Z</time>
      </trkpt>
      <trkpt lat="45.61073" lon="2.82476">
        <ele>1256.4</ele>
        <time>2014-09-07T09:52:39Z</time>
      </trkpt>
      <trkpt lat="45.61116" lon="2.82451">
        <ele>1256.5</ele>
        <time>2014-09-07T09:52:49Z</time>
      </trkpt>
      <trkpt lat="45.61183" lon="2.82356">
        <ele>1254.3</ele>
        <time>2014-09-07T09:53:17Z</time>
      </trkpt>
      <trkpt lat="45.61216" lon="2.822">
        <ele>1261.4</ele>
        <time>2014-09-07T09:53:43Z</time>
      </trkpt>
      <trkpt lat="45.61159" lon="2.82206">
        <ele>1267</ele>
        <time>2014-09-07T09:53:51Z</time>
      </trkpt>
      <trkpt lat="45.61006" lon="2.8219">
        <ele>1274.5</ele>
        <time>2014-09-07T09:54:15Z</time>
      </trkpt>
      <trkpt lat="45.60884" lon="2.82221">
        <ele>1283.4</ele>
        <time>2014-09-07T09:54:35Z</time>
      </trkpt>
      <trkpt lat="45.60822" lon="2.82223">
        <ele>1288.6</ele>
        <time>2014-09-07T09:54:45Z</time>
      </trkpt>
      <trkpt lat="45.60643" lon="2.82175">
        <ele>1292.8</ele>
        <time>2014-09-07T09:55:17Z</time>
      </trkpt>
      <trkpt lat="45.60598" lon="2.82147">
        <ele>1297.3</ele>
        <time>2014-09-07T09:55:31Z</time>
      </trkpt>
      <trkpt lat="45.60589" lon="2.82065">
        <ele>1302.7</ele>
        <time>2014-09-07T09:55:43Z</time>
      </trkpt>
      <trkpt lat="45.60607" lon="2.81983">
        <ele>1306.1</ele>
        <time>2014-09-07T09:55:53Z</time>
      </trkpt>
      <trkpt lat="45.60734" lon="2.81997">
        <ele>1313.4</ele>
        <time>2014-09-07T09:56:23Z</time>
      </trkpt>
      <trkpt lat="45.60777" lon="2.81967">
        <ele>1313.5</ele>
        <time>2014-09-07T09:56:35Z</time>
      </trkpt>
      <trkpt lat="45.60841" lon="2.81791">
        <ele>1315.5</ele>
        <time>2014-09-07T09:57:12Z</time>
      </trkpt>
      <trkpt lat="45.60895" lon="2.81687">
        <ele>1318.6</ele>
        <time>2014-09-07T09:57:38Z</time>
      </trkpt>
      <trkpt lat="45.61093" lon="2.81609">
        <ele>1322.2</ele>
        <time>2014-09-07T09:58:36Z</time>
      </trkpt>
      <trkpt lat="45.61177" lon="2.81541">
        <ele>1328.3</ele>
        <time>2014-09-07T09:58:59Z</time>
      </trkpt>
      <trkpt lat="45.61301" lon="2.81344">
        <ele>1336.6</ele>
        <time>2014-09-07T10:00:05Z</time>
      </trkpt>
      <trkpt lat="45.6136" lon="2.81253">
        <ele>1328.6</ele>
        <time>2014-09-07T10:01:03Z</time>
      </trkpt>
      <trkpt lat="45.61406" lon="2.81144">
        <ele>1322.9</ele>
        <time>2014-09-07T10:01:45Z</time>
      </trkpt>
      <trkpt lat="45.61509" lon="2.81119">
        <ele>1321.5</ele>
        <time>2014-09-07T10:02:19Z</time>
      </trkpt>
      <trkpt lat="45.61586" lon="2.81201">
        <ele>1321.7</ele>
        <time>2014-09-07T10:02:41Z</time>
      </trkpt>
      <trkpt lat="45.61638" lon="2.8122">
        <ele>1321.8</ele>
        <time>2014-09-07T10:03:07Z</time>
      </trkpt>
      <trkpt lat="45.61788" lon="2.81518">
        <ele>1306.3</ele>
        <time>2014-09-07T10:05:04Z</time>
      </trkpt>
      <trkpt lat="45.61903" lon="2.81627">
        <ele>1295.9</ele>
        <time>2014-09-07T10:06:18Z</time>
      </trkpt>
      <trkpt lat="45.61967" lon="2.81719">
        <ele>1290</ele>
        <time>2014-09-07T10:07:06Z</time>
      </trkpt>
      <trkpt lat="45.61981" lon="2.81749">
        <ele>1286.3</ele>
        <time>2014-09-07T10:13:04Z</time>
      </trkpt>
      <trkpt lat="45.61948" lon="2.81901">
        <ele>1280</ele>
        <time>2014-09-07T10:13:46Z</time>
      </trkpt>
      <trkpt lat="45.61954" lon="2.81982">
        <ele>1276.5</ele>
        <time>2014-09-07T10:14:06Z</time>
      </trkpt>
      <trkpt lat="45.62039" lon="2.82048">
        <ele>1274.2</ele>
        <time>2014-09-07T10:14:32Z</time>
      </trkpt>
      <trkpt lat="45.62172" lon="2.82236">
        <ele>1302</ele>
        <time>2014-09-07T10:15:24Z</time>
      </trkpt>
      <trkpt lat="45.62163" lon="2.82323">
        <ele>1309.7</ele>
        <time>2014-09-07T10:15:34Z</time>
      </trkpt>
      <trkpt lat="45.62117" lon="2.82443">
        <ele>1321.9</ele>
        <time>2014-09-07T10:15:46Z</time>
      </trkpt>
      <trkpt lat="45.62068" lon="2.82671">
        <ele>1342.4</ele>
        <time>2014-09-07T10:16:12Z</time>
      </trkpt>
      <trkpt lat="45.62009" lon="2.82764">
        <ele>1347.8</ele>
        <time>2014-09-07T10:16:30Z</time>
      </trkpt>
      <trkpt lat="45.61997" lon="2.8284">
        <ele>1348.2</ele>
        <time>2014-09-07T10:16:54Z</time>
      </trkpt>
      <trkpt lat="45.62004" lon="2.8285">
        <ele>1347.6</ele>
        <time>2014-09-07T10:18:01Z</time>
      </trkpt>
      <trkpt lat="45.62008" lon="2.82886">
        <ele>1351</ele>
        <time>2014-09-07T10:18:25Z</time>
      </trkpt>
      <trkpt lat="45.62015" lon="2.82912">
        <ele>1356.2</ele>
        <time>2014-09-07T10:19:14Z</time>
      </trkpt>
      <trkpt lat="45.62044" lon="2.82925">
        <ele>1363.6</ele>
        <time>2014-09-07T10:20:01Z</time>
      </trkpt>
      <trkpt lat="45.62114" lon="2.83079">
        <ele>1385.6</ele>
        <time>2014-09-07T10:22:20Z</time>
      </trkpt>
      <trkpt lat="45.62156" lon="2.83145">
        <ele>1400</ele>
        <time>2014-09-07T10:23:12Z</time>
      </trkpt>
      <trkpt lat="45.62248" lon="2.83087">
        <ele>1405.4</ele>
        <time>2014-09-07T10:23:40Z</time>
      </trkpt>
      <trkpt lat="45.62311" lon="2.83079">
        <ele>1409.7</ele>
        <time>2014-09-07T10:24:02Z</time>
      </trkpt>
      <trkpt lat="45.62397" lon="2.83155">
        <ele>1409.2</ele>
        <time>2014-09-07T10:24:34Z</time>
      </trkpt>
      <trkpt lat="45.6247" lon="2.83243">
        <ele>1414.3</ele>
        <time>2014-09-07T10:24:58Z</time>
      </trkpt>
      <trkpt lat="45.62531" lon="2.83254">
        <ele>1420</ele>
        <time>2014-09-07T10:25:12Z</time>
      </trkpt>
      <trkpt lat="45.62577" lon="2.83279">
        <ele>1427.8</ele>
        <time>2014-09-07T10:25:24Z</time>
      </trkpt>
      <trkpt lat="45.62658" lon="2.83354">
        <ele>1435.5</ele>
        <time>2014-09-07T10:25:54Z</time>
      </trkpt>
      <trkpt lat="45.6266" lon="2.83358">
        <ele>1434.9</ele>
        <time>2014-09-07T10:26:20Z</time>
      </trkpt>
      <trkpt lat="45.62727" lon="2.83401">
        <ele>1422</ele>
        <time>2014-09-07T10:28:10Z</time>
      </trkpt>
      <trkpt lat="45.62831" lon="2.83478">
        <ele>1401.3</ele>
        <time>2014-09-07T10:30:45Z</time>
      </trkpt>
      <trkpt lat="45.62979" lon="2.8353">
        <ele>1386.2</ele>
        <time>2014-09-07T10:32:33Z</time>
      </trkpt>
      <trkpt lat="45.63073" lon="2.83579">
        <ele>1381.4</ele>
        <time>2014-09-07T10:33:21Z</time>
      </trkpt>
      <trkpt lat="45.63189" lon="2.83586">
        <ele>1375.3</ele>
        <time>2014-09-07T10:34:19Z</time>
      </trkpt>
      <trkpt lat="45.63291" lon="2.83618">
        <ele>1369</ele>
        <time>2014-09-07T10:35:15Z</time>
      </trkpt>
      <trkpt lat="45.63317" lon="2.83562">
        <ele>1364.8</ele>
        <time>2014-09-07T10:35:45Z</time>
      </trkpt>
      <trkpt lat="45.63364" lon="2.83542">
        <ele>1359</ele>
        <time>2014-09-07T10:36:25Z</time>
      </trkpt>
      <trkpt lat="45.63434" lon="2.83629">
        <ele>1357.3</ele>
        <time>2014-09-07T10:37:05Z</time>
      </trkpt>
      <trkpt lat="45.63419" lon="2.83697">
        <ele>1351.9</ele>
        <time>2014-09-07T10:37:41Z</time>
      </trkpt>
      <trkpt lat="45.63473" lon="2.83687">
        <ele>1347.7</ele>
        <time>2014-09-07T10:38:11Z</time>
      </trkpt>
      <trkpt lat="45.63514" lon="2.83658">
        <ele>1344.5</ele>
        <time>2014-09-07T10:38:39Z</time>
      </trkpt>
      <trkpt lat="45.63566" lon="2.836">
        <ele>1336.8</ele>
        <time>2014-09-07T10:39:50Z</time>
      </trkpt>
      <trkpt lat="45.63617" lon="2.83707">
        <ele>1330.2</ele>
        <time>2014-09-07T10:40:50Z</time>
      </trkpt>
      <trkpt lat="45.63635" lon="2.83948">
        <ele>1317.5</ele>
        <time>2014-09-07T10:42:34Z</time>
      </trkpt>
      <trkpt lat="45.63654" lon="2.84009">
        <ele>1310.1</ele>
        <time>2014-09-07T10:43:16Z</time>
      </trkpt>
      <trkpt lat="45.63712" lon="2.84004">
        <ele>1305.9</ele>
        <time>2014-09-07T10:43:50Z</time>
      </trkpt>
      <trkpt lat="45.63789" lon="2.83936">
        <ele>1296.1</ele>
        <time>2014-09-07T10:44:56Z</time>
      </trkpt>
      <trkpt lat="45.63819" lon="2.84074">
        <ele>1288.7</ele>
        <time>2014-09-07T10:45:42Z</time>
      </trkpt>
      <trkpt lat="45.6376" lon="2.84179">
        <ele>1291.3</ele>
        <time>2014-09-07T10:46:00Z</time>
      </trkpt>
      <trkpt lat="45.63361" lon="2.84154">
        <ele>1292.3</ele>
        <time>2014-09-07T10:47:08Z</time>
      </trkpt>
      <trkpt lat="45.63072" lon="2.84099">
        <ele>1290.9</ele>
        <time>2014-09-07T10:48:10Z</time>
      </trkpt>
      <trkpt lat="45.62947" lon="2.84095">
        <ele>1284.2</ele>
        <time>2014-09-07T10:48:54Z</time>
      </trkpt>
      <trkpt lat="45.62926" lon="2.84155">
        <ele>1284.2</ele>
        <time>2014-09-07T10:49:08Z</time>
      </trkpt>
      <trkpt lat="45.6295" lon="2.84212">
        <ele>1283</ele>
        <time>2014-09-07T10:49:22Z</time>
      </trkpt>
      <trkpt lat="45.63071" lon="2.84306">
        <ele>1273.1</ele>
        <time>2014-09-07T10:50:28Z</time>
      </trkpt>
      <trkpt lat="45.63145" lon="2.8438">
        <ele>1264.9</ele>
        <time>2014-09-07T10:51:14Z</time>
      </trkpt>
      <trkpt lat="45.63128" lon="2.84504">
        <ele>1263</ele>
        <time>2014-09-07T10:51:36Z</time>
      </trkpt>
      <trkpt lat="45.63111" lon="2.84755">
        <ele>1265.6</ele>
        <time>2014-09-07T10:52:16Z</time>
      </trkpt>
      <trkpt lat="45.63169" lon="2.84763">
        <ele>1268.6</ele>
        <time>2014-09-07T10:52:26Z</time>
      </trkpt>
      <trkpt lat="45.63269" lon="2.84718">
        <ele>1268.9</ele>
        <time>2014-09-07T10:52:46Z</time>
      </trkpt>
      <trkpt lat="45.63348" lon="2.84642">
        <ele>1263.2</ele>
        <time>2014-09-07T10:53:32Z</time>
      </trkpt>
      <trkpt lat="45.63392" lon="2.84666">
        <ele>1258.6</ele>
        <time>2014-09-07T10:53:58Z</time>
      </trkpt>
      <trkpt lat="45.63494" lon="2.84792">
        <ele>1249</ele>
        <time>2014-09-07T10:54:52Z</time>
      </trkpt>
      <trkpt lat="45.63997" lon="2.84912">
        <ele>1242.5</ele>
        <time>2014-09-07T10:56:54Z</time>
      </trkpt>
      <trkpt lat="45.64179" lon="2.85141">
        <ele>1238</ele>
        <time>2014-09-07T10:58:10Z</time>
      </trkpt>
      <trkpt lat="45.64319" lon="2.8522">
        <ele>1237.7</ele>
        <time>2014-09-07T10:58:48Z</time>
      </trkpt>
      <trkpt lat="45.64403" lon="2.85293">
        <ele>1234.6</ele>
        <time>2014-09-07T10:59:26Z</time>
      </trkpt>
      <trkpt lat="45.64489" lon="2.8541">
        <ele>1225.3</ele>
        <time>2014-09-07T11:02:10Z</time>
      </trkpt>
      <trkpt lat="45.64691" lon="2.85584">
        <ele>1217.5</ele>
        <time>2014-09-07T11:03:24Z</time>
      </trkpt>
      <trkpt lat="45.64759" lon="2.85665">
        <ele>1218.3</ele>
        <time>2014-09-07T11:04:08Z</time>
      </trkpt>
      <trkpt lat="45.64788" lon="2.858">
        <ele>1217.8</ele>
        <time>2014-09-07T11:09:19Z</time>
      </trkpt>
      <trkpt lat="45.6474" lon="2.86212">
        <ele>1216.5</ele>
        <time>2014-09-07T11:10:27Z</time>
      </trkpt>
      <trkpt lat="45.64735" lon="2.86218">
        <ele>1216.4</ele>
        <time>2014-09-07T11:11:27Z</time>
      </trkpt>
      <trkpt lat="45.64728" lon="2.8657">
        <ele>1192.1</ele>
        <time>2014-09-07T11:13:51Z</time>
      </trkpt>
      <trkpt lat="45.6469" lon="2.86786">
        <ele>1186.6</ele>
        <time>2014-09-07T11:14:43Z</time>
      </trkpt>
      <trkpt lat="45.64651" lon="2.86905">
        <ele>1187.9</ele>
        <time>2014-09-07T11:15:07Z</time>
      </trkpt>
      <trkpt lat="45.64558" lon="2.87051">
        <ele>1187.4</ele>
        <time>2014-09-07T11:15:49Z</time>
      </trkpt>
      <trkpt lat="45.64495" lon="2.87228">
        <ele>1177.6</ele>
        <time>2014-09-07T11:17:21Z</time>
      </trkpt>
      <trkpt lat="45.64522" lon="2.87456">
        <ele>1164.4</ele>
        <time>2014-09-07T11:19:07Z</time>
      </trkpt>
      <trkpt lat="45.64512" lon="2.87533">
        <ele>1158</ele>
        <time>2014-09-07T11:19:43Z</time>
      </trkpt>
      <trkpt lat="45.64512" lon="2.877">
        <ele>1148.1</ele>
        <time>2014-09-07T11:20:47Z</time>
      </trkpt>
      <trkpt lat="45.64527" lon="2.87765">
        <ele>1141.6</ele>
        <time>2014-09-07T11:21:13Z</time>
      </trkpt>
      <trkpt lat="45.64744" lon="2.88018">
        <ele>1131.2</ele>
        <time>2014-09-07T11:23:01Z</time>
      </trkpt>
      <trkpt lat="45.64769" lon="2.88076">
        <ele>1125.1</ele>
        <time>2014-09-07T11:23:31Z</time>
      </trkpt>
      <trkpt lat="45.64721" lon="2.88095">
        <ele>1120.2</ele>
        <time>2014-09-07T11:23:57Z</time>
      </trkpt>
      <trkpt lat="45.64588" lon="2.88074">
        <ele>1131.3</ele>
        <time>2014-09-07T11:24:45Z</time>
      </trkpt>
      <trkpt lat="45.64483" lon="2.88114">
        <ele>1139.4</ele>
        <time>2014-09-07T11:25:19Z</time>
      </trkpt>
      <trkpt lat="45.64481" lon="2.88133">
        <ele>1137.7</ele>
        <time>2014-09-07T11:27:36Z</time>
      </trkpt>
      <trkpt lat="45.64572" lon="2.88395">
        <ele>1128.2</ele>
        <time>2014-09-07T11:29:26Z</time>
      </trkpt>
      <trkpt lat="45.64599" lon="2.88447">
        <ele>1124.9</ele>
        <time>2014-09-07T11:29:54Z</time>
      </trkpt>
      <trkpt lat="45.64889" lon="2.88669">
        <ele>1106.2</ele>
        <time>2014-09-07T11:32:36Z</time>
      </trkpt>
      <trkpt lat="45.64913" lon="2.88724">
        <ele>1109.2</ele>
        <time>2014-09-07T11:33:12Z</time>
      </trkpt>
      <trkpt lat="45.64813" lon="2.88795">
        <ele>1114.5</ele>
        <time>2014-09-07T11:33:24Z</time>
      </trkpt>
      <trkpt lat="45.64712" lon="2.88833">
        <ele>1119.7</ele>
        <time>2014-09-07T11:33:36Z</time>
      </trkpt>
      <trkpt lat="45.64609" lon="2.88986">
        <ele>1122.5</ele>
        <time>2014-09-07T11:33:58Z</time>
      </trkpt>
      <trkpt lat="45.64604" lon="2.8907">
        <ele>1121.8</ele>
        <time>2014-09-07T11:34:10Z</time>
      </trkpt>
      <trkpt lat="45.64844" lon="2.89675">
        <ele>1122.1</ele>
        <time>2014-09-07T11:35:48Z</time>
      </trkpt>
      <trkpt lat="45.65136" lon="2.89621">
        <ele>1123.5</ele>
        <time>2014-09-07T11:36:54Z</time>
      </trkpt>
      <trkpt lat="45.65168" lon="2.89675">
        <ele>1122.6</ele>
        <time>2014-09-07T11:37:06Z</time>
      </trkpt>
      <trkpt lat="45.65267" lon="2.89717">
        <ele>1115.9</ele>
        <time>2014-09-07T11:37:46Z</time>
      </trkpt>
      <trkpt lat="45.65304" lon="2.89848">
        <ele>1111.3</ele>
        <time>2014-09-07T11:38:22Z</time>
      </trkpt>
      <trkpt lat="45.65305" lon="2.89851">
        <ele>1110.4</ele>
        <time>2014-09-07T11:39:11Z</time>
      </trkpt>
      <trkpt lat="45.65325" lon="2.89973">
        <ele>1105.8</ele>
        <time>2014-09-07T11:39:41Z</time>
      </trkpt>
      <trkpt lat="45.65239" lon="2.9003">
        <ele>1104.6</ele>
        <time>2014-09-07T11:40:11Z</time>
      </trkpt>
      <trkpt lat="45.65067" lon="2.90255">
        <ele>1098.5</ele>
        <time>2014-09-07T11:41:19Z</time>
      </trkpt>
      <trkpt lat="45.65231" lon="2.90512">
        <ele>1080.3</ele>
        <time>2014-09-07T11:43:17Z</time>
      </trkpt>
      <trkpt lat="45.65348" lon="2.90825">
        <ele>1079.1</ele>
        <time>2014-09-07T11:44:13Z</time>
      </trkpt>
      <trkpt lat="45.65472" lon="2.91248">
        <ele>1066.5</ele>
        <time>2014-09-07T11:48:07Z</time>
      </trkpt>
      <trkpt lat="45.65355" lon="2.91451">
        <ele>1064.2</ele>
        <time>2014-09-07T11:48:51Z</time>
      </trkpt>
      <trkpt lat="45.65329" lon="2.91588">
        <ele>1062.6</ele>
        <time>2014-09-07T11:49:21Z</time>
      </trkpt>
      <trkpt lat="45.6532" lon="2.91722">
        <ele>1057.4</ele>
        <time>2014-09-07T11:50:03Z</time>
      </trkpt>
      <trkpt lat="45.6568" lon="2.92347">
        <ele>1061.4</ele>
        <time>2014-09-07T11:52:03Z</time>
      </trkpt>
      <trkpt lat="45.65819" lon="2.92447">
        <ele>1066.2</ele>
        <time>2014-09-07T11:52:33Z</time>
      </trkpt>
      <trkpt lat="45.65825" lon="2.92449">
        <ele>1066</ele>
        <time>2014-09-07T11:53:05Z</time>
      </trkpt>
      <trkpt lat="45.65936" lon="2.92558">
        <ele>1069.6</ele>
        <time>2014-09-07T11:53:39Z</time>
      </trkpt>
      <trkpt lat="45.65982" lon="2.92693">
        <ele>1076</ele>
        <time>2014-09-07T11:53:53Z</time>
      </trkpt>
      <trkpt lat="45.66002" lon="2.93208">
        <ele>1059.4</ele>
        <time>2014-09-07T11:56:15Z</time>
      </trkpt>
      <trkpt lat="45.65994" lon="2.93919">
        <ele>1044.1</ele>
        <time>2014-09-07T11:58:43Z</time>
      </trkpt>
      <trkpt lat="45.66099" lon="2.94155">
        <ele>1050.7</ele>
        <time>2014-09-07T11:59:15Z</time>
      </trkpt>
      <trkpt lat="45.661" lon="2.94159">
        <ele>1051.2</ele>
        <time>2014-09-07T11:59:31Z</time>
      </trkpt>
      <trkpt lat="45.66185" lon="2.94417">
        <ele>1055.3</ele>
        <time>2014-09-07T12:00:05Z</time>
      </trkpt>
      <trkpt lat="45.66357" lon="2.9476">
        <ele>1052.3</ele>
        <time>2014-09-07T12:01:19Z</time>
      </trkpt>
      <trkpt lat="45.6636" lon="2.94848">
        <ele>1050.1</ele>
        <time>2014-09-07T12:01:41Z</time>
      </trkpt>
      <trkpt lat="45.66306" lon="2.94958">
        <ele>1049.2</ele>
        <time>2014-09-07T12:02:13Z</time>
      </trkpt>
      <trkpt lat="45.66537" lon="2.95223">
        <ele>1056.2</ele>
        <time>2014-09-07T12:03:15Z</time>
      </trkpt>
      <trkpt lat="45.66662" lon="2.95323">
        <ele>1052.4</ele>
        <time>2014-09-07T12:06:46Z</time>
      </trkpt>
      <trkpt lat="45.66774" lon="2.95337">
        <ele>1043.2</ele>
        <time>2014-09-07T12:07:48Z</time>
      </trkpt>
      <trkpt lat="45.669" lon="2.95253">
        <ele>1028.8</ele>
        <time>2014-09-07T12:09:12Z</time>
      </trkpt>
      <trkpt lat="45.6701" lon="2.95141">
        <ele>1020.4</ele>
        <time>2014-09-07T12:10:22Z</time>
      </trkpt>
      <trkpt lat="45.67067" lon="2.95131">
        <ele>1014.4</ele>
        <time>2014-09-07T12:10:54Z</time>
      </trkpt>
      <trkpt lat="45.67309" lon="2.95331">
        <ele>999.7</ele>
        <time>2014-09-07T12:12:43Z</time>
      </trkpt>
      <trkpt lat="45.67236" lon="2.95504">
        <ele>999</ele>
        <time>2014-09-07T12:13:19Z</time>
      </trkpt>
      <trkpt lat="45.67123" lon="2.95709">
        <ele>991.8</ele>
        <time>2014-09-07T12:14:21Z</time>
      </trkpt>
      <trkpt lat="45.67083" lon="2.95835">
        <ele>988.7</ele>
        <time>2014-09-07T12:14:55Z</time>
      </trkpt>
      <trkpt lat="45.66813" lon="2.96371">
        <ele>966.3</ele>
        <time>2014-09-07T12:18:05Z</time>
      </trkpt>
      <trkpt lat="45.66798" lon="2.96445">
        <ele>963.1</ele>
        <time>2014-09-07T12:18:29Z</time>
      </trkpt>
      <trkpt lat="45.66706" lon="2.96588">
        <ele>952.4</ele>
        <time>2014-09-07T12:19:37Z</time>
      </trkpt>
      <trkpt lat="45.66767" lon="2.96677">
        <ele>949</ele>
        <time>2014-09-07T12:20:07Z</time>
      </trkpt>
      <trkpt lat="45.66813" lon="2.96705">
        <ele>948.8</ele>
        <time>2014-09-07T12:20:23Z</time>
      </trkpt>
      <trkpt lat="45.66803" lon="2.96787">
        <ele>946.2</ele>
        <time>2014-09-07T12:20:43Z</time>
      </trkpt>
      <trkpt lat="45.66814" lon="2.96864">
        <ele>941.1</ele>
        <time>2014-09-07T12:21:03Z</time>
      </trkpt>
      <trkpt lat="45.66769" lon="2.97062">
        <ele>940.1</ele>
        <time>2014-09-07T12:21:45Z</time>
      </trkpt>
      <trkpt lat="45.66785" lon="2.97128">
        <ele>944.5</ele>
        <time>2014-09-07T12:21:57Z</time>
      </trkpt>
      <trkpt lat="45.6684" lon="2.97167">
        <ele>946.4</ele>
        <time>2014-09-07T12:22:32Z</time>
      </trkpt>
      <trkpt lat="45.66948" lon="2.97208">
        <ele>945.9</ele>
        <time>2014-09-07T12:23:08Z</time>
      </trkpt>
      <trkpt lat="45.66976" lon="2.97526">
        <ele>926.9</ele>
        <time>2014-09-07T12:25:00Z</time>
      </trkpt>
      <trkpt lat="45.67003" lon="2.97671">
        <ele>921.1</ele>
        <time>2014-09-07T12:25:44Z</time>
      </trkpt>
      <trkpt lat="45.66993" lon="2.97841">
        <ele>914</ele>
        <time>2014-09-07T12:26:34Z</time>
      </trkpt>
      <trkpt lat="45.67" lon="2.98006">
        <ele>906</ele>
        <time>2014-09-07T12:27:22Z</time>
      </trkpt>
      <trkpt lat="45.67018" lon="2.98161">
        <ele>899.3</ele>
        <time>2014-09-07T12:28:16Z</time>
      </trkpt>
      <trkpt lat="45.66916" lon="2.98287">
        <ele>891.5</ele>
        <time>2014-09-07T12:29:06Z</time>
      </trkpt>
      <trkpt lat="45.66893" lon="2.98354">
        <ele>891.9</ele>
        <time>2014-09-07T12:29:20Z</time>
      </trkpt>
      <trkpt lat="45.66808" lon="2.98368">
        <ele>885.7</ele>
        <time>2014-09-07T12:29:56Z</time>
      </trkpt>
      <trkpt lat="45.66766" lon="2.98317">
        <ele>884.5</ele>
        <time>2014-09-07T12:31:01Z</time>
      </trkpt>
      <trkpt lat="45.66737" lon="2.98212">
        <ele>878.9</ele>
        <time>2014-09-07T12:31:35Z</time>
      </trkpt>
      <trkpt lat="45.66668" lon="2.98124">
        <ele>886.5</ele>
        <time>2014-09-07T12:32:21Z</time>
      </trkpt>
      <trkpt lat="45.66666" lon="2.98122">
        <ele>886.5</ele>
        <time>2014-09-07T12:32:28Z</time>
      </trkpt>
      <trkpt lat="45.68364" lon="3.06204">
        <ele>769.7</ele>
        <time>2013-09-04T12:01:07Z</time>
      </trkpt>
      <trkpt lat="45.68359" lon="3.06189">
        <ele>770.9</ele>
        <time>2013-09-04T12:02:09Z</time>
      </trkpt>
      <trkpt lat="45.6838" lon="3.0618">
        <ele>772.1</ele>
        <time>2013-09-04T12:07:32Z</time>
      </trkpt>
      <trkpt lat="45.68409" lon="3.06176">
        <ele>772.9</ele>
        <time>2013-09-04T12:08:02Z</time>
      </trkpt>
      <trkpt lat="45.68427" lon="3.06139">
        <ele>769.7</ele>
        <time>2013-09-04T12:08:14Z</time>
      </trkpt>
      <trkpt lat="45.68449" lon="3.06316">
        <ele>767.7</ele>
        <time>2013-09-04T12:08:46Z</time>
      </trkpt>
      <trkpt lat="45.68464" lon="3.06501">
        <ele>759.6</ele>
        <time>2013-09-04T12:09:02Z</time>
      </trkpt>
      <trkpt lat="45.68459" lon="3.06605">
        <ele>757.2</ele>
        <time>2013-09-04T12:09:10Z</time>
      </trkpt>
      <trkpt lat="45.68458" lon="3.06657">
        <ele>754</ele>
        <time>2013-09-04T12:09:14Z</time>
      </trkpt>
      <trkpt lat="45.68462" lon="3.06759">
        <ele>749.2</ele>
        <time>2013-09-04T12:09:22Z</time>
      </trkpt>
      <trkpt lat="45.68441" lon="3.06858">
        <ele>746</ele>
        <time>2013-09-04T12:09:34Z</time>
      </trkpt>
      <trkpt lat="45.68394" lon="3.07017">
        <ele>740.4</ele>
        <time>2013-09-04T12:09:58Z</time>
      </trkpt>
      <trkpt lat="45.68395" lon="3.07087">
        <ele>741.6</ele>
        <time>2013-09-04T12:10:06Z</time>
      </trkpt>
      <trkpt lat="45.68392" lon="3.07187">
        <ele>738.5</ele>
        <time>2013-09-04T12:10:22Z</time>
      </trkpt>
      <trkpt lat="45.684" lon="3.0724">
        <ele>737.1</ele>
        <time>2013-09-04T12:13:16Z</time>
      </trkpt>
      <trkpt lat="45.68419" lon="3.07348">
        <ele>738.1</ele>
        <time>2013-09-04T12:13:30Z</time>
      </trkpt>
      <trkpt lat="45.68416" lon="3.07404">
        <ele>732.9</ele>
        <time>2013-09-04T12:13:36Z</time>
      </trkpt>
      <trkpt lat="45.68409" lon="3.07482">
        <ele>727.5</ele>
        <time>2013-09-04T12:13:44Z</time>
      </trkpt>
      <trkpt lat="45.68398" lon="3.07562">
        <ele>731.2</ele>
        <time>2013-09-04T12:13:52Z</time>
      </trkpt>
      <trkpt lat="45.68387" lon="3.07621">
        <ele>728.1</ele>
        <time>2013-09-04T12:13:58Z</time>
      </trkpt>
      <trkpt lat="45.68364" lon="3.07805">
        <ele>719.2</ele>
        <time>2013-09-04T12:14:36Z</time>
      </trkpt>
      <trkpt lat="45.68356" lon="3.07879">
        <ele>721</ele>
        <time>2013-09-04T12:14:50Z</time>
      </trkpt>
      <trkpt lat="45.68354" lon="3.07927">
        <ele>723.9</ele>
        <time>2013-09-04T12:14:58Z</time>
      </trkpt>
      <trkpt lat="45.6834" lon="3.08006">
        <ele>722.9</ele>
        <time>2013-09-04T12:15:12Z</time>
      </trkpt>
      <trkpt lat="45.68333" lon="3.08043">
        <ele>723.7</ele>
        <time>2013-09-04T12:15:18Z</time>
      </trkpt>
      <trkpt lat="45.68293" lon="3.08171">
        <ele>722.3</ele>
        <time>2013-09-04T12:15:36Z</time>
      </trkpt>
      <trkpt lat="45.68279" lon="3.08257">
        <ele>719.3</ele>
        <time>2013-09-04T12:15:46Z</time>
      </trkpt>
      <trkpt lat="45.68253" lon="3.08317">
        <ele>720.2</ele>
        <time>2013-09-04T12:15:54Z</time>
      </trkpt>
      <trkpt lat="45.68231" lon="3.08358">
        <ele>717</ele>
        <time>2013-09-04T12:16:00Z</time>
      </trkpt>
      <trkpt lat="45.68214" lon="3.08409">
        <ele>718</ele>
        <time>2013-09-04T12:16:06Z</time>
      </trkpt>
      <trkpt lat="45.68205" lon="3.08484">
        <ele>714.6</ele>
        <time>2013-09-04T12:16:14Z</time>
      </trkpt>
      <trkpt lat="45.68192" lon="3.08532">
        <ele>708.3</ele>
        <time>2013-09-04T12:16:20Z</time>
      </trkpt>
      <trkpt lat="45.68172" lon="3.08597">
        <ele>713.9</ele>
        <time>2013-09-04T12:16:30Z</time>
      </trkpt>
      <trkpt lat="45.68165" lon="3.08647">
        <ele>712.5</ele>
        <time>2013-09-04T12:16:38Z</time>
      </trkpt>
      <trkpt lat="45.68155" lon="3.08712">
        <ele>703.5</ele>
        <time>2013-09-04T12:16:50Z</time>
      </trkpt>
      <trkpt lat="45.68119" lon="3.08787">
        <ele>700.1</ele>
        <time>2013-09-04T12:17:02Z</time>
      </trkpt>
      <trkpt lat="45.68105" lon="3.08832">
        <ele>696.4</ele>
        <time>2013-09-04T12:17:08Z</time>
      </trkpt>
      <trkpt lat="45.68092" lon="3.08879">
        <ele>693.1</ele>
        <time>2013-09-04T12:17:14Z</time>
      </trkpt>
      <trkpt lat="45.68049" lon="3.08876">
        <ele>698</ele>
        <time>2013-09-04T12:17:30Z</time>
      </trkpt>
      <trkpt lat="45.68026" lon="3.08867">
        <ele>699.7</ele>
        <time>2013-09-04T12:17:38Z</time>
      </trkpt>
      <trkpt lat="45.67865" lon="3.08822">
        <ele>703.9</ele>
        <time>2013-09-04T12:18:40Z</time>
      </trkpt>
      <trkpt lat="45.67836" lon="3.08835">
        <ele>700.9</ele>
        <time>2013-09-04T12:19:00Z</time>
      </trkpt>
      <trkpt lat="45.67827" lon="3.08831">
        <ele>697.4</ele>
        <time>2013-09-04T12:19:17Z</time>
      </trkpt>
      <trkpt lat="45.67811" lon="3.08819">
        <ele>693.3</ele>
        <time>2013-09-04T12:19:31Z</time>
      </trkpt>
      <trkpt lat="45.6779" lon="3.08739">
        <ele>684.8</ele>
        <time>2013-09-04T12:21:36Z</time>
      </trkpt>
      <trkpt lat="45.67795" lon="3.08746">
        <ele>685.5</ele>
        <time>2013-09-04T12:21:42Z</time>
      </trkpt>
      <trkpt lat="45.67814" lon="3.08795">
        <ele>691.8</ele>
        <time>2013-09-04T12:22:06Z</time>
      </trkpt>
      <trkpt lat="45.67834" lon="3.08863">
        <ele>699.2</ele>
        <time>2013-09-04T12:22:44Z</time>
      </trkpt>
      <trkpt lat="45.67857" lon="3.08956">
        <ele>696.8</ele>
        <time>2013-09-04T12:23:14Z</time>
      </trkpt>
      <trkpt lat="45.67867" lon="3.08998">
        <ele>701.1</ele>
        <time>2013-09-04T12:23:22Z</time>
      </trkpt>
      <trkpt lat="45.67889" lon="3.09081">
        <ele>700.7</ele>
        <time>2013-09-04T12:23:40Z</time>
      </trkpt>
      <trkpt lat="45.67896" lon="3.09171">
        <ele>695</ele>
        <time>2013-09-04T12:23:54Z</time>
      </trkpt>
      <trkpt lat="45.67953" lon="3.09349">
        <ele>693.7</ele>
        <time>2013-09-04T12:24:28Z</time>
      </trkpt>
      <trkpt lat="45.67963" lon="3.09504">
        <ele>690.5</ele>
        <time>2013-09-04T12:24:58Z</time>
      </trkpt>
      <trkpt lat="45.67949" lon="3.09589">
        <ele>686.1</ele>
        <time>2013-09-04T12:25:22Z</time>
      </trkpt>
      <trkpt lat="45.67933" lon="3.09644">
        <ele>687.7</ele>
        <time>2013-09-04T12:25:38Z</time>
      </trkpt>
      <trkpt lat="45.67963" lon="3.09662">
        <ele>686.7</ele>
        <time>2013-09-04T12:26:00Z</time>
      </trkpt>
      <trkpt lat="45.67987" lon="3.09759">
        <ele>684.8</ele>
        <time>2013-09-04T12:26:40Z</time>
      </trkpt>
      <trkpt lat="45.6798" lon="3.09922">
        <ele>682.7</ele>
        <time>2013-09-04T12:27:14Z</time>
      </trkpt>
      <trkpt lat="45.67975" lon="3.10072">
        <ele>681.9</ele>
        <time>2013-09-04T12:27:42Z</time>
      </trkpt>
      <trkpt lat="45.67984" lon="3.10149">
        <ele>680.1</ele>
        <time>2013-09-04T12:27:56Z</time>
      </trkpt>
      <trkpt lat="45.68041" lon="3.10347">
        <ele>676.5</ele>
        <time>2013-09-04T12:28:30Z</time>
      </trkpt>
      <trkpt lat="45.68056" lon="3.10391">
        <ele>675.9</ele>
        <time>2013-09-04T12:28:38Z</time>
      </trkpt>
      <trkpt lat="45.68106" lon="3.10595">
        <ele>671.7</ele>
        <time>2013-09-04T12:29:06Z</time>
      </trkpt>
      <trkpt lat="45.68144" lon="3.1073">
        <ele>663.1</ele>
        <time>2013-09-04T12:29:22Z</time>
      </trkpt>
      <trkpt lat="45.68166" lon="3.10818">
        <ele>668.1</ele>
        <time>2013-09-04T12:29:34Z</time>
      </trkpt>
      <trkpt lat="45.68187" lon="3.1089">
        <ele>666.9</ele>
        <time>2013-09-04T12:29:44Z</time>
      </trkpt>
      <trkpt lat="45.68208" lon="3.10971">
        <ele>666.4</ele>
        <time>2013-09-04T12:29:56Z</time>
      </trkpt>
      <trkpt lat="45.68281" lon="3.11195">
        <ele>663</ele>
        <time>2013-09-04T12:30:28Z</time>
      </trkpt>
      <trkpt lat="45.68297" lon="3.11257">
        <ele>659.7</ele>
        <time>2013-09-04T12:30:38Z</time>
      </trkpt>
      <trkpt lat="45.68319" lon="3.11316">
        <ele>660.2</ele>
        <time>2013-09-04T12:30:52Z</time>
      </trkpt>
      <trkpt lat="45.6838" lon="3.11427">
        <ele>656</ele>
        <time>2013-09-04T12:31:26Z</time>
      </trkpt>
      <trkpt lat="45.68401" lon="3.1151">
        <ele>662</ele>
        <time>2013-09-04T12:31:38Z</time>
      </trkpt>
      <trkpt lat="45.6842" lon="3.11552">
        <ele>657.5</ele>
        <time>2013-09-04T12:31:44Z</time>
      </trkpt>
      <trkpt lat="45.68447" lon="3.11654">
        <ele>654.4</ele>
        <time>2013-09-04T12:31:56Z</time>
      </trkpt>
      <trkpt lat="45.68474" lon="3.11739">
        <ele>654.4</ele>
        <time>2013-09-04T12:32:06Z</time>
      </trkpt>
      <trkpt lat="45.68491" lon="3.11793">
        <ele>653</ele>
        <time>2013-09-04T12:32:12Z</time>
      </trkpt>
      <trkpt lat="45.68515" lon="3.11924">
        <ele>653.7</ele>
        <time>2013-09-04T12:32:26Z</time>
      </trkpt>
      <trkpt lat="45.68527" lon="3.11995">
        <ele>648.9</ele>
        <time>2013-09-04T12:32:36Z</time>
      </trkpt>
      <trkpt lat="45.68532" lon="3.12041">
        <ele>646.3</ele>
        <time>2013-09-04T12:33:10Z</time>
      </trkpt>
      <trkpt lat="45.68539" lon="3.12091">
        <ele>646</ele>
        <time>2013-09-04T12:33:22Z</time>
      </trkpt>
      <trkpt lat="45.68544" lon="3.1211">
        <ele>639</ele>
        <time>2013-09-04T12:33:26Z</time>
      </trkpt>
      <trkpt lat="45.68551" lon="3.1217">
        <ele>632.2</ele>
        <time>2013-09-04T12:33:46Z</time>
      </trkpt>
      <trkpt lat="45.68549" lon="3.1219">
        <ele>628.2</ele>
        <time>2013-09-04T12:33:52Z</time>
      </trkpt>
      <trkpt lat="45.6854" lon="3.12269">
        <ele>621.2</ele>
        <time>2013-09-04T12:34:10Z</time>
      </trkpt>
      <trkpt lat="45.68529" lon="3.1231">
        <ele>617.5</ele>
        <time>2013-09-04T12:34:16Z</time>
      </trkpt>
      <trkpt lat="45.68495" lon="3.12364">
        <ele>620.2</ele>
        <time>2013-09-04T12:34:28Z</time>
      </trkpt>
      <trkpt lat="45.68467" lon="3.12382">
        <ele>618.8</ele>
        <time>2013-09-04T12:34:46Z</time>
      </trkpt>
      <trkpt lat="45.68472" lon="3.12426">
        <ele>615.1</ele>
        <time>2013-09-04T12:34:54Z</time>
      </trkpt>
      <trkpt lat="45.68479" lon="3.1246">
        <ele>607.5</ele>
        <time>2013-09-04T12:35:15Z</time>
      </trkpt>
      <trkpt lat="45.68475" lon="3.12452">
        <ele>609.8</ele>
        <time>2013-09-04T12:35:23Z</time>
      </trkpt>
      <trkpt lat="45.68421" lon="3.12331">
        <ele>612.1</ele>
        <time>2013-09-04T12:36:04Z</time>
      </trkpt>
      <trkpt lat="45.68409" lon="3.12194">
        <ele>606.3</ele>
        <time>2013-09-04T12:36:24Z</time>
      </trkpt>
      <trkpt lat="45.68394" lon="3.12139">
        <ele>607.8</ele>
        <time>2013-09-04T12:36:32Z</time>
      </trkpt>
      <trkpt lat="45.6836" lon="3.12091">
        <ele>601.1</ele>
        <time>2013-09-04T12:36:40Z</time>
      </trkpt>
      <trkpt lat="45.68321" lon="3.12025">
        <ele>598.2</ele>
        <time>2013-09-04T12:36:58Z</time>
      </trkpt>
      <trkpt lat="45.68242" lon="3.11912">
        <ele>602.9</ele>
        <time>2013-09-04T12:37:36Z</time>
      </trkpt>
      <trkpt lat="45.68232" lon="3.11903">
        <ele>599.7</ele>
        <time>2013-09-04T12:37:40Z</time>
      </trkpt>
      <trkpt lat="45.68182" lon="3.11825">
        <ele>598</ele>
        <time>2013-09-04T12:38:58Z</time>
      </trkpt>
      <trkpt lat="45.68228" lon="3.11892">
        <ele>600.7</ele>
        <time>2013-09-04T12:39:18Z</time>
      </trkpt>
      <trkpt lat="45.68302" lon="3.11984">
        <ele>596.2</ele>
        <time>2013-09-04T12:39:42Z</time>
      </trkpt>
      <trkpt lat="45.68341" lon="3.12044">
        <ele>599.6</ele>
        <time>2013-09-04T12:39:58Z</time>
      </trkpt>
      <trkpt lat="45.6838" lon="3.12104">
        <ele>604.5</ele>
        <time>2013-09-04T12:40:18Z</time>
      </trkpt>
      <trkpt lat="45.68399" lon="3.12133">
        <ele>608.1</ele>
        <time>2013-09-04T12:40:34Z</time>
      </trkpt>
      <trkpt lat="45.68413" lon="3.12259">
        <ele>609.6</ele>
        <time>2013-09-04T12:41:12Z</time>
      </trkpt>
      <trkpt lat="45.68446" lon="3.12387">
        <ele>610.9</ele>
        <time>2013-09-04T12:41:40Z</time>
      </trkpt>
      <trkpt lat="45.68487" lon="3.12488">
        <ele>607</ele>
        <time>2013-09-04T12:42:00Z</time>
      </trkpt>
      <trkpt lat="45.6851" lon="3.12581">
        <ele>602.2</ele>
        <time>2013-09-04T12:42:10Z</time>
      </trkpt>
      <trkpt lat="45.68491" lon="3.12592">
        <ele>599.8</ele>
        <time>2013-09-04T12:42:18Z</time>
      </trkpt>
      <trkpt lat="45.68461" lon="3.12567">
        <ele>599.5</ele>
        <time>2013-09-04T12:42:24Z</time>
      </trkpt>
      <trkpt lat="45.68399" lon="3.12497">
        <ele>594</ele>
        <time>2013-09-04T12:42:34Z</time>
      </trkpt>
      <trkpt lat="45.68366" lon="3.12449">
        <ele>590.2</ele>
        <time>2013-09-04T12:42:40Z</time>
      </trkpt>
      <trkpt lat="45.68276" lon="3.12302">
        <ele>582.4</ele>
        <time>2013-09-04T12:42:58Z</time>
      </trkpt>
      <trkpt lat="45.68231" lon="3.12228">
        <ele>569.4</ele>
        <time>2013-09-04T12:43:06Z</time>
      </trkpt>
      <trkpt lat="45.68207" lon="3.12194">
        <ele>567</ele>
        <time>2013-09-04T12:43:10Z</time>
      </trkpt>
      <trkpt lat="45.6816" lon="3.12122">
        <ele>567.6</ele>
        <time>2013-09-04T12:43:18Z</time>
      </trkpt>
      <trkpt lat="45.68065" lon="3.12009">
        <ele>561.2</ele>
        <time>2013-09-04T12:43:32Z</time>
      </trkpt>
      <trkpt lat="45.68024" lon="3.11944">
        <ele>557</ele>
        <time>2013-09-04T12:43:40Z</time>
      </trkpt>
      <trkpt lat="45.67978" lon="3.11835">
        <ele>561.2</ele>
        <time>2013-09-04T12:43:54Z</time>
      </trkpt>
      <trkpt lat="45.67939" lon="3.1181">
        <ele>555.9</ele>
        <time>2013-09-04T12:44:02Z</time>
      </trkpt>
      <trkpt lat="45.67898" lon="3.11809">
        <ele>550.4</ele>
        <time>2013-09-04T12:44:08Z</time>
      </trkpt>
      <trkpt lat="45.67857" lon="3.11795">
        <ele>542.4</ele>
        <time>2013-09-04T12:44:14Z</time>
      </trkpt>
      <trkpt lat="45.67801" lon="3.1178">
        <ele>537.6</ele>
        <time>2013-09-04T12:44:22Z</time>
      </trkpt>
      <trkpt lat="45.67777" lon="3.1177">
        <ele>538.9</ele>
        <time>2013-09-04T12:44:26Z</time>
      </trkpt>
      <trkpt lat="45.67754" lon="3.11738">
        <ele>535.3</ele>
        <time>2013-09-04T12:44:32Z</time>
      </trkpt>
      <trkpt lat="45.67711" lon="3.11727">
        <ele>529.4</ele>
        <time>2013-09-04T12:44:54Z</time>
      </trkpt>
      <trkpt lat="45.67703" lon="3.11728">
        <ele>528.3</ele>
        <time>2013-09-04T12:45:07Z</time>
      </trkpt>
      <trkpt lat="45.6766" lon="3.11689">
        <ele>524</ele>
        <time>2013-09-04T12:45:21Z</time>
      </trkpt>
      <trkpt lat="45.67598" lon="3.1162">
        <ele>521.5</ele>
        <time>2013-09-04T12:45:35Z</time>
      </trkpt>
      <trkpt lat="45.67535" lon="3.11618">
        <ele>513.5</ele>
        <time>2013-09-04T12:45:43Z</time>
      </trkpt>
      <trkpt lat="45.67519" lon="3.11608">
        <ele>509.6</ele>
        <time>2013-09-04T12:45:49Z</time>
      </trkpt>
      <trkpt lat="45.67519" lon="3.11566">
        <ele>505.5</ele>
        <time>2013-09-04T12:45:57Z</time>
      </trkpt>
      <trkpt lat="45.67517" lon="3.11525">
        <ele>500.2</ele>
        <time>2013-09-04T12:46:05Z</time>
      </trkpt>
      <trkpt lat="45.67551" lon="3.11448">
        <ele>496.7</ele>
        <time>2013-09-04T12:46:21Z</time>
      </trkpt>
      <trkpt lat="45.67532" lon="3.11377">
        <ele>493.6</ele>
        <time>2013-09-04T12:46:31Z</time>
      </trkpt>
      <trkpt lat="45.67499" lon="3.11339">
        <ele>495.2</ele>
        <time>2013-09-04T12:46:37Z</time>
      </trkpt>
      <trkpt lat="45.6746" lon="3.11306">
        <ele>490.3</ele>
        <time>2013-09-04T12:46:43Z</time>
      </trkpt>
      <trkpt lat="45.67303" lon="3.11167">
        <ele>484.3</ele>
        <time>2013-09-04T12:47:05Z</time>
      </trkpt>
      <trkpt lat="45.67275" lon="3.11084">
        <ele>480.2</ele>
        <time>2013-09-04T12:47:13Z</time>
      </trkpt>
      <trkpt lat="45.67233" lon="3.10974">
        <ele>475.2</ele>
        <time>2013-09-04T12:47:23Z</time>
      </trkpt>
      <trkpt lat="45.67207" lon="3.10912">
        <ele>477.5</ele>
        <time>2013-09-04T12:47:29Z</time>
      </trkpt>
      <trkpt lat="45.6718" lon="3.1083">
        <ele>474.3</ele>
        <time>2013-09-04T12:47:41Z</time>
      </trkpt>
      <trkpt lat="45.67186" lon="3.10847">
        <ele>474</ele>
        <time>2013-09-04T12:47:59Z</time>
      </trkpt>
      <trkpt lat="45.67184" lon="3.10834">
        <ele>473.5</ele>
        <time>2013-09-04T12:48:09Z</time>
      </trkpt>
      <trkpt lat="45.67082" lon="3.10786">
        <ele>473.5</ele>
        <time>2013-09-04T12:48:33Z</time>
      </trkpt>
      <trkpt lat="45.67052" lon="3.10745">
        <ele>476.8</ele>
        <time>2013-09-04T12:48:51Z</time>
      </trkpt>
      <trkpt lat="45.67057" lon="3.10699">
        <ele>481.5</ele>
        <time>2013-09-04T12:49:05Z</time>
      </trkpt>
      <trkpt lat="45.67059" lon="3.10499">
        <ele>484.9</ele>
        <time>2013-09-04T12:49:53Z</time>
      </trkpt>
      <trkpt lat="45.67057" lon="3.10417">
        <ele>481.6</ele>
        <time>2013-09-04T12:50:09Z</time>
      </trkpt>
      <trkpt lat="45.66982" lon="3.1035">
        <ele>489.7</ele>
        <time>2013-09-04T12:50:39Z</time>
      </trkpt>
      <trkpt lat="45.66974" lon="3.10279">
        <ele>488.1</ele>
        <time>2013-09-04T12:50:59Z</time>
      </trkpt>
      <trkpt lat="45.66993" lon="3.10238">
        <ele>483.5</ele>
        <time>2013-09-04T12:51:07Z</time>
      </trkpt>
      <trkpt lat="45.6701" lon="3.1018">
        <ele>482.5</ele>
        <time>2013-09-04T12:51:51Z</time>
      </trkpt>
      <trkpt lat="45.66977" lon="3.10264">
        <ele>488.4</ele>
        <time>2013-09-04T12:52:21Z</time>
      </trkpt>
      <trkpt lat="45.6692" lon="3.10231">
        <ele>491.6</ele>
        <time>2013-09-04T12:52:47Z</time>
      </trkpt>
      <trkpt lat="45.669" lon="3.10141">
        <ele>489.9</ele>
        <time>2013-09-04T12:53:03Z</time>
      </trkpt>
      <trkpt lat="45.66851" lon="3.10079">
        <ele>489.8</ele>
        <time>2013-09-04T12:53:17Z</time>
      </trkpt>
      <trkpt lat="45.66773" lon="3.10039">
        <ele>490.7</ele>
        <time>2013-09-04T12:53:35Z</time>
      </trkpt>
      <trkpt lat="45.66684" lon="3.09996">
        <ele>495.1</ele>
        <time>2013-09-04T12:53:57Z</time>
      </trkpt>
      <trkpt lat="45.66618" lon="3.0997">
        <ele>498.3</ele>
        <time>2013-09-04T12:54:27Z</time>
      </trkpt>
      <trkpt lat="45.66587" lon="3.09925">
        <ele>501.5</ele>
        <time>2013-09-04T12:54:47Z</time>
      </trkpt>
      <trkpt lat="45.66569" lon="3.09788">
        <ele>504.5</ele>
        <time>2013-09-04T12:55:21Z</time>
      </trkpt>
      <trkpt lat="45.66481" lon="3.09694">
        <ele>507.5</ele>
        <time>2013-09-04T12:55:49Z</time>
      </trkpt>
      <trkpt lat="45.66468" lon="3.09639">
        <ele>513.2</ele>
        <time>2013-09-04T12:56:09Z</time>
      </trkpt>
      <trkpt lat="45.66459" lon="3.09528">
        <ele>519.7</ele>
        <time>2013-09-04T12:56:43Z</time>
      </trkpt>
      <trkpt lat="45.66452" lon="3.09471">
        <ele>523.6</ele>
        <time>2013-09-04T12:57:01Z</time>
      </trkpt>
      <trkpt lat="45.66435" lon="3.09384">
        <ele>527.5</ele>
        <time>2013-09-04T12:57:29Z</time>
      </trkpt>
      <trkpt lat="45.66408" lon="3.09219">
        <ele>530.3</ele>
        <time>2013-09-04T12:58:03Z</time>
      </trkpt>
      <trkpt lat="45.66397" lon="3.09153">
        <ele>533.9</ele>
        <time>2013-09-04T12:58:19Z</time>
      </trkpt>
      <trkpt lat="45.66375" lon="3.09032">
        <ele>533.6</ele>
        <time>2013-09-04T12:58:45Z</time>
      </trkpt>
      <trkpt lat="45.66343" lon="3.08962">
        <ele>536.6</ele>
        <time>2013-09-04T12:58:59Z</time>
      </trkpt>
      <trkpt lat="45.66253" lon="3.08672">
        <ele>542.4</ele>
        <time>2013-09-04T12:59:53Z</time>
      </trkpt>
      <trkpt lat="45.66208" lon="3.08484">
        <ele>545.8</ele>
        <time>2013-09-04T13:00:33Z</time>
      </trkpt>
      <trkpt lat="45.66182" lon="3.08356">
        <ele>551.3</ele>
        <time>2013-09-04T13:01:01Z</time>
      </trkpt>
      <trkpt lat="45.6619" lon="3.08273">
        <ele>555.1</ele>
        <time>2013-09-04T13:01:21Z</time>
      </trkpt>
      <trkpt lat="45.66186" lon="3.08218">
        <ele>554.2</ele>
        <time>2013-09-04T13:01:31Z</time>
      </trkpt>
      <trkpt lat="45.66158" lon="3.08091">
        <ele>558</ele>
        <time>2013-09-04T13:02:03Z</time>
      </trkpt>
      <trkpt lat="45.66141" lon="3.08004">
        <ele>562.5</ele>
        <time>2013-09-04T13:02:25Z</time>
      </trkpt>
      <trkpt lat="45.66132" lon="3.07957">
        <ele>565.6</ele>
        <time>2013-09-04T13:02:39Z</time>
      </trkpt>
      <trkpt lat="45.66122" lon="3.07817">
        <ele>568.9</ele>
        <time>2013-09-04T13:03:45Z</time>
      </trkpt>
      <trkpt lat="45.66114" lon="3.07821">
        <ele>567.6</ele>
        <time>2013-09-04T13:04:05Z</time>
      </trkpt>
      <trkpt lat="45.66122" lon="3.07808">
        <ele>568.2</ele>
        <time>2013-09-04T13:04:32Z</time>
      </trkpt>
      <trkpt lat="45.66211" lon="3.07821">
        <ele>563.1</ele>
        <time>2013-09-04T13:04:58Z</time>
      </trkpt>
      <trkpt lat="45.6624" lon="3.07869">
        <ele>565.2</ele>
        <time>2013-09-04T13:05:08Z</time>
      </trkpt>
      <trkpt lat="45.66268" lon="3.07856">
        <ele>565.3</ele>
        <time>2013-09-04T13:05:44Z</time>
      </trkpt>
      <trkpt lat="45.6633" lon="3.07834">
        <ele>561.8</ele>
        <time>2013-09-04T13:06:02Z</time>
      </trkpt>
      <trkpt lat="45.66424" lon="3.0773">
        <ele>562.7</ele>
        <time>2013-09-04T13:06:26Z</time>
      </trkpt>
      <trkpt lat="45.66447" lon="3.07582">
        <ele>562.8</ele>
        <time>2013-09-04T13:06:50Z</time>
      </trkpt>
      <trkpt lat="45.6641" lon="3.07489">
        <ele>566.4</ele>
        <time>2013-09-04T13:07:08Z</time>
      </trkpt>
      <trkpt lat="45.66356" lon="3.0737">
        <ele>568.8</ele>
        <time>2013-09-04T13:07:38Z</time>
      </trkpt>
      <trkpt lat="45.66354" lon="3.0734">
        <ele>574.8</ele>
        <time>2013-09-04T13:07:48Z</time>
      </trkpt>
      <trkpt lat="45.6636" lon="3.07221">
        <ele>580.5</ele>
        <time>2013-09-04T13:08:24Z</time>
      </trkpt>
      <trkpt lat="45.66399" lon="3.07226">
        <ele>586.7</ele>
        <time>2013-09-04T13:08:50Z</time>
      </trkpt>
      <trkpt lat="45.66433" lon="3.07284">
        <ele>588</ele>
        <time>2013-09-04T13:09:28Z</time>
      </trkpt>
      <trkpt lat="45.66515" lon="3.07248">
        <ele>593.3</ele>
        <time>2013-09-04T13:09:56Z</time>
      </trkpt>
      <trkpt lat="45.66617" lon="3.07199">
        <ele>600.1</ele>
        <time>2013-09-04T13:10:36Z</time>
      </trkpt>
      <trkpt lat="45.66651" lon="3.07137">
        <ele>603.7</ele>
        <time>2013-09-04T13:11:00Z</time>
      </trkpt>
      <trkpt lat="45.66675" lon="3.0707">
        <ele>607.2</ele>
        <time>2013-09-04T13:11:20Z</time>
      </trkpt>
      <trkpt lat="45.66685" lon="3.07048">
        <ele>610.5</ele>
        <time>2013-09-04T13:11:28Z</time>
      </trkpt>
      <trkpt lat="45.66738" lon="3.06953">
        <ele>616.4</ele>
        <time>2013-09-04T13:12:08Z</time>
      </trkpt>
      <trkpt lat="45.66754" lon="3.06907">
        <ele>620.3</ele>
        <time>2013-09-04T13:12:30Z</time>
      </trkpt>
      <trkpt lat="45.66764" lon="3.06811">
        <ele>623.4</ele>
        <time>2013-09-04T13:13:00Z</time>
      </trkpt>
      <trkpt lat="45.66788" lon="3.06741">
        <ele>624.6</ele>
        <time>2013-09-04T13:13:22Z</time>
      </trkpt>
      <trkpt lat="45.66817" lon="3.06714">
        <ele>624.3</ele>
        <time>2013-09-04T13:13:36Z</time>
      </trkpt>
      <trkpt lat="45.66882" lon="3.0664">
        <ele>619.8</ele>
        <time>2013-09-04T13:13:50Z</time>
      </trkpt>
      <trkpt lat="45.66899" lon="3.06557">
        <ele>614.2</ele>
        <time>2013-09-04T13:14:00Z</time>
      </trkpt>
      <trkpt lat="45.66985" lon="3.06405">
        <ele>613.4</ele>
        <time>2013-09-04T13:15:48Z</time>
      </trkpt>
      <trkpt lat="45.67016" lon="3.06231">
        <ele>615.1</ele>
        <time>2013-09-04T13:16:53Z</time>
      </trkpt>
      <trkpt lat="45.67025" lon="3.06147">
        <ele>615.1</ele>
        <time>2013-09-04T13:17:09Z</time>
      </trkpt>
      <trkpt lat="45.67114" lon="3.0588">
        <ele>621.6</ele>
        <time>2013-09-04T13:18:11Z</time>
      </trkpt>
      <trkpt lat="45.67142" lon="3.05827">
        <ele>621.3</ele>
        <time>2013-09-04T13:18:31Z</time>
      </trkpt>
      <trkpt lat="45.67172" lon="3.05844">
        <ele>624.6</ele>
        <time>2013-09-04T13:18:49Z</time>
      </trkpt>
      <trkpt lat="45.67213" lon="3.0586">
        <ele>631.2</ele>
        <time>2013-09-04T13:19:15Z</time>
      </trkpt>
      <trkpt lat="45.67242" lon="3.05866">
        <ele>630.5</ele>
        <time>2013-09-04T13:19:31Z</time>
      </trkpt>
      <trkpt lat="45.67301" lon="3.05851">
        <ele>637.2</ele>
        <time>2013-09-04T13:20:07Z</time>
      </trkpt>
      <trkpt lat="45.67339" lon="3.05864">
        <ele>640.8</ele>
        <time>2013-09-04T13:20:33Z</time>
      </trkpt>
      <trkpt lat="45.67347" lon="3.05887">
        <ele>645.3</ele>
        <time>2013-09-04T13:20:45Z</time>
      </trkpt>
      <trkpt lat="45.67379" lon="3.05993">
        <ele>651.8</ele>
        <time>2013-09-04T13:21:35Z</time>
      </trkpt>
      <trkpt lat="45.67467" lon="3.06078">
        <ele>657.8</ele>
        <time>2013-09-04T13:22:23Z</time>
      </trkpt>
      <trkpt lat="45.67536" lon="3.06268">
        <ele>662.1</ele>
        <time>2013-09-04T13:23:13Z</time>
      </trkpt>
      <trkpt lat="45.67546" lon="3.06388">
        <ele>666.2</ele>
        <time>2013-09-04T13:23:39Z</time>
      </trkpt>
      <trkpt lat="45.67552" lon="3.06411">
        <ele>662.5</ele>
        <time>2013-09-04T13:23:45Z</time>
      </trkpt>
      <trkpt lat="45.67572" lon="3.06478">
        <ele>670.7</ele>
        <time>2013-09-04T13:24:09Z</time>
      </trkpt>
      <trkpt lat="45.67585" lon="3.06538">
        <ele>675.4</ele>
        <time>2013-09-04T13:24:31Z</time>
      </trkpt>
      <trkpt lat="45.67602" lon="3.06676">
        <ele>679.8</ele>
        <time>2013-09-04T13:25:19Z</time>
      </trkpt>
      <trkpt lat="45.67615" lon="3.06779">
        <ele>688.3</ele>
        <time>2013-09-04T13:25:55Z</time>
      </trkpt>
      <trkpt lat="45.67614" lon="3.06871">
        <ele>691.5</ele>
        <time>2013-09-04T13:26:25Z</time>
      </trkpt>
      <trkpt lat="45.67607" lon="3.06883">
        <ele>691.7</ele>
        <time>2013-09-04T13:35:37Z</time>
      </trkpt>
      <trkpt lat="45.67677" lon="3.0687">
        <ele>692.5</ele>
        <time>2013-09-04T13:36:11Z</time>
      </trkpt>
      <trkpt lat="45.67737" lon="3.06854">
        <ele>689.3</ele>
        <time>2013-09-04T13:36:31Z</time>
      </trkpt>
      <trkpt lat="45.67873" lon="3.06835">
        <ele>692.4</ele>
        <time>2013-09-04T13:37:13Z</time>
      </trkpt>
      <trkpt lat="45.6793" lon="3.0685">
        <ele>693.6</ele>
        <time>2013-09-04T13:37:31Z</time>
      </trkpt>
      <trkpt lat="45.67979" lon="3.06867">
        <ele>696.7</ele>
        <time>2013-09-04T13:37:49Z</time>
      </trkpt>
      <trkpt lat="45.68014" lon="3.06871">
        <ele>699.7</ele>
        <time>2013-09-04T13:38:05Z</time>
      </trkpt>
      <trkpt lat="45.68051" lon="3.06866">
        <ele>704</ele>
        <time>2013-09-04T13:38:27Z</time>
      </trkpt>
      <trkpt lat="45.68123" lon="3.06871">
        <ele>714</ele>
        <time>2013-09-04T13:39:17Z</time>
      </trkpt>
      <trkpt lat="45.68172" lon="3.06879">
        <ele>719.4</ele>
        <time>2013-09-04T13:39:51Z</time>
      </trkpt>
      <trkpt lat="45.68189" lon="3.06892">
        <ele>723.2</ele>
        <time>2013-09-04T13:40:05Z</time>
      </trkpt>
      <trkpt lat="45.68215" lon="3.06911">
        <ele>727.8</ele>
        <time>2013-09-04T13:40:29Z</time>
      </trkpt>
      <trkpt lat="45.68267" lon="3.0694">
        <ele>731.7</ele>
        <time>2013-09-04T13:41:09Z</time>
      </trkpt>
      <trkpt lat="45.68274" lon="3.06946">
        <ele>734.9</ele>
        <time>2013-09-04T13:41:15Z</time>
      </trkpt>
      <trkpt lat="45.68304" lon="3.06963">
        <ele>740.3</ele>
        <time>2013-09-04T13:43:11Z</time>
      </trkpt>
      <trkpt lat="45.68333" lon="3.06992">
        <ele>746.7</ele>
        <time>2013-09-04T13:44:05Z</time>
      </trkpt>
      <trkpt lat="45.68389" lon="3.06994">
        <ele>749.1</ele>
        <time>2013-09-04T13:44:41Z</time>
      </trkpt>
      <trkpt lat="45.68432" lon="3.06868">
        <ele>750.9</ele>
        <time>2013-09-04T13:45:19Z</time>
      </trkpt>
      <trkpt lat="45.68456" lon="3.06786">
        <ele>756.3</ele>
        <time>2013-09-04T13:45:47Z</time>
      </trkpt>
      <trkpt lat="45.68457" lon="3.06666">
        <ele>761.8</ele>
        <time>2013-09-04T13:46:23Z</time>
      </trkpt>
      <trkpt lat="45.68464" lon="3.065">
        <ele>768.7</ele>
        <time>2013-09-04T13:47:03Z</time>
      </trkpt>
      <trkpt lat="45.6845" lon="3.06323">
        <ele>773.9</ele>
        <time>2013-09-04T13:47:45Z</time>
      </trkpt>
      <trkpt lat="45.68439" lon="3.06131">
        <ele>780.5</ele>
        <time>2013-09-04T13:48:29Z</time>
      </trkpt>
      <trkpt lat="45.68404" lon="3.06177">
        <ele>779.7</ele>
        <time>2013-09-04T13:49:03Z</time>
      </trkpt>
      <trkpt lat="45.6837" lon="3.06268">
        <ele>776.3</ele>
        <time>2013-09-04T13:49:33Z</time>
      </trkpt>
      <trkpt lat="45.68343" lon="3.06299">
        <ele>771.2</ele>
        <time>2013-09-04T13:55:00Z</time>
      </trkpt>
      <trkpt lat="45.68344" lon="3.06302">
        <ele>771.4</ele>
        <time>2013-09-04T13:55:04Z</time>
      </trkpt>
      <trkpt lat="45.68371" lon="3.06226">
        <ele>779.8</ele>
        <time>2013-09-06T12:47:32Z</time>
      </trkpt>
      <trkpt lat="45.68403" lon="3.06178">
        <ele>780.8</ele>
        <time>2013-09-06T12:48:21Z</time>
      </trkpt>
      <trkpt lat="45.68457" lon="3.05851">
        <ele>791.2</ele>
        <time>2013-09-06T12:50:09Z</time>
      </trkpt>
      <trkpt lat="45.68471" lon="3.05737">
        <ele>798.1</ele>
        <time>2013-09-06T12:50:45Z</time>
      </trkpt>
      <trkpt lat="45.68457" lon="3.05635">
        <ele>804.5</ele>
        <time>2013-09-06T12:51:33Z</time>
      </trkpt>
      <trkpt lat="45.68415" lon="3.05499">
        <ele>816.5</ele>
        <time>2013-09-06T12:52:41Z</time>
      </trkpt>
      <trkpt lat="45.68354" lon="3.05456">
        <ele>822.5</ele>
        <time>2013-09-06T12:53:21Z</time>
      </trkpt>
      <trkpt lat="45.68284" lon="3.05354">
        <ele>829.6</ele>
        <time>2013-09-06T12:54:17Z</time>
      </trkpt>
      <trkpt lat="45.6826" lon="3.05255">
        <ele>834.7</ele>
        <time>2013-09-06T12:54:59Z</time>
      </trkpt>
      <trkpt lat="45.68251" lon="3.05201">
        <ele>840.6</ele>
        <time>2013-09-06T12:55:21Z</time>
      </trkpt>
      <trkpt lat="45.68176" lon="3.05106">
        <ele>845.1</ele>
        <time>2013-09-06T12:56:11Z</time>
      </trkpt>
      <trkpt lat="45.68111" lon="3.05064">
        <ele>848.1</ele>
        <time>2013-09-06T12:56:47Z</time>
      </trkpt>
      <trkpt lat="45.68033" lon="3.04965">
        <ele>854.7</ele>
        <time>2013-09-06T12:57:37Z</time>
      </trkpt>
      <trkpt lat="45.68018" lon="3.04923">
        <ele>854.9</ele>
        <time>2013-09-06T12:57:57Z</time>
      </trkpt>
      <trkpt lat="45.68048" lon="3.04758">
        <ele>865.3</ele>
        <time>2013-09-06T12:58:59Z</time>
      </trkpt>
      <trkpt lat="45.68092" lon="3.0462">
        <ele>875.4</ele>
        <time>2013-09-06T12:59:56Z</time>
      </trkpt>
      <trkpt lat="45.68122" lon="3.04529">
        <ele>884.5</ele>
        <time>2013-09-06T13:00:41Z</time>
      </trkpt>
      <trkpt lat="45.68118" lon="3.04468">
        <ele>888.5</ele>
        <time>2013-09-06T13:01:07Z</time>
      </trkpt>
      <trkpt lat="45.68101" lon="3.04361">
        <ele>897.4</ele>
        <time>2013-09-06T13:01:57Z</time>
      </trkpt>
      <trkpt lat="45.68041" lon="3.04252">
        <ele>904.3</ele>
        <time>2013-09-06T13:02:49Z</time>
      </trkpt>
      <trkpt lat="45.68032" lon="3.04065">
        <ele>907.1</ele>
        <time>2013-09-06T13:03:49Z</time>
      </trkpt>
      <trkpt lat="45.68037" lon="3.03933">
        <ele>911.9</ele>
        <time>2013-09-06T13:04:25Z</time>
      </trkpt>
      <trkpt lat="45.68054" lon="3.03824">
        <ele>918.6</ele>
        <time>2013-09-06T13:05:05Z</time>
      </trkpt>
      <trkpt lat="45.68079" lon="3.03525">
        <ele>927.5</ele>
        <time>2013-09-06T13:06:31Z</time>
      </trkpt>
      <trkpt lat="45.68122" lon="3.03412">
        <ele>934.5</ele>
        <time>2013-09-06T13:07:21Z</time>
      </trkpt>
      <trkpt lat="45.68158" lon="3.034">
        <ele>937.5</ele>
        <time>2013-09-06T13:07:39Z</time>
      </trkpt>
      <trkpt lat="45.68183" lon="3.03304">
        <ele>945.1</ele>
        <time>2013-09-06T13:08:23Z</time>
      </trkpt>
      <trkpt lat="45.68173" lon="3.03182">
        <ele>952.1</ele>
        <time>2013-09-06T13:09:11Z</time>
      </trkpt>
      <trkpt lat="45.68176" lon="3.03064">
        <ele>956.9</ele>
        <time>2013-09-06T13:09:47Z</time>
      </trkpt>
      <trkpt lat="45.6815" lon="3.02829">
        <ele>960.1</ele>
        <time>2013-09-06T13:10:51Z</time>
      </trkpt>
      <trkpt lat="45.68218" lon="3.02507">
        <ele>956.9</ele>
        <time>2013-09-06T13:11:51Z</time>
      </trkpt>
      <trkpt lat="45.6824" lon="3.02471">
        <ele>960.5</ele>
        <time>2013-09-06T13:12:03Z</time>
      </trkpt>
      <trkpt lat="45.68241" lon="3.02225">
        <ele>964</ele>
        <time>2013-09-06T13:13:05Z</time>
      </trkpt>
      <trkpt lat="45.68223" lon="3.01983">
        <ele>968.7</ele>
        <time>2013-09-06T13:14:01Z</time>
      </trkpt>
      <trkpt lat="45.68271" lon="3.01981">
        <ele>971.2</ele>
        <time>2013-09-06T13:14:25Z</time>
      </trkpt>
      <trkpt lat="45.68407" lon="3.01995">
        <ele>975.4</ele>
        <time>2013-09-06T13:15:17Z</time>
      </trkpt>
      <trkpt lat="45.68416" lon="3.01942">
        <ele>978.1</ele>
        <time>2013-09-06T13:15:37Z</time>
      </trkpt>
      <trkpt lat="45.68411" lon="3.01775">
        <ele>986.4</ele>
        <time>2013-09-06T13:16:33Z</time>
      </trkpt>
      <trkpt lat="45.68446" lon="3.01552">
        <ele>991.4</ele>
        <time>2013-09-06T13:17:37Z</time>
      </trkpt>
      <trkpt lat="45.68484" lon="3.01335">
        <ele>998.5</ele>
        <time>2013-09-06T13:18:37Z</time>
      </trkpt>
      <trkpt lat="45.68547" lon="3.01074">
        <ele>1003.4</ele>
        <time>2013-09-06T13:19:45Z</time>
      </trkpt>
      <trkpt lat="45.68557" lon="3.01021">
        <ele>1002.1</ele>
        <time>2013-09-06T13:19:57Z</time>
      </trkpt>
      <trkpt lat="45.68602" lon="3.0102">
        <ele>1004.3</ele>
        <time>2013-09-06T13:20:15Z</time>
      </trkpt>
      <trkpt lat="45.68612" lon="3.00966">
        <ele>1002.6</ele>
        <time>2013-09-06T13:20:31Z</time>
      </trkpt>
      <trkpt lat="45.68621" lon="3.00836">
        <ele>998.6</ele>
        <time>2013-09-06T13:20:49Z</time>
      </trkpt>
      <trkpt lat="45.68634" lon="3.00777">
        <ele>994.7</ele>
        <time>2013-09-06T13:20:57Z</time>
      </trkpt>
      <trkpt lat="45.68667" lon="3.00684">
        <ele>984.2</ele>
        <time>2013-09-06T13:21:27Z</time>
      </trkpt>
      <trkpt lat="45.68699" lon="3.00664">
        <ele>987.5</ele>
        <time>2013-09-06T13:21:43Z</time>
      </trkpt>
      <trkpt lat="45.68906" lon="3.00542">
        <ele>991.1</ele>
        <time>2013-09-06T13:22:57Z</time>
      </trkpt>
      <trkpt lat="45.68953" lon="3.00531">
        <ele>986.8</ele>
        <time>2013-09-06T13:23:05Z</time>
      </trkpt>
      <trkpt lat="45.6904" lon="3.00558">
        <ele>977.4</ele>
        <time>2013-09-06T13:23:23Z</time>
      </trkpt>
      <trkpt lat="45.69119" lon="3.00525">
        <ele>972.7</ele>
        <time>2013-09-06T13:23:39Z</time>
      </trkpt>
      <trkpt lat="45.69187" lon="3.0048">
        <ele>972.4</ele>
        <time>2013-09-06T13:23:55Z</time>
      </trkpt>
      <trkpt lat="45.69302" lon="3.00341">
        <ele>966.3</ele>
        <time>2013-09-06T13:24:29Z</time>
      </trkpt>
      <trkpt lat="45.69332" lon="3.00245">
        <ele>959.8</ele>
        <time>2013-09-06T13:24:45Z</time>
      </trkpt>
      <trkpt lat="45.69345" lon="3.00182">
        <ele>951.4</ele>
        <time>2013-09-06T13:24:53Z</time>
      </trkpt>
      <trkpt lat="45.69383" lon="3.00074">
        <ele>944.8</ele>
        <time>2013-09-06T13:25:07Z</time>
      </trkpt>
      <trkpt lat="45.69444" lon="2.99941">
        <ele>934.2</ele>
        <time>2013-09-06T13:25:27Z</time>
      </trkpt>
      <trkpt lat="45.69423" lon="2.99776">
        <ele>922.3</ele>
        <time>2013-09-06T13:25:55Z</time>
      </trkpt>
      <trkpt lat="45.69418" lon="2.99767">
        <ele>922.9</ele>
        <time>2013-09-06T13:26:13Z</time>
      </trkpt>
      <trkpt lat="45.69357" lon="2.99725">
        <ele>915.3</ele>
        <time>2013-09-06T13:26:39Z</time>
      </trkpt>
      <trkpt lat="45.69304" lon="2.99723">
        <ele>912.8</ele>
        <time>2013-09-06T13:27:33Z</time>
      </trkpt>
      <trkpt lat="45.69233" lon="2.99776">
        <ele>907.1</ele>
        <time>2013-09-06T13:27:47Z</time>
      </trkpt>
      <trkpt lat="45.69234" lon="2.99712">
        <ele>900.8</ele>
        <time>2013-09-06T13:28:03Z</time>
      </trkpt>
      <trkpt lat="45.69269" lon="2.99605">
        <ele>902.9</ele>
        <time>2013-09-06T13:28:17Z</time>
      </trkpt>
      <trkpt lat="45.69238" lon="2.99511">
        <ele>903.7</ele>
        <time>2013-09-06T13:28:37Z</time>
      </trkpt>
      <trkpt lat="45.69187" lon="2.99437">
        <ele>906.7</ele>
        <time>2013-09-06T13:29:01Z</time>
      </trkpt>
      <trkpt lat="45.69166" lon="2.99331">
        <ele>909.7</ele>
        <time>2013-09-06T13:29:25Z</time>
      </trkpt>
      <trkpt lat="45.69152" lon="2.99217">
        <ele>913</ele>
        <time>2013-09-06T13:29:53Z</time>
      </trkpt>
      <trkpt lat="45.69038" lon="2.98819">
        <ele>919.3</ele>
        <time>2013-09-06T13:31:27Z</time>
      </trkpt>
      <trkpt lat="45.68942" lon="2.98686">
        <ele>920.3</ele>
        <time>2013-09-06T13:32:05Z</time>
      </trkpt>
      <trkpt lat="45.68859" lon="2.98671">
        <ele>915.5</ele>
        <time>2013-09-06T13:32:35Z</time>
      </trkpt>
      <trkpt lat="45.68826" lon="2.9864">
        <ele>911.7</ele>
        <time>2013-09-06T13:32:43Z</time>
      </trkpt>
      <trkpt lat="45.68733" lon="2.98479">
        <ele>911.7</ele>
        <time>2013-09-06T13:33:17Z</time>
      </trkpt>
      <trkpt lat="45.68655" lon="2.98238">
        <ele>916</ele>
        <time>2013-09-06T13:34:23Z</time>
      </trkpt>
      <trkpt lat="45.68631" lon="2.98202">
        <ele>915.8</ele>
        <time>2013-09-06T13:34:33Z</time>
      </trkpt>
      <trkpt lat="45.68602" lon="2.98103">
        <ele>918.8</ele>
        <time>2013-09-06T13:34:55Z</time>
      </trkpt>
      <trkpt lat="45.6851" lon="2.98029">
        <ele>920.2</ele>
        <time>2013-09-06T13:35:27Z</time>
      </trkpt>
      <trkpt lat="45.68396" lon="2.97986">
        <ele>914.8</ele>
        <time>2013-09-06T13:35:59Z</time>
      </trkpt>
      <trkpt lat="45.68361" lon="2.97962">
        <ele>914.5</ele>
        <time>2013-09-06T13:36:07Z</time>
      </trkpt>
      <trkpt lat="45.68186" lon="2.9793">
        <ele>910.5</ele>
        <time>2013-09-06T13:36:43Z</time>
      </trkpt>
      <trkpt lat="45.68129" lon="2.97866">
        <ele>905.7</ele>
        <time>2013-09-06T13:36:59Z</time>
      </trkpt>
      <trkpt lat="45.6811" lon="2.9782">
        <ele>907.3</ele>
        <time>2013-09-06T13:37:07Z</time>
      </trkpt>
      <trkpt lat="45.68055" lon="2.97684">
        <ele>912.3</ele>
        <time>2013-09-06T13:37:47Z</time>
      </trkpt>
      <trkpt lat="45.67938" lon="2.97571">
        <ele>917.2</ele>
        <time>2013-09-06T13:38:41Z</time>
      </trkpt>
      <trkpt lat="45.67786" lon="2.973">
        <ele>919.9</ele>
        <time>2013-09-06T13:39:57Z</time>
      </trkpt>
      <trkpt lat="45.67736" lon="2.97227">
        <ele>920</ele>
        <time>2013-09-06T13:40:15Z</time>
      </trkpt>
      <trkpt lat="45.67683" lon="2.97168">
        <ele>923.1</ele>
        <time>2013-09-06T13:40:35Z</time>
      </trkpt>
      <trkpt lat="45.67619" lon="2.97125">
        <ele>929.3</ele>
        <time>2013-09-06T13:41:01Z</time>
      </trkpt>
      <trkpt lat="45.67572" lon="2.97059">
        <ele>935.5</ele>
        <time>2013-09-06T13:41:39Z</time>
      </trkpt>
      <trkpt lat="45.67495" lon="2.96892">
        <ele>943.5</ele>
        <time>2013-09-06T13:42:47Z</time>
      </trkpt>
      <trkpt lat="45.67456" lon="2.96809">
        <ele>947</ele>
        <time>2013-09-06T13:43:17Z</time>
      </trkpt>
      <trkpt lat="45.67436" lon="2.9677">
        <ele>949.2</ele>
        <time>2013-09-06T13:43:31Z</time>
      </trkpt>
      <trkpt lat="45.67359" lon="2.9674">
        <ele>948.7</ele>
        <time>2013-09-06T13:43:59Z</time>
      </trkpt>
      <trkpt lat="45.67143" lon="2.96791">
        <ele>945.9</ele>
        <time>2013-09-06T13:44:47Z</time>
      </trkpt>
      <trkpt lat="45.67096" lon="2.96795">
        <ele>949.5</ele>
        <time>2013-09-06T13:44:59Z</time>
      </trkpt>
      <trkpt lat="45.67073" lon="2.96717">
        <ele>953.1</ele>
        <time>2013-09-06T13:45:29Z</time>
      </trkpt>
      <trkpt lat="45.6706" lon="2.96601">
        <ele>957.9</ele>
        <time>2013-09-06T13:46:03Z</time>
      </trkpt>
      <trkpt lat="45.67034" lon="2.96502">
        <ele>964.2</ele>
        <time>2013-09-06T13:46:39Z</time>
      </trkpt>
      <trkpt lat="45.67009" lon="2.96405">
        <ele>967.8</ele>
        <time>2013-09-06T13:47:17Z</time>
      </trkpt>
      <trkpt lat="45.67011" lon="2.96343">
        <ele>971.8</ele>
        <time>2013-09-06T13:47:37Z</time>
      </trkpt>
      <trkpt lat="45.67005" lon="2.96243">
        <ele>968</ele>
        <time>2013-09-06T13:48:09Z</time>
      </trkpt>
      <trkpt lat="45.66921" lon="2.96206">
        <ele>958.7</ele>
        <time>2013-09-06T13:48:23Z</time>
      </trkpt>
      <trkpt lat="45.66912" lon="2.96155">
        <ele>960.3</ele>
        <time>2013-09-06T13:48:45Z</time>
      </trkpt>
      <trkpt lat="45.66973" lon="2.96045">
        <ele>965.1</ele>
        <time>2013-09-06T13:49:27Z</time>
      </trkpt>
      <trkpt lat="45.67011" lon="2.95964">
        <ele>968.2</ele>
        <time>2013-09-06T13:49:53Z</time>
      </trkpt>
      <trkpt lat="45.6707" lon="2.95846">
        <ele>971.5</ele>
        <time>2013-09-06T13:50:29Z</time>
      </trkpt>
      <trkpt lat="45.67113" lon="2.95709">
        <ele>975.5</ele>
        <time>2013-09-06T13:51:09Z</time>
      </trkpt>
      <trkpt lat="45.67221" lon="2.95521">
        <ele>978.7</ele>
        <time>2013-09-06T13:52:13Z</time>
      </trkpt>
      <trkpt lat="45.67347" lon="2.95224">
        <ele>980.6</ele>
        <time>2013-09-06T13:53:13Z</time>
      </trkpt>
      <trkpt lat="45.6743" lon="2.95062">
        <ele>977.6</ele>
        <time>2013-09-06T13:53:51Z</time>
      </trkpt>
      <trkpt lat="45.67445" lon="2.95016">
        <ele>978.7</ele>
        <time>2013-09-06T13:53:59Z</time>
      </trkpt>
      <trkpt lat="45.67473" lon="2.94917">
        <ele>979</ele>
        <time>2013-09-06T13:54:15Z</time>
      </trkpt>
      <trkpt lat="45.67632" lon="2.94588">
        <ele>985.5</ele>
        <time>2013-09-06T13:55:27Z</time>
      </trkpt>
      <trkpt lat="45.67673" lon="2.94501">
        <ele>986.4</ele>
        <time>2013-09-06T13:55:49Z</time>
      </trkpt>
      <trkpt lat="45.67718" lon="2.94354">
        <ele>982.7</ele>
        <time>2013-09-06T13:56:15Z</time>
      </trkpt>
      <trkpt lat="45.67749" lon="2.94268">
        <ele>986.2</ele>
        <time>2013-09-06T13:56:35Z</time>
      </trkpt>
      <trkpt lat="45.67763" lon="2.94216">
        <ele>990.2</ele>
        <time>2013-09-06T13:56:47Z</time>
      </trkpt>
      <trkpt lat="45.67802" lon="2.93999">
        <ele>994</ele>
        <time>2013-09-06T13:57:37Z</time>
      </trkpt>
      <trkpt lat="45.67869" lon="2.93748">
        <ele>996.5</ele>
        <time>2013-09-06T13:58:45Z</time>
      </trkpt>
      <trkpt lat="45.67948" lon="2.93576">
        <ele>993.6</ele>
        <time>2013-09-06T13:59:27Z</time>
      </trkpt>
      <trkpt lat="45.6802" lon="2.93621">
        <ele>991.5</ele>
        <time>2013-09-06T13:59:45Z</time>
      </trkpt>
      <trkpt lat="45.68058" lon="2.93643">
        <ele>990.8</ele>
        <time>2013-09-06T13:59:53Z</time>
      </trkpt>
      <trkpt lat="45.68224" lon="2.93686">
        <ele>984.7</ele>
        <time>2013-09-06T14:00:19Z</time>
      </trkpt>
      <trkpt lat="45.68333" lon="2.93761">
        <ele>981.2</ele>
        <time>2013-09-06T14:00:35Z</time>
      </trkpt>
      <trkpt lat="45.68388" lon="2.93828">
        <ele>977</ele>
        <time>2013-09-06T14:00:43Z</time>
      </trkpt>
      <trkpt lat="45.68464" lon="2.93876">
        <ele>973.4</ele>
        <time>2013-09-06T14:00:53Z</time>
      </trkpt>
      <trkpt lat="45.68533" lon="2.93884">
        <ele>969.7</ele>
        <time>2013-09-06T14:01:07Z</time>
      </trkpt>
      <trkpt lat="45.68629" lon="2.93876">
        <ele>973.5</ele>
        <time>2013-09-06T14:01:43Z</time>
      </trkpt>
      <trkpt lat="45.6875" lon="2.93905">
        <ele>977.7</ele>
        <time>2013-09-06T14:02:21Z</time>
      </trkpt>
      <trkpt lat="45.68789" lon="2.93915">
        <ele>977.7</ele>
        <time>2013-09-06T14:02:37Z</time>
      </trkpt>
      <trkpt lat="45.68947" lon="2.93968">
        <ele>982</ele>
        <time>2013-09-06T14:03:23Z</time>
      </trkpt>
      <trkpt lat="45.69074" lon="2.94006">
        <ele>979.4</ele>
        <time>2013-09-06T14:03:55Z</time>
      </trkpt>
      <trkpt lat="45.6919" lon="2.94043">
        <ele>988.3</ele>
        <time>2013-09-06T14:04:37Z</time>
      </trkpt>
      <trkpt lat="45.69226" lon="2.94058">
        <ele>993.1</ele>
        <time>2013-09-06T14:04:55Z</time>
      </trkpt>
      <trkpt lat="45.69271" lon="2.94062">
        <ele>996.7</ele>
        <time>2013-09-06T14:05:19Z</time>
      </trkpt>
      <trkpt lat="45.6931" lon="2.94072">
        <ele>1000.8</ele>
        <time>2013-09-06T14:05:37Z</time>
      </trkpt>
      <trkpt lat="45.69357" lon="2.94075">
        <ele>1001.1</ele>
        <time>2013-09-06T14:05:57Z</time>
      </trkpt>
      <trkpt lat="45.6952" lon="2.9412">
        <ele>1002</ele>
        <time>2013-09-06T14:06:45Z</time>
      </trkpt>
      <trkpt lat="45.69779" lon="2.94139">
        <ele>1009.5</ele>
        <time>2013-09-06T14:07:59Z</time>
      </trkpt>
      <trkpt lat="45.69852" lon="2.94111">
        <ele>1016.9</ele>
        <time>2013-09-06T14:08:35Z</time>
      </trkpt>
      <trkpt lat="45.69899" lon="2.94109">
        <ele>1020.8</ele>
        <time>2013-09-06T14:09:03Z</time>
      </trkpt>
      <trkpt lat="45.70061" lon="2.94076">
        <ele>1025.1</ele>
        <time>2013-09-06T14:10:07Z</time>
      </trkpt>
      <trkpt lat="45.70226" lon="2.93892">
        <ele>1031.6</ele>
        <time>2013-09-06T14:11:17Z</time>
      </trkpt>
      <trkpt lat="45.70251" lon="2.9386">
        <ele>1035.1</ele>
        <time>2013-09-06T14:11:31Z</time>
      </trkpt>
      <trkpt lat="45.70365" lon="2.93825">
        <ele>1039</ele>
        <time>2013-09-06T14:12:17Z</time>
      </trkpt>
      <trkpt lat="45.70496" lon="2.9384">
        <ele>1044.1</ele>
        <time>2013-09-06T14:13:03Z</time>
      </trkpt>
      <trkpt lat="45.7071" lon="2.9386">
        <ele>1044.7</ele>
        <time>2013-09-06T14:14:15Z</time>
      </trkpt>
      <trkpt lat="45.70815" lon="2.94008">
        <ele>1043</ele>
        <time>2013-09-06T14:14:53Z</time>
      </trkpt>
      <trkpt lat="45.70844" lon="2.94043">
        <ele>1043</ele>
        <time>2013-09-06T14:15:01Z</time>
      </trkpt>
      <trkpt lat="45.70904" lon="2.941">
        <ele>1046.2</ele>
        <time>2013-09-06T14:15:17Z</time>
      </trkpt>
      <trkpt lat="45.70979" lon="2.94213">
        <ele>1043.7</ele>
        <time>2013-09-06T14:15:37Z</time>
      </trkpt>
      <trkpt lat="45.71012" lon="2.94246">
        <ele>1040.7</ele>
        <time>2013-09-06T14:15:45Z</time>
      </trkpt>
      <trkpt lat="45.71092" lon="2.94401">
        <ele>1047</ele>
        <time>2013-09-06T14:16:23Z</time>
      </trkpt>
      <trkpt lat="45.71205" lon="2.94611">
        <ele>1045.7</ele>
        <time>2013-09-06T14:17:09Z</time>
      </trkpt>
      <trkpt lat="45.7147" lon="2.94805">
        <ele>1050.8</ele>
        <time>2013-09-06T14:18:33Z</time>
      </trkpt>
      <trkpt lat="45.71542" lon="2.94835">
        <ele>1055.9</ele>
        <time>2013-09-06T14:19:09Z</time>
      </trkpt>
      <trkpt lat="45.71623" lon="2.94857">
        <ele>1063.1</ele>
        <time>2013-09-06T14:19:55Z</time>
      </trkpt>
      <trkpt lat="45.7166" lon="2.94873">
        <ele>1067.1</ele>
        <time>2013-09-06T14:20:17Z</time>
      </trkpt>
      <trkpt lat="45.71952" lon="2.95075">
        <ele>1072.1</ele>
        <time>2013-09-06T14:22:11Z</time>
      </trkpt>
      <trkpt lat="45.72058" lon="2.95136">
        <ele>1078.7</ele>
        <time>2013-09-06T14:22:53Z</time>
      </trkpt>
      <trkpt lat="45.72125" lon="2.95169">
        <ele>1086.9</ele>
        <time>2013-09-06T14:23:29Z</time>
      </trkpt>
      <trkpt lat="45.72188" lon="2.95212">
        <ele>1090.6</ele>
        <time>2013-09-06T14:24:01Z</time>
      </trkpt>
      <trkpt lat="45.72228" lon="2.95225">
        <ele>1091.7</ele>
        <time>2013-09-06T14:27:50Z</time>
      </trkpt>
      <trkpt lat="45.7231" lon="2.95325">
        <ele>1083.1</ele>
        <time>2013-09-06T14:28:16Z</time>
      </trkpt>
      <trkpt lat="45.72345" lon="2.95357">
        <ele>1083</ele>
        <time>2013-09-06T14:28:24Z</time>
      </trkpt>
      <trkpt lat="45.72425" lon="2.95478">
        <ele>1070.6</ele>
        <time>2013-09-06T14:28:42Z</time>
      </trkpt>
      <trkpt lat="45.72488" lon="2.9554">
        <ele>1062.6</ele>
        <time>2013-09-06T14:28:54Z</time>
      </trkpt>
      <trkpt lat="45.72515" lon="2.95573">
        <ele>1064.4</ele>
        <time>2013-09-06T14:29:00Z</time>
      </trkpt>
      <trkpt lat="45.72551" lon="2.95604">
        <ele>1060.2</ele>
        <time>2013-09-06T14:29:06Z</time>
      </trkpt>
      <trkpt lat="45.72716" lon="2.95665">
        <ele>1056</ele>
        <time>2013-09-06T14:29:42Z</time>
      </trkpt>
      <trkpt lat="45.72811" lon="2.95783">
        <ele>1047.5</ele>
        <time>2013-09-06T14:30:00Z</time>
      </trkpt>
      <trkpt lat="45.72855" lon="2.95868">
        <ele>1043.8</ele>
        <time>2013-09-06T14:30:16Z</time>
      </trkpt>
      <trkpt lat="45.72925" lon="2.95936">
        <ele>1039.7</ele>
        <time>2013-09-06T14:30:34Z</time>
      </trkpt>
      <trkpt lat="45.72968" lon="2.95989">
        <ele>1029.3</ele>
        <time>2013-09-06T14:30:52Z</time>
      </trkpt>
      <trkpt lat="45.73013" lon="2.96073">
        <ele>1023.4</ele>
        <time>2013-09-06T14:31:10Z</time>
      </trkpt>
      <trkpt lat="45.73076" lon="2.96132">
        <ele>1015.5</ele>
        <time>2013-09-06T14:31:26Z</time>
      </trkpt>
      <trkpt lat="45.73113" lon="2.96146">
        <ele>1011.7</ele>
        <time>2013-09-06T14:31:34Z</time>
      </trkpt>
      <trkpt lat="45.73121" lon="2.96203">
        <ele>1007.3</ele>
        <time>2013-09-06T14:31:46Z</time>
      </trkpt>
      <trkpt lat="45.73118" lon="2.96268">
        <ele>1008.1</ele>
        <time>2013-09-06T14:31:54Z</time>
      </trkpt>
      <trkpt lat="45.73107" lon="2.96411">
        <ele>998.1</ele>
        <time>2013-09-06T14:32:10Z</time>
      </trkpt>
      <trkpt lat="45.73103" lon="2.96625">
        <ele>990.2</ele>
        <time>2013-09-06T14:32:32Z</time>
      </trkpt>
      <trkpt lat="45.7309" lon="2.96764">
        <ele>986.2</ele>
        <time>2013-09-06T14:32:48Z</time>
      </trkpt>
      <trkpt lat="45.73089" lon="2.96835">
        <ele>988.1</ele>
        <time>2013-09-06T14:32:56Z</time>
      </trkpt>
      <trkpt lat="45.73133" lon="2.96912">
        <ele>984.1</ele>
        <time>2013-09-06T14:33:08Z</time>
      </trkpt>
      <trkpt lat="45.73228" lon="2.97095">
        <ele>981.6</ele>
        <time>2013-09-06T14:33:59Z</time>
      </trkpt>
      <trkpt lat="45.73149" lon="2.97094">
        <ele>979.6</ele>
        <time>2013-09-06T14:34:25Z</time>
      </trkpt>
      <trkpt lat="45.7304" lon="2.97027">
        <ele>977.9</ele>
        <time>2013-09-06T14:34:49Z</time>
      </trkpt>
      <trkpt lat="45.72967" lon="2.97068">
        <ele>979.9</ele>
        <time>2013-09-06T14:35:05Z</time>
      </trkpt>
      <trkpt lat="45.72791" lon="2.97089">
        <ele>975.8</ele>
        <time>2013-09-06T14:35:43Z</time>
      </trkpt>
      <trkpt lat="45.7265" lon="2.97169">
        <ele>976</ele>
        <time>2013-09-06T14:36:17Z</time>
      </trkpt>
      <trkpt lat="45.72603" lon="2.97166">
        <ele>971.8</ele>
        <time>2013-09-06T14:36:25Z</time>
      </trkpt>
      <trkpt lat="45.7249" lon="2.97206">
        <ele>968</ele>
        <time>2013-09-06T14:36:43Z</time>
      </trkpt>
      <trkpt lat="45.72446" lon="2.97211">
        <ele>968</ele>
        <time>2013-09-06T14:36:49Z</time>
      </trkpt>
      <trkpt lat="45.72368" lon="2.97192">
        <ele>967.8</ele>
        <time>2013-09-06T14:37:01Z</time>
      </trkpt>
      <trkpt lat="45.72241" lon="2.97152">
        <ele>961.7</ele>
        <time>2013-09-06T14:37:21Z</time>
      </trkpt>
      <trkpt lat="45.72115" lon="2.97125">
        <ele>958</ele>
        <time>2013-09-06T14:37:39Z</time>
      </trkpt>
      <trkpt lat="45.71994" lon="2.9708">
        <ele>952.5</ele>
        <time>2013-09-06T14:38:01Z</time>
      </trkpt>
      <trkpt lat="45.71864" lon="2.97045">
        <ele>948.1</ele>
        <time>2013-09-06T14:38:19Z</time>
      </trkpt>
      <trkpt lat="45.71822" lon="2.97031">
        <ele>949.5</ele>
        <time>2013-09-06T14:38:25Z</time>
      </trkpt>
      <trkpt lat="45.71696" lon="2.97012">
        <ele>948.3</ele>
        <time>2013-09-06T14:38:51Z</time>
      </trkpt>
      <trkpt lat="45.71571" lon="2.97102">
        <ele>949.3</ele>
        <time>2013-09-06T14:39:41Z</time>
      </trkpt>
      <trkpt lat="45.71498" lon="2.97106">
        <ele>955.7</ele>
        <time>2013-09-06T14:40:07Z</time>
      </trkpt>
      <trkpt lat="45.7143" lon="2.97137">
        <ele>960.8</ele>
        <time>2013-09-06T14:40:35Z</time>
      </trkpt>
      <trkpt lat="45.71349" lon="2.97116">
        <ele>966.2</ele>
        <time>2013-09-06T14:41:05Z</time>
      </trkpt>
      <trkpt lat="45.71311" lon="2.97131">
        <ele>966.4</ele>
        <time>2013-09-06T14:41:17Z</time>
      </trkpt>
      <trkpt lat="45.71093" lon="2.97235">
        <ele>963.5</ele>
        <time>2013-09-06T14:42:17Z</time>
      </trkpt>
      <trkpt lat="45.70911" lon="2.97213">
        <ele>965.9</ele>
        <time>2013-09-06T14:42:55Z</time>
      </trkpt>
      <trkpt lat="45.70846" lon="2.97176">
        <ele>966.5</ele>
        <time>2013-09-06T14:43:35Z</time>
      </trkpt>
      <trkpt lat="45.70757" lon="2.97079">
        <ele>963.3</ele>
        <time>2013-09-06T14:43:59Z</time>
      </trkpt>
      <trkpt lat="45.70672" lon="2.97073">
        <ele>966.3</ele>
        <time>2013-09-06T14:44:21Z</time>
      </trkpt>
      <trkpt lat="45.70592" lon="2.97043">
        <ele>971.2</ele>
        <time>2013-09-06T14:44:47Z</time>
      </trkpt>
      <trkpt lat="45.70507" lon="2.96958">
        <ele>976.2</ele>
        <time>2013-09-06T14:45:31Z</time>
      </trkpt>
      <trkpt lat="45.70417" lon="2.96879">
        <ele>984.8</ele>
        <time>2013-09-06T14:46:19Z</time>
      </trkpt>
      <trkpt lat="45.70315" lon="2.96824">
        <ele>987.9</ele>
        <time>2013-09-06T14:46:55Z</time>
      </trkpt>
      <trkpt lat="45.70285" lon="2.968">
        <ele>986.7</ele>
        <time>2013-09-06T14:47:03Z</time>
      </trkpt>
      <trkpt lat="45.70178" lon="2.96746">
        <ele>982.8</ele>
        <time>2013-09-06T14:47:29Z</time>
      </trkpt>
      <trkpt lat="45.70154" lon="2.96733">
        <ele>981.1</ele>
        <time>2013-09-06T14:49:06Z</time>
      </trkpt>
      <trkpt lat="45.70113" lon="2.96821">
        <ele>978.3</ele>
        <time>2013-09-06T14:49:28Z</time>
      </trkpt>
      <trkpt lat="45.70077" lon="2.96906">
        <ele>979</ele>
        <time>2013-09-06T14:49:44Z</time>
      </trkpt>
      <trkpt lat="45.70039" lon="2.97004">
        <ele>981.4</ele>
        <time>2013-09-06T14:50:00Z</time>
      </trkpt>
      <trkpt lat="45.69928" lon="2.9736">
        <ele>969.9</ele>
        <time>2013-09-06T14:50:54Z</time>
      </trkpt>
      <trkpt lat="45.6984" lon="2.97594">
        <ele>958.3</ele>
        <time>2013-09-06T14:51:24Z</time>
      </trkpt>
      <trkpt lat="45.69813" lon="2.9772">
        <ele>954</ele>
        <time>2013-09-06T14:51:40Z</time>
      </trkpt>
      <trkpt lat="45.69767" lon="2.97851">
        <ele>952.5</ele>
        <time>2013-09-06T14:51:58Z</time>
      </trkpt>
      <trkpt lat="45.69733" lon="2.97952">
        <ele>949.8</ele>
        <time>2013-09-06T14:52:12Z</time>
      </trkpt>
      <trkpt lat="45.69682" lon="2.98238">
        <ele>950.2</ele>
        <time>2013-09-06T14:52:50Z</time>
      </trkpt>
      <trkpt lat="45.69641" lon="2.98467">
        <ele>941.2</ele>
        <time>2013-09-06T14:53:20Z</time>
      </trkpt>
      <trkpt lat="45.69633" lon="2.98537">
        <ele>941.3</ele>
        <time>2013-09-06T14:53:28Z</time>
      </trkpt>
      <trkpt lat="45.69612" lon="2.98637">
        <ele>938.2</ele>
        <time>2013-09-06T14:53:40Z</time>
      </trkpt>
      <trkpt lat="45.69598" lon="2.98698">
        <ele>939.2</ele>
        <time>2013-09-06T14:53:48Z</time>
      </trkpt>
      <trkpt lat="45.69557" lon="2.98859">
        <ele>936.2</ele>
        <time>2013-09-06T14:54:12Z</time>
      </trkpt>
      <trkpt lat="45.69522" lon="2.9896">
        <ele>932.5</ele>
        <time>2013-09-06T14:54:26Z</time>
      </trkpt>
      <trkpt lat="45.69551" lon="2.99069">
        <ele>934.9</ele>
        <time>2013-09-06T14:54:42Z</time>
      </trkpt>
      <trkpt lat="45.69533" lon="2.99191">
        <ele>928.4</ele>
        <time>2013-09-06T14:54:58Z</time>
      </trkpt>
      <trkpt lat="45.69495" lon="2.99346">
        <ele>923.5</ele>
        <time>2013-09-06T14:55:16Z</time>
      </trkpt>
      <trkpt lat="45.69434" lon="2.99413">
        <ele>920.4</ele>
        <time>2013-09-06T14:55:28Z</time>
      </trkpt>
      <trkpt lat="45.69414" lon="2.99522">
        <ele>918.7</ele>
        <time>2013-09-06T14:55:40Z</time>
      </trkpt>
      <trkpt lat="45.69402" lon="2.99566">
        <ele>918.1</ele>
        <time>2013-09-06T14:56:06Z</time>
      </trkpt>
      <trkpt lat="45.69442" lon="2.9956">
        <ele>915.1</ele>
        <time>2013-09-06T14:56:20Z</time>
      </trkpt>
      <trkpt lat="45.69453" lon="2.99617">
        <ele>911</ele>
        <time>2013-09-06T14:56:44Z</time>
      </trkpt>
      <trkpt lat="45.6937" lon="2.99708">
        <ele>913.3</ele>
        <time>2013-09-06T14:57:20Z</time>
      </trkpt>
      <trkpt lat="45.69416" lon="2.99778">
        <ele>922</ele>
        <time>2013-09-06T14:58:08Z</time>
      </trkpt>
      <trkpt lat="45.69429" lon="2.99828">
        <ele>925.1</ele>
        <time>2013-09-06T14:58:26Z</time>
      </trkpt>
      <trkpt lat="45.69449" lon="2.99934">
        <ele>934.6</ele>
        <time>2013-09-06T14:59:04Z</time>
      </trkpt>
      <trkpt lat="45.69393" lon="3.00061">
        <ele>944.3</ele>
        <time>2013-09-06T15:00:02Z</time>
      </trkpt>
      <trkpt lat="45.6936" lon="3.00146">
        <ele>950</ele>
        <time>2013-09-06T15:00:36Z</time>
      </trkpt>
      <trkpt lat="45.69348" lon="3.00198">
        <ele>953.6</ele>
        <time>2013-09-06T15:00:56Z</time>
      </trkpt>
      <trkpt lat="45.69341" lon="3.00252">
        <ele>958.2</ele>
        <time>2013-09-06T15:01:16Z</time>
      </trkpt>
      <trkpt lat="45.69317" lon="3.00349">
        <ele>967.1</ele>
        <time>2013-09-06T15:02:00Z</time>
      </trkpt>
      <trkpt lat="45.69269" lon="3.00416">
        <ele>971.8</ele>
        <time>2013-09-06T15:02:46Z</time>
      </trkpt>
      <trkpt lat="45.69213" lon="3.00474">
        <ele>974.9</ele>
        <time>2013-09-06T15:03:10Z</time>
      </trkpt>
      <trkpt lat="45.68998" lon="3.00544">
        <ele>984.3</ele>
        <time>2013-09-06T15:04:18Z</time>
      </trkpt>
      <trkpt lat="45.68918" lon="3.00549">
        <ele>987.5</ele>
        <time>2013-09-06T15:04:48Z</time>
      </trkpt>
      <trkpt lat="45.68885" lon="3.00568">
        <ele>990.4</ele>
        <time>2013-09-06T15:05:02Z</time>
      </trkpt>
      <trkpt lat="45.68663" lon="3.00688">
        <ele>986.7</ele>
        <time>2013-09-06T15:06:02Z</time>
      </trkpt>
      <trkpt lat="45.68635" lon="3.00769">
        <ele>992.1</ele>
        <time>2013-09-06T15:09:21Z</time>
      </trkpt>
      <trkpt lat="45.68615" lon="3.0087">
        <ele>998.7</ele>
        <time>2013-09-06T15:09:59Z</time>
      </trkpt>
      <trkpt lat="45.68608" lon="3.00996">
        <ele>1004</ele>
        <time>2013-09-06T15:10:39Z</time>
      </trkpt>
      <trkpt lat="45.68603" lon="3.01015">
        <ele>1004.4</ele>
        <time>2013-09-06T15:12:32Z</time>
      </trkpt>
      <trkpt lat="45.68555" lon="3.01015">
        <ele>1001.7</ele>
        <time>2013-09-06T15:12:48Z</time>
      </trkpt>
      <trkpt lat="45.68544" lon="3.01077">
        <ele>1002.6</ele>
        <time>2013-09-06T15:13:00Z</time>
      </trkpt>
      <trkpt lat="45.68512" lon="3.01178">
        <ele>998.3</ele>
        <time>2013-09-06T15:13:16Z</time>
      </trkpt>
      <trkpt lat="45.68479" lon="3.01342">
        <ele>999.1</ele>
        <time>2013-09-06T15:13:42Z</time>
      </trkpt>
      <trkpt lat="45.68441" lon="3.01578">
        <ele>996.2</ele>
        <time>2013-09-06T15:14:10Z</time>
      </trkpt>
      <trkpt lat="45.68427" lon="3.01635">
        <ele>991.2</ele>
        <time>2013-09-06T15:14:16Z</time>
      </trkpt>
      <trkpt lat="45.68412" lon="3.01753">
        <ele>987.3</ele>
        <time>2013-09-06T15:14:28Z</time>
      </trkpt>
      <trkpt lat="45.68417" lon="3.01927">
        <ele>980.4</ele>
        <time>2013-09-06T15:14:50Z</time>
      </trkpt>
      <trkpt lat="45.68408" lon="3.0205">
        <ele>976.2</ele>
        <time>2013-09-06T15:15:02Z</time>
      </trkpt>
      <trkpt lat="45.68384" lon="3.02197">
        <ele>971.4</ele>
        <time>2013-09-06T15:15:22Z</time>
      </trkpt>
      <trkpt lat="45.68441" lon="3.02256">
        <ele>970.1</ele>
        <time>2013-09-06T15:16:10Z</time>
      </trkpt>
      <trkpt lat="45.68579" lon="3.02507">
        <ele>968</ele>
        <time>2013-09-06T15:16:54Z</time>
      </trkpt>
      <trkpt lat="45.68654" lon="3.02632">
        <ele>960.6</ele>
        <time>2013-09-06T15:17:08Z</time>
      </trkpt>
      <trkpt lat="45.68682" lon="3.02663">
        <ele>960.9</ele>
        <time>2013-09-06T15:17:12Z</time>
      </trkpt>
      <trkpt lat="45.68746" lon="3.02717">
        <ele>958</ele>
        <time>2013-09-06T15:17:20Z</time>
      </trkpt>
      <trkpt lat="45.68812" lon="3.02776">
        <ele>954</ele>
        <time>2013-09-06T15:17:28Z</time>
      </trkpt>
      <trkpt lat="45.68831" lon="3.02823">
        <ele>947.9</ele>
        <time>2013-09-06T15:17:32Z</time>
      </trkpt>
      <trkpt lat="45.68847" lon="3.02876">
        <ele>944.8</ele>
        <time>2013-09-06T15:17:36Z</time>
      </trkpt>
      <trkpt lat="45.6887" lon="3.02924">
        <ele>941</ele>
        <time>2013-09-06T15:17:40Z</time>
      </trkpt>
      <trkpt lat="45.68897" lon="3.02966">
        <ele>936.7</ele>
        <time>2013-09-06T15:17:44Z</time>
      </trkpt>
      <trkpt lat="45.6897" lon="3.03006">
        <ele>932.4</ele>
        <time>2013-09-06T15:17:56Z</time>
      </trkpt>
      <trkpt lat="45.68999" lon="3.03034">
        <ele>927.4</ele>
        <time>2013-09-06T15:18:04Z</time>
      </trkpt>
      <trkpt lat="45.69026" lon="3.03077">
        <ele>922</ele>
        <time>2013-09-06T15:18:12Z</time>
      </trkpt>
      <trkpt lat="45.69019" lon="3.03143">
        <ele>914.9</ele>
        <time>2013-09-06T15:18:26Z</time>
      </trkpt>
      <trkpt lat="45.68975" lon="3.03221">
        <ele>908.3</ele>
        <time>2013-09-06T15:18:44Z</time>
      </trkpt>
      <trkpt lat="45.68985" lon="3.03273">
        <ele>905</ele>
        <time>2013-09-06T15:18:58Z</time>
      </trkpt>
      <trkpt lat="45.69007" lon="3.03327">
        <ele>901.9</ele>
        <time>2013-09-06T15:24:02Z</time>
      </trkpt>
      <trkpt lat="45.69018" lon="3.03392">
        <ele>898.7</ele>
        <time>2013-09-06T15:24:12Z</time>
      </trkpt>
      <trkpt lat="45.68937" lon="3.03359">
        <ele>886.4</ele>
        <time>2013-09-06T15:24:38Z</time>
      </trkpt>
      <trkpt lat="45.68873" lon="3.03317">
        <ele>877.9</ele>
        <time>2013-09-06T15:24:48Z</time>
      </trkpt>
      <trkpt lat="45.68834" lon="3.03336">
        <ele>874.2</ele>
        <time>2013-09-06T15:24:54Z</time>
      </trkpt>
      <trkpt lat="45.68796" lon="3.0347">
        <ele>868.2</ele>
        <time>2013-09-06T15:25:06Z</time>
      </trkpt>
      <trkpt lat="45.68741" lon="3.03535">
        <ele>863.2</ele>
        <time>2013-09-06T15:25:14Z</time>
      </trkpt>
      <trkpt lat="45.68707" lon="3.03554">
        <ele>859.9</ele>
        <time>2013-09-06T15:25:18Z</time>
      </trkpt>
      <trkpt lat="45.68696" lon="3.03609">
        <ele>855</ele>
        <time>2013-09-06T15:25:22Z</time>
      </trkpt>
      <trkpt lat="45.68698" lon="3.03867">
        <ele>845.5</ele>
        <time>2013-09-06T15:25:38Z</time>
      </trkpt>
      <trkpt lat="45.68689" lon="3.04004">
        <ele>840</ele>
        <time>2013-09-06T15:25:46Z</time>
      </trkpt>
      <trkpt lat="45.68675" lon="3.04074">
        <ele>836.6</ele>
        <time>2013-09-06T15:25:50Z</time>
      </trkpt>
      <trkpt lat="45.68654" lon="3.04144">
        <ele>830.3</ele>
        <time>2013-09-06T15:25:54Z</time>
      </trkpt>
      <trkpt lat="45.68642" lon="3.04219">
        <ele>825.7</ele>
        <time>2013-09-06T15:25:58Z</time>
      </trkpt>
      <trkpt lat="45.6863" lon="3.04449">
        <ele>815.7</ele>
        <time>2013-09-06T15:26:10Z</time>
      </trkpt>
      <trkpt lat="45.6863" lon="3.04591">
        <ele>810.6</ele>
        <time>2013-09-06T15:26:18Z</time>
      </trkpt>
      <trkpt lat="45.68632" lon="3.04674">
        <ele>808.8</ele>
        <time>2013-09-06T15:26:24Z</time>
      </trkpt>
      <trkpt lat="45.68582" lon="3.04903">
        <ele>807.5</ele>
        <time>2013-09-06T15:26:48Z</time>
      </trkpt>
      <trkpt lat="45.68566" lon="3.05083">
        <ele>804</ele>
        <time>2013-09-06T15:27:06Z</time>
      </trkpt>
      <trkpt lat="45.68516" lon="3.05346">
        <ele>797.1</ele>
        <time>2013-09-06T15:27:29Z</time>
      </trkpt>
      <trkpt lat="45.6848" lon="3.05444">
        <ele>798.6</ele>
        <time>2013-09-06T15:27:42Z</time>
      </trkpt>
      <trkpt lat="45.6847" lon="3.05508">
        <ele>801.9</ele>
        <time>2013-09-06T15:27:50Z</time>
      </trkpt>
      <trkpt lat="45.68468" lon="3.05578">
        <ele>801.7</ele>
        <time>2013-09-06T15:27:58Z</time>
      </trkpt>
      <trkpt lat="45.68449" lon="3.05844">
        <ele>794.8</ele>
        <time>2013-09-06T15:28:26Z</time>
      </trkpt>
      <trkpt lat="45.68448" lon="3.06019">
        <ele>787.8</ele>
        <time>2013-09-06T15:28:38Z</time>
      </trkpt>
      <trkpt lat="45.68402" lon="3.06179">
        <ele>785.5</ele>
        <time>2013-09-06T15:29:16Z</time>
      </trkpt>
      <trkpt lat="45.68342" lon="3.06303">
        <ele>775.7</ele>
        <time>2013-09-06T15:30:15Z</time>
      </trkpt>
      <trkpt lat="45.68342" lon="3.06316">
        <ele>775.8</ele>
        <time>2013-09-06T15:30:35Z</time>
      </trkpt>
      <trkpt lat="45.67902" lon="3.06633">
        <ele>120</ele>
        <time>2014-06-16T12:56:29Z</time>
      </trkpt>
      <trkpt lat="45.67909" lon="3.06626">
        <ele>259.8</ele>
        <time>2014-06-16T12:56:33Z</time>
      </trkpt>
      <trkpt lat="45.67915" lon="3.06623">
        <ele>595.3</ele>
        <time>2014-06-16T12:56:45Z</time>
      </trkpt>
      <trkpt lat="45.67923" lon="3.06613">
        <ele>679.2</ele>
        <time>2014-06-16T12:56:55Z</time>
      </trkpt>
      <trkpt lat="45.67941" lon="3.06598">
        <ele>679</ele>
        <time>2014-06-16T12:57:02Z</time>
      </trkpt>
      <trkpt lat="45.67971" lon="3.06563">
        <ele>678.5</ele>
        <time>2014-06-16T12:57:41Z</time>
      </trkpt>
      <trkpt lat="45.6834" lon="3.06314">
        <ele>678.3</ele>
        <time>2014-06-16T13:01:20Z</time>
      </trkpt>
      <trkpt lat="45.68343" lon="3.0631">
        <ele>678.4</ele>
        <time>2014-06-16T13:01:49Z</time>
      </trkpt>
      <trkpt lat="45.68339" lon="3.06307">
        <ele>678.5</ele>
        <time>2014-06-16T13:02:52Z</time>
      </trkpt>
      <trkpt lat="45.6836" lon="3.06217">
        <ele>683.5</ele>
        <time>2014-06-16T13:03:40Z</time>
      </trkpt>
      <trkpt lat="45.68368" lon="3.06179">
        <ele>687.2</ele>
        <time>2014-06-16T13:07:41Z</time>
      </trkpt>
      <trkpt lat="45.68426" lon="3.06154">
        <ele>687.7</ele>
        <time>2014-06-16T13:10:16Z</time>
      </trkpt>
      <trkpt lat="45.68453" lon="3.05993">
        <ele>690.6</ele>
        <time>2014-06-16T13:10:56Z</time>
      </trkpt>
      <trkpt lat="45.68449" lon="3.05915">
        <ele>694.4</ele>
        <time>2014-06-16T13:11:51Z</time>
      </trkpt>
      <trkpt lat="45.68457" lon="3.05808">
        <ele>697.6</ele>
        <time>2014-06-16T13:12:17Z</time>
      </trkpt>
      <trkpt lat="45.68465" lon="3.05742">
        <ele>702.1</ele>
        <time>2014-06-16T13:12:33Z</time>
      </trkpt>
      <trkpt lat="45.68472" lon="3.05661">
        <ele>705.1</ele>
        <time>2014-06-16T13:12:53Z</time>
      </trkpt>
      <trkpt lat="45.68467" lon="3.05582">
        <ele>705</ele>
        <time>2014-06-16T13:13:07Z</time>
      </trkpt>
      <trkpt lat="45.68527" lon="3.05296">
        <ele>701</ele>
        <time>2014-06-16T13:13:53Z</time>
      </trkpt>
      <trkpt lat="45.68555" lon="3.05177">
        <ele>702.3</ele>
        <time>2014-06-16T13:14:15Z</time>
      </trkpt>
      <trkpt lat="45.68571" lon="3.04991">
        <ele>707.3</ele>
        <time>2014-06-16T13:14:53Z</time>
      </trkpt>
      <trkpt lat="45.6863" lon="3.04725">
        <ele>711.7</ele>
        <time>2014-06-16T13:15:39Z</time>
      </trkpt>
      <trkpt lat="45.68634" lon="3.04524">
        <ele>712.6</ele>
        <time>2014-06-16T13:16:07Z</time>
      </trkpt>
      <trkpt lat="45.68639" lon="3.04381">
        <ele>716.8</ele>
        <time>2014-06-16T13:16:35Z</time>
      </trkpt>
      <trkpt lat="45.68641" lon="3.04289">
        <ele>722.1</ele>
        <time>2014-06-16T13:16:59Z</time>
      </trkpt>
      <trkpt lat="45.6865" lon="3.04181">
        <ele>728.3</ele>
        <time>2014-06-16T13:17:27Z</time>
      </trkpt>
      <trkpt lat="45.68667" lon="3.04132">
        <ele>731.5</ele>
        <time>2014-06-16T13:17:41Z</time>
      </trkpt>
      <trkpt lat="45.68679" lon="3.04084">
        <ele>734.6</ele>
        <time>2014-06-16T13:17:55Z</time>
      </trkpt>
      <trkpt lat="45.68695" lon="3.03983">
        <ele>740.6</ele>
        <time>2014-06-16T13:18:25Z</time>
      </trkpt>
      <trkpt lat="45.68702" lon="3.03905">
        <ele>744.2</ele>
        <time>2014-06-16T13:18:47Z</time>
      </trkpt>
      <trkpt lat="45.68704" lon="3.0384">
        <ele>747.2</ele>
        <time>2014-06-16T13:19:05Z</time>
      </trkpt>
      <trkpt lat="45.68696" lon="3.03733">
        <ele>753.1</ele>
        <time>2014-06-16T13:19:37Z</time>
      </trkpt>
      <trkpt lat="45.68698" lon="3.03605">
        <ele>759.2</ele>
        <time>2014-06-16T13:20:11Z</time>
      </trkpt>
      <trkpt lat="45.68712" lon="3.03556">
        <ele>762.4</ele>
        <time>2014-06-16T13:20:27Z</time>
      </trkpt>
      <trkpt lat="45.68755" lon="3.03538">
        <ele>766.9</ele>
        <time>2014-06-16T13:20:45Z</time>
      </trkpt>
      <trkpt lat="45.68815" lon="3.03419">
        <ele>772.3</ele>
        <time>2014-06-16T13:21:23Z</time>
      </trkpt>
      <trkpt lat="45.68821" lon="3.03362">
        <ele>775.3</ele>
        <time>2014-06-16T13:21:39Z</time>
      </trkpt>
      <trkpt lat="45.68895" lon="3.03353">
        <ele>780.9</ele>
        <time>2014-06-16T13:22:11Z</time>
      </trkpt>
      <trkpt lat="45.69001" lon="3.03475">
        <ele>784.4</ele>
        <time>2014-06-16T13:22:49Z</time>
      </trkpt>
      <trkpt lat="45.69104" lon="3.03494">
        <ele>787.6</ele>
        <time>2014-06-16T13:23:19Z</time>
      </trkpt>
      <trkpt lat="45.69223" lon="3.03399">
        <ele>793</ele>
        <time>2014-06-16T13:24:03Z</time>
      </trkpt>
      <trkpt lat="45.69342" lon="3.03358">
        <ele>789.8</ele>
        <time>2014-06-16T13:24:25Z</time>
      </trkpt>
      <trkpt lat="45.69434" lon="3.03297">
        <ele>785.6</ele>
        <time>2014-06-16T13:24:41Z</time>
      </trkpt>
      <trkpt lat="45.69625" lon="3.03224">
        <ele>778.8</ele>
        <time>2014-06-16T13:25:09Z</time>
      </trkpt>
      <trkpt lat="45.69715" lon="3.03194">
        <ele>774.3</ele>
        <time>2014-06-16T13:25:21Z</time>
      </trkpt>
      <trkpt lat="45.69759" lon="3.03181">
        <ele>772.1</ele>
        <time>2014-06-16T13:25:27Z</time>
      </trkpt>
      <trkpt lat="45.69832" lon="3.03171">
        <ele>768.9</ele>
        <time>2014-06-16T13:25:37Z</time>
      </trkpt>
      <trkpt lat="45.6996" lon="3.03162">
        <ele>764.2</ele>
        <time>2014-06-16T13:25:55Z</time>
      </trkpt>
      <trkpt lat="45.69987" lon="3.03158">
        <ele>763.7</ele>
        <time>2014-06-16T13:25:59Z</time>
      </trkpt>
      <trkpt lat="45.70055" lon="3.03093">
        <ele>761.1</ele>
        <time>2014-06-16T13:26:13Z</time>
      </trkpt>
      <trkpt lat="45.70245" lon="3.02743">
        <ele>758.7</ele>
        <time>2014-06-16T13:27:09Z</time>
      </trkpt>
      <trkpt lat="45.70288" lon="3.02671">
        <ele>755.6</ele>
        <time>2014-06-16T13:27:17Z</time>
      </trkpt>
      <trkpt lat="45.70339" lon="3.02453">
        <ele>747.2</ele>
        <time>2014-06-16T13:27:33Z</time>
      </trkpt>
      <trkpt lat="45.70333" lon="3.02365">
        <ele>742.7</ele>
        <time>2014-06-16T13:27:39Z</time>
      </trkpt>
      <trkpt lat="45.70324" lon="3.02293">
        <ele>738.2</ele>
        <time>2014-06-16T13:27:45Z</time>
      </trkpt>
      <trkpt lat="45.70371" lon="3.0223">
        <ele>730.9</ele>
        <time>2014-06-16T13:27:53Z</time>
      </trkpt>
      <trkpt lat="45.70384" lon="3.02169">
        <ele>727.2</ele>
        <time>2014-06-16T13:27:59Z</time>
      </trkpt>
      <trkpt lat="45.70373" lon="3.02063">
        <ele>723.7</ele>
        <time>2014-06-16T13:28:13Z</time>
      </trkpt>
      <trkpt lat="45.70385" lon="3.01991">
        <ele>724.3</ele>
        <time>2014-06-16T13:28:23Z</time>
      </trkpt>
      <trkpt lat="45.70433" lon="3.0188">
        <ele>727.4</ele>
        <time>2014-06-16T13:28:43Z</time>
      </trkpt>
      <trkpt lat="45.70519" lon="3.01676">
        <ele>731.2</ele>
        <time>2014-06-16T13:29:23Z</time>
      </trkpt>
      <trkpt lat="45.70519" lon="3.01664">
        <ele>731.5</ele>
        <time>2014-06-16T13:29:25Z</time>
      </trkpt>
      <trkpt lat="45.70531" lon="3.01435">
        <ele>735</ele>
        <time>2014-06-16T13:30:01Z</time>
      </trkpt>
      <trkpt lat="45.70504" lon="3.0117">
        <ele>740.6</ele>
        <time>2014-06-16T13:30:45Z</time>
      </trkpt>
      <trkpt lat="45.70505" lon="3.00999">
        <ele>744.2</ele>
        <time>2014-06-16T13:31:11Z</time>
      </trkpt>
      <trkpt lat="45.70473" lon="3.00835">
        <ele>746.3</ele>
        <time>2014-06-16T13:31:37Z</time>
      </trkpt>
      <trkpt lat="45.70476" lon="3.00729">
        <ele>747.7</ele>
        <time>2014-06-16T13:31:59Z</time>
      </trkpt>
      <trkpt lat="45.70403" lon="3.00478">
        <ele>750.7</ele>
        <time>2014-06-16T13:32:45Z</time>
      </trkpt>
      <trkpt lat="45.70332" lon="3.00313">
        <ele>754.6</ele>
        <time>2014-06-16T13:33:17Z</time>
      </trkpt>
      <trkpt lat="45.70282" lon="3.00276">
        <ele>757.7</ele>
        <time>2014-06-16T13:33:35Z</time>
      </trkpt>
      <trkpt lat="45.70252" lon="3.00302">
        <ele>758</ele>
        <time>2014-06-16T13:33:45Z</time>
      </trkpt>
      <trkpt lat="45.70205" lon="3.00418">
        <ele>756.7</ele>
        <time>2014-06-16T13:34:09Z</time>
      </trkpt>
      <trkpt lat="45.70212" lon="3.00452">
        <ele>756.6</ele>
        <time>2014-06-16T13:34:15Z</time>
      </trkpt>
      <trkpt lat="45.70196" lon="3.00562">
        <ele>760.6</ele>
        <time>2014-06-16T13:34:58Z</time>
      </trkpt>
      <trkpt lat="45.70116" lon="3.00532">
        <ele>765.6</ele>
        <time>2014-06-16T13:35:30Z</time>
      </trkpt>
      <trkpt lat="45.70002" lon="3.0052">
        <ele>774.1</ele>
        <time>2014-06-16T13:36:18Z</time>
      </trkpt>
      <trkpt lat="45.69965" lon="3.00532">
        <ele>779</ele>
        <time>2014-06-16T13:36:40Z</time>
      </trkpt>
      <trkpt lat="45.69928" lon="3.0049">
        <ele>784.6</ele>
        <time>2014-06-16T13:37:10Z</time>
      </trkpt>
      <trkpt lat="45.69882" lon="3.0049">
        <ele>791.1</ele>
        <time>2014-06-16T13:37:40Z</time>
      </trkpt>
      <trkpt lat="45.69815" lon="3.00506">
        <ele>797.3</ele>
        <time>2014-06-16T13:38:20Z</time>
      </trkpt>
      <trkpt lat="45.69774" lon="3.00467">
        <ele>804.5</ele>
        <time>2014-06-16T13:38:52Z</time>
      </trkpt>
      <trkpt lat="45.69738" lon="3.00408">
        <ele>809</ele>
        <time>2014-06-16T13:39:26Z</time>
      </trkpt>
      <trkpt lat="45.69686" lon="3.00372">
        <ele>814.7</ele>
        <time>2014-06-16T13:40:02Z</time>
      </trkpt>
      <trkpt lat="45.69664" lon="3.0037">
        <ele>818.4</ele>
        <time>2014-06-16T13:40:20Z</time>
      </trkpt>
      <trkpt lat="45.69627" lon="3.00305">
        <ele>822.8</ele>
        <time>2014-06-16T13:40:56Z</time>
      </trkpt>
      <trkpt lat="45.69591" lon="3.00263">
        <ele>827.2</ele>
        <time>2014-06-16T13:41:28Z</time>
      </trkpt>
      <trkpt lat="45.69558" lon="3.0026">
        <ele>833.2</ele>
        <time>2014-06-16T13:41:56Z</time>
      </trkpt>
      <trkpt lat="45.69521" lon="3.00253">
        <ele>839.9</ele>
        <time>2014-06-16T13:42:30Z</time>
      </trkpt>
      <trkpt lat="45.69477" lon="3.0025">
        <ele>845.8</ele>
        <time>2014-06-16T13:43:02Z</time>
      </trkpt>
      <trkpt lat="45.69446" lon="3.00245">
        <ele>850.5</ele>
        <time>2014-06-16T13:43:24Z</time>
      </trkpt>
      <trkpt lat="45.69425" lon="3.00234">
        <ele>854.2</ele>
        <time>2014-06-16T13:44:23Z</time>
      </trkpt>
      <trkpt lat="45.69379" lon="3.00234">
        <ele>861</ele>
        <time>2014-06-16T13:45:07Z</time>
      </trkpt>
      <trkpt lat="45.69354" lon="3.00168">
        <ele>863.5</ele>
        <time>2014-06-16T13:46:03Z</time>
      </trkpt>
      <trkpt lat="45.69397" lon="3.00056">
        <ele>857.9</ele>
        <time>2014-06-16T13:46:17Z</time>
      </trkpt>
      <trkpt lat="45.69438" lon="2.99985">
        <ele>851.6</ele>
        <time>2014-06-16T13:46:27Z</time>
      </trkpt>
      <trkpt lat="45.69441" lon="2.99928">
        <ele>847.3</ele>
        <time>2014-06-16T13:46:35Z</time>
      </trkpt>
      <trkpt lat="45.69427" lon="2.99851">
        <ele>842</ele>
        <time>2014-06-16T13:46:45Z</time>
      </trkpt>
      <trkpt lat="45.69419" lon="2.99809">
        <ele>838.7</ele>
        <time>2014-06-16T13:46:51Z</time>
      </trkpt>
      <trkpt lat="45.69401" lon="2.99767">
        <ele>833.1</ele>
        <time>2014-06-16T13:47:01Z</time>
      </trkpt>
      <trkpt lat="45.69358" lon="2.99738">
        <ele>828.9</ele>
        <time>2014-06-16T13:47:11Z</time>
      </trkpt>
      <trkpt lat="45.69368" lon="2.99719">
        <ele>826</ele>
        <time>2014-06-16T13:47:21Z</time>
      </trkpt>
      <trkpt lat="45.69391" lon="2.99726">
        <ele>824.1</ele>
        <time>2014-06-16T13:47:29Z</time>
      </trkpt>
      <trkpt lat="45.69475" lon="2.99756">
        <ele>823.2</ele>
        <time>2014-06-16T13:47:57Z</time>
      </trkpt>
      <trkpt lat="45.69586" lon="2.99894">
        <ele>815.2</ele>
        <time>2014-06-16T13:48:25Z</time>
      </trkpt>
      <trkpt lat="45.69673" lon="2.99979">
        <ele>808.1</ele>
        <time>2014-06-16T13:48:39Z</time>
      </trkpt>
      <trkpt lat="45.69714" lon="3.00019">
        <ele>805.1</ele>
        <time>2014-06-16T13:48:45Z</time>
      </trkpt>
      <trkpt lat="45.69801" lon="3.00097">
        <ele>798.9</ele>
        <time>2014-06-16T13:48:57Z</time>
      </trkpt>
      <trkpt lat="45.69906" lon="3.00196">
        <ele>791.6</ele>
        <time>2014-06-16T13:49:11Z</time>
      </trkpt>
      <trkpt lat="45.69954" lon="3.00245">
        <ele>787.3</ele>
        <time>2014-06-16T13:49:17Z</time>
      </trkpt>
      <trkpt lat="45.69995" lon="3.00301">
        <ele>784</ele>
        <time>2014-06-16T13:49:23Z</time>
      </trkpt>
      <trkpt lat="45.70029" lon="3.00366">
        <ele>780.2</ele>
        <time>2014-06-16T13:49:29Z</time>
      </trkpt>
      <trkpt lat="45.70055" lon="3.00432">
        <ele>776.2</ele>
        <time>2014-06-16T13:49:35Z</time>
      </trkpt>
      <trkpt lat="45.70076" lon="3.00521">
        <ele>772.3</ele>
        <time>2014-06-16T13:49:43Z</time>
      </trkpt>
      <trkpt lat="45.70084" lon="3.00584">
        <ele>769</ele>
        <time>2014-06-16T13:49:49Z</time>
      </trkpt>
      <trkpt lat="45.70086" lon="3.0069">
        <ele>765.8</ele>
        <time>2014-06-16T13:49:59Z</time>
      </trkpt>
      <trkpt lat="45.70078" lon="3.00876">
        <ele>761.5</ele>
        <time>2014-06-16T13:50:15Z</time>
      </trkpt>
      <trkpt lat="45.70084" lon="3.01003">
        <ele>758.5</ele>
        <time>2014-06-16T13:50:27Z</time>
      </trkpt>
      <trkpt lat="45.70155" lon="3.01226">
        <ele>753.1</ele>
        <time>2014-06-16T13:50:47Z</time>
      </trkpt>
      <trkpt lat="45.70249" lon="3.01413">
        <ele>748.1</ele>
        <time>2014-06-16T13:51:05Z</time>
      </trkpt>
      <trkpt lat="45.70352" lon="3.01621">
        <ele>741.5</ele>
        <time>2014-06-16T13:51:25Z</time>
      </trkpt>
      <trkpt lat="45.70435" lon="3.01782">
        <ele>735.9</ele>
        <time>2014-06-16T13:51:41Z</time>
      </trkpt>
      <trkpt lat="45.70437" lon="3.01871">
        <ele>732.9</ele>
        <time>2014-06-16T13:51:51Z</time>
      </trkpt>
      <trkpt lat="45.7039" lon="3.0198">
        <ele>729.5</ele>
        <time>2014-06-16T13:52:03Z</time>
      </trkpt>
      <trkpt lat="45.70385" lon="3.02177">
        <ele>725.8</ele>
        <time>2014-06-16T13:52:23Z</time>
      </trkpt>
      <trkpt lat="45.70362" lon="3.02237">
        <ele>726</ele>
        <time>2014-06-16T13:52:31Z</time>
      </trkpt>
      <trkpt lat="45.70338" lon="3.02381">
        <ele>734</ele>
        <time>2014-06-16T13:53:09Z</time>
      </trkpt>
      <trkpt lat="45.70343" lon="3.02437">
        <ele>737.5</ele>
        <time>2014-06-16T13:53:25Z</time>
      </trkpt>
      <trkpt lat="45.70324" lon="3.02525">
        <ele>743.4</ele>
        <time>2014-06-16T13:53:51Z</time>
      </trkpt>
      <trkpt lat="45.70318" lon="3.02579">
        <ele>746.5</ele>
        <time>2014-06-16T13:54:07Z</time>
      </trkpt>
      <trkpt lat="45.7028" lon="3.027">
        <ele>753.3</ele>
        <time>2014-06-16T13:54:47Z</time>
      </trkpt>
      <trkpt lat="45.70249" lon="3.02739">
        <ele>756.5</ele>
        <time>2014-06-16T13:55:05Z</time>
      </trkpt>
      <trkpt lat="45.7021" lon="3.02778">
        <ele>759.9</ele>
        <time>2014-06-16T13:55:25Z</time>
      </trkpt>
      <trkpt lat="45.70121" lon="3.02953">
        <ele>760.7</ele>
        <time>2014-06-16T13:56:07Z</time>
      </trkpt>
      <trkpt lat="45.70034" lon="3.03123">
        <ele>761.1</ele>
        <time>2014-06-16T13:56:41Z</time>
      </trkpt>
      <trkpt lat="45.69933" lon="3.03162">
        <ele>762.2</ele>
        <time>2014-06-16T13:57:11Z</time>
      </trkpt>
      <trkpt lat="45.69778" lon="3.03176">
        <ele>768.4</ele>
        <time>2014-06-16T13:57:57Z</time>
      </trkpt>
      <trkpt lat="45.69624" lon="3.03223">
        <ele>774.4</ele>
        <time>2014-06-16T13:58:49Z</time>
      </trkpt>
      <trkpt lat="45.69518" lon="3.03256">
        <ele>780.4</ele>
        <time>2014-06-16T13:59:27Z</time>
      </trkpt>
      <trkpt lat="45.69458" lon="3.03282">
        <ele>783.8</ele>
        <time>2014-06-16T13:59:49Z</time>
      </trkpt>
      <trkpt lat="45.69323" lon="3.03366">
        <ele>788.2</ele>
        <time>2014-06-16T14:00:35Z</time>
      </trkpt>
      <trkpt lat="45.69224" lon="3.03396">
        <ele>793.4</ele>
        <time>2014-06-16T14:01:07Z</time>
      </trkpt>
      <trkpt lat="45.69114" lon="3.03409">
        <ele>797.8</ele>
        <time>2014-06-16T14:01:44Z</time>
      </trkpt>
      <trkpt lat="45.69071" lon="3.03425">
        <ele>799.1</ele>
        <time>2014-06-16T14:01:58Z</time>
      </trkpt>
      <trkpt lat="45.68962" lon="3.03374">
        <ele>798</ele>
        <time>2014-06-16T14:02:34Z</time>
      </trkpt>
      <trkpt lat="45.68897" lon="3.0332">
        <ele>791.6</ele>
        <time>2014-06-16T14:02:44Z</time>
      </trkpt>
      <trkpt lat="45.68848" lon="3.03325">
        <ele>785</ele>
        <time>2014-06-16T14:02:54Z</time>
      </trkpt>
      <trkpt lat="45.68826" lon="3.03363">
        <ele>781.1</ele>
        <time>2014-06-16T14:03:00Z</time>
      </trkpt>
      <trkpt lat="45.6882" lon="3.03427">
        <ele>777.5</ele>
        <time>2014-06-16T14:03:06Z</time>
      </trkpt>
      <trkpt lat="45.6878" lon="3.03509">
        <ele>774.5</ele>
        <time>2014-06-16T14:03:14Z</time>
      </trkpt>
      <trkpt lat="45.6873" lon="3.03537">
        <ele>771.2</ele>
        <time>2014-06-16T14:03:20Z</time>
      </trkpt>
      <trkpt lat="45.68699" lon="3.036">
        <ele>767.1</ele>
        <time>2014-06-16T14:03:26Z</time>
      </trkpt>
      <trkpt lat="45.68694" lon="3.03687">
        <ele>763.5</ele>
        <time>2014-06-16T14:03:32Z</time>
      </trkpt>
      <trkpt lat="45.68697" lon="3.03811">
        <ele>757.5</ele>
        <time>2014-06-16T14:03:40Z</time>
      </trkpt>
      <trkpt lat="45.68691" lon="3.03918">
        <ele>753.7</ele>
        <time>2014-06-16T14:03:46Z</time>
      </trkpt>
      <trkpt lat="45.68673" lon="3.04068">
        <ele>746.2</ele>
        <time>2014-06-16T14:03:54Z</time>
      </trkpt>
      <trkpt lat="45.68647" lon="3.04177">
        <ele>740.1</ele>
        <time>2014-06-16T14:04:00Z</time>
      </trkpt>
      <trkpt lat="45.68632" lon="3.04328">
        <ele>732.1</ele>
        <time>2014-06-16T14:04:08Z</time>
      </trkpt>
      <trkpt lat="45.6863" lon="3.0448">
        <ele>723.3</ele>
        <time>2014-06-16T14:04:16Z</time>
      </trkpt>
      <trkpt lat="45.68633" lon="3.04639">
        <ele>715.7</ele>
        <time>2014-06-16T14:04:26Z</time>
      </trkpt>
      <trkpt lat="45.68632" lon="3.04712">
        <ele>712.7</ele>
        <time>2014-06-16T14:04:32Z</time>
      </trkpt>
      <trkpt lat="45.68586" lon="3.04896">
        <ele>712.3</ele>
        <time>2014-06-16T14:04:50Z</time>
      </trkpt>
      <trkpt lat="45.68551" lon="3.05161">
        <ele>708</ele>
        <time>2014-06-16T14:05:12Z</time>
      </trkpt>
      <trkpt lat="45.68507" lon="3.0537">
        <ele>703.7</ele>
        <time>2014-06-16T14:05:28Z</time>
      </trkpt>
      <trkpt lat="45.68466" lon="3.05588">
        <ele>705.2</ele>
        <time>2014-06-16T14:05:52Z</time>
      </trkpt>
      <trkpt lat="45.68467" lon="3.05723">
        <ele>706.4</ele>
        <time>2014-06-16T14:06:10Z</time>
      </trkpt>
      <trkpt lat="45.68449" lon="3.05895">
        <ele>703.9</ele>
        <time>2014-06-16T14:06:24Z</time>
      </trkpt>
      <trkpt lat="45.68453" lon="3.05982">
        <ele>700.3</ele>
        <time>2014-06-16T14:06:30Z</time>
      </trkpt>
      <trkpt lat="45.68451" lon="3.06038">
        <ele>697.2</ele>
        <time>2014-06-16T14:06:34Z</time>
      </trkpt>
      <trkpt lat="45.68444" lon="3.06112">
        <ele>693.7</ele>
        <time>2014-06-16T14:06:40Z</time>
      </trkpt>
      <trkpt lat="45.68378" lon="3.06175">
        <ele>690</ele>
        <time>2014-06-16T14:07:35Z</time>
      </trkpt>
      <trkpt lat="45.6837" lon="3.06262">
        <ele>687.5</ele>
        <time>2014-06-16T14:07:49Z</time>
      </trkpt>
      <trkpt lat="45.68349" lon="3.06302">
        <ele>684.1</ele>
        <time>2014-06-16T14:08:01Z</time>
      </trkpt>
      <trkpt lat="45.68293" lon="3.06108">
        <ele>766.5</ele>
        <time>2014-06-16T19:45:06Z</time>
      </trkpt>
      <trkpt lat="45.68304" lon="3.06114">
        <ele>765</ele>
        <time>2014-06-16T19:45:22Z</time>
      </trkpt>
      <trkpt lat="45.68339" lon="3.06152">
        <ele>763</ele>
        <time>2014-06-16T19:46:00Z</time>
      </trkpt>
      <trkpt lat="45.68353" lon="3.06173">
        <ele>760.6</ele>
        <time>2014-06-16T19:46:18Z</time>
      </trkpt>
      <trkpt lat="45.68348" lon="3.06226">
        <ele>756.3</ele>
        <time>2014-06-16T19:46:52Z</time>
      </trkpt>
      <trkpt lat="45.68346" lon="3.06306">
        <ele>752.4</ele>
        <time>2014-06-16T19:47:34Z</time>
      </trkpt>
      <trkpt lat="45.6833" lon="3.06306">
        <ele>754.9</ele>
        <time>2014-06-21T07:48:44Z</time>
      </trkpt>
      <trkpt lat="45.6834" lon="3.06297">
        <ele>754.4</ele>
        <time>2014-06-21T07:55:32Z</time>
      </trkpt>
      <trkpt lat="45.68351" lon="3.06294">
        <ele>755.9</ele>
        <time>2014-06-21T07:55:53Z</time>
      </trkpt>
      <trkpt lat="45.68361" lon="3.06228">
        <ele>758.3</ele>
        <time>2014-06-21T07:56:17Z</time>
      </trkpt>
      <trkpt lat="45.68369" lon="3.06184">
        <ele>761.5</ele>
        <time>2014-06-21T07:56:31Z</time>
      </trkpt>
      <trkpt lat="45.68413" lon="3.06172">
        <ele>763.3</ele>
        <time>2014-06-21T07:57:18Z</time>
      </trkpt>
      <trkpt lat="45.68447" lon="3.0606">
        <ele>764.5</ele>
        <time>2014-06-21T07:57:54Z</time>
      </trkpt>
      <trkpt lat="45.68451" lon="3.05982">
        <ele>767.7</ele>
        <time>2014-06-21T07:58:12Z</time>
      </trkpt>
      <trkpt lat="45.68448" lon="3.05867">
        <ele>772.4</ele>
        <time>2014-06-21T07:58:40Z</time>
      </trkpt>
      <trkpt lat="45.68467" lon="3.05727">
        <ele>778.7</ele>
        <time>2014-06-21T07:59:18Z</time>
      </trkpt>
      <trkpt lat="45.68467" lon="3.05602">
        <ele>781.6</ele>
        <time>2014-06-21T07:59:42Z</time>
      </trkpt>
      <trkpt lat="45.6848" lon="3.05466">
        <ele>779.8</ele>
        <time>2014-06-21T08:00:02Z</time>
      </trkpt>
      <trkpt lat="45.68559" lon="3.05174">
        <ele>779.6</ele>
        <time>2014-06-21T08:00:52Z</time>
      </trkpt>
      <trkpt lat="45.68575" lon="3.04986">
        <ele>783.7</ele>
        <time>2014-06-21T08:01:30Z</time>
      </trkpt>
      <trkpt lat="45.68605" lon="3.04824">
        <ele>787.2</ele>
        <time>2014-06-21T08:02:05Z</time>
      </trkpt>
      <trkpt lat="45.6863" lon="3.04731">
        <ele>787.3</ele>
        <time>2014-06-21T08:02:23Z</time>
      </trkpt>
      <trkpt lat="45.68636" lon="3.04523">
        <ele>789.6</ele>
        <time>2014-06-21T08:02:59Z</time>
      </trkpt>
      <trkpt lat="45.68649" lon="3.04305">
        <ele>798.1</ele>
        <time>2014-06-21T08:03:53Z</time>
      </trkpt>
      <trkpt lat="45.68659" lon="3.04207">
        <ele>803</ele>
        <time>2014-06-21T08:04:19Z</time>
      </trkpt>
      <trkpt lat="45.68678" lon="3.0416">
        <ele>806</ele>
        <time>2014-06-21T08:04:33Z</time>
      </trkpt>
      <trkpt lat="45.68687" lon="3.04105">
        <ele>809.2</ele>
        <time>2014-06-21T08:04:49Z</time>
      </trkpt>
      <trkpt lat="45.68696" lon="3.04007">
        <ele>814.6</ele>
        <time>2014-06-21T08:05:19Z</time>
      </trkpt>
      <trkpt lat="45.687" lon="3.03941">
        <ele>819.3</ele>
        <time>2014-06-21T08:05:39Z</time>
      </trkpt>
      <trkpt lat="45.68704" lon="3.03758">
        <ele>828.2</ele>
        <time>2014-06-21T08:06:31Z</time>
      </trkpt>
      <trkpt lat="45.68698" lon="3.03641">
        <ele>833.9</ele>
        <time>2014-06-21T08:07:03Z</time>
      </trkpt>
      <trkpt lat="45.68702" lon="3.03566">
        <ele>837.6</ele>
        <time>2014-06-21T08:07:23Z</time>
      </trkpt>
      <trkpt lat="45.68756" lon="3.03532">
        <ele>842.5</ele>
        <time>2014-06-21T08:07:49Z</time>
      </trkpt>
      <trkpt lat="45.68832" lon="3.03347">
        <ele>851.8</ele>
        <time>2014-06-21T08:08:49Z</time>
      </trkpt>
      <trkpt lat="45.68913" lon="3.03366">
        <ele>857.4</ele>
        <time>2014-06-21T08:09:25Z</time>
      </trkpt>
      <trkpt lat="45.69056" lon="3.03503">
        <ele>860.8</ele>
        <time>2014-06-21T08:10:17Z</time>
      </trkpt>
      <trkpt lat="45.69194" lon="3.03413">
        <ele>867.6</ele>
        <time>2014-06-21T08:11:09Z</time>
      </trkpt>
      <trkpt lat="45.6913" lon="3.03403">
        <ele>871.8</ele>
        <time>2014-06-21T08:11:35Z</time>
      </trkpt>
      <trkpt lat="45.69039" lon="3.03425">
        <ele>875.7</ele>
        <time>2014-06-21T08:12:07Z</time>
      </trkpt>
      <trkpt lat="45.69012" lon="3.03355">
        <ele>879.5</ele>
        <time>2014-06-21T08:12:29Z</time>
      </trkpt>
      <trkpt lat="45.68979" lon="3.03248">
        <ele>886.2</ele>
        <time>2014-06-21T08:13:05Z</time>
      </trkpt>
      <trkpt lat="45.6899" lon="3.03194">
        <ele>891.4</ele>
        <time>2014-06-21T08:13:27Z</time>
      </trkpt>
      <trkpt lat="45.69009" lon="3.03156">
        <ele>894.6</ele>
        <time>2014-06-21T08:13:43Z</time>
      </trkpt>
      <trkpt lat="45.69042" lon="3.03076">
        <ele>900.8</ele>
        <time>2014-06-21T08:14:17Z</time>
      </trkpt>
      <trkpt lat="45.69046" lon="3.03068">
        <ele>902.5</ele>
        <time>2014-06-21T08:14:51Z</time>
      </trkpt>
      <trkpt lat="45.69024" lon="3.03068">
        <ele>901.5</ele>
        <time>2014-06-21T08:15:07Z</time>
      </trkpt>
      <trkpt lat="45.69" lon="3.03035">
        <ele>906</ele>
        <time>2014-06-21T08:15:27Z</time>
      </trkpt>
      <trkpt lat="45.68972" lon="3.03013">
        <ele>909.3</ele>
        <time>2014-06-21T08:15:47Z</time>
      </trkpt>
      <trkpt lat="45.68947" lon="3.02989">
        <ele>913.3</ele>
        <time>2014-06-21T08:16:07Z</time>
      </trkpt>
      <trkpt lat="45.6891" lon="3.02976">
        <ele>916.3</ele>
        <time>2014-06-21T08:16:25Z</time>
      </trkpt>
      <trkpt lat="45.68878" lon="3.0294">
        <ele>919.5</ele>
        <time>2014-06-21T08:16:45Z</time>
      </trkpt>
      <trkpt lat="45.68846" lon="3.02876">
        <ele>924.7</ele>
        <time>2014-06-21T08:17:15Z</time>
      </trkpt>
      <trkpt lat="45.68812" lon="3.02778">
        <ele>931.2</ele>
        <time>2014-06-21T08:17:55Z</time>
      </trkpt>
      <trkpt lat="45.68781" lon="3.02747">
        <ele>934.2</ele>
        <time>2014-06-21T08:18:13Z</time>
      </trkpt>
      <trkpt lat="45.68714" lon="3.0269">
        <ele>939.7</ele>
        <time>2014-06-21T08:18:51Z</time>
      </trkpt>
      <trkpt lat="45.68673" lon="3.02652">
        <ele>942.7</ele>
        <time>2014-06-21T08:19:15Z</time>
      </trkpt>
      <trkpt lat="45.68603" lon="3.02547">
        <ele>948.2</ele>
        <time>2014-06-21T08:19:59Z</time>
      </trkpt>
      <trkpt lat="45.68521" lon="3.02411">
        <ele>951.9</ele>
        <time>2014-06-21T08:20:41Z</time>
      </trkpt>
      <trkpt lat="45.68433" lon="3.02241">
        <ele>955.3</ele>
        <time>2014-06-21T08:21:19Z</time>
      </trkpt>
      <trkpt lat="45.68414" lon="3.0222">
        <ele>954.9</ele>
        <time>2014-06-21T08:21:25Z</time>
      </trkpt>
      <trkpt lat="45.68407" lon="3.0205">
        <ele>956.6</ele>
        <time>2014-06-21T08:22:03Z</time>
      </trkpt>
      <trkpt lat="45.68413" lon="3.01881">
        <ele>962.8</ele>
        <time>2014-06-21T08:22:41Z</time>
      </trkpt>
      <trkpt lat="45.68396" lon="3.01821">
        <ele>965.8</ele>
        <time>2014-06-21T08:22:57Z</time>
      </trkpt>
      <trkpt lat="45.68422" lon="3.01666">
        <ele>970.7</ele>
        <time>2014-06-21T08:23:33Z</time>
      </trkpt>
      <trkpt lat="45.6845" lon="3.01507">
        <ele>975.1</ele>
        <time>2014-06-21T08:24:11Z</time>
      </trkpt>
      <trkpt lat="45.68483" lon="3.0132">
        <ele>980.8</ele>
        <time>2014-06-21T08:24:55Z</time>
      </trkpt>
      <trkpt lat="45.6855" lon="3.01023">
        <ele>985.3</ele>
        <time>2014-06-21T08:25:55Z</time>
      </trkpt>
      <trkpt lat="45.68594" lon="3.01018">
        <ele>986.3</ele>
        <time>2014-06-21T08:26:09Z</time>
      </trkpt>
      <trkpt lat="45.68614" lon="3.00861">
        <ele>984.5</ele>
        <time>2014-06-21T08:26:37Z</time>
      </trkpt>
      <trkpt lat="45.68621" lon="3.00832">
        <ele>983.1</ele>
        <time>2014-06-21T08:26:43Z</time>
      </trkpt>
      <trkpt lat="45.68645" lon="3.00747">
        <ele>977.2</ele>
        <time>2014-06-21T08:26:59Z</time>
      </trkpt>
      <trkpt lat="45.68643" lon="3.00709">
        <ele>973.5</ele>
        <time>2014-06-21T08:27:09Z</time>
      </trkpt>
      <trkpt lat="45.68678" lon="3.00679">
        <ele>969.2</ele>
        <time>2014-06-21T08:27:25Z</time>
      </trkpt>
      <trkpt lat="45.68734" lon="3.00644">
        <ele>970.8</ele>
        <time>2014-06-21T08:27:43Z</time>
      </trkpt>
      <trkpt lat="45.68839" lon="3.00589">
        <ele>975.7</ele>
        <time>2014-06-21T08:28:17Z</time>
      </trkpt>
      <trkpt lat="45.68895" lon="3.00555">
        <ele>974.6</ele>
        <time>2014-06-21T08:28:31Z</time>
      </trkpt>
      <trkpt lat="45.68983" lon="3.00539">
        <ele>970.3</ele>
        <time>2014-06-21T08:28:51Z</time>
      </trkpt>
      <trkpt lat="45.69021" lon="3.00553">
        <ele>967.2</ele>
        <time>2014-06-21T08:29:01Z</time>
      </trkpt>
      <trkpt lat="45.69058" lon="3.00556">
        <ele>964</ele>
        <time>2014-06-21T08:29:09Z</time>
      </trkpt>
      <trkpt lat="45.69125" lon="3.00529">
        <ele>960.6</ele>
        <time>2014-06-21T08:29:21Z</time>
      </trkpt>
      <trkpt lat="45.69224" lon="3.00458">
        <ele>957.6</ele>
        <time>2014-06-21T08:29:49Z</time>
      </trkpt>
      <trkpt lat="45.69266" lon="3.00415">
        <ele>957.1</ele>
        <time>2014-06-21T08:30:21Z</time>
      </trkpt>
      <trkpt lat="45.6933" lon="3.0029">
        <ele>951</ele>
        <time>2014-06-21T08:30:49Z</time>
      </trkpt>
      <trkpt lat="45.69339" lon="3.00242">
        <ele>947.8</ele>
        <time>2014-06-21T08:30:55Z</time>
      </trkpt>
      <trkpt lat="45.69351" lon="3.00156">
        <ele>941.3</ele>
        <time>2014-06-21T08:31:05Z</time>
      </trkpt>
      <trkpt lat="45.69381" lon="3.00077">
        <ele>935.8</ele>
        <time>2014-06-21T08:31:15Z</time>
      </trkpt>
      <trkpt lat="45.69411" lon="3.00021">
        <ele>929.7</ele>
        <time>2014-06-21T08:31:23Z</time>
      </trkpt>
      <trkpt lat="45.6944" lon="2.99963">
        <ele>923.7</ele>
        <time>2014-06-21T08:31:35Z</time>
      </trkpt>
      <trkpt lat="45.69428" lon="2.99863">
        <ele>917.1</ele>
        <time>2014-06-21T08:31:51Z</time>
      </trkpt>
      <trkpt lat="45.69422" lon="2.99809">
        <ele>911.4</ele>
        <time>2014-06-21T08:32:01Z</time>
      </trkpt>
      <trkpt lat="45.6942" lon="2.99775">
        <ele>905.9</ele>
        <time>2014-06-21T08:34:13Z</time>
      </trkpt>
      <trkpt lat="45.69417" lon="2.99769">
        <ele>905.7</ele>
        <time>2014-06-21T08:45:52Z</time>
      </trkpt>
      <trkpt lat="45.69442" lon="2.99867">
        <ele>912.6</ele>
        <time>2014-06-21T08:47:08Z</time>
      </trkpt>
      <trkpt lat="45.69456" lon="2.99923">
        <ele>916.4</ele>
        <time>2014-06-21T08:47:40Z</time>
      </trkpt>
      <trkpt lat="45.69421" lon="3">
        <ele>921.7</ele>
        <time>2014-06-21T08:48:28Z</time>
      </trkpt>
      <trkpt lat="45.69412" lon="3.00033">
        <ele>924.9</ele>
        <time>2014-06-21T08:48:50Z</time>
      </trkpt>
      <trkpt lat="45.69377" lon="3.00099">
        <ele>929.9</ele>
        <time>2014-06-21T08:49:36Z</time>
      </trkpt>
      <trkpt lat="45.69357" lon="3.0015">
        <ele>933.5</ele>
        <time>2014-06-21T08:50:08Z</time>
      </trkpt>
      <trkpt lat="45.69344" lon="3.0021">
        <ele>937.6</ele>
        <time>2014-06-21T08:50:48Z</time>
      </trkpt>
      <trkpt lat="45.69332" lon="3.0029">
        <ele>943</ele>
        <time>2014-06-21T08:51:34Z</time>
      </trkpt>
      <trkpt lat="45.6932" lon="3.00337">
        <ele>948.1</ele>
        <time>2014-06-21T08:52:14Z</time>
      </trkpt>
      <trkpt lat="45.69297" lon="3.00391">
        <ele>953.3</ele>
        <time>2014-06-21T08:52:54Z</time>
      </trkpt>
      <trkpt lat="45.6928" lon="3.00448">
        <ele>958.8</ele>
        <time>2014-06-21T08:53:36Z</time>
      </trkpt>
      <trkpt lat="45.6928" lon="3.00471">
        <ele>962.3</ele>
        <time>2014-06-21T08:53:54Z</time>
      </trkpt>
      <trkpt lat="45.69281" lon="3.0051">
        <ele>968.7</ele>
        <time>2014-06-21T08:54:28Z</time>
      </trkpt>
      <trkpt lat="45.69293" lon="3.0053">
        <ele>974.4</ele>
        <time>2014-06-21T08:55:02Z</time>
      </trkpt>
      <trkpt lat="45.69286" lon="3.00513">
        <ele>971.2</ele>
        <time>2014-06-21T08:55:30Z</time>
      </trkpt>
      <trkpt lat="45.69283" lon="3.00484">
        <ele>965.4</ele>
        <time>2014-06-21T08:56:06Z</time>
      </trkpt>
      <trkpt lat="45.69269" lon="3.00466">
        <ele>961.9</ele>
        <time>2014-06-21T08:56:36Z</time>
      </trkpt>
      <trkpt lat="45.69229" lon="3.0053">
        <ele>967.1</ele>
        <time>2014-06-21T08:57:26Z</time>
      </trkpt>
      <trkpt lat="45.6918" lon="3.00589">
        <ele>970.7</ele>
        <time>2014-06-21T08:58:12Z</time>
      </trkpt>
      <trkpt lat="45.69141" lon="3.00641">
        <ele>976.9</ele>
        <time>2014-06-21T08:58:54Z</time>
      </trkpt>
      <trkpt lat="45.69104" lon="3.0071">
        <ele>986</ele>
        <time>2014-06-21T08:59:50Z</time>
      </trkpt>
      <trkpt lat="45.69082" lon="3.00749">
        <ele>989.7</ele>
        <time>2014-06-21T09:00:24Z</time>
      </trkpt>
      <trkpt lat="45.6901" lon="3.00825">
        <ele>997.7</ele>
        <time>2014-06-21T09:01:38Z</time>
      </trkpt>
      <trkpt lat="45.68967" lon="3.00879">
        <ele>1002.5</ele>
        <time>2014-06-21T09:02:24Z</time>
      </trkpt>
      <trkpt lat="45.68948" lon="3.00933">
        <ele>1005.3</ele>
        <time>2014-06-21T09:02:58Z</time>
      </trkpt>
      <trkpt lat="45.68909" lon="3.01073">
        <ele>1006.9</ele>
        <time>2014-06-21T09:04:14Z</time>
      </trkpt>
      <trkpt lat="45.68892" lon="3.01227">
        <ele>1008.3</ele>
        <time>2014-06-21T09:05:42Z</time>
      </trkpt>
      <trkpt lat="45.68875" lon="3.01363">
        <ele>1009</ele>
        <time>2014-06-21T09:08:13Z</time>
      </trkpt>
      <trkpt lat="45.68839" lon="3.01482">
        <ele>1005.3</ele>
        <time>2014-06-21T09:09:13Z</time>
      </trkpt>
      <trkpt lat="45.68818" lon="3.01579">
        <ele>1001.8</ele>
        <time>2014-06-21T09:10:09Z</time>
      </trkpt>
      <trkpt lat="45.68796" lon="3.01678">
        <ele>999.5</ele>
        <time>2014-06-21T09:11:34Z</time>
      </trkpt>
      <trkpt lat="45.68773" lon="3.01737">
        <ele>994.2</ele>
        <time>2014-06-21T09:12:08Z</time>
      </trkpt>
      <trkpt lat="45.68767" lon="3.01835">
        <ele>989.3</ele>
        <time>2014-06-21T09:13:06Z</time>
      </trkpt>
      <trkpt lat="45.68753" lon="3.01886">
        <ele>986.1</ele>
        <time>2014-06-21T09:13:34Z</time>
      </trkpt>
      <trkpt lat="45.68747" lon="3.01938">
        <ele>983.1</ele>
        <time>2014-06-21T09:14:06Z</time>
      </trkpt>
      <trkpt lat="45.68747" lon="3.01996">
        <ele>980.1</ele>
        <time>2014-06-21T09:14:34Z</time>
      </trkpt>
      <trkpt lat="45.68731" lon="3.02053">
        <ele>974.9</ele>
        <time>2014-06-21T09:15:32Z</time>
      </trkpt>
      <trkpt lat="45.68704" lon="3.02191">
        <ele>967.8</ele>
        <time>2014-06-21T09:16:40Z</time>
      </trkpt>
      <trkpt lat="45.68708" lon="3.02277">
        <ele>963.3</ele>
        <time>2014-06-21T09:17:22Z</time>
      </trkpt>
      <trkpt lat="45.68714" lon="3.02331">
        <ele>961</ele>
        <time>2014-06-21T09:17:48Z</time>
      </trkpt>
      <trkpt lat="45.68729" lon="3.02436">
        <ele>957.1</ele>
        <time>2014-06-21T09:18:40Z</time>
      </trkpt>
      <trkpt lat="45.68722" lon="3.02536">
        <ele>950.5</ele>
        <time>2014-06-21T09:20:11Z</time>
      </trkpt>
      <trkpt lat="45.68678" lon="3.02571">
        <ele>947.7</ele>
        <time>2014-06-21T09:21:17Z</time>
      </trkpt>
      <trkpt lat="45.68582" lon="3.02598">
        <ele>946.2</ele>
        <time>2014-06-21T09:22:29Z</time>
      </trkpt>
      <trkpt lat="45.68434" lon="3.0253">
        <ele>950</ele>
        <time>2014-06-21T09:24:17Z</time>
      </trkpt>
      <trkpt lat="45.68376" lon="3.02499">
        <ele>950</ele>
        <time>2014-06-21T09:24:59Z</time>
      </trkpt>
      <trkpt lat="45.68285" lon="3.02462">
        <ele>945.5</ele>
        <time>2014-06-21T09:26:03Z</time>
      </trkpt>
      <trkpt lat="45.68241" lon="3.02466">
        <ele>944.7</ele>
        <time>2014-06-21T09:26:33Z</time>
      </trkpt>
      <trkpt lat="45.68194" lon="3.02558">
        <ele>940.1</ele>
        <time>2014-06-21T09:27:27Z</time>
      </trkpt>
      <trkpt lat="45.68169" lon="3.02651">
        <ele>939.6</ele>
        <time>2014-06-21T09:28:17Z</time>
      </trkpt>
      <trkpt lat="45.68146" lon="3.02809">
        <ele>943.7</ele>
        <time>2014-06-21T09:29:39Z</time>
      </trkpt>
      <trkpt lat="45.68151" lon="3.02852">
        <ele>943.4</ele>
        <time>2014-06-21T09:29:59Z</time>
      </trkpt>
      <trkpt lat="45.68171" lon="3.03028">
        <ele>938.9</ele>
        <time>2014-06-21T09:31:21Z</time>
      </trkpt>
      <trkpt lat="45.68167" lon="3.03217">
        <ele>933.5</ele>
        <time>2014-06-21T09:32:49Z</time>
      </trkpt>
      <trkpt lat="45.68164" lon="3.03263">
        <ele>930.5</ele>
        <time>2014-06-21T09:33:11Z</time>
      </trkpt>
      <trkpt lat="45.68191" lon="3.03335">
        <ele>924.7</ele>
        <time>2014-06-21T09:33:51Z</time>
      </trkpt>
      <trkpt lat="45.68155" lon="3.03399">
        <ele>920.1</ele>
        <time>2014-06-21T09:34:33Z</time>
      </trkpt>
      <trkpt lat="45.68092" lon="3.03412">
        <ele>914.2</ele>
        <time>2014-06-21T09:35:17Z</time>
      </trkpt>
      <trkpt lat="45.68078" lon="3.03516">
        <ele>908.9</ele>
        <time>2014-06-21T09:36:17Z</time>
      </trkpt>
      <trkpt lat="45.68056" lon="3.03678">
        <ele>903.3</ele>
        <time>2014-06-21T09:37:35Z</time>
      </trkpt>
      <trkpt lat="45.6805" lon="3.03834">
        <ele>899.2</ele>
        <time>2014-06-21T09:38:49Z</time>
      </trkpt>
      <trkpt lat="45.68033" lon="3.03922">
        <ele>895.6</ele>
        <time>2014-06-21T09:39:35Z</time>
      </trkpt>
      <trkpt lat="45.68028" lon="3.0401">
        <ele>891</ele>
        <time>2014-06-21T09:40:19Z</time>
      </trkpt>
      <trkpt lat="45.68027" lon="3.04102">
        <ele>889.5</ele>
        <time>2014-06-21T09:41:05Z</time>
      </trkpt>
      <trkpt lat="45.68029" lon="3.04189">
        <ele>888.8</ele>
        <time>2014-06-21T09:41:45Z</time>
      </trkpt>
      <trkpt lat="45.68056" lon="3.04268">
        <ele>885.2</ele>
        <time>2014-06-21T09:42:31Z</time>
      </trkpt>
      <trkpt lat="45.68101" lon="3.04387">
        <ele>876.1</ele>
        <time>2014-06-21T09:43:41Z</time>
      </trkpt>
      <trkpt lat="45.68106" lon="3.04418">
        <ele>873.1</ele>
        <time>2014-06-21T09:43:57Z</time>
      </trkpt>
      <trkpt lat="45.68121" lon="3.04499">
        <ele>866.9</ele>
        <time>2014-06-21T09:44:39Z</time>
      </trkpt>
      <trkpt lat="45.68097" lon="3.04601">
        <ele>858.5</ele>
        <time>2014-06-21T09:45:41Z</time>
      </trkpt>
      <trkpt lat="45.68072" lon="3.04662">
        <ele>852.4</ele>
        <time>2014-06-21T09:46:19Z</time>
      </trkpt>
      <trkpt lat="45.68052" lon="3.04735">
        <ele>846.8</ele>
        <time>2014-06-21T09:47:03Z</time>
      </trkpt>
      <trkpt lat="45.68025" lon="3.04839">
        <ele>841</ele>
        <time>2014-06-21T09:48:09Z</time>
      </trkpt>
      <trkpt lat="45.68027" lon="3.04958">
        <ele>835.6</ele>
        <time>2014-06-21T09:49:23Z</time>
      </trkpt>
      <trkpt lat="45.68062" lon="3.05">
        <ele>833.6</ele>
        <time>2014-06-21T09:49:59Z</time>
      </trkpt>
      <trkpt lat="45.68108" lon="3.05059">
        <ele>829.7</ele>
        <time>2014-06-21T09:50:45Z</time>
      </trkpt>
      <trkpt lat="45.68179" lon="3.05107">
        <ele>826.1</ele>
        <time>2014-06-21T09:51:43Z</time>
      </trkpt>
      <trkpt lat="45.68239" lon="3.05188">
        <ele>820.8</ele>
        <time>2014-06-21T09:52:45Z</time>
      </trkpt>
      <trkpt lat="45.68249" lon="3.05229">
        <ele>817.8</ele>
        <time>2014-06-21T09:53:09Z</time>
      </trkpt>
      <trkpt lat="45.68251" lon="3.05274">
        <ele>814.1</ele>
        <time>2014-06-21T09:53:33Z</time>
      </trkpt>
      <trkpt lat="45.68285" lon="3.05398">
        <ele>808.6</ele>
        <time>2014-06-21T09:54:45Z</time>
      </trkpt>
      <trkpt lat="45.68321" lon="3.05439">
        <ele>804.9</ele>
        <time>2014-06-21T09:55:39Z</time>
      </trkpt>
      <trkpt lat="45.68361" lon="3.05446">
        <ele>801.6</ele>
        <time>2014-06-21T09:56:17Z</time>
      </trkpt>
      <trkpt lat="45.68403" lon="3.0551">
        <ele>795.7</ele>
        <time>2014-06-21T09:57:01Z</time>
      </trkpt>
      <trkpt lat="45.6843" lon="3.0558">
        <ele>789.9</ele>
        <time>2014-06-21T09:57:45Z</time>
      </trkpt>
      <trkpt lat="45.68446" lon="3.05627">
        <ele>786.2</ele>
        <time>2014-06-21T09:58:13Z</time>
      </trkpt>
      <trkpt lat="45.68471" lon="3.05688">
        <ele>782.3</ele>
        <time>2014-06-21T09:58:55Z</time>
      </trkpt>
      <trkpt lat="45.68467" lon="3.05755">
        <ele>778.1</ele>
        <time>2014-06-21T10:00:15Z</time>
      </trkpt>
      <trkpt lat="45.68456" lon="3.05855">
        <ele>773.9</ele>
        <time>2014-06-21T10:01:09Z</time>
      </trkpt>
      <trkpt lat="45.68455" lon="3.06014">
        <ele>767.1</ele>
        <time>2014-06-21T10:02:25Z</time>
      </trkpt>
      <trkpt lat="45.68444" lon="3.06108">
        <ele>764.1</ele>
        <time>2014-06-21T10:03:13Z</time>
      </trkpt>
      <trkpt lat="45.68378" lon="3.06176">
        <ele>763.4</ele>
        <time>2014-06-21T10:04:35Z</time>
      </trkpt>
      <trkpt lat="45.68366" lon="3.06244">
        <ele>760.6</ele>
        <time>2014-06-21T10:05:13Z</time>
      </trkpt>
      <trkpt lat="45.68353" lon="3.06319">
        <ele>755.6</ele>
        <time>2014-06-21T12:57:37Z</time>
      </trkpt>
      <trkpt lat="45.68361" lon="3.06284">
        <ele>759</ele>
        <time>2014-06-21T12:59:22Z</time>
      </trkpt>
      <trkpt lat="45.68373" lon="3.06193">
        <ele>757.4</ele>
        <time>2014-06-21T12:59:46Z</time>
      </trkpt>
      <trkpt lat="45.68382" lon="3.06169">
        <ele>766.3</ele>
        <time>2014-06-21T13:00:00Z</time>
      </trkpt>
      <trkpt lat="45.6838" lon="3.06172">
        <ele>766.2</ele>
        <time>2014-06-21T13:00:58Z</time>
      </trkpt>
      <trkpt lat="45.68393" lon="3.06166">
        <ele>765.8</ele>
        <time>2014-06-21T13:01:29Z</time>
      </trkpt>
      <trkpt lat="45.68433" lon="3.06139">
        <ele>765.9</ele>
        <time>2014-06-21T13:01:59Z</time>
      </trkpt>
      <trkpt lat="45.68446" lon="3.0633">
        <ele>761.5</ele>
        <time>2014-06-21T13:02:29Z</time>
      </trkpt>
      <trkpt lat="45.68459" lon="3.06397">
        <ele>758.5</ele>
        <time>2014-06-21T13:02:45Z</time>
      </trkpt>
      <trkpt lat="45.68462" lon="3.06501">
        <ele>755.5</ele>
        <time>2014-06-21T13:03:01Z</time>
      </trkpt>
      <trkpt lat="45.68457" lon="3.0662">
        <ele>751.3</ele>
        <time>2014-06-21T13:03:17Z</time>
      </trkpt>
      <trkpt lat="45.68461" lon="3.06716">
        <ele>747.5</ele>
        <time>2014-06-21T13:03:29Z</time>
      </trkpt>
      <trkpt lat="45.68447" lon="3.06799">
        <ele>744</ele>
        <time>2014-06-21T13:03:41Z</time>
      </trkpt>
      <trkpt lat="45.68436" lon="3.06856">
        <ele>740.5</ele>
        <time>2014-06-21T13:03:51Z</time>
      </trkpt>
      <trkpt lat="45.68395" lon="3.06977">
        <ele>734.8</ele>
        <time>2014-06-21T13:04:17Z</time>
      </trkpt>
      <trkpt lat="45.68392" lon="3.07135">
        <ele>733.6</ele>
        <time>2014-06-21T13:04:45Z</time>
      </trkpt>
      <trkpt lat="45.68391" lon="3.07174">
        <ele>732.8</ele>
        <time>2014-06-21T13:04:51Z</time>
      </trkpt>
      <trkpt lat="45.68416" lon="3.07347">
        <ele>729.4</ele>
        <time>2014-06-21T13:05:15Z</time>
      </trkpt>
      <trkpt lat="45.68404" lon="3.07479">
        <ele>725.6</ele>
        <time>2014-06-21T13:05:31Z</time>
      </trkpt>
      <trkpt lat="45.68384" lon="3.07601">
        <ele>722.2</ele>
        <time>2014-06-21T13:05:47Z</time>
      </trkpt>
      <trkpt lat="45.68366" lon="3.0773">
        <ele>719.7</ele>
        <time>2014-06-21T13:06:09Z</time>
      </trkpt>
      <trkpt lat="45.68342" lon="3.07946">
        <ele>716.8</ele>
        <time>2014-06-21T13:07:07Z</time>
      </trkpt>
      <trkpt lat="45.68306" lon="3.08094">
        <ele>715.9</ele>
        <time>2014-06-21T13:07:37Z</time>
      </trkpt>
      <trkpt lat="45.68267" lon="3.08269">
        <ele>714.8</ele>
        <time>2014-06-21T13:08:09Z</time>
      </trkpt>
      <trkpt lat="45.68206" lon="3.08446">
        <ele>708.6</ele>
        <time>2014-06-21T13:10:36Z</time>
      </trkpt>
      <trkpt lat="45.68187" lon="3.08523">
        <ele>708</ele>
        <time>2014-06-21T13:10:50Z</time>
      </trkpt>
      <trkpt lat="45.68162" lon="3.08657">
        <ele>701.9</ele>
        <time>2014-06-21T13:11:14Z</time>
      </trkpt>
      <trkpt lat="45.68136" lon="3.08749">
        <ele>695.5</ele>
        <time>2014-06-21T13:11:30Z</time>
      </trkpt>
      <trkpt lat="45.68113" lon="3.08799">
        <ele>689.6</ele>
        <time>2014-06-21T13:11:52Z</time>
      </trkpt>
      <trkpt lat="45.67958" lon="3.08834">
        <ele>693.6</ele>
        <time>2014-06-21T13:12:58Z</time>
      </trkpt>
      <trkpt lat="45.67847" lon="3.08831">
        <ele>693.8</ele>
        <time>2014-06-21T13:13:55Z</time>
      </trkpt>
      <trkpt lat="45.67828" lon="3.08832">
        <ele>688.1</ele>
        <time>2014-06-21T13:14:28Z</time>
      </trkpt>
      <trkpt lat="45.67811" lon="3.0879">
        <ele>684.5</ele>
        <time>2014-06-21T13:14:44Z</time>
      </trkpt>
      <trkpt lat="45.67777" lon="3.08733">
        <ele>676.7</ele>
        <time>2014-06-21T13:15:02Z</time>
      </trkpt>
      <trkpt lat="45.67756" lon="3.08678">
        <ele>669.3</ele>
        <time>2014-06-21T13:15:16Z</time>
      </trkpt>
      <trkpt lat="45.67741" lon="3.08646">
        <ele>665.3</ele>
        <time>2014-06-21T13:15:24Z</time>
      </trkpt>
      <trkpt lat="45.67739" lon="3.0861">
        <ele>662.9</ele>
        <time>2014-06-21T13:15:32Z</time>
      </trkpt>
      <trkpt lat="45.67721" lon="3.08377">
        <ele>664.2</ele>
        <time>2014-06-21T13:16:22Z</time>
      </trkpt>
      <trkpt lat="45.67713" lon="3.08277">
        <ele>670.5</ele>
        <time>2014-06-21T13:16:50Z</time>
      </trkpt>
      <trkpt lat="45.6771" lon="3.08227">
        <ele>677.1</ele>
        <time>2014-06-21T13:17:24Z</time>
      </trkpt>
      <trkpt lat="45.67718" lon="3.08162">
        <ele>685.8</ele>
        <time>2014-06-21T13:23:47Z</time>
      </trkpt>
      <trkpt lat="45.67694" lon="3.08085">
        <ele>685.6</ele>
        <time>2014-06-21T13:24:21Z</time>
      </trkpt>
      <trkpt lat="45.67658" lon="3.07976">
        <ele>690.6</ele>
        <time>2014-06-21T13:24:59Z</time>
      </trkpt>
      <trkpt lat="45.67648" lon="3.07895">
        <ele>690.7</ele>
        <time>2014-06-21T13:27:17Z</time>
      </trkpt>
      <trkpt lat="45.67691" lon="3.08041">
        <ele>688</ele>
        <time>2014-06-21T13:28:01Z</time>
      </trkpt>
      <trkpt lat="45.6771" lon="3.0811">
        <ele>685</ele>
        <time>2014-06-21T13:28:21Z</time>
      </trkpt>
      <trkpt lat="45.67769" lon="3.08152">
        <ele>692.8</ele>
        <time>2014-06-21T13:29:07Z</time>
      </trkpt>
      <trkpt lat="45.67835" lon="3.08162">
        <ele>698.7</ele>
        <time>2014-06-21T13:29:57Z</time>
      </trkpt>
      <trkpt lat="45.67906" lon="3.08137">
        <ele>698.6</ele>
        <time>2014-06-21T13:30:29Z</time>
      </trkpt>
      <trkpt lat="45.67984" lon="3.08056">
        <ele>693.6</ele>
        <time>2014-06-21T13:30:45Z</time>
      </trkpt>
      <trkpt lat="45.67994" lon="3.08001">
        <ele>684.5</ele>
        <time>2014-06-21T13:31:03Z</time>
      </trkpt>
      <trkpt lat="45.67939" lon="3.07993">
        <ele>680.1</ele>
        <time>2014-06-21T13:31:19Z</time>
      </trkpt>
      <trkpt lat="45.6789" lon="3.07896">
        <ele>677.1</ele>
        <time>2014-06-21T13:31:29Z</time>
      </trkpt>
      <trkpt lat="45.6782" lon="3.07734">
        <ele>670</ele>
        <time>2014-06-21T13:31:45Z</time>
      </trkpt>
      <trkpt lat="45.67765" lon="3.07682">
        <ele>666.3</ele>
        <time>2014-06-21T13:31:53Z</time>
      </trkpt>
      <trkpt lat="45.67698" lon="3.07647">
        <ele>662.4</ele>
        <time>2014-06-21T13:32:01Z</time>
      </trkpt>
      <trkpt lat="45.67635" lon="3.07593">
        <ele>657.4</ele>
        <time>2014-06-21T13:32:11Z</time>
      </trkpt>
      <trkpt lat="45.67562" lon="3.07571">
        <ele>651.1</ele>
        <time>2014-06-21T13:32:21Z</time>
      </trkpt>
      <trkpt lat="45.67521" lon="3.07606">
        <ele>648.1</ele>
        <time>2014-06-21T13:32:27Z</time>
      </trkpt>
      <trkpt lat="45.67457" lon="3.07725">
        <ele>643.6</ele>
        <time>2014-06-21T13:32:41Z</time>
      </trkpt>
      <trkpt lat="45.67421" lon="3.07856">
        <ele>639.1</ele>
        <time>2014-06-21T13:32:55Z</time>
      </trkpt>
      <trkpt lat="45.6741" lon="3.07916">
        <ele>636</ele>
        <time>2014-06-21T13:33:01Z</time>
      </trkpt>
      <trkpt lat="45.67413" lon="3.0801">
        <ele>629.1</ele>
        <time>2014-06-21T13:33:11Z</time>
      </trkpt>
      <trkpt lat="45.67427" lon="3.08065">
        <ele>622.5</ele>
        <time>2014-06-21T13:33:19Z</time>
      </trkpt>
      <trkpt lat="45.67447" lon="3.08109">
        <ele>619</ele>
        <time>2014-06-21T13:33:25Z</time>
      </trkpt>
      <trkpt lat="45.67471" lon="3.08204">
        <ele>611</ele>
        <time>2014-06-21T13:33:43Z</time>
      </trkpt>
      <trkpt lat="45.67467" lon="3.08358">
        <ele>603.9</ele>
        <time>2014-06-21T13:34:03Z</time>
      </trkpt>
      <trkpt lat="45.67447" lon="3.08461">
        <ele>595.9</ele>
        <time>2014-06-21T13:34:13Z</time>
      </trkpt>
      <trkpt lat="45.67437" lon="3.08503">
        <ele>590.6</ele>
        <time>2014-06-21T13:34:19Z</time>
      </trkpt>
      <trkpt lat="45.67414" lon="3.08535">
        <ele>585.7</ele>
        <time>2014-06-21T13:34:25Z</time>
      </trkpt>
      <trkpt lat="45.67382" lon="3.08623">
        <ele>579.8</ele>
        <time>2014-06-21T13:34:49Z</time>
      </trkpt>
      <trkpt lat="45.67342" lon="3.08733">
        <ele>581.1</ele>
        <time>2014-06-21T13:35:17Z</time>
      </trkpt>
      <trkpt lat="45.67302" lon="3.08875">
        <ele>576.3</ele>
        <time>2014-06-21T13:35:39Z</time>
      </trkpt>
      <trkpt lat="45.67239" lon="3.09084">
        <ele>570.9</ele>
        <time>2014-06-21T13:36:31Z</time>
      </trkpt>
      <trkpt lat="45.67218" lon="3.09143">
        <ele>565.9</ele>
        <time>2014-06-21T13:38:09Z</time>
      </trkpt>
      <trkpt lat="45.6725" lon="3.09046">
        <ele>571</ele>
        <time>2014-06-21T13:38:47Z</time>
      </trkpt>
      <trkpt lat="45.67316" lon="3.08822">
        <ele>576.2</ele>
        <time>2014-06-21T13:39:51Z</time>
      </trkpt>
      <trkpt lat="45.67336" lon="3.08766">
        <ele>579.2</ele>
        <time>2014-06-21T13:40:09Z</time>
      </trkpt>
      <trkpt lat="45.67424" lon="3.0857">
        <ele>580</ele>
        <time>2014-06-21T13:41:07Z</time>
      </trkpt>
      <trkpt lat="45.67417" lon="3.08647">
        <ele>581.2</ele>
        <time>2014-06-21T13:41:21Z</time>
      </trkpt>
      <trkpt lat="45.67421" lon="3.08782">
        <ele>576.3</ele>
        <time>2014-06-21T13:41:33Z</time>
      </trkpt>
      <trkpt lat="45.67395" lon="3.08865">
        <ele>572.1</ele>
        <time>2014-06-21T13:41:39Z</time>
      </trkpt>
      <trkpt lat="45.67369" lon="3.09024">
        <ele>564.2</ele>
        <time>2014-06-21T13:41:49Z</time>
      </trkpt>
      <trkpt lat="45.67369" lon="3.0912">
        <ele>559.4</ele>
        <time>2014-06-21T13:41:55Z</time>
      </trkpt>
      <trkpt lat="45.67365" lon="3.09176">
        <ele>555.9</ele>
        <time>2014-06-21T13:41:59Z</time>
      </trkpt>
      <trkpt lat="45.6735" lon="3.09228">
        <ele>552.4</ele>
        <time>2014-06-21T13:42:03Z</time>
      </trkpt>
      <trkpt lat="45.67332" lon="3.09277">
        <ele>549.1</ele>
        <time>2014-06-21T13:42:07Z</time>
      </trkpt>
      <trkpt lat="45.67309" lon="3.09322">
        <ele>545.9</ele>
        <time>2014-06-21T13:42:11Z</time>
      </trkpt>
      <trkpt lat="45.67235" lon="3.09376">
        <ele>540</ele>
        <time>2014-06-21T13:42:19Z</time>
      </trkpt>
      <trkpt lat="45.67201" lon="3.09398">
        <ele>536.7</ele>
        <time>2014-06-21T13:42:23Z</time>
      </trkpt>
      <trkpt lat="45.67165" lon="3.09409">
        <ele>533.3</ele>
        <time>2014-06-21T13:42:27Z</time>
      </trkpt>
      <trkpt lat="45.67073" lon="3.09435">
        <ele>525.2</ele>
        <time>2014-06-21T13:42:37Z</time>
      </trkpt>
      <trkpt lat="45.67041" lon="3.0944">
        <ele>521.6</ele>
        <time>2014-06-21T13:42:41Z</time>
      </trkpt>
      <trkpt lat="45.66981" lon="3.09446">
        <ele>514.6</ele>
        <time>2014-06-21T13:42:49Z</time>
      </trkpt>
      <trkpt lat="45.6693" lon="3.09449">
        <ele>508.7</ele>
        <time>2014-06-21T13:42:57Z</time>
      </trkpt>
      <trkpt lat="45.66899" lon="3.09443">
        <ele>498.2</ele>
        <time>2014-06-21T13:43:25Z</time>
      </trkpt>
      <trkpt lat="45.66876" lon="3.09454">
        <ele>498</ele>
        <time>2014-06-21T13:43:33Z</time>
      </trkpt>
      <trkpt lat="45.66788" lon="3.09461">
        <ele>495.2</ele>
        <time>2014-06-21T13:43:45Z</time>
      </trkpt>
      <trkpt lat="45.6673" lon="3.0943">
        <ele>491.4</ele>
        <time>2014-06-21T13:43:53Z</time>
      </trkpt>
      <trkpt lat="45.6665" lon="3.09409">
        <ele>486.9</ele>
        <time>2014-06-21T13:44:11Z</time>
      </trkpt>
      <trkpt lat="45.66579" lon="3.095">
        <ele>492.3</ele>
        <time>2014-06-21T13:44:45Z</time>
      </trkpt>
      <trkpt lat="45.66548" lon="3.09552">
        <ele>495.3</ele>
        <time>2014-06-21T13:45:01Z</time>
      </trkpt>
      <trkpt lat="45.66511" lon="3.09587">
        <ele>498.5</ele>
        <time>2014-06-21T13:45:17Z</time>
      </trkpt>
      <trkpt lat="45.66478" lon="3.09573">
        <ele>501.1</ele>
        <time>2014-06-21T13:45:39Z</time>
      </trkpt>
      <trkpt lat="45.66473" lon="3.09488">
        <ele>507.6</ele>
        <time>2014-06-21T13:46:09Z</time>
      </trkpt>
      <trkpt lat="45.66456" lon="3.09395">
        <ele>513.7</ele>
        <time>2014-06-21T13:46:45Z</time>
      </trkpt>
      <trkpt lat="45.66409" lon="3.09174">
        <ele>520</ele>
        <time>2014-06-21T13:48:35Z</time>
      </trkpt>
      <trkpt lat="45.66406" lon="3.09163">
        <ele>520</ele>
        <time>2014-06-21T13:48:39Z</time>
      </trkpt>
      <trkpt lat="45.66372" lon="3.08995">
        <ele>522.3</ele>
        <time>2014-06-21T13:49:33Z</time>
      </trkpt>
      <trkpt lat="45.66286" lon="3.0875">
        <ele>525</ele>
        <time>2014-06-21T13:50:27Z</time>
      </trkpt>
      <trkpt lat="45.66233" lon="3.08583">
        <ele>530.4</ele>
        <time>2014-06-21T13:51:07Z</time>
      </trkpt>
      <trkpt lat="45.66196" lon="3.08427">
        <ele>534.1</ele>
        <time>2014-06-21T13:51:45Z</time>
      </trkpt>
      <trkpt lat="45.662" lon="3.08273">
        <ele>540</ele>
        <time>2014-06-21T13:52:23Z</time>
      </trkpt>
      <trkpt lat="45.66199" lon="3.08189">
        <ele>540.9</ele>
        <time>2014-06-21T13:52:45Z</time>
      </trkpt>
      <trkpt lat="45.66179" lon="3.08137">
        <ele>541.3</ele>
        <time>2014-06-21T13:53:26Z</time>
      </trkpt>
      <trkpt lat="45.66158" lon="3.08085">
        <ele>543.3</ele>
        <time>2014-06-21T13:53:42Z</time>
      </trkpt>
      <trkpt lat="45.66154" lon="3.08033">
        <ele>546.5</ele>
        <time>2014-06-21T13:53:56Z</time>
      </trkpt>
      <trkpt lat="45.66148" lon="3.07981">
        <ele>550</ele>
        <time>2014-06-21T13:54:12Z</time>
      </trkpt>
      <trkpt lat="45.66128" lon="3.07885">
        <ele>554.2</ele>
        <time>2014-06-21T13:54:36Z</time>
      </trkpt>
      <trkpt lat="45.66127" lon="3.07809">
        <ele>555.2</ele>
        <time>2014-06-21T13:55:51Z</time>
      </trkpt>
      <trkpt lat="45.66123" lon="3.07766">
        <ele>559.2</ele>
        <time>2014-06-21T13:56:17Z</time>
      </trkpt>
      <trkpt lat="45.6612" lon="3.07743">
        <ele>563.1</ele>
        <time>2014-06-21T13:56:31Z</time>
      </trkpt>
      <trkpt lat="45.66094" lon="3.07693">
        <ele>567.6</ele>
        <time>2014-06-21T13:56:55Z</time>
      </trkpt>
      <trkpt lat="45.66108" lon="3.07508">
        <ele>570.2</ele>
        <time>2014-06-21T13:57:55Z</time>
      </trkpt>
      <trkpt lat="45.66133" lon="3.07415">
        <ele>571.7</ele>
        <time>2014-06-21T13:58:47Z</time>
      </trkpt>
      <trkpt lat="45.66136" lon="3.07388">
        <ele>571.9</ele>
        <time>2014-06-21T13:58:55Z</time>
      </trkpt>
      <trkpt lat="45.66097" lon="3.0719">
        <ele>574.6</ele>
        <time>2014-06-21T13:59:35Z</time>
      </trkpt>
      <trkpt lat="45.66056" lon="3.06977">
        <ele>581.8</ele>
        <time>2014-06-21T14:00:23Z</time>
      </trkpt>
      <trkpt lat="45.66043" lon="3.06938">
        <ele>584</ele>
        <time>2014-06-21T14:00:33Z</time>
      </trkpt>
      <trkpt lat="45.66061" lon="3.06861">
        <ele>589</ele>
        <time>2014-06-21T14:01:01Z</time>
      </trkpt>
      <trkpt lat="45.66078" lon="3.06845">
        <ele>592.5</ele>
        <time>2014-06-21T14:01:21Z</time>
      </trkpt>
      <trkpt lat="45.66151" lon="3.06764">
        <ele>594.2</ele>
        <time>2014-06-21T14:01:55Z</time>
      </trkpt>
      <trkpt lat="45.662" lon="3.06734">
        <ele>594.4</ele>
        <time>2014-06-21T14:02:11Z</time>
      </trkpt>
      <trkpt lat="45.66289" lon="3.06726">
        <ele>597.6</ele>
        <time>2014-06-21T14:02:39Z</time>
      </trkpt>
      <trkpt lat="45.66317" lon="3.06677">
        <ele>601.2</ele>
        <time>2014-06-21T14:02:57Z</time>
      </trkpt>
      <trkpt lat="45.66419" lon="3.06595">
        <ele>603.6</ele>
        <time>2014-06-21T14:03:41Z</time>
      </trkpt>
      <trkpt lat="45.6657" lon="3.06614">
        <ele>603.3</ele>
        <time>2014-06-21T14:04:29Z</time>
      </trkpt>
      <trkpt lat="45.66698" lon="3.06688">
        <ele>607.5</ele>
        <time>2014-06-21T14:05:13Z</time>
      </trkpt>
      <trkpt lat="45.66794" lon="3.06738">
        <ele>612.5</ele>
        <time>2014-06-21T14:06:09Z</time>
      </trkpt>
      <trkpt lat="45.66855" lon="3.0676">
        <ele>616.1</ele>
        <time>2014-06-21T14:06:35Z</time>
      </trkpt>
      <trkpt lat="45.66909" lon="3.06816">
        <ele>622.5</ele>
        <time>2014-06-21T14:07:07Z</time>
      </trkpt>
      <trkpt lat="45.66933" lon="3.06878">
        <ele>628.7</ele>
        <time>2014-06-21T14:07:41Z</time>
      </trkpt>
      <trkpt lat="45.66957" lon="3.0691">
        <ele>635.5</ele>
        <time>2014-06-21T14:08:05Z</time>
      </trkpt>
      <trkpt lat="45.67003" lon="3.06963">
        <ele>644.9</ele>
        <time>2014-06-21T14:08:51Z</time>
      </trkpt>
      <trkpt lat="45.67033" lon="3.06987">
        <ele>651.2</ele>
        <time>2014-06-21T14:09:27Z</time>
      </trkpt>
      <trkpt lat="45.671" lon="3.07027">
        <ele>663.8</ele>
        <time>2014-06-21T14:10:31Z</time>
      </trkpt>
      <trkpt lat="45.67115" lon="3.07036">
        <ele>667.7</ele>
        <time>2014-06-21T14:10:47Z</time>
      </trkpt>
      <trkpt lat="45.67148" lon="3.07016">
        <ele>672.9</ele>
        <time>2014-06-21T14:11:27Z</time>
      </trkpt>
      <trkpt lat="45.67176" lon="3.07008">
        <ele>674.5</ele>
        <time>2014-06-21T14:11:47Z</time>
      </trkpt>
      <trkpt lat="45.67288" lon="3.06967">
        <ele>676.8</ele>
        <time>2014-06-21T14:13:11Z</time>
      </trkpt>
      <trkpt lat="45.67413" lon="3.06933">
        <ele>679.5</ele>
        <time>2014-06-21T14:13:55Z</time>
      </trkpt>
      <trkpt lat="45.6747" lon="3.06906">
        <ele>679.7</ele>
        <time>2014-06-21T14:14:15Z</time>
      </trkpt>
      <trkpt lat="45.67672" lon="3.06875">
        <ele>678.7</ele>
        <time>2014-06-21T14:15:13Z</time>
      </trkpt>
      <trkpt lat="45.67754" lon="3.06846">
        <ele>678.4</ele>
        <time>2014-06-21T14:15:35Z</time>
      </trkpt>
      <trkpt lat="45.67841" lon="3.06843">
        <ele>677.4</ele>
        <time>2014-06-21T14:16:05Z</time>
      </trkpt>
      <trkpt lat="45.68008" lon="3.06874">
        <ele>683.7</ele>
        <time>2014-06-21T14:17:05Z</time>
      </trkpt>
      <trkpt lat="45.68052" lon="3.0688">
        <ele>689.7</ele>
        <time>2014-06-21T14:17:39Z</time>
      </trkpt>
      <trkpt lat="45.68095" lon="3.06878">
        <ele>695.7</ele>
        <time>2014-06-21T14:18:09Z</time>
      </trkpt>
      <trkpt lat="45.68161" lon="3.06884">
        <ele>704.6</ele>
        <time>2014-06-21T14:18:59Z</time>
      </trkpt>
      <trkpt lat="45.68204" lon="3.06902">
        <ele>710.8</ele>
        <time>2014-06-21T14:19:31Z</time>
      </trkpt>
      <trkpt lat="45.68245" lon="3.06921">
        <ele>717</ele>
        <time>2014-06-21T14:20:03Z</time>
      </trkpt>
      <trkpt lat="45.68273" lon="3.06937">
        <ele>721</ele>
        <time>2014-06-21T14:20:28Z</time>
      </trkpt>
      <trkpt lat="45.68301" lon="3.0696">
        <ele>725.8</ele>
        <time>2014-06-21T14:20:52Z</time>
      </trkpt>
      <trkpt lat="45.68336" lon="3.06985">
        <ele>731.8</ele>
        <time>2014-06-21T14:21:32Z</time>
      </trkpt>
      <trkpt lat="45.6834" lon="3.06994">
        <ele>733.3</ele>
        <time>2014-06-21T14:22:04Z</time>
      </trkpt>
      <trkpt lat="45.6837" lon="3.06948">
        <ele>735</ele>
        <time>2014-06-21T14:22:34Z</time>
      </trkpt>
      <trkpt lat="45.68428" lon="3.06855">
        <ele>739.9</ele>
        <time>2014-06-21T14:23:14Z</time>
      </trkpt>
      <trkpt lat="45.68451" lon="3.06805">
        <ele>741.9</ele>
        <time>2014-06-21T14:23:32Z</time>
      </trkpt>
      <trkpt lat="45.68461" lon="3.06633">
        <ele>748.1</ele>
        <time>2014-06-21T14:24:20Z</time>
      </trkpt>
      <trkpt lat="45.68467" lon="3.06495">
        <ele>754.2</ele>
        <time>2014-06-21T14:25:00Z</time>
      </trkpt>
      <trkpt lat="45.68458" lon="3.06258">
        <ele>761</ele>
        <time>2014-06-21T14:26:06Z</time>
      </trkpt>
      <trkpt lat="45.68457" lon="3.06179">
        <ele>764.1</ele>
        <time>2014-06-21T14:26:28Z</time>
      </trkpt>
      <trkpt lat="45.68438" lon="3.06158">
        <ele>766.1</ele>
        <time>2014-06-21T14:26:52Z</time>
      </trkpt>
      <trkpt lat="45.68411" lon="3.06175">
        <ele>766.4</ele>
        <time>2014-06-21T14:27:32Z</time>
      </trkpt>
      <trkpt lat="45.68363" lon="3.06297">
        <ele>757.7</ele>
        <time>2014-06-21T14:28:16Z</time>
      </trkpt>
      <trkpt lat="45.68349" lon="3.06309">
        <ele>757</ele>
        <time>2014-06-21T14:29:05Z</time>
      </trkpt>
      <trkpt lat="45.68344" lon="3.06316">
        <ele>756.5</ele>
        <time>2014-06-21T14:31:44Z</time>
      </trkpt>
      <trkpt lat="45.68335" lon="3.06317">
        <ele>756.4</ele>
        <time>2014-06-21T14:35:35Z</time>
      </trkpt>
      <trkpt lat="45.68344" lon="3.06318">
        <ele>755.8</ele>
        <time>2014-06-21T14:39:34Z</time>
      </trkpt>
      <trkpt lat="45.68342" lon="3.06311">
        <ele>755.9</ele>
        <time>2014-06-21T14:41:39Z</time>
      </trkpt>
      <trkpt lat="45.68275" lon="3.06456">
        <ele>756.5</ele>
        <time>2014-06-21T14:42:17Z</time>
      </trkpt>
      <trkpt lat="45.68304" lon="3.06393">
        <ele>756.5</ele>
        <time>2014-06-21T14:42:19Z</time>
      </trkpt>
      <trkpt lat="45.68291" lon="3.06371">
        <ele>756.6</ele>
        <time>2014-06-21T14:42:25Z</time>
      </trkpt>
      <trkpt lat="45.68363" lon="3.06308">
        <ele>756.5</ele>
        <time>2014-06-21T14:42:42Z</time>
      </trkpt>
      <trkpt lat="45.68338" lon="3.06292">
        <ele>756.4</ele>
        <time>2014-06-21T14:43:11Z</time>
      </trkpt>
      <trkpt lat="45.68253" lon="3.06525">
        <ele>756.6</ele>
        <time>2014-06-21T14:43:48Z</time>
      </trkpt>
      <trkpt lat="45.68228" lon="3.06571">
        <ele>756.6</ele>
        <time>2014-06-21T14:43:58Z</time>
      </trkpt>
      <trkpt lat="45.68333" lon="3.06302">
        <ele>756.3</ele>
        <time>2014-06-21T14:44:57Z</time>
      </trkpt>
      <trkpt lat="45.6834" lon="3.06326">
        <ele>757.3</ele>
        <time>2014-06-21T14:45:45Z</time>
      </trkpt>
      <trkpt lat="45.68336" lon="3.06329">
        <ele>757.5</ele>
        <time>2014-06-21T14:48:14Z</time>
      </trkpt>
      <trkpt lat="45.68348" lon="3.06346">
        <ele>757.3</ele>
        <time>2014-06-21T14:49:32Z</time>
      </trkpt>
      <trkpt lat="45.68347" lon="3.06336">
        <ele>757.7</ele>
        <time>2014-06-21T14:50:12Z</time>
      </trkpt>
      <trkpt lat="45.68341" lon="3.06334">
        <ele>757.4</ele>
        <time>2014-06-21T14:52:47Z</time>
      </trkpt>
      <trkpt lat="45.68335" lon="3.06338">
        <ele>757.6</ele>
        <time>2014-06-21T14:54:49Z</time>
      </trkpt>
      <trkpt lat="45.68341" lon="3.06334">
        <ele>757.5</ele>
        <time>2014-06-21T14:56:26Z</time>
      </trkpt>
      <trkpt lat="45.6834" lon="3.06336">
        <ele>757.1</ele>
        <time>2014-06-21T14:57:58Z</time>
      </trkpt>
      <trkpt lat="45.68341" lon="3.06337">
        <ele>757.2</ele>
        <time>2014-06-21T15:00:30Z</time>
      </trkpt>
      <trkpt lat="45.68354" lon="3.06325">
        <ele>757.4</ele>
        <time>2014-06-21T15:02:32Z</time>
      </trkpt>
      <trkpt lat="45.68347" lon="3.06331">
        <ele>756.9</ele>
        <time>2014-06-21T15:05:30Z</time>
      </trkpt>
      <trkpt lat="45.68343" lon="3.06325">
        <ele>756.5</ele>
        <time>2014-06-21T15:08:21Z</time>
      </trkpt>
      <trkpt lat="45.68347" lon="3.06329">
        <ele>756.2</ele>
        <time>2014-06-21T15:10:40Z</time>
      </trkpt>
      <trkpt lat="45.68328" lon="3.06332">
        <ele>756.4</ele>
        <time>2014-06-21T15:11:10Z</time>
      </trkpt>
      <trkpt lat="45.68346" lon="3.06342">
        <ele>756.4</ele>
        <time>2014-06-21T15:13:13Z</time>
      </trkpt>
      <trkpt lat="45.68336" lon="3.0635">
        <ele>756.3</ele>
        <time>2014-06-21T15:13:52Z</time>
      </trkpt>
      <trkpt lat="45.68357" lon="3.06341">
        <ele>756.4</ele>
        <time>2014-06-21T15:15:03Z</time>
      </trkpt>
      <trkpt lat="45.68334" lon="3.06341">
        <ele>756.2</ele>
        <time>2014-06-21T15:15:43Z</time>
      </trkpt>
      <trkpt lat="45.68345" lon="3.06323">
        <ele>755.5</ele>
        <time>2014-06-21T15:16:54Z</time>
      </trkpt>
      <trkpt lat="45.68344" lon="3.06335">
        <ele>755.5</ele>
        <time>2014-06-21T15:17:54Z</time>
      </trkpt>
      <trkpt lat="45.68339" lon="3.06344">
        <ele>756.7</ele>
        <time>2014-06-21T15:18:50Z</time>
      </trkpt>
      <trkpt lat="45.68346" lon="3.06327">
        <ele>757</ele>
        <time>2014-06-21T15:22:40Z</time>
      </trkpt>
      <trkpt lat="45.68341" lon="3.06345">
        <ele>756.2</ele>
        <time>2014-06-21T15:28:06Z</time>
      </trkpt>
      <trkpt lat="45.68351" lon="3.06318">
        <ele>756.5</ele>
        <time>2014-06-21T15:28:26Z</time>
      </trkpt>
      <trkpt lat="45.6834" lon="3.06332">
        <ele>756.4</ele>
        <time>2014-06-21T15:30:44Z</time>
      </trkpt>
      <trkpt lat="45.68371" lon="3.06277">
        <ele>757.4</ele>
        <time>2014-06-24T14:26:33Z</time>
      </trkpt>
      <trkpt lat="45.68376" lon="3.06215">
        <ele>759.3</ele>
        <time>2014-06-24T14:26:52Z</time>
      </trkpt>
      <trkpt lat="45.68397" lon="3.06171">
        <ele>763.8</ele>
        <time>2014-06-24T14:27:28Z</time>
      </trkpt>
      <trkpt lat="45.68402" lon="3.06173">
        <ele>763.9</ele>
        <time>2014-06-24T14:27:34Z</time>
      </trkpt>
      <trkpt lat="45.68445" lon="3.06096">
        <ele>763.7</ele>
        <time>2014-06-24T14:28:02Z</time>
      </trkpt>
      <trkpt lat="45.68446" lon="3.06104">
        <ele>764.4</ele>
        <time>2014-06-24T14:28:22Z</time>
      </trkpt>
      <trkpt lat="45.68441" lon="3.06126">
        <ele>764</ele>
        <time>2014-06-24T14:32:33Z</time>
      </trkpt>
      <trkpt lat="45.68457" lon="3.0598">
        <ele>766.9</ele>
        <time>2014-06-24T14:33:11Z</time>
      </trkpt>
      <trkpt lat="45.68454" lon="3.05907">
        <ele>770.2</ele>
        <time>2014-06-24T14:33:27Z</time>
      </trkpt>
      <trkpt lat="45.68458" lon="3.05827">
        <ele>773.4</ele>
        <time>2014-06-24T14:33:43Z</time>
      </trkpt>
      <trkpt lat="45.68472" lon="3.05704">
        <ele>778.3</ele>
        <time>2014-06-24T14:34:12Z</time>
      </trkpt>
      <trkpt lat="45.68461" lon="3.05646">
        <ele>784.6</ele>
        <time>2014-06-24T14:34:42Z</time>
      </trkpt>
      <trkpt lat="45.68438" lon="3.05558">
        <ele>791.6</ele>
        <time>2014-06-24T14:35:22Z</time>
      </trkpt>
      <trkpt lat="45.68399" lon="3.05481">
        <ele>798.6</ele>
        <time>2014-06-24T14:35:56Z</time>
      </trkpt>
      <trkpt lat="45.68325" lon="3.05442">
        <ele>805.1</ele>
        <time>2014-06-24T14:36:38Z</time>
      </trkpt>
      <trkpt lat="45.68289" lon="3.05384">
        <ele>809.5</ele>
        <time>2014-06-24T14:37:08Z</time>
      </trkpt>
      <trkpt lat="45.68264" lon="3.05284">
        <ele>814</ele>
        <time>2014-06-24T14:37:46Z</time>
      </trkpt>
      <trkpt lat="45.68251" lon="3.05194">
        <ele>819.7</ele>
        <time>2014-06-24T14:38:20Z</time>
      </trkpt>
      <trkpt lat="45.68216" lon="3.05128">
        <ele>825</ele>
        <time>2014-06-24T14:38:50Z</time>
      </trkpt>
      <trkpt lat="45.68148" lon="3.05081">
        <ele>828.2</ele>
        <time>2014-06-24T14:39:22Z</time>
      </trkpt>
      <trkpt lat="45.68061" lon="3.04987">
        <ele>833</ele>
        <time>2014-06-24T14:40:08Z</time>
      </trkpt>
      <trkpt lat="45.68026" lon="3.04954">
        <ele>835.9</ele>
        <time>2014-06-24T14:40:26Z</time>
      </trkpt>
      <trkpt lat="45.6802" lon="3.04863">
        <ele>839.3</ele>
        <time>2014-06-24T14:41:00Z</time>
      </trkpt>
      <trkpt lat="45.68046" lon="3.04764">
        <ele>844.4</ele>
        <time>2014-06-24T14:41:38Z</time>
      </trkpt>
      <trkpt lat="45.68075" lon="3.0465">
        <ele>852.6</ele>
        <time>2014-06-24T14:42:18Z</time>
      </trkpt>
      <trkpt lat="45.68096" lon="3.046">
        <ele>857.7</ele>
        <time>2014-06-24T14:42:42Z</time>
      </trkpt>
      <trkpt lat="45.68114" lon="3.04542">
        <ele>863.9</ele>
        <time>2014-06-24T14:43:10Z</time>
      </trkpt>
      <trkpt lat="45.68117" lon="3.04465">
        <ele>870.6</ele>
        <time>2014-06-24T14:43:42Z</time>
      </trkpt>
      <trkpt lat="45.68108" lon="3.04401">
        <ele>874.6</ele>
        <time>2014-06-24T14:44:10Z</time>
      </trkpt>
      <trkpt lat="45.68091" lon="3.04315">
        <ele>881.2</ele>
        <time>2014-06-24T14:44:44Z</time>
      </trkpt>
      <trkpt lat="45.68034" lon="3.04238">
        <ele>886</ele>
        <time>2014-06-24T14:45:22Z</time>
      </trkpt>
      <trkpt lat="45.68029" lon="3.04142">
        <ele>890.2</ele>
        <time>2014-06-24T14:45:54Z</time>
      </trkpt>
      <trkpt lat="45.68041" lon="3.03949">
        <ele>893.8</ele>
        <time>2014-06-24T14:46:46Z</time>
      </trkpt>
      <trkpt lat="45.68058" lon="3.03868">
        <ele>897.5</ele>
        <time>2014-06-24T14:47:14Z</time>
      </trkpt>
      <trkpt lat="45.68061" lon="3.03739">
        <ele>902.1</ele>
        <time>2014-06-24T14:47:50Z</time>
      </trkpt>
      <trkpt lat="45.68081" lon="3.03586">
        <ele>906.2</ele>
        <time>2014-06-24T14:48:26Z</time>
      </trkpt>
      <trkpt lat="45.68085" lon="3.03423">
        <ele>911.4</ele>
        <time>2014-06-24T14:49:10Z</time>
      </trkpt>
      <trkpt lat="45.6812" lon="3.03412">
        <ele>913.9</ele>
        <time>2014-06-24T14:49:26Z</time>
      </trkpt>
      <trkpt lat="45.6818" lon="3.03369">
        <ele>921.8</ele>
        <time>2014-06-24T14:50:04Z</time>
      </trkpt>
      <trkpt lat="45.68176" lon="3.03301">
        <ele>926.2</ele>
        <time>2014-06-24T14:50:32Z</time>
      </trkpt>
      <trkpt lat="45.68168" lon="3.03201">
        <ele>934.3</ele>
        <time>2014-06-24T14:51:12Z</time>
      </trkpt>
      <trkpt lat="45.68172" lon="3.03065">
        <ele>938.5</ele>
        <time>2014-06-24T14:51:52Z</time>
      </trkpt>
      <trkpt lat="45.6815" lon="3.02795">
        <ele>944.4</ele>
        <time>2014-06-24T14:52:54Z</time>
      </trkpt>
      <trkpt lat="45.68175" lon="3.02641">
        <ele>944.2</ele>
        <time>2014-06-24T14:53:22Z</time>
      </trkpt>
      <trkpt lat="45.68219" lon="3.02493">
        <ele>942.6</ele>
        <time>2014-06-24T14:53:52Z</time>
      </trkpt>
      <trkpt lat="45.68242" lon="3.02346">
        <ele>947.1</ele>
        <time>2014-06-24T14:54:32Z</time>
      </trkpt>
      <trkpt lat="45.68228" lon="3.02118">
        <ele>951.2</ele>
        <time>2014-06-24T14:55:22Z</time>
      </trkpt>
      <trkpt lat="45.68221" lon="3.02096">
        <ele>951.3</ele>
        <time>2014-06-24T14:55:28Z</time>
      </trkpt>
      <trkpt lat="45.68246" lon="3.01983">
        <ele>953</ele>
        <time>2014-06-24T14:56:02Z</time>
      </trkpt>
      <trkpt lat="45.68307" lon="3.01987">
        <ele>956.3</ele>
        <time>2014-06-24T14:56:24Z</time>
      </trkpt>
      <trkpt lat="45.68399" lon="3.02003">
        <ele>959.4</ele>
        <time>2014-06-24T14:56:54Z</time>
      </trkpt>
      <trkpt lat="45.68408" lon="3.01979">
        <ele>959</ele>
        <time>2014-06-24T14:57:02Z</time>
      </trkpt>
      <trkpt lat="45.68415" lon="3.01901">
        <ele>963.4</ele>
        <time>2014-06-24T14:57:22Z</time>
      </trkpt>
      <trkpt lat="45.68411" lon="3.0176">
        <ele>969.1</ele>
        <time>2014-06-24T14:57:56Z</time>
      </trkpt>
      <trkpt lat="45.68445" lon="3.01559">
        <ele>974.1</ele>
        <time>2014-06-24T14:58:38Z</time>
      </trkpt>
      <trkpt lat="45.68455" lon="3.01479">
        <ele>977.2</ele>
        <time>2014-06-24T14:58:56Z</time>
      </trkpt>
      <trkpt lat="45.68489" lon="3.01289">
        <ele>983.2</ele>
        <time>2014-06-24T14:59:40Z</time>
      </trkpt>
      <trkpt lat="45.68543" lon="3.01082">
        <ele>987.1</ele>
        <time>2014-06-24T15:00:32Z</time>
      </trkpt>
      <trkpt lat="45.68597" lon="3.01015">
        <ele>987.9</ele>
        <time>2014-06-24T15:00:56Z</time>
      </trkpt>
      <trkpt lat="45.68618" lon="3.00861">
        <ele>986.5</ele>
        <time>2014-06-24T15:01:20Z</time>
      </trkpt>
      <trkpt lat="45.68634" lon="3.00787">
        <ele>982.7</ele>
        <time>2014-06-24T15:01:32Z</time>
      </trkpt>
      <trkpt lat="45.68642" lon="3.0071">
        <ele>975</ele>
        <time>2014-06-24T15:01:52Z</time>
      </trkpt>
      <trkpt lat="45.68637" lon="3.00691">
        <ele>968.9</ele>
        <time>2014-06-24T15:02:15Z</time>
      </trkpt>
      <trkpt lat="45.68651" lon="3.00686">
        <ele>968.6</ele>
        <time>2014-06-24T15:02:21Z</time>
      </trkpt>
      <trkpt lat="45.68758" lon="3.0063">
        <ele>973.7</ele>
        <time>2014-06-24T15:02:53Z</time>
      </trkpt>
      <trkpt lat="45.68903" lon="3.00556">
        <ele>975.2</ele>
        <time>2014-06-24T15:03:31Z</time>
      </trkpt>
      <trkpt lat="45.68982" lon="3.00558">
        <ele>972.1</ele>
        <time>2014-06-24T15:03:47Z</time>
      </trkpt>
      <trkpt lat="45.69027" lon="3.00575">
        <ele>968.8</ele>
        <time>2014-06-24T15:03:57Z</time>
      </trkpt>
      <trkpt lat="45.69062" lon="3.00569">
        <ele>965.8</ele>
        <time>2014-06-24T15:04:05Z</time>
      </trkpt>
      <trkpt lat="45.69138" lon="3.00531">
        <ele>958.5</ele>
        <time>2014-06-24T15:04:25Z</time>
      </trkpt>
      <trkpt lat="45.69165" lon="3.00515">
        <ele>958.3</ele>
        <time>2014-06-24T15:04:35Z</time>
      </trkpt>
      <trkpt lat="45.69232" lon="3.00456">
        <ele>959.9</ele>
        <time>2014-06-24T15:04:51Z</time>
      </trkpt>
      <trkpt lat="45.69272" lon="3.00408">
        <ele>958.8</ele>
        <time>2014-06-24T15:05:01Z</time>
      </trkpt>
      <trkpt lat="45.69327" lon="3.00289">
        <ele>952.7</ele>
        <time>2014-06-24T15:05:19Z</time>
      </trkpt>
      <trkpt lat="45.6934" lon="3.00211">
        <ele>948.3</ele>
        <time>2014-06-24T15:05:27Z</time>
      </trkpt>
      <trkpt lat="45.69356" lon="3.00128">
        <ele>941.5</ele>
        <time>2014-06-24T15:05:35Z</time>
      </trkpt>
      <trkpt lat="45.69381" lon="3.00067">
        <ele>935.6</ele>
        <time>2014-06-24T15:05:43Z</time>
      </trkpt>
      <trkpt lat="45.69416" lon="3">
        <ele>928.6</ele>
        <time>2014-06-24T15:05:55Z</time>
      </trkpt>
      <trkpt lat="45.69429" lon="2.99933">
        <ele>923.2</ele>
        <time>2014-06-24T15:06:05Z</time>
      </trkpt>
      <trkpt lat="45.69414" lon="2.99876">
        <ele>918.6</ele>
        <time>2014-06-24T15:06:13Z</time>
      </trkpt>
      <trkpt lat="45.69408" lon="2.99818">
        <ele>914.2</ele>
        <time>2014-06-24T15:06:21Z</time>
      </trkpt>
      <trkpt lat="45.69388" lon="2.9976">
        <ele>909.2</ele>
        <time>2014-06-24T15:06:31Z</time>
      </trkpt>
      <trkpt lat="45.69356" lon="2.99734">
        <ele>905.6</ele>
        <time>2014-06-24T15:06:39Z</time>
      </trkpt>
      <trkpt lat="45.69359" lon="2.9971">
        <ele>899.7</ele>
        <time>2014-06-24T15:07:32Z</time>
      </trkpt>
      <trkpt lat="45.69388" lon="2.99717">
        <ele>899.6</ele>
        <time>2014-06-24T15:07:42Z</time>
      </trkpt>
      <trkpt lat="45.6941" lon="2.99689">
        <ele>899.3</ele>
        <time>2014-06-24T15:07:51Z</time>
      </trkpt>
      <trkpt lat="45.69454" lon="2.99627">
        <ele>896.5</ele>
        <time>2014-06-24T15:08:04Z</time>
      </trkpt>
      <trkpt lat="45.69458" lon="2.99559">
        <ele>896.2</ele>
        <time>2014-06-24T15:08:24Z</time>
      </trkpt>
      <trkpt lat="45.69396" lon="2.99553">
        <ele>903</ele>
        <time>2014-06-24T15:09:13Z</time>
      </trkpt>
      <trkpt lat="45.69333" lon="2.99495">
        <ele>903</ele>
        <time>2014-06-24T15:09:40Z</time>
      </trkpt>
      <trkpt lat="45.69287" lon="2.99486">
        <ele>898.4</ele>
        <time>2014-06-24T15:09:58Z</time>
      </trkpt>
      <trkpt lat="45.69223" lon="2.99475">
        <ele>890.8</ele>
        <time>2014-06-24T15:10:17Z</time>
      </trkpt>
      <trkpt lat="45.69196" lon="2.99443">
        <ele>890.7</ele>
        <time>2014-06-24T15:10:27Z</time>
      </trkpt>
      <trkpt lat="45.69167" lon="2.99324">
        <ele>892.5</ele>
        <time>2014-06-24T15:10:49Z</time>
      </trkpt>
      <trkpt lat="45.69159" lon="2.99217">
        <ele>896.3</ele>
        <time>2014-06-24T15:11:09Z</time>
      </trkpt>
      <trkpt lat="45.69133" lon="2.99138">
        <ele>897.9</ele>
        <time>2014-06-24T15:11:23Z</time>
      </trkpt>
      <trkpt lat="45.69088" lon="2.99014">
        <ele>900.9</ele>
        <time>2014-06-24T15:11:45Z</time>
      </trkpt>
      <trkpt lat="45.6903" lon="2.98811">
        <ele>905.3</ele>
        <time>2014-06-24T15:12:23Z</time>
      </trkpt>
      <trkpt lat="45.68944" lon="2.98714">
        <ele>905.3</ele>
        <time>2014-06-24T15:12:59Z</time>
      </trkpt>
      <trkpt lat="45.68957" lon="2.98702">
        <ele>904.9</ele>
        <time>2014-06-24T15:13:13Z</time>
      </trkpt>
      <trkpt lat="45.68908" lon="2.98675">
        <ele>906</ele>
        <time>2014-06-24T15:13:41Z</time>
      </trkpt>
      <trkpt lat="45.68792" lon="2.98565">
        <ele>897</ele>
        <time>2014-06-24T15:14:08Z</time>
      </trkpt>
      <trkpt lat="45.68761" lon="2.98539">
        <ele>894.9</ele>
        <time>2014-06-24T15:14:33Z</time>
      </trkpt>
      <trkpt lat="45.68746" lon="2.98486">
        <ele>895.9</ele>
        <time>2014-06-24T15:14:53Z</time>
      </trkpt>
      <trkpt lat="45.68702" lon="2.98425">
        <ele>897.1</ele>
        <time>2014-06-24T15:15:43Z</time>
      </trkpt>
      <trkpt lat="45.68684" lon="2.98402">
        <ele>897.9</ele>
        <time>2014-06-24T15:17:31Z</time>
      </trkpt>
      <trkpt lat="45.68676" lon="2.98307">
        <ele>899.5</ele>
        <time>2014-06-24T15:17:57Z</time>
      </trkpt>
      <trkpt lat="45.68664" lon="2.98251">
        <ele>899.6</ele>
        <time>2014-06-24T15:18:11Z</time>
      </trkpt>
      <trkpt lat="45.68602" lon="2.98093">
        <ele>903.8</ele>
        <time>2014-06-24T15:18:47Z</time>
      </trkpt>
      <trkpt lat="45.68562" lon="2.98062">
        <ele>905</ele>
        <time>2014-06-24T15:19:05Z</time>
      </trkpt>
      <trkpt lat="45.68482" lon="2.97978">
        <ele>907.1</ele>
        <time>2014-06-24T15:19:37Z</time>
      </trkpt>
      <trkpt lat="45.68374" lon="2.97953">
        <ele>900.1</ele>
        <time>2014-06-24T15:20:09Z</time>
      </trkpt>
      <trkpt lat="45.68245" lon="2.97935">
        <ele>896.3</ele>
        <time>2014-06-24T15:20:43Z</time>
      </trkpt>
      <trkpt lat="45.68177" lon="2.9792">
        <ele>893.6</ele>
        <time>2014-06-24T15:21:01Z</time>
      </trkpt>
      <trkpt lat="45.68117" lon="2.97846">
        <ele>892.7</ele>
        <time>2014-06-24T15:21:31Z</time>
      </trkpt>
      <trkpt lat="45.68094" lon="2.97783">
        <ele>892.9</ele>
        <time>2014-06-24T15:21:41Z</time>
      </trkpt>
      <trkpt lat="45.68051" lon="2.97681">
        <ele>896.3</ele>
        <time>2014-06-24T15:22:01Z</time>
      </trkpt>
      <trkpt lat="45.67994" lon="2.97621">
        <ele>899.3</ele>
        <time>2014-06-24T15:22:19Z</time>
      </trkpt>
      <trkpt lat="45.67924" lon="2.97559">
        <ele>902.2</ele>
        <time>2014-06-24T15:22:41Z</time>
      </trkpt>
      <trkpt lat="45.67895" lon="2.97512">
        <ele>903</ele>
        <time>2014-06-24T15:22:51Z</time>
      </trkpt>
      <trkpt lat="45.67883" lon="2.97494">
        <ele>902.9</ele>
        <time>2014-06-24T15:22:55Z</time>
      </trkpt>
      <trkpt lat="45.67726" lon="2.97212">
        <ele>905.8</ele>
        <time>2014-06-24T15:23:55Z</time>
      </trkpt>
      <trkpt lat="45.67604" lon="2.97111">
        <ele>913.4</ele>
        <time>2014-06-24T15:24:43Z</time>
      </trkpt>
      <trkpt lat="45.67569" lon="2.97056">
        <ele>921.1</ele>
        <time>2014-06-24T15:25:19Z</time>
      </trkpt>
      <trkpt lat="45.67502" lon="2.96903">
        <ele>928.5</ele>
        <time>2014-06-24T15:26:07Z</time>
      </trkpt>
      <trkpt lat="45.67442" lon="2.96772">
        <ele>933.3</ele>
        <time>2014-06-24T15:26:47Z</time>
      </trkpt>
      <trkpt lat="45.67359" lon="2.96739">
        <ele>936.5</ele>
        <time>2014-06-24T15:27:17Z</time>
      </trkpt>
      <trkpt lat="45.67157" lon="2.96786">
        <ele>932.8</ele>
        <time>2014-06-24T15:27:57Z</time>
      </trkpt>
      <trkpt lat="45.67072" lon="2.9679">
        <ele>934.1</ele>
        <time>2014-06-24T15:28:17Z</time>
      </trkpt>
      <trkpt lat="45.67071" lon="2.96748">
        <ele>935.1</ele>
        <time>2014-06-24T15:28:27Z</time>
      </trkpt>
      <trkpt lat="45.67072" lon="2.96668">
        <ele>938.3</ele>
        <time>2014-06-24T15:28:45Z</time>
      </trkpt>
      <trkpt lat="45.67056" lon="2.96558">
        <ele>944.4</ele>
        <time>2014-06-24T15:29:19Z</time>
      </trkpt>
      <trkpt lat="45.67035" lon="2.96479">
        <ele>950.2</ele>
        <time>2014-06-24T15:29:45Z</time>
      </trkpt>
      <trkpt lat="45.67019" lon="2.96341">
        <ele>957.7</ele>
        <time>2014-06-24T15:30:31Z</time>
      </trkpt>
      <trkpt lat="45.6703" lon="2.96279">
        <ele>959.2</ele>
        <time>2014-06-24T15:30:49Z</time>
      </trkpt>
      <trkpt lat="45.66962" lon="2.96225">
        <ele>953.3</ele>
        <time>2014-06-24T15:31:07Z</time>
      </trkpt>
      <trkpt lat="45.6691" lon="2.96206">
        <ele>949</ele>
        <time>2014-06-24T15:31:15Z</time>
      </trkpt>
      <trkpt lat="45.6696" lon="2.9607">
        <ele>950.3</ele>
        <time>2014-06-24T15:31:49Z</time>
      </trkpt>
      <trkpt lat="45.67043" lon="2.9591">
        <ele>956.5</ele>
        <time>2014-06-24T15:32:27Z</time>
      </trkpt>
      <trkpt lat="45.67115" lon="2.95725">
        <ele>960.6</ele>
        <time>2014-06-24T15:33:09Z</time>
      </trkpt>
      <trkpt lat="45.67155" lon="2.95652">
        <ele>963.6</ele>
        <time>2014-06-24T15:33:29Z</time>
      </trkpt>
      <trkpt lat="45.67203" lon="2.95569">
        <ele>968.5</ele>
        <time>2014-06-24T15:33:53Z</time>
      </trkpt>
      <trkpt lat="45.67236" lon="2.95506">
        <ele>968.8</ele>
        <time>2014-06-24T15:34:07Z</time>
      </trkpt>
      <trkpt lat="45.67329" lon="2.95286">
        <ele>968.6</ele>
        <time>2014-06-24T15:34:47Z</time>
      </trkpt>
      <trkpt lat="45.6734" lon="2.95258">
        <ele>968.5</ele>
        <time>2014-06-24T15:34:51Z</time>
      </trkpt>
      <trkpt lat="45.67427" lon="2.95058">
        <ele>966.5</ele>
        <time>2014-06-24T15:35:23Z</time>
      </trkpt>
      <trkpt lat="45.67607" lon="2.94644">
        <ele>971.3</ele>
        <time>2014-06-24T15:36:27Z</time>
      </trkpt>
      <trkpt lat="45.67681" lon="2.94497">
        <ele>975.7</ele>
        <time>2014-06-24T15:36:55Z</time>
      </trkpt>
      <trkpt lat="45.67726" lon="2.94348">
        <ele>973.1</ele>
        <time>2014-06-24T15:37:17Z</time>
      </trkpt>
      <trkpt lat="45.67757" lon="2.94257">
        <ele>974.9</ele>
        <time>2014-06-24T15:37:35Z</time>
      </trkpt>
      <trkpt lat="45.67794" lon="2.94045">
        <ele>979</ele>
        <time>2014-06-24T15:38:13Z</time>
      </trkpt>
      <trkpt lat="45.67831" lon="2.93895">
        <ele>983.4</ele>
        <time>2014-06-24T15:38:41Z</time>
      </trkpt>
      <trkpt lat="45.67871" lon="2.9376">
        <ele>983.8</ele>
        <time>2014-06-24T15:39:05Z</time>
      </trkpt>
      <trkpt lat="45.68029" lon="2.93624">
        <ele>981.3</ele>
        <time>2014-06-24T15:39:55Z</time>
      </trkpt>
      <trkpt lat="45.68221" lon="2.9368">
        <ele>974.9</ele>
        <time>2014-06-24T15:40:25Z</time>
      </trkpt>
      <trkpt lat="45.68306" lon="2.93727">
        <ele>971.7</ele>
        <time>2014-06-24T15:40:39Z</time>
      </trkpt>
      <trkpt lat="45.68404" lon="2.93844">
        <ele>967.8</ele>
        <time>2014-06-24T15:40:55Z</time>
      </trkpt>
      <trkpt lat="45.68463" lon="2.93872">
        <ele>964.3</ele>
        <time>2014-06-24T15:41:03Z</time>
      </trkpt>
      <trkpt lat="45.68501" lon="2.9387">
        <ele>961.3</ele>
        <time>2014-06-24T15:41:09Z</time>
      </trkpt>
      <trkpt lat="45.68536" lon="2.93884">
        <ele>957.7</ele>
        <time>2014-06-24T15:41:21Z</time>
      </trkpt>
      <trkpt lat="45.68582" lon="2.9388">
        <ele>957.2</ele>
        <time>2014-06-24T15:41:51Z</time>
      </trkpt>
      <trkpt lat="45.68734" lon="2.93902">
        <ele>963.3</ele>
        <time>2014-06-24T15:42:31Z</time>
      </trkpt>
      <trkpt lat="45.68829" lon="2.93929">
        <ele>965.6</ele>
        <time>2014-06-24T15:42:53Z</time>
      </trkpt>
      <trkpt lat="45.68844" lon="2.93936">
        <ele>966.1</ele>
        <time>2014-06-24T15:42:57Z</time>
      </trkpt>
      <trkpt lat="45.69089" lon="2.94018">
        <ele>968.9</ele>
        <time>2014-06-24T15:43:59Z</time>
      </trkpt>
      <trkpt lat="45.69151" lon="2.94033">
        <ele>972.2</ele>
        <time>2014-06-24T15:44:23Z</time>
      </trkpt>
      <trkpt lat="45.69217" lon="2.94061">
        <ele>980.2</ele>
        <time>2014-06-24T15:45:01Z</time>
      </trkpt>
      <trkpt lat="45.69278" lon="2.94066">
        <ele>985.2</ele>
        <time>2014-06-24T15:45:31Z</time>
      </trkpt>
      <trkpt lat="45.69345" lon="2.94086">
        <ele>989.8</ele>
        <time>2014-06-24T15:46:01Z</time>
      </trkpt>
      <trkpt lat="45.69401" lon="2.94104">
        <ele>989.9</ele>
        <time>2014-06-24T15:46:17Z</time>
      </trkpt>
      <trkpt lat="45.69561" lon="2.94122">
        <ele>990</ele>
        <time>2014-06-24T15:47:01Z</time>
      </trkpt>
      <trkpt lat="45.69626" lon="2.94134">
        <ele>992.1</ele>
        <time>2014-06-24T15:47:19Z</time>
      </trkpt>
      <trkpt lat="45.69659" lon="2.94132">
        <ele>992.4</ele>
        <time>2014-06-24T15:47:27Z</time>
      </trkpt>
      <trkpt lat="45.69775" lon="2.94131">
        <ele>996.1</ele>
        <time>2014-06-24T15:48:03Z</time>
      </trkpt>
      <trkpt lat="45.69828" lon="2.94119">
        <ele>1001.6</ele>
        <time>2014-06-24T15:48:29Z</time>
      </trkpt>
      <trkpt lat="45.6988" lon="2.94109">
        <ele>1008</ele>
        <time>2014-06-24T15:48:59Z</time>
      </trkpt>
      <trkpt lat="45.69951" lon="2.94107">
        <ele>1011.7</ele>
        <time>2014-06-24T15:49:33Z</time>
      </trkpt>
      <trkpt lat="45.70051" lon="2.94073">
        <ele>1014.1</ele>
        <time>2014-06-24T15:50:03Z</time>
      </trkpt>
      <trkpt lat="45.70187" lon="2.93945">
        <ele>1016.8</ele>
        <time>2014-06-24T15:50:45Z</time>
      </trkpt>
      <trkpt lat="45.70241" lon="2.93878">
        <ele>1021.2</ele>
        <time>2014-06-24T15:51:09Z</time>
      </trkpt>
      <trkpt lat="45.7032" lon="2.9383">
        <ele>1024.8</ele>
        <time>2014-06-24T15:51:37Z</time>
      </trkpt>
      <trkpt lat="45.70447" lon="2.93833">
        <ele>1031.8</ele>
        <time>2014-06-24T15:52:23Z</time>
      </trkpt>
      <trkpt lat="45.70544" lon="2.93821">
        <ele>1031.9</ele>
        <time>2014-06-24T15:52:53Z</time>
      </trkpt>
      <trkpt lat="45.70641" lon="2.93828">
        <ele>1034.2</ele>
        <time>2014-06-24T15:53:21Z</time>
      </trkpt>
      <trkpt lat="45.70726" lon="2.93902">
        <ele>1033.7</ele>
        <time>2014-06-24T15:53:39Z</time>
      </trkpt>
      <trkpt lat="45.709" lon="2.941">
        <ele>1033.9</ele>
        <time>2014-06-24T15:54:17Z</time>
      </trkpt>
      <trkpt lat="45.71011" lon="2.94245">
        <ele>1030.6</ele>
        <time>2014-06-24T15:54:43Z</time>
      </trkpt>
      <trkpt lat="45.71032" lon="2.94276">
        <ele>1030.6</ele>
        <time>2014-06-24T15:54:49Z</time>
      </trkpt>
      <trkpt lat="45.71069" lon="2.94349">
        <ele>1032.8</ele>
        <time>2014-06-24T15:55:03Z</time>
      </trkpt>
      <trkpt lat="45.71136" lon="2.9448">
        <ele>1036.7</ele>
        <time>2014-06-24T15:55:33Z</time>
      </trkpt>
      <trkpt lat="45.71181" lon="2.94557">
        <ele>1035</ele>
        <time>2014-06-24T15:55:49Z</time>
      </trkpt>
      <trkpt lat="45.71219" lon="2.9462">
        <ele>1034</ele>
        <time>2014-06-24T15:56:01Z</time>
      </trkpt>
      <trkpt lat="45.71251" lon="2.94652">
        <ele>1034</ele>
        <time>2014-06-24T15:56:09Z</time>
      </trkpt>
      <trkpt lat="45.71377" lon="2.9474">
        <ele>1033.8</ele>
        <time>2014-06-24T15:56:43Z</time>
      </trkpt>
      <trkpt lat="45.71466" lon="2.94802">
        <ele>1040.4</ele>
        <time>2014-06-24T15:57:15Z</time>
      </trkpt>
      <trkpt lat="45.71522" lon="2.94827">
        <ele>1045</ele>
        <time>2014-06-24T15:57:41Z</time>
      </trkpt>
      <trkpt lat="45.71583" lon="2.94847">
        <ele>1050.1</ele>
        <time>2014-06-24T15:58:15Z</time>
      </trkpt>
      <trkpt lat="45.71647" lon="2.94876">
        <ele>1057</ele>
        <time>2014-06-24T15:58:55Z</time>
      </trkpt>
      <trkpt lat="45.7171" lon="2.94913">
        <ele>1057.6</ele>
        <time>2014-06-24T15:59:23Z</time>
      </trkpt>
      <trkpt lat="45.71818" lon="2.94962">
        <ele>1057.6</ele>
        <time>2014-06-24T15:59:55Z</time>
      </trkpt>
      <trkpt lat="45.71923" lon="2.95063">
        <ele>1060.4</ele>
        <time>2014-06-24T16:00:25Z</time>
      </trkpt>
      <trkpt lat="45.71977" lon="2.95089">
        <ele>1064</ele>
        <time>2014-06-24T16:00:41Z</time>
      </trkpt>
      <trkpt lat="45.72056" lon="2.95129">
        <ele>1070.4</ele>
        <time>2014-06-24T16:01:15Z</time>
      </trkpt>
      <trkpt lat="45.72069" lon="2.95138">
        <ele>1071.9</ele>
        <time>2014-06-24T16:01:25Z</time>
      </trkpt>
      <trkpt lat="45.72118" lon="2.95169">
        <ele>1077.7</ele>
        <time>2014-06-24T16:01:57Z</time>
      </trkpt>
      <trkpt lat="45.72192" lon="2.95213">
        <ele>1080.2</ele>
        <time>2014-06-24T16:02:27Z</time>
      </trkpt>
      <trkpt lat="45.72296" lon="2.95317">
        <ele>1076.5</ele>
        <time>2014-06-24T16:02:53Z</time>
      </trkpt>
      <trkpt lat="45.72354" lon="2.95383">
        <ele>1069.2</ele>
        <time>2014-06-24T16:03:09Z</time>
      </trkpt>
      <trkpt lat="45.72394" lon="2.95432">
        <ele>1065.5</ele>
        <time>2014-06-24T16:03:17Z</time>
      </trkpt>
      <trkpt lat="45.72453" lon="2.95512">
        <ele>1061.6</ele>
        <time>2014-06-24T16:03:29Z</time>
      </trkpt>
      <trkpt lat="45.72495" lon="2.95559">
        <ele>1057.8</ele>
        <time>2014-06-24T16:03:37Z</time>
      </trkpt>
      <trkpt lat="45.72529" lon="2.95585">
        <ele>1055.8</ele>
        <time>2014-06-24T16:03:43Z</time>
      </trkpt>
      <trkpt lat="45.72563" lon="2.95613">
        <ele>1053.8</ele>
        <time>2014-06-24T16:03:49Z</time>
      </trkpt>
      <trkpt lat="45.72623" lon="2.9562">
        <ele>1049.6</ele>
        <time>2014-06-24T16:04:01Z</time>
      </trkpt>
      <trkpt lat="45.72728" lon="2.95689">
        <ele>1046.7</ele>
        <time>2014-06-24T16:04:29Z</time>
      </trkpt>
      <trkpt lat="45.72786" lon="2.95748">
        <ele>1044.1</ele>
        <time>2014-06-24T16:04:39Z</time>
      </trkpt>
      <trkpt lat="45.72836" lon="2.95828">
        <ele>1039.2</ele>
        <time>2014-06-24T16:04:51Z</time>
      </trkpt>
      <trkpt lat="45.72881" lon="2.9588">
        <ele>1035</ele>
        <time>2014-06-24T16:05:01Z</time>
      </trkpt>
      <trkpt lat="45.72924" lon="2.95933">
        <ele>1029.1</ele>
        <time>2014-06-24T16:05:13Z</time>
      </trkpt>
      <trkpt lat="45.7295" lon="2.9596">
        <ele>1024.2</ele>
        <time>2014-06-24T16:05:21Z</time>
      </trkpt>
      <trkpt lat="45.72978" lon="2.96001">
        <ele>1018.6</ele>
        <time>2014-06-24T16:05:33Z</time>
      </trkpt>
      <trkpt lat="45.73027" lon="2.96084">
        <ele>1013</ele>
        <time>2014-06-24T16:05:49Z</time>
      </trkpt>
      <trkpt lat="45.73089" lon="2.96137">
        <ele>1006.9</ele>
        <time>2014-06-24T16:06:03Z</time>
      </trkpt>
      <trkpt lat="45.73136" lon="2.96167">
        <ele>999.9</ele>
        <time>2014-06-24T16:06:33Z</time>
      </trkpt>
      <trkpt lat="45.73138" lon="2.96168">
        <ele>1000.1</ele>
        <time>2014-06-24T16:06:43Z</time>
      </trkpt>
      <trkpt lat="45.73131" lon="2.96208">
        <ele>1000.1</ele>
        <time>2014-06-24T16:06:59Z</time>
      </trkpt>
      <trkpt lat="45.73129" lon="2.96284">
        <ele>998.2</ele>
        <time>2014-06-24T16:07:09Z</time>
      </trkpt>
      <trkpt lat="45.73123" lon="2.9638">
        <ele>994.2</ele>
        <time>2014-06-24T16:07:21Z</time>
      </trkpt>
      <trkpt lat="45.73117" lon="2.9644">
        <ele>991.9</ele>
        <time>2014-06-24T16:07:27Z</time>
      </trkpt>
      <trkpt lat="45.73118" lon="2.96503">
        <ele>988</ele>
        <time>2014-06-24T16:07:33Z</time>
      </trkpt>
      <trkpt lat="45.73116" lon="2.96592">
        <ele>982.7</ele>
        <time>2014-06-24T16:07:41Z</time>
      </trkpt>
      <trkpt lat="45.73107" lon="2.96658">
        <ele>980.5</ele>
        <time>2014-06-24T16:07:47Z</time>
      </trkpt>
      <trkpt lat="45.73093" lon="2.9681">
        <ele>976</ele>
        <time>2014-06-24T16:08:03Z</time>
      </trkpt>
      <trkpt lat="45.73217" lon="2.97078">
        <ele>970.6</ele>
        <time>2014-06-24T16:08:43Z</time>
      </trkpt>
      <trkpt lat="45.73205" lon="2.97091">
        <ele>970.7</ele>
        <time>2014-06-24T16:08:49Z</time>
      </trkpt>
      <trkpt lat="45.73143" lon="2.9709">
        <ele>968.9</ele>
        <time>2014-06-24T16:09:07Z</time>
      </trkpt>
      <trkpt lat="45.73032" lon="2.97025">
        <ele>967.7</ele>
        <time>2014-06-24T16:09:31Z</time>
      </trkpt>
      <trkpt lat="45.72942" lon="2.97087">
        <ele>967.7</ele>
        <time>2014-06-24T16:09:51Z</time>
      </trkpt>
      <trkpt lat="45.7282" lon="2.97081">
        <ele>967.2</ele>
        <time>2014-06-24T16:10:11Z</time>
      </trkpt>
      <trkpt lat="45.7276" lon="2.97115">
        <ele>966.2</ele>
        <time>2014-06-24T16:10:21Z</time>
      </trkpt>
      <trkpt lat="45.72694" lon="2.97153">
        <ele>964.3</ele>
        <time>2014-06-24T16:10:31Z</time>
      </trkpt>
      <trkpt lat="45.72535" lon="2.97208">
        <ele>961.3</ele>
        <time>2014-06-24T16:10:55Z</time>
      </trkpt>
      <trkpt lat="45.72437" lon="2.97217">
        <ele>958.5</ele>
        <time>2014-06-24T16:11:11Z</time>
      </trkpt>
      <trkpt lat="45.72347" lon="2.97182">
        <ele>956.9</ele>
        <time>2014-06-24T16:11:25Z</time>
      </trkpt>
      <trkpt lat="45.72243" lon="2.97148">
        <ele>953.4</ele>
        <time>2014-06-24T16:11:41Z</time>
      </trkpt>
      <trkpt lat="45.72213" lon="2.97142">
        <ele>952.5</ele>
        <time>2014-06-24T16:11:45Z</time>
      </trkpt>
      <trkpt lat="45.72059" lon="2.97105">
        <ele>947.4</ele>
        <time>2014-06-24T16:12:05Z</time>
      </trkpt>
      <trkpt lat="45.71799" lon="2.97021">
        <ele>939.1</ele>
        <time>2014-06-24T16:12:45Z</time>
      </trkpt>
      <trkpt lat="45.71607" lon="2.97018">
        <ele>937</ele>
        <time>2014-06-24T16:13:15Z</time>
      </trkpt>
      <trkpt lat="45.71576" lon="2.97076">
        <ele>938.3</ele>
        <time>2014-06-24T16:13:55Z</time>
      </trkpt>
      <trkpt lat="45.71515" lon="2.97105">
        <ele>942.6</ele>
        <time>2014-06-24T16:14:27Z</time>
      </trkpt>
      <trkpt lat="45.71447" lon="2.97132">
        <ele>949.2</ele>
        <time>2014-06-24T16:14:55Z</time>
      </trkpt>
      <trkpt lat="45.71372" lon="2.97126">
        <ele>954.4</ele>
        <time>2014-06-24T16:15:25Z</time>
      </trkpt>
      <trkpt lat="45.71257" lon="2.97162">
        <ele>955.9</ele>
        <time>2014-06-24T16:15:59Z</time>
      </trkpt>
      <trkpt lat="45.71127" lon="2.97237">
        <ele>955.9</ele>
        <time>2014-06-24T16:16:33Z</time>
      </trkpt>
      <trkpt lat="45.71022" lon="2.97228">
        <ele>953.3</ele>
        <time>2014-06-24T16:16:53Z</time>
      </trkpt>
      <trkpt lat="45.70984" lon="2.97224">
        <ele>953</ele>
        <time>2014-06-24T16:17:03Z</time>
      </trkpt>
      <trkpt lat="45.70933" lon="2.97216">
        <ele>954.5</ele>
        <time>2014-06-24T16:17:19Z</time>
      </trkpt>
      <trkpt lat="45.70803" lon="2.97118">
        <ele>956.1</ele>
        <time>2014-06-24T16:17:47Z</time>
      </trkpt>
      <trkpt lat="45.70724" lon="2.97067">
        <ele>955.4</ele>
        <time>2014-06-24T16:18:01Z</time>
      </trkpt>
      <trkpt lat="45.70614" lon="2.9706">
        <ele>959.8</ele>
        <time>2014-06-24T16:19:03Z</time>
      </trkpt>
      <trkpt lat="45.7052" lon="2.96985">
        <ele>965.9</ele>
        <time>2014-06-24T16:19:41Z</time>
      </trkpt>
      <trkpt lat="45.70477" lon="2.96937">
        <ele>969.4</ele>
        <time>2014-06-24T16:20:05Z</time>
      </trkpt>
      <trkpt lat="45.70427" lon="2.96893">
        <ele>974.5</ele>
        <time>2014-06-24T16:20:29Z</time>
      </trkpt>
      <trkpt lat="45.70384" lon="2.96871">
        <ele>976.7</ele>
        <time>2014-06-24T16:20:47Z</time>
      </trkpt>
      <trkpt lat="45.70238" lon="2.96791">
        <ele>977.3</ele>
        <time>2014-06-24T16:21:35Z</time>
      </trkpt>
      <trkpt lat="45.70146" lon="2.9674">
        <ele>973.2</ele>
        <time>2014-06-24T16:22:01Z</time>
      </trkpt>
      <trkpt lat="45.70128" lon="2.96811">
        <ele>971.9</ele>
        <time>2014-06-24T16:22:15Z</time>
      </trkpt>
      <trkpt lat="45.7011" lon="2.96857">
        <ele>970.8</ele>
        <time>2014-06-24T16:22:23Z</time>
      </trkpt>
      <trkpt lat="45.70084" lon="2.96931">
        <ele>971</ele>
        <time>2014-06-24T16:22:39Z</time>
      </trkpt>
      <trkpt lat="45.70076" lon="2.96957">
        <ele>971.6</ele>
        <time>2014-06-24T16:22:43Z</time>
      </trkpt>
      <trkpt lat="45.69995" lon="2.97123">
        <ele>974.2</ele>
        <time>2014-06-24T16:23:19Z</time>
      </trkpt>
      <trkpt lat="45.69967" lon="2.97251">
        <ele>970.7</ele>
        <time>2014-06-24T16:23:45Z</time>
      </trkpt>
      <trkpt lat="45.69946" lon="2.9733">
        <ele>966.1</ele>
        <time>2014-06-24T16:23:57Z</time>
      </trkpt>
      <trkpt lat="45.69905" lon="2.97415">
        <ele>960.6</ele>
        <time>2014-06-24T16:24:11Z</time>
      </trkpt>
      <trkpt lat="45.69892" lon="2.97462">
        <ele>957.3</ele>
        <time>2014-06-24T16:24:19Z</time>
      </trkpt>
      <trkpt lat="45.69874" lon="2.97573">
        <ele>952</ele>
        <time>2014-06-24T16:24:37Z</time>
      </trkpt>
      <trkpt lat="45.69864" lon="2.97632">
        <ele>949.2</ele>
        <time>2014-06-24T16:24:49Z</time>
      </trkpt>
      <trkpt lat="45.69823" lon="2.97732">
        <ele>946.2</ele>
        <time>2014-06-24T16:25:03Z</time>
      </trkpt>
      <trkpt lat="45.69749" lon="2.97943">
        <ele>941.9</ele>
        <time>2014-06-24T16:25:27Z</time>
      </trkpt>
      <trkpt lat="45.69713" lon="2.98051">
        <ele>940.9</ele>
        <time>2014-06-24T16:25:47Z</time>
      </trkpt>
      <trkpt lat="45.6969" lon="2.98177">
        <ele>939.9</ele>
        <time>2014-06-24T16:26:17Z</time>
      </trkpt>
      <trkpt lat="45.69668" lon="2.98289">
        <ele>941.2</ele>
        <time>2014-06-24T16:26:39Z</time>
      </trkpt>
      <trkpt lat="45.69649" lon="2.98472">
        <ele>937</ele>
        <time>2014-06-24T16:27:07Z</time>
      </trkpt>
      <trkpt lat="45.69618" lon="2.98612">
        <ele>931</ele>
        <time>2014-06-24T16:27:23Z</time>
      </trkpt>
      <trkpt lat="45.69577" lon="2.98815">
        <ele>929.8</ele>
        <time>2014-06-24T16:27:53Z</time>
      </trkpt>
      <trkpt lat="45.69538" lon="2.98931">
        <ele>925.9</ele>
        <time>2014-06-24T16:28:11Z</time>
      </trkpt>
      <trkpt lat="45.69557" lon="2.99029">
        <ele>926.8</ele>
        <time>2014-06-24T16:28:29Z</time>
      </trkpt>
      <trkpt lat="45.6953" lon="2.99217">
        <ele>922.2</ele>
        <time>2014-06-24T16:28:59Z</time>
      </trkpt>
      <trkpt lat="45.69508" lon="2.99316">
        <ele>918</ele>
        <time>2014-06-24T16:29:13Z</time>
      </trkpt>
      <trkpt lat="45.69454" lon="2.99392">
        <ele>913.7</ele>
        <time>2014-06-24T16:29:29Z</time>
      </trkpt>
      <trkpt lat="45.69429" lon="2.99492">
        <ele>910.7</ele>
        <time>2014-06-24T16:29:43Z</time>
      </trkpt>
      <trkpt lat="45.69406" lon="2.99545">
        <ele>909.5</ele>
        <time>2014-06-24T16:30:11Z</time>
      </trkpt>
      <trkpt lat="45.69368" lon="2.99518">
        <ele>910</ele>
        <time>2014-06-24T16:30:25Z</time>
      </trkpt>
      <trkpt lat="45.69335" lon="2.99494">
        <ele>909.4</ele>
        <time>2014-06-24T16:30:35Z</time>
      </trkpt>
      <trkpt lat="45.69289" lon="2.99494">
        <ele>905.3</ele>
        <time>2014-06-24T16:30:51Z</time>
      </trkpt>
      <trkpt lat="45.69268" lon="2.99537">
        <ele>896.1</ele>
        <time>2014-06-24T16:31:12Z</time>
      </trkpt>
      <trkpt lat="45.69268" lon="2.99581">
        <ele>893.1</ele>
        <time>2014-06-24T16:31:22Z</time>
      </trkpt>
      <trkpt lat="45.69209" lon="2.9978">
        <ele>893.5</ele>
        <time>2014-06-24T16:31:54Z</time>
      </trkpt>
      <trkpt lat="45.69219" lon="2.99794">
        <ele>897.1</ele>
        <time>2014-06-24T16:32:20Z</time>
      </trkpt>
      <trkpt lat="45.69231" lon="2.99782">
        <ele>897.1</ele>
        <time>2014-06-24T16:32:24Z</time>
      </trkpt>
      <trkpt lat="45.69293" lon="2.99732">
        <ele>900.2</ele>
        <time>2014-06-24T16:32:44Z</time>
      </trkpt>
      <trkpt lat="45.69373" lon="2.99732">
        <ele>907.6</ele>
        <time>2014-06-24T16:33:16Z</time>
      </trkpt>
      <trkpt lat="45.69399" lon="2.99751">
        <ele>911</ele>
        <time>2014-06-24T16:33:30Z</time>
      </trkpt>
      <trkpt lat="45.69422" lon="2.99818">
        <ele>916.6</ele>
        <time>2014-06-24T16:34:00Z</time>
      </trkpt>
      <trkpt lat="45.69427" lon="2.99865">
        <ele>920.3</ele>
        <time>2014-06-24T16:34:20Z</time>
      </trkpt>
      <trkpt lat="45.69438" lon="2.99937">
        <ele>926.6</ele>
        <time>2014-06-24T16:34:52Z</time>
      </trkpt>
      <trkpt lat="45.69414" lon="3.00013">
        <ele>932.8</ele>
        <time>2014-06-24T16:35:26Z</time>
      </trkpt>
      <trkpt lat="45.6939" lon="3.00087">
        <ele>938.3</ele>
        <time>2014-06-24T16:35:58Z</time>
      </trkpt>
      <trkpt lat="45.69355" lon="3.00174">
        <ele>943.9</ele>
        <time>2014-06-24T16:36:34Z</time>
      </trkpt>
      <trkpt lat="45.69336" lon="3.00254">
        <ele>949.8</ele>
        <time>2014-06-24T16:37:04Z</time>
      </trkpt>
      <trkpt lat="45.69331" lon="3.00287">
        <ele>953.4</ele>
        <time>2014-06-24T16:37:20Z</time>
      </trkpt>
      <trkpt lat="45.69318" lon="3.00321">
        <ele>956.7</ele>
        <time>2014-06-24T16:37:40Z</time>
      </trkpt>
      <trkpt lat="45.69282" lon="3.00394">
        <ele>962.6</ele>
        <time>2014-06-24T16:38:18Z</time>
      </trkpt>
      <trkpt lat="45.6919" lon="3.00488">
        <ele>966.7</ele>
        <time>2014-06-24T16:39:08Z</time>
      </trkpt>
      <trkpt lat="45.69127" lon="3.00535">
        <ele>966.8</ele>
        <time>2014-06-24T16:39:38Z</time>
      </trkpt>
      <trkpt lat="45.69096" lon="3.0055">
        <ele>969.8</ele>
        <time>2014-06-24T16:39:54Z</time>
      </trkpt>
      <trkpt lat="45.68975" lon="3.00534">
        <ele>977.3</ele>
        <time>2014-06-24T16:40:44Z</time>
      </trkpt>
      <trkpt lat="45.68885" lon="3.00551">
        <ele>981.7</ele>
        <time>2014-06-24T16:41:20Z</time>
      </trkpt>
      <trkpt lat="45.68753" lon="3.00618">
        <ele>983.2</ele>
        <time>2014-06-24T16:42:04Z</time>
      </trkpt>
      <trkpt lat="45.68647" lon="3.00692">
        <ele>979.2</ele>
        <time>2014-06-24T16:42:28Z</time>
      </trkpt>
      <trkpt lat="45.68649" lon="3.00723">
        <ele>979.7</ele>
        <time>2014-06-24T16:42:42Z</time>
      </trkpt>
      <trkpt lat="45.68636" lon="3.00752">
        <ele>983.6</ele>
        <time>2014-06-24T16:42:56Z</time>
      </trkpt>
      <trkpt lat="45.6862" lon="3.00828">
        <ele>988.8</ele>
        <time>2014-06-24T16:43:26Z</time>
      </trkpt>
      <trkpt lat="45.68615" lon="3.00883">
        <ele>991.9</ele>
        <time>2014-06-24T16:43:46Z</time>
      </trkpt>
      <trkpt lat="45.68607" lon="3.01002">
        <ele>995.7</ele>
        <time>2014-06-24T16:44:24Z</time>
      </trkpt>
      <trkpt lat="45.68552" lon="3.01035">
        <ele>995.9</ele>
        <time>2014-06-24T16:44:46Z</time>
      </trkpt>
      <trkpt lat="45.6851" lon="3.01187">
        <ele>995.1</ele>
        <time>2014-06-24T16:45:08Z</time>
      </trkpt>
      <trkpt lat="45.6848" lon="3.01336">
        <ele>992.7</ele>
        <time>2014-06-24T16:45:24Z</time>
      </trkpt>
      <trkpt lat="45.6845" lon="3.01519">
        <ele>988.8</ele>
        <time>2014-06-24T16:45:42Z</time>
      </trkpt>
      <trkpt lat="45.68444" lon="3.01577">
        <ele>987.7</ele>
        <time>2014-06-24T16:45:48Z</time>
      </trkpt>
      <trkpt lat="45.6842" lon="3.01725">
        <ele>982.4</ele>
        <time>2014-06-24T16:46:06Z</time>
      </trkpt>
      <trkpt lat="45.68412" lon="3.01861">
        <ele>978.9</ele>
        <time>2014-06-24T16:46:24Z</time>
      </trkpt>
      <trkpt lat="45.68413" lon="3.02035">
        <ele>971.3</ele>
        <time>2014-06-24T16:46:42Z</time>
      </trkpt>
      <trkpt lat="45.684" lon="3.02118">
        <ele>969.3</ele>
        <time>2014-06-24T16:46:50Z</time>
      </trkpt>
      <trkpt lat="45.68389" lon="3.02196">
        <ele>967.4</ele>
        <time>2014-06-24T16:47:00Z</time>
      </trkpt>
      <trkpt lat="45.68445" lon="3.02263">
        <ele>964.8</ele>
        <time>2014-06-24T16:47:16Z</time>
      </trkpt>
      <trkpt lat="45.68638" lon="3.0261">
        <ele>959.1</ele>
        <time>2014-06-24T16:48:00Z</time>
      </trkpt>
      <trkpt lat="45.6875" lon="3.02723">
        <ele>953.7</ele>
        <time>2014-06-24T16:48:16Z</time>
      </trkpt>
      <trkpt lat="45.68786" lon="3.02756">
        <ele>950.3</ele>
        <time>2014-06-24T16:48:22Z</time>
      </trkpt>
      <trkpt lat="45.68803" lon="3.02762">
        <ele>944.6</ele>
        <time>2014-06-24T16:49:42Z</time>
      </trkpt>
      <trkpt lat="45.68857" lon="3.02899">
        <ele>940.1</ele>
        <time>2014-06-24T16:49:58Z</time>
      </trkpt>
      <trkpt lat="45.68914" lon="3.02974">
        <ele>934.3</ele>
        <time>2014-06-24T16:50:06Z</time>
      </trkpt>
      <trkpt lat="45.68963" lon="3.02991">
        <ele>930.2</ele>
        <time>2014-06-24T16:50:12Z</time>
      </trkpt>
      <trkpt lat="45.68997" lon="3.03025">
        <ele>924.3</ele>
        <time>2014-06-24T16:50:22Z</time>
      </trkpt>
      <trkpt lat="45.69016" lon="3.03054">
        <ele>920.5</ele>
        <time>2014-06-24T16:50:28Z</time>
      </trkpt>
      <trkpt lat="45.69024" lon="3.03118">
        <ele>912.8</ele>
        <time>2014-06-24T16:50:38Z</time>
      </trkpt>
      <trkpt lat="45.69001" lon="3.03159">
        <ele>909.5</ele>
        <time>2014-06-24T16:50:44Z</time>
      </trkpt>
      <trkpt lat="45.68975" lon="3.03209">
        <ele>906.5</ele>
        <time>2014-06-24T16:50:52Z</time>
      </trkpt>
      <trkpt lat="45.68983" lon="3.03261">
        <ele>902.8</ele>
        <time>2014-06-24T16:51:02Z</time>
      </trkpt>
      <trkpt lat="45.69001" lon="3.03326">
        <ele>896.7</ele>
        <time>2014-06-24T16:51:14Z</time>
      </trkpt>
      <trkpt lat="45.69011" lon="3.03404">
        <ele>891.3</ele>
        <time>2014-06-24T16:51:34Z</time>
      </trkpt>
      <trkpt lat="45.68951" lon="3.03355">
        <ele>883.5</ele>
        <time>2014-06-24T16:51:50Z</time>
      </trkpt>
      <trkpt lat="45.68909" lon="3.03322">
        <ele>879.7</ele>
        <time>2014-06-24T16:51:56Z</time>
      </trkpt>
      <trkpt lat="45.68863" lon="3.0332">
        <ele>873.6</ele>
        <time>2014-06-24T16:52:04Z</time>
      </trkpt>
      <trkpt lat="45.68833" lon="3.03344">
        <ele>869.7</ele>
        <time>2014-06-24T16:52:10Z</time>
      </trkpt>
      <trkpt lat="45.68828" lon="3.03415">
        <ele>866</ele>
        <time>2014-06-24T16:52:16Z</time>
      </trkpt>
      <trkpt lat="45.68796" lon="3.0349">
        <ele>862.9</ele>
        <time>2014-06-24T16:52:22Z</time>
      </trkpt>
      <trkpt lat="45.68747" lon="3.03534">
        <ele>859.6</ele>
        <time>2014-06-24T16:52:28Z</time>
      </trkpt>
      <trkpt lat="45.68691" lon="3.03565">
        <ele>855.4</ele>
        <time>2014-06-24T16:52:34Z</time>
      </trkpt>
      <trkpt lat="45.68695" lon="3.03742">
        <ele>847.6</ele>
        <time>2014-06-24T16:52:46Z</time>
      </trkpt>
      <trkpt lat="45.6871" lon="3.03806">
        <ele>844.4</ele>
        <time>2014-06-24T16:52:50Z</time>
      </trkpt>
      <trkpt lat="45.68714" lon="3.03878">
        <ele>841.3</ele>
        <time>2014-06-24T16:52:54Z</time>
      </trkpt>
      <trkpt lat="45.6871" lon="3.03987">
        <ele>835.3</ele>
        <time>2014-06-24T16:53:00Z</time>
      </trkpt>
      <trkpt lat="45.68697" lon="3.04059">
        <ele>831.7</ele>
        <time>2014-06-24T16:53:04Z</time>
      </trkpt>
      <trkpt lat="45.68659" lon="3.04229">
        <ele>822.6</ele>
        <time>2014-06-24T16:53:14Z</time>
      </trkpt>
      <trkpt lat="45.68641" lon="3.04338">
        <ele>816</ele>
        <time>2014-06-24T16:53:20Z</time>
      </trkpt>
      <trkpt lat="45.68636" lon="3.04411">
        <ele>811.5</ele>
        <time>2014-06-24T16:53:24Z</time>
      </trkpt>
      <trkpt lat="45.68636" lon="3.04567">
        <ele>804.3</ele>
        <time>2014-06-24T16:53:32Z</time>
      </trkpt>
      <trkpt lat="45.68641" lon="3.04662">
        <ele>800.5</ele>
        <time>2014-06-24T16:53:38Z</time>
      </trkpt>
      <trkpt lat="45.68597" lon="3.0489">
        <ele>797.7</ele>
        <time>2014-06-24T16:53:58Z</time>
      </trkpt>
      <trkpt lat="45.68584" lon="3.04955">
        <ele>797</ele>
        <time>2014-06-24T16:54:04Z</time>
      </trkpt>
      <trkpt lat="45.68584" lon="3.0508">
        <ele>795.6</ele>
        <time>2014-06-24T16:54:14Z</time>
      </trkpt>
      <trkpt lat="45.68543" lon="3.0529">
        <ele>791.1</ele>
        <time>2014-06-24T16:54:30Z</time>
      </trkpt>
      <trkpt lat="45.68526" lon="3.05381">
        <ele>789</ele>
        <time>2014-06-24T16:54:38Z</time>
      </trkpt>
      <trkpt lat="45.68514" lon="3.05418">
        <ele>788.8</ele>
        <time>2014-06-24T16:54:42Z</time>
      </trkpt>
      <trkpt lat="45.68499" lon="3.05503">
        <ele>790.4</ele>
        <time>2014-06-24T16:54:52Z</time>
      </trkpt>
      <trkpt lat="45.68486" lon="3.05574">
        <ele>791.7</ele>
        <time>2014-06-24T16:55:00Z</time>
      </trkpt>
      <trkpt lat="45.68457" lon="3.05806">
        <ele>791.8</ele>
        <time>2014-06-24T16:55:26Z</time>
      </trkpt>
      <trkpt lat="45.68446" lon="3.05994">
        <ele>784.6</ele>
        <time>2014-06-24T16:55:40Z</time>
      </trkpt>
      <trkpt lat="45.68441" lon="3.0609">
        <ele>780.3</ele>
        <time>2014-06-24T16:55:48Z</time>
      </trkpt>
      <trkpt lat="45.68405" lon="3.06173">
        <ele>775.4</ele>
        <time>2014-06-24T16:56:26Z</time>
      </trkpt>
      <trkpt lat="45.68373" lon="3.06215">
        <ele>774.5</ele>
        <time>2014-06-24T17:02:00Z</time>
      </trkpt>
      <trkpt lat="45.68356" lon="3.063">
        <ele>769.9</ele>
        <time>2014-06-24T17:02:18Z</time>
      </trkpt>
      <trkpt lat="45.68344" lon="3.06305">
        <ele>757.8</ele>
        <time>2014-06-25T12:24:36Z</time>
      </trkpt>
      <trkpt lat="45.68353" lon="3.063">
        <ele>757.5</ele>
        <time>2014-06-25T12:24:48Z</time>
      </trkpt>
      <trkpt lat="45.68361" lon="3.06292">
        <ele>760</ele>
        <time>2014-06-25T12:25:38Z</time>
      </trkpt>
      <trkpt lat="45.68353" lon="3.06299">
        <ele>759.3</ele>
        <time>2014-06-25T12:25:53Z</time>
      </trkpt>
      <trkpt lat="45.68348" lon="3.06314">
        <ele>757.8</ele>
        <time>2014-06-25T12:26:43Z</time>
      </trkpt>
      <trkpt lat="45.68333" lon="3.06318">
        <ele>757.5</ele>
        <time>2014-06-25T12:27:35Z</time>
      </trkpt>
      <trkpt lat="45.68316" lon="3.06354">
        <ele>754.2</ele>
        <time>2014-06-25T12:33:48Z</time>
      </trkpt>
      <trkpt lat="45.68356" lon="3.06267">
        <ele>753.5</ele>
        <time>2014-06-25T12:33:51Z</time>
      </trkpt>
      <trkpt lat="45.68339" lon="3.06286">
        <ele>753</ele>
        <time>2014-06-25T12:33:57Z</time>
      </trkpt>
      <trkpt lat="45.68342" lon="3.06307">
        <ele>753.1</ele>
        <time>2014-06-25T12:34:16Z</time>
      </trkpt>
      <trkpt lat="45.68349" lon="3.06296">
        <ele>755.1</ele>
        <time>2014-06-25T12:45:03Z</time>
      </trkpt>
      <trkpt lat="45.6835" lon="3.06314">
        <ele>755</ele>
        <time>2014-06-25T13:00:39Z</time>
      </trkpt>
      <trkpt lat="45.68351" lon="3.06316">
        <ele>754.4</ele>
        <time>2014-06-25T13:16:08Z</time>
      </trkpt>
      <trkpt lat="45.6835" lon="3.06294">
        <ele>754.5</ele>
        <time>2014-06-25T13:26:10Z</time>
      </trkpt>
      <trkpt lat="45.68362" lon="3.06219">
        <ele>758.7</ele>
        <time>2014-06-25T13:26:42Z</time>
      </trkpt>
      <trkpt lat="45.68379" lon="3.06178">
        <ele>762.2</ele>
        <time>2014-06-25T13:27:09Z</time>
      </trkpt>
      <trkpt lat="45.68444" lon="3.06287">
        <ele>759.5</ele>
        <time>2014-06-25T13:28:19Z</time>
      </trkpt>
      <trkpt lat="45.68461" lon="3.06484">
        <ele>754.3</ele>
        <time>2014-06-25T13:28:37Z</time>
      </trkpt>
      <trkpt lat="45.68456" lon="3.06602">
        <ele>750.7</ele>
        <time>2014-06-25T13:28:47Z</time>
      </trkpt>
      <trkpt lat="45.68459" lon="3.06758">
        <ele>743</ele>
        <time>2014-06-25T13:29:03Z</time>
      </trkpt>
      <trkpt lat="45.68443" lon="3.06822">
        <ele>738.9</ele>
        <time>2014-06-25T13:29:13Z</time>
      </trkpt>
      <trkpt lat="45.6843" lon="3.06882">
        <ele>735.3</ele>
        <time>2014-06-25T13:29:25Z</time>
      </trkpt>
      <trkpt lat="45.68393" lon="3.06987">
        <ele>732.2</ele>
        <time>2014-06-25T13:29:47Z</time>
      </trkpt>
      <trkpt lat="45.68345" lon="3.06991">
        <ele>729.2</ele>
        <time>2014-06-25T13:30:07Z</time>
      </trkpt>
      <trkpt lat="45.68296" lon="3.06959">
        <ele>723.5</ele>
        <time>2014-06-25T13:30:27Z</time>
      </trkpt>
      <trkpt lat="45.68267" lon="3.0694">
        <ele>716.9</ele>
        <time>2014-06-25T13:30:45Z</time>
      </trkpt>
      <trkpt lat="45.68232" lon="3.06919">
        <ele>711.8</ele>
        <time>2014-06-25T13:31:03Z</time>
      </trkpt>
      <trkpt lat="45.68182" lon="3.06886">
        <ele>705.1</ele>
        <time>2014-06-25T13:31:23Z</time>
      </trkpt>
      <trkpt lat="45.68161" lon="3.06878">
        <ele>701.9</ele>
        <time>2014-06-25T13:31:31Z</time>
      </trkpt>
      <trkpt lat="45.6812" lon="3.06877">
        <ele>694.8</ele>
        <time>2014-06-25T13:31:47Z</time>
      </trkpt>
      <trkpt lat="45.68074" lon="3.06871">
        <ele>688.2</ele>
        <time>2014-06-25T13:32:03Z</time>
      </trkpt>
      <trkpt lat="45.68024" lon="3.06874">
        <ele>684.4</ele>
        <time>2014-06-25T13:32:15Z</time>
      </trkpt>
      <trkpt lat="45.67965" lon="3.0686">
        <ele>679</ele>
        <time>2014-06-25T13:32:27Z</time>
      </trkpt>
      <trkpt lat="45.67912" lon="3.06838">
        <ele>675.2</ele>
        <time>2014-06-25T13:32:39Z</time>
      </trkpt>
      <trkpt lat="45.67619" lon="3.06871">
        <ele>672.4</ele>
        <time>2014-06-25T13:33:43Z</time>
      </trkpt>
      <trkpt lat="45.67611" lon="3.06798">
        <ele>671.4</ele>
        <time>2014-06-25T13:33:57Z</time>
      </trkpt>
      <trkpt lat="45.67585" lon="3.06606">
        <ele>665.4</ele>
        <time>2014-06-25T13:34:17Z</time>
      </trkpt>
      <trkpt lat="45.67583" lon="3.06589">
        <ele>664</ele>
        <time>2014-06-25T13:34:19Z</time>
      </trkpt>
      <trkpt lat="45.67564" lon="3.06491">
        <ele>657.1</ele>
        <time>2014-06-25T13:34:31Z</time>
      </trkpt>
      <trkpt lat="45.67537" lon="3.06376">
        <ele>649.4</ele>
        <time>2014-06-25T13:34:49Z</time>
      </trkpt>
      <trkpt lat="45.67522" lon="3.06244">
        <ele>644</ele>
        <time>2014-06-25T13:35:03Z</time>
      </trkpt>
      <trkpt lat="45.67473" lon="3.06118">
        <ele>640.6</ele>
        <time>2014-06-25T13:35:23Z</time>
      </trkpt>
      <trkpt lat="45.67392" lon="3.06025">
        <ele>635.6</ele>
        <time>2014-06-25T13:35:43Z</time>
      </trkpt>
      <trkpt lat="45.67363" lon="3.05996">
        <ele>633.8</ele>
        <time>2014-06-25T13:35:53Z</time>
      </trkpt>
      <trkpt lat="45.67348" lon="3.05927">
        <ele>629.1</ele>
        <time>2014-06-25T13:36:05Z</time>
      </trkpt>
      <trkpt lat="45.67345" lon="3.05891">
        <ele>626.1</ele>
        <time>2014-06-25T13:36:13Z</time>
      </trkpt>
      <trkpt lat="45.67324" lon="3.05864">
        <ele>621.7</ele>
        <time>2014-06-25T13:36:27Z</time>
      </trkpt>
      <trkpt lat="45.67283" lon="3.05869">
        <ele>617.1</ele>
        <time>2014-06-25T13:36:39Z</time>
      </trkpt>
      <trkpt lat="45.67223" lon="3.05862">
        <ele>612</ele>
        <time>2014-06-25T13:36:51Z</time>
      </trkpt>
      <trkpt lat="45.67187" lon="3.05843">
        <ele>609.3</ele>
        <time>2014-06-25T13:37:03Z</time>
      </trkpt>
      <trkpt lat="45.67147" lon="3.05825">
        <ele>603.1</ele>
        <time>2014-06-25T13:37:17Z</time>
      </trkpt>
      <trkpt lat="45.67055" lon="3.05769">
        <ele>600.6</ele>
        <time>2014-06-25T13:37:41Z</time>
      </trkpt>
      <trkpt lat="45.67026" lon="3.05743">
        <ele>600.8</ele>
        <time>2014-06-25T13:37:49Z</time>
      </trkpt>
      <trkpt lat="45.6692" lon="3.05618">
        <ele>599.7</ele>
        <time>2014-06-25T13:38:29Z</time>
      </trkpt>
      <trkpt lat="45.66828" lon="3.05706">
        <ele>599.8</ele>
        <time>2014-06-25T13:38:53Z</time>
      </trkpt>
      <trkpt lat="45.66692" lon="3.05735">
        <ele>599.3</ele>
        <time>2014-06-25T13:39:29Z</time>
      </trkpt>
      <trkpt lat="45.66519" lon="3.05709">
        <ele>607.7</ele>
        <time>2014-06-25T13:40:19Z</time>
      </trkpt>
      <trkpt lat="45.66463" lon="3.05699">
        <ele>613</ele>
        <time>2014-06-25T13:40:41Z</time>
      </trkpt>
      <trkpt lat="45.66436" lon="3.05695">
        <ele>616</ele>
        <time>2014-06-25T13:40:53Z</time>
      </trkpt>
      <trkpt lat="45.66412" lon="3.05618">
        <ele>621.1</ele>
        <time>2014-06-25T13:41:29Z</time>
      </trkpt>
      <trkpt lat="45.66406" lon="3.05541">
        <ele>626.6</ele>
        <time>2014-06-25T13:41:57Z</time>
      </trkpt>
      <trkpt lat="45.6641" lon="3.05506">
        <ele>629.6</ele>
        <time>2014-06-25T13:42:13Z</time>
      </trkpt>
      <trkpt lat="45.66418" lon="3.0545">
        <ele>635.3</ele>
        <time>2014-06-25T13:42:39Z</time>
      </trkpt>
      <trkpt lat="45.66427" lon="3.05397">
        <ele>639.9</ele>
        <time>2014-06-25T13:43:03Z</time>
      </trkpt>
      <trkpt lat="45.66439" lon="3.05317">
        <ele>646.4</ele>
        <time>2014-06-25T13:43:39Z</time>
      </trkpt>
      <trkpt lat="45.66448" lon="3.05133">
        <ele>654.9</ele>
        <time>2014-06-25T13:44:43Z</time>
      </trkpt>
      <trkpt lat="45.66466" lon="3.04927">
        <ele>657.1</ele>
        <time>2014-06-25T13:45:23Z</time>
      </trkpt>
      <trkpt lat="45.6649" lon="3.04871">
        <ele>657.3</ele>
        <time>2014-06-25T13:45:35Z</time>
      </trkpt>
      <trkpt lat="45.66533" lon="3.04699">
        <ele>660.6</ele>
        <time>2014-06-25T13:46:19Z</time>
      </trkpt>
      <trkpt lat="45.66544" lon="3.04645">
        <ele>665.5</ele>
        <time>2014-06-25T13:46:41Z</time>
      </trkpt>
      <trkpt lat="45.66562" lon="3.04557">
        <ele>672</ele>
        <time>2014-06-25T13:47:17Z</time>
      </trkpt>
      <trkpt lat="45.66567" lon="3.04493">
        <ele>675.8</ele>
        <time>2014-06-25T13:47:41Z</time>
      </trkpt>
      <trkpt lat="45.66567" lon="3.04473">
        <ele>678.9</ele>
        <time>2014-06-25T13:47:53Z</time>
      </trkpt>
      <trkpt lat="45.66534" lon="3.044">
        <ele>684.6</ele>
        <time>2014-06-25T13:48:27Z</time>
      </trkpt>
      <trkpt lat="45.66503" lon="3.04306">
        <ele>691.7</ele>
        <time>2014-06-25T13:49:09Z</time>
      </trkpt>
      <trkpt lat="45.66526" lon="3.04134">
        <ele>700.9</ele>
        <time>2014-06-25T13:50:13Z</time>
      </trkpt>
      <trkpt lat="45.66545" lon="3.04068">
        <ele>706.8</ele>
        <time>2014-06-25T13:50:45Z</time>
      </trkpt>
      <trkpt lat="45.66545" lon="3.0402">
        <ele>713.5</ele>
        <time>2014-06-25T13:51:13Z</time>
      </trkpt>
      <trkpt lat="45.66531" lon="3.04008">
        <ele>716.4</ele>
        <time>2014-06-25T13:51:25Z</time>
      </trkpt>
      <trkpt lat="45.66503" lon="3.03982">
        <ele>719.9</ele>
        <time>2014-06-25T13:51:47Z</time>
      </trkpt>
      <trkpt lat="45.66458" lon="3.03941">
        <ele>725.8</ele>
        <time>2014-06-25T13:52:21Z</time>
      </trkpt>
      <trkpt lat="45.66443" lon="3.03899">
        <ele>729.2</ele>
        <time>2014-06-25T13:52:43Z</time>
      </trkpt>
      <trkpt lat="45.66465" lon="3.0384">
        <ele>733.2</ele>
        <time>2014-06-25T13:53:11Z</time>
      </trkpt>
      <trkpt lat="45.66474" lon="3.03772">
        <ele>732.6</ele>
        <time>2014-06-25T13:53:29Z</time>
      </trkpt>
      <trkpt lat="45.66434" lon="3.0367">
        <ele>733</ele>
        <time>2014-06-25T13:53:55Z</time>
      </trkpt>
      <trkpt lat="45.66444" lon="3.03627">
        <ele>735</ele>
        <time>2014-06-25T13:54:11Z</time>
      </trkpt>
      <trkpt lat="45.66459" lon="3.03562">
        <ele>743.2</ele>
        <time>2014-06-25T13:54:39Z</time>
      </trkpt>
      <trkpt lat="45.66488" lon="3.03469">
        <ele>749.6</ele>
        <time>2014-06-25T13:55:19Z</time>
      </trkpt>
      <trkpt lat="45.66499" lon="3.03412">
        <ele>753</ele>
        <time>2014-06-25T13:55:41Z</time>
      </trkpt>
      <trkpt lat="45.66523" lon="3.03331">
        <ele>758.9</ele>
        <time>2014-06-25T13:56:19Z</time>
      </trkpt>
      <trkpt lat="45.6656" lon="3.03205">
        <ele>764.7</ele>
        <time>2014-06-25T13:57:11Z</time>
      </trkpt>
      <trkpt lat="45.66604" lon="3.02986">
        <ele>773.3</ele>
        <time>2014-06-25T13:58:23Z</time>
      </trkpt>
      <trkpt lat="45.66627" lon="3.02932">
        <ele>775.8</ele>
        <time>2014-06-25T13:58:45Z</time>
      </trkpt>
      <trkpt lat="45.6665" lon="3.02916">
        <ele>779.3</ele>
        <time>2014-06-25T13:59:01Z</time>
      </trkpt>
      <trkpt lat="45.6666" lon="3.02795">
        <ele>781.7</ele>
        <time>2014-06-25T13:59:35Z</time>
      </trkpt>
      <trkpt lat="45.66669" lon="3.02693">
        <ele>774.8</ele>
        <time>2014-06-25T13:59:53Z</time>
      </trkpt>
      <trkpt lat="45.66651" lon="3.02612">
        <ele>765.9</ele>
        <time>2014-06-25T14:00:11Z</time>
      </trkpt>
      <trkpt lat="45.66634" lon="3.02565">
        <ele>762.7</ele>
        <time>2014-06-25T14:00:19Z</time>
      </trkpt>
      <trkpt lat="45.66593" lon="3.02506">
        <ele>758.5</ele>
        <time>2014-06-25T14:00:33Z</time>
      </trkpt>
      <trkpt lat="45.66548" lon="3.02415">
        <ele>759</ele>
        <time>2014-06-25T14:00:57Z</time>
      </trkpt>
      <trkpt lat="45.66586" lon="3.02415">
        <ele>765</ele>
        <time>2014-06-25T14:01:23Z</time>
      </trkpt>
      <trkpt lat="45.66667" lon="3.02461">
        <ele>768.6</ele>
        <time>2014-06-25T14:01:59Z</time>
      </trkpt>
      <trkpt lat="45.6671" lon="3.02487">
        <ele>771.6</ele>
        <time>2014-06-25T14:02:19Z</time>
      </trkpt>
      <trkpt lat="45.66742" lon="3.02513">
        <ele>774.6</ele>
        <time>2014-06-25T14:02:35Z</time>
      </trkpt>
      <trkpt lat="45.66798" lon="3.02547">
        <ele>781</ele>
        <time>2014-06-25T14:03:09Z</time>
      </trkpt>
      <trkpt lat="45.6683" lon="3.02577">
        <ele>785.8</ele>
        <time>2014-06-25T14:03:33Z</time>
      </trkpt>
      <trkpt lat="45.66896" lon="3.02608">
        <ele>791.7</ele>
        <time>2014-06-25T14:04:13Z</time>
      </trkpt>
      <trkpt lat="45.66941" lon="3.02607">
        <ele>794.3</ele>
        <time>2014-06-25T14:04:35Z</time>
      </trkpt>
      <trkpt lat="45.67013" lon="3.02512">
        <ele>800.7</ele>
        <time>2014-06-25T14:05:21Z</time>
      </trkpt>
      <trkpt lat="45.6705" lon="3.02407">
        <ele>804.7</ele>
        <time>2014-06-25T14:06:01Z</time>
      </trkpt>
      <trkpt lat="45.67065" lon="3.02331">
        <ele>805.1</ele>
        <time>2014-06-25T14:06:17Z</time>
      </trkpt>
      <trkpt lat="45.67111" lon="3.02104">
        <ele>806.1</ele>
        <time>2014-06-25T14:06:57Z</time>
      </trkpt>
      <trkpt lat="45.67126" lon="3.0203">
        <ele>810</ele>
        <time>2014-06-25T14:07:15Z</time>
      </trkpt>
      <trkpt lat="45.67172" lon="3.01875">
        <ele>815.5</ele>
        <time>2014-06-25T14:07:53Z</time>
      </trkpt>
      <trkpt lat="45.67154" lon="3.01735">
        <ele>819.2</ele>
        <time>2014-06-25T14:08:25Z</time>
      </trkpt>
      <trkpt lat="45.6716" lon="3.01702">
        <ele>819.2</ele>
        <time>2014-06-25T14:08:31Z</time>
      </trkpt>
      <trkpt lat="45.67201" lon="3.01516">
        <ele>818.4</ele>
        <time>2014-06-25T14:09:09Z</time>
      </trkpt>
      <trkpt lat="45.67218" lon="3.01434">
        <ele>815.4</ele>
        <time>2014-06-25T14:09:19Z</time>
      </trkpt>
      <trkpt lat="45.67257" lon="3.01346">
        <ele>810.9</ele>
        <time>2014-06-25T14:09:31Z</time>
      </trkpt>
      <trkpt lat="45.67267" lon="3.01204">
        <ele>805.8</ele>
        <time>2014-06-25T14:09:47Z</time>
      </trkpt>
      <trkpt lat="45.67255" lon="3.01035">
        <ele>802.8</ele>
        <time>2014-06-25T14:10:13Z</time>
      </trkpt>
      <trkpt lat="45.67236" lon="3.00841">
        <ele>804.5</ele>
        <time>2014-06-25T14:10:43Z</time>
      </trkpt>
      <trkpt lat="45.67284" lon="3.00664">
        <ele>807.1</ele>
        <time>2014-06-25T14:11:13Z</time>
      </trkpt>
      <trkpt lat="45.67255" lon="3.00605">
        <ele>808.1</ele>
        <time>2014-06-25T14:11:29Z</time>
      </trkpt>
      <trkpt lat="45.67137" lon="3.0056">
        <ele>808</ele>
        <time>2014-06-25T14:11:53Z</time>
      </trkpt>
      <trkpt lat="45.67014" lon="3.00483">
        <ele>807.8</ele>
        <time>2014-06-25T14:12:23Z</time>
      </trkpt>
      <trkpt lat="45.66917" lon="3.00403">
        <ele>808.1</ele>
        <time>2014-06-25T14:12:49Z</time>
      </trkpt>
      <trkpt lat="45.66922" lon="3.00336">
        <ele>809.5</ele>
        <time>2014-06-25T14:13:01Z</time>
      </trkpt>
      <trkpt lat="45.66927" lon="3.00285">
        <ele>810.6</ele>
        <time>2014-06-25T14:13:09Z</time>
      </trkpt>
      <trkpt lat="45.66877" lon="3.00209">
        <ele>812</ele>
        <time>2014-06-25T14:13:27Z</time>
      </trkpt>
      <trkpt lat="45.66819" lon="3.00079">
        <ele>813.9</ele>
        <time>2014-06-25T14:13:51Z</time>
      </trkpt>
      <trkpt lat="45.66722" lon="3.0005">
        <ele>819.5</ele>
        <time>2014-06-25T14:14:21Z</time>
      </trkpt>
      <trkpt lat="45.66674" lon="3.00082">
        <ele>819</ele>
        <time>2014-06-25T14:14:31Z</time>
      </trkpt>
      <trkpt lat="45.66614" lon="3.00179">
        <ele>819.3</ele>
        <time>2014-06-25T14:14:53Z</time>
      </trkpt>
      <trkpt lat="45.66583" lon="3.00223">
        <ele>824.2</ele>
        <time>2014-06-25T14:15:15Z</time>
      </trkpt>
      <trkpt lat="45.66559" lon="3.0027">
        <ele>827.2</ele>
        <time>2014-06-25T14:15:29Z</time>
      </trkpt>
      <trkpt lat="45.6653" lon="3.00202">
        <ele>834</ele>
        <time>2014-06-25T14:15:59Z</time>
      </trkpt>
      <trkpt lat="45.66524" lon="3.00088">
        <ele>838.7</ele>
        <time>2014-06-25T14:16:35Z</time>
      </trkpt>
      <trkpt lat="45.66507" lon="3.00054">
        <ele>842.9</ele>
        <time>2014-06-25T14:16:55Z</time>
      </trkpt>
      <trkpt lat="45.66509" lon="3.00053">
        <ele>846.9</ele>
        <time>2014-06-25T14:17:13Z</time>
      </trkpt>
      <trkpt lat="45.6647" lon="3.00117">
        <ele>855.5</ele>
        <time>2014-06-25T14:17:57Z</time>
      </trkpt>
      <trkpt lat="45.66468" lon="3.00143">
        <ele>858.7</ele>
        <time>2014-06-25T14:18:13Z</time>
      </trkpt>
      <trkpt lat="45.66455" lon="3.00168">
        <ele>866.1</ele>
        <time>2014-06-25T14:18:49Z</time>
      </trkpt>
      <trkpt lat="45.6643" lon="3.00123">
        <ele>870.7</ele>
        <time>2014-06-25T14:19:15Z</time>
      </trkpt>
      <trkpt lat="45.66418" lon="3.00076">
        <ele>874</ele>
        <time>2014-06-25T14:19:43Z</time>
      </trkpt>
      <trkpt lat="45.66397" lon="2.99947">
        <ele>872.2</ele>
        <time>2014-06-25T14:20:37Z</time>
      </trkpt>
      <trkpt lat="45.66444" lon="2.99855">
        <ele>878.8</ele>
        <time>2014-06-25T14:21:19Z</time>
      </trkpt>
      <trkpt lat="45.66439" lon="2.99843">
        <ele>884.5</ele>
        <time>2014-06-25T14:21:39Z</time>
      </trkpt>
      <trkpt lat="45.66397" lon="2.99818">
        <ele>891.2</ele>
        <time>2014-06-25T14:22:19Z</time>
      </trkpt>
      <trkpt lat="45.66367" lon="2.9978">
        <ele>897.4</ele>
        <time>2014-06-25T14:22:50Z</time>
      </trkpt>
      <trkpt lat="45.6636" lon="2.99758">
        <ele>900.9</ele>
        <time>2014-06-25T14:23:04Z</time>
      </trkpt>
      <trkpt lat="45.6637" lon="2.99667">
        <ele>906.2</ele>
        <time>2014-06-25T14:23:52Z</time>
      </trkpt>
      <trkpt lat="45.66377" lon="2.99625">
        <ele>908.4</ele>
        <time>2014-06-25T14:26:58Z</time>
      </trkpt>
      <trkpt lat="45.66365" lon="2.99597">
        <ele>908.3</ele>
        <time>2014-06-25T14:27:19Z</time>
      </trkpt>
      <trkpt lat="45.66318" lon="2.99616">
        <ele>911.2</ele>
        <time>2014-06-25T14:27:41Z</time>
      </trkpt>
      <trkpt lat="45.6626" lon="2.9965">
        <ele>917</ele>
        <time>2014-06-25T14:28:09Z</time>
      </trkpt>
      <trkpt lat="45.66128" lon="2.99656">
        <ele>925.9</ele>
        <time>2014-06-25T14:29:13Z</time>
      </trkpt>
      <trkpt lat="45.66101" lon="2.99664">
        <ele>929.1</ele>
        <time>2014-06-25T14:29:29Z</time>
      </trkpt>
      <trkpt lat="45.66046" lon="2.99696">
        <ele>934.2</ele>
        <time>2014-06-25T14:30:05Z</time>
      </trkpt>
      <trkpt lat="45.65961" lon="2.99748">
        <ele>935.6</ele>
        <time>2014-06-25T14:30:37Z</time>
      </trkpt>
      <trkpt lat="45.65885" lon="2.99728">
        <ele>934.4</ele>
        <time>2014-06-25T14:31:07Z</time>
      </trkpt>
      <trkpt lat="45.65802" lon="2.99702">
        <ele>922.9</ele>
        <time>2014-06-25T14:31:47Z</time>
      </trkpt>
      <trkpt lat="45.65781" lon="2.99695">
        <ele>918.8</ele>
        <time>2014-06-25T14:32:07Z</time>
      </trkpt>
      <trkpt lat="45.65762" lon="2.99689">
        <ele>915.8</ele>
        <time>2014-06-25T14:32:25Z</time>
      </trkpt>
      <trkpt lat="45.65675" lon="2.9968">
        <ele>920.1</ele>
        <time>2014-06-25T14:33:17Z</time>
      </trkpt>
      <trkpt lat="45.65662" lon="2.99666">
        <ele>919.5</ele>
        <time>2014-06-25T14:33:27Z</time>
      </trkpt>
      <trkpt lat="45.65636" lon="2.9962">
        <ele>915.8</ele>
        <time>2014-06-25T14:33:43Z</time>
      </trkpt>
      <trkpt lat="45.65604" lon="2.99506">
        <ele>911.9</ele>
        <time>2014-06-25T14:34:05Z</time>
      </trkpt>
      <trkpt lat="45.65576" lon="2.99395">
        <ele>909.5</ele>
        <time>2014-06-25T14:34:23Z</time>
      </trkpt>
      <trkpt lat="45.65554" lon="2.9935">
        <ele>909.7</ele>
        <time>2014-06-25T14:34:31Z</time>
      </trkpt>
      <trkpt lat="45.65471" lon="2.99184">
        <ele>906.2</ele>
        <time>2014-06-25T14:35:01Z</time>
      </trkpt>
      <trkpt lat="45.65443" lon="2.99144">
        <ele>903.2</ele>
        <time>2014-06-25T14:35:09Z</time>
      </trkpt>
      <trkpt lat="45.65382" lon="2.991">
        <ele>896.2</ele>
        <time>2014-06-25T14:35:19Z</time>
      </trkpt>
      <trkpt lat="45.65329" lon="2.99035">
        <ele>888.1</ele>
        <time>2014-06-25T14:35:31Z</time>
      </trkpt>
      <trkpt lat="45.6532" lon="2.9897">
        <ele>885.2</ele>
        <time>2014-06-25T14:35:45Z</time>
      </trkpt>
      <trkpt lat="45.65296" lon="2.98914">
        <ele>888</ele>
        <time>2014-06-25T14:36:01Z</time>
      </trkpt>
      <trkpt lat="45.65288" lon="2.98892">
        <ele>891.3</ele>
        <time>2014-06-25T14:36:11Z</time>
      </trkpt>
      <trkpt lat="45.65277" lon="2.98783">
        <ele>895.2</ele>
        <time>2014-06-25T14:36:39Z</time>
      </trkpt>
      <trkpt lat="45.65345" lon="2.98687">
        <ele>903.4</ele>
        <time>2014-06-25T14:37:25Z</time>
      </trkpt>
      <trkpt lat="45.65352" lon="2.98574">
        <ele>907.2</ele>
        <time>2014-06-25T14:37:57Z</time>
      </trkpt>
      <trkpt lat="45.65374" lon="2.98533">
        <ele>909.4</ele>
        <time>2014-06-25T14:39:21Z</time>
      </trkpt>
      <trkpt lat="45.65373" lon="2.98513">
        <ele>909.5</ele>
        <time>2014-06-25T14:39:27Z</time>
      </trkpt>
      <trkpt lat="45.65411" lon="2.98324">
        <ele>911.2</ele>
        <time>2014-06-25T14:40:05Z</time>
      </trkpt>
      <trkpt lat="45.65447" lon="2.98269">
        <ele>913</ele>
        <time>2014-06-25T14:41:45Z</time>
      </trkpt>
      <trkpt lat="45.65511" lon="2.98216">
        <ele>913</ele>
        <time>2014-06-25T14:42:09Z</time>
      </trkpt>
      <trkpt lat="45.65599" lon="2.98158">
        <ele>918.8</ele>
        <time>2014-06-25T14:42:37Z</time>
      </trkpt>
      <trkpt lat="45.65734" lon="2.98173">
        <ele>913</ele>
        <time>2014-06-25T14:43:15Z</time>
      </trkpt>
      <trkpt lat="45.6576" lon="2.98212">
        <ele>908.7</ele>
        <time>2014-06-25T14:43:21Z</time>
      </trkpt>
      <trkpt lat="45.65804" lon="2.98255">
        <ele>901.8</ele>
        <time>2014-06-25T14:43:31Z</time>
      </trkpt>
      <trkpt lat="45.65827" lon="2.98303">
        <ele>896.1</ele>
        <time>2014-06-25T14:43:37Z</time>
      </trkpt>
      <trkpt lat="45.65854" lon="2.98318">
        <ele>889.2</ele>
        <time>2014-06-25T14:43:45Z</time>
      </trkpt>
      <trkpt lat="45.65898" lon="2.98292">
        <ele>882.6</ele>
        <time>2014-06-25T14:43:51Z</time>
      </trkpt>
      <trkpt lat="45.65947" lon="2.98271">
        <ele>876.7</ele>
        <time>2014-06-25T14:43:57Z</time>
      </trkpt>
      <trkpt lat="45.65979" lon="2.98276">
        <ele>867.7</ele>
        <time>2014-06-25T14:44:27Z</time>
      </trkpt>
      <trkpt lat="45.65984" lon="2.98264">
        <ele>867.4</ele>
        <time>2014-06-25T14:44:31Z</time>
      </trkpt>
      <trkpt lat="45.66015" lon="2.98084">
        <ele>863.2</ele>
        <time>2014-06-25T14:44:57Z</time>
      </trkpt>
      <trkpt lat="45.6602" lon="2.98014">
        <ele>860</ele>
        <time>2014-06-25T14:45:05Z</time>
      </trkpt>
      <trkpt lat="45.65992" lon="2.9793">
        <ele>856.2</ele>
        <time>2014-06-25T14:45:15Z</time>
      </trkpt>
      <trkpt lat="45.6598" lon="2.97856">
        <ele>854.3</ele>
        <time>2014-06-25T14:45:23Z</time>
      </trkpt>
      <trkpt lat="45.65956" lon="2.97709">
        <ele>850.7</ele>
        <time>2014-06-25T14:45:41Z</time>
      </trkpt>
      <trkpt lat="45.6597" lon="2.97491">
        <ele>845.3</ele>
        <time>2014-06-25T14:46:09Z</time>
      </trkpt>
      <trkpt lat="45.65981" lon="2.97418">
        <ele>839.8</ele>
        <time>2014-06-25T14:46:21Z</time>
      </trkpt>
      <trkpt lat="45.66" lon="2.97322">
        <ele>839.7</ele>
        <time>2014-06-25T14:46:41Z</time>
      </trkpt>
      <trkpt lat="45.66019" lon="2.97261">
        <ele>841.6</ele>
        <time>2014-06-25T14:46:55Z</time>
      </trkpt>
      <trkpt lat="45.66108" lon="2.973">
        <ele>845.1</ele>
        <time>2014-06-25T14:47:23Z</time>
      </trkpt>
      <trkpt lat="45.66194" lon="2.97353">
        <ele>850.4</ele>
        <time>2014-06-25T14:47:57Z</time>
      </trkpt>
      <trkpt lat="45.66192" lon="2.97291">
        <ele>854.7</ele>
        <time>2014-06-25T14:48:17Z</time>
      </trkpt>
      <trkpt lat="45.66154" lon="2.9724">
        <ele>858.2</ele>
        <time>2014-06-25T14:48:37Z</time>
      </trkpt>
      <trkpt lat="45.66186" lon="2.97268">
        <ele>862.7</ele>
        <time>2014-06-25T14:48:59Z</time>
      </trkpt>
      <trkpt lat="45.66203" lon="2.97295">
        <ele>866</ele>
        <time>2014-06-25T14:49:23Z</time>
      </trkpt>
      <trkpt lat="45.66231" lon="2.97293">
        <ele>873.6</ele>
        <time>2014-06-25T14:50:13Z</time>
      </trkpt>
      <trkpt lat="45.66231" lon="2.97175">
        <ele>883.6</ele>
        <time>2014-06-25T14:51:11Z</time>
      </trkpt>
      <trkpt lat="45.66256" lon="2.97112">
        <ele>888.7</ele>
        <time>2014-06-25T14:51:43Z</time>
      </trkpt>
      <trkpt lat="45.66295" lon="2.97022">
        <ele>894.7</ele>
        <time>2014-06-25T14:52:21Z</time>
      </trkpt>
      <trkpt lat="45.6633" lon="2.97082">
        <ele>895.1</ele>
        <time>2014-06-25T14:52:47Z</time>
      </trkpt>
      <trkpt lat="45.66403" lon="2.9728">
        <ele>890.2</ele>
        <time>2014-06-25T14:53:23Z</time>
      </trkpt>
      <trkpt lat="45.66555" lon="2.97387">
        <ele>889.2</ele>
        <time>2014-06-25T14:53:53Z</time>
      </trkpt>
      <trkpt lat="45.66709" lon="2.97484">
        <ele>891.4</ele>
        <time>2014-06-25T14:54:27Z</time>
      </trkpt>
      <trkpt lat="45.66738" lon="2.97482">
        <ele>891.3</ele>
        <time>2014-06-25T14:54:33Z</time>
      </trkpt>
      <trkpt lat="45.66835" lon="2.97442">
        <ele>889.3</ele>
        <time>2014-06-25T14:55:03Z</time>
      </trkpt>
      <trkpt lat="45.66906" lon="2.97492">
        <ele>892.4</ele>
        <time>2014-06-25T14:55:27Z</time>
      </trkpt>
      <trkpt lat="45.66962" lon="2.97464">
        <ele>895.1</ele>
        <time>2014-06-25T14:55:51Z</time>
      </trkpt>
      <trkpt lat="45.66952" lon="2.97389">
        <ele>899</ele>
        <time>2014-06-25T14:56:13Z</time>
      </trkpt>
      <trkpt lat="45.66945" lon="2.97321">
        <ele>902.3</ele>
        <time>2014-06-25T14:56:35Z</time>
      </trkpt>
      <trkpt lat="45.66942" lon="2.97265">
        <ele>907.4</ele>
        <time>2014-06-25T14:56:59Z</time>
      </trkpt>
      <trkpt lat="45.66939" lon="2.97167">
        <ele>913.3</ele>
        <time>2014-06-25T14:57:35Z</time>
      </trkpt>
      <trkpt lat="45.66965" lon="2.97078">
        <ele>917</ele>
        <time>2014-06-25T14:58:17Z</time>
      </trkpt>
      <trkpt lat="45.66994" lon="2.96946">
        <ele>922.3</ele>
        <time>2014-06-25T14:58:55Z</time>
      </trkpt>
      <trkpt lat="45.67055" lon="2.96788">
        <ele>930</ele>
        <time>2014-06-25T14:59:51Z</time>
      </trkpt>
      <trkpt lat="45.67058" lon="2.96785">
        <ele>930.2</ele>
        <time>2014-06-25T14:59:53Z</time>
      </trkpt>
      <trkpt lat="45.67141" lon="2.96797">
        <ele>930.6</ele>
        <time>2014-06-25T15:00:19Z</time>
      </trkpt>
      <trkpt lat="45.67274" lon="2.96774">
        <ele>930.6</ele>
        <time>2014-06-25T15:00:53Z</time>
      </trkpt>
      <trkpt lat="45.67487" lon="2.96792">
        <ele>934.6</ele>
        <time>2014-06-25T15:01:47Z</time>
      </trkpt>
      <trkpt lat="45.67585" lon="2.96814">
        <ele>939.8</ele>
        <time>2014-06-25T15:02:17Z</time>
      </trkpt>
      <trkpt lat="45.67757" lon="2.96854">
        <ele>943.5</ele>
        <time>2014-06-25T15:03:07Z</time>
      </trkpt>
      <trkpt lat="45.67899" lon="2.96834">
        <ele>943.6</ele>
        <time>2014-06-25T15:03:39Z</time>
      </trkpt>
      <trkpt lat="45.68001" lon="2.96766">
        <ele>940.9</ele>
        <time>2014-06-25T15:04:11Z</time>
      </trkpt>
      <trkpt lat="45.68024" lon="2.96727">
        <ele>947.2</ele>
        <time>2014-06-25T15:04:31Z</time>
      </trkpt>
      <trkpt lat="45.68101" lon="2.96675">
        <ele>951.4</ele>
        <time>2014-06-25T15:05:01Z</time>
      </trkpt>
      <trkpt lat="45.68192" lon="2.96634">
        <ele>950.7</ele>
        <time>2014-06-25T15:05:53Z</time>
      </trkpt>
      <trkpt lat="45.68237" lon="2.96636">
        <ele>952.9</ele>
        <time>2014-06-25T15:07:19Z</time>
      </trkpt>
      <trkpt lat="45.68234" lon="2.96623">
        <ele>952.8</ele>
        <time>2014-06-25T15:07:27Z</time>
      </trkpt>
      <trkpt lat="45.68256" lon="2.96536">
        <ele>949.5</ele>
        <time>2014-06-25T15:07:44Z</time>
      </trkpt>
      <trkpt lat="45.68265" lon="2.96517">
        <ele>945.9</ele>
        <time>2014-06-25T15:07:54Z</time>
      </trkpt>
      <trkpt lat="45.68265" lon="2.96525">
        <ele>945.2</ele>
        <time>2014-06-25T15:08:04Z</time>
      </trkpt>
      <trkpt lat="45.68256" lon="2.96606">
        <ele>952.8</ele>
        <time>2014-06-25T15:09:03Z</time>
      </trkpt>
      <trkpt lat="45.68323" lon="2.966">
        <ele>958.6</ele>
        <time>2014-06-25T15:09:43Z</time>
      </trkpt>
      <trkpt lat="45.68352" lon="2.96559">
        <ele>966.8</ele>
        <time>2014-06-25T15:10:23Z</time>
      </trkpt>
      <trkpt lat="45.68402" lon="2.96501">
        <ele>975.2</ele>
        <time>2014-06-25T15:11:01Z</time>
      </trkpt>
      <trkpt lat="45.68434" lon="2.96483">
        <ele>981.2</ele>
        <time>2014-06-25T15:11:31Z</time>
      </trkpt>
      <trkpt lat="45.68486" lon="2.96505">
        <ele>989.6</ele>
        <time>2014-06-25T15:12:23Z</time>
      </trkpt>
      <trkpt lat="45.68508" lon="2.9652">
        <ele>992.6</ele>
        <time>2014-06-25T15:12:41Z</time>
      </trkpt>
      <trkpt lat="45.68545" lon="2.96534">
        <ele>998.7</ele>
        <time>2014-06-25T15:13:13Z</time>
      </trkpt>
      <trkpt lat="45.68605" lon="2.96531">
        <ele>1006.6</ele>
        <time>2014-06-25T15:13:57Z</time>
      </trkpt>
      <trkpt lat="45.68632" lon="2.96528">
        <ele>1010</ele>
        <time>2014-06-25T15:14:17Z</time>
      </trkpt>
      <trkpt lat="45.68668" lon="2.96513">
        <ele>1015.9</ele>
        <time>2014-06-25T15:14:49Z</time>
      </trkpt>
      <trkpt lat="45.68704" lon="2.96489">
        <ele>1018.9</ele>
        <time>2014-06-25T15:15:15Z</time>
      </trkpt>
      <trkpt lat="45.68748" lon="2.96386">
        <ele>1013.7</ele>
        <time>2014-06-25T15:15:41Z</time>
      </trkpt>
      <trkpt lat="45.68766" lon="2.96342">
        <ele>1012</ele>
        <time>2014-06-25T15:15:49Z</time>
      </trkpt>
      <trkpt lat="45.688" lon="2.96244">
        <ele>1015.5</ele>
        <time>2014-06-25T15:16:35Z</time>
      </trkpt>
      <trkpt lat="45.68814" lon="2.96157">
        <ele>1009.8</ele>
        <time>2014-06-25T15:16:57Z</time>
      </trkpt>
      <trkpt lat="45.6883" lon="2.96062">
        <ele>1004.3</ele>
        <time>2014-06-25T15:17:09Z</time>
      </trkpt>
      <trkpt lat="45.68781" lon="2.95932">
        <ele>998.1</ele>
        <time>2014-06-25T15:17:25Z</time>
      </trkpt>
      <trkpt lat="45.68738" lon="2.95856">
        <ele>992.6</ele>
        <time>2014-06-25T15:17:37Z</time>
      </trkpt>
      <trkpt lat="45.68686" lon="2.95825">
        <ele>988.7</ele>
        <time>2014-06-25T15:17:45Z</time>
      </trkpt>
      <trkpt lat="45.68624" lon="2.95731">
        <ele>980.9</ele>
        <time>2014-06-25T15:18:03Z</time>
      </trkpt>
      <trkpt lat="45.68602" lon="2.95691">
        <ele>973.7</ele>
        <time>2014-06-25T15:18:13Z</time>
      </trkpt>
      <trkpt lat="45.68574" lon="2.95636">
        <ele>963</ele>
        <time>2014-06-25T15:18:27Z</time>
      </trkpt>
      <trkpt lat="45.68567" lon="2.95586">
        <ele>956</ele>
        <time>2014-06-25T15:18:37Z</time>
      </trkpt>
      <trkpt lat="45.68545" lon="2.95546">
        <ele>951.9</ele>
        <time>2014-06-25T15:18:45Z</time>
      </trkpt>
      <trkpt lat="45.68506" lon="2.95498">
        <ele>949.6</ele>
        <time>2014-06-25T15:19:19Z</time>
      </trkpt>
      <trkpt lat="45.6855" lon="2.95423">
        <ele>944.7</ele>
        <time>2014-06-25T15:19:47Z</time>
      </trkpt>
      <trkpt lat="45.68607" lon="2.95435">
        <ele>938.7</ele>
        <time>2014-06-25T15:20:05Z</time>
      </trkpt>
      <trkpt lat="45.68644" lon="2.95406">
        <ele>936.8</ele>
        <time>2014-06-25T15:20:25Z</time>
      </trkpt>
      <trkpt lat="45.68658" lon="2.95248">
        <ele>935.7</ele>
        <time>2014-06-25T15:20:55Z</time>
      </trkpt>
      <trkpt lat="45.68675" lon="2.95208">
        <ele>935.5</ele>
        <time>2014-06-25T15:21:03Z</time>
      </trkpt>
      <trkpt lat="45.68773" lon="2.95135">
        <ele>938.6</ele>
        <time>2014-06-25T15:21:37Z</time>
      </trkpt>
      <trkpt lat="45.68907" lon="2.95111">
        <ele>941.2</ele>
        <time>2014-06-25T15:22:13Z</time>
      </trkpt>
      <trkpt lat="45.69052" lon="2.95109">
        <ele>942.3</ele>
        <time>2014-06-25T15:22:47Z</time>
      </trkpt>
      <trkpt lat="45.69178" lon="2.95117">
        <ele>945.2</ele>
        <time>2014-06-25T15:23:19Z</time>
      </trkpt>
      <trkpt lat="45.69255" lon="2.95125">
        <ele>949.6</ele>
        <time>2014-06-25T15:23:51Z</time>
      </trkpt>
      <trkpt lat="45.69362" lon="2.95218">
        <ele>952.9</ele>
        <time>2014-06-25T15:24:29Z</time>
      </trkpt>
      <trkpt lat="45.69419" lon="2.95297">
        <ele>952.5</ele>
        <time>2014-06-25T15:24:45Z</time>
      </trkpt>
      <trkpt lat="45.69572" lon="2.95498">
        <ele>955.7</ele>
        <time>2014-06-25T15:25:31Z</time>
      </trkpt>
      <trkpt lat="45.69669" lon="2.95705">
        <ele>962.6</ele>
        <time>2014-06-25T15:26:17Z</time>
      </trkpt>
      <trkpt lat="45.69673" lon="2.95738">
        <ele>963.2</ele>
        <time>2014-06-25T15:26:23Z</time>
      </trkpt>
      <trkpt lat="45.69773" lon="2.95952">
        <ele>960.1</ele>
        <time>2014-06-25T15:26:51Z</time>
      </trkpt>
      <trkpt lat="45.69811" lon="2.96096">
        <ele>955.7</ele>
        <time>2014-06-25T15:27:07Z</time>
      </trkpt>
      <trkpt lat="45.69793" lon="2.96276">
        <ele>954.7</ele>
        <time>2014-06-25T15:27:25Z</time>
      </trkpt>
      <trkpt lat="45.69828" lon="2.96398">
        <ele>956.6</ele>
        <time>2014-06-25T15:27:43Z</time>
      </trkpt>
      <trkpt lat="45.69878" lon="2.96459">
        <ele>961</ele>
        <time>2014-06-25T15:28:05Z</time>
      </trkpt>
      <trkpt lat="45.69968" lon="2.96533">
        <ele>967.3</ele>
        <time>2014-06-25T15:28:39Z</time>
      </trkpt>
      <trkpt lat="45.70032" lon="2.96586">
        <ele>969.8</ele>
        <time>2014-06-25T15:28:59Z</time>
      </trkpt>
      <trkpt lat="45.70062" lon="2.96606">
        <ele>969.2</ele>
        <time>2014-06-25T15:29:05Z</time>
      </trkpt>
      <trkpt lat="45.70147" lon="2.96715">
        <ele>965.6</ele>
        <time>2014-06-25T15:29:23Z</time>
      </trkpt>
      <trkpt lat="45.70223" lon="2.96778">
        <ele>965.5</ele>
        <time>2014-06-25T15:29:43Z</time>
      </trkpt>
      <trkpt lat="45.70256" lon="2.96795">
        <ele>966.9</ele>
        <time>2014-06-25T15:29:51Z</time>
      </trkpt>
      <trkpt lat="45.70384" lon="2.96873">
        <ele>968.9</ele>
        <time>2014-06-25T15:30:23Z</time>
      </trkpt>
      <trkpt lat="45.70508" lon="2.96965">
        <ele>963.1</ele>
        <time>2014-06-25T15:30:49Z</time>
      </trkpt>
      <trkpt lat="45.7055" lon="2.97006">
        <ele>959.9</ele>
        <time>2014-06-25T15:30:57Z</time>
      </trkpt>
      <trkpt lat="45.70601" lon="2.97051">
        <ele>956.4</ele>
        <time>2014-06-25T15:31:07Z</time>
      </trkpt>
      <trkpt lat="45.70687" lon="2.97062">
        <ele>952.8</ele>
        <time>2014-06-25T15:31:21Z</time>
      </trkpt>
      <trkpt lat="45.7082" lon="2.97169">
        <ele>948.7</ele>
        <time>2014-06-25T15:31:52Z</time>
      </trkpt>
      <trkpt lat="45.70884" lon="2.97208">
        <ele>950.3</ele>
        <time>2014-06-25T15:32:12Z</time>
      </trkpt>
      <trkpt lat="45.7097" lon="2.9724">
        <ele>946.2</ele>
        <time>2014-06-25T15:32:42Z</time>
      </trkpt>
      <trkpt lat="45.7104" lon="2.97259">
        <ele>946.4</ele>
        <time>2014-06-25T15:33:00Z</time>
      </trkpt>
      <trkpt lat="45.71149" lon="2.97235">
        <ele>948.4</ele>
        <time>2014-06-25T15:33:24Z</time>
      </trkpt>
      <trkpt lat="45.71209" lon="2.97187">
        <ele>948.4</ele>
        <time>2014-06-25T15:33:44Z</time>
      </trkpt>
      <trkpt lat="45.7132" lon="2.97132">
        <ele>948.8</ele>
        <time>2014-06-25T15:34:08Z</time>
      </trkpt>
      <trkpt lat="45.71465" lon="2.97102">
        <ele>943</ele>
        <time>2014-06-25T15:34:34Z</time>
      </trkpt>
      <trkpt lat="45.71513" lon="2.9712">
        <ele>939.2</ele>
        <time>2014-06-25T15:34:42Z</time>
      </trkpt>
      <trkpt lat="45.71538" lon="2.97096">
        <ele>935.6</ele>
        <time>2014-06-25T15:34:50Z</time>
      </trkpt>
      <trkpt lat="45.71564" lon="2.9707">
        <ele>932.4</ele>
        <time>2014-06-25T15:35:04Z</time>
      </trkpt>
      <trkpt lat="45.71606" lon="2.9713">
        <ele>930.2</ele>
        <time>2014-06-25T15:35:16Z</time>
      </trkpt>
      <trkpt lat="45.71645" lon="2.97235">
        <ele>928.3</ele>
        <time>2014-06-25T15:35:38Z</time>
      </trkpt>
      <trkpt lat="45.71711" lon="2.97376">
        <ele>924.2</ele>
        <time>2014-06-25T15:36:04Z</time>
      </trkpt>
      <trkpt lat="45.71766" lon="2.97511">
        <ele>919.4</ele>
        <time>2014-06-25T15:36:18Z</time>
      </trkpt>
      <trkpt lat="45.71827" lon="2.97594">
        <ele>916.4</ele>
        <time>2014-06-25T15:36:34Z</time>
      </trkpt>
      <trkpt lat="45.71904" lon="2.97675">
        <ele>916.2</ele>
        <time>2014-06-25T15:36:50Z</time>
      </trkpt>
      <trkpt lat="45.71922" lon="2.97697">
        <ele>916.3</ele>
        <time>2014-06-25T15:36:54Z</time>
      </trkpt>
      <trkpt lat="45.72099" lon="2.97812">
        <ele>919.7</ele>
        <time>2014-06-25T15:37:38Z</time>
      </trkpt>
      <trkpt lat="45.7218" lon="2.97866">
        <ele>918.7</ele>
        <time>2014-06-25T15:37:54Z</time>
      </trkpt>
      <trkpt lat="45.72263" lon="2.97939">
        <ele>916.8</ele>
        <time>2014-06-25T15:38:12Z</time>
      </trkpt>
      <trkpt lat="45.72275" lon="2.97978">
        <ele>916.3</ele>
        <time>2014-06-25T15:38:18Z</time>
      </trkpt>
      <trkpt lat="45.72338" lon="2.98156">
        <ele>912.9</ele>
        <time>2014-06-25T15:38:40Z</time>
      </trkpt>
      <trkpt lat="45.72366" lon="2.98217">
        <ele>911.2</ele>
        <time>2014-06-25T15:38:48Z</time>
      </trkpt>
      <trkpt lat="45.72392" lon="2.98319">
        <ele>908.5</ele>
        <time>2014-06-25T15:39:00Z</time>
      </trkpt>
      <trkpt lat="45.72407" lon="2.98393">
        <ele>906.8</ele>
        <time>2014-06-25T15:39:08Z</time>
      </trkpt>
      <trkpt lat="45.72427" lon="2.98433">
        <ele>906.8</ele>
        <time>2014-06-25T15:39:14Z</time>
      </trkpt>
      <trkpt lat="45.72507" lon="2.98583">
        <ele>906.2</ele>
        <time>2014-06-25T15:39:34Z</time>
      </trkpt>
      <trkpt lat="45.72562" lon="2.98702">
        <ele>901.5</ele>
        <time>2014-06-25T15:39:50Z</time>
      </trkpt>
      <trkpt lat="45.72589" lon="2.98843">
        <ele>896.3</ele>
        <time>2014-06-25T15:40:02Z</time>
      </trkpt>
      <trkpt lat="45.72666" lon="2.98911">
        <ele>889.9</ele>
        <time>2014-06-25T15:40:16Z</time>
      </trkpt>
      <trkpt lat="45.72743" lon="2.98976">
        <ele>888.5</ele>
        <time>2014-06-25T15:40:38Z</time>
      </trkpt>
      <trkpt lat="45.72755" lon="2.99079">
        <ele>893.7</ele>
        <time>2014-06-25T15:41:02Z</time>
      </trkpt>
      <trkpt lat="45.72753" lon="2.99107">
        <ele>897.4</ele>
        <time>2014-06-25T15:41:12Z</time>
      </trkpt>
      <trkpt lat="45.72733" lon="2.99205">
        <ele>904</ele>
        <time>2014-06-25T15:41:42Z</time>
      </trkpt>
      <trkpt lat="45.7272" lon="2.99273">
        <ele>907</ele>
        <time>2014-06-25T15:42:02Z</time>
      </trkpt>
      <trkpt lat="45.72704" lon="2.994">
        <ele>917.1</ele>
        <time>2014-06-25T15:42:56Z</time>
      </trkpt>
      <trkpt lat="45.72696" lon="2.99453">
        <ele>921.6</ele>
        <time>2014-06-25T15:43:20Z</time>
      </trkpt>
      <trkpt lat="45.72681" lon="2.99514">
        <ele>924.7</ele>
        <time>2014-06-25T15:43:42Z</time>
      </trkpt>
      <trkpt lat="45.72667" lon="2.99583">
        <ele>928.5</ele>
        <time>2014-06-25T15:44:06Z</time>
      </trkpt>
      <trkpt lat="45.72664" lon="2.99636">
        <ele>933.6</ele>
        <time>2014-06-25T15:44:34Z</time>
      </trkpt>
      <trkpt lat="45.72662" lon="2.99691">
        <ele>938.1</ele>
        <time>2014-06-25T15:45:00Z</time>
      </trkpt>
      <trkpt lat="45.72646" lon="2.99781">
        <ele>943.7</ele>
        <time>2014-06-25T15:45:32Z</time>
      </trkpt>
      <trkpt lat="45.72609" lon="2.99972">
        <ele>951.5</ele>
        <time>2014-06-25T15:46:35Z</time>
      </trkpt>
      <trkpt lat="45.7258" lon="3.00096">
        <ele>952.8</ele>
        <time>2014-06-25T15:46:57Z</time>
      </trkpt>
      <trkpt lat="45.72601" lon="3.00252">
        <ele>943.4</ele>
        <time>2014-06-25T15:47:13Z</time>
      </trkpt>
      <trkpt lat="45.72632" lon="3.00308">
        <ele>937.2</ele>
        <time>2014-06-25T15:47:23Z</time>
      </trkpt>
      <trkpt lat="45.72768" lon="3.00447">
        <ele>930.9</ele>
        <time>2014-06-25T15:47:49Z</time>
      </trkpt>
      <trkpt lat="45.72801" lon="3.00507">
        <ele>924</ele>
        <time>2014-06-25T15:48:11Z</time>
      </trkpt>
      <trkpt lat="45.72803" lon="3.00585">
        <ele>918.8</ele>
        <time>2014-06-25T15:48:27Z</time>
      </trkpt>
      <trkpt lat="45.72773" lon="3.00671">
        <ele>913</ele>
        <time>2014-06-25T15:48:39Z</time>
      </trkpt>
      <trkpt lat="45.72706" lon="3.00749">
        <ele>909.1</ele>
        <time>2014-06-25T15:48:55Z</time>
      </trkpt>
      <trkpt lat="45.72683" lon="3.0089">
        <ele>903.6</ele>
        <time>2014-06-25T15:49:11Z</time>
      </trkpt>
      <trkpt lat="45.72665" lon="3.00984">
        <ele>900.2</ele>
        <time>2014-06-25T15:49:27Z</time>
      </trkpt>
      <trkpt lat="45.72744" lon="3.01061">
        <ele>898.7</ele>
        <time>2014-06-25T15:49:47Z</time>
      </trkpt>
      <trkpt lat="45.72755" lon="3.01144">
        <ele>898.6</ele>
        <time>2014-06-25T15:50:01Z</time>
      </trkpt>
      <trkpt lat="45.72722" lon="3.01268">
        <ele>896.6</ele>
        <time>2014-06-25T15:50:21Z</time>
      </trkpt>
      <trkpt lat="45.72711" lon="3.01419">
        <ele>895.3</ele>
        <time>2014-06-25T15:50:41Z</time>
      </trkpt>
      <trkpt lat="45.72686" lon="3.01562">
        <ele>895.1</ele>
        <time>2014-06-25T15:50:57Z</time>
      </trkpt>
      <trkpt lat="45.72659" lon="3.01757">
        <ele>888.2</ele>
        <time>2014-06-25T15:51:17Z</time>
      </trkpt>
      <trkpt lat="45.72626" lon="3.0186">
        <ele>882.6</ele>
        <time>2014-06-25T15:51:29Z</time>
      </trkpt>
      <trkpt lat="45.72533" lon="3.01875">
        <ele>877</ele>
        <time>2014-06-25T15:51:51Z</time>
      </trkpt>
      <trkpt lat="45.72363" lon="3.01856">
        <ele>872.7</ele>
        <time>2014-06-25T15:52:15Z</time>
      </trkpt>
      <trkpt lat="45.72205" lon="3.01833">
        <ele>867.3</ele>
        <time>2014-06-25T15:52:33Z</time>
      </trkpt>
      <trkpt lat="45.72119" lon="3.01821">
        <ele>862.4</ele>
        <time>2014-06-25T15:52:43Z</time>
      </trkpt>
      <trkpt lat="45.72073" lon="3.01914">
        <ele>862.1</ele>
        <time>2014-06-25T15:52:59Z</time>
      </trkpt>
      <trkpt lat="45.72056" lon="3.01952">
        <ele>865.2</ele>
        <time>2014-06-25T15:53:07Z</time>
      </trkpt>
      <trkpt lat="45.71963" lon="3.01956">
        <ele>867.9</ele>
        <time>2014-06-25T15:53:27Z</time>
      </trkpt>
      <trkpt lat="45.71861" lon="3.01902">
        <ele>866.4</ele>
        <time>2014-06-25T15:53:51Z</time>
      </trkpt>
      <trkpt lat="45.7176" lon="3.01896">
        <ele>863</ele>
        <time>2014-06-25T15:54:23Z</time>
      </trkpt>
      <trkpt lat="45.71816" lon="3.0195">
        <ele>860.4</ele>
        <time>2014-06-25T15:54:55Z</time>
      </trkpt>
      <trkpt lat="45.71809" lon="3.01939">
        <ele>861.4</ele>
        <time>2014-06-25T15:57:33Z</time>
      </trkpt>
      <trkpt lat="45.71741" lon="3.01875">
        <ele>861.1</ele>
        <time>2014-06-25T15:58:00Z</time>
      </trkpt>
      <trkpt lat="45.71618" lon="3.0184">
        <ele>861.5</ele>
        <time>2014-06-25T15:58:30Z</time>
      </trkpt>
      <trkpt lat="45.71429" lon="3.01798">
        <ele>854.6</ele>
        <time>2014-06-25T15:58:57Z</time>
      </trkpt>
      <trkpt lat="45.71337" lon="3.0176">
        <ele>846.2</ele>
        <time>2014-06-25T15:59:19Z</time>
      </trkpt>
      <trkpt lat="45.71261" lon="3.01709">
        <ele>842.8</ele>
        <time>2014-06-25T15:59:30Z</time>
      </trkpt>
      <trkpt lat="45.71189" lon="3.01659">
        <ele>838.6</ele>
        <time>2014-06-25T15:59:39Z</time>
      </trkpt>
      <trkpt lat="45.71046" lon="3.01564">
        <ele>831.3</ele>
        <time>2014-06-25T15:59:55Z</time>
      </trkpt>
      <trkpt lat="45.71009" lon="3.01535">
        <ele>829.5</ele>
        <time>2014-06-25T15:59:59Z</time>
      </trkpt>
      <trkpt lat="45.70915" lon="3.01365">
        <ele>822.2</ele>
        <time>2014-06-25T16:00:13Z</time>
      </trkpt>
      <trkpt lat="45.70903" lon="3.0134">
        <ele>821</ele>
        <time>2014-06-25T16:00:15Z</time>
      </trkpt>
      <trkpt lat="45.7081" lon="3.01283">
        <ele>817.1</ele>
        <time>2014-06-25T16:00:27Z</time>
      </trkpt>
      <trkpt lat="45.70601" lon="3.01327">
        <ele>816.4</ele>
        <time>2014-06-25T16:00:57Z</time>
      </trkpt>
      <trkpt lat="45.70519" lon="3.01463">
        <ele>814.4</ele>
        <time>2014-06-25T16:01:15Z</time>
      </trkpt>
      <trkpt lat="45.7051" lon="3.01605">
        <ele>812</ele>
        <time>2014-06-25T16:01:55Z</time>
      </trkpt>
      <trkpt lat="45.70515" lon="3.01649">
        <ele>811.6</ele>
        <time>2014-06-25T16:02:02Z</time>
      </trkpt>
      <trkpt lat="45.7049" lon="3.01758">
        <ele>809.9</ele>
        <time>2014-06-25T16:02:16Z</time>
      </trkpt>
      <trkpt lat="45.70441" lon="3.01824">
        <ele>808.5</ele>
        <time>2014-06-25T16:02:33Z</time>
      </trkpt>
      <trkpt lat="45.70428" lon="3.01867">
        <ele>808.2</ele>
        <time>2014-06-25T16:02:39Z</time>
      </trkpt>
      <trkpt lat="45.70369" lon="3.02009">
        <ele>803.7</ele>
        <time>2014-06-25T16:03:15Z</time>
      </trkpt>
      <trkpt lat="45.70367" lon="3.02037">
        <ele>803.7</ele>
        <time>2014-06-25T16:03:21Z</time>
      </trkpt>
      <trkpt lat="45.70393" lon="3.02118">
        <ele>802.6</ele>
        <time>2014-06-25T16:04:50Z</time>
      </trkpt>
      <trkpt lat="45.70398" lon="3.02185">
        <ele>802.1</ele>
        <time>2014-06-25T16:05:02Z</time>
      </trkpt>
      <trkpt lat="45.70332" lon="3.02283">
        <ele>804.8</ele>
        <time>2014-06-25T16:05:26Z</time>
      </trkpt>
      <trkpt lat="45.70331" lon="3.02327">
        <ele>807.9</ele>
        <time>2014-06-25T16:05:38Z</time>
      </trkpt>
      <trkpt lat="45.70345" lon="3.02414">
        <ele>814.4</ele>
        <time>2014-06-25T16:06:06Z</time>
      </trkpt>
      <trkpt lat="45.70335" lon="3.02478">
        <ele>818.5</ele>
        <time>2014-06-25T16:06:26Z</time>
      </trkpt>
      <trkpt lat="45.70325" lon="3.02557">
        <ele>822.4</ele>
        <time>2014-06-25T16:06:48Z</time>
      </trkpt>
      <trkpt lat="45.70313" lon="3.02605">
        <ele>825.6</ele>
        <time>2014-06-25T16:07:04Z</time>
      </trkpt>
      <trkpt lat="45.70279" lon="3.0268">
        <ele>829.5</ele>
        <time>2014-06-25T16:07:26Z</time>
      </trkpt>
      <trkpt lat="45.70245" lon="3.0273">
        <ele>832.6</ele>
        <time>2014-06-25T16:07:44Z</time>
      </trkpt>
      <trkpt lat="45.7021" lon="3.02774">
        <ele>835.7</ele>
        <time>2014-06-25T16:08:04Z</time>
      </trkpt>
      <trkpt lat="45.70176" lon="3.02839">
        <ele>837.2</ele>
        <time>2014-06-25T16:08:20Z</time>
      </trkpt>
      <trkpt lat="45.70161" lon="3.02869">
        <ele>837.2</ele>
        <time>2014-06-25T16:08:26Z</time>
      </trkpt>
      <trkpt lat="45.7004" lon="3.03113">
        <ele>837.1</ele>
        <time>2014-06-25T16:09:06Z</time>
      </trkpt>
      <trkpt lat="45.69898" lon="3.03162">
        <ele>840</ele>
        <time>2014-06-25T16:09:36Z</time>
      </trkpt>
      <trkpt lat="45.69756" lon="3.03182">
        <ele>845.6</ele>
        <time>2014-06-25T16:10:12Z</time>
      </trkpt>
      <trkpt lat="45.69672" lon="3.03211">
        <ele>849.2</ele>
        <time>2014-06-25T16:10:36Z</time>
      </trkpt>
      <trkpt lat="45.6955" lon="3.03252">
        <ele>855.4</ele>
        <time>2014-06-25T16:11:14Z</time>
      </trkpt>
      <trkpt lat="45.69489" lon="3.03273">
        <ele>858.6</ele>
        <time>2014-06-25T16:11:34Z</time>
      </trkpt>
      <trkpt lat="45.69357" lon="3.03355">
        <ele>863.7</ele>
        <time>2014-06-25T16:12:14Z</time>
      </trkpt>
      <trkpt lat="45.69206" lon="3.03411">
        <ele>869.4</ele>
        <time>2014-06-25T16:12:56Z</time>
      </trkpt>
      <trkpt lat="45.69143" lon="3.0347">
        <ele>869.1</ele>
        <time>2014-06-25T16:13:10Z</time>
      </trkpt>
      <trkpt lat="45.69072" lon="3.035">
        <ele>866</ele>
        <time>2014-06-25T16:13:20Z</time>
      </trkpt>
      <trkpt lat="45.68988" lon="3.03452">
        <ele>863.1</ele>
        <time>2014-06-25T16:13:32Z</time>
      </trkpt>
      <trkpt lat="45.68881" lon="3.03336">
        <ele>860.7</ele>
        <time>2014-06-25T16:13:52Z</time>
      </trkpt>
      <trkpt lat="45.6882" lon="3.03422">
        <ele>855.6</ele>
        <time>2014-06-25T16:14:06Z</time>
      </trkpt>
      <trkpt lat="45.68748" lon="3.03535">
        <ele>848.6</ele>
        <time>2014-06-25T16:14:18Z</time>
      </trkpt>
      <trkpt lat="45.68705" lon="3.03566">
        <ele>844.3</ele>
        <time>2014-06-25T16:14:24Z</time>
      </trkpt>
      <trkpt lat="45.68699" lon="3.03715">
        <ele>837</ele>
        <time>2014-06-25T16:14:36Z</time>
      </trkpt>
      <trkpt lat="45.68705" lon="3.03857">
        <ele>831.1</ele>
        <time>2014-06-25T16:14:46Z</time>
      </trkpt>
      <trkpt lat="45.68696" lon="3.0395">
        <ele>826.5</ele>
        <time>2014-06-25T16:14:52Z</time>
      </trkpt>
      <trkpt lat="45.68692" lon="3.04013">
        <ele>823.3</ele>
        <time>2014-06-25T16:14:56Z</time>
      </trkpt>
      <trkpt lat="45.68665" lon="3.04137">
        <ele>816.4</ele>
        <time>2014-06-25T16:15:04Z</time>
      </trkpt>
      <trkpt lat="45.68652" lon="3.04283">
        <ele>809.4</ele>
        <time>2014-06-25T16:15:12Z</time>
      </trkpt>
      <trkpt lat="45.68644" lon="3.04431">
        <ele>800.6</ele>
        <time>2014-06-25T16:15:20Z</time>
      </trkpt>
      <trkpt lat="45.6864" lon="3.04602">
        <ele>793.5</ele>
        <time>2014-06-25T16:15:30Z</time>
      </trkpt>
      <trkpt lat="45.68585" lon="3.0492">
        <ele>788.7</ele>
        <time>2014-06-25T16:15:56Z</time>
      </trkpt>
      <trkpt lat="45.68582" lon="3.04944">
        <ele>788.7</ele>
        <time>2014-06-25T16:15:58Z</time>
      </trkpt>
      <trkpt lat="45.68568" lon="3.0517">
        <ele>784.4</ele>
        <time>2014-06-25T16:16:16Z</time>
      </trkpt>
      <trkpt lat="45.6852" lon="3.05357">
        <ele>779.9</ele>
        <time>2014-06-25T16:16:30Z</time>
      </trkpt>
      <trkpt lat="45.68483" lon="3.05473">
        <ele>780.6</ele>
        <time>2014-06-25T16:16:42Z</time>
      </trkpt>
      <trkpt lat="45.68471" lon="3.05699">
        <ele>783.5</ele>
        <time>2014-06-25T16:17:10Z</time>
      </trkpt>
      <trkpt lat="45.68456" lon="3.06">
        <ele>774.3</ele>
        <time>2014-06-25T16:17:36Z</time>
      </trkpt>
      <trkpt lat="45.68448" lon="3.06096">
        <ele>770.2</ele>
        <time>2014-06-25T16:17:44Z</time>
      </trkpt>
      <trkpt lat="45.68395" lon="3.06168">
        <ele>766.3</ele>
        <time>2014-06-25T16:18:34Z</time>
      </trkpt>
      <trkpt lat="45.68372" lon="3.06204">
        <ele>765.8</ele>
        <time>2014-06-25T16:18:50Z</time>
      </trkpt>
      <trkpt lat="45.6838" lon="3.06294">
        <ele>761.2</ele>
        <time>2014-06-27T12:05:59Z</time>
      </trkpt>
      <trkpt lat="45.68375" lon="3.06281">
        <ele>761.1</ele>
        <time>2014-06-27T12:06:07Z</time>
      </trkpt>
      <trkpt lat="45.68373" lon="3.0619">
        <ele>764</ele>
        <time>2014-06-27T12:06:41Z</time>
      </trkpt>
      <trkpt lat="45.68423" lon="3.06148">
        <ele>766.6</ele>
        <time>2014-06-27T12:07:21Z</time>
      </trkpt>
      <trkpt lat="45.68457" lon="3.06003">
        <ele>769.3</ele>
        <time>2014-06-27T12:08:05Z</time>
      </trkpt>
      <trkpt lat="45.68455" lon="3.05921">
        <ele>772.6</ele>
        <time>2014-06-27T12:08:29Z</time>
      </trkpt>
      <trkpt lat="45.68465" lon="3.05794">
        <ele>778.9</ele>
        <time>2014-06-27T12:09:11Z</time>
      </trkpt>
      <trkpt lat="45.68479" lon="3.0568">
        <ele>783.9</ele>
        <time>2014-06-27T12:09:47Z</time>
      </trkpt>
      <trkpt lat="45.68449" lon="3.05608">
        <ele>789.8</ele>
        <time>2014-06-27T12:10:27Z</time>
      </trkpt>
      <trkpt lat="45.6842" lon="3.05532">
        <ele>796.7</ele>
        <time>2014-06-27T12:11:07Z</time>
      </trkpt>
      <trkpt lat="45.68402" lon="3.05478">
        <ele>801</ele>
        <time>2014-06-27T12:11:33Z</time>
      </trkpt>
      <trkpt lat="45.68319" lon="3.05442">
        <ele>807.6</ele>
        <time>2014-06-27T12:12:25Z</time>
      </trkpt>
      <trkpt lat="45.68279" lon="3.05333">
        <ele>814.7</ele>
        <time>2014-06-27T12:13:17Z</time>
      </trkpt>
      <trkpt lat="45.68252" lon="3.05213">
        <ele>820</ele>
        <time>2014-06-27T12:14:09Z</time>
      </trkpt>
      <trkpt lat="45.68225" lon="3.05142">
        <ele>825.7</ele>
        <time>2014-06-27T12:14:45Z</time>
      </trkpt>
      <trkpt lat="45.6816" lon="3.05094">
        <ele>830</ele>
        <time>2014-06-27T12:15:23Z</time>
      </trkpt>
      <trkpt lat="45.68071" lon="3.05013">
        <ele>834.5</ele>
        <time>2014-06-27T12:16:17Z</time>
      </trkpt>
      <trkpt lat="45.68013" lon="3.04945">
        <ele>838.3</ele>
        <time>2014-06-27T12:16:49Z</time>
      </trkpt>
      <trkpt lat="45.68019" lon="3.04873">
        <ele>841.1</ele>
        <time>2014-06-27T12:17:15Z</time>
      </trkpt>
      <trkpt lat="45.68047" lon="3.04797">
        <ele>845.7</ele>
        <time>2014-06-27T12:17:47Z</time>
      </trkpt>
      <trkpt lat="45.68068" lon="3.04682">
        <ele>853</ele>
        <time>2014-06-27T12:18:33Z</time>
      </trkpt>
      <trkpt lat="45.6809" lon="3.04625">
        <ele>857.6</ele>
        <time>2014-06-27T12:19:01Z</time>
      </trkpt>
      <trkpt lat="45.68104" lon="3.04587">
        <ele>861.5</ele>
        <time>2014-06-27T12:19:21Z</time>
      </trkpt>
      <trkpt lat="45.68119" lon="3.04526">
        <ele>867.2</ele>
        <time>2014-06-27T12:19:49Z</time>
      </trkpt>
      <trkpt lat="45.6811" lon="3.04433">
        <ele>874.3</ele>
        <time>2014-06-27T12:20:31Z</time>
      </trkpt>
      <trkpt lat="45.68102" lon="3.04375">
        <ele>879.3</ele>
        <time>2014-06-27T12:20:59Z</time>
      </trkpt>
      <trkpt lat="45.6809" lon="3.04316">
        <ele>883.5</ele>
        <time>2014-06-27T12:21:25Z</time>
      </trkpt>
      <trkpt lat="45.68032" lon="3.04223">
        <ele>888.3</ele>
        <time>2014-06-27T12:22:11Z</time>
      </trkpt>
      <trkpt lat="45.68029" lon="3.04099">
        <ele>891.8</ele>
        <time>2014-06-27T12:22:51Z</time>
      </trkpt>
      <trkpt lat="45.68042" lon="3.0391">
        <ele>896.7</ele>
        <time>2014-06-27T12:23:45Z</time>
      </trkpt>
      <trkpt lat="45.68053" lon="3.03861">
        <ele>899.9</ele>
        <time>2014-06-27T12:24:05Z</time>
      </trkpt>
      <trkpt lat="45.68058" lon="3.03691">
        <ele>904.9</ele>
        <time>2014-06-27T12:25:01Z</time>
      </trkpt>
      <trkpt lat="45.68076" lon="3.03576">
        <ele>908.9</ele>
        <time>2014-06-27T12:25:37Z</time>
      </trkpt>
      <trkpt lat="45.68073" lon="3.03462">
        <ele>912</ele>
        <time>2014-06-27T12:26:13Z</time>
      </trkpt>
      <trkpt lat="45.68136" lon="3.03408">
        <ele>918.2</ele>
        <time>2014-06-27T12:27:03Z</time>
      </trkpt>
      <trkpt lat="45.68189" lon="3.03349">
        <ele>924.7</ele>
        <time>2014-06-27T12:27:45Z</time>
      </trkpt>
      <trkpt lat="45.68174" lon="3.03283">
        <ele>928.9</ele>
        <time>2014-06-27T12:28:11Z</time>
      </trkpt>
      <trkpt lat="45.6817" lon="3.03194">
        <ele>934.7</ele>
        <time>2014-06-27T12:28:47Z</time>
      </trkpt>
      <trkpt lat="45.68164" lon="3.03141">
        <ele>937.8</ele>
        <time>2014-06-27T12:29:07Z</time>
      </trkpt>
      <trkpt lat="45.68174" lon="3.03005">
        <ele>941.7</ele>
        <time>2014-06-27T12:29:49Z</time>
      </trkpt>
      <trkpt lat="45.68149" lon="3.02826">
        <ele>945.4</ele>
        <time>2014-06-27T12:30:41Z</time>
      </trkpt>
      <trkpt lat="45.68191" lon="3.02575">
        <ele>943</ele>
        <time>2014-06-27T12:31:33Z</time>
      </trkpt>
      <trkpt lat="45.6822" lon="3.025">
        <ele>943.3</ele>
        <time>2014-06-27T12:31:51Z</time>
      </trkpt>
      <trkpt lat="45.68251" lon="3.02429">
        <ele>947.1</ele>
        <time>2014-06-27T12:32:13Z</time>
      </trkpt>
      <trkpt lat="45.68241" lon="3.02262">
        <ele>950.9</ele>
        <time>2014-06-27T12:32:57Z</time>
      </trkpt>
      <trkpt lat="45.68228" lon="3.02126">
        <ele>953.9</ele>
        <time>2014-06-27T12:33:35Z</time>
      </trkpt>
      <trkpt lat="45.68284" lon="3.02145">
        <ele>955.1</ele>
        <time>2014-06-27T12:34:01Z</time>
      </trkpt>
      <trkpt lat="45.68392" lon="3.02175">
        <ele>957.5</ele>
        <time>2014-06-27T12:34:45Z</time>
      </trkpt>
      <trkpt lat="45.68415" lon="3.01996">
        <ele>961.6</ele>
        <time>2014-06-27T12:35:33Z</time>
      </trkpt>
      <trkpt lat="45.68414" lon="3.01881">
        <ele>967.1</ele>
        <time>2014-06-27T12:36:09Z</time>
      </trkpt>
      <trkpt lat="45.68408" lon="3.01775">
        <ele>971.4</ele>
        <time>2014-06-27T12:36:45Z</time>
      </trkpt>
      <trkpt lat="45.68448" lon="3.01539">
        <ele>977.6</ele>
        <time>2014-06-27T12:37:53Z</time>
      </trkpt>
      <trkpt lat="45.68459" lon="3.01462">
        <ele>979.6</ele>
        <time>2014-06-27T12:38:17Z</time>
      </trkpt>
      <trkpt lat="45.68486" lon="3.01315">
        <ele>983.7</ele>
        <time>2014-06-27T12:39:03Z</time>
      </trkpt>
      <trkpt lat="45.68546" lon="3.0109">
        <ele>988.9</ele>
        <time>2014-06-27T12:40:07Z</time>
      </trkpt>
      <trkpt lat="45.68554" lon="3.01031">
        <ele>989.1</ele>
        <time>2014-06-27T12:40:23Z</time>
      </trkpt>
      <trkpt lat="45.68604" lon="3.01007">
        <ele>990.9</ele>
        <time>2014-06-27T12:40:49Z</time>
      </trkpt>
      <trkpt lat="45.68623" lon="3.00837">
        <ele>986.4</ele>
        <time>2014-06-27T12:41:25Z</time>
      </trkpt>
      <trkpt lat="45.68645" lon="3.00706">
        <ele>976.8</ele>
        <time>2014-06-27T12:41:47Z</time>
      </trkpt>
      <trkpt lat="45.68665" lon="3.00694">
        <ele>972.8</ele>
        <time>2014-06-27T12:41:55Z</time>
      </trkpt>
      <trkpt lat="45.6876" lon="3.00634">
        <ele>976.5</ele>
        <time>2014-06-27T12:42:35Z</time>
      </trkpt>
      <trkpt lat="45.68928" lon="3.00544">
        <ele>976.3</ele>
        <time>2014-06-27T12:43:25Z</time>
      </trkpt>
      <trkpt lat="45.6903" lon="3.00557">
        <ele>969.7</ele>
        <time>2014-06-27T12:43:43Z</time>
      </trkpt>
      <trkpt lat="45.69159" lon="3.00497">
        <ele>961.3</ele>
        <time>2014-06-27T12:44:05Z</time>
      </trkpt>
      <trkpt lat="45.6924" lon="3.00442">
        <ele>960.7</ele>
        <time>2014-06-27T12:44:31Z</time>
      </trkpt>
      <trkpt lat="45.69324" lon="3.00309">
        <ele>955</ele>
        <time>2014-06-27T12:45:03Z</time>
      </trkpt>
      <trkpt lat="45.69331" lon="3.00275">
        <ele>950.8</ele>
        <time>2014-06-27T12:45:09Z</time>
      </trkpt>
      <trkpt lat="45.69348" lon="3.00191">
        <ele>944.4</ele>
        <time>2014-06-27T12:45:19Z</time>
      </trkpt>
      <trkpt lat="45.6937" lon="3.00117">
        <ele>940.1</ele>
        <time>2014-06-27T12:45:27Z</time>
      </trkpt>
      <trkpt lat="45.69412" lon="3.00035">
        <ele>934.3</ele>
        <time>2014-06-27T12:45:37Z</time>
      </trkpt>
      <trkpt lat="45.69447" lon="2.99952">
        <ele>926.7</ele>
        <time>2014-06-27T12:45:49Z</time>
      </trkpt>
      <trkpt lat="45.69438" lon="2.99887">
        <ele>922.1</ele>
        <time>2014-06-27T12:45:57Z</time>
      </trkpt>
      <trkpt lat="45.69432" lon="2.99833">
        <ele>918.4</ele>
        <time>2014-06-27T12:46:03Z</time>
      </trkpt>
      <trkpt lat="45.69416" lon="2.99768">
        <ele>913.5</ele>
        <time>2014-06-27T12:46:11Z</time>
      </trkpt>
      <trkpt lat="45.69376" lon="2.99742">
        <ele>909.6</ele>
        <time>2014-06-27T12:46:17Z</time>
      </trkpt>
      <trkpt lat="45.69345" lon="2.99714">
        <ele>901.2</ele>
        <time>2014-06-27T12:46:37Z</time>
      </trkpt>
      <trkpt lat="45.69257" lon="2.99748">
        <ele>897.6</ele>
        <time>2014-06-27T12:47:01Z</time>
      </trkpt>
      <trkpt lat="45.69217" lon="2.99766">
        <ele>893.8</ele>
        <time>2014-06-27T12:47:15Z</time>
      </trkpt>
      <trkpt lat="45.69244" lon="2.99684">
        <ele>889.8</ele>
        <time>2014-06-27T12:47:25Z</time>
      </trkpt>
      <trkpt lat="45.69277" lon="2.99585">
        <ele>886.7</ele>
        <time>2014-06-27T12:47:39Z</time>
      </trkpt>
      <trkpt lat="45.69265" lon="2.9954">
        <ele>887.9</ele>
        <time>2014-06-27T12:47:49Z</time>
      </trkpt>
      <trkpt lat="45.69189" lon="2.99445">
        <ele>892.1</ele>
        <time>2014-06-27T12:48:27Z</time>
      </trkpt>
      <trkpt lat="45.69153" lon="2.99278">
        <ele>896</ele>
        <time>2014-06-27T12:49:07Z</time>
      </trkpt>
      <trkpt lat="45.69145" lon="2.99204">
        <ele>899.2</ele>
        <time>2014-06-27T12:49:25Z</time>
      </trkpt>
      <trkpt lat="45.69092" lon="2.99033">
        <ele>902.3</ele>
        <time>2014-06-27T12:50:07Z</time>
      </trkpt>
      <trkpt lat="45.69052" lon="2.98853">
        <ele>906.3</ele>
        <time>2014-06-27T12:50:49Z</time>
      </trkpt>
      <trkpt lat="45.68981" lon="2.98725">
        <ele>909</ele>
        <time>2014-06-27T12:51:27Z</time>
      </trkpt>
      <trkpt lat="45.68927" lon="2.98687">
        <ele>908.5</ele>
        <time>2014-06-27T12:51:47Z</time>
      </trkpt>
      <trkpt lat="45.68839" lon="2.98667">
        <ele>905.5</ele>
        <time>2014-06-27T12:52:09Z</time>
      </trkpt>
      <trkpt lat="45.68796" lon="2.9861">
        <ele>902.8</ele>
        <time>2014-06-27T12:52:21Z</time>
      </trkpt>
      <trkpt lat="45.68762" lon="2.98554">
        <ele>898</ele>
        <time>2014-06-27T12:52:43Z</time>
      </trkpt>
      <trkpt lat="45.6875" lon="2.98509">
        <ele>897.7</ele>
        <time>2014-06-27T12:53:03Z</time>
      </trkpt>
      <trkpt lat="45.68687" lon="2.98417">
        <ele>899.8</ele>
        <time>2014-06-27T12:54:23Z</time>
      </trkpt>
      <trkpt lat="45.68676" lon="2.98296">
        <ele>902</ele>
        <time>2014-06-27T12:55:11Z</time>
      </trkpt>
      <trkpt lat="45.6861" lon="2.98143">
        <ele>904.9</ele>
        <time>2014-06-27T12:55:55Z</time>
      </trkpt>
      <trkpt lat="45.68555" lon="2.98058">
        <ele>907.1</ele>
        <time>2014-06-27T12:56:29Z</time>
      </trkpt>
      <trkpt lat="45.68446" lon="2.97981">
        <ele>907.3</ele>
        <time>2014-06-27T12:57:11Z</time>
      </trkpt>
      <trkpt lat="45.68364" lon="2.97968">
        <ele>902.4</ele>
        <time>2014-06-27T12:57:31Z</time>
      </trkpt>
      <trkpt lat="45.6832" lon="2.9796">
        <ele>901.3</ele>
        <time>2014-06-27T12:57:45Z</time>
      </trkpt>
      <trkpt lat="45.6825" lon="2.97949">
        <ele>898.6</ele>
        <time>2014-06-27T12:58:03Z</time>
      </trkpt>
      <trkpt lat="45.68178" lon="2.97925">
        <ele>895.3</ele>
        <time>2014-06-27T12:58:21Z</time>
      </trkpt>
      <trkpt lat="45.68125" lon="2.97868">
        <ele>894</ele>
        <time>2014-06-27T12:58:51Z</time>
      </trkpt>
      <trkpt lat="45.68087" lon="2.97762">
        <ele>895.1</ele>
        <time>2014-06-27T12:59:13Z</time>
      </trkpt>
      <trkpt lat="45.68058" lon="2.97693">
        <ele>898.3</ele>
        <time>2014-06-27T12:59:35Z</time>
      </trkpt>
      <trkpt lat="45.67923" lon="2.97558">
        <ele>903.2</ele>
        <time>2014-06-27T13:00:35Z</time>
      </trkpt>
      <trkpt lat="45.67839" lon="2.97414">
        <ele>905.4</ele>
        <time>2014-06-27T13:01:13Z</time>
      </trkpt>
      <trkpt lat="45.67641" lon="2.97145">
        <ele>911.2</ele>
        <time>2014-06-27T13:02:41Z</time>
      </trkpt>
      <trkpt lat="45.6761" lon="2.97119">
        <ele>914.3</ele>
        <time>2014-06-27T13:02:59Z</time>
      </trkpt>
      <trkpt lat="45.67578" lon="2.97068">
        <ele>920.3</ele>
        <time>2014-06-27T13:03:29Z</time>
      </trkpt>
      <trkpt lat="45.67529" lon="2.96969">
        <ele>926.7</ele>
        <time>2014-06-27T13:04:11Z</time>
      </trkpt>
      <trkpt lat="45.67479" lon="2.96851">
        <ele>932.4</ele>
        <time>2014-06-27T13:04:57Z</time>
      </trkpt>
      <trkpt lat="45.6742" lon="2.96761">
        <ele>935.9</ele>
        <time>2014-06-27T13:05:33Z</time>
      </trkpt>
      <trkpt lat="45.67279" lon="2.96761">
        <ele>934.9</ele>
        <time>2014-06-27T13:06:13Z</time>
      </trkpt>
      <trkpt lat="45.6707" lon="2.96786">
        <ele>935.7</ele>
        <time>2014-06-27T13:07:05Z</time>
      </trkpt>
      <trkpt lat="45.67072" lon="2.96743">
        <ele>936.6</ele>
        <time>2014-06-27T13:07:19Z</time>
      </trkpt>
      <trkpt lat="45.67066" lon="2.96629">
        <ele>941.9</ele>
        <time>2014-06-27T13:07:55Z</time>
      </trkpt>
      <trkpt lat="45.67044" lon="2.96534">
        <ele>947.4</ele>
        <time>2014-06-27T13:08:33Z</time>
      </trkpt>
      <trkpt lat="45.67021" lon="2.96467">
        <ele>953</ele>
        <time>2014-06-27T13:09:03Z</time>
      </trkpt>
      <trkpt lat="45.67011" lon="2.96347">
        <ele>957.6</ele>
        <time>2014-06-27T13:09:45Z</time>
      </trkpt>
      <trkpt lat="45.67004" lon="2.96252">
        <ele>956.8</ele>
        <time>2014-06-27T13:10:19Z</time>
      </trkpt>
      <trkpt lat="45.6694" lon="2.96218">
        <ele>951</ele>
        <time>2014-06-27T13:10:35Z</time>
      </trkpt>
      <trkpt lat="45.66899" lon="2.96184">
        <ele>946.9</ele>
        <time>2014-06-27T13:10:49Z</time>
      </trkpt>
      <trkpt lat="45.66922" lon="2.96136">
        <ele>948.1</ele>
        <time>2014-06-27T13:11:07Z</time>
      </trkpt>
      <trkpt lat="45.66971" lon="2.96049">
        <ele>952.7</ele>
        <time>2014-06-27T13:11:43Z</time>
      </trkpt>
      <trkpt lat="45.67003" lon="2.95983">
        <ele>955</ele>
        <time>2014-06-27T13:12:05Z</time>
      </trkpt>
      <trkpt lat="45.67088" lon="2.95804">
        <ele>959.8</ele>
        <time>2014-06-27T13:13:07Z</time>
      </trkpt>
      <trkpt lat="45.67138" lon="2.95669">
        <ele>963.8</ele>
        <time>2014-06-27T13:13:51Z</time>
      </trkpt>
      <trkpt lat="45.67239" lon="2.95486">
        <ele>968.5</ele>
        <time>2014-06-27T13:14:51Z</time>
      </trkpt>
      <trkpt lat="45.67265" lon="2.9529">
        <ele>968.7</ele>
        <time>2014-06-27T13:17:56Z</time>
      </trkpt>
      <trkpt lat="45.67231" lon="2.95263">
        <ele>971.6</ele>
        <time>2014-06-27T13:18:16Z</time>
      </trkpt>
      <trkpt lat="45.67161" lon="2.95208">
        <ele>977.2</ele>
        <time>2014-06-27T13:18:56Z</time>
      </trkpt>
      <trkpt lat="45.67063" lon="2.95126">
        <ele>985.7</ele>
        <time>2014-06-27T13:19:56Z</time>
      </trkpt>
      <trkpt lat="45.66997" lon="2.95147">
        <ele>991</ele>
        <time>2014-06-27T13:20:34Z</time>
      </trkpt>
      <trkpt lat="45.66932" lon="2.95221">
        <ele>996.4</ele>
        <time>2014-06-27T13:21:18Z</time>
      </trkpt>
      <trkpt lat="45.66893" lon="2.95251">
        <ele>1000.3</ele>
        <time>2014-06-27T13:21:42Z</time>
      </trkpt>
      <trkpt lat="45.66865" lon="2.95274">
        <ele>1003.5</ele>
        <time>2014-06-27T13:22:00Z</time>
      </trkpt>
      <trkpt lat="45.66813" lon="2.95305">
        <ele>1009.1</ele>
        <time>2014-06-27T13:22:36Z</time>
      </trkpt>
      <trkpt lat="45.66761" lon="2.95333">
        <ele>1015.2</ele>
        <time>2014-06-27T13:23:12Z</time>
      </trkpt>
      <trkpt lat="45.66729" lon="2.95338">
        <ele>1018.2</ele>
        <time>2014-06-27T13:23:30Z</time>
      </trkpt>
      <trkpt lat="45.66664" lon="2.95327">
        <ele>1023.2</ele>
        <time>2014-06-27T13:25:39Z</time>
      </trkpt>
      <trkpt lat="45.66513" lon="2.95201">
        <ele>1026.2</ele>
        <time>2014-06-27T13:26:51Z</time>
      </trkpt>
      <trkpt lat="45.664" lon="2.95058">
        <ele>1021.4</ele>
        <time>2014-06-27T13:27:33Z</time>
      </trkpt>
      <trkpt lat="45.66315" lon="2.94972">
        <ele>1017.9</ele>
        <time>2014-06-27T13:27:55Z</time>
      </trkpt>
      <trkpt lat="45.6632" lon="2.94907">
        <ele>1017.3</ele>
        <time>2014-06-27T13:28:17Z</time>
      </trkpt>
      <trkpt lat="45.66369" lon="2.94804">
        <ele>1020.7</ele>
        <time>2014-06-27T13:28:55Z</time>
      </trkpt>
      <trkpt lat="45.66286" lon="2.94621">
        <ele>1025</ele>
        <time>2014-06-27T13:29:53Z</time>
      </trkpt>
      <trkpt lat="45.66223" lon="2.94489">
        <ele>1024.6</ele>
        <time>2014-06-27T13:30:27Z</time>
      </trkpt>
      <trkpt lat="45.66165" lon="2.94358">
        <ele>1023.7</ele>
        <time>2014-06-27T13:30:53Z</time>
      </trkpt>
      <trkpt lat="45.66112" lon="2.94194">
        <ele>1020.1</ele>
        <time>2014-06-27T13:31:17Z</time>
      </trkpt>
      <trkpt lat="45.66097" lon="2.94149">
        <ele>1019.7</ele>
        <time>2014-06-27T13:31:25Z</time>
      </trkpt>
      <trkpt lat="45.66019" lon="2.93963">
        <ele>1014.4</ele>
        <time>2014-06-27T13:31:51Z</time>
      </trkpt>
      <trkpt lat="45.65997" lon="2.93907">
        <ele>1012.9</ele>
        <time>2014-06-27T13:32:01Z</time>
      </trkpt>
      <trkpt lat="45.6599" lon="2.93752">
        <ele>1012.8</ele>
        <time>2014-06-27T13:32:25Z</time>
      </trkpt>
      <trkpt lat="45.65997" lon="2.93505">
        <ele>1015.2</ele>
        <time>2014-06-27T13:33:09Z</time>
      </trkpt>
      <trkpt lat="45.65999" lon="2.93309">
        <ele>1021.1</ele>
        <time>2014-06-27T13:33:57Z</time>
      </trkpt>
      <trkpt lat="45.66002" lon="2.93269">
        <ele>1024.5</ele>
        <time>2014-06-27T13:34:15Z</time>
      </trkpt>
      <trkpt lat="45.66006" lon="2.93189">
        <ele>1031.8</ele>
        <time>2014-06-27T13:34:49Z</time>
      </trkpt>
      <trkpt lat="45.66011" lon="2.93122">
        <ele>1036.2</ele>
        <time>2014-06-27T13:35:15Z</time>
      </trkpt>
      <trkpt lat="45.66003" lon="2.9299">
        <ele>1041.7</ele>
        <time>2014-06-27T13:36:07Z</time>
      </trkpt>
      <trkpt lat="45.65993" lon="2.92841">
        <ele>1047.5</ele>
        <time>2014-06-27T13:36:55Z</time>
      </trkpt>
      <trkpt lat="45.65993" lon="2.92784">
        <ele>1047</ele>
        <time>2014-06-27T13:37:11Z</time>
      </trkpt>
      <trkpt lat="45.65965" lon="2.92648">
        <ele>1040</ele>
        <time>2014-06-27T13:37:39Z</time>
      </trkpt>
      <trkpt lat="45.65935" lon="2.92571">
        <ele>1036.6</ele>
        <time>2014-06-27T13:37:51Z</time>
      </trkpt>
      <trkpt lat="45.65895" lon="2.92514">
        <ele>1033.3</ele>
        <time>2014-06-27T13:38:05Z</time>
      </trkpt>
      <trkpt lat="45.65792" lon="2.92428">
        <ele>1035.4</ele>
        <time>2014-06-27T13:38:43Z</time>
      </trkpt>
      <trkpt lat="45.65688" lon="2.9235">
        <ele>1031</ele>
        <time>2014-06-27T13:39:07Z</time>
      </trkpt>
      <trkpt lat="45.65646" lon="2.9228">
        <ele>1027.7</ele>
        <time>2014-06-27T13:39:15Z</time>
      </trkpt>
      <trkpt lat="45.6561" lon="2.92218">
        <ele>1023.9</ele>
        <time>2014-06-27T13:39:21Z</time>
      </trkpt>
      <trkpt lat="45.65559" lon="2.92126">
        <ele>1016.1</ele>
        <time>2014-06-27T13:39:29Z</time>
      </trkpt>
      <trkpt lat="45.65501" lon="2.92024">
        <ele>1010.8</ele>
        <time>2014-06-27T13:39:41Z</time>
      </trkpt>
      <trkpt lat="45.65462" lon="2.91954">
        <ele>1016.8</ele>
        <time>2014-06-27T13:40:03Z</time>
      </trkpt>
      <trkpt lat="45.65384" lon="2.91803">
        <ele>1021.3</ele>
        <time>2014-06-27T13:40:51Z</time>
      </trkpt>
      <trkpt lat="45.65354" lon="2.91748">
        <ele>1024.3</ele>
        <time>2014-06-27T13:41:13Z</time>
      </trkpt>
      <trkpt lat="45.65327" lon="2.91719">
        <ele>1027.3</ele>
        <time>2014-06-27T13:41:29Z</time>
      </trkpt>
      <trkpt lat="45.65316" lon="2.91669">
        <ele>1030.6</ele>
        <time>2014-06-27T13:41:47Z</time>
      </trkpt>
      <trkpt lat="45.65313" lon="2.91616">
        <ele>1032.2</ele>
        <time>2014-06-27T13:45:19Z</time>
      </trkpt>
      <trkpt lat="45.65399" lon="2.91583">
        <ele>1033.8</ele>
        <time>2014-06-27T13:46:01Z</time>
      </trkpt>
      <trkpt lat="45.65505" lon="2.9159">
        <ele>1030.9</ele>
        <time>2014-06-27T13:46:19Z</time>
      </trkpt>
      <trkpt lat="45.65654" lon="2.91495">
        <ele>1030.7</ele>
        <time>2014-06-27T13:46:59Z</time>
      </trkpt>
      <trkpt lat="45.65826" lon="2.91332">
        <ele>1025</ele>
        <time>2014-06-27T13:47:37Z</time>
      </trkpt>
      <trkpt lat="45.65899" lon="2.91268">
        <ele>1029.2</ele>
        <time>2014-06-27T13:48:01Z</time>
      </trkpt>
      <trkpt lat="45.65959" lon="2.91214">
        <ele>1032.4</ele>
        <time>2014-06-27T13:48:23Z</time>
      </trkpt>
      <trkpt lat="45.66056" lon="2.91125">
        <ele>1038.5</ele>
        <time>2014-06-27T13:49:09Z</time>
      </trkpt>
      <trkpt lat="45.66143" lon="2.91058">
        <ele>1043</ele>
        <time>2014-06-27T13:49:47Z</time>
      </trkpt>
      <trkpt lat="45.66196" lon="2.91027">
        <ele>1040.9</ele>
        <time>2014-06-27T13:50:07Z</time>
      </trkpt>
      <trkpt lat="45.6633" lon="2.91187">
        <ele>1036.5</ele>
        <time>2014-06-27T13:50:41Z</time>
      </trkpt>
      <trkpt lat="45.66588" lon="2.91506">
        <ele>1035</ele>
        <time>2014-06-27T13:52:03Z</time>
      </trkpt>
      <trkpt lat="45.66816" lon="2.91786">
        <ele>1029.5</ele>
        <time>2014-06-27T13:53:07Z</time>
      </trkpt>
      <trkpt lat="45.66887" lon="2.91871">
        <ele>1024.7</ele>
        <time>2014-06-27T13:53:19Z</time>
      </trkpt>
      <trkpt lat="45.66985" lon="2.9199">
        <ele>1017.2</ele>
        <time>2014-06-27T13:53:37Z</time>
      </trkpt>
      <trkpt lat="45.67111" lon="2.92129">
        <ele>1007.9</ele>
        <time>2014-06-27T13:54:13Z</time>
      </trkpt>
      <trkpt lat="45.67179" lon="2.92166">
        <ele>1000.8</ele>
        <time>2014-06-27T13:54:29Z</time>
      </trkpt>
      <trkpt lat="45.67234" lon="2.92208">
        <ele>995.4</ele>
        <time>2014-06-27T13:54:37Z</time>
      </trkpt>
      <trkpt lat="45.67275" lon="2.92196">
        <ele>992</ele>
        <time>2014-06-27T13:54:45Z</time>
      </trkpt>
      <trkpt lat="45.67362" lon="2.92141">
        <ele>990.7</ele>
        <time>2014-06-27T13:55:05Z</time>
      </trkpt>
      <trkpt lat="45.67555" lon="2.92008">
        <ele>986.3</ele>
        <time>2014-06-27T13:55:57Z</time>
      </trkpt>
      <trkpt lat="45.67738" lon="2.91871">
        <ele>986.1</ele>
        <time>2014-06-27T13:56:45Z</time>
      </trkpt>
      <trkpt lat="45.678" lon="2.91847">
        <ele>986</ele>
        <time>2014-06-27T13:57:03Z</time>
      </trkpt>
      <trkpt lat="45.67844" lon="2.91877">
        <ele>986.2</ele>
        <time>2014-06-27T13:57:15Z</time>
      </trkpt>
      <trkpt lat="45.68111" lon="2.92069">
        <ele>983.9</ele>
        <time>2014-06-27T13:58:23Z</time>
      </trkpt>
      <trkpt lat="45.68215" lon="2.92321">
        <ele>983</ele>
        <time>2014-06-27T13:59:11Z</time>
      </trkpt>
      <trkpt lat="45.68316" lon="2.92693">
        <ele>976.3</ele>
        <time>2014-06-27T14:00:01Z</time>
      </trkpt>
      <trkpt lat="45.68366" lon="2.92884">
        <ele>971</ele>
        <time>2014-06-27T14:00:21Z</time>
      </trkpt>
      <trkpt lat="45.68381" lon="2.92943">
        <ele>967.5</ele>
        <time>2014-06-27T14:00:27Z</time>
      </trkpt>
      <trkpt lat="45.68411" lon="2.93055">
        <ele>963.8</ele>
        <time>2014-06-27T14:00:37Z</time>
      </trkpt>
      <trkpt lat="45.68416" lon="2.93075">
        <ele>962.9</ele>
        <time>2014-06-27T14:00:39Z</time>
      </trkpt>
      <trkpt lat="45.68455" lon="2.9308">
        <ele>958.9</ele>
        <time>2014-06-27T14:00:51Z</time>
      </trkpt>
      <trkpt lat="45.68585" lon="2.93005">
        <ele>959</ele>
        <time>2014-06-27T14:01:31Z</time>
      </trkpt>
      <trkpt lat="45.68686" lon="2.9302">
        <ele>959.4</ele>
        <time>2014-06-27T14:01:59Z</time>
      </trkpt>
      <trkpt lat="45.68682" lon="2.9298">
        <ele>959.5</ele>
        <time>2014-06-27T14:02:09Z</time>
      </trkpt>
      <trkpt lat="45.68636" lon="2.92803">
        <ele>964.9</ele>
        <time>2014-06-27T14:02:55Z</time>
      </trkpt>
      <trkpt lat="45.68772" lon="2.92682">
        <ele>969.1</ele>
        <time>2014-06-27T14:03:55Z</time>
      </trkpt>
      <trkpt lat="45.6884" lon="2.92641">
        <ele>969.7</ele>
        <time>2014-06-27T14:04:17Z</time>
      </trkpt>
      <trkpt lat="45.68886" lon="2.92789">
        <ele>966.9</ele>
        <time>2014-06-27T14:04:45Z</time>
      </trkpt>
      <trkpt lat="45.68988" lon="2.92869">
        <ele>962.1</ele>
        <time>2014-06-27T14:05:03Z</time>
      </trkpt>
      <trkpt lat="45.69006" lon="2.92922">
        <ele>961.8</ele>
        <time>2014-06-27T14:05:15Z</time>
      </trkpt>
      <trkpt lat="45.6898" lon="2.93">
        <ele>964.8</ele>
        <time>2014-06-27T14:05:33Z</time>
      </trkpt>
      <trkpt lat="45.69022" lon="2.93101">
        <ele>967.2</ele>
        <time>2014-06-27T14:06:03Z</time>
      </trkpt>
      <trkpt lat="45.69115" lon="2.93269">
        <ele>970.8</ele>
        <time>2014-06-27T14:06:47Z</time>
      </trkpt>
      <trkpt lat="45.69157" lon="2.93334">
        <ele>974.6</ele>
        <time>2014-06-27T14:07:23Z</time>
      </trkpt>
      <trkpt lat="45.69166" lon="2.93371">
        <ele>979.8</ele>
        <time>2014-06-27T14:07:41Z</time>
      </trkpt>
      <trkpt lat="45.69168" lon="2.93438">
        <ele>983.6</ele>
        <time>2014-06-27T14:08:05Z</time>
      </trkpt>
      <trkpt lat="45.69188" lon="2.93502">
        <ele>986.8</ele>
        <time>2014-06-27T14:08:35Z</time>
      </trkpt>
      <trkpt lat="45.69243" lon="2.93654">
        <ele>991.1</ele>
        <time>2014-06-27T14:09:29Z</time>
      </trkpt>
      <trkpt lat="45.69295" lon="2.93776">
        <ele>992.2</ele>
        <time>2014-06-27T14:09:55Z</time>
      </trkpt>
      <trkpt lat="45.69387" lon="2.93986">
        <ele>989.5</ele>
        <time>2014-06-27T14:10:45Z</time>
      </trkpt>
      <trkpt lat="45.69437" lon="2.94072">
        <ele>989.3</ele>
        <time>2014-06-27T14:11:09Z</time>
      </trkpt>
      <trkpt lat="45.69537" lon="2.94241">
        <ele>994.2</ele>
        <time>2014-06-27T14:11:51Z</time>
      </trkpt>
      <trkpt lat="45.69614" lon="2.94372">
        <ele>992.2</ele>
        <time>2014-06-27T14:12:21Z</time>
      </trkpt>
      <trkpt lat="45.69656" lon="2.94468">
        <ele>991.3</ele>
        <time>2014-06-27T14:12:37Z</time>
      </trkpt>
      <trkpt lat="45.697" lon="2.94574">
        <ele>986.2</ele>
        <time>2014-06-27T14:12:53Z</time>
      </trkpt>
      <trkpt lat="45.69737" lon="2.94686">
        <ele>982.6</ele>
        <time>2014-06-27T14:13:09Z</time>
      </trkpt>
      <trkpt lat="45.6978" lon="2.94782">
        <ele>982.1</ele>
        <time>2014-06-27T14:13:33Z</time>
      </trkpt>
      <trkpt lat="45.69791" lon="2.94801">
        <ele>981.9</ele>
        <time>2014-06-27T14:13:41Z</time>
      </trkpt>
      <trkpt lat="45.69828" lon="2.94895">
        <ele>979.8</ele>
        <time>2014-06-27T14:14:05Z</time>
      </trkpt>
      <trkpt lat="45.69861" lon="2.94979">
        <ele>978.9</ele>
        <time>2014-06-27T14:14:19Z</time>
      </trkpt>
      <trkpt lat="45.69886" lon="2.95074">
        <ele>978.6</ele>
        <time>2014-06-27T14:14:31Z</time>
      </trkpt>
      <trkpt lat="45.69928" lon="2.95272">
        <ele>977.7</ele>
        <time>2014-06-27T14:15:05Z</time>
      </trkpt>
      <trkpt lat="45.69937" lon="2.95368">
        <ele>983.8</ele>
        <time>2014-06-27T14:15:37Z</time>
      </trkpt>
      <trkpt lat="45.69958" lon="2.95402">
        <ele>988.9</ele>
        <time>2014-06-27T14:15:59Z</time>
      </trkpt>
      <trkpt lat="45.69978" lon="2.95443">
        <ele>993</ele>
        <time>2014-06-27T14:16:19Z</time>
      </trkpt>
      <trkpt lat="45.6999" lon="2.95579">
        <ele>993.2</ele>
        <time>2014-06-27T14:16:57Z</time>
      </trkpt>
      <trkpt lat="45.70005" lon="2.9564">
        <ele>989.8</ele>
        <time>2014-06-27T14:17:07Z</time>
      </trkpt>
      <trkpt lat="45.70049" lon="2.95677">
        <ele>985.4</ele>
        <time>2014-06-27T14:17:19Z</time>
      </trkpt>
      <trkpt lat="45.70149" lon="2.95778">
        <ele>981.2</ele>
        <time>2014-06-27T14:17:47Z</time>
      </trkpt>
      <trkpt lat="45.70182" lon="2.95841">
        <ele>980.5</ele>
        <time>2014-06-27T14:17:57Z</time>
      </trkpt>
      <trkpt lat="45.70216" lon="2.95993">
        <ele>980.4</ele>
        <time>2014-06-27T14:18:21Z</time>
      </trkpt>
      <trkpt lat="45.70187" lon="2.96116">
        <ele>979.4</ele>
        <time>2014-06-27T14:18:45Z</time>
      </trkpt>
      <trkpt lat="45.70098" lon="2.96265">
        <ele>983.1</ele>
        <time>2014-06-27T14:19:19Z</time>
      </trkpt>
      <trkpt lat="45.70062" lon="2.96423">
        <ele>985</ele>
        <time>2014-06-27T14:19:47Z</time>
      </trkpt>
      <trkpt lat="45.70069" lon="2.965">
        <ele>981.3</ele>
        <time>2014-06-27T14:19:55Z</time>
      </trkpt>
      <trkpt lat="45.70098" lon="2.9659">
        <ele>974.6</ele>
        <time>2014-06-27T14:20:11Z</time>
      </trkpt>
      <trkpt lat="45.70106" lon="2.96653">
        <ele>971.1</ele>
        <time>2014-06-27T14:20:23Z</time>
      </trkpt>
      <trkpt lat="45.70188" lon="2.9674">
        <ele>969.6</ele>
        <time>2014-06-27T14:20:53Z</time>
      </trkpt>
      <trkpt lat="45.70252" lon="2.96773">
        <ele>974.3</ele>
        <time>2014-06-27T14:21:15Z</time>
      </trkpt>
      <trkpt lat="45.70339" lon="2.96832">
        <ele>977.4</ele>
        <time>2014-06-27T14:21:39Z</time>
      </trkpt>
      <trkpt lat="45.70477" lon="2.96928">
        <ele>971.8</ele>
        <time>2014-06-27T14:22:05Z</time>
      </trkpt>
      <trkpt lat="45.70537" lon="2.96981">
        <ele>967.6</ele>
        <time>2014-06-27T14:22:15Z</time>
      </trkpt>
      <trkpt lat="45.70592" lon="2.97033">
        <ele>962.6</ele>
        <time>2014-06-27T14:22:25Z</time>
      </trkpt>
      <trkpt lat="45.70697" lon="2.97046">
        <ele>957.6</ele>
        <time>2014-06-27T14:22:41Z</time>
      </trkpt>
      <trkpt lat="45.70768" lon="2.97073">
        <ele>954</ele>
        <time>2014-06-27T14:22:53Z</time>
      </trkpt>
      <trkpt lat="45.70828" lon="2.97134">
        <ele>952.9</ele>
        <time>2014-06-27T14:23:07Z</time>
      </trkpt>
      <trkpt lat="45.70922" lon="2.97205">
        <ele>953.6</ele>
        <time>2014-06-27T14:23:35Z</time>
      </trkpt>
      <trkpt lat="45.70974" lon="2.97216">
        <ele>951.4</ele>
        <time>2014-06-27T14:23:47Z</time>
      </trkpt>
      <trkpt lat="45.71042" lon="2.97225">
        <ele>951.7</ele>
        <time>2014-06-27T14:24:05Z</time>
      </trkpt>
      <trkpt lat="45.71232" lon="2.97148">
        <ele>953.7</ele>
        <time>2014-06-27T14:24:51Z</time>
      </trkpt>
      <trkpt lat="45.71307" lon="2.97122">
        <ele>954.9</ele>
        <time>2014-06-27T14:25:11Z</time>
      </trkpt>
      <trkpt lat="45.71422" lon="2.97105">
        <ele>949.2</ele>
        <time>2014-06-27T14:25:39Z</time>
      </trkpt>
      <trkpt lat="45.71473" lon="2.97106">
        <ele>946.2</ele>
        <time>2014-06-27T14:25:47Z</time>
      </trkpt>
      <trkpt lat="45.71519" lon="2.97083">
        <ele>942.2</ele>
        <time>2014-06-27T14:25:55Z</time>
      </trkpt>
      <trkpt lat="45.71554" lon="2.97084">
        <ele>938.2</ele>
        <time>2014-06-27T14:26:05Z</time>
      </trkpt>
      <trkpt lat="45.71579" lon="2.97115">
        <ele>935.2</ele>
        <time>2014-06-27T14:26:15Z</time>
      </trkpt>
      <trkpt lat="45.71628" lon="2.97234">
        <ele>931.7</ele>
        <time>2014-06-27T14:26:43Z</time>
      </trkpt>
      <trkpt lat="45.71689" lon="2.97433">
        <ele>927.5</ele>
        <time>2014-06-27T14:27:17Z</time>
      </trkpt>
      <trkpt lat="45.71727" lon="2.97576">
        <ele>921</ele>
        <time>2014-06-27T14:27:35Z</time>
      </trkpt>
      <trkpt lat="45.71719" lon="2.97681">
        <ele>918.7</ele>
        <time>2014-06-27T14:27:53Z</time>
      </trkpt>
      <trkpt lat="45.71718" lon="2.97838">
        <ele>917.3</ele>
        <time>2014-06-27T14:28:15Z</time>
      </trkpt>
      <trkpt lat="45.71697" lon="2.97986">
        <ele>913.5</ele>
        <time>2014-06-27T14:28:37Z</time>
      </trkpt>
      <trkpt lat="45.71643" lon="2.98189">
        <ele>910.2</ele>
        <time>2014-06-27T14:29:13Z</time>
      </trkpt>
      <trkpt lat="45.71616" lon="2.98242">
        <ele>907</ele>
        <time>2014-06-27T14:29:27Z</time>
      </trkpt>
      <trkpt lat="45.71559" lon="2.98318">
        <ele>905.5</ele>
        <time>2014-06-27T14:29:43Z</time>
      </trkpt>
      <trkpt lat="45.71504" lon="2.98429">
        <ele>901.7</ele>
        <time>2014-06-27T14:30:03Z</time>
      </trkpt>
      <trkpt lat="45.71468" lon="2.98518">
        <ele>902</ele>
        <time>2014-06-27T14:30:15Z</time>
      </trkpt>
      <trkpt lat="45.71365" lon="2.98684">
        <ele>900.7</ele>
        <time>2014-06-27T14:30:43Z</time>
      </trkpt>
      <trkpt lat="45.71332" lon="2.98758">
        <ele>899</ele>
        <time>2014-06-27T14:30:57Z</time>
      </trkpt>
      <trkpt lat="45.71275" lon="2.98831">
        <ele>894.1</ele>
        <time>2014-06-27T14:31:17Z</time>
      </trkpt>
      <trkpt lat="45.71249" lon="2.98921">
        <ele>887.7</ele>
        <time>2014-06-27T14:31:29Z</time>
      </trkpt>
      <trkpt lat="45.7119" lon="2.99009">
        <ele>880.1</ele>
        <time>2014-06-27T14:31:47Z</time>
      </trkpt>
      <trkpt lat="45.71163" lon="2.99065">
        <ele>876.2</ele>
        <time>2014-06-27T14:31:59Z</time>
      </trkpt>
      <trkpt lat="45.71138" lon="2.99124">
        <ele>876</ele>
        <time>2014-06-27T14:32:11Z</time>
      </trkpt>
      <trkpt lat="45.71076" lon="2.99233">
        <ele>878.6</ele>
        <time>2014-06-27T14:32:37Z</time>
      </trkpt>
      <trkpt lat="45.70997" lon="2.99368">
        <ele>874.9</ele>
        <time>2014-06-27T14:33:05Z</time>
      </trkpt>
      <trkpt lat="45.70903" lon="2.99516">
        <ele>869</ele>
        <time>2014-06-27T14:33:37Z</time>
      </trkpt>
      <trkpt lat="45.70863" lon="2.9957">
        <ele>864.2</ele>
        <time>2014-06-27T14:33:53Z</time>
      </trkpt>
      <trkpt lat="45.7076" lon="2.9974">
        <ele>862.6</ele>
        <time>2014-06-27T14:34:27Z</time>
      </trkpt>
      <trkpt lat="45.7066" lon="2.99879">
        <ele>856.9</ele>
        <time>2014-06-27T14:34:49Z</time>
      </trkpt>
      <trkpt lat="45.70619" lon="3.00012">
        <ele>853</ele>
        <time>2014-06-27T14:35:05Z</time>
      </trkpt>
      <trkpt lat="45.70626" lon="3.00098">
        <ele>849.1</ele>
        <time>2014-06-27T14:35:13Z</time>
      </trkpt>
      <trkpt lat="45.70633" lon="3.00192">
        <ele>845.9</ele>
        <time>2014-06-27T14:35:23Z</time>
      </trkpt>
      <trkpt lat="45.7066" lon="3.00309">
        <ele>842</ele>
        <time>2014-06-27T14:35:35Z</time>
      </trkpt>
      <trkpt lat="45.70622" lon="3.00374">
        <ele>838.5</ele>
        <time>2014-06-27T14:35:41Z</time>
      </trkpt>
      <trkpt lat="45.70557" lon="3.00436">
        <ele>833.7</ele>
        <time>2014-06-27T14:35:51Z</time>
      </trkpt>
      <trkpt lat="45.70424" lon="3.00542">
        <ele>831.1</ele>
        <time>2014-06-27T14:36:19Z</time>
      </trkpt>
      <trkpt lat="45.70449" lon="3.00616">
        <ele>831.2</ele>
        <time>2014-06-27T14:36:35Z</time>
      </trkpt>
      <trkpt lat="45.70461" lon="3.00726">
        <ele>830.3</ele>
        <time>2014-06-27T14:36:55Z</time>
      </trkpt>
      <trkpt lat="45.70497" lon="3.00948">
        <ele>829.4</ele>
        <time>2014-06-27T14:37:31Z</time>
      </trkpt>
      <trkpt lat="45.70498" lon="3.01131">
        <ele>827</ele>
        <time>2014-06-27T14:37:51Z</time>
      </trkpt>
      <trkpt lat="45.70544" lon="3.01349">
        <ele>823.4</ele>
        <time>2014-06-27T14:38:11Z</time>
      </trkpt>
      <trkpt lat="45.70512" lon="3.01587">
        <ele>818.4</ele>
        <time>2014-06-27T14:38:31Z</time>
      </trkpt>
      <trkpt lat="45.70496" lon="3.01753">
        <ele>816.2</ele>
        <time>2014-06-27T14:38:45Z</time>
      </trkpt>
      <trkpt lat="45.70378" lon="3.02005">
        <ele>810.9</ele>
        <time>2014-06-27T14:39:13Z</time>
      </trkpt>
      <trkpt lat="45.70378" lon="3.02185">
        <ele>808.1</ele>
        <time>2014-06-27T14:39:27Z</time>
      </trkpt>
      <trkpt lat="45.70332" lon="3.02278">
        <ele>808.5</ele>
        <time>2014-06-27T14:39:43Z</time>
      </trkpt>
      <trkpt lat="45.7032" lon="3.02339">
        <ele>813.2</ele>
        <time>2014-06-27T14:39:59Z</time>
      </trkpt>
      <trkpt lat="45.70319" lon="3.02393">
        <ele>816.4</ele>
        <time>2014-06-27T14:40:13Z</time>
      </trkpt>
      <trkpt lat="45.70315" lon="3.02455">
        <ele>820.8</ele>
        <time>2014-06-27T14:40:31Z</time>
      </trkpt>
      <trkpt lat="45.70311" lon="3.02547">
        <ele>826.5</ele>
        <time>2014-06-27T14:41:05Z</time>
      </trkpt>
      <trkpt lat="45.70295" lon="3.02649">
        <ele>831.8</ele>
        <time>2014-06-27T14:41:41Z</time>
      </trkpt>
      <trkpt lat="45.70254" lon="3.02741">
        <ele>837.7</ele>
        <time>2014-06-27T14:42:15Z</time>
      </trkpt>
      <trkpt lat="45.70219" lon="3.02778">
        <ele>841</ele>
        <time>2014-06-27T14:42:33Z</time>
      </trkpt>
      <trkpt lat="45.70057" lon="3.03089">
        <ele>841.9</ele>
        <time>2014-06-27T14:43:37Z</time>
      </trkpt>
      <trkpt lat="45.70034" lon="3.03127">
        <ele>842</ele>
        <time>2014-06-27T14:43:43Z</time>
      </trkpt>
      <trkpt lat="45.69898" lon="3.03159">
        <ele>845</ele>
        <time>2014-06-27T14:44:13Z</time>
      </trkpt>
      <trkpt lat="45.69799" lon="3.03173">
        <ele>848.6</ele>
        <time>2014-06-27T14:44:37Z</time>
      </trkpt>
      <trkpt lat="45.69684" lon="3.03208">
        <ele>852.8</ele>
        <time>2014-06-27T14:45:07Z</time>
      </trkpt>
      <trkpt lat="45.69568" lon="3.03243">
        <ele>858.6</ele>
        <time>2014-06-27T14:45:41Z</time>
      </trkpt>
      <trkpt lat="45.69487" lon="3.03271">
        <ele>863.3</ele>
        <time>2014-06-27T14:46:09Z</time>
      </trkpt>
      <trkpt lat="45.69349" lon="3.03351">
        <ele>868.2</ele>
        <time>2014-06-27T14:46:53Z</time>
      </trkpt>
      <trkpt lat="45.69222" lon="3.03388">
        <ele>873.3</ele>
        <time>2014-06-27T14:47:33Z</time>
      </trkpt>
      <trkpt lat="45.69176" lon="3.03433">
        <ele>873.9</ele>
        <time>2014-06-27T14:51:09Z</time>
      </trkpt>
      <trkpt lat="45.69117" lon="3.03485">
        <ele>872.1</ele>
        <time>2014-06-27T14:51:21Z</time>
      </trkpt>
      <trkpt lat="45.69024" lon="3.0349">
        <ele>869.1</ele>
        <time>2014-06-27T14:51:33Z</time>
      </trkpt>
      <trkpt lat="45.68927" lon="3.03356">
        <ele>865.7</ele>
        <time>2014-06-27T14:51:53Z</time>
      </trkpt>
      <trkpt lat="45.6884" lon="3.03336">
        <ele>862.7</ele>
        <time>2014-06-27T14:52:07Z</time>
      </trkpt>
      <trkpt lat="45.68826" lon="3.03418">
        <ele>860.8</ele>
        <time>2014-06-27T14:52:13Z</time>
      </trkpt>
      <trkpt lat="45.68776" lon="3.03516">
        <ele>855.6</ele>
        <time>2014-06-27T14:52:21Z</time>
      </trkpt>
      <trkpt lat="45.68723" lon="3.03542">
        <ele>852.1</ele>
        <time>2014-06-27T14:52:27Z</time>
      </trkpt>
      <trkpt lat="45.68699" lon="3.03592">
        <ele>848.9</ele>
        <time>2014-06-27T14:52:31Z</time>
      </trkpt>
      <trkpt lat="45.68694" lon="3.03685">
        <ele>845.1</ele>
        <time>2014-06-27T14:52:37Z</time>
      </trkpt>
      <trkpt lat="45.68705" lon="3.03877">
        <ele>836.8</ele>
        <time>2014-06-27T14:52:49Z</time>
      </trkpt>
      <trkpt lat="45.68695" lon="3.04015">
        <ele>830.1</ele>
        <time>2014-06-27T14:52:57Z</time>
      </trkpt>
      <trkpt lat="45.68651" lon="3.04189">
        <ele>821.2</ele>
        <time>2014-06-27T14:53:07Z</time>
      </trkpt>
      <trkpt lat="45.68628" lon="3.04341">
        <ele>812.8</ele>
        <time>2014-06-27T14:53:15Z</time>
      </trkpt>
      <trkpt lat="45.68625" lon="3.04413">
        <ele>808.3</ele>
        <time>2014-06-27T14:53:19Z</time>
      </trkpt>
      <trkpt lat="45.68627" lon="3.04533">
        <ele>802.5</ele>
        <time>2014-06-27T14:53:25Z</time>
      </trkpt>
      <trkpt lat="45.6862" lon="3.0463">
        <ele>798.1</ele>
        <time>2014-06-27T14:53:31Z</time>
      </trkpt>
      <trkpt lat="45.68628" lon="3.0474">
        <ele>795</ele>
        <time>2014-06-27T14:53:39Z</time>
      </trkpt>
      <trkpt lat="45.68587" lon="3.04915">
        <ele>793.6</ele>
        <time>2014-06-27T14:53:57Z</time>
      </trkpt>
      <trkpt lat="45.68591" lon="3.05088">
        <ele>790.2</ele>
        <time>2014-06-27T14:54:15Z</time>
      </trkpt>
      <trkpt lat="45.68563" lon="3.0523">
        <ele>786.6</ele>
        <time>2014-06-27T14:54:27Z</time>
      </trkpt>
      <trkpt lat="45.68491" lon="3.05469">
        <ele>784.5</ele>
        <time>2014-06-27T14:54:49Z</time>
      </trkpt>
      <trkpt lat="45.68494" lon="3.0567">
        <ele>787.4</ele>
        <time>2014-06-27T14:55:13Z</time>
      </trkpt>
      <trkpt lat="45.68464" lon="3.0587">
        <ele>785.2</ele>
        <time>2014-06-27T14:55:31Z</time>
      </trkpt>
      <trkpt lat="45.68464" lon="3.0596">
        <ele>782.2</ele>
        <time>2014-06-27T14:55:37Z</time>
      </trkpt>
      <trkpt lat="45.68454" lon="3.061">
        <ele>775.9</ele>
        <time>2014-06-27T14:55:47Z</time>
      </trkpt>
      <trkpt lat="45.68418" lon="3.06172">
        <ele>770.6</ele>
        <time>2014-06-27T14:56:19Z</time>
      </trkpt>
      <trkpt lat="45.68389" lon="3.0617">
        <ele>770.6</ele>
        <time>2014-06-27T14:56:37Z</time>
      </trkpt>
      <trkpt lat="45.6837" lon="3.06278">
        <ele>765.1</ele>
        <time>2014-06-27T14:57:07Z</time>
      </trkpt>
      <trkpt lat="45.68345" lon="3.06305">
        <ele>764.4</ele>
        <time>2014-06-16T12:56:29Z</time>
      </trkpt>
      <trkpt lat="45.68371" lon="3.0626">
        <ele>769.2</ele>
        <time>2014-06-16T12:56:49Z</time>
      </trkpt>
      <trkpt lat="45.68397" lon="3.06172">
        <ele>773.5</ele>
        <time>2014-06-16T12:57:09Z</time>
      </trkpt>
      <trkpt lat="45.68414" lon="3.06176">
        <ele>773.5</ele>
        <time>2014-06-16T12:58:09Z</time>
      </trkpt>
      <trkpt lat="45.68451" lon="3.06008">
        <ele>779.8</ele>
        <time>2014-06-16T12:58:29Z</time>
      </trkpt>
      <trkpt lat="45.68472" lon="3.05663">
        <ele>791.8</ele>
        <time>2014-06-16T12:59:09Z</time>
      </trkpt>
      <trkpt lat="45.68426" lon="3.05589">
        <ele>800</ele>
        <time>2014-06-16T12:59:29Z</time>
      </trkpt>
      <trkpt lat="45.68388" lon="3.05477">
        <ele>809.1</ele>
        <time>2014-06-16T12:59:49Z</time>
      </trkpt>
      <trkpt lat="45.6832" lon="3.05441">
        <ele>815.8</ele>
        <time>2014-06-16T13:00:09Z</time>
      </trkpt>
      <trkpt lat="45.68284" lon="3.05365">
        <ele>821.6</ele>
        <time>2014-06-16T13:00:29Z</time>
      </trkpt>
      <trkpt lat="45.68254" lon="3.05269">
        <ele>825.9</ele>
        <time>2014-06-16T13:00:49Z</time>
      </trkpt>
      <trkpt lat="45.68238" lon="3.05168">
        <ele>833.6</ele>
        <time>2014-06-16T13:01:09Z</time>
      </trkpt>
      <trkpt lat="45.68166" lon="3.05093">
        <ele>838.9</ele>
        <time>2014-06-16T13:01:29Z</time>
      </trkpt>
      <trkpt lat="45.68085" lon="3.05031">
        <ele>842.3</ele>
        <time>2014-06-16T13:01:49Z</time>
      </trkpt>
      <trkpt lat="45.68016" lon="3.0495">
        <ele>847.5</ele>
        <time>2014-06-16T13:02:09Z</time>
      </trkpt>
      <trkpt lat="45.6802" lon="3.04847">
        <ele>850.9</ele>
        <time>2014-06-16T13:02:29Z</time>
      </trkpt>
      <trkpt lat="45.68053" lon="3.04779">
        <ele>855.2</ele>
        <time>2014-06-16T13:02:49Z</time>
      </trkpt>
      <trkpt lat="45.6807" lon="3.04668">
        <ele>862.9</ele>
        <time>2014-06-16T13:03:09Z</time>
      </trkpt>
      <trkpt lat="45.68108" lon="3.04578">
        <ele>872.1</ele>
        <time>2014-06-16T13:03:29Z</time>
      </trkpt>
      <trkpt lat="45.68116" lon="3.04471">
        <ele>881.2</ele>
        <time>2014-06-16T13:03:49Z</time>
      </trkpt>
      <trkpt lat="45.68094" lon="3.04353">
        <ele>890.3</ele>
        <time>2014-06-16T13:04:09Z</time>
      </trkpt>
      <trkpt lat="45.68055" lon="3.04262">
        <ele>897</ele>
        <time>2014-06-16T13:04:29Z</time>
      </trkpt>
      <trkpt lat="45.68026" lon="3.04113">
        <ele>900.9</ele>
        <time>2014-06-16T13:05:09Z</time>
      </trkpt>
      <trkpt lat="45.68054" lon="3.03886">
        <ele>907.6</ele>
        <time>2014-06-16T13:05:49Z</time>
      </trkpt>
      <trkpt lat="45.68057" lon="3.03779">
        <ele>912.4</ele>
        <time>2014-06-16T13:06:09Z</time>
      </trkpt>
      <trkpt lat="45.68078" lon="3.0351">
        <ele>920.1</ele>
        <time>2014-06-16T13:06:49Z</time>
      </trkpt>
      <trkpt lat="45.68093" lon="3.0341">
        <ele>924.4</ele>
        <time>2014-06-16T13:07:09Z</time>
      </trkpt>
      <trkpt lat="45.68173" lon="3.03392">
        <ele>931.7</ele>
        <time>2014-06-16T13:07:29Z</time>
      </trkpt>
      <trkpt lat="45.68175" lon="3.03287">
        <ele>939.3</ele>
        <time>2014-06-16T13:07:49Z</time>
      </trkpt>
      <trkpt lat="45.68166" lon="3.03163">
        <ele>947</ele>
        <time>2014-06-16T13:08:09Z</time>
      </trkpt>
      <trkpt lat="45.68175" lon="3.03016">
        <ele>950.4</ele>
        <time>2014-06-16T13:08:29Z</time>
      </trkpt>
      <trkpt lat="45.68153" lon="3.02777">
        <ele>954.7</ele>
        <time>2014-06-16T13:09:09Z</time>
      </trkpt>
      <trkpt lat="45.68185" lon="3.02602">
        <ele>949.9</ele>
        <time>2014-06-16T13:09:49Z</time>
      </trkpt>
      <trkpt lat="45.6822" lon="3.02578">
        <ele>950.9</ele>
        <time>2014-06-16T13:10:09Z</time>
      </trkpt>
      <trkpt lat="45.68262" lon="3.02656">
        <ele>950.9</ele>
        <time>2014-06-16T13:10:29Z</time>
      </trkpt>
      <trkpt lat="45.68401" lon="3.02931">
        <ele>946.6</ele>
        <time>2014-06-16T13:11:49Z</time>
      </trkpt>
      <trkpt lat="45.68441" lon="3.02947">
        <ele>943.2</ele>
        <time>2014-06-16T13:12:09Z</time>
      </trkpt>
      <trkpt lat="45.68524" lon="3.02987">
        <ele>938.9</ele>
        <time>2014-06-16T13:12:49Z</time>
      </trkpt>
      <trkpt lat="45.68652" lon="3.02766">
        <ele>946.6</ele>
        <time>2014-06-16T13:13:29Z</time>
      </trkpt>
      <trkpt lat="45.68691" lon="3.02674">
        <ele>949.9</ele>
        <time>2014-06-16T13:13:49Z</time>
      </trkpt>
      <trkpt lat="45.68793" lon="3.02754">
        <ele>942.2</ele>
        <time>2014-06-16T13:14:49Z</time>
      </trkpt>
      <trkpt lat="45.6882" lon="3.02786">
        <ele>938.9</ele>
        <time>2014-06-16T13:15:09Z</time>
      </trkpt>
      <trkpt lat="45.68846" lon="3.02874">
        <ele>933.1</ele>
        <time>2014-06-16T13:15:49Z</time>
      </trkpt>
      <trkpt lat="45.68887" lon="3.02956">
        <ele>926.4</ele>
        <time>2014-06-16T13:16:29Z</time>
      </trkpt>
      <trkpt lat="45.68954" lon="3.02989">
        <ele>920.6</ele>
        <time>2014-06-16T13:17:09Z</time>
      </trkpt>
      <trkpt lat="45.69003" lon="3.03039">
        <ele>912.9</ele>
        <time>2014-06-16T13:17:49Z</time>
      </trkpt>
      <trkpt lat="45.69029" lon="3.03113">
        <ele>904.7</ele>
        <time>2014-06-16T13:18:49Z</time>
      </trkpt>
      <trkpt lat="45.68973" lon="3.03231">
        <ele>896.1</ele>
        <time>2014-06-16T13:19:49Z</time>
      </trkpt>
      <trkpt lat="45.6901" lon="3.03379">
        <ele>887.4</ele>
        <time>2014-06-16T13:20:49Z</time>
      </trkpt>
      <trkpt lat="45.69043" lon="3.03422">
        <ele>883.6</ele>
        <time>2014-06-16T13:21:09Z</time>
      </trkpt>
      <trkpt lat="45.69142" lon="3.03398">
        <ele>879.7</ele>
        <time>2014-06-16T13:21:49Z</time>
      </trkpt>
      <trkpt lat="45.6922" lon="3.03421">
        <ele>874</ele>
        <time>2014-06-16T13:22:29Z</time>
      </trkpt>
      <trkpt lat="45.69262" lon="3.03462">
        <ele>869.2</ele>
        <time>2014-06-16T13:23:09Z</time>
      </trkpt>
      <trkpt lat="45.69291" lon="3.03476">
        <ele>864.8</ele>
        <time>2014-06-16T13:23:49Z</time>
      </trkpt>
      <trkpt lat="45.69333" lon="3.03523">
        <ele>858.6</ele>
        <time>2014-06-16T13:25:09Z</time>
      </trkpt>
      <trkpt lat="45.69374" lon="3.03617">
        <ele>849</ele>
        <time>2014-06-16T13:26:09Z</time>
      </trkpt>
      <trkpt lat="45.69378" lon="3.03651">
        <ele>844.2</ele>
        <time>2014-06-16T13:26:29Z</time>
      </trkpt>
      <trkpt lat="45.69414" lon="3.03714">
        <ele>838.4</ele>
        <time>2014-06-16T13:27:09Z</time>
      </trkpt>
      <trkpt lat="45.69471" lon="3.0376">
        <ele>829.3</ele>
        <time>2014-06-16T13:28:29Z</time>
      </trkpt>
      <trkpt lat="45.69462" lon="3.03772">
        <ele>824.9</ele>
        <time>2014-06-16T13:29:09Z</time>
      </trkpt>
      <trkpt lat="45.69476" lon="3.03769">
        <ele>827.8</ele>
        <time>2014-06-16T13:33:09Z</time>
      </trkpt>
      <trkpt lat="45.69488" lon="3.03856">
        <ele>824</ele>
        <time>2014-06-16T13:34:29Z</time>
      </trkpt>
      <trkpt lat="45.69513" lon="3.04001">
        <ele>814.9</ele>
        <time>2014-06-16T13:35:29Z</time>
      </trkpt>
      <trkpt lat="45.69516" lon="3.04086">
        <ele>809.6</ele>
        <time>2014-06-16T13:36:09Z</time>
      </trkpt>
      <trkpt lat="45.6954" lon="3.04294">
        <ele>797.6</ele>
        <time>2014-06-16T13:37:29Z</time>
      </trkpt>
      <trkpt lat="45.69555" lon="3.04344">
        <ele>794.2</ele>
        <time>2014-06-16T13:37:49Z</time>
      </trkpt>
      <trkpt lat="45.6955" lon="3.04401">
        <ele>790.8</ele>
        <time>2014-06-16T13:38:09Z</time>
      </trkpt>
      <trkpt lat="45.6952" lon="3.04505">
        <ele>786.5</ele>
        <time>2014-06-16T13:38:49Z</time>
      </trkpt>
      <trkpt lat="45.69483" lon="3.04452">
        <ele>776.9</ele>
        <time>2014-06-16T13:40:09Z</time>
      </trkpt>
      <trkpt lat="45.69424" lon="3.04478">
        <ele>766.8</ele>
        <time>2014-06-16T13:42:09Z</time>
      </trkpt>
      <trkpt lat="45.69371" lon="3.04476">
        <ele>757.7</ele>
        <time>2014-06-16T13:43:09Z</time>
      </trkpt>
      <trkpt lat="45.69394" lon="3.04409">
        <ele>750.9</ele>
        <time>2014-06-16T13:43:49Z</time>
      </trkpt>
      <trkpt lat="45.69349" lon="3.04353">
        <ele>741.8</ele>
        <time>2014-06-16T13:44:29Z</time>
      </trkpt>
      <trkpt lat="45.69276" lon="3.04306">
        <ele>733.1</ele>
        <time>2014-06-16T13:45:49Z</time>
      </trkpt>
      <trkpt lat="45.69228" lon="3.04272">
        <ele>723</ele>
        <time>2014-06-16T13:46:49Z</time>
      </trkpt>
      <trkpt lat="45.69194" lon="3.04253">
        <ele>716.3</ele>
        <time>2014-06-16T13:47:29Z</time>
      </trkpt>
      <trkpt lat="45.6916" lon="3.0428">
        <ele>706.7</ele>
        <time>2014-06-16T13:48:29Z</time>
      </trkpt>
      <trkpt lat="45.69177" lon="3.04331">
        <ele>699</ele>
        <time>2014-06-16T13:49:29Z</time>
      </trkpt>
      <trkpt lat="45.69161" lon="3.04379">
        <ele>688.9</ele>
        <time>2014-06-16T13:50:29Z</time>
      </trkpt>
      <trkpt lat="45.69159" lon="3.04431">
        <ele>685.1</ele>
        <time>2014-06-16T13:50:49Z</time>
      </trkpt>
      <trkpt lat="45.69128" lon="3.04522">
        <ele>678.8</ele>
        <time>2014-06-16T13:51:29Z</time>
      </trkpt>
      <trkpt lat="45.69108" lon="3.04614">
        <ele>672.1</ele>
        <time>2014-06-16T13:52:09Z</time>
      </trkpt>
      <trkpt lat="45.69088" lon="3.04652">
        <ele>667.3</ele>
        <time>2014-06-16T13:52:29Z</time>
      </trkpt>
      <trkpt lat="45.691" lon="3.04783">
        <ele>667.8</ele>
        <time>2014-06-16T13:53:29Z</time>
      </trkpt>
      <trkpt lat="45.69076" lon="3.04853">
        <ele>663.9</ele>
        <time>2014-06-16T13:54:09Z</time>
      </trkpt>
      <trkpt lat="45.69069" lon="3.04904">
        <ele>658.2</ele>
        <time>2014-06-16T13:54:49Z</time>
      </trkpt>
      <trkpt lat="45.69065" lon="3.05009">
        <ele>649</ele>
        <time>2014-06-16T13:55:49Z</time>
      </trkpt>
      <trkpt lat="45.69101" lon="3.05192">
        <ele>642.8</ele>
        <time>2014-06-16T13:56:49Z</time>
      </trkpt>
      <trkpt lat="45.69222" lon="3.05366">
        <ele>634.1</ele>
        <time>2014-06-16T13:58:09Z</time>
      </trkpt>
      <trkpt lat="45.69286" lon="3.05431">
        <ele>629.3</ele>
        <time>2014-06-16T13:58:49Z</time>
      </trkpt>
      <trkpt lat="45.69308" lon="3.05465">
        <ele>625.5</ele>
        <time>2014-06-16T13:59:09Z</time>
      </trkpt>
      <trkpt lat="45.69345" lon="3.05557">
        <ele>616.8</ele>
        <time>2014-06-16T13:59:49Z</time>
      </trkpt>
      <trkpt lat="45.69282" lon="3.05581">
        <ele>621.1</ele>
        <time>2014-06-16T14:00:29Z</time>
      </trkpt>
      <trkpt lat="45.6912" lon="3.05353">
        <ele>640.4</ele>
        <time>2014-06-16T14:01:09Z</time>
      </trkpt>
      <trkpt lat="45.69058" lon="3.05283">
        <ele>653.4</ele>
        <time>2014-06-16T14:01:29Z</time>
      </trkpt>
      <trkpt lat="45.68995" lon="3.05174">
        <ele>663</ele>
        <time>2014-06-16T14:01:49Z</time>
      </trkpt>
      <trkpt lat="45.68947" lon="3.05232">
        <ele>671.1</ele>
        <time>2014-06-16T14:02:09Z</time>
      </trkpt>
      <trkpt lat="45.68909" lon="3.05321">
        <ele>680.3</ele>
        <time>2014-06-16T14:02:29Z</time>
      </trkpt>
      <trkpt lat="45.68846" lon="3.05395">
        <ele>688.4</ele>
        <time>2014-06-16T14:02:49Z</time>
      </trkpt>
      <trkpt lat="45.68818" lon="3.05451">
        <ele>695.2</ele>
        <time>2014-06-16T14:03:09Z</time>
      </trkpt>
      <trkpt lat="45.68825" lon="3.05519">
        <ele>704.3</ele>
        <time>2014-06-16T14:03:29Z</time>
      </trkpt>
      <trkpt lat="45.68818" lon="3.05623">
        <ele>716.8</ele>
        <time>2014-06-16T14:03:49Z</time>
      </trkpt>
      <trkpt lat="45.68782" lon="3.05707">
        <ele>725</ele>
        <time>2014-06-16T14:04:09Z</time>
      </trkpt>
      <trkpt lat="45.68776" lon="3.0582">
        <ele>728.3</ele>
        <time>2014-06-16T14:04:49Z</time>
      </trkpt>
      <trkpt lat="45.68792" lon="3.06175">
        <ele>733.6</ele>
        <time>2014-06-16T14:05:49Z</time>
      </trkpt>
      <trkpt lat="45.68795" lon="3.06272">
        <ele>732.2</ele>
        <time>2014-06-16T14:06:09Z</time>
      </trkpt>
      <trkpt lat="45.68615" lon="3.06552">
        <ele>735.1</ele>
        <time>2014-06-16T14:07:09Z</time>
      </trkpt>
      <trkpt lat="45.68557" lon="3.06646">
        <ele>735.1</ele>
        <time>2014-06-16T14:07:29Z</time>
      </trkpt>
      <trkpt lat="45.68463" lon="3.0676">
        <ele>732.2</ele>
        <time>2014-06-16T14:08:09Z</time>
      </trkpt>
      <trkpt lat="45.68466" lon="3.06533">
        <ele>743.2</ele>
        <time>2014-06-16T14:08:29Z</time>
      </trkpt>
      <trkpt lat="45.68446" lon="3.06153">
        <ele>753.8</ele>
        <time>2014-06-16T14:09:09Z</time>
      </trkpt>
      <trkpt lat="45.6838" lon="3.06179">
        <ele>753.8</ele>
        <time>2014-06-16T14:10:09Z</time>
      </trkpt>
      <trkpt lat="45.68368" lon="3.0622">
        <ele>750.4</ele>
        <time>2014-06-16T14:10:29Z</time>
      </trkpt>
      <trkpt lat="45.68365" lon="3.06281">
        <ele>747.1</ele>
        <time>2014-06-16T14:10:49Z</time>
      </trkpt>
      <trkpt lat="45.68342" lon="3.06315">
        <ele>744.2</ele>
        <time>2014-06-16T14:11:49Z</time>
      </trkpt>
      <trkpt lat="45.68348" lon="3.06314">
        <ele>754.8</ele>
        <time>2014-06-16T14:13:49Z</time>
      </trkpt>
      <trkpt lat="45.68352" lon="3.06311">
        <ele>754.8</ele>
        <time>2014-06-16T14:15:29Z</time>
      </trkpt>
      <trkpt lat="45.68364" lon="3.06322">
        <ele>755.7</ele>
        <time>2014-06-16T14:19:29Z</time>
      </trkpt>
      <trkpt lat="45.68364" lon="3.06294">
        <ele>753.3</ele>
        <time>2014-06-17T11:30:03Z</time>
      </trkpt>
      <trkpt lat="45.68389" lon="3.06172">
        <ele>758.6</ele>
        <time>2014-06-17T11:30:29Z</time>
      </trkpt>
      <trkpt lat="45.68418" lon="3.06177">
        <ele>758.1</ele>
        <time>2014-06-17T11:31:03Z</time>
      </trkpt>
      <trkpt lat="45.68445" lon="3.06111">
        <ele>760.3</ele>
        <time>2014-06-17T11:31:17Z</time>
      </trkpt>
      <trkpt lat="45.68451" lon="3.06033">
        <ele>763.4</ele>
        <time>2014-06-17T11:31:25Z</time>
      </trkpt>
      <trkpt lat="45.68447" lon="3.05867">
        <ele>769.1</ele>
        <time>2014-06-17T11:31:39Z</time>
      </trkpt>
      <trkpt lat="45.68449" lon="3.05767">
        <ele>773.2</ele>
        <time>2014-06-17T11:31:53Z</time>
      </trkpt>
      <trkpt lat="45.68362" lon="3.05728">
        <ele>779.3</ele>
        <time>2014-06-17T11:32:19Z</time>
      </trkpt>
      <trkpt lat="45.6831" lon="3.057">
        <ele>780</ele>
        <time>2014-06-17T11:33:02Z</time>
      </trkpt>
      <trkpt lat="45.68285" lon="3.05666">
        <ele>772</ele>
        <time>2014-06-17T11:33:50Z</time>
      </trkpt>
      <trkpt lat="45.68243" lon="3.05628">
        <ele>765.3</ele>
        <time>2014-06-17T11:34:22Z</time>
      </trkpt>
      <trkpt lat="45.68195" lon="3.05537">
        <ele>764.8</ele>
        <time>2014-06-17T11:35:06Z</time>
      </trkpt>
      <trkpt lat="45.68203" lon="3.05465">
        <ele>769.3</ele>
        <time>2014-06-17T11:35:24Z</time>
      </trkpt>
      <trkpt lat="45.68215" lon="3.05399">
        <ele>775.7</ele>
        <time>2014-06-17T11:35:42Z</time>
      </trkpt>
      <trkpt lat="45.68182" lon="3.05269">
        <ele>779.8</ele>
        <time>2014-06-17T11:36:12Z</time>
      </trkpt>
      <trkpt lat="45.68101" lon="3.05164">
        <ele>785.4</ele>
        <time>2014-06-17T11:36:58Z</time>
      </trkpt>
      <trkpt lat="45.68017" lon="3.05127">
        <ele>784.8</ele>
        <time>2014-06-17T11:37:36Z</time>
      </trkpt>
      <trkpt lat="45.67926" lon="3.0512">
        <ele>774.7</ele>
        <time>2014-06-17T11:39:18Z</time>
      </trkpt>
      <trkpt lat="45.67908" lon="3.05157">
        <ele>767.5</ele>
        <time>2014-06-17T11:40:12Z</time>
      </trkpt>
      <trkpt lat="45.67893" lon="3.05189">
        <ele>763.3</ele>
        <time>2014-06-17T11:40:42Z</time>
      </trkpt>
      <trkpt lat="45.67888" lon="3.05223">
        <ele>756.6</ele>
        <time>2014-06-17T11:41:32Z</time>
      </trkpt>
      <trkpt lat="45.67887" lon="3.05284">
        <ele>745.3</ele>
        <time>2014-06-17T11:42:40Z</time>
      </trkpt>
      <trkpt lat="45.67909" lon="3.05325">
        <ele>741.8</ele>
        <time>2014-06-17T11:44:00Z</time>
      </trkpt>
      <trkpt lat="45.67934" lon="3.05402">
        <ele>733.2</ele>
        <time>2014-06-17T11:45:10Z</time>
      </trkpt>
      <trkpt lat="45.6794" lon="3.05451">
        <ele>725.8</ele>
        <time>2014-06-17T11:45:54Z</time>
      </trkpt>
      <trkpt lat="45.6794" lon="3.05495">
        <ele>719.9</ele>
        <time>2014-06-17T11:46:22Z</time>
      </trkpt>
      <trkpt lat="45.67934" lon="3.05575">
        <ele>712.9</ele>
        <time>2014-06-17T11:47:02Z</time>
      </trkpt>
      <trkpt lat="45.67928" lon="3.05633">
        <ele>710.1</ele>
        <time>2014-06-17T11:48:50Z</time>
      </trkpt>
      <trkpt lat="45.67915" lon="3.05735">
        <ele>704.3</ele>
        <time>2014-06-17T11:50:01Z</time>
      </trkpt>
      <trkpt lat="45.67916" lon="3.05878">
        <ele>698.9</ele>
        <time>2014-06-17T11:50:57Z</time>
      </trkpt>
      <trkpt lat="45.67923" lon="3.0592">
        <ele>696.6</ele>
        <time>2014-06-17T11:51:15Z</time>
      </trkpt>
      <trkpt lat="45.67919" lon="3.06026">
        <ele>692.2</ele>
        <time>2014-06-17T11:51:55Z</time>
      </trkpt>
      <trkpt lat="45.67918" lon="3.06082">
        <ele>685.6</ele>
        <time>2014-06-17T11:52:29Z</time>
      </trkpt>
      <trkpt lat="45.67899" lon="3.06126">
        <ele>679.4</ele>
        <time>2014-06-17T11:52:59Z</time>
      </trkpt>
      <trkpt lat="45.67878" lon="3.06181">
        <ele>673.3</ele>
        <time>2014-06-17T11:53:31Z</time>
      </trkpt>
      <trkpt lat="45.67869" lon="3.06257">
        <ele>666.8</ele>
        <time>2014-06-17T11:54:01Z</time>
      </trkpt>
      <trkpt lat="45.67861" lon="3.06297">
        <ele>663.7</ele>
        <time>2014-06-17T11:54:13Z</time>
      </trkpt>
      <trkpt lat="45.67771" lon="3.06454">
        <ele>663.5</ele>
        <time>2014-06-17T11:54:53Z</time>
      </trkpt>
      <trkpt lat="45.67687" lon="3.06487">
        <ele>665.5</ele>
        <time>2014-06-17T11:55:19Z</time>
      </trkpt>
      <trkpt lat="45.67672" lon="3.06595">
        <ele>666.9</ele>
        <time>2014-06-17T11:55:43Z</time>
      </trkpt>
      <trkpt lat="45.67658" lon="3.06647">
        <ele>667</ele>
        <time>2014-06-17T11:56:52Z</time>
      </trkpt>
      <trkpt lat="45.6763" lon="3.06736">
        <ele>664.6</ele>
        <time>2014-06-17T11:57:22Z</time>
      </trkpt>
      <trkpt lat="45.67611" lon="3.06814">
        <ele>665.9</ele>
        <time>2014-06-17T11:59:04Z</time>
      </trkpt>
      <trkpt lat="45.67761" lon="3.06844">
        <ele>665.2</ele>
        <time>2014-06-17T12:01:46Z</time>
      </trkpt>
      <trkpt lat="45.67844" lon="3.06832">
        <ele>665.8</ele>
        <time>2014-06-17T12:02:10Z</time>
      </trkpt>
      <trkpt lat="45.6792" lon="3.0684">
        <ele>669.2</ele>
        <time>2014-06-17T12:02:26Z</time>
      </trkpt>
      <trkpt lat="45.68021" lon="3.0687">
        <ele>677.6</ele>
        <time>2014-06-17T12:02:44Z</time>
      </trkpt>
      <trkpt lat="45.68054" lon="3.06868">
        <ele>681.2</ele>
        <time>2014-06-17T12:02:52Z</time>
      </trkpt>
      <trkpt lat="45.68112" lon="3.06875">
        <ele>687.9</ele>
        <time>2014-06-17T12:03:12Z</time>
      </trkpt>
      <trkpt lat="45.68158" lon="3.06882">
        <ele>695.1</ele>
        <time>2014-06-17T12:03:30Z</time>
      </trkpt>
      <trkpt lat="45.68225" lon="3.06917">
        <ele>705.5</ele>
        <time>2014-06-17T12:03:58Z</time>
      </trkpt>
      <trkpt lat="45.6827" lon="3.06942">
        <ele>710.7</ele>
        <time>2014-06-17T12:04:20Z</time>
      </trkpt>
      <trkpt lat="45.68335" lon="3.06981">
        <ele>722.5</ele>
        <time>2014-06-17T12:05:02Z</time>
      </trkpt>
      <trkpt lat="45.68411" lon="3.06876">
        <ele>731.7</ele>
        <time>2014-06-17T12:05:28Z</time>
      </trkpt>
      <trkpt lat="45.68464" lon="3.06765">
        <ele>738.7</ele>
        <time>2014-06-17T12:05:45Z</time>
      </trkpt>
      <trkpt lat="45.68461" lon="3.06637">
        <ele>745.4</ele>
        <time>2014-06-17T12:05:57Z</time>
      </trkpt>
      <trkpt lat="45.68468" lon="3.06466">
        <ele>748.5</ele>
        <time>2014-06-17T12:06:11Z</time>
      </trkpt>
      <trkpt lat="45.68454" lon="3.06337">
        <ele>751.9</ele>
        <time>2014-06-17T12:06:23Z</time>
      </trkpt>
      <trkpt lat="45.68448" lon="3.06225">
        <ele>755.3</ele>
        <time>2014-06-17T12:06:35Z</time>
      </trkpt>
      <trkpt lat="45.68418" lon="3.0616">
        <ele>757</ele>
        <time>2014-06-17T12:07:05Z</time>
      </trkpt>
      <trkpt lat="45.68367" lon="3.06259">
        <ele>750.8</ele>
        <time>2014-06-17T12:08:07Z</time>
      </trkpt>
      <trkpt lat="45.68334" lon="3.06325">
        <ele>757.7</ele>
        <time>2014-06-17T12:13:34Z</time>
      </trkpt>
      <trkpt lat="45.68438" lon="3.06122">
        <ele>763.4</ele>
        <time>2014-06-17T15:53:54Z</time>
      </trkpt>
      <trkpt lat="45.68437" lon="3.06129">
        <ele>763.4</ele>
        <time>2014-06-17T15:54:38Z</time>
      </trkpt>
      <trkpt lat="45.68441" lon="3.06136">
        <ele>761.8</ele>
        <time>2014-06-17T15:56:26Z</time>
      </trkpt>
      <trkpt lat="45.68451" lon="3.06331">
        <ele>755.4</ele>
        <time>2014-06-17T15:57:22Z</time>
      </trkpt>
      <trkpt lat="45.68464" lon="3.06453">
        <ele>751.6</ele>
        <time>2014-06-17T15:58:00Z</time>
      </trkpt>
      <trkpt lat="45.68455" lon="3.06673">
        <ele>742.8</ele>
        <time>2014-06-17T15:59:08Z</time>
      </trkpt>
      <trkpt lat="45.68457" lon="3.06743">
        <ele>739.7</ele>
        <time>2014-06-17T15:59:28Z</time>
      </trkpt>
      <trkpt lat="45.6843" lon="3.06889">
        <ele>733.7</ele>
        <time>2014-06-17T16:00:24Z</time>
      </trkpt>
      <trkpt lat="45.68341" lon="3.06994">
        <ele>729</ele>
        <time>2014-06-17T16:02:02Z</time>
      </trkpt>
      <trkpt lat="45.68306" lon="3.0697">
        <ele>723.2</ele>
        <time>2014-06-17T16:02:54Z</time>
      </trkpt>
      <trkpt lat="45.68259" lon="3.06939">
        <ele>715.4</ele>
        <time>2014-06-17T16:04:00Z</time>
      </trkpt>
      <trkpt lat="45.68196" lon="3.06898">
        <ele>705.4</ele>
        <time>2014-06-17T16:06:19Z</time>
      </trkpt>
      <trkpt lat="45.68158" lon="3.06878">
        <ele>699</ele>
        <time>2014-06-17T16:06:49Z</time>
      </trkpt>
      <trkpt lat="45.68111" lon="3.06872">
        <ele>693</ele>
        <time>2014-06-17T16:07:25Z</time>
      </trkpt>
      <trkpt lat="45.68079" lon="3.06868">
        <ele>687.7</ele>
        <time>2014-06-17T16:07:55Z</time>
      </trkpt>
      <trkpt lat="45.68023" lon="3.06868">
        <ele>678.9</ele>
        <time>2014-06-17T16:08:37Z</time>
      </trkpt>
      <trkpt lat="45.67994" lon="3.06867">
        <ele>675.8</ele>
        <time>2014-06-17T16:08:51Z</time>
      </trkpt>
      <trkpt lat="45.67885" lon="3.06833">
        <ele>672.2</ele>
        <time>2014-06-17T16:09:29Z</time>
      </trkpt>
      <trkpt lat="45.67816" lon="3.06835">
        <ele>671.9</ele>
        <time>2014-06-17T16:09:49Z</time>
      </trkpt>
      <trkpt lat="45.67554" lon="3.0687">
        <ele>673.3</ele>
        <time>2014-06-17T16:11:05Z</time>
      </trkpt>
      <trkpt lat="45.67498" lon="3.06884">
        <ele>673.3</ele>
        <time>2014-06-17T16:11:21Z</time>
      </trkpt>
      <trkpt lat="45.67366" lon="3.06931">
        <ele>671.4</ele>
        <time>2014-06-17T16:12:01Z</time>
      </trkpt>
      <trkpt lat="45.67201" lon="3.06991">
        <ele>669.3</ele>
        <time>2014-06-17T16:12:55Z</time>
      </trkpt>
      <trkpt lat="45.67149" lon="3.07011">
        <ele>665</ele>
        <time>2014-06-17T16:13:42Z</time>
      </trkpt>
      <trkpt lat="45.67112" lon="3.07046">
        <ele>662</ele>
        <time>2014-06-17T16:15:05Z</time>
      </trkpt>
      <trkpt lat="45.67096" lon="3.07027">
        <ele>656.5</ele>
        <time>2014-06-17T16:15:23Z</time>
      </trkpt>
      <trkpt lat="45.67062" lon="3.07009">
        <ele>649.8</ele>
        <time>2014-06-17T16:15:53Z</time>
      </trkpt>
      <trkpt lat="45.67022" lon="3.06988">
        <ele>643.4</ele>
        <time>2014-06-17T16:16:29Z</time>
      </trkpt>
      <trkpt lat="45.67001" lon="3.06976">
        <ele>638.9</ele>
        <time>2014-06-17T16:16:51Z</time>
      </trkpt>
      <trkpt lat="45.66985" lon="3.0696">
        <ele>635.2</ele>
        <time>2014-06-17T16:17:09Z</time>
      </trkpt>
      <trkpt lat="45.66939" lon="3.06897">
        <ele>623.3</ele>
        <time>2014-06-17T16:18:05Z</time>
      </trkpt>
      <trkpt lat="45.6692" lon="3.06845">
        <ele>616.6</ele>
        <time>2014-06-17T16:18:35Z</time>
      </trkpt>
      <trkpt lat="45.66902" lon="3.06807">
        <ele>613.6</ele>
        <time>2014-06-17T16:18:51Z</time>
      </trkpt>
      <trkpt lat="45.66859" lon="3.0676">
        <ele>607.5</ele>
        <time>2014-06-17T16:19:19Z</time>
      </trkpt>
      <trkpt lat="45.66808" lon="3.06744">
        <ele>604.1</ele>
        <time>2014-06-17T16:19:45Z</time>
      </trkpt>
      <trkpt lat="45.6676" lon="3.06835">
        <ele>601.7</ele>
        <time>2014-06-17T16:20:23Z</time>
      </trkpt>
      <trkpt lat="45.66757" lon="3.069">
        <ele>598.3</ele>
        <time>2014-06-17T16:20:43Z</time>
      </trkpt>
      <trkpt lat="45.66745" lon="3.06946">
        <ele>595.2</ele>
        <time>2014-06-17T16:21:01Z</time>
      </trkpt>
      <trkpt lat="45.66706" lon="3.07013">
        <ele>589</ele>
        <time>2014-06-17T16:21:35Z</time>
      </trkpt>
      <trkpt lat="45.66679" lon="3.0706">
        <ele>585.8</ele>
        <time>2014-06-17T16:21:57Z</time>
      </trkpt>
      <trkpt lat="45.66642" lon="3.07156">
        <ele>579.4</ele>
        <time>2014-06-17T16:22:29Z</time>
      </trkpt>
      <trkpt lat="45.66616" lon="3.07199">
        <ele>576.3</ele>
        <time>2014-06-17T16:22:45Z</time>
      </trkpt>
      <trkpt lat="45.66508" lon="3.0725">
        <ele>570.5</ele>
        <time>2014-06-17T16:23:25Z</time>
      </trkpt>
      <trkpt lat="45.66412" lon="3.07298">
        <ele>568</ele>
        <time>2014-06-17T16:24:03Z</time>
      </trkpt>
      <trkpt lat="45.6639" lon="3.07281">
        <ele>566.9</ele>
        <time>2014-06-17T16:24:48Z</time>
      </trkpt>
      <trkpt lat="45.66365" lon="3.07277">
        <ele>563</ele>
        <time>2014-06-17T16:26:36Z</time>
      </trkpt>
      <trkpt lat="45.66346" lon="3.07265">
        <ele>555.8</ele>
        <time>2014-06-17T16:27:24Z</time>
      </trkpt>
      <trkpt lat="45.66341" lon="3.07278">
        <ele>554</ele>
        <time>2014-06-17T16:27:50Z</time>
      </trkpt>
      <trkpt lat="45.66345" lon="3.07346">
        <ele>550.2</ele>
        <time>2014-06-17T16:28:14Z</time>
      </trkpt>
      <trkpt lat="45.66377" lon="3.07424">
        <ele>542.3</ele>
        <time>2014-06-17T16:28:48Z</time>
      </trkpt>
      <trkpt lat="45.66432" lon="3.07542">
        <ele>539.5</ele>
        <time>2014-06-17T16:29:14Z</time>
      </trkpt>
      <trkpt lat="45.66444" lon="3.07673">
        <ele>538.9</ele>
        <time>2014-06-17T16:29:36Z</time>
      </trkpt>
      <trkpt lat="45.66342" lon="3.07823">
        <ele>537.8</ele>
        <time>2014-06-17T16:30:08Z</time>
      </trkpt>
      <trkpt lat="45.66274" lon="3.07824">
        <ele>540.8</ele>
        <time>2014-06-17T16:30:30Z</time>
      </trkpt>
      <trkpt lat="45.66256" lon="3.0788">
        <ele>541.2</ele>
        <time>2014-06-17T16:30:52Z</time>
      </trkpt>
      <trkpt lat="45.6622" lon="3.07824">
        <ele>541.8</ele>
        <time>2014-06-17T16:31:10Z</time>
      </trkpt>
      <trkpt lat="45.66119" lon="3.07831">
        <ele>545.7</ele>
        <time>2014-06-17T16:31:36Z</time>
      </trkpt>
      <trkpt lat="45.66109" lon="3.07875">
        <ele>545.2</ele>
        <time>2014-06-17T16:31:48Z</time>
      </trkpt>
      <trkpt lat="45.66131" lon="3.08005">
        <ele>537.4</ele>
        <time>2014-06-17T16:32:24Z</time>
      </trkpt>
      <trkpt lat="45.66149" lon="3.08092">
        <ele>532.5</ele>
        <time>2014-06-17T16:32:50Z</time>
      </trkpt>
      <trkpt lat="45.66185" lon="3.08196">
        <ele>531.1</ele>
        <time>2014-06-17T16:33:16Z</time>
      </trkpt>
      <trkpt lat="45.6618" lon="3.08404">
        <ele>524.2</ele>
        <time>2014-06-17T16:34:06Z</time>
      </trkpt>
      <trkpt lat="45.66213" lon="3.0857">
        <ele>520.9</ele>
        <time>2014-06-17T16:34:42Z</time>
      </trkpt>
      <trkpt lat="45.66176" lon="3.0871">
        <ele>515.4</ele>
        <time>2014-06-17T16:35:16Z</time>
      </trkpt>
      <trkpt lat="45.6613" lon="3.08897">
        <ele>513.1</ele>
        <time>2014-06-17T16:35:59Z</time>
      </trkpt>
      <trkpt lat="45.66119" lon="3.08969">
        <ele>510.1</ele>
        <time>2014-06-17T16:36:25Z</time>
      </trkpt>
      <trkpt lat="45.66104" lon="3.08986">
        <ele>510</ele>
        <time>2014-06-17T16:36:41Z</time>
      </trkpt>
      <trkpt lat="45.66037" lon="3.08891">
        <ele>508</ele>
        <time>2014-06-17T16:37:10Z</time>
      </trkpt>
      <trkpt lat="45.6594" lon="3.08789">
        <ele>512.1</ele>
        <time>2014-06-17T16:37:36Z</time>
      </trkpt>
      <trkpt lat="45.65875" lon="3.08759">
        <ele>515.5</ele>
        <time>2014-06-17T16:37:46Z</time>
      </trkpt>
      <trkpt lat="45.65853" lon="3.08746">
        <ele>517.3</ele>
        <time>2014-06-17T16:37:50Z</time>
      </trkpt>
      <trkpt lat="45.65785" lon="3.087">
        <ele>519.7</ele>
        <time>2014-06-17T16:38:04Z</time>
      </trkpt>
      <trkpt lat="45.65752" lon="3.08696">
        <ele>518.9</ele>
        <time>2014-06-17T16:38:16Z</time>
      </trkpt>
      <trkpt lat="45.6567" lon="3.08686">
        <ele>520</ele>
        <time>2014-06-17T16:38:52Z</time>
      </trkpt>
      <trkpt lat="45.65638" lon="3.08503">
        <ele>525.8</ele>
        <time>2014-06-17T16:39:14Z</time>
      </trkpt>
      <trkpt lat="45.65642" lon="3.08435">
        <ele>528.2</ele>
        <time>2014-06-17T16:39:54Z</time>
      </trkpt>
      <trkpt lat="45.65636" lon="3.08286">
        <ele>530</ele>
        <time>2014-06-17T16:40:22Z</time>
      </trkpt>
      <trkpt lat="45.65611" lon="3.08231">
        <ele>528.9</ele>
        <time>2014-06-17T16:40:40Z</time>
      </trkpt>
      <trkpt lat="45.65575" lon="3.082">
        <ele>526.6</ele>
        <time>2014-06-17T16:40:58Z</time>
      </trkpt>
      <trkpt lat="45.65516" lon="3.08147">
        <ele>519.4</ele>
        <time>2014-06-17T16:41:32Z</time>
      </trkpt>
      <trkpt lat="45.65505" lon="3.08142">
        <ele>520.3</ele>
        <time>2014-06-17T16:41:40Z</time>
      </trkpt>
      <trkpt lat="45.65472" lon="3.08141">
        <ele>524.3</ele>
        <time>2014-06-17T16:41:52Z</time>
      </trkpt>
      <trkpt lat="45.65424" lon="3.08171">
        <ele>526.3</ele>
        <time>2014-06-17T16:42:04Z</time>
      </trkpt>
      <trkpt lat="45.65334" lon="3.0829">
        <ele>526.5</ele>
        <time>2014-06-17T16:42:36Z</time>
      </trkpt>
      <trkpt lat="45.65308" lon="3.08297">
        <ele>532.1</ele>
        <time>2014-06-17T16:42:58Z</time>
      </trkpt>
      <trkpt lat="45.65275" lon="3.08176">
        <ele>538.9</ele>
        <time>2014-06-17T16:43:14Z</time>
      </trkpt>
      <trkpt lat="45.65173" lon="3.08012">
        <ele>548.8</ele>
        <time>2014-06-17T16:43:40Z</time>
      </trkpt>
      <trkpt lat="45.65131" lon="3.07996">
        <ele>555.2</ele>
        <time>2014-06-17T16:43:48Z</time>
      </trkpt>
      <trkpt lat="45.65096" lon="3.07981">
        <ele>558.8</ele>
        <time>2014-06-17T16:43:52Z</time>
      </trkpt>
      <trkpt lat="45.65028" lon="3.07947">
        <ele>566.3</ele>
        <time>2014-06-17T16:44:04Z</time>
      </trkpt>
      <trkpt lat="45.64997" lon="3.07934">
        <ele>573.8</ele>
        <time>2014-06-17T16:44:16Z</time>
      </trkpt>
      <trkpt lat="45.64954" lon="3.07904">
        <ele>580.2</ele>
        <time>2014-06-17T16:44:32Z</time>
      </trkpt>
      <trkpt lat="45.649" lon="3.07857">
        <ele>592.3</ele>
        <time>2014-06-17T16:45:06Z</time>
      </trkpt>
      <trkpt lat="45.64878" lon="3.0783">
        <ele>595.5</ele>
        <time>2014-06-17T16:45:14Z</time>
      </trkpt>
      <trkpt lat="45.64844" lon="3.07787">
        <ele>598.8</ele>
        <time>2014-06-17T16:46:15Z</time>
      </trkpt>
      <trkpt lat="45.64748" lon="3.07654">
        <ele>601</ele>
        <time>2014-06-17T16:46:51Z</time>
      </trkpt>
      <trkpt lat="45.64719" lon="3.07593">
        <ele>604.3</ele>
        <time>2014-06-17T16:47:03Z</time>
      </trkpt>
      <trkpt lat="45.64656" lon="3.07562">
        <ele>606.8</ele>
        <time>2014-06-17T16:49:53Z</time>
      </trkpt>
      <trkpt lat="45.64548" lon="3.07498">
        <ele>614.7</ele>
        <time>2014-06-17T16:50:20Z</time>
      </trkpt>
      <trkpt lat="45.64513" lon="3.07373">
        <ele>620.3</ele>
        <time>2014-06-17T16:50:48Z</time>
      </trkpt>
      <trkpt lat="45.64474" lon="3.07344">
        <ele>619.8</ele>
        <time>2014-06-17T16:51:09Z</time>
      </trkpt>
      <trkpt lat="45.64419" lon="3.07328">
        <ele>615.9</ele>
        <time>2014-06-17T16:51:34Z</time>
      </trkpt>
      <trkpt lat="45.64418" lon="3.07333">
        <ele>615.2</ele>
        <time>2014-06-17T16:51:56Z</time>
      </trkpt>
      <trkpt lat="45.64382" lon="3.07292">
        <ele>615.1</ele>
        <time>2014-06-17T16:52:28Z</time>
      </trkpt>
      <trkpt lat="45.64399" lon="3.07147">
        <ele>617.8</ele>
        <time>2014-06-17T16:53:14Z</time>
      </trkpt>
      <trkpt lat="45.64401" lon="3.07107">
        <ele>621.8</ele>
        <time>2014-06-17T16:53:38Z</time>
      </trkpt>
      <trkpt lat="45.64424" lon="3.07077">
        <ele>625.2</ele>
        <time>2014-06-17T16:54:16Z</time>
      </trkpt>
      <trkpt lat="45.64389" lon="3.0702">
        <ele>627.2</ele>
        <time>2014-06-17T16:54:44Z</time>
      </trkpt>
      <trkpt lat="45.64385" lon="3.06987">
        <ele>629.9</ele>
        <time>2014-06-17T16:55:10Z</time>
      </trkpt>
      <trkpt lat="45.64394" lon="3.06923">
        <ele>635.5</ele>
        <time>2014-06-17T16:55:52Z</time>
      </trkpt>
      <trkpt lat="45.64401" lon="3.06853">
        <ele>641.2</ele>
        <time>2014-06-17T16:56:48Z</time>
      </trkpt>
      <trkpt lat="45.64331" lon="3.06763">
        <ele>645.1</ele>
        <time>2014-06-17T16:57:14Z</time>
      </trkpt>
      <trkpt lat="45.64289" lon="3.06664">
        <ele>644.7</ele>
        <time>2014-06-17T16:58:33Z</time>
      </trkpt>
      <trkpt lat="45.64317" lon="3.06566">
        <ele>643.6</ele>
        <time>2014-06-17T17:03:56Z</time>
      </trkpt>
      <trkpt lat="45.64358" lon="3.06543">
        <ele>649.1</ele>
        <time>2014-06-17T17:04:43Z</time>
      </trkpt>
      <trkpt lat="45.64356" lon="3.06543">
        <ele>647.6</ele>
        <time>2014-06-17T17:05:14Z</time>
      </trkpt>
      <trkpt lat="45.64339" lon="3.06556">
        <ele>644.6</ele>
        <time>2014-06-17T17:05:33Z</time>
      </trkpt>
      <trkpt lat="45.64307" lon="3.06574">
        <ele>641</ele>
        <time>2014-06-17T17:06:18Z</time>
      </trkpt>
      <trkpt lat="45.64308" lon="3.06557">
        <ele>641.1</ele>
        <time>2014-06-17T17:06:47Z</time>
      </trkpt>
      <trkpt lat="45.64238" lon="3.06593">
        <ele>635.6</ele>
        <time>2014-06-17T17:07:30Z</time>
      </trkpt>
      <trkpt lat="45.64258" lon="3.06594">
        <ele>638.3</ele>
        <time>2014-06-17T17:07:52Z</time>
      </trkpt>
      <trkpt lat="45.64305" lon="3.06574">
        <ele>641.4</ele>
        <time>2014-06-17T17:08:20Z</time>
      </trkpt>
      <trkpt lat="45.64331" lon="3.06545">
        <ele>638.5</ele>
        <time>2014-06-17T17:08:48Z</time>
      </trkpt>
      <trkpt lat="45.64398" lon="3.06474">
        <ele>637</ele>
        <time>2014-06-17T17:09:20Z</time>
      </trkpt>
      <trkpt lat="45.64428" lon="3.06371">
        <ele>641.2</ele>
        <time>2014-06-17T17:09:44Z</time>
      </trkpt>
      <trkpt lat="45.64471" lon="3.06264">
        <ele>644.4</ele>
        <time>2014-06-17T17:10:10Z</time>
      </trkpt>
      <trkpt lat="45.64494" lon="3.06188">
        <ele>650.4</ele>
        <time>2014-06-17T17:10:36Z</time>
      </trkpt>
      <trkpt lat="45.64515" lon="3.06109">
        <ele>659</ele>
        <time>2014-06-17T17:11:14Z</time>
      </trkpt>
      <trkpt lat="45.64521" lon="3.06067">
        <ele>663.5</ele>
        <time>2014-06-17T17:11:24Z</time>
      </trkpt>
      <trkpt lat="45.64504" lon="3.06015">
        <ele>667.8</ele>
        <time>2014-06-17T17:11:38Z</time>
      </trkpt>
      <trkpt lat="45.64525" lon="3.05977">
        <ele>670</ele>
        <time>2014-06-17T17:11:50Z</time>
      </trkpt>
      <trkpt lat="45.64563" lon="3.05913">
        <ele>677</ele>
        <time>2014-06-17T17:12:14Z</time>
      </trkpt>
      <trkpt lat="45.64593" lon="3.05864">
        <ele>684</ele>
        <time>2014-06-17T17:12:40Z</time>
      </trkpt>
      <trkpt lat="45.64605" lon="3.05847">
        <ele>688.6</ele>
        <time>2014-06-17T17:13:08Z</time>
      </trkpt>
      <trkpt lat="45.64631" lon="3.05819">
        <ele>695.1</ele>
        <time>2014-06-17T17:13:40Z</time>
      </trkpt>
      <trkpt lat="45.6466" lon="3.0579">
        <ele>700.6</ele>
        <time>2014-06-17T17:14:00Z</time>
      </trkpt>
      <trkpt lat="45.64685" lon="3.05739">
        <ele>707.6</ele>
        <time>2014-06-17T17:14:22Z</time>
      </trkpt>
      <trkpt lat="45.64703" lon="3.05702">
        <ele>711.9</ele>
        <time>2014-06-17T17:14:50Z</time>
      </trkpt>
      <trkpt lat="45.64701" lon="3.05696">
        <ele>711.5</ele>
        <time>2014-06-17T17:15:02Z</time>
      </trkpt>
      <trkpt lat="45.64677" lon="3.05637">
        <ele>714.5</ele>
        <time>2014-06-17T17:17:39Z</time>
      </trkpt>
      <trkpt lat="45.6466" lon="3.05639">
        <ele>714.2</ele>
        <time>2014-06-17T17:18:13Z</time>
      </trkpt>
      <trkpt lat="45.64637" lon="3.05656">
        <ele>710.2</ele>
        <time>2014-06-17T17:18:34Z</time>
      </trkpt>
      <trkpt lat="45.64604" lon="3.05723">
        <ele>703.7</ele>
        <time>2014-06-17T17:19:10Z</time>
      </trkpt>
      <trkpt lat="45.64489" lon="3.05716">
        <ele>712.4</ele>
        <time>2014-06-17T17:19:49Z</time>
      </trkpt>
      <trkpt lat="45.64452" lon="3.05713">
        <ele>711.7</ele>
        <time>2014-06-17T17:20:06Z</time>
      </trkpt>
      <trkpt lat="45.64435" lon="3.05759">
        <ele>705.3</ele>
        <time>2014-06-17T17:20:30Z</time>
      </trkpt>
      <trkpt lat="45.64368" lon="3.05803">
        <ele>708.2</ele>
        <time>2014-06-17T17:21:02Z</time>
      </trkpt>
      <trkpt lat="45.64227" lon="3.06012">
        <ele>708.4</ele>
        <time>2014-06-17T17:22:20Z</time>
      </trkpt>
      <trkpt lat="45.642" lon="3.06081">
        <ele>701.9</ele>
        <time>2014-06-17T17:23:02Z</time>
      </trkpt>
      <trkpt lat="45.64182" lon="3.06103">
        <ele>701.4</ele>
        <time>2014-06-17T17:24:26Z</time>
      </trkpt>
      <trkpt lat="45.64147" lon="3.06135">
        <ele>700.2</ele>
        <time>2014-06-17T17:25:50Z</time>
      </trkpt>
      <trkpt lat="45.64201" lon="3.06104">
        <ele>697.5</ele>
        <time>2014-06-17T17:26:49Z</time>
      </trkpt>
      <trkpt lat="45.64212" lon="3.0613">
        <ele>693.9</ele>
        <time>2014-06-17T17:27:29Z</time>
      </trkpt>
      <trkpt lat="45.64231" lon="3.06153">
        <ele>688.8</ele>
        <time>2014-06-17T17:27:58Z</time>
      </trkpt>
      <trkpt lat="45.64248" lon="3.06166">
        <ele>684.9</ele>
        <time>2014-06-17T17:28:19Z</time>
      </trkpt>
      <trkpt lat="45.64267" lon="3.06178">
        <ele>681.2</ele>
        <time>2014-06-17T17:28:38Z</time>
      </trkpt>
      <trkpt lat="45.64274" lon="3.06189">
        <ele>678.9</ele>
        <time>2014-06-17T17:28:48Z</time>
      </trkpt>
      <trkpt lat="45.64294" lon="3.06202">
        <ele>678.1</ele>
        <time>2014-06-17T17:29:29Z</time>
      </trkpt>
      <trkpt lat="45.64264" lon="3.06179">
        <ele>684.7</ele>
        <time>2014-06-17T17:30:16Z</time>
      </trkpt>
      <trkpt lat="45.64223" lon="3.06141">
        <ele>693.9</ele>
        <time>2014-06-17T17:31:15Z</time>
      </trkpt>
      <trkpt lat="45.64211" lon="3.06118">
        <ele>697.6</ele>
        <time>2014-06-17T17:31:50Z</time>
      </trkpt>
      <trkpt lat="45.64226" lon="3.06084">
        <ele>700.2</ele>
        <time>2014-06-17T17:32:13Z</time>
      </trkpt>
      <trkpt lat="45.64258" lon="3.06017">
        <ele>702.3</ele>
        <time>2014-06-17T17:32:44Z</time>
      </trkpt>
      <trkpt lat="45.64316" lon="3.05969">
        <ele>698.9</ele>
        <time>2014-06-17T17:33:46Z</time>
      </trkpt>
      <trkpt lat="45.64295" lon="3.05987">
        <ele>701.8</ele>
        <time>2014-06-17T17:35:16Z</time>
      </trkpt>
      <trkpt lat="45.64282" lon="3.05981">
        <ele>704.9</ele>
        <time>2014-06-17T17:36:55Z</time>
      </trkpt>
      <trkpt lat="45.64313" lon="3.05872">
        <ele>710.4</ele>
        <time>2014-06-17T17:37:25Z</time>
      </trkpt>
      <trkpt lat="45.64332" lon="3.05843">
        <ele>709</ele>
        <time>2014-06-17T17:37:37Z</time>
      </trkpt>
      <trkpt lat="45.6444" lon="3.05714">
        <ele>712.5</ele>
        <time>2014-06-17T17:38:29Z</time>
      </trkpt>
      <trkpt lat="45.64487" lon="3.05744">
        <ele>710.2</ele>
        <time>2014-06-17T17:39:14Z</time>
      </trkpt>
      <trkpt lat="45.64531" lon="3.05735">
        <ele>704</ele>
        <time>2014-06-17T17:39:55Z</time>
      </trkpt>
      <trkpt lat="45.64601" lon="3.05732">
        <ele>705.8</ele>
        <time>2014-06-17T17:40:29Z</time>
      </trkpt>
      <trkpt lat="45.64645" lon="3.05646">
        <ele>714.7</ele>
        <time>2014-06-17T17:40:58Z</time>
      </trkpt>
      <trkpt lat="45.6466" lon="3.05633">
        <ele>713.7</ele>
        <time>2014-06-17T17:41:57Z</time>
      </trkpt>
      <trkpt lat="45.64677" lon="3.05638">
        <ele>715.6</ele>
        <time>2014-06-17T17:42:46Z</time>
      </trkpt>
      <trkpt lat="45.64663" lon="3.0561">
        <ele>722.1</ele>
        <time>2014-06-17T17:43:02Z</time>
      </trkpt>
      <trkpt lat="45.6465" lon="3.05563">
        <ele>725.6</ele>
        <time>2014-06-17T17:43:10Z</time>
      </trkpt>
      <trkpt lat="45.64618" lon="3.05483">
        <ele>729.5</ele>
        <time>2014-06-17T17:43:20Z</time>
      </trkpt>
      <trkpt lat="45.64579" lon="3.054">
        <ele>733</ele>
        <time>2014-06-17T17:43:36Z</time>
      </trkpt>
      <trkpt lat="45.6456" lon="3.05347">
        <ele>732.8</ele>
        <time>2014-06-17T17:43:46Z</time>
      </trkpt>
      <trkpt lat="45.64535" lon="3.05262">
        <ele>730.9</ele>
        <time>2014-06-17T17:44:12Z</time>
      </trkpt>
      <trkpt lat="45.64655" lon="3.05294">
        <ele>735.8</ele>
        <time>2014-06-17T17:45:11Z</time>
      </trkpt>
      <trkpt lat="45.6475" lon="3.0537">
        <ele>732</ele>
        <time>2014-06-17T17:45:45Z</time>
      </trkpt>
      <trkpt lat="45.64812" lon="3.0544">
        <ele>735.1</ele>
        <time>2014-06-17T17:46:03Z</time>
      </trkpt>
      <trkpt lat="45.64891" lon="3.05554">
        <ele>740.9</ele>
        <time>2014-06-17T17:46:23Z</time>
      </trkpt>
      <trkpt lat="45.64991" lon="3.05555">
        <ele>743.8</ele>
        <time>2014-06-17T17:46:45Z</time>
      </trkpt>
      <trkpt lat="45.64996" lon="3.05555">
        <ele>744</ele>
        <time>2014-06-17T17:46:47Z</time>
      </trkpt>
      <trkpt lat="45.65026" lon="3.05565">
        <ele>736.9</ele>
        <time>2014-06-17T17:47:47Z</time>
      </trkpt>
      <trkpt lat="45.65017" lon="3.05629">
        <ele>732.8</ele>
        <time>2014-06-17T17:48:11Z</time>
      </trkpt>
      <trkpt lat="45.65009" lon="3.05706">
        <ele>728.6</ele>
        <time>2014-06-17T17:48:43Z</time>
      </trkpt>
      <trkpt lat="45.65014" lon="3.05716">
        <ele>728.3</ele>
        <time>2014-06-17T17:49:36Z</time>
      </trkpt>
      <trkpt lat="45.65081" lon="3.0572">
        <ele>721.4</ele>
        <time>2014-06-17T17:50:12Z</time>
      </trkpt>
      <trkpt lat="45.65149" lon="3.05749">
        <ele>717</ele>
        <time>2014-06-17T17:50:42Z</time>
      </trkpt>
      <trkpt lat="45.6516" lon="3.05747">
        <ele>717.2</ele>
        <time>2014-06-17T17:51:46Z</time>
      </trkpt>
      <trkpt lat="45.65204" lon="3.05725">
        <ele>713.8</ele>
        <time>2014-06-17T17:52:10Z</time>
      </trkpt>
      <trkpt lat="45.65249" lon="3.05646">
        <ele>713.5</ele>
        <time>2014-06-17T17:52:42Z</time>
      </trkpt>
      <trkpt lat="45.65265" lon="3.05616">
        <ele>714.1</ele>
        <time>2014-06-17T17:54:07Z</time>
      </trkpt>
      <trkpt lat="45.65242" lon="3.05662">
        <ele>712.9</ele>
        <time>2014-06-17T17:54:26Z</time>
      </trkpt>
      <trkpt lat="45.65245" lon="3.05661">
        <ele>714.5</ele>
        <time>2014-06-17T17:55:21Z</time>
      </trkpt>
      <trkpt lat="45.65266" lon="3.05658">
        <ele>710.4</ele>
        <time>2014-06-17T17:55:53Z</time>
      </trkpt>
      <trkpt lat="45.65256" lon="3.05785">
        <ele>701.4</ele>
        <time>2014-06-17T17:56:49Z</time>
      </trkpt>
      <trkpt lat="45.65222" lon="3.05857">
        <ele>697</ele>
        <time>2014-06-17T17:57:25Z</time>
      </trkpt>
      <trkpt lat="45.65209" lon="3.05889">
        <ele>692.5</ele>
        <time>2014-06-17T17:57:43Z</time>
      </trkpt>
      <trkpt lat="45.65219" lon="3.05949">
        <ele>686.2</ele>
        <time>2014-06-17T17:58:11Z</time>
      </trkpt>
      <trkpt lat="45.6522" lon="3.05995">
        <ele>683.2</ele>
        <time>2014-06-17T17:58:31Z</time>
      </trkpt>
      <trkpt lat="45.65137" lon="3.06002">
        <ele>680.7</ele>
        <time>2014-06-17T17:59:03Z</time>
      </trkpt>
      <trkpt lat="45.65055" lon="3.0604">
        <ele>681.1</ele>
        <time>2014-06-17T17:59:34Z</time>
      </trkpt>
      <trkpt lat="45.64982" lon="3.06162">
        <ele>682.1</ele>
        <time>2014-06-17T18:00:16Z</time>
      </trkpt>
      <trkpt lat="45.64941" lon="3.06252">
        <ele>679.2</ele>
        <time>2014-06-17T18:00:52Z</time>
      </trkpt>
      <trkpt lat="45.64929" lon="3.06302">
        <ele>682.2</ele>
        <time>2014-06-17T18:01:08Z</time>
      </trkpt>
      <trkpt lat="45.64919" lon="3.06418">
        <ele>687.4</ele>
        <time>2014-06-17T18:01:40Z</time>
      </trkpt>
      <trkpt lat="45.64937" lon="3.0642">
        <ele>685.2</ele>
        <time>2014-06-17T18:01:54Z</time>
      </trkpt>
      <trkpt lat="45.64965" lon="3.06414">
        <ele>681.3</ele>
        <time>2014-06-17T18:02:12Z</time>
      </trkpt>
      <trkpt lat="45.65009" lon="3.06417">
        <ele>675.4</ele>
        <time>2014-06-17T18:02:42Z</time>
      </trkpt>
      <trkpt lat="45.65052" lon="3.06425">
        <ele>669.1</ele>
        <time>2014-06-17T18:03:10Z</time>
      </trkpt>
      <trkpt lat="45.65096" lon="3.06461">
        <ele>663.3</ele>
        <time>2014-06-17T18:03:42Z</time>
      </trkpt>
      <trkpt lat="45.65128" lon="3.06559">
        <ele>657.3</ele>
        <time>2014-06-17T18:04:20Z</time>
      </trkpt>
      <trkpt lat="45.65153" lon="3.06611">
        <ele>653.6</ele>
        <time>2014-06-17T18:04:44Z</time>
      </trkpt>
      <trkpt lat="45.65191" lon="3.06685">
        <ele>647.7</ele>
        <time>2014-06-17T18:05:18Z</time>
      </trkpt>
      <trkpt lat="45.65191" lon="3.0676">
        <ele>641.5</ele>
        <time>2014-06-17T18:05:46Z</time>
      </trkpt>
      <trkpt lat="45.652" lon="3.06794">
        <ele>638.1</ele>
        <time>2014-06-17T18:06:02Z</time>
      </trkpt>
      <trkpt lat="45.6524" lon="3.06786">
        <ele>633.3</ele>
        <time>2014-06-17T18:06:34Z</time>
      </trkpt>
      <trkpt lat="45.65235" lon="3.06688">
        <ele>629.7</ele>
        <time>2014-06-17T18:06:56Z</time>
      </trkpt>
      <trkpt lat="45.65221" lon="3.06625">
        <ele>632.7</ele>
        <time>2014-06-17T18:07:06Z</time>
      </trkpt>
      <trkpt lat="45.65195" lon="3.06561">
        <ele>636.8</ele>
        <time>2014-06-17T18:07:14Z</time>
      </trkpt>
      <trkpt lat="45.65179" lon="3.06524">
        <ele>639</ele>
        <time>2014-06-17T18:07:20Z</time>
      </trkpt>
      <trkpt lat="45.65144" lon="3.06391">
        <ele>638.8</ele>
        <time>2014-06-17T18:07:47Z</time>
      </trkpt>
      <trkpt lat="45.65144" lon="3.06349">
        <ele>634.1</ele>
        <time>2014-06-17T18:08:17Z</time>
      </trkpt>
      <trkpt lat="45.65178" lon="3.06386">
        <ele>631.1</ele>
        <time>2014-06-17T18:08:33Z</time>
      </trkpt>
      <trkpt lat="45.65208" lon="3.06441">
        <ele>626.8</ele>
        <time>2014-06-17T18:08:53Z</time>
      </trkpt>
      <trkpt lat="45.65258" lon="3.0651">
        <ele>622.9</ele>
        <time>2014-06-17T18:09:19Z</time>
      </trkpt>
      <trkpt lat="45.65335" lon="3.06566">
        <ele>621.6</ele>
        <time>2014-06-17T18:09:52Z</time>
      </trkpt>
      <trkpt lat="45.65395" lon="3.06624">
        <ele>622.7</ele>
        <time>2014-06-17T18:10:17Z</time>
      </trkpt>
      <trkpt lat="45.65426" lon="3.06581">
        <ele>621.3</ele>
        <time>2014-06-17T18:10:37Z</time>
      </trkpt>
      <trkpt lat="45.6546" lon="3.06551">
        <ele>617.6</ele>
        <time>2014-06-17T18:10:57Z</time>
      </trkpt>
      <trkpt lat="45.65476" lon="3.06508">
        <ele>614.6</ele>
        <time>2014-06-17T18:11:13Z</time>
      </trkpt>
      <trkpt lat="45.65509" lon="3.06461">
        <ele>610.3</ele>
        <time>2014-06-17T18:11:33Z</time>
      </trkpt>
      <trkpt lat="45.65513" lon="3.06468">
        <ele>608.4</ele>
        <time>2014-06-17T18:11:45Z</time>
      </trkpt>
      <trkpt lat="45.65509" lon="3.06507">
        <ele>604.8</ele>
        <time>2014-06-17T18:11:59Z</time>
      </trkpt>
      <trkpt lat="45.65539" lon="3.06523">
        <ele>603.3</ele>
        <time>2014-06-17T18:12:17Z</time>
      </trkpt>
      <trkpt lat="45.65545" lon="3.06489">
        <ele>604.4</ele>
        <time>2014-06-17T18:12:25Z</time>
      </trkpt>
      <trkpt lat="45.65556" lon="3.06406">
        <ele>606.1</ele>
        <time>2014-06-17T18:12:41Z</time>
      </trkpt>
      <trkpt lat="45.65577" lon="3.06371">
        <ele>606.1</ele>
        <time>2014-06-17T18:12:47Z</time>
      </trkpt>
      <trkpt lat="45.65605" lon="3.06253">
        <ele>605.2</ele>
        <time>2014-06-17T18:13:11Z</time>
      </trkpt>
      <trkpt lat="45.65625" lon="3.06179">
        <ele>605</ele>
        <time>2014-06-17T18:13:25Z</time>
      </trkpt>
      <trkpt lat="45.65616" lon="3.06053">
        <ele>605.9</ele>
        <time>2014-06-17T18:13:51Z</time>
      </trkpt>
      <trkpt lat="45.65652" lon="3.05862">
        <ele>606.8</ele>
        <time>2014-06-17T18:14:34Z</time>
      </trkpt>
      <trkpt lat="45.65677" lon="3.05792">
        <ele>606.8</ele>
        <time>2014-06-17T18:14:49Z</time>
      </trkpt>
      <trkpt lat="45.65711" lon="3.05703">
        <ele>610.6</ele>
        <time>2014-06-17T18:15:23Z</time>
      </trkpt>
      <trkpt lat="45.65691" lon="3.05685">
        <ele>614.7</ele>
        <time>2014-06-17T18:15:37Z</time>
      </trkpt>
      <trkpt lat="45.6573" lon="3.05678">
        <ele>607.9</ele>
        <time>2014-06-17T18:16:31Z</time>
      </trkpt>
      <trkpt lat="45.65778" lon="3.05668">
        <ele>608.3</ele>
        <time>2014-06-17T18:16:53Z</time>
      </trkpt>
      <trkpt lat="45.6587" lon="3.05617">
        <ele>613.4</ele>
        <time>2014-06-17T18:17:41Z</time>
      </trkpt>
      <trkpt lat="45.65926" lon="3.05606">
        <ele>614.8</ele>
        <time>2014-06-17T18:18:03Z</time>
      </trkpt>
      <trkpt lat="45.65959" lon="3.05597">
        <ele>614.2</ele>
        <time>2014-06-17T18:18:11Z</time>
      </trkpt>
      <trkpt lat="45.6606" lon="3.05641">
        <ele>620.6</ele>
        <time>2014-06-17T18:18:31Z</time>
      </trkpt>
      <trkpt lat="45.66097" lon="3.05653">
        <ele>624.4</ele>
        <time>2014-06-17T18:18:39Z</time>
      </trkpt>
      <trkpt lat="45.66171" lon="3.05674">
        <ele>626.9</ele>
        <time>2014-06-17T18:19:01Z</time>
      </trkpt>
      <trkpt lat="45.66317" lon="3.05669">
        <ele>620.1</ele>
        <time>2014-06-17T18:19:53Z</time>
      </trkpt>
      <trkpt lat="45.66394" lon="3.05675">
        <ele>616.3</ele>
        <time>2014-06-17T18:20:25Z</time>
      </trkpt>
      <trkpt lat="45.66435" lon="3.05692">
        <ele>613</ele>
        <time>2014-06-17T18:20:43Z</time>
      </trkpt>
      <trkpt lat="45.6647" lon="3.05699">
        <ele>609.7</ele>
        <time>2014-06-17T18:20:57Z</time>
      </trkpt>
      <trkpt lat="45.66551" lon="3.05711">
        <ele>603.5</ele>
        <time>2014-06-17T18:21:25Z</time>
      </trkpt>
      <trkpt lat="45.66694" lon="3.05729">
        <ele>597.1</ele>
        <time>2014-06-17T18:22:03Z</time>
      </trkpt>
      <trkpt lat="45.66784" lon="3.05735">
        <ele>596.2</ele>
        <time>2014-06-17T18:22:31Z</time>
      </trkpt>
      <trkpt lat="45.66914" lon="3.05624">
        <ele>597.7</ele>
        <time>2014-06-17T18:23:11Z</time>
      </trkpt>
      <trkpt lat="45.66952" lon="3.05667">
        <ele>597.4</ele>
        <time>2014-06-17T18:23:33Z</time>
      </trkpt>
      <trkpt lat="45.67034" lon="3.05753">
        <ele>598.1</ele>
        <time>2014-06-17T18:24:05Z</time>
      </trkpt>
      <trkpt lat="45.67138" lon="3.0582">
        <ele>601.9</ele>
        <time>2014-06-17T18:24:35Z</time>
      </trkpt>
      <trkpt lat="45.67171" lon="3.05838">
        <ele>606.7</ele>
        <time>2014-06-17T18:24:47Z</time>
      </trkpt>
      <trkpt lat="45.67244" lon="3.05864">
        <ele>613.1</ele>
        <time>2014-06-17T18:25:07Z</time>
      </trkpt>
      <trkpt lat="45.67308" lon="3.05862">
        <ele>618.1</ele>
        <time>2014-06-17T18:25:21Z</time>
      </trkpt>
      <trkpt lat="45.6734" lon="3.0587">
        <ele>621.4</ele>
        <time>2014-06-17T18:25:37Z</time>
      </trkpt>
      <trkpt lat="45.67351" lon="3.05946">
        <ele>627.7</ele>
        <time>2014-06-17T18:25:57Z</time>
      </trkpt>
      <trkpt lat="45.67385" lon="3.06015">
        <ele>633.3</ele>
        <time>2014-06-17T18:26:21Z</time>
      </trkpt>
      <trkpt lat="45.67442" lon="3.06065">
        <ele>636.5</ele>
        <time>2014-06-17T18:26:35Z</time>
      </trkpt>
      <trkpt lat="45.67489" lon="3.06162">
        <ele>639.4</ele>
        <time>2014-06-17T18:26:55Z</time>
      </trkpt>
      <trkpt lat="45.6751" lon="3.0622">
        <ele>639.3</ele>
        <time>2014-06-17T18:27:09Z</time>
      </trkpt>
      <trkpt lat="45.67528" lon="3.06291">
        <ele>641.8</ele>
        <time>2014-06-17T18:28:19Z</time>
      </trkpt>
      <trkpt lat="45.67533" lon="3.06361">
        <ele>646.5</ele>
        <time>2014-06-17T18:28:29Z</time>
      </trkpt>
      <trkpt lat="45.67548" lon="3.06436">
        <ele>652.9</ele>
        <time>2014-06-17T18:28:39Z</time>
      </trkpt>
      <trkpt lat="45.67566" lon="3.06495">
        <ele>656.6</ele>
        <time>2014-06-17T18:28:47Z</time>
      </trkpt>
      <trkpt lat="45.67583" lon="3.06582">
        <ele>662.2</ele>
        <time>2014-06-17T18:29:04Z</time>
      </trkpt>
      <trkpt lat="45.67591" lon="3.06644">
        <ele>665.9</ele>
        <time>2014-06-17T18:29:14Z</time>
      </trkpt>
      <trkpt lat="45.67605" lon="3.06747">
        <ele>669.3</ele>
        <time>2014-06-17T18:29:28Z</time>
      </trkpt>
      <trkpt lat="45.67624" lon="3.06756">
        <ele>670.7</ele>
        <time>2014-06-17T18:30:14Z</time>
      </trkpt>
      <trkpt lat="45.67614" lon="3.06782">
        <ele>670.8</ele>
        <time>2014-06-17T18:30:28Z</time>
      </trkpt>
      <trkpt lat="45.6761" lon="3.068">
        <ele>671.4</ele>
        <time>2014-06-17T18:31:33Z</time>
      </trkpt>
      <trkpt lat="45.67637" lon="3.06869">
        <ele>671.8</ele>
        <time>2014-06-17T18:32:21Z</time>
      </trkpt>
      <trkpt lat="45.67712" lon="3.06854">
        <ele>671.5</ele>
        <time>2014-06-17T18:32:41Z</time>
      </trkpt>
      <trkpt lat="45.67823" lon="3.06833">
        <ele>672.6</ele>
        <time>2014-06-17T18:33:09Z</time>
      </trkpt>
      <trkpt lat="45.6794" lon="3.06853">
        <ele>678.4</ele>
        <time>2014-06-17T18:33:39Z</time>
      </trkpt>
      <trkpt lat="45.67992" lon="3.06867">
        <ele>682.6</ele>
        <time>2014-06-17T18:33:51Z</time>
      </trkpt>
      <trkpt lat="45.68046" lon="3.06867">
        <ele>687.2</ele>
        <time>2014-06-17T18:34:03Z</time>
      </trkpt>
      <trkpt lat="45.68099" lon="3.06869">
        <ele>692.3</ele>
        <time>2014-06-17T18:34:33Z</time>
      </trkpt>
      <trkpt lat="45.68142" lon="3.06874">
        <ele>699.2</ele>
        <time>2014-06-17T18:34:57Z</time>
      </trkpt>
      <trkpt lat="45.6819" lon="3.06889">
        <ele>706.1</ele>
        <time>2014-06-17T18:35:19Z</time>
      </trkpt>
      <trkpt lat="45.68245" lon="3.06925">
        <ele>715.2</ele>
        <time>2014-06-17T18:35:45Z</time>
      </trkpt>
      <trkpt lat="45.68288" lon="3.06954">
        <ele>723.2</ele>
        <time>2014-06-17T18:36:07Z</time>
      </trkpt>
      <trkpt lat="45.68336" lon="3.06984">
        <ele>732.3</ele>
        <time>2014-06-17T18:36:27Z</time>
      </trkpt>
      <trkpt lat="45.68383" lon="3.06916">
        <ele>736.7</ele>
        <time>2014-06-17T18:36:43Z</time>
      </trkpt>
      <trkpt lat="45.68444" lon="3.06824">
        <ele>741.8</ele>
        <time>2014-06-17T18:36:55Z</time>
      </trkpt>
      <trkpt lat="45.68465" lon="3.06748">
        <ele>746.5</ele>
        <time>2014-06-17T18:37:03Z</time>
      </trkpt>
      <trkpt lat="45.68461" lon="3.06646">
        <ele>750.5</ele>
        <time>2014-06-17T18:37:11Z</time>
      </trkpt>
      <trkpt lat="45.68467" lon="3.0649">
        <ele>756</ele>
        <time>2014-06-17T18:37:24Z</time>
      </trkpt>
      <trkpt lat="45.68467" lon="3.06457">
        <ele>757.5</ele>
        <time>2014-06-17T18:37:27Z</time>
      </trkpt>
      <trkpt lat="45.68455" lon="3.06323">
        <ele>761.2</ele>
        <time>2014-06-17T18:37:40Z</time>
      </trkpt>
      <trkpt lat="45.68434" lon="3.06126">
        <ele>765</ele>
        <time>2014-06-17T18:38:10Z</time>
      </trkpt>
      <trkpt lat="45.68413" lon="3.06172">
        <ele>765.1</ele>
        <time>2014-06-17T18:38:24Z</time>
      </trkpt>
      <trkpt lat="45.68392" lon="3.06176">
        <ele>764.1</ele>
        <time>2014-06-17T18:39:23Z</time>
      </trkpt>
      <trkpt lat="45.68365" lon="3.06228">
        <ele>760</ele>
        <time>2014-06-17T18:39:45Z</time>
      </trkpt>
      <trkpt lat="45.68348" lon="3.06299">
        <ele>755.7</ele>
        <time>2014-06-17T18:40:24Z</time>
      </trkpt>
      <trkpt lat="45.68353" lon="3.06261">
        <ele>762.2</ele>
        <time>2015-06-07T11:10:14Z</time>
      </trkpt>
      <trkpt lat="45.68356" lon="3.06285">
        <ele>763.9</ele>
        <time>2015-06-07T11:10:28Z</time>
      </trkpt>
      <trkpt lat="45.68378" lon="3.06195">
        <ele>769.8</ele>
        <time>2015-06-07T11:10:56Z</time>
      </trkpt>
      <trkpt lat="45.68428" lon="3.06168">
        <ele>771.7</ele>
        <time>2015-06-07T11:11:44Z</time>
      </trkpt>
      <trkpt lat="45.68454" lon="3.061">
        <ele>775.9</ele>
        <time>2015-06-07T11:11:56Z</time>
      </trkpt>
      <trkpt lat="45.68464" lon="3.0596">
        <ele>782.2</ele>
        <time>2015-06-07T11:12:06Z</time>
      </trkpt>
      <trkpt lat="45.68464" lon="3.0587">
        <ele>785.2</ele>
        <time>2015-06-07T11:12:12Z</time>
      </trkpt>
      <trkpt lat="45.68494" lon="3.0567">
        <ele>787.4</ele>
        <time>2015-06-07T11:12:30Z</time>
      </trkpt>
      <trkpt lat="45.68491" lon="3.05542">
        <ele>785.4</ele>
        <time>2015-06-07T11:12:46Z</time>
      </trkpt>
      <trkpt lat="45.68537" lon="3.05331">
        <ele>784.6</ele>
        <time>2015-06-07T11:13:08Z</time>
      </trkpt>
      <trkpt lat="45.68591" lon="3.05088">
        <ele>790.2</ele>
        <time>2015-06-07T11:13:28Z</time>
      </trkpt>
      <trkpt lat="45.68584" lon="3.04953">
        <ele>793.2</ele>
        <time>2015-06-07T11:13:42Z</time>
      </trkpt>
      <trkpt lat="45.68625" lon="3.04762">
        <ele>794.2</ele>
        <time>2015-06-07T11:14:02Z</time>
      </trkpt>
      <trkpt lat="45.6862" lon="3.0463">
        <ele>798.1</ele>
        <time>2015-06-07T11:14:12Z</time>
      </trkpt>
      <trkpt lat="45.68627" lon="3.04533">
        <ele>802.5</ele>
        <time>2015-06-07T11:14:18Z</time>
      </trkpt>
      <trkpt lat="45.68625" lon="3.04377">
        <ele>810.5</ele>
        <time>2015-06-07T11:14:26Z</time>
      </trkpt>
      <trkpt lat="45.68651" lon="3.04189">
        <ele>821.2</ele>
        <time>2015-06-07T11:14:36Z</time>
      </trkpt>
      <trkpt lat="45.6869" lon="3.04051">
        <ele>829.2</ele>
        <time>2015-06-07T11:14:44Z</time>
      </trkpt>
      <trkpt lat="45.68705" lon="3.03877">
        <ele>836.8</ele>
        <time>2015-06-07T11:14:54Z</time>
      </trkpt>
      <trkpt lat="45.68694" lon="3.03716">
        <ele>844.1</ele>
        <time>2015-06-07T11:15:04Z</time>
      </trkpt>
      <trkpt lat="45.68696" lon="3.03623">
        <ele>847.3</ele>
        <time>2015-06-07T11:15:10Z</time>
      </trkpt>
      <trkpt lat="45.68723" lon="3.03542">
        <ele>852.1</ele>
        <time>2015-06-07T11:15:16Z</time>
      </trkpt>
      <trkpt lat="45.68776" lon="3.03516">
        <ele>855.6</ele>
        <time>2015-06-07T11:15:22Z</time>
      </trkpt>
      <trkpt lat="45.68818" lon="3.03443">
        <ele>859.6</ele>
        <time>2015-06-07T11:15:28Z</time>
      </trkpt>
      <trkpt lat="45.6884" lon="3.03336">
        <ele>862.7</ele>
        <time>2015-06-07T11:15:36Z</time>
      </trkpt>
      <trkpt lat="45.68881" lon="3.03312">
        <ele>864.9</ele>
        <time>2015-06-07T11:15:42Z</time>
      </trkpt>
      <trkpt lat="45.68927" lon="3.03356">
        <ele>865.7</ele>
        <time>2015-06-07T11:15:50Z</time>
      </trkpt>
      <trkpt lat="45.69039" lon="3.03498">
        <ele>869.3</ele>
        <time>2015-06-07T11:16:12Z</time>
      </trkpt>
      <trkpt lat="45.69131" lon="3.03477">
        <ele>872.3</ele>
        <time>2015-06-07T11:16:24Z</time>
      </trkpt>
      <trkpt lat="45.69235" lon="3.03384">
        <ele>872.8</ele>
        <time>2015-06-07T11:20:14Z</time>
      </trkpt>
      <trkpt lat="45.69376" lon="3.03336">
        <ele>867.3</ele>
        <time>2015-06-07T11:20:58Z</time>
      </trkpt>
      <trkpt lat="45.6951" lon="3.03262">
        <ele>862</ele>
        <time>2015-06-07T11:21:42Z</time>
      </trkpt>
      <trkpt lat="45.69568" lon="3.03243">
        <ele>858.6</ele>
        <time>2015-06-07T11:22:02Z</time>
      </trkpt>
      <trkpt lat="45.69684" lon="3.03208">
        <ele>852.8</ele>
        <time>2015-06-07T11:22:36Z</time>
      </trkpt>
      <trkpt lat="45.69754" lon="3.03183">
        <ele>849.8</ele>
        <time>2015-06-07T11:22:54Z</time>
      </trkpt>
      <trkpt lat="45.69996" lon="3.03151">
        <ele>842.2</ele>
        <time>2015-06-07T11:23:52Z</time>
      </trkpt>
      <trkpt lat="45.7005" lon="3.03102">
        <ele>841.9</ele>
        <time>2015-06-07T11:24:04Z</time>
      </trkpt>
      <trkpt lat="45.70168" lon="3.0287">
        <ele>842</ele>
        <time>2015-06-07T11:24:44Z</time>
      </trkpt>
      <trkpt lat="45.70235" lon="3.02759">
        <ele>839.5</ele>
        <time>2015-06-07T11:25:18Z</time>
      </trkpt>
      <trkpt lat="45.70264" lon="3.02729">
        <ele>836.5</ele>
        <time>2015-06-07T11:25:34Z</time>
      </trkpt>
      <trkpt lat="45.70287" lon="3.02677">
        <ele>833.4</ele>
        <time>2015-06-07T11:25:52Z</time>
      </trkpt>
      <trkpt lat="45.70314" lon="3.02537">
        <ele>825.8</ele>
        <time>2015-06-07T11:26:42Z</time>
      </trkpt>
      <trkpt lat="45.70315" lon="3.02443">
        <ele>820</ele>
        <time>2015-06-07T11:27:16Z</time>
      </trkpt>
      <trkpt lat="45.70319" lon="3.02362">
        <ele>814.6</ele>
        <time>2015-06-07T11:27:38Z</time>
      </trkpt>
      <trkpt lat="45.70337" lon="3.02265">
        <ele>808</ele>
        <time>2015-06-07T11:28:04Z</time>
      </trkpt>
      <trkpt lat="45.70367" lon="3.02085">
        <ele>809.5</ele>
        <time>2015-06-07T11:28:24Z</time>
      </trkpt>
      <trkpt lat="45.70398" lon="3.01957">
        <ele>812.7</ele>
        <time>2015-06-07T11:28:34Z</time>
      </trkpt>
      <trkpt lat="45.70441" lon="3.01848">
        <ele>814.3</ele>
        <time>2015-06-07T11:28:44Z</time>
      </trkpt>
      <trkpt lat="45.70507" lon="3.01716">
        <ele>817</ele>
        <time>2015-06-07T11:29:02Z</time>
      </trkpt>
      <trkpt lat="45.70528" lon="3.01443">
        <ele>821.3</ele>
        <time>2015-06-07T11:29:24Z</time>
      </trkpt>
      <trkpt lat="45.70539" lon="3.01326">
        <ele>824.2</ele>
        <time>2015-06-07T11:29:34Z</time>
      </trkpt>
      <trkpt lat="45.70503" lon="3.00979">
        <ele>828.9</ele>
        <time>2015-06-07T11:30:08Z</time>
      </trkpt>
      <trkpt lat="45.70467" lon="3.00836">
        <ele>829.9</ele>
        <time>2015-06-07T11:30:28Z</time>
      </trkpt>
      <trkpt lat="45.70459" lon="3.00679">
        <ele>831</ele>
        <time>2015-06-07T11:30:58Z</time>
      </trkpt>
      <trkpt lat="45.70424" lon="3.00542">
        <ele>831.1</ele>
        <time>2015-06-07T11:31:24Z</time>
      </trkpt>
      <trkpt lat="45.70569" lon="3.00429">
        <ele>834.5</ele>
        <time>2015-06-07T11:31:54Z</time>
      </trkpt>
      <trkpt lat="45.70608" lon="3.00392">
        <ele>837.6</ele>
        <time>2015-06-07T11:32:00Z</time>
      </trkpt>
      <trkpt lat="45.7066" lon="3.00286">
        <ele>843</ele>
        <time>2015-06-07T11:32:10Z</time>
      </trkpt>
      <trkpt lat="45.70629" lon="3.00174">
        <ele>845.7</ele>
        <time>2015-06-07T11:32:22Z</time>
      </trkpt>
      <trkpt lat="45.70626" lon="3.00098">
        <ele>849.1</ele>
        <time>2015-06-07T11:32:30Z</time>
      </trkpt>
      <trkpt lat="45.70616" lon="3.00034">
        <ele>852.2</ele>
        <time>2015-06-07T11:32:36Z</time>
      </trkpt>
      <trkpt lat="45.70634" lon="2.9994">
        <ele>855.7</ele>
        <time>2015-06-07T11:32:46Z</time>
      </trkpt>
      <trkpt lat="45.70714" lon="2.99813">
        <ele>860</ele>
        <time>2015-06-07T11:33:04Z</time>
      </trkpt>
      <trkpt lat="45.70812" lon="2.9966">
        <ele>863.2</ele>
        <time>2015-06-07T11:33:32Z</time>
      </trkpt>
      <trkpt lat="45.70897" lon="2.99519">
        <ele>868.1</ele>
        <time>2015-06-07T11:34:04Z</time>
      </trkpt>
      <trkpt lat="45.70937" lon="2.99488">
        <ele>872.6</ele>
        <time>2015-06-07T11:34:16Z</time>
      </trkpt>
      <trkpt lat="45.7103" lon="2.99315">
        <ele>877</ele>
        <time>2015-06-07T11:34:50Z</time>
      </trkpt>
      <trkpt lat="45.71082" lon="2.99222">
        <ele>878.5</ele>
        <time>2015-06-07T11:35:08Z</time>
      </trkpt>
      <trkpt lat="45.71176" lon="2.99036">
        <ele>877.8</ele>
        <time>2015-06-07T11:35:50Z</time>
      </trkpt>
      <trkpt lat="45.71199" lon="2.99001">
        <ele>880.7</ele>
        <time>2015-06-07T11:35:58Z</time>
      </trkpt>
      <trkpt lat="45.71236" lon="2.98949">
        <ele>885.4</ele>
        <time>2015-06-07T11:36:10Z</time>
      </trkpt>
      <trkpt lat="45.71265" lon="2.98859">
        <ele>892</ele>
        <time>2015-06-07T11:36:22Z</time>
      </trkpt>
      <trkpt lat="45.71292" lon="2.98799">
        <ele>897</ele>
        <time>2015-06-07T11:36:32Z</time>
      </trkpt>
      <trkpt lat="45.71306" lon="2.98768">
        <ele>898.2</ele>
        <time>2015-06-07T11:36:38Z</time>
      </trkpt>
      <trkpt lat="45.7137" lon="2.98673">
        <ele>900.9</ele>
        <time>2015-06-07T11:37:02Z</time>
      </trkpt>
      <trkpt lat="45.71461" lon="2.98528">
        <ele>901.7</ele>
        <time>2015-06-07T11:37:26Z</time>
      </trkpt>
      <trkpt lat="45.71529" lon="2.9834">
        <ele>903.6</ele>
        <time>2015-06-07T11:37:52Z</time>
      </trkpt>
      <trkpt lat="45.71606" lon="2.98271">
        <ele>906.4</ele>
        <time>2015-06-07T11:38:10Z</time>
      </trkpt>
      <trkpt lat="45.71625" lon="2.98213">
        <ele>909</ele>
        <time>2015-06-07T11:38:24Z</time>
      </trkpt>
      <trkpt lat="45.71691" lon="2.98057">
        <ele>912.3</ele>
        <time>2015-06-07T11:38:56Z</time>
      </trkpt>
      <trkpt lat="45.71715" lon="2.97872">
        <ele>916.3</ele>
        <time>2015-06-07T11:39:22Z</time>
      </trkpt>
      <trkpt lat="45.71719" lon="2.97797">
        <ele>917.8</ele>
        <time>2015-06-07T11:39:34Z</time>
      </trkpt>
      <trkpt lat="45.71729" lon="2.97607">
        <ele>919.9</ele>
        <time>2015-06-07T11:40:04Z</time>
      </trkpt>
      <trkpt lat="45.71712" lon="2.97499">
        <ele>925.2</ele>
        <time>2015-06-07T11:40:18Z</time>
      </trkpt>
      <trkpt lat="45.71682" lon="2.97412">
        <ele>928.4</ele>
        <time>2015-06-07T11:40:28Z</time>
      </trkpt>
      <trkpt lat="45.71645" lon="2.97266">
        <ele>931.7</ele>
        <time>2015-06-07T11:40:50Z</time>
      </trkpt>
      <trkpt lat="45.71589" lon="2.97129">
        <ele>934.4</ele>
        <time>2015-06-07T11:41:24Z</time>
      </trkpt>
      <trkpt lat="45.71559" lon="2.97087">
        <ele>937.5</ele>
        <time>2015-06-07T11:41:36Z</time>
      </trkpt>
      <trkpt lat="45.71519" lon="2.97083">
        <ele>942.2</ele>
        <time>2015-06-07T11:41:48Z</time>
      </trkpt>
      <trkpt lat="45.71486" lon="2.9711">
        <ele>945.5</ele>
        <time>2015-06-07T11:41:54Z</time>
      </trkpt>
      <trkpt lat="45.71395" lon="2.97129">
        <ele>951.5</ele>
        <time>2015-06-07T11:42:10Z</time>
      </trkpt>
      <trkpt lat="45.71328" lon="2.97121">
        <ele>955.1</ele>
        <time>2015-06-07T11:42:26Z</time>
      </trkpt>
      <trkpt lat="45.71287" lon="2.97127">
        <ele>954.4</ele>
        <time>2015-06-07T11:42:38Z</time>
      </trkpt>
      <trkpt lat="45.71257" lon="2.97142">
        <ele>954.1</ele>
        <time>2015-06-07T11:42:46Z</time>
      </trkpt>
      <trkpt lat="45.71197" lon="2.97169">
        <ele>953.4</ele>
        <time>2015-06-07T11:43:04Z</time>
      </trkpt>
      <trkpt lat="45.71085" lon="2.97223">
        <ele>952.8</ele>
        <time>2015-06-07T11:43:28Z</time>
      </trkpt>
      <trkpt lat="45.70965" lon="2.97212">
        <ele>951.8</ele>
        <time>2015-06-07T11:43:58Z</time>
      </trkpt>
      <trkpt lat="45.70828" lon="2.97134">
        <ele>952.9</ele>
        <time>2015-06-07T11:44:36Z</time>
      </trkpt>
      <trkpt lat="45.70721" lon="2.97048">
        <ele>956.5</ele>
        <time>2015-06-07T11:44:58Z</time>
      </trkpt>
      <trkpt lat="45.70657" lon="2.97056">
        <ele>959.7</ele>
        <time>2015-06-07T11:45:08Z</time>
      </trkpt>
      <trkpt lat="45.70511" lon="2.96957">
        <ele>969.2</ele>
        <time>2015-06-07T11:45:32Z</time>
      </trkpt>
      <trkpt lat="45.70402" lon="2.96859">
        <ele>975.9</ele>
        <time>2015-06-07T11:45:52Z</time>
      </trkpt>
      <trkpt lat="45.70329" lon="2.96828">
        <ele>977.1</ele>
        <time>2015-06-07T11:46:06Z</time>
      </trkpt>
      <trkpt lat="45.70238" lon="2.96765">
        <ele>973</ele>
        <time>2015-06-07T11:46:32Z</time>
      </trkpt>
      <trkpt lat="45.70176" lon="2.9673">
        <ele>969.8</ele>
        <time>2015-06-07T11:46:54Z</time>
      </trkpt>
      <trkpt lat="45.7013" lon="2.96687">
        <ele>969.9</ele>
        <time>2015-06-07T11:47:10Z</time>
      </trkpt>
      <trkpt lat="45.70097" lon="2.96582">
        <ele>975.4</ele>
        <time>2015-06-07T11:47:34Z</time>
      </trkpt>
      <trkpt lat="45.70075" lon="2.96527">
        <ele>979.6</ele>
        <time>2015-06-07T11:47:44Z</time>
      </trkpt>
      <trkpt lat="45.70064" lon="2.96404">
        <ele>985.4</ele>
        <time>2015-06-07T11:47:58Z</time>
      </trkpt>
      <trkpt lat="45.70083" lon="2.96318">
        <ele>984.7</ele>
        <time>2015-06-07T11:48:12Z</time>
      </trkpt>
      <trkpt lat="45.70137" lon="2.96208">
        <ele>981.1</ele>
        <time>2015-06-07T11:48:40Z</time>
      </trkpt>
      <trkpt lat="45.7017" lon="2.96151">
        <ele>979.4</ele>
        <time>2015-06-07T11:48:52Z</time>
      </trkpt>
      <trkpt lat="45.70192" lon="2.96105">
        <ele>979.5</ele>
        <time>2015-06-07T11:49:00Z</time>
      </trkpt>
      <trkpt lat="45.70208" lon="2.95944">
        <ele>979.7</ele>
        <time>2015-06-07T11:49:32Z</time>
      </trkpt>
      <trkpt lat="45.70144" lon="2.9577">
        <ele>980.5</ele>
        <time>2015-06-07T11:49:58Z</time>
      </trkpt>
      <trkpt lat="45.70067" lon="2.95682">
        <ele>984.3</ele>
        <time>2015-06-07T11:50:20Z</time>
      </trkpt>
      <trkpt lat="45.69989" lon="2.95595">
        <ele>992.7</ele>
        <time>2015-06-07T11:50:44Z</time>
      </trkpt>
      <trkpt lat="45.69978" lon="2.95443">
        <ele>993</ele>
        <time>2015-06-07T11:51:24Z</time>
      </trkpt>
      <trkpt lat="45.6994" lon="2.95381">
        <ele>985.6</ele>
        <time>2015-06-07T11:52:00Z</time>
      </trkpt>
      <trkpt lat="45.69931" lon="2.95307">
        <ele>979.4</ele>
        <time>2015-06-07T11:52:28Z</time>
      </trkpt>
      <trkpt lat="45.69907" lon="2.95131">
        <ele>977.6</ele>
        <time>2015-06-07T11:53:04Z</time>
      </trkpt>
      <trkpt lat="45.69844" lon="2.94946">
        <ele>979.3</ele>
        <time>2015-06-07T11:53:30Z</time>
      </trkpt>
      <trkpt lat="45.69772" lon="2.94759">
        <ele>983.6</ele>
        <time>2015-06-07T11:54:22Z</time>
      </trkpt>
      <trkpt lat="45.69737" lon="2.94686">
        <ele>982.6</ele>
        <time>2015-06-07T11:54:34Z</time>
      </trkpt>
      <trkpt lat="45.69718" lon="2.9463">
        <ele>983.8</ele>
        <time>2015-06-07T11:54:42Z</time>
      </trkpt>
      <trkpt lat="45.69673" lon="2.94506">
        <ele>990.5</ele>
        <time>2015-06-07T11:55:00Z</time>
      </trkpt>
      <trkpt lat="45.69596" lon="2.94339">
        <ele>993.5</ele>
        <time>2015-06-07T11:55:28Z</time>
      </trkpt>
      <trkpt lat="45.69541" lon="2.94247">
        <ele>994.9</ele>
        <time>2015-06-07T11:55:50Z</time>
      </trkpt>
      <trkpt lat="45.69472" lon="2.94125">
        <ele>990.2</ele>
        <time>2015-06-07T11:56:22Z</time>
      </trkpt>
      <trkpt lat="45.69407" lon="2.94015">
        <ele>989.9</ele>
        <time>2015-06-07T11:56:48Z</time>
      </trkpt>
      <trkpt lat="45.69356" lon="2.93905">
        <ele>990.2</ele>
        <time>2015-06-07T11:57:20Z</time>
      </trkpt>
      <trkpt lat="45.69295" lon="2.93776">
        <ele>992.2</ele>
        <time>2015-06-07T11:57:48Z</time>
      </trkpt>
      <trkpt lat="45.69289" lon="2.93754">
        <ele>992.3</ele>
        <time>2015-06-07T11:57:52Z</time>
      </trkpt>
      <trkpt lat="45.69207" lon="2.93567">
        <ele>988.7</ele>
        <time>2015-06-07T11:58:44Z</time>
      </trkpt>
      <trkpt lat="45.69188" lon="2.93502">
        <ele>986.8</ele>
        <time>2015-06-07T11:59:08Z</time>
      </trkpt>
      <trkpt lat="45.69168" lon="2.93444">
        <ele>983.9</ele>
        <time>2015-06-07T11:59:36Z</time>
      </trkpt>
      <trkpt lat="45.69164" lon="2.93354">
        <ele>978</ele>
        <time>2015-06-07T12:00:08Z</time>
      </trkpt>
      <trkpt lat="45.69144" lon="2.93313">
        <ele>972</ele>
        <time>2015-06-07T12:00:40Z</time>
      </trkpt>
      <trkpt lat="45.6901" lon="2.93081">
        <ele>966.9</ele>
        <time>2015-06-07T12:01:46Z</time>
      </trkpt>
      <trkpt lat="45.69006" lon="2.92922">
        <ele>961.8</ele>
        <time>2015-06-07T12:02:28Z</time>
      </trkpt>
      <trkpt lat="45.68988" lon="2.92869">
        <ele>962.1</ele>
        <time>2015-06-07T12:02:40Z</time>
      </trkpt>
      <trkpt lat="45.68904" lon="2.92817">
        <ele>965.9</ele>
        <time>2015-06-07T12:02:54Z</time>
      </trkpt>
      <trkpt lat="45.68848" lon="2.92643">
        <ele>969.7</ele>
        <time>2015-06-07T12:03:22Z</time>
      </trkpt>
      <trkpt lat="45.68835" lon="2.92644">
        <ele>969.5</ele>
        <time>2015-06-07T12:03:28Z</time>
      </trkpt>
      <trkpt lat="45.68766" lon="2.92686">
        <ele>969.1</ele>
        <time>2015-06-07T12:03:50Z</time>
      </trkpt>
      <trkpt lat="45.68632" lon="2.92767">
        <ele>965.8</ele>
        <time>2015-06-07T12:04:38Z</time>
      </trkpt>
      <trkpt lat="45.6868" lon="2.92972">
        <ele>959.7</ele>
        <time>2015-06-07T12:05:32Z</time>
      </trkpt>
      <trkpt lat="45.68665" lon="2.93012">
        <ele>959.4</ele>
        <time>2015-06-07T12:05:50Z</time>
      </trkpt>
      <trkpt lat="45.68461" lon="2.93077">
        <ele>958.8</ele>
        <time>2015-06-07T12:06:50Z</time>
      </trkpt>
      <trkpt lat="45.68411" lon="2.93055">
        <ele>963.8</ele>
        <time>2015-06-07T12:07:06Z</time>
      </trkpt>
      <trkpt lat="45.68381" lon="2.92943">
        <ele>967.5</ele>
        <time>2015-06-07T12:07:16Z</time>
      </trkpt>
      <trkpt lat="45.68366" lon="2.92884">
        <ele>971</ele>
        <time>2015-06-07T12:07:22Z</time>
      </trkpt>
      <trkpt lat="45.68341" lon="2.92787">
        <ele>974.4</ele>
        <time>2015-06-07T12:07:32Z</time>
      </trkpt>
      <trkpt lat="45.68253" lon="2.92458">
        <ele>981.8</ele>
        <time>2015-06-07T12:08:10Z</time>
      </trkpt>
      <trkpt lat="45.68165" lon="2.92137">
        <ele>984.6</ele>
        <time>2015-06-07T12:09:02Z</time>
      </trkpt>
      <trkpt lat="45.68133" lon="2.92085">
        <ele>984.3</ele>
        <time>2015-06-07T12:09:14Z</time>
      </trkpt>
      <trkpt lat="45.68073" lon="2.92042">
        <ele>983.7</ele>
        <time>2015-06-07T12:09:30Z</time>
      </trkpt>
      <trkpt lat="45.67779" lon="2.91842">
        <ele>986</ele>
        <time>2015-06-07T12:10:46Z</time>
      </trkpt>
      <trkpt lat="45.6773" lon="2.91877">
        <ele>986</ele>
        <time>2015-06-07T12:11:00Z</time>
      </trkpt>
      <trkpt lat="45.67337" lon="2.92157">
        <ele>990.9</ele>
        <time>2015-06-07T12:12:44Z</time>
      </trkpt>
      <trkpt lat="45.67266" lon="2.92202">
        <ele>992.7</ele>
        <time>2015-06-07T12:13:00Z</time>
      </trkpt>
      <trkpt lat="45.67222" lon="2.92198">
        <ele>996.7</ele>
        <time>2015-06-07T12:13:08Z</time>
      </trkpt>
      <trkpt lat="45.67179" lon="2.92166">
        <ele>1000.8</ele>
        <time>2015-06-07T12:13:14Z</time>
      </trkpt>
      <trkpt lat="45.67098" lon="2.92114">
        <ele>1010.4</ele>
        <time>2015-06-07T12:13:36Z</time>
      </trkpt>
      <trkpt lat="45.67047" lon="2.92055">
        <ele>1016.2</ele>
        <time>2015-06-07T12:13:50Z</time>
      </trkpt>
      <trkpt lat="45.66956" lon="2.91956">
        <ele>1019.6</ele>
        <time>2015-06-07T12:14:12Z</time>
      </trkpt>
      <trkpt lat="45.66863" lon="2.91842">
        <ele>1026.7</ele>
        <time>2015-06-07T12:14:28Z</time>
      </trkpt>
      <trkpt lat="45.66804" lon="2.91772">
        <ele>1029.8</ele>
        <time>2015-06-07T12:14:38Z</time>
      </trkpt>
      <trkpt lat="45.66666" lon="2.91603">
        <ele>1034.3</ele>
        <time>2015-06-07T12:15:14Z</time>
      </trkpt>
      <trkpt lat="45.66519" lon="2.91421">
        <ele>1035.3</ele>
        <time>2015-06-07T12:16:04Z</time>
      </trkpt>
      <trkpt lat="45.66186" lon="2.91016">
        <ele>1041.3</ele>
        <time>2015-06-07T12:17:40Z</time>
      </trkpt>
      <trkpt lat="45.66117" lon="2.91078">
        <ele>1042.9</ele>
        <time>2015-06-07T12:18:06Z</time>
      </trkpt>
      <trkpt lat="45.66071" lon="2.91111">
        <ele>1039.8</ele>
        <time>2015-06-07T12:18:26Z</time>
      </trkpt>
      <trkpt lat="45.66033" lon="2.91146">
        <ele>1036.8</ele>
        <time>2015-06-07T12:18:46Z</time>
      </trkpt>
      <trkpt lat="45.65938" lon="2.91233">
        <ele>1030.8</ele>
        <time>2015-06-07T12:19:28Z</time>
      </trkpt>
      <trkpt lat="45.65818" lon="2.9134">
        <ele>1025.6</ele>
        <time>2015-06-07T12:20:08Z</time>
      </trkpt>
      <trkpt lat="45.65727" lon="2.91427">
        <ele>1028.6</ele>
        <time>2015-06-07T12:20:26Z</time>
      </trkpt>
      <trkpt lat="45.65572" lon="2.91567">
        <ele>1030.4</ele>
        <time>2015-06-07T12:21:08Z</time>
      </trkpt>
      <trkpt lat="45.65376" lon="2.91586">
        <ele>1033.8</ele>
        <time>2015-06-07T12:21:48Z</time>
      </trkpt>
      <trkpt lat="45.6534" lon="2.91593">
        <ele>1032.4</ele>
        <time>2015-06-07T12:22:04Z</time>
      </trkpt>
      <trkpt lat="45.65306" lon="2.91612">
        <ele>1032.5</ele>
        <time>2015-06-07T12:25:26Z</time>
      </trkpt>
      <trkpt lat="45.65316" lon="2.91669">
        <ele>1030.6</ele>
        <time>2015-06-07T12:25:56Z</time>
      </trkpt>
      <trkpt lat="45.65365" lon="2.91768">
        <ele>1023</ele>
        <time>2015-06-07T12:26:38Z</time>
      </trkpt>
      <trkpt lat="45.65436" lon="2.91904">
        <ele>1018.8</ele>
        <time>2015-06-07T12:27:24Z</time>
      </trkpt>
      <trkpt lat="45.65478" lon="2.91985">
        <ele>1014.5</ele>
        <time>2015-06-07T12:27:50Z</time>
      </trkpt>
      <trkpt lat="45.65491" lon="2.9201">
        <ele>1011.3</ele>
        <time>2015-06-07T12:27:58Z</time>
      </trkpt>
      <trkpt lat="45.65559" lon="2.92126">
        <ele>1016.1</ele>
        <time>2015-06-07T12:28:14Z</time>
      </trkpt>
      <trkpt lat="45.6561" lon="2.92218">
        <ele>1023.9</ele>
        <time>2015-06-07T12:28:22Z</time>
      </trkpt>
      <trkpt lat="45.65658" lon="2.92299">
        <ele>1028</ele>
        <time>2015-06-07T12:28:30Z</time>
      </trkpt>
      <trkpt lat="45.65696" lon="2.92365">
        <ele>1031.7</ele>
        <time>2015-06-07T12:28:38Z</time>
      </trkpt>
      <trkpt lat="45.65858" lon="2.92481">
        <ele>1032.9</ele>
        <time>2015-06-07T12:29:24Z</time>
      </trkpt>
      <trkpt lat="45.65924" lon="2.92548">
        <ele>1036</ele>
        <time>2015-06-07T12:29:48Z</time>
      </trkpt>
      <trkpt lat="45.65972" lon="2.92671">
        <ele>1041.7</ele>
        <time>2015-06-07T12:30:08Z</time>
      </trkpt>
      <trkpt lat="45.65993" lon="2.92784">
        <ele>1047</ele>
        <time>2015-06-07T12:30:32Z</time>
      </trkpt>
      <trkpt lat="45.66004" lon="2.92962">
        <ele>1042.5</ele>
        <time>2015-06-07T12:31:28Z</time>
      </trkpt>
      <trkpt lat="45.65997" lon="2.93072">
        <ele>1038.6</ele>
        <time>2015-06-07T12:32:04Z</time>
      </trkpt>
      <trkpt lat="45.66009" lon="2.93132">
        <ele>1035.6</ele>
        <time>2015-06-07T12:32:32Z</time>
      </trkpt>
      <trkpt lat="45.66005" lon="2.93212">
        <ele>1029.4</ele>
        <time>2015-06-07T12:33:04Z</time>
      </trkpt>
      <trkpt lat="45.66" lon="2.93276">
        <ele>1023.8</ele>
        <time>2015-06-07T12:33:32Z</time>
      </trkpt>
      <trkpt lat="45.66" lon="2.93403">
        <ele>1017.6</ele>
        <time>2015-06-07T12:34:12Z</time>
      </trkpt>
      <trkpt lat="45.65992" lon="2.9361">
        <ele>1013.7</ele>
        <time>2015-06-07T12:34:54Z</time>
      </trkpt>
      <trkpt lat="45.6599" lon="2.9384">
        <ele>1012</ele>
        <time>2015-06-07T12:35:32Z</time>
      </trkpt>
      <trkpt lat="45.66019" lon="2.93963">
        <ele>1014.4</ele>
        <time>2015-06-07T12:35:52Z</time>
      </trkpt>
      <trkpt lat="45.66061" lon="2.94058">
        <ele>1017.9</ele>
        <time>2015-06-07T12:36:04Z</time>
      </trkpt>
      <trkpt lat="45.66105" lon="2.94171">
        <ele>1019.9</ele>
        <time>2015-06-07T12:36:22Z</time>
      </trkpt>
      <trkpt lat="45.66119" lon="2.94218">
        <ele>1020.5</ele>
        <time>2015-06-07T12:36:30Z</time>
      </trkpt>
      <trkpt lat="45.66165" lon="2.94358">
        <ele>1023.7</ele>
        <time>2015-06-07T12:36:50Z</time>
      </trkpt>
      <trkpt lat="45.66246" lon="2.9453">
        <ele>1024.7</ele>
        <time>2015-06-07T12:37:26Z</time>
      </trkpt>
      <trkpt lat="45.66299" lon="2.94644">
        <ele>1024.3</ele>
        <time>2015-06-07T12:37:58Z</time>
      </trkpt>
      <trkpt lat="45.66372" lon="2.94816">
        <ele>1020.2</ele>
        <time>2015-06-07T12:38:52Z</time>
      </trkpt>
      <trkpt lat="45.66301" lon="2.94941">
        <ele>1017.2</ele>
        <time>2015-06-07T12:39:38Z</time>
      </trkpt>
      <trkpt lat="45.66315" lon="2.94972">
        <ele>1017.9</ele>
        <time>2015-06-07T12:39:48Z</time>
      </trkpt>
      <trkpt lat="45.664" lon="2.95058">
        <ele>1021.4</ele>
        <time>2015-06-07T12:40:10Z</time>
      </trkpt>
      <trkpt lat="45.66482" lon="2.95165">
        <ele>1026</ele>
        <time>2015-06-07T12:40:38Z</time>
      </trkpt>
      <trkpt lat="45.66591" lon="2.95276">
        <ele>1024.7</ele>
        <time>2015-06-07T12:41:24Z</time>
      </trkpt>
      <trkpt lat="45.66729" lon="2.95338">
        <ele>1018.2</ele>
        <time>2015-06-07T12:44:13Z</time>
      </trkpt>
      <trkpt lat="45.66793" lon="2.95318">
        <ele>1012.2</ele>
        <time>2015-06-07T12:44:51Z</time>
      </trkpt>
      <trkpt lat="45.6684" lon="2.95291">
        <ele>1006</ele>
        <time>2015-06-07T12:45:25Z</time>
      </trkpt>
      <trkpt lat="45.66872" lon="2.95269">
        <ele>1002.9</ele>
        <time>2015-06-07T12:45:47Z</time>
      </trkpt>
      <trkpt lat="45.66906" lon="2.95241">
        <ele>998.7</ele>
        <time>2015-06-07T12:46:09Z</time>
      </trkpt>
      <trkpt lat="45.66937" lon="2.95216">
        <ele>995.7</ele>
        <time>2015-06-07T12:46:29Z</time>
      </trkpt>
      <trkpt lat="45.67001" lon="2.95144">
        <ele>990.8</ele>
        <time>2015-06-07T12:47:11Z</time>
      </trkpt>
      <trkpt lat="45.67067" lon="2.95129">
        <ele>985.4</ele>
        <time>2015-06-07T12:47:49Z</time>
      </trkpt>
      <trkpt lat="45.67128" lon="2.95183">
        <ele>979.1</ele>
        <time>2015-06-07T12:48:29Z</time>
      </trkpt>
      <trkpt lat="45.67161" lon="2.95208">
        <ele>977.2</ele>
        <time>2015-06-07T12:48:47Z</time>
      </trkpt>
      <trkpt lat="45.67234" lon="2.95266">
        <ele>971.2</ele>
        <time>2015-06-07T12:49:29Z</time>
      </trkpt>
      <trkpt lat="45.67305" lon="2.95338">
        <ele>969.4</ele>
        <time>2015-06-07T12:52:12Z</time>
      </trkpt>
      <trkpt lat="45.67229" lon="2.95508">
        <ele>968.2</ele>
        <time>2015-06-07T12:52:58Z</time>
      </trkpt>
      <trkpt lat="45.67184" lon="2.9559">
        <ele>967.4</ele>
        <time>2015-06-07T12:53:22Z</time>
      </trkpt>
      <trkpt lat="45.67124" lon="2.95694">
        <ele>962.3</ele>
        <time>2015-06-07T12:54:02Z</time>
      </trkpt>
      <trkpt lat="45.67076" lon="2.95836">
        <ele>958.6</ele>
        <time>2015-06-07T12:54:46Z</time>
      </trkpt>
      <trkpt lat="45.66985" lon="2.9602">
        <ele>953.4</ele>
        <time>2015-06-07T12:55:50Z</time>
      </trkpt>
      <trkpt lat="45.66928" lon="2.96122">
        <ele>948.8</ele>
        <time>2015-06-07T12:56:30Z</time>
      </trkpt>
      <trkpt lat="45.66897" lon="2.96196">
        <ele>948</ele>
        <time>2015-06-07T12:56:58Z</time>
      </trkpt>
      <trkpt lat="45.6694" lon="2.96218">
        <ele>951</ele>
        <time>2015-06-07T12:57:08Z</time>
      </trkpt>
      <trkpt lat="45.67004" lon="2.96252">
        <ele>956.8</ele>
        <time>2015-06-07T12:57:24Z</time>
      </trkpt>
      <trkpt lat="45.67022" lon="2.9627">
        <ele>958.3</ele>
        <time>2015-06-07T12:57:30Z</time>
      </trkpt>
      <trkpt lat="45.67012" lon="2.96342">
        <ele>957.8</ele>
        <time>2015-06-07T12:57:56Z</time>
      </trkpt>
      <trkpt lat="45.67019" lon="2.96462">
        <ele>953.2</ele>
        <time>2015-06-07T12:58:38Z</time>
      </trkpt>
      <trkpt lat="45.67044" lon="2.96534">
        <ele>947.4</ele>
        <time>2015-06-07T12:59:10Z</time>
      </trkpt>
      <trkpt lat="45.67067" lon="2.96634">
        <ele>941.6</ele>
        <time>2015-06-07T12:59:50Z</time>
      </trkpt>
      <trkpt lat="45.67075" lon="2.96702">
        <ele>938.4</ele>
        <time>2015-06-07T13:00:12Z</time>
      </trkpt>
      <trkpt lat="45.67091" lon="2.96792">
        <ele>935</ele>
        <time>2015-06-07T13:00:46Z</time>
      </trkpt>
      <trkpt lat="45.67246" lon="2.96769">
        <ele>934.7</ele>
        <time>2015-06-07T13:01:22Z</time>
      </trkpt>
      <trkpt lat="45.67404" lon="2.96756">
        <ele>936.9</ele>
        <time>2015-06-07T13:02:02Z</time>
      </trkpt>
      <trkpt lat="45.67488" lon="2.96873">
        <ele>931.6</ele>
        <time>2015-06-07T13:02:54Z</time>
      </trkpt>
      <trkpt lat="45.67536" lon="2.96984">
        <ele>925.5</ele>
        <time>2015-06-07T13:03:38Z</time>
      </trkpt>
      <trkpt lat="45.67583" lon="2.97078">
        <ele>918.9</ele>
        <time>2015-06-07T13:04:20Z</time>
      </trkpt>
      <trkpt lat="45.67604" lon="2.97109">
        <ele>915.5</ele>
        <time>2015-06-07T13:04:38Z</time>
      </trkpt>
      <trkpt lat="45.67628" lon="2.97136">
        <ele>912.1</ele>
        <time>2015-06-07T13:04:56Z</time>
      </trkpt>
      <trkpt lat="45.67729" lon="2.97218">
        <ele>906.5</ele>
        <time>2015-06-07T13:05:38Z</time>
      </trkpt>
      <trkpt lat="45.67779" lon="2.97284">
        <ele>906.7</ele>
        <time>2015-06-07T13:05:58Z</time>
      </trkpt>
      <trkpt lat="45.67913" lon="2.97544">
        <ele>903.3</ele>
        <time>2015-06-07T13:07:04Z</time>
      </trkpt>
      <trkpt lat="45.68051" lon="2.97682">
        <ele>898.8</ele>
        <time>2015-06-07T13:08:04Z</time>
      </trkpt>
      <trkpt lat="45.6811" lon="2.97823">
        <ele>894.1</ele>
        <time>2015-06-07T13:08:44Z</time>
      </trkpt>
      <trkpt lat="45.68139" lon="2.97895">
        <ele>894.3</ele>
        <time>2015-06-07T13:09:00Z</time>
      </trkpt>
      <trkpt lat="45.68208" lon="2.97937">
        <ele>896.9</ele>
        <time>2015-06-07T13:09:32Z</time>
      </trkpt>
      <trkpt lat="45.68313" lon="2.97958">
        <ele>901.1</ele>
        <time>2015-06-07T13:09:56Z</time>
      </trkpt>
      <trkpt lat="45.68439" lon="2.97981">
        <ele>906.9</ele>
        <time>2015-06-07T13:10:30Z</time>
      </trkpt>
      <trkpt lat="45.68502" lon="2.98016">
        <ele>908.1</ele>
        <time>2015-06-07T13:10:56Z</time>
      </trkpt>
      <trkpt lat="45.6855" lon="2.98053">
        <ele>907.1</ele>
        <time>2015-06-07T13:11:12Z</time>
      </trkpt>
      <trkpt lat="45.68603" lon="2.98094">
        <ele>906.1</ele>
        <time>2015-06-07T13:11:36Z</time>
      </trkpt>
      <trkpt lat="45.68642" lon="2.98233">
        <ele>903.4</ele>
        <time>2015-06-07T13:12:10Z</time>
      </trkpt>
      <trkpt lat="45.68678" lon="2.98306">
        <ele>901.9</ele>
        <time>2015-06-07T13:12:36Z</time>
      </trkpt>
      <trkpt lat="45.68694" lon="2.98425">
        <ele>899.9</ele>
        <time>2015-06-07T13:13:30Z</time>
      </trkpt>
      <trkpt lat="45.6874" lon="2.98491">
        <ele>898.9</ele>
        <time>2015-06-07T13:14:32Z</time>
      </trkpt>
      <trkpt lat="45.68761" lon="2.9855">
        <ele>897.8</ele>
        <time>2015-06-07T13:14:58Z</time>
      </trkpt>
      <trkpt lat="45.68784" lon="2.98596">
        <ele>900.9</ele>
        <time>2015-06-07T13:15:18Z</time>
      </trkpt>
      <trkpt lat="45.68826" lon="2.98654">
        <ele>904.8</ele>
        <time>2015-06-07T13:15:30Z</time>
      </trkpt>
      <trkpt lat="45.68887" lon="2.98686">
        <ele>907.9</ele>
        <time>2015-06-07T13:15:44Z</time>
      </trkpt>
      <trkpt lat="45.68994" lon="2.98737">
        <ele>908.7</ele>
        <time>2015-06-07T13:16:20Z</time>
      </trkpt>
      <trkpt lat="45.69055" lon="2.9886">
        <ele>906.1</ele>
        <time>2015-06-07T13:16:56Z</time>
      </trkpt>
      <trkpt lat="45.69095" lon="2.99041">
        <ele>902.1</ele>
        <time>2015-06-07T13:17:38Z</time>
      </trkpt>
      <trkpt lat="45.69147" lon="2.99229">
        <ele>898.2</ele>
        <time>2015-06-07T13:18:24Z</time>
      </trkpt>
      <trkpt lat="45.69156" lon="2.99304">
        <ele>895.1</ele>
        <time>2015-06-07T13:18:42Z</time>
      </trkpt>
      <trkpt lat="45.69203" lon="2.99471">
        <ele>891.1</ele>
        <time>2015-06-07T13:19:24Z</time>
      </trkpt>
      <trkpt lat="45.69274" lon="2.99554">
        <ele>887.2</ele>
        <time>2015-06-07T13:19:58Z</time>
      </trkpt>
      <trkpt lat="45.69273" lon="2.99597">
        <ele>886.9</ele>
        <time>2015-06-07T13:20:06Z</time>
      </trkpt>
      <trkpt lat="45.69226" lon="2.99737">
        <ele>892.2</ele>
        <time>2015-06-07T13:20:24Z</time>
      </trkpt>
      <trkpt lat="45.69232" lon="2.99773">
        <ele>896.1</ele>
        <time>2015-06-07T13:20:36Z</time>
      </trkpt>
      <trkpt lat="45.69285" lon="2.99729">
        <ele>898.7</ele>
        <time>2015-06-07T13:20:48Z</time>
      </trkpt>
      <trkpt lat="45.69366" lon="2.99735">
        <ele>908.1</ele>
        <time>2015-06-07T13:21:24Z</time>
      </trkpt>
      <trkpt lat="45.69416" lon="2.99768">
        <ele>913.5</ele>
        <time>2015-06-07T13:21:32Z</time>
      </trkpt>
      <trkpt lat="45.69432" lon="2.99814">
        <ele>917.3</ele>
        <time>2015-06-07T13:21:38Z</time>
      </trkpt>
      <trkpt lat="45.69436" lon="2.99871">
        <ele>921</ele>
        <time>2015-06-07T13:21:44Z</time>
      </trkpt>
      <trkpt lat="45.69447" lon="2.99952">
        <ele>926.7</ele>
        <time>2015-06-07T13:21:54Z</time>
      </trkpt>
      <trkpt lat="45.69412" lon="3.00035">
        <ele>934.3</ele>
        <time>2015-06-07T13:22:06Z</time>
      </trkpt>
      <trkpt lat="45.6937" lon="3.00117">
        <ele>940.1</ele>
        <time>2015-06-07T13:22:16Z</time>
      </trkpt>
      <trkpt lat="45.69348" lon="3.00191">
        <ele>944.4</ele>
        <time>2015-06-07T13:22:24Z</time>
      </trkpt>
      <trkpt lat="45.69331" lon="3.00275">
        <ele>950.8</ele>
        <time>2015-06-07T13:22:34Z</time>
      </trkpt>
      <trkpt lat="45.69324" lon="3.00309">
        <ele>955</ele>
        <time>2015-06-07T13:22:40Z</time>
      </trkpt>
      <trkpt lat="45.69282" lon="3.00394">
        <ele>959.8</ele>
        <time>2015-06-07T13:22:58Z</time>
      </trkpt>
      <trkpt lat="45.69202" lon="3.00475">
        <ele>960.3</ele>
        <time>2015-06-07T13:23:26Z</time>
      </trkpt>
      <trkpt lat="45.69091" lon="3.00544">
        <ele>967.1</ele>
        <time>2015-06-07T13:23:50Z</time>
      </trkpt>
      <trkpt lat="45.68964" lon="3.0054">
        <ele>974.5</ele>
        <time>2015-06-07T13:24:12Z</time>
      </trkpt>
      <trkpt lat="45.68841" lon="3.00592">
        <ele>978.6</ele>
        <time>2015-06-07T13:24:38Z</time>
      </trkpt>
      <trkpt lat="45.68744" lon="3.00643">
        <ele>975.3</ele>
        <time>2015-06-07T13:25:16Z</time>
      </trkpt>
      <trkpt lat="45.68649" lon="3.00701">
        <ele>975</ele>
        <time>2015-06-07T13:25:54Z</time>
      </trkpt>
      <trkpt lat="45.68651" lon="3.00731">
        <ele>980.2</ele>
        <time>2015-06-07T13:26:02Z</time>
      </trkpt>
      <trkpt lat="45.68637" lon="3.00775">
        <ele>983.6</ele>
        <time>2015-06-07T13:26:10Z</time>
      </trkpt>
      <trkpt lat="45.68615" lon="3.0089">
        <ele>988.2</ele>
        <time>2015-06-07T13:26:28Z</time>
      </trkpt>
      <trkpt lat="45.6856" lon="3.01022">
        <ele>989.2</ele>
        <time>2015-06-07T13:27:16Z</time>
      </trkpt>
      <trkpt lat="45.68509" lon="3.01207">
        <ele>986.5</ele>
        <time>2015-06-07T13:28:10Z</time>
      </trkpt>
      <trkpt lat="45.68478" lon="3.01356">
        <ele>982.6</ele>
        <time>2015-06-07T13:28:52Z</time>
      </trkpt>
      <trkpt lat="45.68452" lon="3.01501">
        <ele>978.6</ele>
        <time>2015-06-07T13:29:38Z</time>
      </trkpt>
      <trkpt lat="45.68426" lon="3.01642">
        <ele>973.7</ele>
        <time>2015-06-07T13:30:22Z</time>
      </trkpt>
      <trkpt lat="45.68401" lon="3.01803">
        <ele>970.4</ele>
        <time>2015-06-07T13:31:08Z</time>
      </trkpt>
      <trkpt lat="45.68418" lon="3.01904">
        <ele>965.3</ele>
        <time>2015-06-07T13:31:42Z</time>
      </trkpt>
      <trkpt lat="45.68415" lon="3.02023">
        <ele>960.8</ele>
        <time>2015-06-07T13:32:18Z</time>
      </trkpt>
      <trkpt lat="45.68389" lon="3.0219">
        <ele>957.3</ele>
        <time>2015-06-07T13:33:02Z</time>
      </trkpt>
      <trkpt lat="45.68295" lon="3.02151">
        <ele>955.3</ele>
        <time>2015-06-07T13:33:38Z</time>
      </trkpt>
      <trkpt lat="45.6823" lon="3.02144">
        <ele>953.5</ele>
        <time>2015-06-07T13:34:14Z</time>
      </trkpt>
      <trkpt lat="45.68243" lon="3.02333">
        <ele>949.2</ele>
        <time>2015-06-07T13:35:04Z</time>
      </trkpt>
      <trkpt lat="45.6825" lon="3.02452">
        <ele>946.2</ele>
        <time>2015-06-07T13:35:36Z</time>
      </trkpt>
      <trkpt lat="45.682" lon="3.02547">
        <ele>942.2</ele>
        <time>2015-06-07T13:36:04Z</time>
      </trkpt>
      <trkpt lat="45.68162" lon="3.02673">
        <ele>946.3</ele>
        <time>2015-06-07T13:36:26Z</time>
      </trkpt>
      <trkpt lat="45.68152" lon="3.02846">
        <ele>944.6</ele>
        <time>2015-06-07T13:37:08Z</time>
      </trkpt>
      <trkpt lat="45.68165" lon="3.03128">
        <ele>938.4</ele>
        <time>2015-06-07T13:38:32Z</time>
      </trkpt>
      <trkpt lat="45.68169" lon="3.03185">
        <ele>935.4</ele>
        <time>2015-06-07T13:38:52Z</time>
      </trkpt>
      <trkpt lat="45.68171" lon="3.03274">
        <ele>929.6</ele>
        <time>2015-06-07T13:39:28Z</time>
      </trkpt>
      <trkpt lat="45.68179" lon="3.03375">
        <ele>923.3</ele>
        <time>2015-06-07T13:40:10Z</time>
      </trkpt>
      <trkpt lat="45.68154" lon="3.034">
        <ele>919.7</ele>
        <time>2015-06-07T13:40:30Z</time>
      </trkpt>
      <trkpt lat="45.68094" lon="3.03412">
        <ele>915.4</ele>
        <time>2015-06-07T13:41:06Z</time>
      </trkpt>
      <trkpt lat="45.68073" lon="3.03442">
        <ele>912.4</ele>
        <time>2015-06-07T13:41:24Z</time>
      </trkpt>
      <trkpt lat="45.68076" lon="3.03576">
        <ele>908.9</ele>
        <time>2015-06-07T13:42:06Z</time>
      </trkpt>
      <trkpt lat="45.68058" lon="3.03697">
        <ele>904.8</ele>
        <time>2015-06-07T13:42:44Z</time>
      </trkpt>
      <trkpt lat="45.68054" lon="3.03813">
        <ele>901.3</ele>
        <time>2015-06-07T13:43:20Z</time>
      </trkpt>
      <trkpt lat="45.68044" lon="3.03906">
        <ele>897.2</ele>
        <time>2015-06-07T13:43:56Z</time>
      </trkpt>
      <trkpt lat="45.68034" lon="3.03973">
        <ele>894</ele>
        <time>2015-06-07T13:44:18Z</time>
      </trkpt>
      <trkpt lat="45.68031" lon="3.04189">
        <ele>890.1</ele>
        <time>2015-06-07T13:45:18Z</time>
      </trkpt>
      <trkpt lat="45.68044" lon="3.04255">
        <ele>887.4</ele>
        <time>2015-06-07T13:45:46Z</time>
      </trkpt>
      <trkpt lat="45.68102" lon="3.04375">
        <ele>879.3</ele>
        <time>2015-06-07T13:46:44Z</time>
      </trkpt>
      <trkpt lat="45.6811" lon="3.04433">
        <ele>874.3</ele>
        <time>2015-06-07T13:47:12Z</time>
      </trkpt>
      <trkpt lat="45.68116" lon="3.04481">
        <ele>870.7</ele>
        <time>2015-06-07T13:47:34Z</time>
      </trkpt>
      <trkpt lat="45.68119" lon="3.04526">
        <ele>867.2</ele>
        <time>2015-06-07T13:47:54Z</time>
      </trkpt>
      <trkpt lat="45.68103" lon="3.04591">
        <ele>861.2</ele>
        <time>2015-06-07T13:48:24Z</time>
      </trkpt>
      <trkpt lat="45.6809" lon="3.04625">
        <ele>857.6</ele>
        <time>2015-06-07T13:48:42Z</time>
      </trkpt>
      <trkpt lat="45.68071" lon="3.04673">
        <ele>853.5</ele>
        <time>2015-06-07T13:49:06Z</time>
      </trkpt>
      <trkpt lat="45.68044" lon="3.04763">
        <ele>847.3</ele>
        <time>2015-06-07T13:49:44Z</time>
      </trkpt>
      <trkpt lat="45.68022" lon="3.04863">
        <ele>841.6</ele>
        <time>2015-06-07T13:50:24Z</time>
      </trkpt>
      <trkpt lat="45.68013" lon="3.04945">
        <ele>838.3</ele>
        <time>2015-06-07T13:50:54Z</time>
      </trkpt>
      <trkpt lat="45.68066" lon="3.05004">
        <ele>834.7</ele>
        <time>2015-06-07T13:51:22Z</time>
      </trkpt>
      <trkpt lat="45.68153" lon="3.05089">
        <ele>830.8</ele>
        <time>2015-06-07T13:52:16Z</time>
      </trkpt>
      <trkpt lat="45.68219" lon="3.05137">
        <ele>826.3</ele>
        <time>2015-06-07T13:52:54Z</time>
      </trkpt>
      <trkpt lat="45.6825" lon="3.05205">
        <ele>820.7</ele>
        <time>2015-06-07T13:53:30Z</time>
      </trkpt>
      <trkpt lat="45.68264" lon="3.05294">
        <ele>816.4</ele>
        <time>2015-06-07T13:54:08Z</time>
      </trkpt>
      <trkpt lat="45.68296" lon="3.05403">
        <ele>809.8</ele>
        <time>2015-06-07T13:54:58Z</time>
      </trkpt>
      <trkpt lat="45.68379" lon="3.05457">
        <ele>803.7</ele>
        <time>2015-06-07T13:55:54Z</time>
      </trkpt>
      <trkpt lat="45.68411" lon="3.05496">
        <ele>799.4</ele>
        <time>2015-06-07T13:56:20Z</time>
      </trkpt>
      <trkpt lat="45.6843" lon="3.05555">
        <ele>793.9</ele>
        <time>2015-06-07T13:56:50Z</time>
      </trkpt>
      <trkpt lat="45.68464" lon="3.05644">
        <ele>786.9</ele>
        <time>2015-06-07T13:57:34Z</time>
      </trkpt>
      <trkpt lat="45.68477" lon="3.05667">
        <ele>784.4</ele>
        <time>2015-06-07T13:57:50Z</time>
      </trkpt>
      <trkpt lat="45.68467" lon="3.05775">
        <ele>780.1</ele>
        <time>2015-06-07T13:58:26Z</time>
      </trkpt>
      <trkpt lat="45.68457" lon="3.05864">
        <ele>774.8</ele>
        <time>2015-06-07T13:58:56Z</time>
      </trkpt>
      <trkpt lat="45.68456" lon="3.06024">
        <ele>768.7</ele>
        <time>2015-06-07T13:59:44Z</time>
      </trkpt>
      <trkpt lat="45.6844" lon="3.06116">
        <ele>766.5</ele>
        <time>2015-06-07T14:00:10Z</time>
      </trkpt>
      <trkpt lat="45.68403" lon="3.06175">
        <ele>766.5</ele>
        <time>2015-06-07T14:00:36Z</time>
      </trkpt>
      <trkpt lat="45.68367" lon="3.0627">
        <ele>761.2</ele>
        <time>2015-06-07T14:01:30Z</time>
      </trkpt>
      <trkpt lat="45.68377" lon="3.06284">
        <ele>761.2</ele>
        <time>2015-06-07T14:01:38Z</time>
      </trkpt>
      <trkpt lat="45.68419" lon="3.06161">
        <ele>756.8</ele>
        <time>2015-06-08T15:56:29Z</time>
      </trkpt>
      <trkpt lat="45.6844" lon="3.06137">
        <ele>758.8</ele>
        <time>2015-06-08T15:56:35Z</time>
      </trkpt>
      <trkpt lat="45.68454" lon="3.06088">
        <ele>762.2</ele>
        <time>2015-06-08T15:56:41Z</time>
      </trkpt>
      <trkpt lat="45.68464" lon="3.05984">
        <ele>766</ele>
        <time>2015-06-08T15:56:49Z</time>
      </trkpt>
      <trkpt lat="45.6847" lon="3.05844">
        <ele>770.8</ele>
        <time>2015-06-08T15:56:59Z</time>
      </trkpt>
      <trkpt lat="45.68477" lon="3.05748">
        <ele>773.5</ele>
        <time>2015-06-08T15:57:07Z</time>
      </trkpt>
      <trkpt lat="45.68486" lon="3.05671">
        <ele>773.8</ele>
        <time>2015-06-08T15:57:15Z</time>
      </trkpt>
      <trkpt lat="45.68483" lon="3.05608">
        <ele>772.6</ele>
        <time>2015-06-08T15:57:25Z</time>
      </trkpt>
      <trkpt lat="45.6848" lon="3.05534">
        <ele>771.6</ele>
        <time>2015-06-08T15:57:35Z</time>
      </trkpt>
      <trkpt lat="45.68525" lon="3.0534">
        <ele>768.8</ele>
        <time>2015-06-08T15:57:59Z</time>
      </trkpt>
      <trkpt lat="45.68578" lon="3.05104">
        <ele>775.8</ele>
        <time>2015-06-08T15:58:19Z</time>
      </trkpt>
      <trkpt lat="45.68587" lon="3.04908">
        <ele>779.3</ele>
        <time>2015-06-08T15:58:37Z</time>
      </trkpt>
      <trkpt lat="45.68625" lon="3.04777">
        <ele>780.3</ele>
        <time>2015-06-08T15:58:49Z</time>
      </trkpt>
      <trkpt lat="45.68646" lon="3.047">
        <ele>781.3</ele>
        <time>2015-06-08T15:58:55Z</time>
      </trkpt>
      <trkpt lat="45.68647" lon="3.04546">
        <ele>787</ele>
        <time>2015-06-08T15:59:05Z</time>
      </trkpt>
      <trkpt lat="45.68656" lon="3.04358">
        <ele>794.8</ele>
        <time>2015-06-08T15:59:15Z</time>
      </trkpt>
      <trkpt lat="45.68666" lon="3.04186">
        <ele>802.8</ele>
        <time>2015-06-08T15:59:25Z</time>
      </trkpt>
      <trkpt lat="45.687" lon="3.04048">
        <ele>811.4</ele>
        <time>2015-06-08T15:59:33Z</time>
      </trkpt>
      <trkpt lat="45.6871" lon="3.0386">
        <ele>821.7</ele>
        <time>2015-06-08T15:59:45Z</time>
      </trkpt>
      <trkpt lat="45.68701" lon="3.03699">
        <ele>830.1</ele>
        <time>2015-06-08T15:59:55Z</time>
      </trkpt>
      <trkpt lat="45.68704" lon="3.03578">
        <ele>835</ele>
        <time>2015-06-08T16:00:03Z</time>
      </trkpt>
      <trkpt lat="45.68734" lon="3.03528">
        <ele>838.5</ele>
        <time>2015-06-08T16:00:09Z</time>
      </trkpt>
      <trkpt lat="45.68779" lon="3.035">
        <ele>842.6</ele>
        <time>2015-06-08T16:00:15Z</time>
      </trkpt>
      <trkpt lat="45.68821" lon="3.03393">
        <ele>848</ele>
        <time>2015-06-08T16:00:25Z</time>
      </trkpt>
      <trkpt lat="45.68901" lon="3.03357">
        <ele>851.2</ele>
        <time>2015-06-08T16:00:41Z</time>
      </trkpt>
      <trkpt lat="45.68967" lon="3.03437">
        <ele>852.3</ele>
        <time>2015-06-08T16:00:57Z</time>
      </trkpt>
      <trkpt lat="45.69081" lon="3.03495">
        <ele>857.8</ele>
        <time>2015-06-08T16:01:17Z</time>
      </trkpt>
      <trkpt lat="45.69191" lon="3.03417">
        <ele>861.4</ele>
        <time>2015-06-08T16:01:39Z</time>
      </trkpt>
      <trkpt lat="45.69219" lon="3.03402">
        <ele>860.3</ele>
        <time>2015-06-08T16:03:18Z</time>
      </trkpt>
      <trkpt lat="45.69347" lon="3.03356">
        <ele>855.3</ele>
        <time>2015-06-08T16:04:00Z</time>
      </trkpt>
      <trkpt lat="45.69476" lon="3.03275">
        <ele>850.3</ele>
        <time>2015-06-08T16:04:44Z</time>
      </trkpt>
      <trkpt lat="45.69593" lon="3.03235">
        <ele>844.2</ele>
        <time>2015-06-08T16:05:26Z</time>
      </trkpt>
      <trkpt lat="45.69739" lon="3.0319">
        <ele>838.7</ele>
        <time>2015-06-08T16:06:16Z</time>
      </trkpt>
      <trkpt lat="45.69752" lon="3.03182">
        <ele>837.6</ele>
        <time>2015-06-08T16:08:32Z</time>
      </trkpt>
      <trkpt lat="45.69829" lon="3.03173">
        <ele>834.3</ele>
        <time>2015-06-08T16:08:58Z</time>
      </trkpt>
      <trkpt lat="45.69997" lon="3.03152">
        <ele>829.2</ele>
        <time>2015-06-08T16:09:40Z</time>
      </trkpt>
      <trkpt lat="45.70049" lon="3.03102">
        <ele>829.7</ele>
        <time>2015-06-08T16:09:52Z</time>
      </trkpt>
      <trkpt lat="45.70161" lon="3.02873">
        <ele>828.2</ele>
        <time>2015-06-08T16:10:32Z</time>
      </trkpt>
      <trkpt lat="45.70267" lon="3.02709">
        <ele>822.7</ele>
        <time>2015-06-08T16:11:26Z</time>
      </trkpt>
      <trkpt lat="45.70318" lon="3.02602">
        <ele>817</ele>
        <time>2015-06-08T16:12:02Z</time>
      </trkpt>
      <trkpt lat="45.70346" lon="3.0243">
        <ele>808.1</ele>
        <time>2015-06-08T16:12:58Z</time>
      </trkpt>
      <trkpt lat="45.70347" lon="3.02396">
        <ele>805.1</ele>
        <time>2015-06-08T16:13:12Z</time>
      </trkpt>
      <trkpt lat="45.70326" lon="3.02307">
        <ele>797.7</ele>
        <time>2015-06-08T16:13:40Z</time>
      </trkpt>
      <trkpt lat="45.70345" lon="3.02253">
        <ele>794.5</ele>
        <time>2015-06-08T16:13:54Z</time>
      </trkpt>
      <trkpt lat="45.70369" lon="3.02231">
        <ele>794.3</ele>
        <time>2015-06-08T16:14:00Z</time>
      </trkpt>
      <trkpt lat="45.70373" lon="3.02068">
        <ele>795.9</ele>
        <time>2015-06-08T16:14:18Z</time>
      </trkpt>
      <trkpt lat="45.70393" lon="3.01964">
        <ele>798.9</ele>
        <time>2015-06-08T16:14:28Z</time>
      </trkpt>
      <trkpt lat="45.70475" lon="3.01797">
        <ele>801.4</ele>
        <time>2015-06-08T16:14:48Z</time>
      </trkpt>
      <trkpt lat="45.70513" lon="3.01657">
        <ele>804.2</ele>
        <time>2015-06-08T16:15:04Z</time>
      </trkpt>
      <trkpt lat="45.7053" lon="3.01419">
        <ele>807.2</ele>
        <time>2015-06-08T16:15:27Z</time>
      </trkpt>
      <trkpt lat="45.70626" lon="3.0132">
        <ele>808.4</ele>
        <time>2015-06-08T16:15:44Z</time>
      </trkpt>
      <trkpt lat="45.70885" lon="3.01321">
        <ele>810.7</ele>
        <time>2015-06-08T16:16:22Z</time>
      </trkpt>
      <trkpt lat="45.70977" lon="3.01514">
        <ele>819.8</ele>
        <time>2015-06-08T16:16:40Z</time>
      </trkpt>
      <trkpt lat="45.71009" lon="3.01547">
        <ele>822.8</ele>
        <time>2015-06-08T16:16:44Z</time>
      </trkpt>
      <trkpt lat="45.71081" lon="3.01593">
        <ele>827.2</ele>
        <time>2015-06-08T16:16:52Z</time>
      </trkpt>
      <trkpt lat="45.71202" lon="3.01673">
        <ele>834.6</ele>
        <time>2015-06-08T16:17:05Z</time>
      </trkpt>
      <trkpt lat="45.71313" lon="3.0175">
        <ele>842.1</ele>
        <time>2015-06-08T16:17:16Z</time>
      </trkpt>
      <trkpt lat="45.71366" lon="3.01783">
        <ele>845.5</ele>
        <time>2015-06-08T16:17:21Z</time>
      </trkpt>
      <trkpt lat="45.71431" lon="3.01805">
        <ele>848.8</ele>
        <time>2015-06-08T16:17:27Z</time>
      </trkpt>
      <trkpt lat="45.71553" lon="3.01832">
        <ele>854</ele>
        <time>2015-06-08T16:17:41Z</time>
      </trkpt>
      <trkpt lat="45.71751" lon="3.0188">
        <ele>857.3</ele>
        <time>2015-06-08T16:18:15Z</time>
      </trkpt>
      <trkpt lat="45.71842" lon="3.01898">
        <ele>859.3</ele>
        <time>2015-06-08T16:18:57Z</time>
      </trkpt>
      <trkpt lat="45.71905" lon="3.0192">
        <ele>858.8</ele>
        <time>2015-06-08T16:19:17Z</time>
      </trkpt>
      <trkpt lat="45.71982" lon="3.01963">
        <ele>860.7</ele>
        <time>2015-06-08T16:19:39Z</time>
      </trkpt>
      <trkpt lat="45.72016" lon="3.01968">
        <ele>861</ele>
        <time>2015-06-08T16:19:47Z</time>
      </trkpt>
      <trkpt lat="45.7208" lon="3.01859">
        <ele>853.4</ele>
        <time>2015-06-08T16:20:24Z</time>
      </trkpt>
      <trkpt lat="45.72091" lon="3.01821">
        <ele>853.7</ele>
        <time>2015-06-08T16:20:32Z</time>
      </trkpt>
      <trkpt lat="45.72138" lon="3.01761">
        <ele>859.3</ele>
        <time>2015-06-08T16:20:48Z</time>
      </trkpt>
      <trkpt lat="45.72189" lon="3.0169">
        <ele>865.9</ele>
        <time>2015-06-08T16:23:16Z</time>
      </trkpt>
      <trkpt lat="45.72234" lon="3.01579">
        <ele>870.3</ele>
        <time>2015-06-08T16:23:30Z</time>
      </trkpt>
      <trkpt lat="45.7225" lon="3.01532">
        <ele>870.6</ele>
        <time>2015-06-08T16:23:36Z</time>
      </trkpt>
      <trkpt lat="45.72334" lon="3.01417">
        <ele>871.8</ele>
        <time>2015-06-08T16:23:56Z</time>
      </trkpt>
      <trkpt lat="45.72398" lon="3.0132">
        <ele>877</ele>
        <time>2015-06-08T16:24:08Z</time>
      </trkpt>
      <trkpt lat="45.7243" lon="3.01261">
        <ele>881</ele>
        <time>2015-06-08T16:24:14Z</time>
      </trkpt>
      <trkpt lat="45.72457" lon="3.01188">
        <ele>884.5</ele>
        <time>2015-06-08T16:24:22Z</time>
      </trkpt>
      <trkpt lat="45.72521" lon="3.01047">
        <ele>890.4</ele>
        <time>2015-06-08T16:24:40Z</time>
      </trkpt>
      <trkpt lat="45.72543" lon="3.00967">
        <ele>893.8</ele>
        <time>2015-06-08T16:24:50Z</time>
      </trkpt>
      <trkpt lat="45.72546" lon="3.00911">
        <ele>897.7</ele>
        <time>2015-06-08T16:25:00Z</time>
      </trkpt>
      <trkpt lat="45.72561" lon="3.00844">
        <ele>901.3</ele>
        <time>2015-06-08T16:25:08Z</time>
      </trkpt>
      <trkpt lat="45.72582" lon="3.00775">
        <ele>904.7</ele>
        <time>2015-06-08T16:25:16Z</time>
      </trkpt>
      <trkpt lat="45.72617" lon="3.00609">
        <ele>911.2</ele>
        <time>2015-06-08T16:25:30Z</time>
      </trkpt>
      <trkpt lat="45.72702" lon="3.00517">
        <ele>914.7</ele>
        <time>2015-06-08T16:25:48Z</time>
      </trkpt>
      <trkpt lat="45.72844" lon="3.00513">
        <ele>920.6</ele>
        <time>2015-06-08T16:26:16Z</time>
      </trkpt>
      <trkpt lat="45.72867" lon="3.00503">
        <ele>923.8</ele>
        <time>2015-06-08T16:26:20Z</time>
      </trkpt>
      <trkpt lat="45.72912" lon="3.00468">
        <ele>928.9</ele>
        <time>2015-06-08T16:26:28Z</time>
      </trkpt>
      <trkpt lat="45.72932" lon="3.00436">
        <ele>932.9</ele>
        <time>2015-06-08T16:26:32Z</time>
      </trkpt>
      <trkpt lat="45.72969" lon="3.00359">
        <ele>941.2</ele>
        <time>2015-06-08T16:26:40Z</time>
      </trkpt>
      <trkpt lat="45.72987" lon="3.00322">
        <ele>944.6</ele>
        <time>2015-06-08T16:26:44Z</time>
      </trkpt>
      <trkpt lat="45.73014" lon="3.00259">
        <ele>950.9</ele>
        <time>2015-06-08T16:26:50Z</time>
      </trkpt>
      <trkpt lat="45.73051" lon="3.0012">
        <ele>957.7</ele>
        <time>2015-06-08T16:27:02Z</time>
      </trkpt>
      <trkpt lat="45.7305" lon="2.99997">
        <ele>959</ele>
        <time>2015-06-08T16:27:14Z</time>
      </trkpt>
      <trkpt lat="45.731" lon="2.99844">
        <ele>962</ele>
        <time>2015-06-08T16:27:30Z</time>
      </trkpt>
      <trkpt lat="45.73156" lon="2.99724">
        <ele>966.7</ele>
        <time>2015-06-08T16:27:44Z</time>
      </trkpt>
      <trkpt lat="45.73165" lon="2.99709">
        <ele>966.8</ele>
        <time>2015-06-08T16:27:46Z</time>
      </trkpt>
      <trkpt lat="45.73295" lon="2.99546">
        <ele>971.1</ele>
        <time>2015-06-08T16:28:12Z</time>
      </trkpt>
      <trkpt lat="45.73377" lon="2.99428">
        <ele>974.7</ele>
        <time>2015-06-08T16:28:30Z</time>
      </trkpt>
      <trkpt lat="45.73396" lon="2.99392">
        <ele>976</ele>
        <time>2015-06-08T16:28:34Z</time>
      </trkpt>
      <trkpt lat="45.73516" lon="2.9914">
        <ele>982.1</ele>
        <time>2015-06-08T16:29:06Z</time>
      </trkpt>
      <trkpt lat="45.73531" lon="2.99116">
        <ele>982.4</ele>
        <time>2015-06-08T16:29:10Z</time>
      </trkpt>
      <trkpt lat="45.73628" lon="2.98949">
        <ele>980.8</ele>
        <time>2015-06-08T16:29:38Z</time>
      </trkpt>
      <trkpt lat="45.73711" lon="2.98649">
        <ele>983.4</ele>
        <time>2015-06-08T16:30:18Z</time>
      </trkpt>
      <trkpt lat="45.73739" lon="2.98538">
        <ele>987.8</ele>
        <time>2015-06-08T16:30:32Z</time>
      </trkpt>
      <trkpt lat="45.73803" lon="2.98345">
        <ele>992.8</ele>
        <time>2015-06-08T16:31:00Z</time>
      </trkpt>
      <trkpt lat="45.7382" lon="2.98247">
        <ele>991.8</ele>
        <time>2015-06-08T16:31:22Z</time>
      </trkpt>
      <trkpt lat="45.73837" lon="2.98086">
        <ele>987.7</ele>
        <time>2015-06-08T16:32:02Z</time>
      </trkpt>
      <trkpt lat="45.7384" lon="2.98001">
        <ele>983.9</ele>
        <time>2015-06-08T16:32:26Z</time>
      </trkpt>
      <trkpt lat="45.73862" lon="2.97801">
        <ele>975.1</ele>
        <time>2015-06-08T16:33:22Z</time>
      </trkpt>
      <trkpt lat="45.73869" lon="2.97724">
        <ele>972</ele>
        <time>2015-06-08T16:33:42Z</time>
      </trkpt>
      <trkpt lat="45.73869" lon="2.97651">
        <ele>968.8</ele>
        <time>2015-06-08T16:34:02Z</time>
      </trkpt>
      <trkpt lat="45.73865" lon="2.97551">
        <ele>963.3</ele>
        <time>2015-06-08T16:34:30Z</time>
      </trkpt>
      <trkpt lat="45.73864" lon="2.97478">
        <ele>959.3</ele>
        <time>2015-06-08T16:34:50Z</time>
      </trkpt>
      <trkpt lat="45.7386" lon="2.97414">
        <ele>956.5</ele>
        <time>2015-06-08T16:35:02Z</time>
      </trkpt>
      <trkpt lat="45.73843" lon="2.97293">
        <ele>956.6</ele>
        <time>2015-06-08T16:35:20Z</time>
      </trkpt>
      <trkpt lat="45.73867" lon="2.9719">
        <ele>959.5</ele>
        <time>2015-06-08T16:35:32Z</time>
      </trkpt>
      <trkpt lat="45.73903" lon="2.97047">
        <ele>963.1</ele>
        <time>2015-06-08T16:35:48Z</time>
      </trkpt>
      <trkpt lat="45.73905" lon="2.97036">
        <ele>963.3</ele>
        <time>2015-06-08T16:35:50Z</time>
      </trkpt>
      <trkpt lat="45.7393" lon="2.96916">
        <ele>963.7</ele>
        <time>2015-06-08T16:36:16Z</time>
      </trkpt>
      <trkpt lat="45.73986" lon="2.96843">
        <ele>960</ele>
        <time>2015-06-08T16:36:42Z</time>
      </trkpt>
      <trkpt lat="45.74007" lon="2.96785">
        <ele>956.8</ele>
        <time>2015-06-08T16:36:58Z</time>
      </trkpt>
      <trkpt lat="45.74031" lon="2.96712">
        <ele>955</ele>
        <time>2015-06-08T16:37:14Z</time>
      </trkpt>
      <trkpt lat="45.74073" lon="2.96676">
        <ele>955</ele>
        <time>2015-06-08T16:37:30Z</time>
      </trkpt>
      <trkpt lat="45.74063" lon="2.96624">
        <ele>959.2</ele>
        <time>2015-06-08T16:38:02Z</time>
      </trkpt>
      <trkpt lat="45.74019" lon="2.96655">
        <ele>960.4</ele>
        <time>2015-06-08T16:38:20Z</time>
      </trkpt>
      <trkpt lat="45.74021" lon="2.96641">
        <ele>960.7</ele>
        <time>2015-06-08T16:38:36Z</time>
      </trkpt>
      <trkpt lat="45.74067" lon="2.96534">
        <ele>962</ele>
        <time>2015-06-08T16:38:57Z</time>
      </trkpt>
      <trkpt lat="45.74124" lon="2.96453">
        <ele>966</ele>
        <time>2015-06-08T16:39:15Z</time>
      </trkpt>
      <trkpt lat="45.74222" lon="2.96414">
        <ele>969.5</ele>
        <time>2015-06-08T16:39:35Z</time>
      </trkpt>
      <trkpt lat="45.74292" lon="2.96382">
        <ele>970.7</ele>
        <time>2015-06-08T16:39:51Z</time>
      </trkpt>
      <trkpt lat="45.74388" lon="2.9633">
        <ele>965.6</ele>
        <time>2015-06-08T16:40:25Z</time>
      </trkpt>
      <trkpt lat="45.74475" lon="2.96277">
        <ele>960.4</ele>
        <time>2015-06-08T16:40:57Z</time>
      </trkpt>
      <trkpt lat="45.74539" lon="2.96249">
        <ele>959.8</ele>
        <time>2015-06-08T16:41:15Z</time>
      </trkpt>
      <trkpt lat="45.74629" lon="2.96242">
        <ele>957.8</ele>
        <time>2015-06-08T16:41:35Z</time>
      </trkpt>
      <trkpt lat="45.74678" lon="2.96236">
        <ele>958.4</ele>
        <time>2015-06-08T16:41:47Z</time>
      </trkpt>
      <trkpt lat="45.74884" lon="2.96129">
        <ele>959.2</ele>
        <time>2015-06-08T16:47:15Z</time>
      </trkpt>
      <trkpt lat="45.74934" lon="2.9618">
        <ele>954.5</ele>
        <time>2015-06-08T16:47:43Z</time>
      </trkpt>
      <trkpt lat="45.74996" lon="2.96247">
        <ele>948.2</ele>
        <time>2015-06-08T16:48:15Z</time>
      </trkpt>
      <trkpt lat="45.7503" lon="2.96291">
        <ele>944.8</ele>
        <time>2015-06-08T16:48:31Z</time>
      </trkpt>
      <trkpt lat="45.75083" lon="2.96374">
        <ele>941.2</ele>
        <time>2015-06-08T16:48:51Z</time>
      </trkpt>
      <trkpt lat="45.75209" lon="2.96635">
        <ele>939.4</ele>
        <time>2015-06-08T16:49:37Z</time>
      </trkpt>
      <trkpt lat="45.75274" lon="2.96777">
        <ele>939.9</ele>
        <time>2015-06-08T16:50:03Z</time>
      </trkpt>
      <trkpt lat="45.75277" lon="2.96779">
        <ele>939.5</ele>
        <time>2015-06-08T16:50:57Z</time>
      </trkpt>
      <trkpt lat="45.75264" lon="2.96789">
        <ele>937.7</ele>
        <time>2015-06-08T16:52:02Z</time>
      </trkpt>
      <trkpt lat="45.75206" lon="2.9679">
        <ele>935.7</ele>
        <time>2015-06-08T16:52:22Z</time>
      </trkpt>
      <trkpt lat="45.75232" lon="2.9679">
        <ele>938.2</ele>
        <time>2015-06-08T16:52:56Z</time>
      </trkpt>
      <trkpt lat="45.75301" lon="2.96867">
        <ele>940.8</ele>
        <time>2015-06-08T16:56:41Z</time>
      </trkpt>
      <trkpt lat="45.75379" lon="2.97039">
        <ele>941.5</ele>
        <time>2015-06-08T16:57:09Z</time>
      </trkpt>
      <trkpt lat="45.75458" lon="2.97188">
        <ele>940</ele>
        <time>2015-06-08T16:57:33Z</time>
      </trkpt>
      <trkpt lat="45.75576" lon="2.97368">
        <ele>938.8</ele>
        <time>2015-06-08T16:58:33Z</time>
      </trkpt>
      <trkpt lat="45.75674" lon="2.97398">
        <ele>932.7</ele>
        <time>2015-06-08T16:59:19Z</time>
      </trkpt>
      <trkpt lat="45.75773" lon="2.97409">
        <ele>928.9</ele>
        <time>2015-06-08T16:59:55Z</time>
      </trkpt>
      <trkpt lat="45.75847" lon="2.97407">
        <ele>924</ele>
        <time>2015-06-08T17:00:19Z</time>
      </trkpt>
      <trkpt lat="45.7594" lon="2.97418">
        <ele>920.6</ele>
        <time>2015-06-08T17:00:51Z</time>
      </trkpt>
      <trkpt lat="45.75974" lon="2.97436">
        <ele>920.3</ele>
        <time>2015-06-08T17:01:03Z</time>
      </trkpt>
      <trkpt lat="45.76075" lon="2.97531">
        <ele>913.8</ele>
        <time>2015-06-08T17:01:47Z</time>
      </trkpt>
      <trkpt lat="45.76153" lon="2.97596">
        <ele>912.2</ele>
        <time>2015-06-08T17:02:13Z</time>
      </trkpt>
      <trkpt lat="45.76286" lon="2.97691">
        <ele>910.3</ele>
        <time>2015-06-08T17:02:45Z</time>
      </trkpt>
      <trkpt lat="45.76455" lon="2.97825">
        <ele>910.1</ele>
        <time>2015-06-08T17:03:21Z</time>
      </trkpt>
      <trkpt lat="45.76575" lon="2.97884">
        <ele>912.4</ele>
        <time>2015-06-08T17:03:41Z</time>
      </trkpt>
      <trkpt lat="45.76642" lon="2.97892">
        <ele>915</ele>
        <time>2015-06-08T17:03:57Z</time>
      </trkpt>
      <trkpt lat="45.76688" lon="2.97897">
        <ele>915.5</ele>
        <time>2015-06-08T17:04:07Z</time>
      </trkpt>
      <trkpt lat="45.76931" lon="2.97957">
        <ele>916.1</ele>
        <time>2015-06-08T17:05:03Z</time>
      </trkpt>
      <trkpt lat="45.77035" lon="2.98">
        <ele>913.9</ele>
        <time>2015-06-08T17:05:37Z</time>
      </trkpt>
      <trkpt lat="45.7709" lon="2.98017">
        <ele>918.4</ele>
        <time>2015-06-08T17:05:57Z</time>
      </trkpt>
      <trkpt lat="45.77129" lon="2.97983">
        <ele>925.2</ele>
        <time>2015-06-08T17:06:05Z</time>
      </trkpt>
      <trkpt lat="45.77166" lon="2.97946">
        <ele>931.1</ele>
        <time>2015-06-08T17:06:11Z</time>
      </trkpt>
      <trkpt lat="45.77187" lon="2.97917">
        <ele>936.7</ele>
        <time>2015-06-08T17:06:15Z</time>
      </trkpt>
      <trkpt lat="45.77204" lon="2.97873">
        <ele>942</ele>
        <time>2015-06-08T17:06:21Z</time>
      </trkpt>
      <trkpt lat="45.77235" lon="2.97821">
        <ele>948.1</ele>
        <time>2015-06-08T17:06:29Z</time>
      </trkpt>
      <trkpt lat="45.77261" lon="2.97789">
        <ele>951.7</ele>
        <time>2015-06-08T17:06:35Z</time>
      </trkpt>
      <trkpt lat="45.77304" lon="2.97735">
        <ele>960.4</ele>
        <time>2015-06-08T17:06:45Z</time>
      </trkpt>
      <trkpt lat="45.77337" lon="2.97701">
        <ele>968.3</ele>
        <time>2015-06-08T17:06:53Z</time>
      </trkpt>
      <trkpt lat="45.77392" lon="2.97661">
        <ele>975.2</ele>
        <time>2015-06-08T17:07:03Z</time>
      </trkpt>
      <trkpt lat="45.77451" lon="2.97639">
        <ele>982.7</ele>
        <time>2015-06-08T17:07:13Z</time>
      </trkpt>
      <trkpt lat="45.7747" lon="2.97625">
        <ele>986.7</ele>
        <time>2015-06-08T17:07:17Z</time>
      </trkpt>
      <trkpt lat="45.77517" lon="2.97587">
        <ele>994.6</ele>
        <time>2015-06-08T17:07:27Z</time>
      </trkpt>
      <trkpt lat="45.77537" lon="2.97568">
        <ele>997.7</ele>
        <time>2015-06-08T17:07:31Z</time>
      </trkpt>
      <trkpt lat="45.77586" lon="2.97546">
        <ele>1005.1</ele>
        <time>2015-06-08T17:07:43Z</time>
      </trkpt>
      <trkpt lat="45.77635" lon="2.97547">
        <ele>1011</ele>
        <time>2015-06-08T17:07:55Z</time>
      </trkpt>
      <trkpt lat="45.77666" lon="2.97554">
        <ele>1015.3</ele>
        <time>2015-06-08T17:08:01Z</time>
      </trkpt>
      <trkpt lat="45.77705" lon="2.97559">
        <ele>1018.8</ele>
        <time>2015-06-08T17:08:07Z</time>
      </trkpt>
      <trkpt lat="45.7774" lon="2.97564">
        <ele>1024</ele>
        <time>2015-06-08T17:08:13Z</time>
      </trkpt>
      <trkpt lat="45.7779" lon="2.97562">
        <ele>1030</ele>
        <time>2015-06-08T17:08:23Z</time>
      </trkpt>
      <trkpt lat="45.7785" lon="2.97563">
        <ele>1038.4</ele>
        <time>2015-06-08T17:08:41Z</time>
      </trkpt>
      <trkpt lat="45.77888" lon="2.97565">
        <ele>1042.6</ele>
        <time>2015-06-08T17:08:49Z</time>
      </trkpt>
      <trkpt lat="45.77926" lon="2.97559">
        <ele>1048.1</ele>
        <time>2015-06-08T17:09:01Z</time>
      </trkpt>
      <trkpt lat="45.77972" lon="2.97539">
        <ele>1055.5</ele>
        <time>2015-06-08T17:09:15Z</time>
      </trkpt>
      <trkpt lat="45.78004" lon="2.97515">
        <ele>1062.2</ele>
        <time>2015-06-08T17:09:27Z</time>
      </trkpt>
      <trkpt lat="45.78055" lon="2.97478">
        <ele>1072</ele>
        <time>2015-06-08T17:09:43Z</time>
      </trkpt>
      <trkpt lat="45.78093" lon="2.97443">
        <ele>1080.2</ele>
        <time>2015-06-08T17:09:57Z</time>
      </trkpt>
      <trkpt lat="45.78132" lon="2.97398">
        <ele>1085.2</ele>
        <time>2015-06-08T17:10:13Z</time>
      </trkpt>
      <trkpt lat="45.78208" lon="2.97312">
        <ele>1087</ele>
        <time>2015-06-08T17:10:45Z</time>
      </trkpt>
      <trkpt lat="45.78265" lon="2.97243">
        <ele>1091.4</ele>
        <time>2015-06-08T17:11:15Z</time>
      </trkpt>
      <trkpt lat="45.7829" lon="2.97194">
        <ele>1094.4</ele>
        <time>2015-06-08T17:11:27Z</time>
      </trkpt>
      <trkpt lat="45.78322" lon="2.97142">
        <ele>1097.5</ele>
        <time>2015-06-08T17:11:39Z</time>
      </trkpt>
      <trkpt lat="45.78356" lon="2.97023">
        <ele>1099.5</ele>
        <time>2015-06-08T17:11:57Z</time>
      </trkpt>
      <trkpt lat="45.78387" lon="2.96939">
        <ele>1103.6</ele>
        <time>2015-06-08T17:12:15Z</time>
      </trkpt>
      <trkpt lat="45.78402" lon="2.96893">
        <ele>1103.8</ele>
        <time>2015-06-08T17:12:23Z</time>
      </trkpt>
      <trkpt lat="45.78432" lon="2.96811">
        <ele>1102.2</ele>
        <time>2015-06-08T17:12:41Z</time>
      </trkpt>
      <trkpt lat="45.78394" lon="2.96579">
        <ele>1104.2</ele>
        <time>2015-06-08T17:13:25Z</time>
      </trkpt>
      <trkpt lat="45.78376" lon="2.96411">
        <ele>1101.4</ele>
        <time>2015-06-08T17:13:55Z</time>
      </trkpt>
      <trkpt lat="45.78383" lon="2.96324">
        <ele>1097</ele>
        <time>2015-06-08T17:15:51Z</time>
      </trkpt>
      <trkpt lat="45.78393" lon="2.96291">
        <ele>1093.9</ele>
        <time>2015-06-08T17:16:07Z</time>
      </trkpt>
      <trkpt lat="45.78425" lon="2.96239">
        <ele>1088.6</ele>
        <time>2015-06-08T17:16:37Z</time>
      </trkpt>
      <trkpt lat="45.7848" lon="2.96197">
        <ele>1082.9</ele>
        <time>2015-06-08T17:17:15Z</time>
      </trkpt>
      <trkpt lat="45.78491" lon="2.96181">
        <ele>1079.5</ele>
        <time>2015-06-08T17:17:31Z</time>
      </trkpt>
      <trkpt lat="45.78479" lon="2.96129">
        <ele>1073.6</ele>
        <time>2015-06-08T17:17:59Z</time>
      </trkpt>
      <trkpt lat="45.78452" lon="2.96105">
        <ele>1070.1</ele>
        <time>2015-06-08T17:18:15Z</time>
      </trkpt>
      <trkpt lat="45.78396" lon="2.96108">
        <ele>1067.3</ele>
        <time>2015-06-08T17:21:09Z</time>
      </trkpt>
      <trkpt lat="45.78314" lon="2.96083">
        <ele>1061.9</ele>
        <time>2015-06-08T17:21:41Z</time>
      </trkpt>
      <trkpt lat="45.78268" lon="2.95995">
        <ele>1057.8</ele>
        <time>2015-06-08T17:22:09Z</time>
      </trkpt>
      <trkpt lat="45.78233" lon="2.95867">
        <ele>1053.8</ele>
        <time>2015-06-08T17:22:43Z</time>
      </trkpt>
      <trkpt lat="45.78139" lon="2.95644">
        <ele>1056</ele>
        <time>2015-06-08T17:23:31Z</time>
      </trkpt>
      <trkpt lat="45.78085" lon="2.95528">
        <ele>1058.6</ele>
        <time>2015-06-08T17:24:05Z</time>
      </trkpt>
      <trkpt lat="45.78033" lon="2.95397">
        <ele>1054.5</ele>
        <time>2015-06-08T17:24:55Z</time>
      </trkpt>
      <trkpt lat="45.77998" lon="2.95361">
        <ele>1048.6</ele>
        <time>2015-06-08T17:25:17Z</time>
      </trkpt>
      <trkpt lat="45.77941" lon="2.95327">
        <ele>1044.1</ele>
        <time>2015-06-08T17:25:37Z</time>
      </trkpt>
      <trkpt lat="45.77908" lon="2.95312">
        <ele>1044</ele>
        <time>2015-06-08T17:25:47Z</time>
      </trkpt>
      <trkpt lat="45.77861" lon="2.95283">
        <ele>1047.7</ele>
        <time>2015-06-08T17:26:01Z</time>
      </trkpt>
      <trkpt lat="45.77816" lon="2.95267">
        <ele>1051</ele>
        <time>2015-06-08T17:26:15Z</time>
      </trkpt>
      <trkpt lat="45.77665" lon="2.95249">
        <ele>1051.4</ele>
        <time>2015-06-08T17:27:05Z</time>
      </trkpt>
      <trkpt lat="45.77632" lon="2.95258">
        <ele>1048.4</ele>
        <time>2015-06-08T17:27:23Z</time>
      </trkpt>
      <trkpt lat="45.77602" lon="2.95271">
        <ele>1044.8</ele>
        <time>2015-06-08T17:27:41Z</time>
      </trkpt>
      <trkpt lat="45.77545" lon="2.9526">
        <ele>1038.9</ele>
        <time>2015-06-08T17:28:07Z</time>
      </trkpt>
      <trkpt lat="45.77506" lon="2.95228">
        <ele>1039.2</ele>
        <time>2015-06-08T17:28:21Z</time>
      </trkpt>
      <trkpt lat="45.77413" lon="2.9519">
        <ele>1043.9</ele>
        <time>2015-06-08T17:28:35Z</time>
      </trkpt>
      <trkpt lat="45.77307" lon="2.95164">
        <ele>1048.3</ele>
        <time>2015-06-08T17:28:57Z</time>
      </trkpt>
      <trkpt lat="45.7726" lon="2.95176">
        <ele>1052.1</ele>
        <time>2015-06-08T17:29:05Z</time>
      </trkpt>
      <trkpt lat="45.77194" lon="2.95192">
        <ele>1056.4</ele>
        <time>2015-06-08T17:29:15Z</time>
      </trkpt>
      <trkpt lat="45.77124" lon="2.95215">
        <ele>1062.2</ele>
        <time>2015-06-08T17:29:27Z</time>
      </trkpt>
      <trkpt lat="45.7705" lon="2.95261">
        <ele>1069.1</ele>
        <time>2015-06-08T17:29:45Z</time>
      </trkpt>
      <trkpt lat="45.76949" lon="2.95316">
        <ele>1069.4</ele>
        <time>2015-06-08T17:30:13Z</time>
      </trkpt>
      <trkpt lat="45.76914" lon="2.95322">
        <ele>1066.4</ele>
        <time>2015-06-08T17:30:25Z</time>
      </trkpt>
      <trkpt lat="45.76835" lon="2.95354">
        <ele>1063.4</ele>
        <time>2015-06-08T17:30:49Z</time>
      </trkpt>
      <trkpt lat="45.7677" lon="2.95371">
        <ele>1063.3</ele>
        <time>2015-06-08T17:31:05Z</time>
      </trkpt>
      <trkpt lat="45.76715" lon="2.95396">
        <ele>1059.4</ele>
        <time>2015-06-08T17:31:25Z</time>
      </trkpt>
      <trkpt lat="45.76637" lon="2.95414">
        <ele>1058.2</ele>
        <time>2015-06-08T17:31:53Z</time>
      </trkpt>
      <trkpt lat="45.76608" lon="2.95439">
        <ele>1060.8</ele>
        <time>2015-06-08T17:32:03Z</time>
      </trkpt>
      <trkpt lat="45.76523" lon="2.95495">
        <ele>1059.1</ele>
        <time>2015-06-08T17:32:37Z</time>
      </trkpt>
      <trkpt lat="45.7651" lon="2.95504">
        <ele>1059.5</ele>
        <time>2015-06-08T17:32:45Z</time>
      </trkpt>
      <trkpt lat="45.76464" lon="2.95533">
        <ele>1063.3</ele>
        <time>2015-06-08T17:33:05Z</time>
      </trkpt>
      <trkpt lat="45.7645" lon="2.95541">
        <ele>1065.4</ele>
        <time>2015-06-08T17:33:13Z</time>
      </trkpt>
      <trkpt lat="45.76444" lon="2.95595">
        <ele>1063.4</ele>
        <time>2015-06-08T17:34:02Z</time>
      </trkpt>
      <trkpt lat="45.76435" lon="2.9561">
        <ele>1060.3</ele>
        <time>2015-06-08T17:34:12Z</time>
      </trkpt>
      <trkpt lat="45.76412" lon="2.95641">
        <ele>1057.1</ele>
        <time>2015-06-08T17:34:53Z</time>
      </trkpt>
      <trkpt lat="45.76372" lon="2.95634">
        <ele>1054.8</ele>
        <time>2015-06-08T17:35:33Z</time>
      </trkpt>
      <trkpt lat="45.76317" lon="2.95688">
        <ele>1048.5</ele>
        <time>2015-06-08T17:36:23Z</time>
      </trkpt>
      <trkpt lat="45.76273" lon="2.95714">
        <ele>1041.8</ele>
        <time>2015-06-08T17:36:55Z</time>
      </trkpt>
      <trkpt lat="45.76215" lon="2.95736">
        <ele>1036.2</ele>
        <time>2015-06-08T17:37:29Z</time>
      </trkpt>
      <trkpt lat="45.76142" lon="2.95791">
        <ele>1028.5</ele>
        <time>2015-06-08T17:38:23Z</time>
      </trkpt>
      <trkpt lat="45.76113" lon="2.95816">
        <ele>1024.2</ele>
        <time>2015-06-08T17:38:47Z</time>
      </trkpt>
      <trkpt lat="45.76088" lon="2.95861">
        <ele>1020.2</ele>
        <time>2015-06-08T17:39:17Z</time>
      </trkpt>
      <trkpt lat="45.76077" lon="2.95914">
        <ele>1013.6</ele>
        <time>2015-06-08T17:39:59Z</time>
      </trkpt>
      <trkpt lat="45.76092" lon="2.96004">
        <ele>1000.6</ele>
        <time>2015-06-08T17:41:38Z</time>
      </trkpt>
      <trkpt lat="45.76099" lon="2.96028">
        <ele>996.8</ele>
        <time>2015-06-08T17:41:56Z</time>
      </trkpt>
      <trkpt lat="45.76102" lon="2.9606">
        <ele>991.7</ele>
        <time>2015-06-08T17:42:30Z</time>
      </trkpt>
      <trkpt lat="45.76094" lon="2.96073">
        <ele>989.7</ele>
        <time>2015-06-08T17:42:56Z</time>
      </trkpt>
      <trkpt lat="45.76085" lon="2.96121">
        <ele>982.2</ele>
        <time>2015-06-08T17:43:24Z</time>
      </trkpt>
      <trkpt lat="45.76067" lon="2.96198">
        <ele>972.5</ele>
        <time>2015-06-08T17:44:10Z</time>
      </trkpt>
      <trkpt lat="45.76057" lon="2.96231">
        <ele>969</ele>
        <time>2015-06-08T17:44:28Z</time>
      </trkpt>
      <trkpt lat="45.7604" lon="2.96301">
        <ele>963.1</ele>
        <time>2015-06-08T17:44:56Z</time>
      </trkpt>
      <trkpt lat="45.76013" lon="2.96374">
        <ele>958.8</ele>
        <time>2015-06-08T17:45:20Z</time>
      </trkpt>
      <trkpt lat="45.75994" lon="2.96405">
        <ele>955.7</ele>
        <time>2015-06-08T17:45:34Z</time>
      </trkpt>
      <trkpt lat="45.75914" lon="2.96488">
        <ele>949.9</ele>
        <time>2015-06-08T17:46:06Z</time>
      </trkpt>
      <trkpt lat="45.75815" lon="2.96519">
        <ele>947</ele>
        <time>2015-06-08T17:46:34Z</time>
      </trkpt>
      <trkpt lat="45.75652" lon="2.96565">
        <ele>945.5</ele>
        <time>2015-06-08T17:47:14Z</time>
      </trkpt>
      <trkpt lat="45.75531" lon="2.96633">
        <ele>945.5</ele>
        <time>2015-06-08T17:47:44Z</time>
      </trkpt>
      <trkpt lat="45.75442" lon="2.96682">
        <ele>944</ele>
        <time>2015-06-08T17:48:08Z</time>
      </trkpt>
      <trkpt lat="45.75354" lon="2.96717">
        <ele>943.1</ele>
        <time>2015-06-08T17:48:30Z</time>
      </trkpt>
      <trkpt lat="45.75259" lon="2.96788">
        <ele>940</ele>
        <time>2015-06-08T17:49:30Z</time>
      </trkpt>
      <trkpt lat="45.75188" lon="2.96786">
        <ele>936.6</ele>
        <time>2015-06-08T17:49:54Z</time>
      </trkpt>
      <trkpt lat="45.75084" lon="2.96816">
        <ele>935.3</ele>
        <time>2015-06-08T17:50:22Z</time>
      </trkpt>
      <trkpt lat="45.74842" lon="2.96885">
        <ele>932.8</ele>
        <time>2015-06-08T17:51:18Z</time>
      </trkpt>
      <trkpt lat="45.74678" lon="2.96972">
        <ele>934.9</ele>
        <time>2015-06-08T17:51:54Z</time>
      </trkpt>
      <trkpt lat="45.74614" lon="2.97006">
        <ele>938.7</ele>
        <time>2015-06-08T17:52:08Z</time>
      </trkpt>
      <trkpt lat="45.74531" lon="2.96987">
        <ele>943.4</ele>
        <time>2015-06-08T17:52:24Z</time>
      </trkpt>
      <trkpt lat="45.74296" lon="2.96889">
        <ele>950.4</ele>
        <time>2015-06-08T17:53:08Z</time>
      </trkpt>
      <trkpt lat="45.74287" lon="2.96884">
        <ele>950.5</ele>
        <time>2015-06-08T17:53:10Z</time>
      </trkpt>
      <trkpt lat="45.74161" lon="2.96781">
        <ele>953.9</ele>
        <time>2015-06-08T17:53:38Z</time>
      </trkpt>
      <trkpt lat="45.741" lon="2.96692">
        <ele>958.2</ele>
        <time>2015-06-08T17:53:54Z</time>
      </trkpt>
      <trkpt lat="45.74065" lon="2.96625">
        <ele>961.7</ele>
        <time>2015-06-08T17:54:08Z</time>
      </trkpt>
      <trkpt lat="45.74018" lon="2.96614">
        <ele>966.4</ele>
        <time>2015-06-08T17:54:42Z</time>
      </trkpt>
      <trkpt lat="45.73991" lon="2.96596">
        <ele>969.7</ele>
        <time>2015-06-08T17:54:50Z</time>
      </trkpt>
      <trkpt lat="45.73947" lon="2.96534">
        <ele>973.4</ele>
        <time>2015-06-08T17:55:02Z</time>
      </trkpt>
      <trkpt lat="45.73901" lon="2.96422">
        <ele>978.2</ele>
        <time>2015-06-08T17:55:24Z</time>
      </trkpt>
      <trkpt lat="45.73852" lon="2.96404">
        <ele>978.9</ele>
        <time>2015-06-08T17:55:44Z</time>
      </trkpt>
      <trkpt lat="45.73721" lon="2.96501">
        <ele>977.8</ele>
        <time>2015-06-08T17:56:24Z</time>
      </trkpt>
      <trkpt lat="45.7367" lon="2.96552">
        <ele>977.6</ele>
        <time>2015-06-08T17:56:42Z</time>
      </trkpt>
      <trkpt lat="45.73573" lon="2.96669">
        <ele>975.1</ele>
        <time>2015-06-08T17:59:17Z</time>
      </trkpt>
      <trkpt lat="45.73454" lon="2.96853">
        <ele>970.2</ele>
        <time>2015-06-08T18:00:15Z</time>
      </trkpt>
      <trkpt lat="45.73328" lon="2.96986">
        <ele>966.6</ele>
        <time>2015-06-08T18:01:01Z</time>
      </trkpt>
      <trkpt lat="45.73227" lon="2.97089">
        <ele>965.2</ele>
        <time>2015-06-08T18:01:43Z</time>
      </trkpt>
      <trkpt lat="45.73184" lon="2.97112">
        <ele>964.3</ele>
        <time>2015-06-08T18:03:07Z</time>
      </trkpt>
      <trkpt lat="45.73263" lon="2.97067">
        <ele>965.4</ele>
        <time>2015-06-08T18:04:45Z</time>
      </trkpt>
      <trkpt lat="45.73225" lon="2.97093">
        <ele>965</ele>
        <time>2015-06-08T18:05:05Z</time>
      </trkpt>
      <trkpt lat="45.73164" lon="2.97106">
        <ele>962.6</ele>
        <time>2015-06-08T18:05:39Z</time>
      </trkpt>
      <trkpt lat="45.73023" lon="2.97024">
        <ele>961.3</ele>
        <time>2015-06-08T18:06:17Z</time>
      </trkpt>
      <trkpt lat="45.72946" lon="2.97072">
        <ele>961.7</ele>
        <time>2015-06-08T18:06:37Z</time>
      </trkpt>
      <trkpt lat="45.72795" lon="2.97086">
        <ele>959.3</ele>
        <time>2015-06-08T18:07:15Z</time>
      </trkpt>
      <trkpt lat="45.7268" lon="2.97138">
        <ele>957.2</ele>
        <time>2015-06-08T18:07:45Z</time>
      </trkpt>
      <trkpt lat="45.7256" lon="2.97172">
        <ele>953.9</ele>
        <time>2015-06-08T18:08:21Z</time>
      </trkpt>
      <trkpt lat="45.72417" lon="2.97208">
        <ele>950</ele>
        <time>2015-06-08T18:09:03Z</time>
      </trkpt>
      <trkpt lat="45.7232" lon="2.97177">
        <ele>947.7</ele>
        <time>2015-06-08T18:09:29Z</time>
      </trkpt>
      <trkpt lat="45.72229" lon="2.97144">
        <ele>943.7</ele>
        <time>2015-06-08T18:10:01Z</time>
      </trkpt>
      <trkpt lat="45.72126" lon="2.97111">
        <ele>939.4</ele>
        <time>2015-06-08T18:10:35Z</time>
      </trkpt>
      <trkpt lat="45.71978" lon="2.97065">
        <ele>934.5</ele>
        <time>2015-06-08T18:11:19Z</time>
      </trkpt>
      <trkpt lat="45.71912" lon="2.97041">
        <ele>931.3</ele>
        <time>2015-06-08T18:11:41Z</time>
      </trkpt>
      <trkpt lat="45.71755" lon="2.97012">
        <ele>929.3</ele>
        <time>2015-06-08T18:12:25Z</time>
      </trkpt>
      <trkpt lat="45.7155" lon="2.97089">
        <ele>935.2</ele>
        <time>2015-06-08T18:13:15Z</time>
      </trkpt>
      <trkpt lat="45.71452" lon="2.97112">
        <ele>941.4</ele>
        <time>2015-06-08T18:13:35Z</time>
      </trkpt>
      <trkpt lat="45.71382" lon="2.97138">
        <ele>946.2</ele>
        <time>2015-06-08T18:13:47Z</time>
      </trkpt>
      <trkpt lat="45.7128" lon="2.97143">
        <ele>948.3</ele>
        <time>2015-06-08T18:14:09Z</time>
      </trkpt>
      <trkpt lat="45.71183" lon="2.97208">
        <ele>947.2</ele>
        <time>2015-06-08T18:14:43Z</time>
      </trkpt>
      <trkpt lat="45.71069" lon="2.97243">
        <ele>947</ele>
        <time>2015-06-08T18:15:09Z</time>
      </trkpt>
      <trkpt lat="45.70993" lon="2.97227">
        <ele>944.7</ele>
        <time>2015-06-08T18:15:31Z</time>
      </trkpt>
      <trkpt lat="45.70943" lon="2.97215">
        <ele>947.8</ele>
        <time>2015-06-08T18:15:45Z</time>
      </trkpt>
      <trkpt lat="45.70855" lon="2.97191">
        <ele>948.2</ele>
        <time>2015-06-08T18:16:07Z</time>
      </trkpt>
      <trkpt lat="45.7081" lon="2.97144">
        <ele>946.6</ele>
        <time>2015-06-08T18:16:21Z</time>
      </trkpt>
      <trkpt lat="45.70759" lon="2.97093">
        <ele>947</ele>
        <time>2015-06-08T18:16:35Z</time>
      </trkpt>
      <trkpt lat="45.70734" lon="2.97072">
        <ele>948.4</ele>
        <time>2015-06-08T18:16:41Z</time>
      </trkpt>
      <trkpt lat="45.70635" lon="2.97068">
        <ele>952.7</ele>
        <time>2015-06-08T18:16:59Z</time>
      </trkpt>
      <trkpt lat="45.70542" lon="2.97002">
        <ele>958.8</ele>
        <time>2015-06-08T18:17:18Z</time>
      </trkpt>
      <trkpt lat="45.70461" lon="2.96932">
        <ele>964.4</ele>
        <time>2015-06-08T18:17:35Z</time>
      </trkpt>
      <trkpt lat="45.7039" lon="2.96872">
        <ele>968.6</ele>
        <time>2015-06-08T18:17:49Z</time>
      </trkpt>
      <trkpt lat="45.70302" lon="2.96835">
        <ele>970.5</ele>
        <time>2015-06-08T18:18:09Z</time>
      </trkpt>
      <trkpt lat="45.70229" lon="2.96782">
        <ele>968.2</ele>
        <time>2015-06-08T18:18:37Z</time>
      </trkpt>
      <trkpt lat="45.70159" lon="2.96762">
        <ele>963.9</ele>
        <time>2015-06-08T18:19:11Z</time>
      </trkpt>
      <trkpt lat="45.7009" lon="2.96891">
        <ele>962.1</ele>
        <time>2015-06-08T18:20:00Z</time>
      </trkpt>
      <trkpt lat="45.70036" lon="2.97027">
        <ele>963.7</ele>
        <time>2015-06-08T18:22:22Z</time>
      </trkpt>
      <trkpt lat="45.70002" lon="2.97096">
        <ele>963.6</ele>
        <time>2015-06-08T18:22:40Z</time>
      </trkpt>
      <trkpt lat="45.69949" lon="2.97301">
        <ele>961.7</ele>
        <time>2015-06-08T18:23:50Z</time>
      </trkpt>
      <trkpt lat="45.69919" lon="2.97395">
        <ele>954.9</ele>
        <time>2015-06-08T18:24:29Z</time>
      </trkpt>
      <trkpt lat="45.69882" lon="2.97487">
        <ele>949.2</ele>
        <time>2015-06-08T18:25:05Z</time>
      </trkpt>
      <trkpt lat="45.69869" lon="2.97531">
        <ele>946.2</ele>
        <time>2015-06-08T18:25:21Z</time>
      </trkpt>
      <trkpt lat="45.69835" lon="2.97644">
        <ele>942.2</ele>
        <time>2015-06-08T18:25:55Z</time>
      </trkpt>
      <trkpt lat="45.69815" lon="2.97733">
        <ele>939.2</ele>
        <time>2015-06-08T18:26:21Z</time>
      </trkpt>
      <trkpt lat="45.6979" lon="2.97802">
        <ele>936.1</ele>
        <time>2015-06-08T18:26:42Z</time>
      </trkpt>
      <trkpt lat="45.6973" lon="2.97993">
        <ele>932.2</ele>
        <time>2015-06-08T18:27:31Z</time>
      </trkpt>
      <trkpt lat="45.69672" lon="2.98357">
        <ele>931.2</ele>
        <time>2015-06-08T18:28:58Z</time>
      </trkpt>
      <trkpt lat="45.69646" lon="2.98479">
        <ele>926</ele>
        <time>2015-06-08T18:29:36Z</time>
      </trkpt>
      <trkpt lat="45.69641" lon="2.98517">
        <ele>922.7</ele>
        <time>2015-06-08T18:29:48Z</time>
      </trkpt>
      <trkpt lat="45.69618" lon="2.98637">
        <ele>918.1</ele>
        <time>2015-06-08T18:30:22Z</time>
      </trkpt>
      <trkpt lat="45.69597" lon="2.98718">
        <ele>920.6</ele>
        <time>2015-06-08T18:30:38Z</time>
      </trkpt>
      <trkpt lat="45.69555" lon="2.98898">
        <ele>916.2</ele>
        <time>2015-06-08T18:31:23Z</time>
      </trkpt>
      <trkpt lat="45.69529" lon="2.98994">
        <ele>917.1</ele>
        <time>2015-06-08T18:31:43Z</time>
      </trkpt>
      <trkpt lat="45.69548" lon="2.99073">
        <ele>918.1</ele>
        <time>2015-06-08T18:31:59Z</time>
      </trkpt>
      <trkpt lat="45.69564" lon="2.9914">
        <ele>914.9</ele>
        <time>2015-06-08T18:32:25Z</time>
      </trkpt>
      <trkpt lat="45.69512" lon="2.99295">
        <ele>909.1</ele>
        <time>2015-06-08T18:33:09Z</time>
      </trkpt>
      <trkpt lat="45.69484" lon="2.99372">
        <ele>905.7</ele>
        <time>2015-06-08T18:33:32Z</time>
      </trkpt>
      <trkpt lat="45.69421" lon="2.99453">
        <ele>902</ele>
        <time>2015-06-08T18:34:06Z</time>
      </trkpt>
      <trkpt lat="45.69409" lon="2.99531">
        <ele>899.2</ele>
        <time>2015-06-08T18:34:36Z</time>
      </trkpt>
      <trkpt lat="45.69404" lon="2.99558">
        <ele>898.6</ele>
        <time>2015-06-08T18:35:01Z</time>
      </trkpt>
      <trkpt lat="45.69456" lon="2.9956">
        <ele>893.5</ele>
        <time>2015-06-08T18:35:35Z</time>
      </trkpt>
      <trkpt lat="45.69467" lon="2.99614">
        <ele>894</ele>
        <time>2015-06-08T18:35:55Z</time>
      </trkpt>
      <trkpt lat="45.6938" lon="2.99719">
        <ele>896.6</ele>
        <time>2015-06-08T18:36:20Z</time>
      </trkpt>
      <trkpt lat="45.69366" lon="2.99726">
        <ele>899.6</ele>
        <time>2015-06-08T18:36:32Z</time>
      </trkpt>
      <trkpt lat="45.69427" lon="2.99773">
        <ele>906.2</ele>
        <time>2015-06-08T18:36:52Z</time>
      </trkpt>
      <trkpt lat="45.69451" lon="2.99887">
        <ele>915.5</ele>
        <time>2015-06-08T18:37:13Z</time>
      </trkpt>
      <trkpt lat="45.69447" lon="2.9997">
        <ele>923</ele>
        <time>2015-06-08T18:37:25Z</time>
      </trkpt>
      <trkpt lat="45.69412" lon="3.00042">
        <ele>929.1</ele>
        <time>2015-06-08T18:37:37Z</time>
      </trkpt>
      <trkpt lat="45.69378" lon="3.00117">
        <ele>933.7</ele>
        <time>2015-06-08T18:37:47Z</time>
      </trkpt>
      <trkpt lat="45.69352" lon="3.00201">
        <ele>941.1</ele>
        <time>2015-06-08T18:37:57Z</time>
      </trkpt>
      <trkpt lat="45.69339" lon="3.00253">
        <ele>946.2</ele>
        <time>2015-06-08T18:38:03Z</time>
      </trkpt>
      <trkpt lat="45.69321" lon="3.00327">
        <ele>951.2</ele>
        <time>2015-06-08T18:38:13Z</time>
      </trkpt>
      <trkpt lat="45.69295" lon="3.00383">
        <ele>954.6</ele>
        <time>2015-06-08T18:38:25Z</time>
      </trkpt>
      <trkpt lat="45.69273" lon="3.00444">
        <ele>961.3</ele>
        <time>2015-06-08T18:38:42Z</time>
      </trkpt>
      <trkpt lat="45.69252" lon="3.00479">
        <ele>966.3</ele>
        <time>2015-06-08T18:38:52Z</time>
      </trkpt>
      <trkpt lat="45.69221" lon="3.00532">
        <ele>970.9</ele>
        <time>2015-06-08T18:39:02Z</time>
      </trkpt>
      <trkpt lat="45.6919" lon="3.00577">
        <ele>975.5</ele>
        <time>2015-06-08T18:39:10Z</time>
      </trkpt>
      <trkpt lat="45.69149" lon="3.00635">
        <ele>981</ele>
        <time>2015-06-08T18:39:22Z</time>
      </trkpt>
      <trkpt lat="45.69105" lon="3.00686">
        <ele>985.7</ele>
        <time>2015-06-08T18:39:34Z</time>
      </trkpt>
      <trkpt lat="45.69078" lon="3.00729">
        <ele>990.7</ele>
        <time>2015-06-08T18:39:46Z</time>
      </trkpt>
      <trkpt lat="45.69052" lon="3.00771">
        <ele>995</ele>
        <time>2015-06-08T18:39:56Z</time>
      </trkpt>
      <trkpt lat="45.69015" lon="3.00812">
        <ele>998.8</ele>
        <time>2015-06-08T18:40:08Z</time>
      </trkpt>
      <trkpt lat="45.68959" lon="3.00901">
        <ele>1004.5</ele>
        <time>2015-06-08T18:40:34Z</time>
      </trkpt>
      <trkpt lat="45.68891" lon="3.01157">
        <ele>1008.5</ele>
        <time>2015-06-08T18:41:46Z</time>
      </trkpt>
      <trkpt lat="45.68884" lon="3.01287">
        <ele>1008.8</ele>
        <time>2015-06-08T18:42:24Z</time>
      </trkpt>
      <trkpt lat="45.68833" lon="3.01508">
        <ele>1002.8</ele>
        <time>2015-06-08T18:43:42Z</time>
      </trkpt>
      <trkpt lat="45.68807" lon="3.01626">
        <ele>998.9</ele>
        <time>2015-06-08T18:44:22Z</time>
      </trkpt>
      <trkpt lat="45.68808" lon="3.01659">
        <ele>997.7</ele>
        <time>2015-06-08T18:44:54Z</time>
      </trkpt>
      <trkpt lat="45.68795" lon="3.01694">
        <ele>994.6</ele>
        <time>2015-06-08T18:45:14Z</time>
      </trkpt>
      <trkpt lat="45.68763" lon="3.01793">
        <ele>989.2</ele>
        <time>2015-06-08T18:45:54Z</time>
      </trkpt>
      <trkpt lat="45.68752" lon="3.01892">
        <ele>983.7</ele>
        <time>2015-06-08T18:46:36Z</time>
      </trkpt>
      <trkpt lat="45.68741" lon="3.01971">
        <ele>978.6</ele>
        <time>2015-06-08T18:47:10Z</time>
      </trkpt>
      <trkpt lat="45.68724" lon="3.02034">
        <ele>973.4</ele>
        <time>2015-06-08T18:47:46Z</time>
      </trkpt>
      <trkpt lat="45.68673" lon="3.02022">
        <ele>969.9</ele>
        <time>2015-06-08T18:48:12Z</time>
      </trkpt>
      <trkpt lat="45.68638" lon="3.02022">
        <ele>966.4</ele>
        <time>2015-06-08T18:48:28Z</time>
      </trkpt>
      <trkpt lat="45.68549" lon="3.0201">
        <ele>962.6</ele>
        <time>2015-06-08T18:49:02Z</time>
      </trkpt>
      <trkpt lat="45.68439" lon="3.01996">
        <ele>959.2</ele>
        <time>2015-06-08T18:49:40Z</time>
      </trkpt>
      <trkpt lat="45.68306" lon="3.01983">
        <ele>954.8</ele>
        <time>2015-06-08T18:50:26Z</time>
      </trkpt>
      <trkpt lat="45.68218" lon="3.01985">
        <ele>949.4</ele>
        <time>2015-06-08T18:51:00Z</time>
      </trkpt>
      <trkpt lat="45.68218" lon="3.02091">
        <ele>948.7</ele>
        <time>2015-06-08T18:51:22Z</time>
      </trkpt>
      <trkpt lat="45.68243" lon="3.02313">
        <ele>945.6</ele>
        <time>2015-06-08T18:52:12Z</time>
      </trkpt>
      <trkpt lat="45.6825" lon="3.02453">
        <ele>942.1</ele>
        <time>2015-06-08T18:52:44Z</time>
      </trkpt>
      <trkpt lat="45.68203" lon="3.02542">
        <ele>939.4</ele>
        <time>2015-06-08T18:53:12Z</time>
      </trkpt>
      <trkpt lat="45.68172" lon="3.02649">
        <ele>943.3</ele>
        <time>2015-06-08T18:53:34Z</time>
      </trkpt>
      <trkpt lat="45.68148" lon="3.02807">
        <ele>943.3</ele>
        <time>2015-06-08T18:54:04Z</time>
      </trkpt>
      <trkpt lat="45.68175" lon="3.03022">
        <ele>938.5</ele>
        <time>2015-06-08T18:55:04Z</time>
      </trkpt>
      <trkpt lat="45.68165" lon="3.03164">
        <ele>934.5</ele>
        <time>2015-06-08T18:55:46Z</time>
      </trkpt>
      <trkpt lat="45.68166" lon="3.03282">
        <ele>926.7</ele>
        <time>2015-06-08T18:56:28Z</time>
      </trkpt>
      <trkpt lat="45.68179" lon="3.03367">
        <ele>921</ele>
        <time>2015-06-08T18:57:08Z</time>
      </trkpt>
      <trkpt lat="45.68137" lon="3.03406">
        <ele>915.5</ele>
        <time>2015-06-08T18:57:34Z</time>
      </trkpt>
      <trkpt lat="45.68082" lon="3.03424">
        <ele>910.8</ele>
        <time>2015-06-08T18:58:06Z</time>
      </trkpt>
      <trkpt lat="45.6808" lon="3.0353">
        <ele>907.7</ele>
        <time>2015-06-08T18:58:40Z</time>
      </trkpt>
      <trkpt lat="45.68074" lon="3.03593">
        <ele>904.7</ele>
        <time>2015-06-08T18:58:58Z</time>
      </trkpt>
      <trkpt lat="45.68057" lon="3.0371">
        <ele>901.6</ele>
        <time>2015-06-08T19:01:10Z</time>
      </trkpt>
      <trkpt lat="45.68053" lon="3.03864">
        <ele>896</ele>
        <time>2015-06-08T19:02:00Z</time>
      </trkpt>
      <trkpt lat="45.68034" lon="3.03961">
        <ele>891.6</ele>
        <time>2015-06-08T19:02:33Z</time>
      </trkpt>
      <trkpt lat="45.68029" lon="3.04227">
        <ele>886.5</ele>
        <time>2015-06-08T19:03:51Z</time>
      </trkpt>
      <trkpt lat="45.68032" lon="3.04258">
        <ele>885.1</ele>
        <time>2015-06-08T19:04:03Z</time>
      </trkpt>
      <trkpt lat="45.68079" lon="3.04326">
        <ele>880.3</ele>
        <time>2015-06-08T19:04:37Z</time>
      </trkpt>
      <trkpt lat="45.68094" lon="3.04402">
        <ele>875.3</ele>
        <time>2015-06-08T19:05:09Z</time>
      </trkpt>
      <trkpt lat="45.68112" lon="3.04469">
        <ele>868.8</ele>
        <time>2015-06-08T19:05:45Z</time>
      </trkpt>
      <trkpt lat="45.68118" lon="3.04511">
        <ele>865.7</ele>
        <time>2015-06-08T19:06:05Z</time>
      </trkpt>
      <trkpt lat="45.68109" lon="3.0456">
        <ele>861.1</ele>
        <time>2015-06-08T19:06:29Z</time>
      </trkpt>
      <trkpt lat="45.68092" lon="3.04616">
        <ele>855.9</ele>
        <time>2015-06-08T19:06:58Z</time>
      </trkpt>
      <trkpt lat="45.68072" lon="3.04665">
        <ele>851.5</ele>
        <time>2015-06-08T19:07:22Z</time>
      </trkpt>
      <trkpt lat="45.6805" lon="3.04743">
        <ele>845.3</ele>
        <time>2015-06-08T19:07:53Z</time>
      </trkpt>
      <trkpt lat="45.68035" lon="3.04817">
        <ele>840.9</ele>
        <time>2015-06-08T19:08:27Z</time>
      </trkpt>
      <trkpt lat="45.68003" lon="3.04928">
        <ele>836.9</ele>
        <time>2015-06-08T19:09:05Z</time>
      </trkpt>
      <trkpt lat="45.68058" lon="3.05004">
        <ele>831.9</ele>
        <time>2015-06-08T19:09:45Z</time>
      </trkpt>
      <trkpt lat="45.68154" lon="3.05093">
        <ele>826.9</ele>
        <time>2015-06-08T19:10:57Z</time>
      </trkpt>
      <trkpt lat="45.68227" lon="3.05173">
        <ele>822.8</ele>
        <time>2015-06-08T19:11:45Z</time>
      </trkpt>
      <trkpt lat="45.68249" lon="3.05239">
        <ele>817</ele>
        <time>2015-06-08T19:12:19Z</time>
      </trkpt>
      <trkpt lat="45.68278" lon="3.05368">
        <ele>810.1</ele>
        <time>2015-06-08T19:13:13Z</time>
      </trkpt>
      <trkpt lat="45.68305" lon="3.05437">
        <ele>804.8</ele>
        <time>2015-06-08T19:13:49Z</time>
      </trkpt>
      <trkpt lat="45.6837" lon="3.05465">
        <ele>800.6</ele>
        <time>2015-06-08T19:14:27Z</time>
      </trkpt>
      <trkpt lat="45.68413" lon="3.05536">
        <ele>794.3</ele>
        <time>2015-06-08T19:15:11Z</time>
      </trkpt>
      <trkpt lat="45.68426" lon="3.05574">
        <ele>791</ele>
        <time>2015-06-08T19:15:31Z</time>
      </trkpt>
      <trkpt lat="45.68439" lon="3.05611">
        <ele>787.5</ele>
        <time>2015-06-08T19:15:51Z</time>
      </trkpt>
      <trkpt lat="45.68463" lon="3.05661">
        <ele>783.8</ele>
        <time>2015-06-08T19:16:21Z</time>
      </trkpt>
      <trkpt lat="45.68475" lon="3.05698">
        <ele>780.7</ele>
        <time>2015-06-08T19:16:40Z</time>
      </trkpt>
      <trkpt lat="45.68456" lon="3.05816">
        <ele>775</ele>
        <time>2015-06-08T19:17:12Z</time>
      </trkpt>
      <trkpt lat="45.6845" lon="3.05884">
        <ele>771.7</ele>
        <time>2015-06-08T19:17:30Z</time>
      </trkpt>
      <trkpt lat="45.68453" lon="3.06022">
        <ele>766</ele>
        <time>2015-06-08T19:18:06Z</time>
      </trkpt>
      <trkpt lat="45.68429" lon="3.06133">
        <ele>763.7</ele>
        <time>2015-06-08T19:20:11Z</time>
      </trkpt>
      <trkpt lat="45.68385" lon="3.06178">
        <ele>763.2</ele>
        <time>2015-06-08T19:21:26Z</time>
      </trkpt>
      <trkpt lat="45.68353" lon="3.06326">
        <ele>755.9</ele>
        <time>2015-06-08T19:25:12Z</time>
      </trkpt>
      <trkpt lat="45.68349" lon="3.06296">
        <ele>760.4</ele>
        <time>2015-06-09T09:48:35Z</time>
      </trkpt>
      <trkpt lat="45.68369" lon="3.06275">
        <ele>763.5</ele>
        <time>2015-06-09T09:48:43Z</time>
      </trkpt>
      <trkpt lat="45.68379" lon="3.06176">
        <ele>766.4</ele>
        <time>2015-06-09T09:48:59Z</time>
      </trkpt>
      <trkpt lat="45.68412" lon="3.0617">
        <ele>767</ele>
        <time>2015-06-09T09:49:47Z</time>
      </trkpt>
      <trkpt lat="45.68448" lon="3.06096">
        <ele>770.2</ele>
        <time>2015-06-09T09:49:59Z</time>
      </trkpt>
      <trkpt lat="45.68455" lon="3.06027">
        <ele>773.7</ele>
        <time>2015-06-09T09:50:05Z</time>
      </trkpt>
      <trkpt lat="45.68457" lon="3.05892">
        <ele>780</ele>
        <time>2015-06-09T09:50:15Z</time>
      </trkpt>
      <trkpt lat="45.68471" lon="3.05699">
        <ele>783.5</ele>
        <time>2015-06-09T09:50:33Z</time>
      </trkpt>
      <trkpt lat="45.68471" lon="3.05532">
        <ele>781.5</ele>
        <time>2015-06-09T09:50:55Z</time>
      </trkpt>
      <trkpt lat="45.68496" lon="3.05417">
        <ele>779.1</ele>
        <time>2015-06-09T09:51:07Z</time>
      </trkpt>
      <trkpt lat="45.6852" lon="3.05357">
        <ele>779.9</ele>
        <time>2015-06-09T09:51:13Z</time>
      </trkpt>
      <trkpt lat="45.68575" lon="3.05143">
        <ele>785</ele>
        <time>2015-06-09T09:51:29Z</time>
      </trkpt>
      <trkpt lat="45.68582" lon="3.04944">
        <ele>788.7</ele>
        <time>2015-06-09T09:51:45Z</time>
      </trkpt>
      <trkpt lat="45.68641" lon="3.04713">
        <ele>790.8</ele>
        <time>2015-06-09T09:52:05Z</time>
      </trkpt>
      <trkpt lat="45.68641" lon="3.04539">
        <ele>796.4</ele>
        <time>2015-06-09T09:52:17Z</time>
      </trkpt>
      <trkpt lat="45.68644" lon="3.04431">
        <ele>800.6</ele>
        <time>2015-06-09T09:52:23Z</time>
      </trkpt>
      <trkpt lat="45.68652" lon="3.04283">
        <ele>809.4</ele>
        <time>2015-06-09T09:52:31Z</time>
      </trkpt>
      <trkpt lat="45.68665" lon="3.04137">
        <ele>816.4</ele>
        <time>2015-06-09T09:52:39Z</time>
      </trkpt>
      <trkpt lat="45.68685" lon="3.04048">
        <ele>822.2</ele>
        <time>2015-06-09T09:52:45Z</time>
      </trkpt>
      <trkpt lat="45.68695" lon="3.0398">
        <ele>825.3</ele>
        <time>2015-06-09T09:52:49Z</time>
      </trkpt>
      <trkpt lat="45.68704" lon="3.03887">
        <ele>829.5</ele>
        <time>2015-06-09T09:52:55Z</time>
      </trkpt>
      <trkpt lat="45.68699" lon="3.03715">
        <ele>837</ele>
        <time>2015-06-09T09:53:07Z</time>
      </trkpt>
      <trkpt lat="45.687" lon="3.03637">
        <ele>840.3</ele>
        <time>2015-06-09T09:53:13Z</time>
      </trkpt>
      <trkpt lat="45.68702" lon="3.03589">
        <ele>843.3</ele>
        <time>2015-06-09T09:53:17Z</time>
      </trkpt>
      <trkpt lat="45.6873" lon="3.0354">
        <ele>847.4</ele>
        <time>2015-06-09T09:53:23Z</time>
      </trkpt>
      <trkpt lat="45.6879" lon="3.03492">
        <ele>852.8</ele>
        <time>2015-06-09T09:53:31Z</time>
      </trkpt>
      <trkpt lat="45.68824" lon="3.03373">
        <ele>857.4</ele>
        <time>2015-06-09T09:53:41Z</time>
      </trkpt>
      <trkpt lat="45.68893" lon="3.03346">
        <ele>860.7</ele>
        <time>2015-06-09T09:53:53Z</time>
      </trkpt>
      <trkpt lat="45.68999" lon="3.03465">
        <ele>863.7</ele>
        <time>2015-06-09T09:54:13Z</time>
      </trkpt>
      <trkpt lat="45.69104" lon="3.0349">
        <ele>867.4</ele>
        <time>2015-06-09T09:54:27Z</time>
      </trkpt>
      <trkpt lat="45.69213" lon="3.03405">
        <ele>869</ele>
        <time>2015-06-09T09:54:49Z</time>
      </trkpt>
      <trkpt lat="45.6935" lon="3.03359">
        <ele>863.8</ele>
        <time>2015-06-09T09:55:27Z</time>
      </trkpt>
      <trkpt lat="45.69482" lon="3.03276">
        <ele>858.9</ele>
        <time>2015-06-09T09:56:07Z</time>
      </trkpt>
      <trkpt lat="45.69569" lon="3.03246">
        <ele>854.1</ele>
        <time>2015-06-09T09:56:35Z</time>
      </trkpt>
      <trkpt lat="45.69692" lon="3.03204">
        <ele>847.8</ele>
        <time>2015-06-09T09:57:13Z</time>
      </trkpt>
      <trkpt lat="45.69881" lon="3.03164">
        <ele>840.7</ele>
        <time>2015-06-09T09:58:03Z</time>
      </trkpt>
      <trkpt lat="45.69991" lon="3.03154">
        <ele>837.5</ele>
        <time>2015-06-09T09:58:27Z</time>
      </trkpt>
      <trkpt lat="45.70123" lon="3.02949">
        <ele>836.9</ele>
        <time>2015-06-09T09:59:03Z</time>
      </trkpt>
      <trkpt lat="45.70268" lon="3.027">
        <ele>830.3</ele>
        <time>2015-06-09T10:00:11Z</time>
      </trkpt>
      <trkpt lat="45.70319" lon="3.02588">
        <ele>824.3</ele>
        <time>2015-06-09T10:00:45Z</time>
      </trkpt>
      <trkpt lat="45.7033" lon="3.02499">
        <ele>819.9</ele>
        <time>2015-06-09T10:01:11Z</time>
      </trkpt>
      <trkpt lat="45.70345" lon="3.02408">
        <ele>813.8</ele>
        <time>2015-06-09T10:01:39Z</time>
      </trkpt>
      <trkpt lat="45.7033" lon="3.02321">
        <ele>807.4</ele>
        <time>2015-06-09T10:02:07Z</time>
      </trkpt>
      <trkpt lat="45.70339" lon="3.02269">
        <ele>803.9</ele>
        <time>2015-06-09T10:02:21Z</time>
      </trkpt>
      <trkpt lat="45.70397" lon="3.02171">
        <ele>802.2</ele>
        <time>2015-06-09T10:02:43Z</time>
      </trkpt>
      <trkpt lat="45.70373" lon="3.02091">
        <ele>803.2</ele>
        <time>2015-06-09T10:04:12Z</time>
      </trkpt>
      <trkpt lat="45.70385" lon="3.0196">
        <ele>806.6</ele>
        <time>2015-06-09T10:04:50Z</time>
      </trkpt>
      <trkpt lat="45.70435" lon="3.01854">
        <ele>808.2</ele>
        <time>2015-06-09T10:05:06Z</time>
      </trkpt>
      <trkpt lat="45.7049" lon="3.01758">
        <ele>809.9</ele>
        <time>2015-06-09T10:05:27Z</time>
      </trkpt>
      <trkpt lat="45.70504" lon="3.01576">
        <ele>811.2</ele>
        <time>2015-06-09T10:06:16Z</time>
      </trkpt>
      <trkpt lat="45.70527" lon="3.01423">
        <ele>814.8</ele>
        <time>2015-06-09T10:06:32Z</time>
      </trkpt>
      <trkpt lat="45.70629" lon="3.01318">
        <ele>816.5</ele>
        <time>2015-06-09T10:06:50Z</time>
      </trkpt>
      <trkpt lat="45.7089" lon="3.01317">
        <ele>819.8</ele>
        <time>2015-06-09T10:07:26Z</time>
      </trkpt>
      <trkpt lat="45.70962" lon="3.01469">
        <ele>826.7</ele>
        <time>2015-06-09T10:07:38Z</time>
      </trkpt>
      <trkpt lat="45.70975" lon="3.01495">
        <ele>827.3</ele>
        <time>2015-06-09T10:07:40Z</time>
      </trkpt>
      <trkpt lat="45.71028" lon="3.01551">
        <ele>830.9</ele>
        <time>2015-06-09T10:07:46Z</time>
      </trkpt>
      <trkpt lat="45.71172" lon="3.01648">
        <ele>838</ele>
        <time>2015-06-09T10:08:02Z</time>
      </trkpt>
      <trkpt lat="45.71246" lon="3.01698">
        <ele>841.8</ele>
        <time>2015-06-09T10:08:11Z</time>
      </trkpt>
      <trkpt lat="45.71337" lon="3.0176">
        <ele>846.2</ele>
        <time>2015-06-09T10:08:24Z</time>
      </trkpt>
      <trkpt lat="45.7137" lon="3.01792">
        <ele>849.4</ele>
        <time>2015-06-09T10:08:34Z</time>
      </trkpt>
      <trkpt lat="45.71403" lon="3.01791">
        <ele>853.2</ele>
        <time>2015-06-09T10:08:42Z</time>
      </trkpt>
      <trkpt lat="45.71523" lon="3.01819">
        <ele>859.6</ele>
        <time>2015-06-09T10:08:58Z</time>
      </trkpt>
      <trkpt lat="45.71729" lon="3.01869">
        <ele>861.5</ele>
        <time>2015-06-09T10:09:39Z</time>
      </trkpt>
      <trkpt lat="45.71802" lon="3.01932">
        <ele>861.4</ele>
        <time>2015-06-09T10:10:06Z</time>
      </trkpt>
      <trkpt lat="45.71814" lon="3.01947">
        <ele>860.5</ele>
        <time>2015-06-09T10:12:46Z</time>
      </trkpt>
      <trkpt lat="45.71811" lon="3.01957">
        <ele>860.7</ele>
        <time>2015-06-09T10:12:56Z</time>
      </trkpt>
      <trkpt lat="45.71751" lon="3.01882">
        <ele>863.9</ele>
        <time>2015-06-09T10:13:24Z</time>
      </trkpt>
      <trkpt lat="45.71869" lon="3.01904">
        <ele>866.6</ele>
        <time>2015-06-09T10:13:54Z</time>
      </trkpt>
      <trkpt lat="45.71907" lon="3.0192">
        <ele>866.3</ele>
        <time>2015-06-09T10:14:04Z</time>
      </trkpt>
      <trkpt lat="45.7205" lon="3.01958">
        <ele>865.9</ele>
        <time>2015-06-09T10:14:34Z</time>
      </trkpt>
      <trkpt lat="45.72088" lon="3.01847">
        <ele>860.9</ele>
        <time>2015-06-09T10:14:54Z</time>
      </trkpt>
      <trkpt lat="45.72239" lon="3.01838">
        <ele>869.4</ele>
        <time>2015-06-09T10:15:14Z</time>
      </trkpt>
      <trkpt lat="45.72363" lon="3.01856">
        <ele>872.7</ele>
        <time>2015-06-09T10:15:28Z</time>
      </trkpt>
      <trkpt lat="45.72548" lon="3.01877">
        <ele>877.2</ele>
        <time>2015-06-09T10:15:54Z</time>
      </trkpt>
      <trkpt lat="45.7261" lon="3.01896">
        <ele>880.6</ele>
        <time>2015-06-09T10:16:06Z</time>
      </trkpt>
      <trkpt lat="45.7264" lon="3.01804">
        <ele>885.9</ele>
        <time>2015-06-09T10:16:20Z</time>
      </trkpt>
      <trkpt lat="45.7267" lon="3.01728">
        <ele>890.8</ele>
        <time>2015-06-09T10:16:30Z</time>
      </trkpt>
      <trkpt lat="45.72683" lon="3.01642">
        <ele>894.5</ele>
        <time>2015-06-09T10:16:38Z</time>
      </trkpt>
      <trkpt lat="45.7271" lon="3.01437">
        <ele>895.4</ele>
        <time>2015-06-09T10:17:00Z</time>
      </trkpt>
      <trkpt lat="45.72751" lon="3.01207">
        <ele>897.9</ele>
        <time>2015-06-09T10:17:32Z</time>
      </trkpt>
      <trkpt lat="45.72737" lon="3.01054">
        <ele>898.7</ele>
        <time>2015-06-09T10:17:58Z</time>
      </trkpt>
      <trkpt lat="45.72649" lon="3.0096">
        <ele>901.1</ele>
        <time>2015-06-09T10:18:22Z</time>
      </trkpt>
      <trkpt lat="45.72683" lon="3.0089">
        <ele>903.6</ele>
        <time>2015-06-09T10:18:32Z</time>
      </trkpt>
      <trkpt lat="45.727" lon="3.00786">
        <ele>907.9</ele>
        <time>2015-06-09T10:18:44Z</time>
      </trkpt>
      <trkpt lat="45.72787" lon="3.00641">
        <ele>915</ele>
        <time>2015-06-09T10:19:08Z</time>
      </trkpt>
      <trkpt lat="45.72807" lon="3.00575">
        <ele>919.8</ele>
        <time>2015-06-09T10:19:18Z</time>
      </trkpt>
      <trkpt lat="45.72805" lon="3.00521">
        <ele>922.9</ele>
        <time>2015-06-09T10:19:28Z</time>
      </trkpt>
      <trkpt lat="45.72822" lon="3.00504">
        <ele>926.3</ele>
        <time>2015-06-09T10:19:40Z</time>
      </trkpt>
      <trkpt lat="45.72768" lon="3.00447">
        <ele>930.9</ele>
        <time>2015-06-09T10:19:54Z</time>
      </trkpt>
      <trkpt lat="45.72696" lon="3.00382">
        <ele>933.9</ele>
        <time>2015-06-09T10:20:06Z</time>
      </trkpt>
      <trkpt lat="45.72648" lon="3.00326">
        <ele>936.5</ele>
        <time>2015-06-09T10:20:16Z</time>
      </trkpt>
      <trkpt lat="45.72625" lon="3.003">
        <ele>938.4</ele>
        <time>2015-06-09T10:20:22Z</time>
      </trkpt>
      <trkpt lat="45.72601" lon="3.00252">
        <ele>943.4</ele>
        <time>2015-06-09T10:20:30Z</time>
      </trkpt>
      <trkpt lat="45.72594" lon="3.00221">
        <ele>946.6</ele>
        <time>2015-06-09T10:20:34Z</time>
      </trkpt>
      <trkpt lat="45.72579" lon="3.00111">
        <ele>952.1</ele>
        <time>2015-06-09T10:20:44Z</time>
      </trkpt>
      <trkpt lat="45.72609" lon="2.99972">
        <ele>951.5</ele>
        <time>2015-06-09T10:21:08Z</time>
      </trkpt>
      <trkpt lat="45.72623" lon="2.99873">
        <ele>946.7</ele>
        <time>2015-06-09T10:21:42Z</time>
      </trkpt>
      <trkpt lat="45.72652" lon="2.99757">
        <ele>942.1</ele>
        <time>2015-06-09T10:22:19Z</time>
      </trkpt>
      <trkpt lat="45.72663" lon="2.99655">
        <ele>935.1</ele>
        <time>2015-06-09T10:22:59Z</time>
      </trkpt>
      <trkpt lat="45.7267" lon="2.99561">
        <ele>926.7</ele>
        <time>2015-06-09T10:23:45Z</time>
      </trkpt>
      <trkpt lat="45.72698" lon="2.99444">
        <ele>921.2</ele>
        <time>2015-06-09T10:24:27Z</time>
      </trkpt>
      <trkpt lat="45.72704" lon="2.99404">
        <ele>917.8</ele>
        <time>2015-06-09T10:24:45Z</time>
      </trkpt>
      <trkpt lat="45.72711" lon="2.99326">
        <ele>910.8</ele>
        <time>2015-06-09T10:25:17Z</time>
      </trkpt>
      <trkpt lat="45.72722" lon="2.99262">
        <ele>906.4</ele>
        <time>2015-06-09T10:25:45Z</time>
      </trkpt>
      <trkpt lat="45.72736" lon="2.99184">
        <ele>902.5</ele>
        <time>2015-06-09T10:26:07Z</time>
      </trkpt>
      <trkpt lat="45.7276" lon="2.99096">
        <ele>896</ele>
        <time>2015-06-09T10:26:35Z</time>
      </trkpt>
      <trkpt lat="45.7275" lon="2.99037">
        <ele>891.2</ele>
        <time>2015-06-09T10:26:51Z</time>
      </trkpt>
      <trkpt lat="45.7274" lon="2.98957">
        <ele>888.3</ele>
        <time>2015-06-09T10:27:09Z</time>
      </trkpt>
      <trkpt lat="45.72703" lon="2.98928">
        <ele>888</ele>
        <time>2015-06-09T10:27:19Z</time>
      </trkpt>
      <trkpt lat="45.726" lon="2.98858">
        <ele>895.3</ele>
        <time>2015-06-09T10:27:39Z</time>
      </trkpt>
      <trkpt lat="45.72575" lon="2.988">
        <ele>898.4</ele>
        <time>2015-06-09T10:27:45Z</time>
      </trkpt>
      <trkpt lat="45.72555" lon="2.98665">
        <ele>902.4</ele>
        <time>2015-06-09T10:27:57Z</time>
      </trkpt>
      <trkpt lat="45.72532" lon="2.98623">
        <ele>904.8</ele>
        <time>2015-06-09T10:28:03Z</time>
      </trkpt>
      <trkpt lat="45.72459" lon="2.98481">
        <ele>907.8</ele>
        <time>2015-06-09T10:28:21Z</time>
      </trkpt>
      <trkpt lat="45.72427" lon="2.98433">
        <ele>906.8</ele>
        <time>2015-06-09T10:28:29Z</time>
      </trkpt>
      <trkpt lat="45.72382" lon="2.98265">
        <ele>910</ele>
        <time>2015-06-09T10:28:49Z</time>
      </trkpt>
      <trkpt lat="45.72326" lon="2.98122">
        <ele>913.7</ele>
        <time>2015-06-09T10:29:07Z</time>
      </trkpt>
      <trkpt lat="45.72308" lon="2.98075">
        <ele>913.8</ele>
        <time>2015-06-09T10:29:13Z</time>
      </trkpt>
      <trkpt lat="45.72268" lon="2.9795">
        <ele>916.6</ele>
        <time>2015-06-09T10:29:29Z</time>
      </trkpt>
      <trkpt lat="45.72199" lon="2.97875">
        <ele>917.9</ele>
        <time>2015-06-09T10:29:45Z</time>
      </trkpt>
      <trkpt lat="45.72092" lon="2.97807">
        <ele>919.5</ele>
        <time>2015-06-09T10:30:07Z</time>
      </trkpt>
      <trkpt lat="45.71957" lon="2.97737">
        <ele>916.5</ele>
        <time>2015-06-09T10:30:41Z</time>
      </trkpt>
      <trkpt lat="45.71904" lon="2.97675">
        <ele>916.2</ele>
        <time>2015-06-09T10:30:53Z</time>
      </trkpt>
      <trkpt lat="45.71819" lon="2.97583">
        <ele>916.9</ele>
        <time>2015-06-09T10:31:11Z</time>
      </trkpt>
      <trkpt lat="45.71732" lon="2.9744">
        <ele>922.2</ele>
        <time>2015-06-09T10:31:33Z</time>
      </trkpt>
      <trkpt lat="45.71678" lon="2.97294">
        <ele>926.4</ele>
        <time>2015-06-09T10:31:49Z</time>
      </trkpt>
      <trkpt lat="45.71631" lon="2.97179">
        <ele>929.2</ele>
        <time>2015-06-09T10:32:19Z</time>
      </trkpt>
      <trkpt lat="45.7156" lon="2.97065">
        <ele>932.8</ele>
        <time>2015-06-09T10:32:41Z</time>
      </trkpt>
      <trkpt lat="45.71538" lon="2.97096">
        <ele>935.6</ele>
        <time>2015-06-09T10:32:53Z</time>
      </trkpt>
      <trkpt lat="45.71489" lon="2.97111">
        <ele>941.2</ele>
        <time>2015-06-09T10:33:05Z</time>
      </trkpt>
      <trkpt lat="45.71441" lon="2.97112">
        <ele>944.4</ele>
        <time>2015-06-09T10:33:13Z</time>
      </trkpt>
      <trkpt lat="45.71369" lon="2.97135">
        <ele>948.2</ele>
        <time>2015-06-09T10:33:25Z</time>
      </trkpt>
      <trkpt lat="45.71227" lon="2.97175">
        <ele>948.5</ele>
        <time>2015-06-09T10:33:55Z</time>
      </trkpt>
      <trkpt lat="45.71106" lon="2.97259">
        <ele>948.6</ele>
        <time>2015-06-09T10:34:27Z</time>
      </trkpt>
      <trkpt lat="45.71015" lon="2.97252">
        <ele>945.9</ele>
        <time>2015-06-09T10:34:49Z</time>
      </trkpt>
      <trkpt lat="45.70884" lon="2.97208">
        <ele>950.3</ele>
        <time>2015-06-09T10:35:31Z</time>
      </trkpt>
      <trkpt lat="45.70848" lon="2.97192">
        <ele>949.8</ele>
        <time>2015-06-09T10:35:43Z</time>
      </trkpt>
      <trkpt lat="45.70813" lon="2.97163">
        <ele>948.7</ele>
        <time>2015-06-09T10:35:53Z</time>
      </trkpt>
      <trkpt lat="45.70674" lon="2.97065">
        <ele>953</ele>
        <time>2015-06-09T10:36:24Z</time>
      </trkpt>
      <trkpt lat="45.70601" lon="2.97051">
        <ele>956.4</ele>
        <time>2015-06-09T10:36:36Z</time>
      </trkpt>
      <trkpt lat="45.7055" lon="2.97006">
        <ele>959.9</ele>
        <time>2015-06-09T10:36:46Z</time>
      </trkpt>
      <trkpt lat="45.70471" lon="2.96935">
        <ele>966.2</ele>
        <time>2015-06-09T10:37:02Z</time>
      </trkpt>
      <trkpt lat="45.70401" lon="2.9688">
        <ele>968.9</ele>
        <time>2015-06-09T10:37:16Z</time>
      </trkpt>
      <trkpt lat="45.70286" lon="2.9682">
        <ele>968</ele>
        <time>2015-06-09T10:37:44Z</time>
      </trkpt>
      <trkpt lat="45.70256" lon="2.96795">
        <ele>966.9</ele>
        <time>2015-06-09T10:37:52Z</time>
      </trkpt>
      <trkpt lat="45.70223" lon="2.96778">
        <ele>965.5</ele>
        <time>2015-06-09T10:38:00Z</time>
      </trkpt>
      <trkpt lat="45.70184" lon="2.96755">
        <ele>964.4</ele>
        <time>2015-06-09T10:38:10Z</time>
      </trkpt>
      <trkpt lat="45.70073" lon="2.96616">
        <ele>969.1</ele>
        <time>2015-06-09T10:38:36Z</time>
      </trkpt>
      <trkpt lat="45.70032" lon="2.96586">
        <ele>969.8</ele>
        <time>2015-06-09T10:38:44Z</time>
      </trkpt>
      <trkpt lat="45.6994" lon="2.96513">
        <ele>965.2</ele>
        <time>2015-06-09T10:39:14Z</time>
      </trkpt>
      <trkpt lat="45.69883" lon="2.96464">
        <ele>961.3</ele>
        <time>2015-06-09T10:39:36Z</time>
      </trkpt>
      <trkpt lat="45.69843" lon="2.96418">
        <ele>958</ele>
        <time>2015-06-09T10:39:54Z</time>
      </trkpt>
      <trkpt lat="45.69806" lon="2.96343">
        <ele>954.8</ele>
        <time>2015-06-09T10:40:10Z</time>
      </trkpt>
      <trkpt lat="45.69793" lon="2.96276">
        <ele>954.7</ele>
        <time>2015-06-09T10:40:18Z</time>
      </trkpt>
      <trkpt lat="45.69811" lon="2.96096">
        <ele>955.7</ele>
        <time>2015-06-09T10:40:36Z</time>
      </trkpt>
      <trkpt lat="45.69792" lon="2.95989">
        <ele>958.8</ele>
        <time>2015-06-09T10:40:48Z</time>
      </trkpt>
      <trkpt lat="45.69715" lon="2.95867">
        <ele>963.3</ele>
        <time>2015-06-09T10:41:02Z</time>
      </trkpt>
      <trkpt lat="45.69671" lon="2.95716">
        <ele>962.8</ele>
        <time>2015-06-09T10:41:24Z</time>
      </trkpt>
      <trkpt lat="45.69638" lon="2.95607">
        <ele>958.5</ele>
        <time>2015-06-09T10:41:48Z</time>
      </trkpt>
      <trkpt lat="45.69519" lon="2.95425">
        <ele>954.6</ele>
        <time>2015-06-09T10:42:28Z</time>
      </trkpt>
      <trkpt lat="45.69472" lon="2.95367">
        <ele>953.3</ele>
        <time>2015-06-09T10:42:42Z</time>
      </trkpt>
      <trkpt lat="45.69279" lon="2.95128">
        <ele>951.2</ele>
        <time>2015-06-09T10:43:40Z</time>
      </trkpt>
      <trkpt lat="45.6924" lon="2.95125">
        <ele>948.9</ele>
        <time>2015-06-09T10:43:58Z</time>
      </trkpt>
      <trkpt lat="45.6917" lon="2.95116">
        <ele>944.5</ele>
        <time>2015-06-09T10:44:28Z</time>
      </trkpt>
      <trkpt lat="45.69087" lon="2.95117">
        <ele>942.7</ele>
        <time>2015-06-09T10:44:48Z</time>
      </trkpt>
      <trkpt lat="45.69023" lon="2.95116">
        <ele>941.8</ele>
        <time>2015-06-09T10:45:04Z</time>
      </trkpt>
      <trkpt lat="45.68982" lon="2.9513">
        <ele>941.6</ele>
        <time>2015-06-09T10:45:14Z</time>
      </trkpt>
      <trkpt lat="45.689" lon="2.95114">
        <ele>941.2</ele>
        <time>2015-06-09T10:45:32Z</time>
      </trkpt>
      <trkpt lat="45.68753" lon="2.95139">
        <ele>938.2</ele>
        <time>2015-06-09T10:46:12Z</time>
      </trkpt>
      <trkpt lat="45.68679" lon="2.95199">
        <ele>935.5</ele>
        <time>2015-06-09T10:46:38Z</time>
      </trkpt>
      <trkpt lat="45.68641" lon="2.95435">
        <ele>937.7</ele>
        <time>2015-06-09T10:47:26Z</time>
      </trkpt>
      <trkpt lat="45.68607" lon="2.95435">
        <ele>938.7</ele>
        <time>2015-06-09T10:47:38Z</time>
      </trkpt>
      <trkpt lat="45.68559" lon="2.95418">
        <ele>944</ele>
        <time>2015-06-09T10:47:54Z</time>
      </trkpt>
      <trkpt lat="45.68511" lon="2.95478">
        <ele>948.7</ele>
        <time>2015-06-09T10:48:14Z</time>
      </trkpt>
      <trkpt lat="45.68545" lon="2.95546">
        <ele>951.9</ele>
        <time>2015-06-09T10:48:58Z</time>
      </trkpt>
      <trkpt lat="45.68568" lon="2.95595">
        <ele>957.6</ele>
        <time>2015-06-09T10:49:08Z</time>
      </trkpt>
      <trkpt lat="45.68585" lon="2.95664">
        <ele>967.8</ele>
        <time>2015-06-09T10:49:22Z</time>
      </trkpt>
      <trkpt lat="45.68606" lon="2.95697">
        <ele>975.5</ele>
        <time>2015-06-09T10:49:32Z</time>
      </trkpt>
      <trkpt lat="45.68628" lon="2.95738">
        <ele>981.9</ele>
        <time>2015-06-09T10:49:42Z</time>
      </trkpt>
      <trkpt lat="45.68662" lon="2.95801">
        <ele>987</ele>
        <time>2015-06-09T10:49:54Z</time>
      </trkpt>
      <trkpt lat="45.68714" lon="2.95836">
        <ele>991.1</ele>
        <time>2015-06-09T10:50:02Z</time>
      </trkpt>
      <trkpt lat="45.68781" lon="2.95932">
        <ele>998.1</ele>
        <time>2015-06-09T10:50:18Z</time>
      </trkpt>
      <trkpt lat="45.6881" lon="2.95987">
        <ele>1001.4</ele>
        <time>2015-06-09T10:50:26Z</time>
      </trkpt>
      <trkpt lat="45.68834" lon="2.96096">
        <ele>1006.5</ele>
        <time>2015-06-09T10:50:38Z</time>
      </trkpt>
      <trkpt lat="45.68818" lon="2.96145">
        <ele>1009.5</ele>
        <time>2015-06-09T10:50:44Z</time>
      </trkpt>
      <trkpt lat="45.68803" lon="2.96203">
        <ele>1014</ele>
        <time>2015-06-09T10:50:56Z</time>
      </trkpt>
      <trkpt lat="45.68782" lon="2.96307">
        <ele>1012.8</ele>
        <time>2015-06-09T10:51:44Z</time>
      </trkpt>
      <trkpt lat="45.68741" lon="2.96411">
        <ele>1015.1</ele>
        <time>2015-06-09T10:52:06Z</time>
      </trkpt>
      <trkpt lat="45.68689" lon="2.96497">
        <ele>1017.9</ele>
        <time>2015-06-09T10:52:38Z</time>
      </trkpt>
      <trkpt lat="45.68649" lon="2.96522">
        <ele>1012.6</ele>
        <time>2015-06-09T10:53:12Z</time>
      </trkpt>
      <trkpt lat="45.6861" lon="2.96532">
        <ele>1007.4</ele>
        <time>2015-06-09T10:53:42Z</time>
      </trkpt>
      <trkpt lat="45.68569" lon="2.9653">
        <ele>1001.8</ele>
        <time>2015-06-09T10:54:14Z</time>
      </trkpt>
      <trkpt lat="45.68514" lon="2.96522">
        <ele>993.2</ele>
        <time>2015-06-09T10:54:58Z</time>
      </trkpt>
      <trkpt lat="45.68467" lon="2.96496">
        <ele>987.6</ele>
        <time>2015-06-09T10:55:36Z</time>
      </trkpt>
      <trkpt lat="45.6844" lon="2.96485">
        <ele>982.5</ele>
        <time>2015-06-09T10:56:06Z</time>
      </trkpt>
      <trkpt lat="45.68426" lon="2.96483">
        <ele>980.4</ele>
        <time>2015-06-09T10:56:18Z</time>
      </trkpt>
      <trkpt lat="45.68375" lon="2.96534">
        <ele>970.4</ele>
        <time>2015-06-09T10:57:04Z</time>
      </trkpt>
      <trkpt lat="45.68352" lon="2.96559">
        <ele>966.8</ele>
        <time>2015-06-09T10:57:20Z</time>
      </trkpt>
      <trkpt lat="45.68321" lon="2.96601">
        <ele>958.3</ele>
        <time>2015-06-09T10:58:02Z</time>
      </trkpt>
      <trkpt lat="45.68274" lon="2.96605">
        <ele>953.1</ele>
        <time>2015-06-09T10:58:30Z</time>
      </trkpt>
      <trkpt lat="45.6825" lon="2.9661">
        <ele>948.9</ele>
        <time>2015-06-09T10:59:09Z</time>
      </trkpt>
      <trkpt lat="45.68267" lon="2.9652">
        <ele>945.3</ele>
        <time>2015-06-09T10:59:41Z</time>
      </trkpt>
      <trkpt lat="45.68241" lon="2.96568">
        <ele>951.8</ele>
        <time>2015-06-09T11:00:06Z</time>
      </trkpt>
      <trkpt lat="45.68232" lon="2.96642">
        <ele>951.8</ele>
        <time>2015-06-09T11:00:41Z</time>
      </trkpt>
      <trkpt lat="45.68222" lon="2.96642">
        <ele>949.6</ele>
        <time>2015-06-09T11:01:06Z</time>
      </trkpt>
      <trkpt lat="45.68204" lon="2.96642">
        <ele>949.6</ele>
        <time>2015-06-09T11:01:14Z</time>
      </trkpt>
      <trkpt lat="45.68185" lon="2.96633">
        <ele>950.7</ele>
        <time>2015-06-09T11:01:54Z</time>
      </trkpt>
      <trkpt lat="45.68155" lon="2.9665">
        <ele>952.6</ele>
        <time>2015-06-09T11:02:22Z</time>
      </trkpt>
      <trkpt lat="45.68107" lon="2.96673">
        <ele>951.7</ele>
        <time>2015-06-09T11:02:40Z</time>
      </trkpt>
      <trkpt lat="45.6802" lon="2.96731">
        <ele>946.8</ele>
        <time>2015-06-09T11:03:14Z</time>
      </trkpt>
      <trkpt lat="45.68004" lon="2.96756">
        <ele>942.2</ele>
        <time>2015-06-09T11:03:26Z</time>
      </trkpt>
      <trkpt lat="45.67975" lon="2.96796">
        <ele>941.6</ele>
        <time>2015-06-09T11:03:44Z</time>
      </trkpt>
      <trkpt lat="45.67882" lon="2.9684">
        <ele>943.6</ele>
        <time>2015-06-09T11:04:08Z</time>
      </trkpt>
      <trkpt lat="45.67803" lon="2.96851">
        <ele>943.9</ele>
        <time>2015-06-09T11:04:26Z</time>
      </trkpt>
      <trkpt lat="45.67726" lon="2.96847">
        <ele>942.9</ele>
        <time>2015-06-09T11:04:44Z</time>
      </trkpt>
      <trkpt lat="45.67519" lon="2.96807">
        <ele>936.4</ele>
        <time>2015-06-09T11:05:46Z</time>
      </trkpt>
      <trkpt lat="45.67406" lon="2.96764">
        <ele>933.5</ele>
        <time>2015-06-09T11:06:16Z</time>
      </trkpt>
      <trkpt lat="45.67274" lon="2.96774">
        <ele>930.6</ele>
        <time>2015-06-09T11:06:50Z</time>
      </trkpt>
      <trkpt lat="45.67089" lon="2.96794">
        <ele>931.2</ele>
        <time>2015-06-09T11:07:38Z</time>
      </trkpt>
      <trkpt lat="45.67051" lon="2.96797">
        <ele>929.5</ele>
        <time>2015-06-09T11:07:56Z</time>
      </trkpt>
      <trkpt lat="45.67005" lon="2.96917">
        <ele>923.5</ele>
        <time>2015-06-09T11:08:38Z</time>
      </trkpt>
      <trkpt lat="45.66973" lon="2.97033">
        <ele>918.5</ele>
        <time>2015-06-09T11:09:14Z</time>
      </trkpt>
      <trkpt lat="45.66941" lon="2.97152">
        <ele>913.8</ele>
        <time>2015-06-09T11:10:04Z</time>
      </trkpt>
      <trkpt lat="45.66942" lon="2.97253">
        <ele>908.4</ele>
        <time>2015-06-09T11:10:38Z</time>
      </trkpt>
      <trkpt lat="45.66944" lon="2.97316">
        <ele>902.6</ele>
        <time>2015-06-09T11:11:06Z</time>
      </trkpt>
      <trkpt lat="45.66959" lon="2.97436">
        <ele>896.5</ele>
        <time>2015-06-09T11:11:44Z</time>
      </trkpt>
      <trkpt lat="45.6688" lon="2.97478">
        <ele>890.2</ele>
        <time>2015-06-09T11:12:24Z</time>
      </trkpt>
      <trkpt lat="45.66804" lon="2.97453">
        <ele>890.1</ele>
        <time>2015-06-09T11:12:50Z</time>
      </trkpt>
      <trkpt lat="45.66738" lon="2.97482">
        <ele>891.3</ele>
        <time>2015-06-09T11:13:10Z</time>
      </trkpt>
      <trkpt lat="45.66701" lon="2.97481">
        <ele>891.3</ele>
        <time>2015-06-09T11:13:18Z</time>
      </trkpt>
      <trkpt lat="45.66566" lon="2.97394">
        <ele>889.1</ele>
        <time>2015-06-09T11:13:48Z</time>
      </trkpt>
      <trkpt lat="45.66431" lon="2.97325">
        <ele>889.6</ele>
        <time>2015-06-09T11:14:12Z</time>
      </trkpt>
      <trkpt lat="45.66372" lon="2.97158">
        <ele>894</ele>
        <time>2015-06-09T11:14:36Z</time>
      </trkpt>
      <trkpt lat="45.66307" lon="2.97033">
        <ele>895.6</ele>
        <time>2015-06-09T11:15:10Z</time>
      </trkpt>
      <trkpt lat="45.66264" lon="2.97092">
        <ele>890.2</ele>
        <time>2015-06-09T11:15:52Z</time>
      </trkpt>
      <trkpt lat="45.66234" lon="2.97167">
        <ele>884.2</ele>
        <time>2015-06-09T11:16:28Z</time>
      </trkpt>
      <trkpt lat="45.66227" lon="2.97204">
        <ele>880.9</ele>
        <time>2015-06-09T11:16:50Z</time>
      </trkpt>
      <trkpt lat="45.66228" lon="2.97275">
        <ele>874.8</ele>
        <time>2015-06-09T11:17:22Z</time>
      </trkpt>
      <trkpt lat="45.66232" lon="2.97341">
        <ele>868.1</ele>
        <time>2015-06-09T11:17:58Z</time>
      </trkpt>
      <trkpt lat="45.66199" lon="2.97289">
        <ele>864.8</ele>
        <time>2015-06-09T11:18:30Z</time>
      </trkpt>
      <trkpt lat="45.66176" lon="2.97257">
        <ele>861.8</ele>
        <time>2015-06-09T11:18:50Z</time>
      </trkpt>
      <trkpt lat="45.66154" lon="2.97235">
        <ele>858.6</ele>
        <time>2015-06-09T11:19:04Z</time>
      </trkpt>
      <trkpt lat="45.66194" lon="2.97296">
        <ele>854.4</ele>
        <time>2015-06-09T11:19:28Z</time>
      </trkpt>
      <trkpt lat="45.66176" lon="2.97368">
        <ele>848.7</ele>
        <time>2015-06-09T11:19:54Z</time>
      </trkpt>
      <trkpt lat="45.66081" lon="2.97276">
        <ele>844</ele>
        <time>2015-06-09T11:20:28Z</time>
      </trkpt>
      <trkpt lat="45.66007" lon="2.97293">
        <ele>840.6</ele>
        <time>2015-06-09T11:20:56Z</time>
      </trkpt>
      <trkpt lat="45.65981" lon="2.97418">
        <ele>839.8</ele>
        <time>2015-06-09T11:21:22Z</time>
      </trkpt>
      <trkpt lat="45.65964" lon="2.97505">
        <ele>846.1</ele>
        <time>2015-06-09T11:21:36Z</time>
      </trkpt>
      <trkpt lat="45.65953" lon="2.9759">
        <ele>849.1</ele>
        <time>2015-06-09T11:21:46Z</time>
      </trkpt>
      <trkpt lat="45.6598" lon="2.97856">
        <ele>854.3</ele>
        <time>2015-06-09T11:22:20Z</time>
      </trkpt>
      <trkpt lat="45.65998" lon="2.97948">
        <ele>856.9</ele>
        <time>2015-06-09T11:22:30Z</time>
      </trkpt>
      <trkpt lat="45.66013" lon="2.98099">
        <ele>863.9</ele>
        <time>2015-06-09T11:22:48Z</time>
      </trkpt>
      <trkpt lat="45.65986" lon="2.98256">
        <ele>867.6</ele>
        <time>2015-06-09T11:23:10Z</time>
      </trkpt>
      <trkpt lat="45.6597" lon="2.98275">
        <ele>871.8</ele>
        <time>2015-06-09T11:23:40Z</time>
      </trkpt>
      <trkpt lat="45.65934" lon="2.98276">
        <ele>878.5</ele>
        <time>2015-06-09T11:23:48Z</time>
      </trkpt>
      <trkpt lat="45.65854" lon="2.98318">
        <ele>889.2</ele>
        <time>2015-06-09T11:23:58Z</time>
      </trkpt>
      <trkpt lat="45.65827" lon="2.98303">
        <ele>896.1</ele>
        <time>2015-06-09T11:24:06Z</time>
      </trkpt>
      <trkpt lat="45.65796" lon="2.98242">
        <ele>903.4</ele>
        <time>2015-06-09T11:24:14Z</time>
      </trkpt>
      <trkpt lat="45.65752" lon="2.982">
        <ele>910</ele>
        <time>2015-06-09T11:24:24Z</time>
      </trkpt>
      <trkpt lat="45.65725" lon="2.98151">
        <ele>914.3</ele>
        <time>2015-06-09T11:24:30Z</time>
      </trkpt>
      <trkpt lat="45.65681" lon="2.98097">
        <ele>919.1</ele>
        <time>2015-06-09T11:24:40Z</time>
      </trkpt>
      <trkpt lat="45.65587" lon="2.98166">
        <ele>918.2</ele>
        <time>2015-06-09T11:25:10Z</time>
      </trkpt>
      <trkpt lat="45.65517" lon="2.98212">
        <ele>913.5</ele>
        <time>2015-06-09T11:25:32Z</time>
      </trkpt>
      <trkpt lat="45.65437" lon="2.98275">
        <ele>911.8</ele>
        <time>2015-06-09T11:27:20Z</time>
      </trkpt>
      <trkpt lat="45.65374" lon="2.98505">
        <ele>909.5</ele>
        <time>2015-06-09T11:28:14Z</time>
      </trkpt>
      <trkpt lat="45.65353" lon="2.98546">
        <ele>909</ele>
        <time>2015-06-09T11:29:36Z</time>
      </trkpt>
      <trkpt lat="45.65346" lon="2.98636">
        <ele>905</ele>
        <time>2015-06-09T11:30:02Z</time>
      </trkpt>
      <trkpt lat="45.65332" lon="2.98722">
        <ele>899.2</ele>
        <time>2015-06-09T11:30:36Z</time>
      </trkpt>
      <trkpt lat="45.65297" lon="2.98756">
        <ele>896</ele>
        <time>2015-06-09T11:30:54Z</time>
      </trkpt>
      <trkpt lat="45.65288" lon="2.98892">
        <ele>891.3</ele>
        <time>2015-06-09T11:31:32Z</time>
      </trkpt>
      <trkpt lat="45.65294" lon="2.98911">
        <ele>888.3</ele>
        <time>2015-06-09T11:31:40Z</time>
      </trkpt>
      <trkpt lat="45.65329" lon="2.99035">
        <ele>888.1</ele>
        <time>2015-06-09T11:32:12Z</time>
      </trkpt>
      <trkpt lat="45.65368" lon="2.99092">
        <ele>894.9</ele>
        <time>2015-06-09T11:32:22Z</time>
      </trkpt>
      <trkpt lat="45.65422" lon="2.99126">
        <ele>901.3</ele>
        <time>2015-06-09T11:32:30Z</time>
      </trkpt>
      <trkpt lat="45.65485" lon="2.99215">
        <ele>907.6</ele>
        <time>2015-06-09T11:32:48Z</time>
      </trkpt>
      <trkpt lat="45.6556" lon="2.99362">
        <ele>909.4</ele>
        <time>2015-06-09T11:33:14Z</time>
      </trkpt>
      <trkpt lat="45.65576" lon="2.99395">
        <ele>909.5</ele>
        <time>2015-06-09T11:33:20Z</time>
      </trkpt>
      <trkpt lat="45.65611" lon="2.99525">
        <ele>912.8</ele>
        <time>2015-06-09T11:33:42Z</time>
      </trkpt>
      <trkpt lat="45.65649" lon="2.99663">
        <ele>918.2</ele>
        <time>2015-06-09T11:34:10Z</time>
      </trkpt>
      <trkpt lat="45.65677" lon="2.99682">
        <ele>919.9</ele>
        <time>2015-06-09T11:34:28Z</time>
      </trkpt>
      <trkpt lat="45.65778" lon="2.99695">
        <ele>918.3</ele>
        <time>2015-06-09T11:35:34Z</time>
      </trkpt>
      <trkpt lat="45.65824" lon="2.99717">
        <ele>930.8</ele>
        <time>2015-06-09T11:36:20Z</time>
      </trkpt>
      <trkpt lat="45.65913" lon="2.99735">
        <ele>935.5</ele>
        <time>2015-06-09T11:36:46Z</time>
      </trkpt>
      <trkpt lat="45.65955" lon="2.99749">
        <ele>935.5</ele>
        <time>2015-06-09T11:37:04Z</time>
      </trkpt>
      <trkpt lat="45.66039" lon="2.99702">
        <ele>935.1</ele>
        <time>2015-06-09T11:37:34Z</time>
      </trkpt>
      <trkpt lat="45.66085" lon="2.99669">
        <ele>930.1</ele>
        <time>2015-06-09T11:38:06Z</time>
      </trkpt>
      <trkpt lat="45.66128" lon="2.99656">
        <ele>925.9</ele>
        <time>2015-06-09T11:38:30Z</time>
      </trkpt>
      <trkpt lat="45.66182" lon="2.9967">
        <ele>920.7</ele>
        <time>2015-06-09T11:38:58Z</time>
      </trkpt>
      <trkpt lat="45.66248" lon="2.99658">
        <ele>917.5</ele>
        <time>2015-06-09T11:39:28Z</time>
      </trkpt>
      <trkpt lat="45.66304" lon="2.99624">
        <ele>912.7</ele>
        <time>2015-06-09T11:39:56Z</time>
      </trkpt>
      <trkpt lat="45.66368" lon="2.99603">
        <ele>908.4</ele>
        <time>2015-06-09T11:40:28Z</time>
      </trkpt>
      <trkpt lat="45.66377" lon="2.9963">
        <ele>907.7</ele>
        <time>2015-06-09T11:43:35Z</time>
      </trkpt>
      <trkpt lat="45.66361" lon="2.99761">
        <ele>900.4</ele>
        <time>2015-06-09T11:44:41Z</time>
      </trkpt>
      <trkpt lat="45.66377" lon="2.99797">
        <ele>894.7</ele>
        <time>2015-06-09T11:45:04Z</time>
      </trkpt>
      <trkpt lat="45.6642" lon="2.99833">
        <ele>888.4</ele>
        <time>2015-06-09T11:45:42Z</time>
      </trkpt>
      <trkpt lat="45.66441" lon="2.99844">
        <ele>884.3</ele>
        <time>2015-06-09T11:46:06Z</time>
      </trkpt>
      <trkpt lat="45.66446" lon="2.99852">
        <ele>879.3</ele>
        <time>2015-06-09T11:46:22Z</time>
      </trkpt>
      <trkpt lat="45.66436" lon="2.9988">
        <ele>875.3</ele>
        <time>2015-06-09T11:46:36Z</time>
      </trkpt>
      <trkpt lat="45.66397" lon="2.99947">
        <ele>872.2</ele>
        <time>2015-06-09T11:47:06Z</time>
      </trkpt>
      <trkpt lat="45.664" lon="3.00018">
        <ele>876.2</ele>
        <time>2015-06-09T11:47:32Z</time>
      </trkpt>
      <trkpt lat="45.66436" lon="3.0014">
        <ele>869.6</ele>
        <time>2015-06-09T11:48:36Z</time>
      </trkpt>
      <trkpt lat="45.6646" lon="3.00174">
        <ele>865</ele>
        <time>2015-06-09T11:48:58Z</time>
      </trkpt>
      <trkpt lat="45.66471" lon="3.00164">
        <ele>860.9</ele>
        <time>2015-06-09T11:49:18Z</time>
      </trkpt>
      <trkpt lat="45.66468" lon="3.00131">
        <ele>857</ele>
        <time>2015-06-09T11:49:38Z</time>
      </trkpt>
      <trkpt lat="45.66477" lon="3.001">
        <ele>852.9</ele>
        <time>2015-06-09T11:49:58Z</time>
      </trkpt>
      <trkpt lat="45.66508" lon="3.00066">
        <ele>848.4</ele>
        <time>2015-06-09T11:50:22Z</time>
      </trkpt>
      <trkpt lat="45.66507" lon="3.0005">
        <ele>843.3</ele>
        <time>2015-06-09T11:50:46Z</time>
      </trkpt>
      <trkpt lat="45.66523" lon="3.00106">
        <ele>837.7</ele>
        <time>2015-06-09T11:51:14Z</time>
      </trkpt>
      <trkpt lat="45.66531" lon="3.00208">
        <ele>833.7</ele>
        <time>2015-06-09T11:51:46Z</time>
      </trkpt>
      <trkpt lat="45.66544" lon="3.00264">
        <ele>828.7</ele>
        <time>2015-06-09T11:52:06Z</time>
      </trkpt>
      <trkpt lat="45.66585" lon="3.00217">
        <ele>823.7</ele>
        <time>2015-06-09T11:52:30Z</time>
      </trkpt>
      <trkpt lat="45.66617" lon="3.00174">
        <ele>818.9</ele>
        <time>2015-06-09T11:52:52Z</time>
      </trkpt>
      <trkpt lat="45.66674" lon="3.00082">
        <ele>819</ele>
        <time>2015-06-09T11:53:12Z</time>
      </trkpt>
      <trkpt lat="45.66766" lon="3.0006">
        <ele>817.4</ele>
        <time>2015-06-09T11:53:36Z</time>
      </trkpt>
      <trkpt lat="45.66806" lon="3.00067">
        <ele>814.5</ele>
        <time>2015-06-09T11:53:48Z</time>
      </trkpt>
      <trkpt lat="45.66832" lon="3.00132">
        <ele>813.2</ele>
        <time>2015-06-09T11:54:02Z</time>
      </trkpt>
      <trkpt lat="45.66925" lon="3.00264">
        <ele>811.2</ele>
        <time>2015-06-09T11:54:30Z</time>
      </trkpt>
      <trkpt lat="45.66921" lon="3.00358">
        <ele>809.4</ele>
        <time>2015-06-09T11:54:46Z</time>
      </trkpt>
      <trkpt lat="45.67014" lon="3.00483">
        <ele>807.8</ele>
        <time>2015-06-09T11:55:20Z</time>
      </trkpt>
      <trkpt lat="45.67127" lon="3.00556">
        <ele>808.1</ele>
        <time>2015-06-09T11:55:48Z</time>
      </trkpt>
      <trkpt lat="45.67262" lon="3.00613">
        <ele>808.1</ele>
        <time>2015-06-09T11:56:16Z</time>
      </trkpt>
      <trkpt lat="45.67257" lon="3.00737">
        <ele>805.7</ele>
        <time>2015-06-09T11:56:44Z</time>
      </trkpt>
      <trkpt lat="45.67235" lon="3.00959">
        <ele>803.2</ele>
        <time>2015-06-09T11:57:18Z</time>
      </trkpt>
      <trkpt lat="45.67244" lon="3.00997">
        <ele>803</ele>
        <time>2015-06-09T11:57:24Z</time>
      </trkpt>
      <trkpt lat="45.67266" lon="3.01082">
        <ele>803.1</ele>
        <time>2015-06-09T11:57:40Z</time>
      </trkpt>
      <trkpt lat="45.67271" lon="3.01221">
        <ele>806.5</ele>
        <time>2015-06-09T11:57:58Z</time>
      </trkpt>
      <trkpt lat="45.67273" lon="3.01276">
        <ele>808.3</ele>
        <time>2015-06-09T11:58:04Z</time>
      </trkpt>
      <trkpt lat="45.67248" lon="3.0136">
        <ele>811.7</ele>
        <time>2015-06-09T11:58:14Z</time>
      </trkpt>
      <trkpt lat="45.67223" lon="3.01415">
        <ele>814.7</ele>
        <time>2015-06-09T11:58:22Z</time>
      </trkpt>
      <trkpt lat="45.67204" lon="3.01505">
        <ele>818</ele>
        <time>2015-06-09T11:58:32Z</time>
      </trkpt>
      <trkpt lat="45.6718" lon="3.01575">
        <ele>820.2</ele>
        <time>2015-06-09T11:58:50Z</time>
      </trkpt>
      <trkpt lat="45.67151" lon="3.01756">
        <ele>818.7</ele>
        <time>2015-06-09T11:59:22Z</time>
      </trkpt>
      <trkpt lat="45.67167" lon="3.01898">
        <ele>815</ele>
        <time>2015-06-09T11:59:56Z</time>
      </trkpt>
      <trkpt lat="45.67122" lon="3.02044">
        <ele>809.2</ele>
        <time>2015-06-09T12:00:32Z</time>
      </trkpt>
      <trkpt lat="45.67107" lon="3.02128">
        <ele>805.3</ele>
        <time>2015-06-09T12:00:52Z</time>
      </trkpt>
      <trkpt lat="45.67081" lon="3.02243">
        <ele>804.4</ele>
        <time>2015-06-09T12:01:12Z</time>
      </trkpt>
      <trkpt lat="45.67044" lon="3.02426">
        <ele>804.2</ele>
        <time>2015-06-09T12:01:48Z</time>
      </trkpt>
      <trkpt lat="45.67001" lon="3.02539">
        <ele>798.9</ele>
        <time>2015-06-09T12:02:32Z</time>
      </trkpt>
      <trkpt lat="45.66984" lon="3.02568">
        <ele>795.9</ele>
        <time>2015-06-09T12:02:46Z</time>
      </trkpt>
      <trkpt lat="45.66937" lon="3.02608">
        <ele>794.1</ele>
        <time>2015-06-09T12:03:10Z</time>
      </trkpt>
      <trkpt lat="45.66853" lon="3.02593">
        <ele>788.4</ele>
        <time>2015-06-09T12:03:54Z</time>
      </trkpt>
      <trkpt lat="45.66804" lon="3.02551">
        <ele>781.8</ele>
        <time>2015-06-09T12:04:30Z</time>
      </trkpt>
      <trkpt lat="45.6675" lon="3.02519">
        <ele>775.3</ele>
        <time>2015-06-09T12:05:04Z</time>
      </trkpt>
      <trkpt lat="45.66715" lon="3.0249">
        <ele>772</ele>
        <time>2015-06-09T12:05:22Z</time>
      </trkpt>
      <trkpt lat="45.66676" lon="3.02467">
        <ele>769.1</ele>
        <time>2015-06-09T12:05:40Z</time>
      </trkpt>
      <trkpt lat="45.66586" lon="3.02415">
        <ele>765</ele>
        <time>2015-06-09T12:06:20Z</time>
      </trkpt>
      <trkpt lat="45.66548" lon="3.02415">
        <ele>759</ele>
        <time>2015-06-09T12:06:46Z</time>
      </trkpt>
      <trkpt lat="45.66593" lon="3.02506">
        <ele>758.5</ele>
        <time>2015-06-09T12:07:10Z</time>
      </trkpt>
      <trkpt lat="45.66634" lon="3.02565">
        <ele>762.7</ele>
        <time>2015-06-09T12:07:24Z</time>
      </trkpt>
      <trkpt lat="45.66656" lon="3.0265">
        <ele>769.8</ele>
        <time>2015-06-09T12:07:40Z</time>
      </trkpt>
      <trkpt lat="45.66672" lon="3.02706">
        <ele>775.8</ele>
        <time>2015-06-09T12:07:52Z</time>
      </trkpt>
      <trkpt lat="45.66663" lon="3.02758">
        <ele>780.3</ele>
        <time>2015-06-09T12:08:02Z</time>
      </trkpt>
      <trkpt lat="45.66653" lon="3.02904">
        <ele>780.2</ele>
        <time>2015-06-09T12:08:38Z</time>
      </trkpt>
      <trkpt lat="45.66642" lon="3.02925">
        <ele>777.9</ele>
        <time>2015-06-09T12:08:48Z</time>
      </trkpt>
      <trkpt lat="45.66601" lon="3.03004">
        <ele>772.6</ele>
        <time>2015-06-09T12:09:26Z</time>
      </trkpt>
      <trkpt lat="45.66572" lon="3.03161">
        <ele>766.8</ele>
        <time>2015-06-09T12:10:16Z</time>
      </trkpt>
      <trkpt lat="45.66528" lon="3.03293">
        <ele>761.1</ele>
        <time>2015-06-09T12:11:08Z</time>
      </trkpt>
      <trkpt lat="45.66506" lon="3.0338">
        <ele>754.8</ele>
        <time>2015-06-09T12:11:48Z</time>
      </trkpt>
      <trkpt lat="45.66485" lon="3.03482">
        <ele>748.3</ele>
        <time>2015-06-09T12:12:30Z</time>
      </trkpt>
      <trkpt lat="45.66456" lon="3.03577">
        <ele>741.9</ele>
        <time>2015-06-09T12:13:10Z</time>
      </trkpt>
      <trkpt lat="45.66454" lon="3.03586">
        <ele>741</ele>
        <time>2015-06-09T12:13:14Z</time>
      </trkpt>
      <trkpt lat="45.66443" lon="3.03632">
        <ele>734.8</ele>
        <time>2015-06-09T12:13:34Z</time>
      </trkpt>
      <trkpt lat="45.66434" lon="3.0367">
        <ele>733</ele>
        <time>2015-06-09T12:13:48Z</time>
      </trkpt>
      <trkpt lat="45.66467" lon="3.03742">
        <ele>732.3</ele>
        <time>2015-06-09T12:14:08Z</time>
      </trkpt>
      <trkpt lat="45.66442" lon="3.03891">
        <ele>730.1</ele>
        <time>2015-06-09T12:14:56Z</time>
      </trkpt>
      <trkpt lat="45.66458" lon="3.03941">
        <ele>725.8</ele>
        <time>2015-06-09T12:15:22Z</time>
      </trkpt>
      <trkpt lat="45.6648" lon="3.03964">
        <ele>722.4</ele>
        <time>2015-06-09T12:15:40Z</time>
      </trkpt>
      <trkpt lat="45.66526" lon="3.04006">
        <ele>717.4</ele>
        <time>2015-06-09T12:16:14Z</time>
      </trkpt>
      <trkpt lat="45.66547" lon="3.04022">
        <ele>712.8</ele>
        <time>2015-06-09T12:16:32Z</time>
      </trkpt>
      <trkpt lat="45.66549" lon="3.04051">
        <ele>708.6</ele>
        <time>2015-06-09T12:16:50Z</time>
      </trkpt>
      <trkpt lat="45.66527" lon="3.0413">
        <ele>701.2</ele>
        <time>2015-06-09T12:17:28Z</time>
      </trkpt>
      <trkpt lat="45.66515" lon="3.04208">
        <ele>694.9</ele>
        <time>2015-06-09T12:18:00Z</time>
      </trkpt>
      <trkpt lat="45.66503" lon="3.04306">
        <ele>691.7</ele>
        <time>2015-06-09T12:18:34Z</time>
      </trkpt>
      <trkpt lat="45.66529" lon="3.04376">
        <ele>685.9</ele>
        <time>2015-06-09T12:19:06Z</time>
      </trkpt>
      <trkpt lat="45.66563" lon="3.04463">
        <ele>680.6</ele>
        <time>2015-06-09T12:19:44Z</time>
      </trkpt>
      <trkpt lat="45.66567" lon="3.04498">
        <ele>675.3</ele>
        <time>2015-06-09T12:20:04Z</time>
      </trkpt>
      <trkpt lat="45.66567" lon="3.04517">
        <ele>674</ele>
        <time>2015-06-09T12:20:12Z</time>
      </trkpt>
      <trkpt lat="45.66547" lon="3.04636">
        <ele>666.1</ele>
        <time>2015-06-09T12:20:58Z</time>
      </trkpt>
      <trkpt lat="45.66538" lon="3.04676">
        <ele>663.1</ele>
        <time>2015-06-09T12:21:14Z</time>
      </trkpt>
      <trkpt lat="45.66531" lon="3.04708">
        <ele>659.1</ele>
        <time>2015-06-09T12:21:28Z</time>
      </trkpt>
      <trkpt lat="45.66523" lon="3.04732">
        <ele>655.7</ele>
        <time>2015-06-09T12:21:40Z</time>
      </trkpt>
      <trkpt lat="45.66502" lon="3.04798">
        <ele>656.1</ele>
        <time>2015-06-09T12:21:58Z</time>
      </trkpt>
      <trkpt lat="45.66473" lon="3.04909">
        <ele>657.3</ele>
        <time>2015-06-09T12:22:16Z</time>
      </trkpt>
      <trkpt lat="45.66446" lon="3.05168">
        <ele>653.1</ele>
        <time>2015-06-09T12:23:08Z</time>
      </trkpt>
      <trkpt lat="45.66437" lon="3.05332">
        <ele>645.3</ele>
        <time>2015-06-09T12:24:10Z</time>
      </trkpt>
      <trkpt lat="45.66427" lon="3.05392">
        <ele>640.3</ele>
        <time>2015-06-09T12:24:38Z</time>
      </trkpt>
      <trkpt lat="45.66419" lon="3.05436">
        <ele>636.3</ele>
        <time>2015-06-09T12:24:58Z</time>
      </trkpt>
      <trkpt lat="45.6642" lon="3.0547">
        <ele>633.7</ele>
        <time>2015-06-09T12:25:12Z</time>
      </trkpt>
      <trkpt lat="45.66406" lon="3.05522">
        <ele>628.3</ele>
        <time>2015-06-09T12:25:38Z</time>
      </trkpt>
      <trkpt lat="45.66412" lon="3.05607">
        <ele>622</ele>
        <time>2015-06-09T12:26:10Z</time>
      </trkpt>
      <trkpt lat="45.66419" lon="3.0569">
        <ele>617.2</ele>
        <time>2015-06-09T12:26:42Z</time>
      </trkpt>
      <trkpt lat="45.66454" lon="3.05698">
        <ele>613.9</ele>
        <time>2015-06-09T12:26:58Z</time>
      </trkpt>
      <trkpt lat="45.66502" lon="3.05706">
        <ele>609</ele>
        <time>2015-06-09T12:27:18Z</time>
      </trkpt>
      <trkpt lat="45.66618" lon="3.05727">
        <ele>602.6</ele>
        <time>2015-06-09T12:27:54Z</time>
      </trkpt>
      <trkpt lat="45.66772" lon="3.05739">
        <ele>599</ele>
        <time>2015-06-09T12:28:34Z</time>
      </trkpt>
      <trkpt lat="45.66796" lon="3.05727">
        <ele>599.4</ele>
        <time>2015-06-09T12:28:42Z</time>
      </trkpt>
      <trkpt lat="45.66893" lon="3.05641">
        <ele>599.9</ele>
        <time>2015-06-09T12:29:06Z</time>
      </trkpt>
      <trkpt lat="45.66957" lon="3.05673">
        <ele>599.6</ele>
        <time>2015-06-09T12:29:32Z</time>
      </trkpt>
      <trkpt lat="45.67026" lon="3.05743">
        <ele>600.8</ele>
        <time>2015-06-09T12:29:54Z</time>
      </trkpt>
      <trkpt lat="45.67055" lon="3.05769">
        <ele>600.6</ele>
        <time>2015-06-09T12:30:02Z</time>
      </trkpt>
      <trkpt lat="45.6716" lon="3.05832">
        <ele>605.1</ele>
        <time>2015-06-09T12:30:30Z</time>
      </trkpt>
      <trkpt lat="45.67193" lon="3.05845">
        <ele>609.6</ele>
        <time>2015-06-09T12:30:42Z</time>
      </trkpt>
      <trkpt lat="45.67234" lon="3.05866">
        <ele>613</ele>
        <time>2015-06-09T12:30:54Z</time>
      </trkpt>
      <trkpt lat="45.67283" lon="3.05869">
        <ele>617.1</ele>
        <time>2015-06-09T12:31:04Z</time>
      </trkpt>
      <trkpt lat="45.67324" lon="3.05864">
        <ele>621.7</ele>
        <time>2015-06-09T12:31:16Z</time>
      </trkpt>
      <trkpt lat="45.67342" lon="3.05879">
        <ele>624.7</ele>
        <time>2015-06-09T12:31:26Z</time>
      </trkpt>
      <trkpt lat="45.67348" lon="3.0594">
        <ele>630.3</ele>
        <time>2015-06-09T12:31:40Z</time>
      </trkpt>
      <trkpt lat="45.67354" lon="3.05975">
        <ele>632.6</ele>
        <time>2015-06-09T12:31:46Z</time>
      </trkpt>
      <trkpt lat="45.67392" lon="3.06025">
        <ele>635.6</ele>
        <time>2015-06-09T12:32:00Z</time>
      </trkpt>
      <trkpt lat="45.67459" lon="3.06094">
        <ele>640.3</ele>
        <time>2015-06-09T12:32:16Z</time>
      </trkpt>
      <trkpt lat="45.67479" lon="3.06132">
        <ele>640.5</ele>
        <time>2015-06-09T12:32:22Z</time>
      </trkpt>
      <trkpt lat="45.67522" lon="3.06244">
        <ele>644</ele>
        <time>2015-06-09T12:32:40Z</time>
      </trkpt>
      <trkpt lat="45.67537" lon="3.06376">
        <ele>649.4</ele>
        <time>2015-06-09T12:32:54Z</time>
      </trkpt>
      <trkpt lat="45.67556" lon="3.06466">
        <ele>655.2</ele>
        <time>2015-06-09T12:33:08Z</time>
      </trkpt>
      <trkpt lat="45.67583" lon="3.06589">
        <ele>664</ele>
        <time>2015-06-09T12:33:24Z</time>
      </trkpt>
      <trkpt lat="45.67599" lon="3.06703">
        <ele>669.7</ele>
        <time>2015-06-09T12:33:36Z</time>
      </trkpt>
      <trkpt lat="45.67615" lon="3.06864">
        <ele>672.3</ele>
        <time>2015-06-09T12:33:58Z</time>
      </trkpt>
      <trkpt lat="45.67818" lon="3.06841">
        <ele>672.4</ele>
        <time>2015-06-09T12:34:42Z</time>
      </trkpt>
      <trkpt lat="45.67836" lon="3.06837">
        <ele>672.8</ele>
        <time>2015-06-09T12:34:46Z</time>
      </trkpt>
      <trkpt lat="45.67965" lon="3.0686">
        <ele>679</ele>
        <time>2015-06-09T12:35:16Z</time>
      </trkpt>
      <trkpt lat="45.68024" lon="3.06874">
        <ele>684.4</ele>
        <time>2015-06-09T12:35:28Z</time>
      </trkpt>
      <trkpt lat="45.6806" lon="3.06872">
        <ele>687.8</ele>
        <time>2015-06-09T12:35:36Z</time>
      </trkpt>
      <trkpt lat="45.6812" lon="3.06877">
        <ele>694.8</ele>
        <time>2015-06-09T12:35:56Z</time>
      </trkpt>
      <trkpt lat="45.68161" lon="3.06878">
        <ele>701.9</ele>
        <time>2015-06-09T12:36:12Z</time>
      </trkpt>
      <trkpt lat="45.68218" lon="3.06909">
        <ele>710.4</ele>
        <time>2015-06-09T12:36:34Z</time>
      </trkpt>
      <trkpt lat="45.68243" lon="3.06927">
        <ele>713.7</ele>
        <time>2015-06-09T12:36:46Z</time>
      </trkpt>
      <trkpt lat="45.6828" lon="3.06951">
        <ele>720.1</ele>
        <time>2015-06-09T12:37:08Z</time>
      </trkpt>
      <trkpt lat="45.68317" lon="3.0697">
        <ele>727</ele>
        <time>2015-06-09T12:37:24Z</time>
      </trkpt>
      <trkpt lat="45.68345" lon="3.06991">
        <ele>729.2</ele>
        <time>2015-06-09T12:37:36Z</time>
      </trkpt>
      <trkpt lat="45.68389" lon="3.06989">
        <ele>732.2</ele>
        <time>2015-06-09T12:37:54Z</time>
      </trkpt>
      <trkpt lat="45.68403" lon="3.06951">
        <ele>732.9</ele>
        <time>2015-06-09T12:38:06Z</time>
      </trkpt>
      <trkpt lat="45.68441" lon="3.06845">
        <ele>737.6</ele>
        <time>2015-06-09T12:38:26Z</time>
      </trkpt>
      <trkpt lat="45.68456" lon="3.06782">
        <ele>741.4</ele>
        <time>2015-06-09T12:38:36Z</time>
      </trkpt>
      <trkpt lat="45.68456" lon="3.06671">
        <ele>747.8</ele>
        <time>2015-06-09T12:38:50Z</time>
      </trkpt>
      <trkpt lat="45.68461" lon="3.06461">
        <ele>755.2</ele>
        <time>2015-06-09T12:39:08Z</time>
      </trkpt>
      <trkpt lat="45.68443" lon="3.06249">
        <ele>760.5</ele>
        <time>2015-06-09T12:39:28Z</time>
      </trkpt>
      <trkpt lat="45.68438" lon="3.06125">
        <ele>762.9</ele>
        <time>2015-06-09T12:39:48Z</time>
      </trkpt>
      <trkpt lat="45.68381" lon="3.06178">
        <ele>762.4</ele>
        <time>2015-06-09T12:40:32Z</time>
      </trkpt>
      <trkpt lat="45.68368" lon="3.0619">
        <ele>760.4</ele>
        <time>2015-06-09T12:40:49Z</time>
      </trkpt>
      <trkpt lat="45.68361" lon="3.06225">
        <ele>758.5</ele>
        <time>2015-06-09T12:41:03Z</time>
      </trkpt>
      <trkpt lat="45.6835" lon="3.06294">
        <ele>754.5</ele>
        <time>2015-06-09T12:41:33Z</time>
      </trkpt>
      <trkpt lat="45.68351" lon="3.06312">
        <ele>754.4</ele>
        <time>2015-06-09T12:51:33Z</time>
      </trkpt>
      <trkpt lat="45.6836" lon="3.06292">
        <ele>757</ele>
        <time>2015-06-09T13:22:26Z</time>
      </trkpt>
      <trkpt lat="45.68335" lon="3.06317">
        <ele>753</ele>
        <time>2015-06-09T13:33:19Z</time>
      </trkpt>
      <trkpt lat="45.68335" lon="3.06312">
        <ele>753.2</ele>
        <time>2015-06-09T13:33:23Z</time>
      </trkpt>
      <trkpt lat="45.6832" lon="3.0632">
        <ele>753</ele>
        <time>2015-06-09T13:33:40Z</time>
      </trkpt>
      <trkpt lat="45.68341" lon="3.06294">
        <ele>753.2</ele>
        <time>2015-06-09T13:33:50Z</time>
      </trkpt>
      <trkpt lat="45.68316" lon="3.06354">
        <ele>754.2</ele>
        <time>2015-06-09T13:33:55Z</time>
      </trkpt>
      <trkpt lat="45.68336" lon="3.06313">
        <ele>757.2</ele>
        <time>2015-06-09T13:38:52Z</time>
      </trkpt>
      <trkpt lat="45.68342" lon="3.06305">
        <ele>757.7</ele>
        <time>2015-06-09T13:40:35Z</time>
      </trkpt>
      <trkpt lat="45.68345" lon="3.06313">
        <ele>758</ele>
        <time>2015-06-09T13:41:36Z</time>
      </trkpt>
      <trkpt lat="45.68373" lon="3.06268">
        <ele>758.2</ele>
        <time>2015-06-09T13:42:45Z</time>
      </trkpt>
      <trkpt lat="45.68331" lon="3.06317">
        <ele>757.7</ele>
        <time>2015-06-09T13:43:05Z</time>
      </trkpt>
      <trkpt lat="45.68356" lon="3.063">
        <ele>769.9</ele>
        <time>2015-06-10T09:05:25Z</time>
      </trkpt>
      <trkpt lat="45.68372" lon="3.06228">
        <ele>774.4</ele>
        <time>2015-06-10T09:05:41Z</time>
      </trkpt>
      <trkpt lat="45.68381" lon="3.0618">
        <ele>775.4</ele>
        <time>2015-06-10T09:11:05Z</time>
      </trkpt>
      <trkpt lat="45.68408" lon="3.06169">
        <ele>776.9</ele>
        <time>2015-06-10T09:11:41Z</time>
      </trkpt>
      <trkpt lat="45.68442" lon="3.06069">
        <ele>781.3</ele>
        <time>2015-06-10T09:11:57Z</time>
      </trkpt>
      <trkpt lat="45.68449" lon="3.05911">
        <ele>788.3</ele>
        <time>2015-06-10T09:12:09Z</time>
      </trkpt>
      <trkpt lat="45.68457" lon="3.05806">
        <ele>791.8</ele>
        <time>2015-06-10T09:12:17Z</time>
      </trkpt>
      <trkpt lat="45.68481" lon="3.05657">
        <ele>792.7</ele>
        <time>2015-06-10T09:12:33Z</time>
      </trkpt>
      <trkpt lat="45.68486" lon="3.05574">
        <ele>791.7</ele>
        <time>2015-06-10T09:12:43Z</time>
      </trkpt>
      <trkpt lat="45.68526" lon="3.05381">
        <ele>789</ele>
        <time>2015-06-10T09:13:05Z</time>
      </trkpt>
      <trkpt lat="45.6857" lon="3.05129">
        <ele>794.8</ele>
        <time>2015-06-10T09:13:25Z</time>
      </trkpt>
      <trkpt lat="45.68584" lon="3.04955">
        <ele>797</ele>
        <time>2015-06-10T09:13:39Z</time>
      </trkpt>
      <trkpt lat="45.68622" lon="3.04792">
        <ele>798.2</ele>
        <time>2015-06-10T09:13:55Z</time>
      </trkpt>
      <trkpt lat="45.68639" lon="3.04633">
        <ele>801.7</ele>
        <time>2015-06-10T09:14:07Z</time>
      </trkpt>
      <trkpt lat="45.68635" lon="3.04531">
        <ele>806.1</ele>
        <time>2015-06-10T09:14:13Z</time>
      </trkpt>
      <trkpt lat="45.68638" lon="3.04373">
        <ele>813.9</ele>
        <time>2015-06-10T09:14:21Z</time>
      </trkpt>
      <trkpt lat="45.68659" lon="3.04229">
        <ele>822.6</ele>
        <time>2015-06-10T09:14:29Z</time>
      </trkpt>
      <trkpt lat="45.68674" lon="3.0416">
        <ele>826.7</ele>
        <time>2015-06-10T09:14:33Z</time>
      </trkpt>
      <trkpt lat="45.68705" lon="3.04024">
        <ele>833.7</ele>
        <time>2015-06-10T09:14:41Z</time>
      </trkpt>
      <trkpt lat="45.68714" lon="3.03878">
        <ele>841.3</ele>
        <time>2015-06-10T09:14:49Z</time>
      </trkpt>
      <trkpt lat="45.6871" lon="3.03806">
        <ele>844.4</ele>
        <time>2015-06-10T09:14:53Z</time>
      </trkpt>
      <trkpt lat="45.68695" lon="3.03742">
        <ele>847.6</ele>
        <time>2015-06-10T09:14:57Z</time>
      </trkpt>
      <trkpt lat="45.68685" lon="3.03591">
        <ele>854.1</ele>
        <time>2015-06-10T09:15:07Z</time>
      </trkpt>
      <trkpt lat="45.68708" lon="3.03546">
        <ele>857.2</ele>
        <time>2015-06-10T09:15:11Z</time>
      </trkpt>
      <trkpt lat="45.68764" lon="3.03527">
        <ele>860.4</ele>
        <time>2015-06-10T09:15:17Z</time>
      </trkpt>
      <trkpt lat="45.68811" lon="3.03466">
        <ele>864</ele>
        <time>2015-06-10T09:15:23Z</time>
      </trkpt>
      <trkpt lat="45.68842" lon="3.0333">
        <ele>870.7</ele>
        <time>2015-06-10T09:15:35Z</time>
      </trkpt>
      <trkpt lat="45.68872" lon="3.03317">
        <ele>875.1</ele>
        <time>2015-06-10T09:15:41Z</time>
      </trkpt>
      <trkpt lat="45.68923" lon="3.03333">
        <ele>881.4</ele>
        <time>2015-06-10T09:15:49Z</time>
      </trkpt>
      <trkpt lat="45.68962" lon="3.03363">
        <ele>884.7</ele>
        <time>2015-06-10T09:15:55Z</time>
      </trkpt>
      <trkpt lat="45.69011" lon="3.03404">
        <ele>891.3</ele>
        <time>2015-06-10T09:16:09Z</time>
      </trkpt>
      <trkpt lat="45.69007" lon="3.03381">
        <ele>894.1</ele>
        <time>2015-06-10T09:16:19Z</time>
      </trkpt>
      <trkpt lat="45.68998" lon="3.03307">
        <ele>898.7</ele>
        <time>2015-06-10T09:16:33Z</time>
      </trkpt>
      <trkpt lat="45.68984" lon="3.03272">
        <ele>901.8</ele>
        <time>2015-06-10T09:16:39Z</time>
      </trkpt>
      <trkpt lat="45.69009" lon="3.03145">
        <ele>910.8</ele>
        <time>2015-06-10T09:17:01Z</time>
      </trkpt>
      <trkpt lat="45.69027" lon="3.03106">
        <ele>914.6</ele>
        <time>2015-06-10T09:17:07Z</time>
      </trkpt>
      <trkpt lat="45.68997" lon="3.03025">
        <ele>924.3</ele>
        <time>2015-06-10T09:17:21Z</time>
      </trkpt>
      <trkpt lat="45.68963" lon="3.02991">
        <ele>930.2</ele>
        <time>2015-06-10T09:17:31Z</time>
      </trkpt>
      <trkpt lat="45.68934" lon="3.02981">
        <ele>933.3</ele>
        <time>2015-06-10T09:17:35Z</time>
      </trkpt>
      <trkpt lat="45.68881" lon="3.02943">
        <ele>937.6</ele>
        <time>2015-06-10T09:17:41Z</time>
      </trkpt>
      <trkpt lat="45.68839" lon="3.02859">
        <ele>942.1</ele>
        <time>2015-06-10T09:17:49Z</time>
      </trkpt>
      <trkpt lat="45.68766" lon="3.02736">
        <ele>952.3</ele>
        <time>2015-06-10T09:19:25Z</time>
      </trkpt>
      <trkpt lat="45.68675" lon="3.02658">
        <ele>957</ele>
        <time>2015-06-10T09:19:37Z</time>
      </trkpt>
      <trkpt lat="45.68607" lon="3.02556">
        <ele>960.4</ele>
        <time>2015-06-10T09:19:49Z</time>
      </trkpt>
      <trkpt lat="45.68506" lon="3.02387">
        <ele>964.1</ele>
        <time>2015-06-10T09:20:11Z</time>
      </trkpt>
      <trkpt lat="45.68405" lon="3.02214">
        <ele>965.7</ele>
        <time>2015-06-10T09:20:37Z</time>
      </trkpt>
      <trkpt lat="45.68411" lon="3.02057">
        <ele>970.9</ele>
        <time>2015-06-10T09:20:59Z</time>
      </trkpt>
      <trkpt lat="45.68418" lon="3.01911">
        <ele>976.1</ele>
        <time>2015-06-10T09:21:13Z</time>
      </trkpt>
      <trkpt lat="45.684" lon="3.01819">
        <ele>980.3</ele>
        <time>2015-06-10T09:21:25Z</time>
      </trkpt>
      <trkpt lat="45.68428" lon="3.01646">
        <ele>985.3</ele>
        <time>2015-06-10T09:21:47Z</time>
      </trkpt>
      <trkpt lat="45.68459" lon="3.01458">
        <ele>990.2</ele>
        <time>2015-06-10T09:22:07Z</time>
      </trkpt>
      <trkpt lat="45.68498" lon="3.01241">
        <ele>994.1</ele>
        <time>2015-06-10T09:22:29Z</time>
      </trkpt>
      <trkpt lat="45.68547" lon="3.01069">
        <ele>995.8</ele>
        <time>2015-06-10T09:22:51Z</time>
      </trkpt>
      <trkpt lat="45.68608" lon="3.00996">
        <ele>995.3</ele>
        <time>2015-06-10T09:23:21Z</time>
      </trkpt>
      <trkpt lat="45.68615" lon="3.00883">
        <ele>991.9</ele>
        <time>2015-06-10T09:23:57Z</time>
      </trkpt>
      <trkpt lat="45.68621" lon="3.00824">
        <ele>988.5</ele>
        <time>2015-06-10T09:24:19Z</time>
      </trkpt>
      <trkpt lat="45.6864" lon="3.00737">
        <ele>982.2</ele>
        <time>2015-06-10T09:24:53Z</time>
      </trkpt>
      <trkpt lat="45.6865" lon="3.00719">
        <ele>979.4</ele>
        <time>2015-06-10T09:25:03Z</time>
      </trkpt>
      <trkpt lat="45.68673" lon="3.00671">
        <ele>980.7</ele>
        <time>2015-06-10T09:25:23Z</time>
      </trkpt>
      <trkpt lat="45.68753" lon="3.00618">
        <ele>983.2</ele>
        <time>2015-06-10T09:25:39Z</time>
      </trkpt>
      <trkpt lat="45.68864" lon="3.00557">
        <ele>983</ele>
        <time>2015-06-10T09:26:15Z</time>
      </trkpt>
      <trkpt lat="45.68941" lon="3.00535">
        <ele>978.2</ele>
        <time>2015-06-10T09:26:45Z</time>
      </trkpt>
      <trkpt lat="45.69061" lon="3.00555">
        <ele>971.9</ele>
        <time>2015-06-10T09:27:35Z</time>
      </trkpt>
      <trkpt lat="45.6917" lon="3.00506">
        <ele>965.7</ele>
        <time>2015-06-10T09:28:23Z</time>
      </trkpt>
      <trkpt lat="45.69223" lon="3.00454">
        <ele>966.9</ele>
        <time>2015-06-10T09:28:53Z</time>
      </trkpt>
      <trkpt lat="45.69282" lon="3.00394">
        <ele>962.6</ele>
        <time>2015-06-10T09:29:25Z</time>
      </trkpt>
      <trkpt lat="45.6932" lon="3.00317">
        <ele>956.3</ele>
        <time>2015-06-10T09:30:05Z</time>
      </trkpt>
      <trkpt lat="45.69336" lon="3.00254">
        <ele>949.8</ele>
        <time>2015-06-10T09:30:39Z</time>
      </trkpt>
      <trkpt lat="45.69354" lon="3.0018">
        <ele>944.3</ele>
        <time>2015-06-10T09:31:07Z</time>
      </trkpt>
      <trkpt lat="45.69401" lon="3.00066">
        <ele>936.4</ele>
        <time>2015-06-10T09:31:55Z</time>
      </trkpt>
      <trkpt lat="45.6942" lon="2.99989">
        <ele>930.6</ele>
        <time>2015-06-10T09:32:29Z</time>
      </trkpt>
      <trkpt lat="45.69435" lon="2.99951">
        <ele>927.6</ele>
        <time>2015-06-10T09:32:45Z</time>
      </trkpt>
      <trkpt lat="45.69429" lon="2.99879">
        <ele>921.2</ele>
        <time>2015-06-10T09:33:17Z</time>
      </trkpt>
      <trkpt lat="45.6942" lon="2.99804">
        <ele>915.7</ele>
        <time>2015-06-10T09:33:49Z</time>
      </trkpt>
      <trkpt lat="45.69408" lon="2.99766">
        <ele>912.7</ele>
        <time>2015-06-10T09:34:05Z</time>
      </trkpt>
      <trkpt lat="45.69364" lon="2.99728">
        <ele>906.3</ele>
        <time>2015-06-10T09:34:33Z</time>
      </trkpt>
      <trkpt lat="45.69326" lon="2.99719">
        <ele>902.6</ele>
        <time>2015-06-10T09:34:49Z</time>
      </trkpt>
      <trkpt lat="45.69273" lon="2.99743">
        <ele>898.9</ele>
        <time>2015-06-10T09:35:05Z</time>
      </trkpt>
      <trkpt lat="45.69216" lon="2.99753">
        <ele>892.2</ele>
        <time>2015-06-10T09:35:55Z</time>
      </trkpt>
      <trkpt lat="45.69224" lon="2.99729">
        <ele>891.6</ele>
        <time>2015-06-10T09:35:59Z</time>
      </trkpt>
      <trkpt lat="45.69274" lon="2.99561">
        <ele>893.9</ele>
        <time>2015-06-10T09:36:25Z</time>
      </trkpt>
      <trkpt lat="45.69247" lon="2.99511">
        <ele>899.5</ele>
        <time>2015-06-10T09:36:39Z</time>
      </trkpt>
      <trkpt lat="45.69278" lon="2.99488">
        <ele>904.8</ele>
        <time>2015-06-10T09:36:50Z</time>
      </trkpt>
      <trkpt lat="45.69342" lon="2.99497">
        <ele>909.6</ele>
        <time>2015-06-10T09:37:10Z</time>
      </trkpt>
      <trkpt lat="45.69379" lon="2.99522">
        <ele>909.8</ele>
        <time>2015-06-10T09:37:21Z</time>
      </trkpt>
      <trkpt lat="45.69425" lon="2.99503">
        <ele>910.5</ele>
        <time>2015-06-10T09:37:58Z</time>
      </trkpt>
      <trkpt lat="45.69454" lon="2.99392">
        <ele>913.7</ele>
        <time>2015-06-10T09:38:14Z</time>
      </trkpt>
      <trkpt lat="45.69511" lon="2.99301">
        <ele>919</ele>
        <time>2015-06-10T09:38:32Z</time>
      </trkpt>
      <trkpt lat="45.6953" lon="2.99217">
        <ele>922.2</ele>
        <time>2015-06-10T09:38:44Z</time>
      </trkpt>
      <trkpt lat="45.69547" lon="2.99132">
        <ele>925</ele>
        <time>2015-06-10T09:38:56Z</time>
      </trkpt>
      <trkpt lat="45.69552" lon="2.99005">
        <ele>926.2</ele>
        <time>2015-06-10T09:39:18Z</time>
      </trkpt>
      <trkpt lat="45.69538" lon="2.98921">
        <ele>926.2</ele>
        <time>2015-06-10T09:39:34Z</time>
      </trkpt>
      <trkpt lat="45.69571" lon="2.9884">
        <ele>928.5</ele>
        <time>2015-06-10T09:39:46Z</time>
      </trkpt>
      <trkpt lat="45.69595" lon="2.98722">
        <ele>929.7</ele>
        <time>2015-06-10T09:40:04Z</time>
      </trkpt>
      <trkpt lat="45.69617" lon="2.98629">
        <ele>930.6</ele>
        <time>2015-06-10T09:40:18Z</time>
      </trkpt>
      <trkpt lat="45.6964" lon="2.985">
        <ele>935.7</ele>
        <time>2015-06-10T09:40:32Z</time>
      </trkpt>
      <trkpt lat="45.69663" lon="2.98363">
        <ele>940.5</ele>
        <time>2015-06-10T09:40:52Z</time>
      </trkpt>
      <trkpt lat="45.69698" lon="2.98143">
        <ele>940</ele>
        <time>2015-06-10T09:41:34Z</time>
      </trkpt>
      <trkpt lat="45.69726" lon="2.97996">
        <ele>941.3</ele>
        <time>2015-06-10T09:42:08Z</time>
      </trkpt>
      <trkpt lat="45.69777" lon="2.97841">
        <ele>944.1</ele>
        <time>2015-06-10T09:42:28Z</time>
      </trkpt>
      <trkpt lat="45.6982" lon="2.97747">
        <ele>945.8</ele>
        <time>2015-06-10T09:42:38Z</time>
      </trkpt>
      <trkpt lat="45.69869" lon="2.97611">
        <ele>950.1</ele>
        <time>2015-06-10T09:42:58Z</time>
      </trkpt>
      <trkpt lat="45.69876" lon="2.97549">
        <ele>953.1</ele>
        <time>2015-06-10T09:43:10Z</time>
      </trkpt>
      <trkpt lat="45.69895" lon="2.97448">
        <ele>957.8</ele>
        <time>2015-06-10T09:43:26Z</time>
      </trkpt>
      <trkpt lat="45.69907" lon="2.97405">
        <ele>960.9</ele>
        <time>2015-06-10T09:43:34Z</time>
      </trkpt>
      <trkpt lat="45.69925" lon="2.97369">
        <ele>963.9</ele>
        <time>2015-06-10T09:43:40Z</time>
      </trkpt>
      <trkpt lat="45.69957" lon="2.97292">
        <ele>968.7</ele>
        <time>2015-06-10T09:43:52Z</time>
      </trkpt>
      <trkpt lat="45.6998" lon="2.97201">
        <ele>973.8</ele>
        <time>2015-06-10T09:44:06Z</time>
      </trkpt>
      <trkpt lat="45.70029" lon="2.97039">
        <ele>973.2</ele>
        <time>2015-06-10T09:44:44Z</time>
      </trkpt>
      <trkpt lat="45.70076" lon="2.96957">
        <ele>971.6</ele>
        <time>2015-06-10T09:45:00Z</time>
      </trkpt>
      <trkpt lat="45.70109" lon="2.96867">
        <ele>970.8</ele>
        <time>2015-06-10T09:45:18Z</time>
      </trkpt>
      <trkpt lat="45.70119" lon="2.96837">
        <ele>971.2</ele>
        <time>2015-06-10T09:45:24Z</time>
      </trkpt>
      <trkpt lat="45.70148" lon="2.96732">
        <ele>973.2</ele>
        <time>2015-06-10T09:45:44Z</time>
      </trkpt>
      <trkpt lat="45.70179" lon="2.96744">
        <ele>974.5</ele>
        <time>2015-06-10T09:45:54Z</time>
      </trkpt>
      <trkpt lat="45.70292" lon="2.96821">
        <ele>979.1</ele>
        <time>2015-06-10T09:46:24Z</time>
      </trkpt>
      <trkpt lat="45.70419" lon="2.96887">
        <ele>975.1</ele>
        <time>2015-06-10T09:47:10Z</time>
      </trkpt>
      <trkpt lat="45.70477" lon="2.96937">
        <ele>969.4</ele>
        <time>2015-06-10T09:47:38Z</time>
      </trkpt>
      <trkpt lat="45.70536" lon="2.96996">
        <ele>964.8</ele>
        <time>2015-06-10T09:48:08Z</time>
      </trkpt>
      <trkpt lat="45.70609" lon="2.97057">
        <ele>959.8</ele>
        <time>2015-06-10T09:48:38Z</time>
      </trkpt>
      <trkpt lat="45.70661" lon="2.97074">
        <ele>957.3</ele>
        <time>2015-06-10T09:49:24Z</time>
      </trkpt>
      <trkpt lat="45.70743" lon="2.97075">
        <ele>955.4</ele>
        <time>2015-06-10T09:49:46Z</time>
      </trkpt>
      <trkpt lat="45.70868" lon="2.97179">
        <ele>956.9</ele>
        <time>2015-06-10T09:50:08Z</time>
      </trkpt>
      <trkpt lat="45.70939" lon="2.97218">
        <ele>954.3</ele>
        <time>2015-06-10T09:50:26Z</time>
      </trkpt>
      <trkpt lat="45.71074" lon="2.9723">
        <ele>955</ele>
        <time>2015-06-10T09:51:00Z</time>
      </trkpt>
      <trkpt lat="45.7118" lon="2.97214">
        <ele>955</ele>
        <time>2015-06-10T09:51:24Z</time>
      </trkpt>
      <trkpt lat="45.71232" lon="2.97181">
        <ele>955.4</ele>
        <time>2015-06-10T09:51:36Z</time>
      </trkpt>
      <trkpt lat="45.71334" lon="2.97132">
        <ele>956.3</ele>
        <time>2015-06-10T09:52:04Z</time>
      </trkpt>
      <trkpt lat="45.71427" lon="2.97132">
        <ele>950.4</ele>
        <time>2015-06-10T09:52:40Z</time>
      </trkpt>
      <trkpt lat="45.71489" lon="2.97119">
        <ele>945.8</ele>
        <time>2015-06-10T09:53:04Z</time>
      </trkpt>
      <trkpt lat="45.71557" lon="2.97109">
        <ele>939.8</ele>
        <time>2015-06-10T09:53:32Z</time>
      </trkpt>
      <trkpt lat="45.7158" lon="2.97045">
        <ele>937.4</ele>
        <time>2015-06-10T09:54:20Z</time>
      </trkpt>
      <trkpt lat="45.7163" lon="2.97012">
        <ele>937.1</ele>
        <time>2015-06-10T09:54:32Z</time>
      </trkpt>
      <trkpt lat="45.71799" lon="2.97021">
        <ele>939.1</ele>
        <time>2015-06-10T09:54:58Z</time>
      </trkpt>
      <trkpt lat="45.71991" lon="2.97077">
        <ele>944.9</ele>
        <time>2015-06-10T09:55:26Z</time>
      </trkpt>
      <trkpt lat="45.72169" lon="2.97131">
        <ele>950.6</ele>
        <time>2015-06-10T09:55:52Z</time>
      </trkpt>
      <trkpt lat="45.72322" lon="2.97175">
        <ele>956.7</ele>
        <time>2015-06-10T09:56:14Z</time>
      </trkpt>
      <trkpt lat="45.72437" lon="2.97217">
        <ele>958.5</ele>
        <time>2015-06-10T09:56:32Z</time>
      </trkpt>
      <trkpt lat="45.72614" lon="2.97174">
        <ele>962.7</ele>
        <time>2015-06-10T09:57:00Z</time>
      </trkpt>
      <trkpt lat="45.72694" lon="2.97153">
        <ele>964.3</ele>
        <time>2015-06-10T09:57:12Z</time>
      </trkpt>
      <trkpt lat="45.72748" lon="2.97124">
        <ele>965.9</ele>
        <time>2015-06-10T09:57:20Z</time>
      </trkpt>
      <trkpt lat="45.72773" lon="2.97106">
        <ele>966.1</ele>
        <time>2015-06-10T09:57:24Z</time>
      </trkpt>
      <trkpt lat="45.72931" lon="2.97089">
        <ele>967.8</ele>
        <time>2015-06-10T09:57:50Z</time>
      </trkpt>
      <trkpt lat="45.72986" lon="2.97051">
        <ele>967.5</ele>
        <time>2015-06-10T09:58:02Z</time>
      </trkpt>
      <trkpt lat="45.73092" lon="2.97049">
        <ele>968.3</ele>
        <time>2015-06-10T09:58:24Z</time>
      </trkpt>
      <trkpt lat="45.73214" lon="2.9707">
        <ele>970.8</ele>
        <time>2015-06-10T09:59:02Z</time>
      </trkpt>
      <trkpt lat="45.73115" lon="2.96867">
        <ele>974.2</ele>
        <time>2015-06-10T09:59:32Z</time>
      </trkpt>
      <trkpt lat="45.73098" lon="2.96753">
        <ele>977.5</ele>
        <time>2015-06-10T09:59:46Z</time>
      </trkpt>
      <trkpt lat="45.73114" lon="2.96615">
        <ele>981.5</ele>
        <time>2015-06-10T10:00:00Z</time>
      </trkpt>
      <trkpt lat="45.73116" lon="2.96527">
        <ele>986.9</ele>
        <time>2015-06-10T10:00:08Z</time>
      </trkpt>
      <trkpt lat="45.73119" lon="2.96421">
        <ele>992.5</ele>
        <time>2015-06-10T10:00:18Z</time>
      </trkpt>
      <trkpt lat="45.73126" lon="2.96302">
        <ele>997.2</ele>
        <time>2015-06-10T10:00:32Z</time>
      </trkpt>
      <trkpt lat="45.73126" lon="2.96188">
        <ele>1000.6</ele>
        <time>2015-06-10T10:00:48Z</time>
      </trkpt>
      <trkpt lat="45.73125" lon="2.96156">
        <ele>1002.4</ele>
        <time>2015-06-10T10:01:28Z</time>
      </trkpt>
      <trkpt lat="45.7308" lon="2.96136">
        <ele>1007.7</ele>
        <time>2015-06-10T10:01:42Z</time>
      </trkpt>
      <trkpt lat="45.73044" lon="2.96105">
        <ele>1011</ele>
        <time>2015-06-10T10:01:50Z</time>
      </trkpt>
      <trkpt lat="45.7299" lon="2.96039">
        <ele>1016.9</ele>
        <time>2015-06-10T10:02:04Z</time>
      </trkpt>
      <trkpt lat="45.72958" lon="2.95968">
        <ele>1022.4</ele>
        <time>2015-06-10T10:02:18Z</time>
      </trkpt>
      <trkpt lat="45.72932" lon="2.95941">
        <ele>1027.4</ele>
        <time>2015-06-10T10:02:28Z</time>
      </trkpt>
      <trkpt lat="45.72893" lon="2.95901">
        <ele>1033.5</ele>
        <time>2015-06-10T10:02:38Z</time>
      </trkpt>
      <trkpt lat="45.72836" lon="2.95828">
        <ele>1039.2</ele>
        <time>2015-06-10T10:02:52Z</time>
      </trkpt>
      <trkpt lat="45.72806" lon="2.95773">
        <ele>1042.5</ele>
        <time>2015-06-10T10:03:00Z</time>
      </trkpt>
      <trkpt lat="45.72753" lon="2.95711">
        <ele>1046.1</ele>
        <time>2015-06-10T10:03:10Z</time>
      </trkpt>
      <trkpt lat="45.72607" lon="2.95621">
        <ele>1050.3</ele>
        <time>2015-06-10T10:03:46Z</time>
      </trkpt>
      <trkpt lat="45.72529" lon="2.95585">
        <ele>1055.8</ele>
        <time>2015-06-10T10:04:00Z</time>
      </trkpt>
      <trkpt lat="45.72505" lon="2.95569">
        <ele>1057.4</ele>
        <time>2015-06-10T10:04:04Z</time>
      </trkpt>
      <trkpt lat="45.72465" lon="2.95523">
        <ele>1060.6</ele>
        <time>2015-06-10T10:04:12Z</time>
      </trkpt>
      <trkpt lat="45.72423" lon="2.95477">
        <ele>1063.9</ele>
        <time>2015-06-10T10:04:20Z</time>
      </trkpt>
      <trkpt lat="45.72354" lon="2.95383">
        <ele>1069.2</ele>
        <time>2015-06-10T10:04:34Z</time>
      </trkpt>
      <trkpt lat="45.72329" lon="2.95348">
        <ele>1072.5</ele>
        <time>2015-06-10T10:04:42Z</time>
      </trkpt>
      <trkpt lat="45.72296" lon="2.95317">
        <ele>1076.5</ele>
        <time>2015-06-10T10:04:50Z</time>
      </trkpt>
      <trkpt lat="45.72218" lon="2.95241">
        <ele>1080</ele>
        <time>2015-06-10T10:05:08Z</time>
      </trkpt>
      <trkpt lat="45.72079" lon="2.95145">
        <ele>1073.3</ele>
        <time>2015-06-10T10:06:12Z</time>
      </trkpt>
      <trkpt lat="45.72048" lon="2.95127">
        <ele>1069.6</ele>
        <time>2015-06-10T10:06:32Z</time>
      </trkpt>
      <trkpt lat="45.72006" lon="2.95108">
        <ele>1066.2</ele>
        <time>2015-06-10T10:06:50Z</time>
      </trkpt>
      <trkpt lat="45.71917" lon="2.95057">
        <ele>1060.1</ele>
        <time>2015-06-10T10:07:20Z</time>
      </trkpt>
      <trkpt lat="45.71827" lon="2.94963">
        <ele>1057.6</ele>
        <time>2015-06-10T10:07:46Z</time>
      </trkpt>
      <trkpt lat="45.71717" lon="2.94919">
        <ele>1057.5</ele>
        <time>2015-06-10T10:08:18Z</time>
      </trkpt>
      <trkpt lat="45.71672" lon="2.94891">
        <ele>1058.3</ele>
        <time>2015-06-10T10:08:34Z</time>
      </trkpt>
      <trkpt lat="45.71617" lon="2.94859">
        <ele>1054.1</ele>
        <time>2015-06-10T10:09:06Z</time>
      </trkpt>
      <trkpt lat="45.71559" lon="2.94838">
        <ele>1047.9</ele>
        <time>2015-06-10T10:09:42Z</time>
      </trkpt>
      <trkpt lat="45.71497" lon="2.94816">
        <ele>1043.3</ele>
        <time>2015-06-10T10:10:14Z</time>
      </trkpt>
      <trkpt lat="45.71428" lon="2.94785">
        <ele>1036.4</ele>
        <time>2015-06-10T10:10:44Z</time>
      </trkpt>
      <trkpt lat="45.71354" lon="2.94718">
        <ele>1033.8</ele>
        <time>2015-06-10T10:11:08Z</time>
      </trkpt>
      <trkpt lat="45.7131" lon="2.94696">
        <ele>1034</ele>
        <time>2015-06-10T10:11:18Z</time>
      </trkpt>
      <trkpt lat="45.71191" lon="2.9458">
        <ele>1035</ele>
        <time>2015-06-10T10:11:50Z</time>
      </trkpt>
      <trkpt lat="45.71152" lon="2.94512">
        <ele>1036.8</ele>
        <time>2015-06-10T10:12:04Z</time>
      </trkpt>
      <trkpt lat="45.71065" lon="2.94339">
        <ele>1032.5</ele>
        <time>2015-06-10T10:12:42Z</time>
      </trkpt>
      <trkpt lat="45.71027" lon="2.94264">
        <ele>1030.8</ele>
        <time>2015-06-10T10:12:56Z</time>
      </trkpt>
      <trkpt lat="45.70973" lon="2.94209">
        <ele>1031.8</ele>
        <time>2015-06-10T10:13:08Z</time>
      </trkpt>
      <trkpt lat="45.70817" lon="2.9402">
        <ele>1033.5</ele>
        <time>2015-06-10T10:13:44Z</time>
      </trkpt>
      <trkpt lat="45.7067" lon="2.93844">
        <ele>1034.6</ele>
        <time>2015-06-10T10:14:16Z</time>
      </trkpt>
      <trkpt lat="45.70552" lon="2.9382">
        <ele>1032</ele>
        <time>2015-06-10T10:14:48Z</time>
      </trkpt>
      <trkpt lat="45.70475" lon="2.93832">
        <ele>1032</ele>
        <time>2015-06-10T10:15:10Z</time>
      </trkpt>
      <trkpt lat="45.70387" lon="2.93827">
        <ele>1027.5</ele>
        <time>2015-06-10T10:15:42Z</time>
      </trkpt>
      <trkpt lat="45.70285" lon="2.93846">
        <ele>1024</ele>
        <time>2015-06-10T10:16:18Z</time>
      </trkpt>
      <trkpt lat="45.70218" lon="2.93903">
        <ele>1019.5</ele>
        <time>2015-06-10T10:16:44Z</time>
      </trkpt>
      <trkpt lat="45.70176" lon="2.93961">
        <ele>1016</ele>
        <time>2015-06-10T10:17:02Z</time>
      </trkpt>
      <trkpt lat="45.70095" lon="2.94039">
        <ele>1015</ele>
        <time>2015-06-10T10:17:26Z</time>
      </trkpt>
      <trkpt lat="45.69961" lon="2.94105">
        <ele>1012</ele>
        <time>2015-06-10T10:18:06Z</time>
      </trkpt>
      <trkpt lat="45.69915" lon="2.9411">
        <ele>1010.5</ele>
        <time>2015-06-10T10:18:26Z</time>
      </trkpt>
      <trkpt lat="45.69851" lon="2.94116">
        <ele>1004.8</ele>
        <time>2015-06-10T10:19:00Z</time>
      </trkpt>
      <trkpt lat="45.69803" lon="2.94125">
        <ele>998.2</ele>
        <time>2015-06-10T10:19:28Z</time>
      </trkpt>
      <trkpt lat="45.69725" lon="2.94143">
        <ele>993.3</ele>
        <time>2015-06-10T10:19:58Z</time>
      </trkpt>
      <trkpt lat="45.69635" lon="2.94133">
        <ele>992.3</ele>
        <time>2015-06-10T10:20:22Z</time>
      </trkpt>
      <trkpt lat="45.69518" lon="2.94121">
        <ele>989.9</ele>
        <time>2015-06-10T10:20:54Z</time>
      </trkpt>
      <trkpt lat="45.69264" lon="2.94062">
        <ele>983.7</ele>
        <time>2015-06-10T10:22:20Z</time>
      </trkpt>
      <trkpt lat="45.69185" lon="2.94052">
        <ele>977.1</ele>
        <time>2015-06-10T10:22:58Z</time>
      </trkpt>
      <trkpt lat="45.6914" lon="2.94031">
        <ele>971.1</ele>
        <time>2015-06-10T10:23:26Z</time>
      </trkpt>
      <trkpt lat="45.68932" lon="2.93972">
        <ele>967.8</ele>
        <time>2015-06-10T10:24:22Z</time>
      </trkpt>
      <trkpt lat="45.68837" lon="2.93932">
        <ele>965.9</ele>
        <time>2015-06-10T10:24:48Z</time>
      </trkpt>
      <trkpt lat="45.68734" lon="2.93902">
        <ele>963.3</ele>
        <time>2015-06-10T10:25:12Z</time>
      </trkpt>
      <trkpt lat="45.68593" lon="2.93868">
        <ele>957.4</ele>
        <time>2015-06-10T10:25:48Z</time>
      </trkpt>
      <trkpt lat="45.6858" lon="2.93913">
        <ele>957.2</ele>
        <time>2015-06-10T10:25:57Z</time>
      </trkpt>
      <trkpt lat="45.68571" lon="2.93904">
        <ele>956.7</ele>
        <time>2015-06-10T10:26:12Z</time>
      </trkpt>
      <trkpt lat="45.6849" lon="2.93871">
        <ele>962.3</ele>
        <time>2015-06-10T10:26:36Z</time>
      </trkpt>
      <trkpt lat="45.68449" lon="2.93871">
        <ele>965.4</ele>
        <time>2015-06-10T10:26:42Z</time>
      </trkpt>
      <trkpt lat="45.68391" lon="2.93828">
        <ele>968.6</ele>
        <time>2015-06-10T10:26:50Z</time>
      </trkpt>
      <trkpt lat="45.68306" lon="2.93727">
        <ele>971.7</ele>
        <time>2015-06-10T10:27:04Z</time>
      </trkpt>
      <trkpt lat="45.68164" lon="2.93666">
        <ele>976.7</ele>
        <time>2015-06-10T10:27:26Z</time>
      </trkpt>
      <trkpt lat="45.6806" lon="2.93638">
        <ele>980.1</ele>
        <time>2015-06-10T10:27:42Z</time>
      </trkpt>
      <trkpt lat="45.67953" lon="2.93576">
        <ele>983.1</ele>
        <time>2015-06-10T10:28:04Z</time>
      </trkpt>
      <trkpt lat="45.6794" lon="2.93594">
        <ele>983.4</ele>
        <time>2015-06-10T10:28:10Z</time>
      </trkpt>
      <trkpt lat="45.67871" lon="2.9376">
        <ele>983.8</ele>
        <time>2015-06-10T10:28:38Z</time>
      </trkpt>
      <trkpt lat="45.6781" lon="2.93967">
        <ele>981.3</ele>
        <time>2015-06-10T10:29:16Z</time>
      </trkpt>
      <trkpt lat="45.67791" lon="2.94068">
        <ele>978.7</ele>
        <time>2015-06-10T10:29:34Z</time>
      </trkpt>
      <trkpt lat="45.67764" lon="2.94224">
        <ele>975.7</ele>
        <time>2015-06-10T10:30:02Z</time>
      </trkpt>
      <trkpt lat="45.67711" lon="2.94405">
        <ele>974.6</ele>
        <time>2015-06-10T10:30:36Z</time>
      </trkpt>
      <trkpt lat="45.67676" lon="2.94511">
        <ele>975.4</ele>
        <time>2015-06-10T10:30:50Z</time>
      </trkpt>
      <trkpt lat="45.67596" lon="2.94665">
        <ele>970.6</ele>
        <time>2015-06-10T10:31:20Z</time>
      </trkpt>
      <trkpt lat="45.67471" lon="2.94924">
        <ele>966.5</ele>
        <time>2015-06-10T10:32:02Z</time>
      </trkpt>
      <trkpt lat="45.67434" lon="2.95029">
        <ele>966.6</ele>
        <time>2015-06-10T10:32:16Z</time>
      </trkpt>
      <trkpt lat="45.67334" lon="2.95272">
        <ele>968.5</ele>
        <time>2015-06-10T10:32:54Z</time>
      </trkpt>
      <trkpt lat="45.67236" lon="2.95506">
        <ele>968.8</ele>
        <time>2015-06-10T10:33:36Z</time>
      </trkpt>
      <trkpt lat="45.67186" lon="2.956">
        <ele>966.7</ele>
        <time>2015-06-10T10:33:58Z</time>
      </trkpt>
      <trkpt lat="45.67118" lon="2.95716">
        <ele>961</ele>
        <time>2015-06-10T10:34:32Z</time>
      </trkpt>
      <trkpt lat="45.67043" lon="2.9591">
        <ele>956.5</ele>
        <time>2015-06-10T10:35:16Z</time>
      </trkpt>
      <trkpt lat="45.66964" lon="2.96062">
        <ele>950.6</ele>
        <time>2015-06-10T10:35:52Z</time>
      </trkpt>
      <trkpt lat="45.66923" lon="2.96131">
        <ele>947.3</ele>
        <time>2015-06-10T10:36:10Z</time>
      </trkpt>
      <trkpt lat="45.66899" lon="2.96183">
        <ele>947</ele>
        <time>2015-06-10T10:36:22Z</time>
      </trkpt>
      <trkpt lat="45.66962" lon="2.96225">
        <ele>953.3</ele>
        <time>2015-06-10T10:36:36Z</time>
      </trkpt>
      <trkpt lat="45.67004" lon="2.96245">
        <ele>957.3</ele>
        <time>2015-06-10T10:36:44Z</time>
      </trkpt>
      <trkpt lat="45.6702" lon="2.96329">
        <ele>958</ele>
        <time>2015-06-10T10:37:08Z</time>
      </trkpt>
      <trkpt lat="45.67025" lon="2.96443">
        <ele>952.8</ele>
        <time>2015-06-10T10:37:46Z</time>
      </trkpt>
      <trkpt lat="45.67045" lon="2.96519">
        <ele>947.2</ele>
        <time>2015-06-10T10:38:12Z</time>
      </trkpt>
      <trkpt lat="45.67057" lon="2.96564">
        <ele>944.2</ele>
        <time>2015-06-10T10:38:26Z</time>
      </trkpt>
      <trkpt lat="45.67073" lon="2.96677">
        <ele>938</ele>
        <time>2015-06-10T10:39:00Z</time>
      </trkpt>
      <trkpt lat="45.67068" lon="2.96783">
        <ele>934.4</ele>
        <time>2015-06-10T10:39:24Z</time>
      </trkpt>
      <trkpt lat="45.6711" lon="2.96793">
        <ele>933</ele>
        <time>2015-06-10T10:39:36Z</time>
      </trkpt>
      <trkpt lat="45.67284" lon="2.96762">
        <ele>934.3</ele>
        <time>2015-06-10T10:40:10Z</time>
      </trkpt>
      <trkpt lat="45.67428" lon="2.96753">
        <ele>934.5</ele>
        <time>2015-06-10T10:40:48Z</time>
      </trkpt>
      <trkpt lat="45.67482" lon="2.96859">
        <ele>930.8</ele>
        <time>2015-06-10T10:41:22Z</time>
      </trkpt>
      <trkpt lat="45.67526" lon="2.96964">
        <ele>924.2</ele>
        <time>2015-06-10T10:41:56Z</time>
      </trkpt>
      <trkpt lat="45.67529" lon="2.9697">
        <ele>923.9</ele>
        <time>2015-06-10T10:41:58Z</time>
      </trkpt>
      <trkpt lat="45.67576" lon="2.9707">
        <ele>918.1</ele>
        <time>2015-06-10T10:42:40Z</time>
      </trkpt>
      <trkpt lat="45.67619" lon="2.97127">
        <ele>910.8</ele>
        <time>2015-06-10T10:43:10Z</time>
      </trkpt>
      <trkpt lat="45.67709" lon="2.9719">
        <ele>906.5</ele>
        <time>2015-06-10T10:43:42Z</time>
      </trkpt>
      <trkpt lat="45.67856" lon="2.97446">
        <ele>902.9</ele>
        <time>2015-06-10T10:44:38Z</time>
      </trkpt>
      <trkpt lat="45.679" lon="2.97523">
        <ele>902.9</ele>
        <time>2015-06-10T10:44:54Z</time>
      </trkpt>
      <trkpt lat="45.68008" lon="2.97632">
        <ele>898.6</ele>
        <time>2015-06-10T10:45:28Z</time>
      </trkpt>
      <trkpt lat="45.68061" lon="2.97698">
        <ele>895.5</ele>
        <time>2015-06-10T10:45:46Z</time>
      </trkpt>
      <trkpt lat="45.68129" lon="2.97873">
        <ele>892.8</ele>
        <time>2015-06-10T10:46:20Z</time>
      </trkpt>
      <trkpt lat="45.68193" lon="2.97925">
        <ele>894.5</ele>
        <time>2015-06-10T10:46:48Z</time>
      </trkpt>
      <trkpt lat="45.68323" lon="2.97943">
        <ele>899.7</ele>
        <time>2015-06-10T10:47:20Z</time>
      </trkpt>
      <trkpt lat="45.68393" lon="2.97962">
        <ele>901.4</ele>
        <time>2015-06-10T10:47:40Z</time>
      </trkpt>
      <trkpt lat="45.68457" lon="2.97976">
        <ele>906.9</ele>
        <time>2015-06-10T10:47:58Z</time>
      </trkpt>
      <trkpt lat="45.68493" lon="2.9799">
        <ele>906.5</ele>
        <time>2015-06-10T10:48:10Z</time>
      </trkpt>
      <trkpt lat="45.68589" lon="2.98076">
        <ele>904.4</ele>
        <time>2015-06-10T10:48:50Z</time>
      </trkpt>
      <trkpt lat="45.68615" lon="2.98153">
        <ele>902.1</ele>
        <time>2015-06-10T10:49:08Z</time>
      </trkpt>
      <trkpt lat="45.68652" lon="2.98228">
        <ele>899.9</ele>
        <time>2015-06-10T10:49:26Z</time>
      </trkpt>
      <trkpt lat="45.68667" lon="2.98258">
        <ele>899.5</ele>
        <time>2015-06-10T10:49:34Z</time>
      </trkpt>
      <trkpt lat="45.687" lon="2.98423">
        <ele>897.2</ele>
        <time>2015-06-10T10:51:58Z</time>
      </trkpt>
      <trkpt lat="45.68718" lon="2.98449">
        <ele>897.3</ele>
        <time>2015-06-10T10:52:26Z</time>
      </trkpt>
      <trkpt lat="45.68792" lon="2.98565">
        <ele>897</ele>
        <time>2015-06-10T10:53:35Z</time>
      </trkpt>
      <trkpt lat="45.68878" lon="2.98652">
        <ele>905.3</ele>
        <time>2015-06-10T10:53:54Z</time>
      </trkpt>
      <trkpt lat="45.68945" lon="2.98684">
        <ele>905.5</ele>
        <time>2015-06-10T10:54:18Z</time>
      </trkpt>
      <trkpt lat="45.68943" lon="2.98717">
        <ele>905.3</ele>
        <time>2015-06-10T10:54:42Z</time>
      </trkpt>
      <trkpt lat="45.68972" lon="2.98711">
        <ele>906.4</ele>
        <time>2015-06-10T10:54:58Z</time>
      </trkpt>
      <trkpt lat="45.69014" lon="2.9877">
        <ele>906.1</ele>
        <time>2015-06-10T10:55:12Z</time>
      </trkpt>
      <trkpt lat="45.6908" lon="2.9898">
        <ele>901.9</ele>
        <time>2015-06-10T10:55:52Z</time>
      </trkpt>
      <trkpt lat="45.69127" lon="2.99126">
        <ele>898.1</ele>
        <time>2015-06-10T10:56:18Z</time>
      </trkpt>
      <trkpt lat="45.69162" lon="2.99236">
        <ele>895.4</ele>
        <time>2015-06-10T10:56:38Z</time>
      </trkpt>
      <trkpt lat="45.69172" lon="2.99359">
        <ele>891.7</ele>
        <time>2015-06-10T10:57:00Z</time>
      </trkpt>
      <trkpt lat="45.69196" lon="2.99443">
        <ele>890.7</ele>
        <time>2015-06-10T10:57:16Z</time>
      </trkpt>
      <trkpt lat="45.69277" lon="2.99481">
        <ele>897.5</ele>
        <time>2015-06-10T10:57:43Z</time>
      </trkpt>
      <trkpt lat="45.69317" lon="2.99506">
        <ele>900.8</ele>
        <time>2015-06-10T10:57:53Z</time>
      </trkpt>
      <trkpt lat="45.694" lon="2.99554">
        <ele>902.9</ele>
        <time>2015-06-10T10:58:32Z</time>
      </trkpt>
      <trkpt lat="45.69458" lon="2.99559">
        <ele>896.2</ele>
        <time>2015-06-10T10:59:19Z</time>
      </trkpt>
      <trkpt lat="45.69446" lon="2.99638">
        <ele>897.1</ele>
        <time>2015-06-10T10:59:41Z</time>
      </trkpt>
      <trkpt lat="45.69352" lon="2.99722">
        <ele>904</ele>
        <time>2015-06-10T11:01:00Z</time>
      </trkpt>
      <trkpt lat="45.69371" lon="2.99745">
        <ele>907.3</ele>
        <time>2015-06-10T11:01:08Z</time>
      </trkpt>
      <trkpt lat="45.69408" lon="2.99804">
        <ele>912.4</ele>
        <time>2015-06-10T11:01:20Z</time>
      </trkpt>
      <trkpt lat="45.69412" lon="2.99861">
        <ele>917.5</ele>
        <time>2015-06-10T11:01:28Z</time>
      </trkpt>
      <trkpt lat="45.69432" lon="2.99947">
        <ele>923.7</ele>
        <time>2015-06-10T11:01:40Z</time>
      </trkpt>
      <trkpt lat="45.69416" lon="3">
        <ele>928.6</ele>
        <time>2015-06-10T11:01:48Z</time>
      </trkpt>
      <trkpt lat="45.69381" lon="3.00067">
        <ele>935.6</ele>
        <time>2015-06-10T11:02:00Z</time>
      </trkpt>
      <trkpt lat="45.6935" lon="3.00148">
        <ele>943</ele>
        <time>2015-06-10T11:02:10Z</time>
      </trkpt>
      <trkpt lat="45.69337" lon="3.00232">
        <ele>949.1</ele>
        <time>2015-06-10T11:02:18Z</time>
      </trkpt>
      <trkpt lat="45.69327" lon="3.00289">
        <ele>952.7</ele>
        <time>2015-06-10T11:02:24Z</time>
      </trkpt>
      <trkpt lat="45.69301" lon="3.0036">
        <ele>957</ele>
        <time>2015-06-10T11:02:34Z</time>
      </trkpt>
      <trkpt lat="45.69224" lon="3.00465">
        <ele>959.7</ele>
        <time>2015-06-10T11:02:54Z</time>
      </trkpt>
      <trkpt lat="45.69138" lon="3.00531">
        <ele>958.5</ele>
        <time>2015-06-10T11:03:18Z</time>
      </trkpt>
      <trkpt lat="45.69062" lon="3.00569">
        <ele>965.8</ele>
        <time>2015-06-10T11:03:38Z</time>
      </trkpt>
      <trkpt lat="45.69018" lon="3.00571">
        <ele>969.2</ele>
        <time>2015-06-10T11:03:48Z</time>
      </trkpt>
      <trkpt lat="45.68973" lon="3.00556">
        <ele>972.8</ele>
        <time>2015-06-10T11:03:58Z</time>
      </trkpt>
      <trkpt lat="45.68886" lon="3.00564">
        <ele>975.9</ele>
        <time>2015-06-10T11:04:16Z</time>
      </trkpt>
      <trkpt lat="45.68807" lon="3.00609">
        <ele>975.1</ele>
        <time>2015-06-10T11:04:36Z</time>
      </trkpt>
      <trkpt lat="45.6874" lon="3.00639">
        <ele>972</ele>
        <time>2015-06-10T11:04:56Z</time>
      </trkpt>
      <trkpt lat="45.68657" lon="3.00683">
        <ele>968.6</ele>
        <time>2015-06-10T11:05:20Z</time>
      </trkpt>
      <trkpt lat="45.6864" lon="3.00705">
        <ele>974.4</ele>
        <time>2015-06-10T11:05:49Z</time>
      </trkpt>
      <trkpt lat="45.68634" lon="3.00787">
        <ele>982.7</ele>
        <time>2015-06-10T11:06:11Z</time>
      </trkpt>
      <trkpt lat="45.6862" lon="3.00848">
        <ele>986.1</ele>
        <time>2015-06-10T11:06:21Z</time>
      </trkpt>
      <trkpt lat="45.68602" lon="3.01009">
        <ele>987.9</ele>
        <time>2015-06-10T11:06:45Z</time>
      </trkpt>
      <trkpt lat="45.68549" lon="3.01048">
        <ele>987.6</ele>
        <time>2015-06-10T11:07:05Z</time>
      </trkpt>
      <trkpt lat="45.68514" lon="3.0118">
        <ele>985.3</ele>
        <time>2015-06-10T11:07:31Z</time>
      </trkpt>
      <trkpt lat="45.68481" lon="3.01329">
        <ele>982.1</ele>
        <time>2015-06-10T11:08:13Z</time>
      </trkpt>
      <trkpt lat="45.68451" lon="3.01506">
        <ele>976</ele>
        <time>2015-06-10T11:08:53Z</time>
      </trkpt>
      <trkpt lat="45.68441" lon="3.01585">
        <ele>973</ele>
        <time>2015-06-10T11:09:11Z</time>
      </trkpt>
      <trkpt lat="45.68404" lon="3.01788">
        <ele>967.7</ele>
        <time>2015-06-10T11:09:53Z</time>
      </trkpt>
      <trkpt lat="45.68416" lon="3.01915">
        <ele>961.7</ele>
        <time>2015-06-10T11:10:25Z</time>
      </trkpt>
      <trkpt lat="45.68386" lon="3.02002">
        <ele>959.1</ele>
        <time>2015-06-10T11:10:53Z</time>
      </trkpt>
      <trkpt lat="45.68327" lon="3.01992">
        <ele>957.5</ele>
        <time>2015-06-10T11:11:11Z</time>
      </trkpt>
      <trkpt lat="45.68268" lon="3.01982">
        <ele>954.4</ele>
        <time>2015-06-10T11:11:33Z</time>
      </trkpt>
      <trkpt lat="45.68213" lon="3.02002">
        <ele>949.6</ele>
        <time>2015-06-10T11:11:57Z</time>
      </trkpt>
      <trkpt lat="45.68219" lon="3.0207">
        <ele>950.6</ele>
        <time>2015-06-10T11:12:11Z</time>
      </trkpt>
      <trkpt lat="45.68238" lon="3.02189">
        <ele>950.4</ele>
        <time>2015-06-10T11:12:41Z</time>
      </trkpt>
      <trkpt lat="45.68244" lon="3.02298">
        <ele>947.9</ele>
        <time>2015-06-10T11:13:01Z</time>
      </trkpt>
      <trkpt lat="45.68248" lon="3.02451">
        <ele>944</ele>
        <time>2015-06-10T11:13:37Z</time>
      </trkpt>
      <trkpt lat="45.68184" lon="3.02597">
        <ele>943.3</ele>
        <time>2015-06-10T11:14:15Z</time>
      </trkpt>
      <trkpt lat="45.68155" lon="3.02708">
        <ele>945.2</ele>
        <time>2015-06-10T11:14:31Z</time>
      </trkpt>
      <trkpt lat="45.68151" lon="3.02785">
        <ele>944.6</ele>
        <time>2015-06-10T11:14:47Z</time>
      </trkpt>
      <trkpt lat="45.6817" lon="3.02965">
        <ele>941.1</ele>
        <time>2015-06-10T11:15:27Z</time>
      </trkpt>
      <trkpt lat="45.68164" lon="3.03129">
        <ele>937</ele>
        <time>2015-06-10T11:16:09Z</time>
      </trkpt>
      <trkpt lat="45.68166" lon="3.03257">
        <ele>930.7</ele>
        <time>2015-06-10T11:16:51Z</time>
      </trkpt>
      <trkpt lat="45.6818" lon="3.03316">
        <ele>924.8</ele>
        <time>2015-06-10T11:17:19Z</time>
      </trkpt>
      <trkpt lat="45.68171" lon="3.03383">
        <ele>920.5</ele>
        <time>2015-06-10T11:17:45Z</time>
      </trkpt>
      <trkpt lat="45.68099" lon="3.03416">
        <ele>912.2</ele>
        <time>2015-06-10T11:18:27Z</time>
      </trkpt>
      <trkpt lat="45.68087" lon="3.03534">
        <ele>908</ele>
        <time>2015-06-10T11:19:03Z</time>
      </trkpt>
      <trkpt lat="45.68064" lon="3.03702">
        <ele>902.8</ele>
        <time>2015-06-10T11:19:45Z</time>
      </trkpt>
      <trkpt lat="45.68055" lon="3.03839">
        <ele>899.1</ele>
        <time>2015-06-10T11:20:19Z</time>
      </trkpt>
      <trkpt lat="45.68053" lon="3.03898">
        <ele>895.8</ele>
        <time>2015-06-10T11:20:41Z</time>
      </trkpt>
      <trkpt lat="45.68029" lon="3.04084">
        <ele>891.1</ele>
        <time>2015-06-10T11:21:33Z</time>
      </trkpt>
      <trkpt lat="45.68031" lon="3.04204">
        <ele>887.2</ele>
        <time>2015-06-10T11:22:09Z</time>
      </trkpt>
      <trkpt lat="45.68091" lon="3.04315">
        <ele>881.2</ele>
        <time>2015-06-10T11:22:59Z</time>
      </trkpt>
      <trkpt lat="45.68107" lon="3.04396">
        <ele>874.9</ele>
        <time>2015-06-10T11:23:31Z</time>
      </trkpt>
      <trkpt lat="45.68112" lon="3.04437">
        <ele>872</ele>
        <time>2015-06-10T11:23:49Z</time>
      </trkpt>
      <trkpt lat="45.68119" lon="3.04484">
        <ele>868.9</ele>
        <time>2015-06-10T11:24:09Z</time>
      </trkpt>
      <trkpt lat="45.68115" lon="3.04538">
        <ele>864.5</ele>
        <time>2015-06-10T11:24:31Z</time>
      </trkpt>
      <trkpt lat="45.68097" lon="3.04596">
        <ele>858</ele>
        <time>2015-06-10T11:24:59Z</time>
      </trkpt>
      <trkpt lat="45.68073" lon="3.04662">
        <ele>851.7</ele>
        <time>2015-06-10T11:25:29Z</time>
      </trkpt>
      <trkpt lat="45.68051" lon="3.04743">
        <ele>845.5</ele>
        <time>2015-06-10T11:25:59Z</time>
      </trkpt>
      <trkpt lat="45.68047" lon="3.04792">
        <ele>843.2</ele>
        <time>2015-06-10T11:26:13Z</time>
      </trkpt>
      <trkpt lat="45.68016" lon="3.04903">
        <ele>837.7</ele>
        <time>2015-06-10T11:26:57Z</time>
      </trkpt>
      <trkpt lat="45.68061" lon="3.04987">
        <ele>833</ele>
        <time>2015-06-10T11:27:35Z</time>
      </trkpt>
      <trkpt lat="45.68124" lon="3.05063">
        <ele>829.4</ele>
        <time>2015-06-10T11:28:07Z</time>
      </trkpt>
      <trkpt lat="45.68146" lon="3.05079">
        <ele>828.5</ele>
        <time>2015-06-10T11:28:19Z</time>
      </trkpt>
      <trkpt lat="45.68247" lon="3.05173">
        <ele>821.6</ele>
        <time>2015-06-10T11:29:13Z</time>
      </trkpt>
      <trkpt lat="45.68258" lon="3.05236">
        <ele>816.3</ele>
        <time>2015-06-10T11:29:41Z</time>
      </trkpt>
      <trkpt lat="45.68277" lon="3.05358">
        <ele>810.8</ele>
        <time>2015-06-10T11:30:25Z</time>
      </trkpt>
      <trkpt lat="45.68296" lon="3.05408">
        <ele>807.8</ele>
        <time>2015-06-10T11:30:45Z</time>
      </trkpt>
      <trkpt lat="45.68358" lon="3.05449">
        <ele>803</ele>
        <time>2015-06-10T11:31:19Z</time>
      </trkpt>
      <trkpt lat="45.68388" lon="3.05465">
        <ele>800</ele>
        <time>2015-06-10T11:31:39Z</time>
      </trkpt>
      <trkpt lat="45.68423" lon="3.0552">
        <ele>795</ele>
        <time>2015-06-10T11:32:05Z</time>
      </trkpt>
      <trkpt lat="45.6844" lon="3.0557">
        <ele>790.3</ele>
        <time>2015-06-10T11:32:27Z</time>
      </trkpt>
      <trkpt lat="45.68462" lon="3.0565">
        <ele>784.3</ele>
        <time>2015-06-10T11:33:03Z</time>
      </trkpt>
      <trkpt lat="45.68475" lon="3.05685">
        <ele>781</ele>
        <time>2015-06-10T11:33:25Z</time>
      </trkpt>
      <trkpt lat="45.68465" lon="3.05762">
        <ele>775.1</ele>
        <time>2015-06-10T11:33:46Z</time>
      </trkpt>
      <trkpt lat="45.68457" lon="3.05998">
        <ele>766.3</ele>
        <time>2015-06-10T11:34:36Z</time>
      </trkpt>
      <trkpt lat="45.68431" lon="3.06119">
        <ele>764.3</ele>
        <time>2015-06-10T11:39:02Z</time>
      </trkpt>
      <trkpt lat="45.68442" lon="3.06116">
        <ele>764.4</ele>
        <time>2015-06-10T11:39:15Z</time>
      </trkpt>
      <trkpt lat="45.68441" lon="3.06114">
        <ele>763.6</ele>
        <time>2015-06-10T11:39:47Z</time>
      </trkpt>
      <trkpt lat="45.6839" lon="3.06166">
        <ele>762.5</ele>
        <time>2015-06-10T11:40:33Z</time>
      </trkpt>
      <trkpt lat="45.68372" lon="3.06229">
        <ele>758.2</ele>
        <time>2015-06-10T11:40:56Z</time>
      </trkpt>
      <trkpt lat="45.68348" lon="3.06292">
        <ele>757.4</ele>
        <time>2015-06-10T11:41:14Z</time>
      </trkpt>
      <trkpt lat="45.68371" lon="3.06281">
        <ele>761.7</ele>
        <time>2015-06-12T11:47:48Z</time>
      </trkpt>
      <trkpt lat="45.68376" lon="3.06208">
        <ele>765</ele>
        <time>2015-06-12T11:48:00Z</time>
      </trkpt>
      <trkpt lat="45.68401" lon="3.0617">
        <ele>765.1</ele>
        <time>2015-06-12T11:48:12Z</time>
      </trkpt>
      <trkpt lat="45.68428" lon="3.06163">
        <ele>766.3</ele>
        <time>2015-06-12T11:48:42Z</time>
      </trkpt>
      <trkpt lat="45.68453" lon="3.06013">
        <ele>773.4</ele>
        <time>2015-06-12T11:49:00Z</time>
      </trkpt>
      <trkpt lat="45.68453" lon="3.05828">
        <ele>779.8</ele>
        <time>2015-06-12T11:49:14Z</time>
      </trkpt>
      <trkpt lat="45.6846" lon="3.05674">
        <ele>785.3</ele>
        <time>2015-06-12T11:49:32Z</time>
      </trkpt>
      <trkpt lat="45.68436" lon="3.05619">
        <ele>790.6</ele>
        <time>2015-06-12T11:49:48Z</time>
      </trkpt>
      <trkpt lat="45.68414" lon="3.05573">
        <ele>794.9</ele>
        <time>2015-06-12T11:49:56Z</time>
      </trkpt>
      <trkpt lat="45.68378" lon="3.05493">
        <ele>801.8</ele>
        <time>2015-06-12T11:50:10Z</time>
      </trkpt>
      <trkpt lat="45.68341" lon="3.05434">
        <ele>804.8</ele>
        <time>2015-06-12T11:50:22Z</time>
      </trkpt>
      <trkpt lat="45.68303" lon="3.05425">
        <ele>808.7</ele>
        <time>2015-06-12T11:50:34Z</time>
      </trkpt>
      <trkpt lat="45.68266" lon="3.05322">
        <ele>815.1</ele>
        <time>2015-06-12T11:50:54Z</time>
      </trkpt>
      <trkpt lat="45.68243" lon="3.05279">
        <ele>819.4</ele>
        <time>2015-06-12T11:51:02Z</time>
      </trkpt>
      <trkpt lat="45.68235" lon="3.05222">
        <ele>823.6</ele>
        <time>2015-06-12T11:51:10Z</time>
      </trkpt>
      <trkpt lat="45.68208" lon="3.05143">
        <ele>826.8</ele>
        <time>2015-06-12T11:51:22Z</time>
      </trkpt>
      <trkpt lat="45.681" lon="3.05054">
        <ele>831.8</ele>
        <time>2015-06-12T11:51:46Z</time>
      </trkpt>
      <trkpt lat="45.68074" lon="3.05017">
        <ele>833.7</ele>
        <time>2015-06-12T11:51:54Z</time>
      </trkpt>
      <trkpt lat="45.68006" lon="3.04906">
        <ele>839.5</ele>
        <time>2015-06-12T11:52:18Z</time>
      </trkpt>
      <trkpt lat="45.68033" lon="3.04813">
        <ele>843.5</ele>
        <time>2015-06-12T11:52:34Z</time>
      </trkpt>
      <trkpt lat="45.68052" lon="3.04749">
        <ele>848.9</ele>
        <time>2015-06-12T11:52:50Z</time>
      </trkpt>
      <trkpt lat="45.68073" lon="3.04674">
        <ele>853.6</ele>
        <time>2015-06-12T11:53:02Z</time>
      </trkpt>
      <trkpt lat="45.68083" lon="3.04619">
        <ele>858.7</ele>
        <time>2015-06-12T11:53:10Z</time>
      </trkpt>
      <trkpt lat="45.68108" lon="3.04565">
        <ele>865.2</ele>
        <time>2015-06-12T11:53:22Z</time>
      </trkpt>
      <trkpt lat="45.68119" lon="3.04507">
        <ele>868.8</ele>
        <time>2015-06-12T11:53:32Z</time>
      </trkpt>
      <trkpt lat="45.68098" lon="3.04389">
        <ele>878.4</ele>
        <time>2015-06-12T11:53:50Z</time>
      </trkpt>
      <trkpt lat="45.68082" lon="3.04321">
        <ele>882.6</ele>
        <time>2015-06-12T11:54:00Z</time>
      </trkpt>
      <trkpt lat="45.68065" lon="3.04269">
        <ele>884.7</ele>
        <time>2015-06-12T11:54:10Z</time>
      </trkpt>
      <trkpt lat="45.68026" lon="3.04194">
        <ele>887.3</ele>
        <time>2015-06-12T11:54:28Z</time>
      </trkpt>
      <trkpt lat="45.68028" lon="3.04039">
        <ele>890.9</ele>
        <time>2015-06-12T11:54:58Z</time>
      </trkpt>
      <trkpt lat="45.68034" lon="3.03927">
        <ele>896</ele>
        <time>2015-06-12T11:55:14Z</time>
      </trkpt>
      <trkpt lat="45.68053" lon="3.0377">
        <ele>901.1</ele>
        <time>2015-06-12T11:55:40Z</time>
      </trkpt>
      <trkpt lat="45.68053" lon="3.03674">
        <ele>903.7</ele>
        <time>2015-06-12T11:55:54Z</time>
      </trkpt>
      <trkpt lat="45.68076" lon="3.03513">
        <ele>908</ele>
        <time>2015-06-12T11:56:18Z</time>
      </trkpt>
      <trkpt lat="45.68078" lon="3.03394">
        <ele>909.3</ele>
        <time>2015-06-12T11:56:56Z</time>
      </trkpt>
      <trkpt lat="45.68082" lon="3.03366">
        <ele>906.2</ele>
        <time>2015-06-12T11:57:08Z</time>
      </trkpt>
      <trkpt lat="45.68086" lon="3.03253">
        <ele>901.1</ele>
        <time>2015-06-12T11:57:42Z</time>
      </trkpt>
      <trkpt lat="45.68056" lon="3.03116">
        <ele>897.4</ele>
        <time>2015-06-12T11:58:18Z</time>
      </trkpt>
      <trkpt lat="45.6803" lon="3.02922">
        <ele>891.3</ele>
        <time>2015-06-12T11:59:08Z</time>
      </trkpt>
      <trkpt lat="45.68016" lon="3.02872">
        <ele>887.9</ele>
        <time>2015-06-12T11:59:24Z</time>
      </trkpt>
      <trkpt lat="45.67997" lon="3.02764">
        <ele>886.1</ele>
        <time>2015-06-12T12:01:56Z</time>
      </trkpt>
      <trkpt lat="45.67996" lon="3.02688">
        <ele>887.2</ele>
        <time>2015-06-12T12:02:12Z</time>
      </trkpt>
      <trkpt lat="45.68035" lon="3.02493">
        <ele>889.2</ele>
        <time>2015-06-12T12:02:50Z</time>
      </trkpt>
      <trkpt lat="45.68026" lon="3.0241">
        <ele>888.8</ele>
        <time>2015-06-12T12:03:06Z</time>
      </trkpt>
      <trkpt lat="45.67973" lon="3.02236">
        <ele>890.2</ele>
        <time>2015-06-12T12:03:46Z</time>
      </trkpt>
      <trkpt lat="45.67955" lon="3.02118">
        <ele>888.8</ele>
        <time>2015-06-12T12:04:16Z</time>
      </trkpt>
      <trkpt lat="45.6793" lon="3.02042">
        <ele>882.8</ele>
        <time>2015-06-12T12:04:46Z</time>
      </trkpt>
      <trkpt lat="45.67896" lon="3.01924">
        <ele>876.7</ele>
        <time>2015-06-12T12:05:24Z</time>
      </trkpt>
      <trkpt lat="45.67902" lon="3.01869">
        <ele>877.6</ele>
        <time>2015-06-12T12:05:36Z</time>
      </trkpt>
      <trkpt lat="45.67916" lon="3.01803">
        <ele>877.5</ele>
        <time>2015-06-12T12:05:48Z</time>
      </trkpt>
      <trkpt lat="45.6794" lon="3.01671">
        <ele>872.5</ele>
        <time>2015-06-12T12:06:20Z</time>
      </trkpt>
      <trkpt lat="45.67941" lon="3.01455">
        <ele>869.2</ele>
        <time>2015-06-12T12:07:10Z</time>
      </trkpt>
      <trkpt lat="45.6793" lon="3.01236">
        <ele>871.2</ele>
        <time>2015-06-12T12:07:58Z</time>
      </trkpt>
      <trkpt lat="45.67927" lon="3.01129">
        <ele>866.3</ele>
        <time>2015-06-12T12:08:32Z</time>
      </trkpt>
      <trkpt lat="45.67877" lon="3.0112">
        <ele>861.8</ele>
        <time>2015-06-12T12:09:00Z</time>
      </trkpt>
      <trkpt lat="45.67849" lon="3.01079">
        <ele>858.5</ele>
        <time>2015-06-12T12:09:18Z</time>
      </trkpt>
      <trkpt lat="45.67828" lon="3.01038">
        <ele>855.4</ele>
        <time>2015-06-12T12:09:34Z</time>
      </trkpt>
      <trkpt lat="45.67814" lon="3.00954">
        <ele>852.4</ele>
        <time>2015-06-12T12:09:58Z</time>
      </trkpt>
      <trkpt lat="45.67741" lon="3.01007">
        <ele>848.8</ele>
        <time>2015-06-12T12:10:36Z</time>
      </trkpt>
      <trkpt lat="45.67673" lon="3.01022">
        <ele>842.8</ele>
        <time>2015-06-12T12:11:08Z</time>
      </trkpt>
      <trkpt lat="45.6757" lon="3.0096">
        <ele>834.6</ele>
        <time>2015-06-12T12:11:58Z</time>
      </trkpt>
      <trkpt lat="45.67512" lon="3.00886">
        <ele>829</ele>
        <time>2015-06-12T12:12:34Z</time>
      </trkpt>
      <trkpt lat="45.67457" lon="3.00779">
        <ele>824</ele>
        <time>2015-06-12T12:13:14Z</time>
      </trkpt>
      <trkpt lat="45.67461" lon="3.00711">
        <ele>817.9</ele>
        <time>2015-06-12T12:13:38Z</time>
      </trkpt>
      <trkpt lat="45.67416" lon="3.00717">
        <ele>813.9</ele>
        <time>2015-06-12T12:13:58Z</time>
      </trkpt>
      <trkpt lat="45.67358" lon="3.00735">
        <ele>810.5</ele>
        <time>2015-06-12T12:14:22Z</time>
      </trkpt>
      <trkpt lat="45.6731" lon="3.00675">
        <ele>811.3</ele>
        <time>2015-06-12T12:14:38Z</time>
      </trkpt>
      <trkpt lat="45.67277" lon="3.00514">
        <ele>811.6</ele>
        <time>2015-06-12T12:15:10Z</time>
      </trkpt>
      <trkpt lat="45.67237" lon="3.004">
        <ele>811.3</ele>
        <time>2015-06-12T12:15:34Z</time>
      </trkpt>
      <trkpt lat="45.67178" lon="3.00293">
        <ele>813.2</ele>
        <time>2015-06-12T12:15:54Z</time>
      </trkpt>
      <trkpt lat="45.6716" lon="3.00246">
        <ele>814.2</ele>
        <time>2015-06-12T12:16:00Z</time>
      </trkpt>
      <trkpt lat="45.67104" lon="3.00115">
        <ele>819</ele>
        <time>2015-06-12T12:16:16Z</time>
      </trkpt>
      <trkpt lat="45.67085" lon="2.99988">
        <ele>822.9</ele>
        <time>2015-06-12T12:16:32Z</time>
      </trkpt>
      <trkpt lat="45.67067" lon="2.99819">
        <ele>825.2</ele>
        <time>2015-06-12T12:17:06Z</time>
      </trkpt>
      <trkpt lat="45.67043" lon="2.99772">
        <ele>828.5</ele>
        <time>2015-06-12T12:17:22Z</time>
      </trkpt>
      <trkpt lat="45.67039" lon="2.99686">
        <ele>832.6</ele>
        <time>2015-06-12T12:17:38Z</time>
      </trkpt>
      <trkpt lat="45.67069" lon="2.99562">
        <ele>833.6</ele>
        <time>2015-06-12T12:18:08Z</time>
      </trkpt>
      <trkpt lat="45.67007" lon="2.9948">
        <ele>835.5</ele>
        <time>2015-06-12T12:18:54Z</time>
      </trkpt>
      <trkpt lat="45.66924" lon="2.99489">
        <ele>837.1</ele>
        <time>2015-06-12T12:19:36Z</time>
      </trkpt>
      <trkpt lat="45.6689" lon="2.99523">
        <ele>837</ele>
        <time>2015-06-12T12:19:58Z</time>
      </trkpt>
      <trkpt lat="45.66873" lon="2.99473">
        <ele>833.8</ele>
        <time>2015-06-12T12:20:22Z</time>
      </trkpt>
      <trkpt lat="45.66877" lon="2.99439">
        <ele>834.6</ele>
        <time>2015-06-12T12:20:28Z</time>
      </trkpt>
      <trkpt lat="45.66885" lon="2.99281">
        <ele>833.7</ele>
        <time>2015-06-12T12:21:02Z</time>
      </trkpt>
      <trkpt lat="45.66885" lon="2.9925">
        <ele>832.8</ele>
        <time>2015-06-12T12:21:14Z</time>
      </trkpt>
      <trkpt lat="45.66855" lon="2.99204">
        <ele>833</ele>
        <time>2015-06-12T12:21:34Z</time>
      </trkpt>
      <trkpt lat="45.66884" lon="2.99084">
        <ele>832.1</ele>
        <time>2015-06-12T12:23:11Z</time>
      </trkpt>
      <trkpt lat="45.66923" lon="2.9898">
        <ele>834.9</ele>
        <time>2015-06-12T12:23:47Z</time>
      </trkpt>
      <trkpt lat="45.66967" lon="2.9897">
        <ele>835.5</ele>
        <time>2015-06-12T12:24:24Z</time>
      </trkpt>
      <trkpt lat="45.66976" lon="2.98906">
        <ele>831.6</ele>
        <time>2015-06-12T12:24:48Z</time>
      </trkpt>
      <trkpt lat="45.67005" lon="2.98823">
        <ele>832.5</ele>
        <time>2015-06-12T12:25:04Z</time>
      </trkpt>
      <trkpt lat="45.6701" lon="2.98761">
        <ele>837.7</ele>
        <time>2015-06-12T12:25:16Z</time>
      </trkpt>
      <trkpt lat="45.67004" lon="2.9872">
        <ele>842.6</ele>
        <time>2015-06-12T12:25:24Z</time>
      </trkpt>
      <trkpt lat="45.6699" lon="2.98651">
        <ele>847.3</ele>
        <time>2015-06-12T12:25:34Z</time>
      </trkpt>
      <trkpt lat="45.6699" lon="2.98589">
        <ele>850.3</ele>
        <time>2015-06-12T12:25:40Z</time>
      </trkpt>
      <trkpt lat="45.66958" lon="2.98501">
        <ele>853.7</ele>
        <time>2015-06-12T12:25:50Z</time>
      </trkpt>
      <trkpt lat="45.66917" lon="2.9845">
        <ele>856.1</ele>
        <time>2015-06-12T12:25:58Z</time>
      </trkpt>
      <trkpt lat="45.66877" lon="2.984">
        <ele>857.1</ele>
        <time>2015-06-12T12:26:10Z</time>
      </trkpt>
      <trkpt lat="45.66808" lon="2.98375">
        <ele>853.2</ele>
        <time>2015-06-12T12:26:40Z</time>
      </trkpt>
      <trkpt lat="45.66756" lon="2.98295">
        <ele>848.5</ele>
        <time>2015-06-12T12:27:10Z</time>
      </trkpt>
      <trkpt lat="45.66741" lon="2.98229">
        <ele>844.7</ele>
        <time>2015-06-12T12:27:30Z</time>
      </trkpt>
      <trkpt lat="45.66709" lon="2.98209">
        <ele>844.4</ele>
        <time>2015-06-12T12:27:40Z</time>
      </trkpt>
      <trkpt lat="45.66616" lon="2.98211">
        <ele>841.3</ele>
        <time>2015-06-12T12:28:10Z</time>
      </trkpt>
      <trkpt lat="45.66556" lon="2.98216">
        <ele>836.7</ele>
        <time>2015-06-12T12:33:16Z</time>
      </trkpt>
      <trkpt lat="45.66488" lon="2.98107">
        <ele>831.9</ele>
        <time>2015-06-12T12:33:46Z</time>
      </trkpt>
      <trkpt lat="45.66411" lon="2.98025">
        <ele>831.9</ele>
        <time>2015-06-12T12:34:04Z</time>
      </trkpt>
      <trkpt lat="45.66301" lon="2.97954">
        <ele>831</ele>
        <time>2015-06-12T12:34:28Z</time>
      </trkpt>
      <trkpt lat="45.66198" lon="2.97798">
        <ele>831.8</ele>
        <time>2015-06-12T12:34:58Z</time>
      </trkpt>
      <trkpt lat="45.66124" lon="2.97568">
        <ele>834.1</ele>
        <time>2015-06-12T12:35:32Z</time>
      </trkpt>
      <trkpt lat="45.66017" lon="2.97461">
        <ele>838.9</ele>
        <time>2015-06-12T12:36:04Z</time>
      </trkpt>
      <trkpt lat="45.65976" lon="2.97414">
        <ele>841.4</ele>
        <time>2015-06-12T12:36:18Z</time>
      </trkpt>
      <trkpt lat="45.65993" lon="2.97348">
        <ele>843.2</ele>
        <time>2015-06-12T12:36:26Z</time>
      </trkpt>
      <trkpt lat="45.66052" lon="2.97257">
        <ele>847.6</ele>
        <time>2015-06-12T12:36:40Z</time>
      </trkpt>
      <trkpt lat="45.66128" lon="2.97321">
        <ele>850.9</ele>
        <time>2015-06-12T12:36:52Z</time>
      </trkpt>
      <trkpt lat="45.66153" lon="2.97361">
        <ele>848.5</ele>
        <time>2015-06-12T12:37:26Z</time>
      </trkpt>
      <trkpt lat="45.66051" lon="2.97263">
        <ele>843.8</ele>
        <time>2015-06-12T12:38:08Z</time>
      </trkpt>
      <trkpt lat="45.65977" lon="2.97424">
        <ele>841.7</ele>
        <time>2015-06-12T12:38:54Z</time>
      </trkpt>
      <trkpt lat="45.65958" lon="2.97516">
        <ele>845.9</ele>
        <time>2015-06-12T12:39:08Z</time>
      </trkpt>
      <trkpt lat="45.65953" lon="2.97714">
        <ele>851.9</ele>
        <time>2015-06-12T12:39:32Z</time>
      </trkpt>
      <trkpt lat="45.65974" lon="2.97807">
        <ele>852.2</ele>
        <time>2015-06-12T12:39:46Z</time>
      </trkpt>
      <trkpt lat="45.6601" lon="2.9799">
        <ele>858.6</ele>
        <time>2015-06-12T12:40:04Z</time>
      </trkpt>
      <trkpt lat="45.66018" lon="2.98072">
        <ele>862</ele>
        <time>2015-06-12T12:40:12Z</time>
      </trkpt>
      <trkpt lat="45.66002" lon="2.98172">
        <ele>865.9</ele>
        <time>2015-06-12T12:40:28Z</time>
      </trkpt>
      <trkpt lat="45.65979" lon="2.98304">
        <ele>866.1</ele>
        <time>2015-06-12T12:41:00Z</time>
      </trkpt>
      <trkpt lat="45.65921" lon="2.98451">
        <ele>859.3</ele>
        <time>2015-06-12T12:41:52Z</time>
      </trkpt>
      <trkpt lat="45.65873" lon="2.98539">
        <ele>855.3</ele>
        <time>2015-06-12T12:42:22Z</time>
      </trkpt>
      <trkpt lat="45.65882" lon="2.98688">
        <ele>844.8</ele>
        <time>2015-06-12T12:43:20Z</time>
      </trkpt>
      <trkpt lat="45.65912" lon="2.98767">
        <ele>841.2</ele>
        <time>2015-06-12T12:43:48Z</time>
      </trkpt>
      <trkpt lat="45.6597" lon="2.98832">
        <ele>836.9</ele>
        <time>2015-06-12T12:44:18Z</time>
      </trkpt>
      <trkpt lat="45.65999" lon="2.9896">
        <ele>838.5</ele>
        <time>2015-06-12T12:44:42Z</time>
      </trkpt>
      <trkpt lat="45.66005" lon="2.99052">
        <ele>836.1</ele>
        <time>2015-06-12T12:45:04Z</time>
      </trkpt>
      <trkpt lat="45.66046" lon="2.99205">
        <ele>829.9</ele>
        <time>2015-06-12T12:45:48Z</time>
      </trkpt>
      <trkpt lat="45.66069" lon="2.99236">
        <ele>830.4</ele>
        <time>2015-06-12T12:46:00Z</time>
      </trkpt>
      <trkpt lat="45.66101" lon="2.99242">
        <ele>833.7</ele>
        <time>2015-06-12T12:46:12Z</time>
      </trkpt>
      <trkpt lat="45.66154" lon="2.99233">
        <ele>840.5</ele>
        <time>2015-06-12T12:46:38Z</time>
      </trkpt>
      <trkpt lat="45.66183" lon="2.99211">
        <ele>845</ele>
        <time>2015-06-12T12:47:00Z</time>
      </trkpt>
      <trkpt lat="45.66239" lon="2.99164">
        <ele>849.2</ele>
        <time>2015-06-12T12:47:26Z</time>
      </trkpt>
      <trkpt lat="45.66317" lon="2.99173">
        <ele>854</ele>
        <time>2015-06-12T12:47:54Z</time>
      </trkpt>
      <trkpt lat="45.66368" lon="2.99207">
        <ele>857.1</ele>
        <time>2015-06-12T12:48:20Z</time>
      </trkpt>
      <trkpt lat="45.66429" lon="2.99269">
        <ele>859</ele>
        <time>2015-06-12T12:48:40Z</time>
      </trkpt>
      <trkpt lat="45.66489" lon="2.99397">
        <ele>849.8</ele>
        <time>2015-06-12T12:49:38Z</time>
      </trkpt>
      <trkpt lat="45.66547" lon="2.99459">
        <ele>841.8</ele>
        <time>2015-06-12T12:50:24Z</time>
      </trkpt>
      <trkpt lat="45.66566" lon="2.99475">
        <ele>838.6</ele>
        <time>2015-06-12T12:50:36Z</time>
      </trkpt>
      <trkpt lat="45.66584" lon="2.99495">
        <ele>835</ele>
        <time>2015-06-12T12:50:48Z</time>
      </trkpt>
      <trkpt lat="45.66627" lon="2.99646">
        <ele>830.1</ele>
        <time>2015-06-12T12:51:26Z</time>
      </trkpt>
      <trkpt lat="45.66648" lon="2.99698">
        <ele>829.6</ele>
        <time>2015-06-12T12:51:38Z</time>
      </trkpt>
      <trkpt lat="45.66698" lon="2.99808">
        <ele>827</ele>
        <time>2015-06-12T12:52:08Z</time>
      </trkpt>
      <trkpt lat="45.66729" lon="2.99905">
        <ele>826.9</ele>
        <time>2015-06-12T12:59:54Z</time>
      </trkpt>
      <trkpt lat="45.66798" lon="2.99949">
        <ele>824.5</ele>
        <time>2015-06-12T13:00:20Z</time>
      </trkpt>
      <trkpt lat="45.66833" lon="2.99946">
        <ele>825.1</ele>
        <time>2015-06-12T13:00:32Z</time>
      </trkpt>
      <trkpt lat="45.66921" lon="2.99935">
        <ele>827.1</ele>
        <time>2015-06-12T13:00:54Z</time>
      </trkpt>
      <trkpt lat="45.66946" lon="2.99964">
        <ele>826.5</ele>
        <time>2015-06-12T13:01:04Z</time>
      </trkpt>
      <trkpt lat="45.66972" lon="3.00011">
        <ele>823.3</ele>
        <time>2015-06-12T13:01:20Z</time>
      </trkpt>
      <trkpt lat="45.67044" lon="3.00004">
        <ele>822.2</ele>
        <time>2015-06-12T13:01:44Z</time>
      </trkpt>
      <trkpt lat="45.67195" lon="2.99877">
        <ele>829</ele>
        <time>2015-06-12T13:02:38Z</time>
      </trkpt>
      <trkpt lat="45.6725" lon="2.99862">
        <ele>830.7</ele>
        <time>2015-06-12T13:03:49Z</time>
      </trkpt>
      <trkpt lat="45.67365" lon="2.9979">
        <ele>834.3</ele>
        <time>2015-06-12T13:04:19Z</time>
      </trkpt>
      <trkpt lat="45.67413" lon="2.99761">
        <ele>836.2</ele>
        <time>2015-06-12T13:04:53Z</time>
      </trkpt>
      <trkpt lat="45.67442" lon="2.99777">
        <ele>839.9</ele>
        <time>2015-06-12T13:05:03Z</time>
      </trkpt>
      <trkpt lat="45.67456" lon="2.99818">
        <ele>846.6</ele>
        <time>2015-06-12T13:05:17Z</time>
      </trkpt>
      <trkpt lat="45.67505" lon="2.99823">
        <ele>851.9</ele>
        <time>2015-06-12T13:05:33Z</time>
      </trkpt>
      <trkpt lat="45.6756" lon="2.99783">
        <ele>857.3</ele>
        <time>2015-06-12T13:05:51Z</time>
      </trkpt>
      <trkpt lat="45.67611" lon="2.99792">
        <ele>864.1</ele>
        <time>2015-06-12T13:06:25Z</time>
      </trkpt>
      <trkpt lat="45.67646" lon="2.99815">
        <ele>867.6</ele>
        <time>2015-06-12T13:06:35Z</time>
      </trkpt>
      <trkpt lat="45.67675" lon="2.99826">
        <ele>870.7</ele>
        <time>2015-06-12T13:07:06Z</time>
      </trkpt>
      <trkpt lat="45.67727" lon="2.99805">
        <ele>872.7</ele>
        <time>2015-06-12T13:07:20Z</time>
      </trkpt>
      <trkpt lat="45.6777" lon="2.9981">
        <ele>875.9</ele>
        <time>2015-06-12T13:07:30Z</time>
      </trkpt>
      <trkpt lat="45.67756" lon="2.9989">
        <ele>881.7</ele>
        <time>2015-06-12T13:07:46Z</time>
      </trkpt>
      <trkpt lat="45.67732" lon="3.00033">
        <ele>887.1</ele>
        <time>2015-06-12T13:08:04Z</time>
      </trkpt>
      <trkpt lat="45.67735" lon="3.00236">
        <ele>897.1</ele>
        <time>2015-06-12T13:08:28Z</time>
      </trkpt>
      <trkpt lat="45.67746" lon="3.00266">
        <ele>900.4</ele>
        <time>2015-06-12T13:08:36Z</time>
      </trkpt>
      <trkpt lat="45.67811" lon="3.00293">
        <ele>903.1</ele>
        <time>2015-06-12T13:08:56Z</time>
      </trkpt>
      <trkpt lat="45.67827" lon="3.00304">
        <ele>909.6</ele>
        <time>2015-06-12T13:09:19Z</time>
      </trkpt>
      <trkpt lat="45.67851" lon="3.00316">
        <ele>912.6</ele>
        <time>2015-06-12T13:09:25Z</time>
      </trkpt>
      <trkpt lat="45.67881" lon="3.00345">
        <ele>919.2</ele>
        <time>2015-06-12T13:09:33Z</time>
      </trkpt>
      <trkpt lat="45.67949" lon="3.00386">
        <ele>927.4</ele>
        <time>2015-06-12T13:09:47Z</time>
      </trkpt>
      <trkpt lat="45.6801" lon="3.00379">
        <ele>932.1</ele>
        <time>2015-06-12T13:10:01Z</time>
      </trkpt>
      <trkpt lat="45.68035" lon="3.00393">
        <ele>935.3</ele>
        <time>2015-06-12T13:10:07Z</time>
      </trkpt>
      <trkpt lat="45.68084" lon="3.0043">
        <ele>941.5</ele>
        <time>2015-06-12T13:10:19Z</time>
      </trkpt>
      <trkpt lat="45.68114" lon="3.00447">
        <ele>945.1</ele>
        <time>2015-06-12T13:10:25Z</time>
      </trkpt>
      <trkpt lat="45.68176" lon="3.00479">
        <ele>951.3</ele>
        <time>2015-06-12T13:10:39Z</time>
      </trkpt>
      <trkpt lat="45.68216" lon="3.00507">
        <ele>954.3</ele>
        <time>2015-06-12T13:10:49Z</time>
      </trkpt>
      <trkpt lat="45.68297" lon="3.00531">
        <ele>958.4</ele>
        <time>2015-06-12T13:11:07Z</time>
      </trkpt>
      <trkpt lat="45.68394" lon="3.00572">
        <ele>961.9</ele>
        <time>2015-06-12T13:11:31Z</time>
      </trkpt>
      <trkpt lat="45.68467" lon="3.00623">
        <ele>965.6</ele>
        <time>2015-06-12T13:11:53Z</time>
      </trkpt>
      <trkpt lat="45.68584" lon="3.00693">
        <ele>964.3</ele>
        <time>2015-06-12T13:12:33Z</time>
      </trkpt>
      <trkpt lat="45.68642" lon="3.00709">
        <ele>969</ele>
        <time>2015-06-12T13:15:14Z</time>
      </trkpt>
      <trkpt lat="45.6865" lon="3.00738">
        <ele>972.5</ele>
        <time>2015-06-12T13:15:26Z</time>
      </trkpt>
      <trkpt lat="45.68638" lon="3.00774">
        <ele>976</ele>
        <time>2015-06-12T13:15:44Z</time>
      </trkpt>
      <trkpt lat="45.68617" lon="3.00837">
        <ele>981.1</ele>
        <time>2015-06-12T13:16:12Z</time>
      </trkpt>
      <trkpt lat="45.6861" lon="3.00874">
        <ele>982.5</ele>
        <time>2015-06-12T13:16:20Z</time>
      </trkpt>
      <trkpt lat="45.68602" lon="3.01016">
        <ele>984.7</ele>
        <time>2015-06-12T13:16:46Z</time>
      </trkpt>
      <trkpt lat="45.68563" lon="3.01016">
        <ele>983.8</ele>
        <time>2015-06-12T13:17:00Z</time>
      </trkpt>
      <trkpt lat="45.68552" lon="3.01046">
        <ele>983.5</ele>
        <time>2015-06-12T13:17:08Z</time>
      </trkpt>
      <trkpt lat="45.68506" lon="3.01223">
        <ele>980.1</ele>
        <time>2015-06-12T13:17:46Z</time>
      </trkpt>
      <trkpt lat="45.68487" lon="3.01313">
        <ele>978</ele>
        <time>2015-06-12T13:18:06Z</time>
      </trkpt>
      <trkpt lat="45.68455" lon="3.01487">
        <ele>973.5</ele>
        <time>2015-06-12T13:18:48Z</time>
      </trkpt>
      <trkpt lat="45.68426" lon="3.01648">
        <ele>968.3</ele>
        <time>2015-06-12T13:19:28Z</time>
      </trkpt>
      <trkpt lat="45.68401" lon="3.01804">
        <ele>965.1</ele>
        <time>2015-06-12T13:20:04Z</time>
      </trkpt>
      <trkpt lat="45.68417" lon="3.01924">
        <ele>958.8</ele>
        <time>2015-06-12T13:20:38Z</time>
      </trkpt>
      <trkpt lat="45.68393" lon="3.01994">
        <ele>957</ele>
        <time>2015-06-12T13:21:22Z</time>
      </trkpt>
      <trkpt lat="45.68335" lon="3.01988">
        <ele>954.1</ele>
        <time>2015-06-12T13:23:07Z</time>
      </trkpt>
      <trkpt lat="45.6829" lon="3.01982">
        <ele>953.4</ele>
        <time>2015-06-12T13:23:23Z</time>
      </trkpt>
      <trkpt lat="45.68223" lon="3.01977">
        <ele>949.1</ele>
        <time>2015-06-12T13:23:53Z</time>
      </trkpt>
      <trkpt lat="45.68218" lon="3.02076">
        <ele>948</ele>
        <time>2015-06-12T13:24:15Z</time>
      </trkpt>
      <trkpt lat="45.68231" lon="3.02142">
        <ele>947.7</ele>
        <time>2015-06-12T13:24:29Z</time>
      </trkpt>
      <trkpt lat="45.68249" lon="3.02449">
        <ele>940.9</ele>
        <time>2015-06-12T13:25:25Z</time>
      </trkpt>
      <trkpt lat="45.68196" lon="3.02557">
        <ele>939.1</ele>
        <time>2015-06-12T13:25:53Z</time>
      </trkpt>
      <trkpt lat="45.68158" lon="3.02688">
        <ele>942.7</ele>
        <time>2015-06-12T13:26:11Z</time>
      </trkpt>
      <trkpt lat="45.6815" lon="3.02818">
        <ele>940.7</ele>
        <time>2015-06-12T13:26:35Z</time>
      </trkpt>
      <trkpt lat="45.68175" lon="3.02997">
        <ele>937.3</ele>
        <time>2015-06-12T13:27:13Z</time>
      </trkpt>
      <trkpt lat="45.68162" lon="3.03144">
        <ele>933.6</ele>
        <time>2015-06-12T13:27:51Z</time>
      </trkpt>
      <trkpt lat="45.6817" lon="3.03277">
        <ele>924.7</ele>
        <time>2015-06-12T13:28:45Z</time>
      </trkpt>
      <trkpt lat="45.68186" lon="3.03333">
        <ele>921.1</ele>
        <time>2015-06-12T13:29:07Z</time>
      </trkpt>
      <trkpt lat="45.68161" lon="3.03397">
        <ele>916.5</ele>
        <time>2015-06-12T13:29:35Z</time>
      </trkpt>
      <trkpt lat="45.68131" lon="3.03408">
        <ele>913.5</ele>
        <time>2015-06-12T13:29:51Z</time>
      </trkpt>
      <trkpt lat="45.68075" lon="3.03437">
        <ele>909.3</ele>
        <time>2015-06-12T13:30:23Z</time>
      </trkpt>
      <trkpt lat="45.68078" lon="3.03534">
        <ele>905.3</ele>
        <time>2015-06-12T13:30:47Z</time>
      </trkpt>
      <trkpt lat="45.6806" lon="3.03669">
        <ele>900.8</ele>
        <time>2015-06-12T13:31:25Z</time>
      </trkpt>
      <trkpt lat="45.68053" lon="3.03828">
        <ele>896.5</ele>
        <time>2015-06-12T13:32:07Z</time>
      </trkpt>
      <trkpt lat="45.68037" lon="3.03921">
        <ele>891.8</ele>
        <time>2015-06-12T13:32:37Z</time>
      </trkpt>
      <trkpt lat="45.68032" lon="3.04196">
        <ele>885.6</ele>
        <time>2015-06-12T13:33:47Z</time>
      </trkpt>
      <trkpt lat="45.68087" lon="3.04296">
        <ele>880.5</ele>
        <time>2015-06-12T13:34:33Z</time>
      </trkpt>
      <trkpt lat="45.68103" lon="3.04355">
        <ele>876.5</ele>
        <time>2015-06-12T13:34:59Z</time>
      </trkpt>
      <trkpt lat="45.6811" lon="3.04433">
        <ele>870.4</ele>
        <time>2015-06-12T13:35:35Z</time>
      </trkpt>
      <trkpt lat="45.68119" lon="3.04525">
        <ele>864</ele>
        <time>2015-06-12T13:36:17Z</time>
      </trkpt>
      <trkpt lat="45.68102" lon="3.04591">
        <ele>857.8</ele>
        <time>2015-06-12T13:36:49Z</time>
      </trkpt>
      <trkpt lat="45.68071" lon="3.04663">
        <ele>851.5</ele>
        <time>2015-06-12T13:37:23Z</time>
      </trkpt>
      <trkpt lat="45.68051" lon="3.04738">
        <ele>845.2</ele>
        <time>2015-06-12T13:37:51Z</time>
      </trkpt>
      <trkpt lat="45.68047" lon="3.04803">
        <ele>842</ele>
        <time>2015-06-12T13:38:13Z</time>
      </trkpt>
      <trkpt lat="45.68027" lon="3.04859">
        <ele>838.9</ele>
        <time>2015-06-12T13:38:35Z</time>
      </trkpt>
      <trkpt lat="45.68024" lon="3.0495">
        <ele>835.3</ele>
        <time>2015-06-12T13:39:05Z</time>
      </trkpt>
      <trkpt lat="45.68091" lon="3.0504">
        <ele>829.6</ele>
        <time>2015-06-12T13:39:45Z</time>
      </trkpt>
      <trkpt lat="45.68183" lon="3.05109">
        <ele>824.9</ele>
        <time>2015-06-12T13:40:33Z</time>
      </trkpt>
      <trkpt lat="45.68253" lon="3.0522">
        <ele>817.2</ele>
        <time>2015-06-12T13:41:25Z</time>
      </trkpt>
      <trkpt lat="45.68264" lon="3.05296">
        <ele>813</ele>
        <time>2015-06-12T13:41:53Z</time>
      </trkpt>
      <trkpt lat="45.68282" lon="3.05366">
        <ele>810</ele>
        <time>2015-06-12T13:42:21Z</time>
      </trkpt>
      <trkpt lat="45.68309" lon="3.05438">
        <ele>806.6</ele>
        <time>2015-06-12T13:42:47Z</time>
      </trkpt>
      <trkpt lat="45.68384" lon="3.05461">
        <ele>801</ele>
        <time>2015-06-12T13:43:23Z</time>
      </trkpt>
      <trkpt lat="45.68409" lon="3.05505">
        <ele>796.5</ele>
        <time>2015-06-12T13:43:47Z</time>
      </trkpt>
      <trkpt lat="45.68429" lon="3.05556">
        <ele>791.9</ele>
        <time>2015-06-12T13:44:25Z</time>
      </trkpt>
      <trkpt lat="45.68445" lon="3.05602">
        <ele>788.2</ele>
        <time>2015-06-12T13:44:45Z</time>
      </trkpt>
      <trkpt lat="45.68466" lon="3.05656">
        <ele>784.2</ele>
        <time>2015-06-12T13:45:13Z</time>
      </trkpt>
      <trkpt lat="45.68475" lon="3.05676">
        <ele>782.7</ele>
        <time>2015-06-12T13:45:29Z</time>
      </trkpt>
      <trkpt lat="45.68462" lon="3.05766">
        <ele>778.2</ele>
        <time>2015-06-12T13:45:55Z</time>
      </trkpt>
      <trkpt lat="45.68457" lon="3.05859">
        <ele>773.4</ele>
        <time>2015-06-12T13:46:19Z</time>
      </trkpt>
      <trkpt lat="45.68456" lon="3.05995">
        <ele>768.2</ele>
        <time>2015-06-12T13:46:53Z</time>
      </trkpt>
      <trkpt lat="45.68422" lon="3.06142">
        <ele>765.3</ele>
        <time>2015-06-12T13:47:37Z</time>
      </trkpt>
      <trkpt lat="45.68392" lon="3.06169">
        <ele>764.4</ele>
        <time>2015-06-12T13:48:42Z</time>
      </trkpt>
      <trkpt lat="45.68356" lon="3.06196">
        <ele>761.2</ele>
        <time>2015-06-12T13:49:06Z</time>
      </trkpt>
      <trkpt lat="45.68357" lon="3.06287">
        <ele>756.2</ele>
        <time>2015-06-12T13:49:34Z</time>
      </trkpt>
      <trkpt lat="45.68337" lon="3.06331">
        <ele>756.5</ele>
        <time>2015-06-13T10:36:49Z</time>
      </trkpt>
      <trkpt lat="45.6835" lon="3.0633">
        <ele>756.3</ele>
        <time>2015-06-13T10:39:01Z</time>
      </trkpt>
      <trkpt lat="45.68339" lon="3.06342">
        <ele>756.4</ele>
        <time>2015-06-13T10:40:10Z</time>
      </trkpt>
      <trkpt lat="45.68335" lon="3.06338">
        <ele>757</ele>
        <time>2015-06-13T10:42:39Z</time>
      </trkpt>
      <trkpt lat="45.68342" lon="3.06344">
        <ele>756.8</ele>
        <time>2015-06-13T10:48:45Z</time>
      </trkpt>
      <trkpt lat="45.6835" lon="3.06332">
        <ele>755.4</ele>
        <time>2015-06-13T10:50:07Z</time>
      </trkpt>
      <trkpt lat="45.68341" lon="3.06343">
        <ele>755.8</ele>
        <time>2015-06-13T10:51:16Z</time>
      </trkpt>
      <trkpt lat="45.68344" lon="3.06338">
        <ele>756.3</ele>
        <time>2015-06-13T10:52:22Z</time>
      </trkpt>
      <trkpt lat="45.68357" lon="3.06336">
        <ele>756.3</ele>
        <time>2015-06-13T10:52:59Z</time>
      </trkpt>
      <trkpt lat="45.68333" lon="3.06352">
        <ele>756.3</ele>
        <time>2015-06-13T10:53:58Z</time>
      </trkpt>
      <trkpt lat="45.68343" lon="3.06337">
        <ele>756.4</ele>
        <time>2015-06-13T10:54:48Z</time>
      </trkpt>
      <trkpt lat="45.68325" lon="3.0634">
        <ele>756.4</ele>
        <time>2015-06-13T10:56:19Z</time>
      </trkpt>
      <trkpt lat="45.68351" lon="3.06333">
        <ele>756.4</ele>
        <time>2015-06-13T10:57:26Z</time>
      </trkpt>
      <trkpt lat="45.68346" lon="3.06321">
        <ele>756.4</ele>
        <time>2015-06-13T10:59:18Z</time>
      </trkpt>
      <trkpt lat="45.68347" lon="3.06331">
        <ele>756.9</ele>
        <time>2015-06-13T11:02:13Z</time>
      </trkpt>
      <trkpt lat="45.68354" lon="3.06336">
        <ele>757.2</ele>
        <time>2015-06-13T11:03:44Z</time>
      </trkpt>
      <trkpt lat="45.68353" lon="3.06327">
        <ele>757.4</ele>
        <time>2015-06-13T11:05:17Z</time>
      </trkpt>
      <trkpt lat="45.68343" lon="3.06332">
        <ele>757.2</ele>
        <time>2015-06-13T11:06:45Z</time>
      </trkpt>
      <trkpt lat="45.68346" lon="3.06331">
        <ele>757.1</ele>
        <time>2015-06-13T11:08:00Z</time>
      </trkpt>
      <trkpt lat="45.68348" lon="3.06325">
        <ele>757.3</ele>
        <time>2015-06-13T11:11:05Z</time>
      </trkpt>
      <trkpt lat="45.68332" lon="3.06342">
        <ele>757.6</ele>
        <time>2015-06-13T11:12:28Z</time>
      </trkpt>
      <trkpt lat="45.68329" lon="3.06349">
        <ele>757.5</ele>
        <time>2015-06-13T11:13:16Z</time>
      </trkpt>
      <trkpt lat="45.68344" lon="3.06326">
        <ele>757.2</ele>
        <time>2015-06-13T11:14:29Z</time>
      </trkpt>
      <trkpt lat="45.68347" lon="3.06329">
        <ele>757.4</ele>
        <time>2015-06-13T11:15:10Z</time>
      </trkpt>
      <trkpt lat="45.68336" lon="3.06336">
        <ele>757.4</ele>
        <time>2015-06-13T11:16:02Z</time>
      </trkpt>
      <trkpt lat="45.68346" lon="3.06334">
        <ele>757.6</ele>
        <time>2015-06-13T11:17:37Z</time>
      </trkpt>
      <trkpt lat="45.68353" lon="3.06332">
        <ele>757.1</ele>
        <time>2015-06-13T11:18:37Z</time>
      </trkpt>
      <trkpt lat="45.68338" lon="3.06328">
        <ele>757.3</ele>
        <time>2015-06-13T11:21:56Z</time>
      </trkpt>
      <trkpt lat="45.68333" lon="3.06302">
        <ele>756.3</ele>
        <time>2015-06-13T11:22:46Z</time>
      </trkpt>
      <trkpt lat="45.68239" lon="3.06567">
        <ele>756.8</ele>
        <time>2015-06-13T11:23:47Z</time>
      </trkpt>
      <trkpt lat="45.68228" lon="3.06576">
        <ele>756.7</ele>
        <time>2015-06-13T11:23:51Z</time>
      </trkpt>
      <trkpt lat="45.68338" lon="3.06292">
        <ele>756.4</ele>
        <time>2015-06-13T11:24:32Z</time>
      </trkpt>
      <trkpt lat="45.68351" lon="3.06303">
        <ele>756.6</ele>
        <time>2015-06-13T11:24:43Z</time>
      </trkpt>
      <trkpt lat="45.68342" lon="3.0631">
        <ele>756.7</ele>
        <time>2015-06-13T11:24:55Z</time>
      </trkpt>
      <trkpt lat="45.68318" lon="3.06361">
        <ele>756.6</ele>
        <time>2015-06-13T11:25:14Z</time>
      </trkpt>
      <trkpt lat="45.68275" lon="3.06456">
        <ele>756.5</ele>
        <time>2015-06-13T11:25:26Z</time>
      </trkpt>
      <trkpt lat="45.68352" lon="3.06273">
        <ele>756.2</ele>
        <time>2015-06-13T11:25:42Z</time>
      </trkpt>
      <trkpt lat="45.68353" lon="3.06304">
        <ele>756.1</ele>
        <time>2015-06-13T11:25:58Z</time>
      </trkpt>
      <trkpt lat="45.6835" lon="3.06313">
        <ele>756.4</ele>
        <time>2015-06-13T11:26:34Z</time>
      </trkpt>
      <trkpt lat="45.68342" lon="3.0632">
        <ele>756.1</ele>
        <time>2015-06-13T11:27:45Z</time>
      </trkpt>
      <trkpt lat="45.68346" lon="3.06313">
        <ele>756.5</ele>
        <time>2015-06-13T11:29:44Z</time>
      </trkpt>
      <trkpt lat="45.6835" lon="3.06305">
        <ele>756.6</ele>
        <time>2015-06-13T11:33:54Z</time>
      </trkpt>
      <trkpt lat="45.68355" lon="3.0631">
        <ele>757.2</ele>
        <time>2015-06-13T11:39:05Z</time>
      </trkpt>
      <trkpt lat="45.68389" lon="3.06274">
        <ele>763.8</ele>
        <time>2015-06-13T11:39:49Z</time>
      </trkpt>
      <trkpt lat="45.68408" lon="3.06177">
        <ele>766.5</ele>
        <time>2015-06-13T11:40:09Z</time>
      </trkpt>
      <trkpt lat="45.68428" lon="3.06168">
        <ele>766.2</ele>
        <time>2015-06-13T11:40:43Z</time>
      </trkpt>
      <trkpt lat="45.68455" lon="3.06158">
        <ele>764.8</ele>
        <time>2015-06-13T11:41:09Z</time>
      </trkpt>
      <trkpt lat="45.68461" lon="3.06309">
        <ele>759.9</ele>
        <time>2015-06-13T11:41:51Z</time>
      </trkpt>
      <trkpt lat="45.68467" lon="3.06465">
        <ele>755.1</ele>
        <time>2015-06-13T11:42:35Z</time>
      </trkpt>
      <trkpt lat="45.68462" lon="3.06605">
        <ele>749.2</ele>
        <time>2015-06-13T11:43:15Z</time>
      </trkpt>
      <trkpt lat="45.68455" lon="3.06769">
        <ele>743.1</ele>
        <time>2015-06-13T11:44:01Z</time>
      </trkpt>
      <trkpt lat="45.68409" lon="3.06886">
        <ele>738.3</ele>
        <time>2015-06-13T11:44:43Z</time>
      </trkpt>
      <trkpt lat="45.68356" lon="3.0697">
        <ele>733.4</ele>
        <time>2015-06-13T11:45:21Z</time>
      </trkpt>
      <trkpt lat="45.68341" lon="3.06996">
        <ele>733.4</ele>
        <time>2015-06-13T11:45:41Z</time>
      </trkpt>
      <trkpt lat="45.68348" lon="3.06998">
        <ele>732.6</ele>
        <time>2015-06-13T11:45:57Z</time>
      </trkpt>
      <trkpt lat="45.68301" lon="3.0696">
        <ele>725.8</ele>
        <time>2015-06-13T11:46:51Z</time>
      </trkpt>
      <trkpt lat="45.68281" lon="3.06943">
        <ele>722.1</ele>
        <time>2015-06-13T11:47:09Z</time>
      </trkpt>
      <trkpt lat="45.68245" lon="3.06921">
        <ele>717</ele>
        <time>2015-06-13T11:47:40Z</time>
      </trkpt>
      <trkpt lat="45.68204" lon="3.06902">
        <ele>710.8</ele>
        <time>2015-06-13T11:48:12Z</time>
      </trkpt>
      <trkpt lat="45.68158" lon="3.06883">
        <ele>704.2</ele>
        <time>2015-06-13T11:48:46Z</time>
      </trkpt>
      <trkpt lat="45.68093" lon="3.06878">
        <ele>695.4</ele>
        <time>2015-06-13T11:49:36Z</time>
      </trkpt>
      <trkpt lat="45.6804" lon="3.06878">
        <ele>688</ele>
        <time>2015-06-13T11:50:12Z</time>
      </trkpt>
      <trkpt lat="45.67987" lon="3.06871">
        <ele>681.8</ele>
        <time>2015-06-13T11:50:50Z</time>
      </trkpt>
      <trkpt lat="45.67865" lon="3.06843">
        <ele>677.6</ele>
        <time>2015-06-13T11:51:30Z</time>
      </trkpt>
      <trkpt lat="45.67767" lon="3.06851">
        <ele>678</ele>
        <time>2015-06-13T11:52:02Z</time>
      </trkpt>
      <trkpt lat="45.67672" lon="3.06875">
        <ele>678.7</ele>
        <time>2015-06-13T11:52:30Z</time>
      </trkpt>
      <trkpt lat="45.67477" lon="3.06904">
        <ele>679.6</ele>
        <time>2015-06-13T11:53:26Z</time>
      </trkpt>
      <trkpt lat="45.673" lon="3.06963">
        <ele>676.8</ele>
        <time>2015-06-13T11:54:26Z</time>
      </trkpt>
      <trkpt lat="45.67266" lon="3.06977">
        <ele>677.1</ele>
        <time>2015-06-13T11:55:14Z</time>
      </trkpt>
      <trkpt lat="45.67198" lon="3.06999">
        <ele>675.5</ele>
        <time>2015-06-13T11:55:46Z</time>
      </trkpt>
      <trkpt lat="45.67139" lon="3.0702">
        <ele>672.1</ele>
        <time>2015-06-13T11:56:24Z</time>
      </trkpt>
      <trkpt lat="45.6712" lon="3.07029">
        <ele>669</ele>
        <time>2015-06-13T11:56:48Z</time>
      </trkpt>
      <trkpt lat="45.671" lon="3.07027">
        <ele>663.8</ele>
        <time>2015-06-13T11:57:12Z</time>
      </trkpt>
      <trkpt lat="45.67048" lon="3.06997">
        <ele>654.8</ele>
        <time>2015-06-13T11:58:00Z</time>
      </trkpt>
      <trkpt lat="45.67021" lon="3.06973">
        <ele>648.6</ele>
        <time>2015-06-13T11:58:34Z</time>
      </trkpt>
      <trkpt lat="45.66977" lon="3.06932">
        <ele>639</ele>
        <time>2015-06-13T11:59:20Z</time>
      </trkpt>
      <trkpt lat="45.66945" lon="3.06896">
        <ele>632.7</ele>
        <time>2015-06-13T11:59:50Z</time>
      </trkpt>
      <trkpt lat="45.66932" lon="3.06874">
        <ele>628.4</ele>
        <time>2015-06-13T12:00:04Z</time>
      </trkpt>
      <trkpt lat="45.66907" lon="3.06811">
        <ele>622.1</ele>
        <time>2015-06-13T12:00:38Z</time>
      </trkpt>
      <trkpt lat="45.6685" lon="3.06758">
        <ele>615.6</ele>
        <time>2015-06-13T12:01:10Z</time>
      </trkpt>
      <trkpt lat="45.668" lon="3.06745">
        <ele>612.6</ele>
        <time>2015-06-13T12:01:30Z</time>
      </trkpt>
      <trkpt lat="45.66769" lon="3.06721">
        <ele>610.3</ele>
        <time>2015-06-13T12:02:04Z</time>
      </trkpt>
      <trkpt lat="45.66698" lon="3.06688">
        <ele>607.5</ele>
        <time>2015-06-13T12:02:30Z</time>
      </trkpt>
      <trkpt lat="45.66576" lon="3.06617">
        <ele>603.4</ele>
        <time>2015-06-13T12:03:12Z</time>
      </trkpt>
      <trkpt lat="45.66521" lon="3.06608">
        <ele>602.2</ele>
        <time>2015-06-13T12:03:30Z</time>
      </trkpt>
      <trkpt lat="45.664" lon="3.06595">
        <ele>604</ele>
        <time>2015-06-13T12:04:06Z</time>
      </trkpt>
      <trkpt lat="45.66341" lon="3.06638">
        <ele>603</ele>
        <time>2015-06-13T12:04:32Z</time>
      </trkpt>
      <trkpt lat="45.6628" lon="3.06733">
        <ele>596.8</ele>
        <time>2015-06-13T12:05:08Z</time>
      </trkpt>
      <trkpt lat="45.66188" lon="3.0674">
        <ele>594.4</ele>
        <time>2015-06-13T12:05:36Z</time>
      </trkpt>
      <trkpt lat="45.6607" lon="3.06855">
        <ele>590.9</ele>
        <time>2015-06-13T12:06:30Z</time>
      </trkpt>
      <trkpt lat="45.66041" lon="3.06865">
        <ele>587.2</ele>
        <time>2015-06-13T12:06:52Z</time>
      </trkpt>
      <trkpt lat="45.66048" lon="3.06954">
        <ele>583.2</ele>
        <time>2015-06-13T12:07:14Z</time>
      </trkpt>
      <trkpt lat="45.66061" lon="3.07007">
        <ele>580.1</ele>
        <time>2015-06-13T12:07:28Z</time>
      </trkpt>
      <trkpt lat="45.66088" lon="3.07151">
        <ele>575.5</ele>
        <time>2015-06-13T12:08:00Z</time>
      </trkpt>
      <trkpt lat="45.66134" lon="3.07346">
        <ele>572.3</ele>
        <time>2015-06-13T12:08:38Z</time>
      </trkpt>
      <trkpt lat="45.6612" lon="3.07459">
        <ele>571.3</ele>
        <time>2015-06-13T12:09:32Z</time>
      </trkpt>
      <trkpt lat="45.6608" lon="3.07583">
        <ele>568.8</ele>
        <time>2015-06-13T12:10:18Z</time>
      </trkpt>
      <trkpt lat="45.66087" lon="3.0764">
        <ele>569.5</ele>
        <time>2015-06-13T12:10:32Z</time>
      </trkpt>
      <trkpt lat="45.66116" lon="3.07735">
        <ele>563.8</ele>
        <time>2015-06-13T12:11:08Z</time>
      </trkpt>
      <trkpt lat="45.66125" lon="3.07785">
        <ele>556.8</ele>
        <time>2015-06-13T12:11:36Z</time>
      </trkpt>
      <trkpt lat="45.66128" lon="3.07885">
        <ele>554.2</ele>
        <time>2015-06-13T12:13:07Z</time>
      </trkpt>
      <trkpt lat="45.66151" lon="3.08001">
        <ele>548.7</ele>
        <time>2015-06-13T12:13:37Z</time>
      </trkpt>
      <trkpt lat="45.66161" lon="3.08092">
        <ele>543</ele>
        <time>2015-06-13T12:14:03Z</time>
      </trkpt>
      <trkpt lat="45.66195" lon="3.08181">
        <ele>541.1</ele>
        <time>2015-06-13T12:14:54Z</time>
      </trkpt>
      <trkpt lat="45.66199" lon="3.08189">
        <ele>540.9</ele>
        <time>2015-06-13T12:14:58Z</time>
      </trkpt>
      <trkpt lat="45.66201" lon="3.08301">
        <ele>539.2</ele>
        <time>2015-06-13T12:15:26Z</time>
      </trkpt>
      <trkpt lat="45.66192" lon="3.08372">
        <ele>536.2</ele>
        <time>2015-06-13T12:15:44Z</time>
      </trkpt>
      <trkpt lat="45.66244" lon="3.0861">
        <ele>529.1</ele>
        <time>2015-06-13T12:16:44Z</time>
      </trkpt>
      <trkpt lat="45.66305" lon="3.08791">
        <ele>523.9</ele>
        <time>2015-06-13T12:17:26Z</time>
      </trkpt>
      <trkpt lat="45.66383" lon="3.09035">
        <ele>522.2</ele>
        <time>2015-06-13T12:18:22Z</time>
      </trkpt>
      <trkpt lat="45.66417" lon="3.09187">
        <ele>518.4</ele>
        <time>2015-06-13T12:20:00Z</time>
      </trkpt>
      <trkpt lat="45.66432" lon="3.09276">
        <ele>514.7</ele>
        <time>2015-06-13T12:20:28Z</time>
      </trkpt>
      <trkpt lat="45.66463" lon="3.09435">
        <ele>511.1</ele>
        <time>2015-06-13T12:21:14Z</time>
      </trkpt>
      <trkpt lat="45.66473" lon="3.09514">
        <ele>505.4</ele>
        <time>2015-06-13T12:21:44Z</time>
      </trkpt>
      <trkpt lat="45.66483" lon="3.09601">
        <ele>500</ele>
        <time>2015-06-13T12:22:14Z</time>
      </trkpt>
      <trkpt lat="45.66536" lon="3.09568">
        <ele>496.5</ele>
        <time>2015-06-13T12:22:36Z</time>
      </trkpt>
      <trkpt lat="45.66601" lon="3.09471">
        <ele>490.4</ele>
        <time>2015-06-13T12:23:08Z</time>
      </trkpt>
      <trkpt lat="45.66641" lon="3.09424">
        <ele>487.4</ele>
        <time>2015-06-13T12:23:26Z</time>
      </trkpt>
      <trkpt lat="45.66672" lon="3.09396">
        <ele>487.8</ele>
        <time>2015-06-13T12:23:40Z</time>
      </trkpt>
      <trkpt lat="45.66716" lon="3.09418">
        <ele>490.9</ele>
        <time>2015-06-13T12:23:48Z</time>
      </trkpt>
      <trkpt lat="45.66806" lon="3.09461">
        <ele>496.1</ele>
        <time>2015-06-13T12:24:00Z</time>
      </trkpt>
      <trkpt lat="45.66922" lon="3.09448">
        <ele>507.1</ele>
        <time>2015-06-13T12:24:44Z</time>
      </trkpt>
      <trkpt lat="45.66981" lon="3.09446">
        <ele>514.6</ele>
        <time>2015-06-13T12:24:54Z</time>
      </trkpt>
      <trkpt lat="45.67041" lon="3.0944">
        <ele>521.6</ele>
        <time>2015-06-13T12:25:02Z</time>
      </trkpt>
      <trkpt lat="45.67073" lon="3.09435">
        <ele>525.2</ele>
        <time>2015-06-13T12:25:06Z</time>
      </trkpt>
      <trkpt lat="45.67145" lon="3.09414">
        <ele>532.4</ele>
        <time>2015-06-13T12:25:14Z</time>
      </trkpt>
      <trkpt lat="45.67183" lon="3.09405">
        <ele>535.1</ele>
        <time>2015-06-13T12:25:18Z</time>
      </trkpt>
      <trkpt lat="45.67218" lon="3.09388">
        <ele>538.5</ele>
        <time>2015-06-13T12:25:22Z</time>
      </trkpt>
      <trkpt lat="45.67272" lon="3.09349">
        <ele>543.1</ele>
        <time>2015-06-13T12:25:28Z</time>
      </trkpt>
      <trkpt lat="45.67291" lon="3.09337">
        <ele>544.6</ele>
        <time>2015-06-13T12:25:30Z</time>
      </trkpt>
      <trkpt lat="45.67332" lon="3.09277">
        <ele>549.1</ele>
        <time>2015-06-13T12:25:36Z</time>
      </trkpt>
      <trkpt lat="45.67359" lon="3.09203">
        <ele>554.1</ele>
        <time>2015-06-13T12:25:42Z</time>
      </trkpt>
      <trkpt lat="45.67368" lon="3.09148">
        <ele>557.6</ele>
        <time>2015-06-13T12:25:46Z</time>
      </trkpt>
      <trkpt lat="45.67368" lon="3.09059">
        <ele>562.3</ele>
        <time>2015-06-13T12:25:52Z</time>
      </trkpt>
      <trkpt lat="45.67374" lon="3.0899">
        <ele>565.9</ele>
        <time>2015-06-13T12:25:56Z</time>
      </trkpt>
      <trkpt lat="45.67395" lon="3.08865">
        <ele>572.1</ele>
        <time>2015-06-13T12:26:04Z</time>
      </trkpt>
      <trkpt lat="45.67428" lon="3.08756">
        <ele>577.3</ele>
        <time>2015-06-13T12:26:12Z</time>
      </trkpt>
      <trkpt lat="45.67414" lon="3.08628">
        <ele>581.4</ele>
        <time>2015-06-13T12:26:24Z</time>
      </trkpt>
      <trkpt lat="45.67422" lon="3.0858">
        <ele>579.1</ele>
        <time>2015-06-13T12:26:42Z</time>
      </trkpt>
      <trkpt lat="45.67407" lon="3.08609">
        <ele>579.3</ele>
        <time>2015-06-13T12:26:50Z</time>
      </trkpt>
      <trkpt lat="45.67342" lon="3.08737">
        <ele>580.5</ele>
        <time>2015-06-13T12:27:24Z</time>
      </trkpt>
      <trkpt lat="45.67311" lon="3.08845">
        <ele>575.6</ele>
        <time>2015-06-13T12:27:58Z</time>
      </trkpt>
      <trkpt lat="45.6725" lon="3.09046">
        <ele>571</ele>
        <time>2015-06-13T12:28:56Z</time>
      </trkpt>
      <trkpt lat="45.67218" lon="3.09145">
        <ele>565.9</ele>
        <time>2015-06-13T12:29:36Z</time>
      </trkpt>
      <trkpt lat="45.67241" lon="3.09078">
        <ele>571.3</ele>
        <time>2015-06-13T12:31:14Z</time>
      </trkpt>
      <trkpt lat="45.67285" lon="3.0894">
        <ele>574.5</ele>
        <time>2015-06-13T12:31:54Z</time>
      </trkpt>
      <trkpt lat="45.67332" lon="3.08771">
        <ele>580</ele>
        <time>2015-06-13T12:32:20Z</time>
      </trkpt>
      <trkpt lat="45.67389" lon="3.086">
        <ele>579.2</ele>
        <time>2015-06-13T12:33:02Z</time>
      </trkpt>
      <trkpt lat="45.67414" lon="3.08535">
        <ele>585.7</ele>
        <time>2015-06-13T12:33:18Z</time>
      </trkpt>
      <trkpt lat="45.67437" lon="3.08503">
        <ele>590.6</ele>
        <time>2015-06-13T12:33:24Z</time>
      </trkpt>
      <trkpt lat="45.67451" lon="3.08442">
        <ele>597.7</ele>
        <time>2015-06-13T12:33:32Z</time>
      </trkpt>
      <trkpt lat="45.6747" lon="3.08338">
        <ele>605.1</ele>
        <time>2015-06-13T12:33:42Z</time>
      </trkpt>
      <trkpt lat="45.6747" lon="3.08302">
        <ele>607.3</ele>
        <time>2015-06-13T12:33:46Z</time>
      </trkpt>
      <trkpt lat="45.67466" lon="3.08184">
        <ele>612.2</ele>
        <time>2015-06-13T12:34:04Z</time>
      </trkpt>
      <trkpt lat="45.67456" lon="3.08135">
        <ele>616.5</ele>
        <time>2015-06-13T12:34:14Z</time>
      </trkpt>
      <trkpt lat="45.67425" lon="3.08052">
        <ele>624.1</ele>
        <time>2015-06-13T12:34:26Z</time>
      </trkpt>
      <trkpt lat="45.67409" lon="3.07992">
        <ele>630.5</ele>
        <time>2015-06-13T12:34:34Z</time>
      </trkpt>
      <trkpt lat="45.6741" lon="3.07916">
        <ele>636</ele>
        <time>2015-06-13T12:34:42Z</time>
      </trkpt>
      <trkpt lat="45.67421" lon="3.07856">
        <ele>639.1</ele>
        <time>2015-06-13T12:34:48Z</time>
      </trkpt>
      <trkpt lat="45.67446" lon="3.07783">
        <ele>642.1</ele>
        <time>2015-06-13T12:34:56Z</time>
      </trkpt>
      <trkpt lat="45.67489" lon="3.0765">
        <ele>645.8</ele>
        <time>2015-06-13T12:35:10Z</time>
      </trkpt>
      <trkpt lat="45.67547" lon="3.0758">
        <ele>650</ele>
        <time>2015-06-13T12:35:20Z</time>
      </trkpt>
      <trkpt lat="45.67594" lon="3.0757">
        <ele>653.7</ele>
        <time>2015-06-13T12:35:26Z</time>
      </trkpt>
      <trkpt lat="45.67635" lon="3.07593">
        <ele>657.4</ele>
        <time>2015-06-13T12:35:32Z</time>
      </trkpt>
      <trkpt lat="45.67714" lon="3.07657">
        <ele>663.4</ele>
        <time>2015-06-13T12:35:44Z</time>
      </trkpt>
      <trkpt lat="45.67781" lon="3.07692">
        <ele>667.3</ele>
        <time>2015-06-13T12:35:52Z</time>
      </trkpt>
      <trkpt lat="45.6783" lon="3.07751">
        <ele>671</ele>
        <time>2015-06-13T12:36:00Z</time>
      </trkpt>
      <trkpt lat="45.6787" lon="3.07828">
        <ele>674.3</ele>
        <time>2015-06-13T12:36:08Z</time>
      </trkpt>
      <trkpt lat="45.67907" lon="3.07942">
        <ele>678.6</ele>
        <time>2015-06-13T12:36:18Z</time>
      </trkpt>
      <trkpt lat="45.67984" lon="3.08004">
        <ele>682.2</ele>
        <time>2015-06-13T12:36:34Z</time>
      </trkpt>
      <trkpt lat="45.67991" lon="3.08018">
        <ele>689.7</ele>
        <time>2015-06-13T12:36:50Z</time>
      </trkpt>
      <trkpt lat="45.67963" lon="3.08083">
        <ele>696</ele>
        <time>2015-06-13T12:37:04Z</time>
      </trkpt>
      <trkpt lat="45.67887" lon="3.08154">
        <ele>699.3</ele>
        <time>2015-06-13T12:37:22Z</time>
      </trkpt>
      <trkpt lat="45.67831" lon="3.08161">
        <ele>697.9</ele>
        <time>2015-06-13T12:38:02Z</time>
      </trkpt>
      <trkpt lat="45.67765" lon="3.0815">
        <ele>692.4</ele>
        <time>2015-06-13T12:38:38Z</time>
      </trkpt>
      <trkpt lat="45.67726" lon="3.08128">
        <ele>685.8</ele>
        <time>2015-06-13T12:39:08Z</time>
      </trkpt>
      <trkpt lat="45.67704" lon="3.08092">
        <ele>685.5</ele>
        <time>2015-06-13T12:39:28Z</time>
      </trkpt>
      <trkpt lat="45.67685" lon="3.08026">
        <ele>688.7</ele>
        <time>2015-06-13T12:39:46Z</time>
      </trkpt>
      <trkpt lat="45.67644" lon="3.07906">
        <ele>691.2</ele>
        <time>2015-06-13T12:40:20Z</time>
      </trkpt>
      <trkpt lat="45.67655" lon="3.07921">
        <ele>692.1</ele>
        <time>2015-06-13T12:42:24Z</time>
      </trkpt>
      <trkpt lat="45.67683" lon="3.08046">
        <ele>687.2</ele>
        <time>2015-06-13T12:43:08Z</time>
      </trkpt>
      <trkpt lat="45.67709" lon="3.0821">
        <ele>679.9</ele>
        <time>2015-06-13T12:50:05Z</time>
      </trkpt>
      <trkpt lat="45.67717" lon="3.083">
        <ele>669.2</ele>
        <time>2015-06-13T12:51:01Z</time>
      </trkpt>
      <trkpt lat="45.67723" lon="3.0841">
        <ele>662.7</ele>
        <time>2015-06-13T12:51:29Z</time>
      </trkpt>
      <trkpt lat="45.67741" lon="3.08483">
        <ele>661.6</ele>
        <time>2015-06-13T12:51:47Z</time>
      </trkpt>
      <trkpt lat="45.67736" lon="3.08556">
        <ele>661.7</ele>
        <time>2015-06-13T12:52:01Z</time>
      </trkpt>
      <trkpt lat="45.67741" lon="3.08646">
        <ele>665.3</ele>
        <time>2015-06-13T12:52:19Z</time>
      </trkpt>
      <trkpt lat="45.67761" lon="3.08687">
        <ele>670.3</ele>
        <time>2015-06-13T12:52:29Z</time>
      </trkpt>
      <trkpt lat="45.67782" lon="3.08737">
        <ele>677.8</ele>
        <time>2015-06-13T12:52:43Z</time>
      </trkpt>
      <trkpt lat="45.67798" lon="3.08759">
        <ele>681.6</ele>
        <time>2015-06-13T12:52:51Z</time>
      </trkpt>
      <trkpt lat="45.67825" lon="3.0883">
        <ele>687.3</ele>
        <time>2015-06-13T12:53:11Z</time>
      </trkpt>
      <trkpt lat="45.67846" lon="3.08831">
        <ele>693.7</ele>
        <time>2015-06-13T12:53:46Z</time>
      </trkpt>
      <trkpt lat="45.67852" lon="3.0883">
        <ele>696.6</ele>
        <time>2015-06-13T12:54:03Z</time>
      </trkpt>
      <trkpt lat="45.67884" lon="3.08822">
        <ele>696.5</ele>
        <time>2015-06-13T12:54:21Z</time>
      </trkpt>
      <trkpt lat="45.68058" lon="3.08866">
        <ele>688.9</ele>
        <time>2015-06-13T12:55:17Z</time>
      </trkpt>
      <trkpt lat="45.68098" lon="3.08837">
        <ele>689</ele>
        <time>2015-06-13T12:55:39Z</time>
      </trkpt>
      <trkpt lat="45.68117" lon="3.08786">
        <ele>692.5</ele>
        <time>2015-06-13T12:56:05Z</time>
      </trkpt>
      <trkpt lat="45.68154" lon="3.087">
        <ele>698.5</ele>
        <time>2015-06-13T12:56:21Z</time>
      </trkpt>
      <trkpt lat="45.68169" lon="3.08602">
        <ele>704.9</ele>
        <time>2015-06-13T12:56:39Z</time>
      </trkpt>
      <trkpt lat="45.68187" lon="3.08523">
        <ele>708</ele>
        <time>2015-06-13T12:56:53Z</time>
      </trkpt>
      <trkpt lat="45.68208" lon="3.08438">
        <ele>710.6</ele>
        <time>2015-06-13T12:59:04Z</time>
      </trkpt>
      <trkpt lat="45.68223" lon="3.08368">
        <ele>712.7</ele>
        <time>2015-06-13T12:59:16Z</time>
      </trkpt>
      <trkpt lat="45.68304" lon="3.08104">
        <ele>715.8</ele>
        <time>2015-06-13T13:00:04Z</time>
      </trkpt>
      <trkpt lat="45.68345" lon="3.0792">
        <ele>717</ele>
        <time>2015-06-13T13:00:42Z</time>
      </trkpt>
      <trkpt lat="45.68366" lon="3.07741">
        <ele>719.3</ele>
        <time>2015-06-13T13:01:32Z</time>
      </trkpt>
      <trkpt lat="45.68404" lon="3.07479">
        <ele>725.6</ele>
        <time>2015-06-13T13:02:12Z</time>
      </trkpt>
      <trkpt lat="45.68416" lon="3.07347">
        <ele>729.4</ele>
        <time>2015-06-13T13:02:28Z</time>
      </trkpt>
      <trkpt lat="45.68391" lon="3.07161">
        <ele>733</ele>
        <time>2015-06-13T13:02:54Z</time>
      </trkpt>
      <trkpt lat="45.68392" lon="3.07135">
        <ele>733.6</ele>
        <time>2015-06-13T13:02:58Z</time>
      </trkpt>
      <trkpt lat="45.68398" lon="3.06971">
        <ele>735</ele>
        <time>2015-06-13T13:03:28Z</time>
      </trkpt>
      <trkpt lat="45.68439" lon="3.06845">
        <ele>741.2</ele>
        <time>2015-06-13T13:03:54Z</time>
      </trkpt>
      <trkpt lat="45.68451" lon="3.06787">
        <ele>744.3</ele>
        <time>2015-06-13T13:04:04Z</time>
      </trkpt>
      <trkpt lat="45.68461" lon="3.06732">
        <ele>746.9</ele>
        <time>2015-06-13T13:04:12Z</time>
      </trkpt>
      <trkpt lat="45.68457" lon="3.06636">
        <ele>750.6</ele>
        <time>2015-06-13T13:04:24Z</time>
      </trkpt>
      <trkpt lat="45.68462" lon="3.06518">
        <ele>754.9</ele>
        <time>2015-06-13T13:04:40Z</time>
      </trkpt>
      <trkpt lat="45.68443" lon="3.06295">
        <ele>762.8</ele>
        <time>2015-06-13T13:05:20Z</time>
      </trkpt>
      <trkpt lat="45.68431" lon="3.0613">
        <ele>765.8</ele>
        <time>2015-06-13T13:05:48Z</time>
      </trkpt>
      <trkpt lat="45.68415" lon="3.06161">
        <ele>765.6</ele>
        <time>2015-06-13T13:06:04Z</time>
      </trkpt>
      <trkpt lat="45.68382" lon="3.06169">
        <ele>766.3</ele>
        <time>2015-06-13T13:07:43Z</time>
      </trkpt>
      <trkpt lat="45.68381" lon="3.06174">
        <ele>762</ele>
        <time>2015-06-13T13:07:51Z</time>
      </trkpt>
      <trkpt lat="45.68373" lon="3.06193">
        <ele>757.4</ele>
        <time>2015-06-13T13:07:57Z</time>
      </trkpt>
      <trkpt lat="45.68375" lon="3.06204">
        <ele>753.1</ele>
        <time>2015-06-13T13:08:03Z</time>
      </trkpt>
      <trkpt lat="45.68369" lon="3.06256">
        <ele>757.7</ele>
        <time>2015-06-13T13:08:17Z</time>
      </trkpt>
      <trkpt lat="45.68349" lon="3.06299">
        <ele>755.3</ele>
        <time>2015-06-13T16:01:54Z</time>
      </trkpt>
      <trkpt lat="45.68366" lon="3.06244">
        <ele>760.6</ele>
        <time>2015-06-13T16:02:30Z</time>
      </trkpt>
      <trkpt lat="45.68407" lon="3.06176">
        <ele>763.2</ele>
        <time>2015-06-13T16:03:42Z</time>
      </trkpt>
      <trkpt lat="45.68444" lon="3.06108">
        <ele>764.1</ele>
        <time>2015-06-13T16:04:30Z</time>
      </trkpt>
      <trkpt lat="45.68454" lon="3.05919">
        <ele>771.4</ele>
        <time>2015-06-13T16:06:04Z</time>
      </trkpt>
      <trkpt lat="45.68465" lon="3.05758">
        <ele>778.1</ele>
        <time>2015-06-13T16:07:26Z</time>
      </trkpt>
      <trkpt lat="45.68469" lon="3.05753">
        <ele>779.9</ele>
        <time>2015-06-13T16:08:18Z</time>
      </trkpt>
      <trkpt lat="45.68471" lon="3.05684">
        <ele>782.4</ele>
        <time>2015-06-13T16:08:50Z</time>
      </trkpt>
      <trkpt lat="45.68445" lon="3.05625">
        <ele>786.3</ele>
        <time>2015-06-13T16:09:32Z</time>
      </trkpt>
      <trkpt lat="45.6843" lon="3.0558">
        <ele>789.9</ele>
        <time>2015-06-13T16:09:58Z</time>
      </trkpt>
      <trkpt lat="45.68395" lon="3.05494">
        <ele>797.3</ele>
        <time>2015-06-13T16:10:52Z</time>
      </trkpt>
      <trkpt lat="45.68351" lon="3.05437">
        <ele>802.1</ele>
        <time>2015-06-13T16:11:34Z</time>
      </trkpt>
      <trkpt lat="45.68297" lon="3.0543">
        <ele>806.8</ele>
        <time>2015-06-13T16:12:36Z</time>
      </trkpt>
      <trkpt lat="45.6828" lon="3.05385">
        <ele>809.4</ele>
        <time>2015-06-13T16:13:06Z</time>
      </trkpt>
      <trkpt lat="45.68252" lon="3.05277">
        <ele>813.7</ele>
        <time>2015-06-13T16:14:08Z</time>
      </trkpt>
      <trkpt lat="45.68246" lon="3.05211">
        <ele>818.9</ele>
        <time>2015-06-13T16:14:44Z</time>
      </trkpt>
      <trkpt lat="45.68218" lon="3.05144">
        <ele>823.8</ele>
        <time>2015-06-13T16:15:26Z</time>
      </trkpt>
      <trkpt lat="45.68168" lon="3.05098">
        <ele>827.2</ele>
        <time>2015-06-13T16:16:10Z</time>
      </trkpt>
      <trkpt lat="45.68103" lon="3.05052">
        <ele>830.3</ele>
        <time>2015-06-13T16:17:04Z</time>
      </trkpt>
      <trkpt lat="45.68058" lon="3.04994">
        <ele>834.1</ele>
        <time>2015-06-13T16:17:48Z</time>
      </trkpt>
      <trkpt lat="45.68019" lon="3.04947">
        <ele>836</ele>
        <time>2015-06-13T16:18:28Z</time>
      </trkpt>
      <trkpt lat="45.68018" lon="3.0487">
        <ele>838.8</ele>
        <time>2015-06-13T16:19:12Z</time>
      </trkpt>
      <trkpt lat="45.68056" lon="3.04784">
        <ele>844.3</ele>
        <time>2015-06-13T16:20:12Z</time>
      </trkpt>
      <trkpt lat="45.68065" lon="3.04689">
        <ele>850.8</ele>
        <time>2015-06-13T16:21:08Z</time>
      </trkpt>
      <trkpt lat="45.68091" lon="3.04613">
        <ele>857.8</ele>
        <time>2015-06-13T16:21:54Z</time>
      </trkpt>
      <trkpt lat="45.68115" lon="3.04549">
        <ele>864.1</ele>
        <time>2015-06-13T16:22:36Z</time>
      </trkpt>
      <trkpt lat="45.6812" lon="3.04487">
        <ele>868.2</ele>
        <time>2015-06-13T16:23:10Z</time>
      </trkpt>
      <trkpt lat="45.68104" lon="3.04407">
        <ele>874.1</ele>
        <time>2015-06-13T16:23:52Z</time>
      </trkpt>
      <trkpt lat="45.68094" lon="3.04354">
        <ele>878.9</ele>
        <time>2015-06-13T16:24:20Z</time>
      </trkpt>
      <trkpt lat="45.68077" lon="3.0429">
        <ele>883.9</ele>
        <time>2015-06-13T16:24:54Z</time>
      </trkpt>
      <trkpt lat="45.68029" lon="3.04222">
        <ele>887.2</ele>
        <time>2015-06-13T16:25:42Z</time>
      </trkpt>
      <trkpt lat="45.68029" lon="3.04167">
        <ele>889.2</ele>
        <time>2015-06-13T16:26:08Z</time>
      </trkpt>
      <trkpt lat="45.68027" lon="3.04081">
        <ele>889.5</ele>
        <time>2015-06-13T16:26:48Z</time>
      </trkpt>
      <trkpt lat="45.68031" lon="3.03942">
        <ele>893.9</ele>
        <time>2015-06-13T16:27:58Z</time>
      </trkpt>
      <trkpt lat="45.68053" lon="3.03859">
        <ele>898.2</ele>
        <time>2015-06-13T16:28:42Z</time>
      </trkpt>
      <trkpt lat="45.68056" lon="3.03768">
        <ele>901.2</ele>
        <time>2015-06-13T16:29:26Z</time>
      </trkpt>
      <trkpt lat="45.6806" lon="3.03649">
        <ele>904.7</ele>
        <time>2015-06-13T16:30:22Z</time>
      </trkpt>
      <trkpt lat="45.68074" lon="3.03566">
        <ele>907.7</ele>
        <time>2015-06-13T16:31:02Z</time>
      </trkpt>
      <trkpt lat="45.68078" lon="3.03516">
        <ele>908.9</ele>
        <time>2015-06-13T16:31:26Z</time>
      </trkpt>
      <trkpt lat="45.68075" lon="3.03419">
        <ele>913.3</ele>
        <time>2015-06-13T16:32:14Z</time>
      </trkpt>
      <trkpt lat="45.68139" lon="3.03404">
        <ele>918.6</ele>
        <time>2015-06-13T16:32:58Z</time>
      </trkpt>
      <trkpt lat="45.68178" lon="3.03382">
        <ele>922.3</ele>
        <time>2015-06-13T16:33:28Z</time>
      </trkpt>
      <trkpt lat="45.68166" lon="3.03271">
        <ele>930.1</ele>
        <time>2015-06-13T16:34:28Z</time>
      </trkpt>
      <trkpt lat="45.68166" lon="3.03226">
        <ele>933.3</ele>
        <time>2015-06-13T16:34:50Z</time>
      </trkpt>
      <trkpt lat="45.68162" lon="3.03122">
        <ele>936.9</ele>
        <time>2015-06-13T16:35:38Z</time>
      </trkpt>
      <trkpt lat="45.68167" lon="3.03075">
        <ele>938</ele>
        <time>2015-06-13T16:36:00Z</time>
      </trkpt>
      <trkpt lat="45.68147" lon="3.02835">
        <ele>943.9</ele>
        <time>2015-06-13T16:37:52Z</time>
      </trkpt>
      <trkpt lat="45.68151" lon="3.02735">
        <ele>943.6</ele>
        <time>2015-06-13T16:38:40Z</time>
      </trkpt>
      <trkpt lat="45.68156" lon="3.02692">
        <ele>940.5</ele>
        <time>2015-06-13T16:39:02Z</time>
      </trkpt>
      <trkpt lat="45.68201" lon="3.0254">
        <ele>940.9</ele>
        <time>2015-06-13T16:40:26Z</time>
      </trkpt>
      <trkpt lat="45.68224" lon="3.02486">
        <ele>943.8</ele>
        <time>2015-06-13T16:40:56Z</time>
      </trkpt>
      <trkpt lat="45.68294" lon="3.02464">
        <ele>946.3</ele>
        <time>2015-06-13T16:41:46Z</time>
      </trkpt>
      <trkpt lat="45.68391" lon="3.02506">
        <ele>950.6</ele>
        <time>2015-06-13T16:42:54Z</time>
      </trkpt>
      <trkpt lat="45.68421" lon="3.02523">
        <ele>950.2</ele>
        <time>2015-06-13T16:43:16Z</time>
      </trkpt>
      <trkpt lat="45.6853" lon="3.0258">
        <ele>946.7</ele>
        <time>2015-06-13T16:44:38Z</time>
      </trkpt>
      <trkpt lat="45.68598" lon="3.02603">
        <ele>945.6</ele>
        <time>2015-06-13T16:45:26Z</time>
      </trkpt>
      <trkpt lat="45.68694" lon="3.02565">
        <ele>948.3</ele>
        <time>2015-06-13T16:46:36Z</time>
      </trkpt>
      <trkpt lat="45.6872" lon="3.02546">
        <ele>949.6</ele>
        <time>2015-06-13T16:47:26Z</time>
      </trkpt>
      <trkpt lat="45.68726" lon="3.02466">
        <ele>954.8</ele>
        <time>2015-06-13T16:48:14Z</time>
      </trkpt>
      <trkpt lat="45.68715" lon="3.02349">
        <ele>960.7</ele>
        <time>2015-06-13T16:49:47Z</time>
      </trkpt>
      <trkpt lat="45.68704" lon="3.02207">
        <ele>966.8</ele>
        <time>2015-06-13T16:50:55Z</time>
      </trkpt>
      <trkpt lat="45.68712" lon="3.0211">
        <ele>972.2</ele>
        <time>2015-06-13T16:51:41Z</time>
      </trkpt>
      <trkpt lat="45.68749" lon="3.02014">
        <ele>979.4</ele>
        <time>2015-06-13T16:52:59Z</time>
      </trkpt>
      <trkpt lat="45.68747" lon="3.01938">
        <ele>983.1</ele>
        <time>2015-06-13T16:53:37Z</time>
      </trkpt>
      <trkpt lat="45.68757" lon="3.01871">
        <ele>987.3</ele>
        <time>2015-06-13T16:54:17Z</time>
      </trkpt>
      <trkpt lat="45.68764" lon="3.0177">
        <ele>992.1</ele>
        <time>2015-06-13T16:55:15Z</time>
      </trkpt>
      <trkpt lat="45.68766" lon="3.01763">
        <ele>992.4</ele>
        <time>2015-06-13T16:55:19Z</time>
      </trkpt>
      <trkpt lat="45.68789" lon="3.01698">
        <ele>998.2</ele>
        <time>2015-06-13T16:55:57Z</time>
      </trkpt>
      <trkpt lat="45.68809" lon="3.01655">
        <ele>1000.1</ele>
        <time>2015-06-13T16:56:33Z</time>
      </trkpt>
      <trkpt lat="45.68839" lon="3.01496">
        <ele>1004.9</ele>
        <time>2015-06-13T16:58:22Z</time>
      </trkpt>
      <trkpt lat="45.68869" lon="3.01395">
        <ele>1008.6</ele>
        <time>2015-06-13T16:59:14Z</time>
      </trkpt>
      <trkpt lat="45.68882" lon="3.01329">
        <ele>1008.8</ele>
        <time>2015-06-13T17:01:07Z</time>
      </trkpt>
      <trkpt lat="45.68895" lon="3.01173">
        <ele>1008.3</ele>
        <time>2015-06-13T17:02:35Z</time>
      </trkpt>
      <trkpt lat="45.68923" lon="3.00998">
        <ele>1006.5</ele>
        <time>2015-06-13T17:04:07Z</time>
      </trkpt>
      <trkpt lat="45.6898" lon="3.00851">
        <ele>1000.9</ele>
        <time>2015-06-13T17:05:37Z</time>
      </trkpt>
      <trkpt lat="45.6903" lon="3.00795">
        <ele>994.1</ele>
        <time>2015-06-13T17:06:31Z</time>
      </trkpt>
      <trkpt lat="45.69079" lon="3.00754">
        <ele>990.2</ele>
        <time>2015-06-13T17:07:15Z</time>
      </trkpt>
      <trkpt lat="45.69115" lon="3.00685">
        <ele>981.6</ele>
        <time>2015-06-13T17:08:15Z</time>
      </trkpt>
      <trkpt lat="45.69141" lon="3.00641">
        <ele>976.9</ele>
        <time>2015-06-13T17:08:49Z</time>
      </trkpt>
      <trkpt lat="45.69185" lon="3.00582">
        <ele>970.5</ele>
        <time>2015-06-13T17:09:37Z</time>
      </trkpt>
      <trkpt lat="45.69234" lon="3.00524">
        <ele>966.3</ele>
        <time>2015-06-13T17:10:21Z</time>
      </trkpt>
      <trkpt lat="45.69273" lon="3.00463">
        <ele>962.1</ele>
        <time>2015-06-13T17:11:13Z</time>
      </trkpt>
      <trkpt lat="45.69282" lon="3.00481">
        <ele>965.3</ele>
        <time>2015-06-13T17:11:35Z</time>
      </trkpt>
      <trkpt lat="45.69287" lon="3.00517">
        <ele>972.4</ele>
        <time>2015-06-13T17:12:17Z</time>
      </trkpt>
      <trkpt lat="45.69282" lon="3.00513">
        <ele>969.2</ele>
        <time>2015-06-13T17:13:13Z</time>
      </trkpt>
      <trkpt lat="45.69281" lon="3.00486">
        <ele>965.2</ele>
        <time>2015-06-13T17:13:37Z</time>
      </trkpt>
      <trkpt lat="45.6928" lon="3.00448">
        <ele>958.8</ele>
        <time>2015-06-13T17:14:07Z</time>
      </trkpt>
      <trkpt lat="45.69297" lon="3.00391">
        <ele>953.3</ele>
        <time>2015-06-13T17:14:49Z</time>
      </trkpt>
      <trkpt lat="45.6932" lon="3.00337">
        <ele>948.1</ele>
        <time>2015-06-13T17:15:29Z</time>
      </trkpt>
      <trkpt lat="45.69333" lon="3.00287">
        <ele>942.7</ele>
        <time>2015-06-13T17:16:11Z</time>
      </trkpt>
      <trkpt lat="45.69345" lon="3.00203">
        <ele>936.9</ele>
        <time>2015-06-13T17:16:59Z</time>
      </trkpt>
      <trkpt lat="45.69357" lon="3.0015">
        <ele>933.5</ele>
        <time>2015-06-13T17:17:35Z</time>
      </trkpt>
      <trkpt lat="45.69377" lon="3.00099">
        <ele>929.9</ele>
        <time>2015-06-13T17:18:07Z</time>
      </trkpt>
      <trkpt lat="45.69414" lon="3.00017">
        <ele>923.5</ele>
        <time>2015-06-13T17:19:03Z</time>
      </trkpt>
      <trkpt lat="45.69447" lon="2.99962">
        <ele>918.4</ele>
        <time>2015-06-13T17:19:41Z</time>
      </trkpt>
      <trkpt lat="45.69452" lon="2.99905">
        <ele>915.1</ele>
        <time>2015-06-13T17:20:13Z</time>
      </trkpt>
      <trkpt lat="45.69439" lon="2.99853">
        <ele>911.1</ele>
        <time>2015-06-13T17:21:01Z</time>
      </trkpt>
      <trkpt lat="45.69434" lon="2.9982">
        <ele>907.5</ele>
        <time>2015-06-13T17:21:19Z</time>
      </trkpt>
      <trkpt lat="45.69419" lon="2.99786">
        <ele>908.9</ele>
        <time>2015-06-13T17:35:36Z</time>
      </trkpt>
      <trkpt lat="45.69428" lon="2.99851">
        <ele>916</ele>
        <time>2015-06-13T17:35:50Z</time>
      </trkpt>
      <trkpt lat="45.69439" lon="2.99929">
        <ele>921.7</ele>
        <time>2015-06-13T17:36:02Z</time>
      </trkpt>
      <trkpt lat="45.69436" lon="2.99978">
        <ele>925.5</ele>
        <time>2015-06-13T17:36:12Z</time>
      </trkpt>
      <trkpt lat="45.69411" lon="3.00021">
        <ele>929.7</ele>
        <time>2015-06-13T17:36:20Z</time>
      </trkpt>
      <trkpt lat="45.69381" lon="3.00077">
        <ele>935.8</ele>
        <time>2015-06-13T17:36:28Z</time>
      </trkpt>
      <trkpt lat="45.69351" lon="3.00156">
        <ele>941.3</ele>
        <time>2015-06-13T17:36:38Z</time>
      </trkpt>
      <trkpt lat="45.69339" lon="3.00242">
        <ele>947.8</ele>
        <time>2015-06-13T17:36:48Z</time>
      </trkpt>
      <trkpt lat="45.69326" lon="3.00305">
        <ele>952.4</ele>
        <time>2015-06-13T17:36:56Z</time>
      </trkpt>
      <trkpt lat="45.69257" lon="3.00421">
        <ele>957.5</ele>
        <time>2015-06-13T17:37:44Z</time>
      </trkpt>
      <trkpt lat="45.69224" lon="3.00458">
        <ele>957.6</ele>
        <time>2015-06-13T17:37:54Z</time>
      </trkpt>
      <trkpt lat="45.691" lon="3.00541">
        <ele>961.8</ele>
        <time>2015-06-13T17:38:26Z</time>
      </trkpt>
      <trkpt lat="45.69013" lon="3.00549">
        <ele>968.1</ele>
        <time>2015-06-13T17:38:44Z</time>
      </trkpt>
      <trkpt lat="45.68939" lon="3.00535">
        <ele>972.3</ele>
        <time>2015-06-13T17:39:02Z</time>
      </trkpt>
      <trkpt lat="45.68863" lon="3.00574">
        <ele>976</ele>
        <time>2015-06-13T17:39:20Z</time>
      </trkpt>
      <trkpt lat="45.68745" lon="3.00637">
        <ele>971.3</ele>
        <time>2015-06-13T17:39:56Z</time>
      </trkpt>
      <trkpt lat="45.68648" lon="3.00695">
        <ele>971.7</ele>
        <time>2015-06-13T17:40:28Z</time>
      </trkpt>
      <trkpt lat="45.68631" lon="3.00788">
        <ele>980.5</ele>
        <time>2015-06-13T17:40:52Z</time>
      </trkpt>
      <trkpt lat="45.68616" lon="3.00848">
        <ele>984</ele>
        <time>2015-06-13T17:41:04Z</time>
      </trkpt>
      <trkpt lat="45.68581" lon="3.01018">
        <ele>985.9</ele>
        <time>2015-06-13T17:41:38Z</time>
      </trkpt>
      <trkpt lat="45.68493" lon="3.01263">
        <ele>981.8</ele>
        <time>2015-06-13T17:42:36Z</time>
      </trkpt>
      <trkpt lat="45.68476" lon="3.01357">
        <ele>980</ele>
        <time>2015-06-13T17:42:56Z</time>
      </trkpt>
      <trkpt lat="45.68446" lon="3.01531">
        <ele>974.6</ele>
        <time>2015-06-13T17:43:38Z</time>
      </trkpt>
      <trkpt lat="45.68401" lon="3.0179">
        <ele>967.1</ele>
        <time>2015-06-13T17:44:38Z</time>
      </trkpt>
      <trkpt lat="45.68399" lon="3.01838">
        <ele>965.1</ele>
        <time>2015-06-13T17:44:50Z</time>
      </trkpt>
      <trkpt lat="45.68416" lon="3.01904">
        <ele>962.1</ele>
        <time>2015-06-13T17:45:08Z</time>
      </trkpt>
      <trkpt lat="45.68404" lon="3.0207">
        <ele>955.8</ele>
        <time>2015-06-13T17:45:44Z</time>
      </trkpt>
      <trkpt lat="45.68421" lon="3.02226">
        <ele>955.1</ele>
        <time>2015-06-13T17:46:20Z</time>
      </trkpt>
      <trkpt lat="45.68562" lon="3.02478">
        <ele>950.1</ele>
        <time>2015-06-13T17:47:20Z</time>
      </trkpt>
      <trkpt lat="45.68638" lon="3.02604">
        <ele>944.8</ele>
        <time>2015-06-13T17:48:06Z</time>
      </trkpt>
      <trkpt lat="45.68718" lon="3.02693">
        <ele>939.4</ele>
        <time>2015-06-13T17:48:54Z</time>
      </trkpt>
      <trkpt lat="45.68767" lon="3.02734">
        <ele>935.4</ele>
        <time>2015-06-13T17:49:22Z</time>
      </trkpt>
      <trkpt lat="45.68803" lon="3.02766">
        <ele>932.2</ele>
        <time>2015-06-13T17:49:42Z</time>
      </trkpt>
      <trkpt lat="45.68824" lon="3.02807">
        <ele>929.1</ele>
        <time>2015-06-13T17:50:00Z</time>
      </trkpt>
      <trkpt lat="45.68852" lon="3.02894">
        <ele>923.3</ele>
        <time>2015-06-13T17:50:36Z</time>
      </trkpt>
      <trkpt lat="45.68881" lon="3.02945">
        <ele>919.1</ele>
        <time>2015-06-13T17:51:00Z</time>
      </trkpt>
      <trkpt lat="45.68913" lon="3.02979">
        <ele>916</ele>
        <time>2015-06-13T17:51:20Z</time>
      </trkpt>
      <trkpt lat="45.6895" lon="3.0299">
        <ele>912.9</ele>
        <time>2015-06-13T17:51:38Z</time>
      </trkpt>
      <trkpt lat="45.68972" lon="3.03013">
        <ele>909.3</ele>
        <time>2015-06-13T17:51:56Z</time>
      </trkpt>
      <trkpt lat="45.69007" lon="3.03043">
        <ele>904.1</ele>
        <time>2015-06-13T17:52:22Z</time>
      </trkpt>
      <trkpt lat="45.69046" lon="3.03067">
        <ele>901.7</ele>
        <time>2015-06-13T17:53:20Z</time>
      </trkpt>
      <trkpt lat="45.69014" lon="3.03148">
        <ele>895.4</ele>
        <time>2015-06-13T17:53:56Z</time>
      </trkpt>
      <trkpt lat="45.6899" lon="3.03194">
        <ele>891.4</ele>
        <time>2015-06-13T17:54:16Z</time>
      </trkpt>
      <trkpt lat="45.68978" lon="3.03241">
        <ele>886.7</ele>
        <time>2015-06-13T17:54:36Z</time>
      </trkpt>
      <trkpt lat="45.6901" lon="3.03325">
        <ele>881.4</ele>
        <time>2015-06-13T17:55:06Z</time>
      </trkpt>
      <trkpt lat="45.69017" lon="3.03386">
        <ele>877.6</ele>
        <time>2015-06-13T17:55:22Z</time>
      </trkpt>
      <trkpt lat="45.69081" lon="3.0342">
        <ele>873.9</ele>
        <time>2015-06-13T17:55:50Z</time>
      </trkpt>
      <trkpt lat="45.69174" lon="3.03401">
        <ele>869</ele>
        <time>2015-06-13T17:56:24Z</time>
      </trkpt>
      <trkpt lat="45.69131" lon="3.03476">
        <ele>863.5</ele>
        <time>2015-06-13T17:57:00Z</time>
      </trkpt>
      <trkpt lat="45.69082" lon="3.035">
        <ele>860.3</ele>
        <time>2015-06-13T17:57:18Z</time>
      </trkpt>
      <trkpt lat="45.69022" lon="3.03493">
        <ele>860</ele>
        <time>2015-06-13T17:57:36Z</time>
      </trkpt>
      <trkpt lat="45.68927" lon="3.0338">
        <ele>857.8</ele>
        <time>2015-06-13T17:58:12Z</time>
      </trkpt>
      <trkpt lat="45.68836" lon="3.03341">
        <ele>852.1</ele>
        <time>2015-06-13T17:58:52Z</time>
      </trkpt>
      <trkpt lat="45.68804" lon="3.03454">
        <ele>846.1</ele>
        <time>2015-06-13T17:59:26Z</time>
      </trkpt>
      <trkpt lat="45.6874" lon="3.03542">
        <ele>841.5</ele>
        <time>2015-06-13T18:00:00Z</time>
      </trkpt>
      <trkpt lat="45.68707" lon="3.03554">
        <ele>838.2</ele>
        <time>2015-06-13T18:00:16Z</time>
      </trkpt>
      <trkpt lat="45.68699" lon="3.03715">
        <ele>830.1</ele>
        <time>2015-06-13T18:01:00Z</time>
      </trkpt>
      <trkpt lat="45.68705" lon="3.03842">
        <ele>824</ele>
        <time>2015-06-13T18:01:36Z</time>
      </trkpt>
      <trkpt lat="45.68696" lon="3.03966">
        <ele>817.4</ele>
        <time>2015-06-13T18:02:12Z</time>
      </trkpt>
      <trkpt lat="45.68693" lon="3.04059">
        <ele>811.6</ele>
        <time>2015-06-13T18:02:40Z</time>
      </trkpt>
      <trkpt lat="45.68685" lon="3.04133">
        <ele>807.5</ele>
        <time>2015-06-13T18:03:02Z</time>
      </trkpt>
      <trkpt lat="45.68666" lon="3.04187">
        <ele>804.4</ele>
        <time>2015-06-13T18:03:18Z</time>
      </trkpt>
      <trkpt lat="45.68657" lon="3.04239">
        <ele>801.3</ele>
        <time>2015-06-13T18:03:32Z</time>
      </trkpt>
      <trkpt lat="45.68642" lon="3.04369">
        <ele>793.1</ele>
        <time>2015-06-13T18:04:08Z</time>
      </trkpt>
      <trkpt lat="45.68641" lon="3.04376">
        <ele>793</ele>
        <time>2015-06-13T18:04:10Z</time>
      </trkpt>
      <trkpt lat="45.68638" lon="3.04481">
        <ele>788.4</ele>
        <time>2015-06-13T18:04:36Z</time>
      </trkpt>
      <trkpt lat="45.68635" lon="3.04671">
        <ele>787.1</ele>
        <time>2015-06-13T18:05:10Z</time>
      </trkpt>
      <trkpt lat="45.68627" lon="3.04742">
        <ele>787.3</ele>
        <time>2015-06-13T18:05:22Z</time>
      </trkpt>
      <trkpt lat="45.68578" lon="3.04948">
        <ele>784.4</ele>
        <time>2015-06-13T18:06:05Z</time>
      </trkpt>
      <trkpt lat="45.68566" lon="3.05127">
        <ele>781.3</ele>
        <time>2015-06-13T18:06:41Z</time>
      </trkpt>
      <trkpt lat="45.68554" lon="3.05202">
        <ele>778.3</ele>
        <time>2015-06-13T18:06:57Z</time>
      </trkpt>
      <trkpt lat="45.68533" lon="3.05303">
        <ele>777.9</ele>
        <time>2015-06-13T18:07:17Z</time>
      </trkpt>
      <trkpt lat="45.68518" lon="3.05368">
        <ele>779.3</ele>
        <time>2015-06-13T18:07:27Z</time>
      </trkpt>
      <trkpt lat="45.68467" lon="3.05602">
        <ele>781.6</ele>
        <time>2015-06-13T18:08:01Z</time>
      </trkpt>
      <trkpt lat="45.68464" lon="3.05759">
        <ele>777</ele>
        <time>2015-06-13T18:08:33Z</time>
      </trkpt>
      <trkpt lat="45.68452" lon="3.05832">
        <ele>773.9</ele>
        <time>2015-06-13T18:08:53Z</time>
      </trkpt>
      <trkpt lat="45.68448" lon="3.05891">
        <ele>770.9</ele>
        <time>2015-06-13T18:09:09Z</time>
      </trkpt>
      <trkpt lat="45.68448" lon="3.06051">
        <ele>764.6</ele>
        <time>2015-06-13T18:09:47Z</time>
      </trkpt>
      <trkpt lat="45.6839" lon="3.06172">
        <ele>763.5</ele>
        <time>2015-06-13T18:11:00Z</time>
      </trkpt>
      <trkpt lat="45.68359" lon="3.06285">
        <ele>756</ele>
        <time>2015-06-13T18:11:44Z</time>
      </trkpt>
      <trkpt lat="45.68351" lon="3.06319">
        <ele>755.1</ele>
        <time>2015-06-13T18:18:39Z</time>
      </trkpt>
      <trkpt lat="45.68352" lon="3.06309">
        <ele>754.5</ele>
        <time>2015-06-13T18:18:48Z</time>
      </trkpt>
      <trkpt lat="45.68433" lon="3.06142">
        <ele>771.8</ele>
        <time>2015-06-15T10:06:10Z</time>
      </trkpt>
      <trkpt lat="45.68446" lon="3.06099">
        <ele>774.8</ele>
        <time>2015-06-15T10:06:22Z</time>
      </trkpt>
      <trkpt lat="45.68454" lon="3.05981">
        <ele>780.5</ele>
        <time>2015-06-15T10:06:32Z</time>
      </trkpt>
      <trkpt lat="45.68453" lon="3.05873">
        <ele>785.2</ele>
        <time>2015-06-15T10:06:40Z</time>
      </trkpt>
      <trkpt lat="45.68473" lon="3.05688">
        <ele>788</ele>
        <time>2015-06-15T10:06:58Z</time>
      </trkpt>
      <trkpt lat="45.68473" lon="3.05506">
        <ele>786.2</ele>
        <time>2015-06-15T10:07:20Z</time>
      </trkpt>
      <trkpt lat="45.68509" lon="3.05371">
        <ele>785.1</ele>
        <time>2015-06-15T10:07:36Z</time>
      </trkpt>
      <trkpt lat="45.68568" lon="3.05101">
        <ele>791.3</ele>
        <time>2015-06-15T10:08:00Z</time>
      </trkpt>
      <trkpt lat="45.6857" lon="3.05079">
        <ele>791.6</ele>
        <time>2015-06-15T10:08:02Z</time>
      </trkpt>
      <trkpt lat="45.68573" lon="3.04995">
        <ele>793.6</ele>
        <time>2015-06-15T10:08:10Z</time>
      </trkpt>
      <trkpt lat="45.68577" lon="3.04929">
        <ele>794</ele>
        <time>2015-06-15T10:08:16Z</time>
      </trkpt>
      <trkpt lat="45.68634" lon="3.04633">
        <ele>798.1</ele>
        <time>2015-06-15T10:08:42Z</time>
      </trkpt>
      <trkpt lat="45.68634" lon="3.04482">
        <ele>805</ele>
        <time>2015-06-15T10:08:50Z</time>
      </trkpt>
      <trkpt lat="45.6864" lon="3.04312">
        <ele>813</ele>
        <time>2015-06-15T10:08:58Z</time>
      </trkpt>
      <trkpt lat="45.68654" lon="3.04155">
        <ele>821</ele>
        <time>2015-06-15T10:09:06Z</time>
      </trkpt>
      <trkpt lat="45.68674" lon="3.04084">
        <ele>825.7</ele>
        <time>2015-06-15T10:09:10Z</time>
      </trkpt>
      <trkpt lat="45.68693" lon="3.03974">
        <ele>830.3</ele>
        <time>2015-06-15T10:09:16Z</time>
      </trkpt>
      <trkpt lat="45.68699" lon="3.03839">
        <ele>837.3</ele>
        <time>2015-06-15T10:09:24Z</time>
      </trkpt>
      <trkpt lat="45.68697" lon="3.03714">
        <ele>844</ele>
        <time>2015-06-15T10:09:32Z</time>
      </trkpt>
      <trkpt lat="45.68699" lon="3.036">
        <ele>848.4</ele>
        <time>2015-06-15T10:09:40Z</time>
      </trkpt>
      <trkpt lat="45.68727" lon="3.03537">
        <ele>852.8</ele>
        <time>2015-06-15T10:09:46Z</time>
      </trkpt>
      <trkpt lat="45.68777" lon="3.03507">
        <ele>856.2</ele>
        <time>2015-06-15T10:09:52Z</time>
      </trkpt>
      <trkpt lat="45.68823" lon="3.03368">
        <ele>860.7</ele>
        <time>2015-06-15T10:10:04Z</time>
      </trkpt>
      <trkpt lat="45.68898" lon="3.03345">
        <ele>864.2</ele>
        <time>2015-06-15T10:10:18Z</time>
      </trkpt>
      <trkpt lat="45.68983" lon="3.03451">
        <ele>867.1</ele>
        <time>2015-06-15T10:10:40Z</time>
      </trkpt>
      <trkpt lat="45.69076" lon="3.03498">
        <ele>871.5</ele>
        <time>2015-06-15T10:10:54Z</time>
      </trkpt>
      <trkpt lat="45.69202" lon="3.03407">
        <ele>875.2</ele>
        <time>2015-06-15T10:11:22Z</time>
      </trkpt>
      <trkpt lat="45.69371" lon="3.03343">
        <ele>867.5</ele>
        <time>2015-06-15T10:12:20Z</time>
      </trkpt>
      <trkpt lat="45.69498" lon="3.03261">
        <ele>862.3</ele>
        <time>2015-06-15T10:13:04Z</time>
      </trkpt>
      <trkpt lat="45.69585" lon="3.03235">
        <ele>857.3</ele>
        <time>2015-06-15T10:13:36Z</time>
      </trkpt>
      <trkpt lat="45.69657" lon="3.03212">
        <ele>854.1</ele>
        <time>2015-06-15T10:13:58Z</time>
      </trkpt>
      <trkpt lat="45.69729" lon="3.03189">
        <ele>850</ele>
        <time>2015-06-15T10:14:18Z</time>
      </trkpt>
      <trkpt lat="45.6982" lon="3.03172">
        <ele>847</ele>
        <time>2015-06-15T10:14:42Z</time>
      </trkpt>
      <trkpt lat="45.70006" lon="3.03148">
        <ele>841.7</ele>
        <time>2015-06-15T10:15:24Z</time>
      </trkpt>
      <trkpt lat="45.70042" lon="3.03109">
        <ele>841.4</ele>
        <time>2015-06-15T10:15:32Z</time>
      </trkpt>
      <trkpt lat="45.70176" lon="3.02835">
        <ele>841.6</ele>
        <time>2015-06-15T10:16:18Z</time>
      </trkpt>
      <trkpt lat="45.70271" lon="3.02712">
        <ele>834.6</ele>
        <time>2015-06-15T10:17:08Z</time>
      </trkpt>
      <trkpt lat="45.70295" lon="3.02659">
        <ele>831.5</ele>
        <time>2015-06-15T10:17:26Z</time>
      </trkpt>
      <trkpt lat="45.70317" lon="3.02587">
        <ele>828.3</ele>
        <time>2015-06-15T10:17:48Z</time>
      </trkpt>
      <trkpt lat="45.70335" lon="3.02478">
        <ele>822</ele>
        <time>2015-06-15T10:18:20Z</time>
      </trkpt>
      <trkpt lat="45.70346" lon="3.02391">
        <ele>816.4</ele>
        <time>2015-06-15T10:18:48Z</time>
      </trkpt>
      <trkpt lat="45.70323" lon="3.02318">
        <ele>811.4</ele>
        <time>2015-06-15T10:19:10Z</time>
      </trkpt>
      <trkpt lat="45.70329" lon="3.02275">
        <ele>808.2</ele>
        <time>2015-06-15T10:19:20Z</time>
      </trkpt>
      <trkpt lat="45.70388" lon="3.02174">
        <ele>807.8</ele>
        <time>2015-06-15T10:19:40Z</time>
      </trkpt>
      <trkpt lat="45.70374" lon="3.0206">
        <ele>809.9</ele>
        <time>2015-06-15T10:19:52Z</time>
      </trkpt>
      <trkpt lat="45.70443" lon="3.01856">
        <ele>813.4</ele>
        <time>2015-06-15T10:20:14Z</time>
      </trkpt>
      <trkpt lat="45.70477" lon="3.018">
        <ele>814.2</ele>
        <time>2015-06-15T10:20:24Z</time>
      </trkpt>
      <trkpt lat="45.70514" lon="3.01685">
        <ele>816.1</ele>
        <time>2015-06-15T10:20:38Z</time>
      </trkpt>
      <trkpt lat="45.70515" lon="3.01512">
        <ele>818.1</ele>
        <time>2015-06-15T10:20:56Z</time>
      </trkpt>
      <trkpt lat="45.70593" lon="3.01331">
        <ele>821.6</ele>
        <time>2015-06-15T10:21:22Z</time>
      </trkpt>
      <trkpt lat="45.70618" lon="3.01321">
        <ele>821.8</ele>
        <time>2015-06-15T10:21:26Z</time>
      </trkpt>
      <trkpt lat="45.70891" lon="3.01316">
        <ele>825</ele>
        <time>2015-06-15T10:22:10Z</time>
      </trkpt>
      <trkpt lat="45.70977" lon="3.01498">
        <ele>832.4</ele>
        <time>2015-06-15T10:22:26Z</time>
      </trkpt>
      <trkpt lat="45.71028" lon="3.0155">
        <ele>835.8</ele>
        <time>2015-06-15T10:22:32Z</time>
      </trkpt>
      <trkpt lat="45.71105" lon="3.016">
        <ele>839.7</ele>
        <time>2015-06-15T10:22:40Z</time>
      </trkpt>
      <trkpt lat="45.7122" lon="3.01678">
        <ele>847</ele>
        <time>2015-06-15T10:22:52Z</time>
      </trkpt>
      <trkpt lat="45.71321" lon="3.01746">
        <ele>853.7</ele>
        <time>2015-06-15T10:23:02Z</time>
      </trkpt>
      <trkpt lat="45.71384" lon="3.0178">
        <ele>857.6</ele>
        <time>2015-06-15T10:23:08Z</time>
      </trkpt>
      <trkpt lat="45.71532" lon="3.01815">
        <ele>864.6</ele>
        <time>2015-06-15T10:23:24Z</time>
      </trkpt>
      <trkpt lat="45.71659" lon="3.01849">
        <ele>867.2</ele>
        <time>2015-06-15T10:23:48Z</time>
      </trkpt>
      <trkpt lat="45.71732" lon="3.01872">
        <ele>865.8</ele>
        <time>2015-06-15T10:24:08Z</time>
      </trkpt>
      <trkpt lat="45.71815" lon="3.01957">
        <ele>864.9</ele>
        <time>2015-06-15T10:24:40Z</time>
      </trkpt>
      <trkpt lat="45.7181" lon="3.01965">
        <ele>866.6</ele>
        <time>2015-06-15T10:25:06Z</time>
      </trkpt>
      <trkpt lat="45.7184" lon="3.01909">
        <ele>870.7</ele>
        <time>2015-06-15T10:25:34Z</time>
      </trkpt>
      <trkpt lat="45.71838" lon="3.01895">
        <ele>872</ele>
        <time>2015-06-15T10:26:19Z</time>
      </trkpt>
      <trkpt lat="45.71883" lon="3.01903">
        <ele>871.8</ele>
        <time>2015-06-15T10:26:31Z</time>
      </trkpt>
      <trkpt lat="45.72026" lon="3.01969">
        <ele>872.8</ele>
        <time>2015-06-15T10:27:11Z</time>
      </trkpt>
      <trkpt lat="45.72064" lon="3.01944">
        <ele>869.7</ele>
        <time>2015-06-15T10:27:25Z</time>
      </trkpt>
      <trkpt lat="45.7208" lon="3.01882">
        <ele>866.4</ele>
        <time>2015-06-15T10:27:39Z</time>
      </trkpt>
      <trkpt lat="45.72113" lon="3.0182">
        <ele>867.2</ele>
        <time>2015-06-15T10:27:55Z</time>
      </trkpt>
      <trkpt lat="45.72148" lon="3.01779">
        <ele>873</ele>
        <time>2015-06-15T10:28:07Z</time>
      </trkpt>
      <trkpt lat="45.72188" lon="3.017">
        <ele>879.1</ele>
        <time>2015-06-15T10:28:17Z</time>
      </trkpt>
      <trkpt lat="45.72312" lon="3.01458">
        <ele>881.7</ele>
        <time>2015-06-15T10:28:49Z</time>
      </trkpt>
      <trkpt lat="45.72375" lon="3.01362">
        <ele>885.1</ele>
        <time>2015-06-15T10:29:03Z</time>
      </trkpt>
      <trkpt lat="45.72442" lon="3.0125">
        <ele>891</ele>
        <time>2015-06-15T10:29:15Z</time>
      </trkpt>
      <trkpt lat="45.72461" lon="3.01199">
        <ele>894.2</ele>
        <time>2015-06-15T10:29:21Z</time>
      </trkpt>
      <trkpt lat="45.72509" lon="3.01094">
        <ele>899</ele>
        <time>2015-06-15T10:29:35Z</time>
      </trkpt>
      <trkpt lat="45.72537" lon="3.00991">
        <ele>905.4</ele>
        <time>2015-06-15T10:29:51Z</time>
      </trkpt>
      <trkpt lat="45.72541" lon="3.00943">
        <ele>909.2</ele>
        <time>2015-06-15T10:29:59Z</time>
      </trkpt>
      <trkpt lat="45.72567" lon="3.00823">
        <ele>914.6</ele>
        <time>2015-06-15T10:30:11Z</time>
      </trkpt>
      <trkpt lat="45.72601" lon="3.00706">
        <ele>919.1</ele>
        <time>2015-06-15T10:30:21Z</time>
      </trkpt>
      <trkpt lat="45.72622" lon="3.00604">
        <ele>923.1</ele>
        <time>2015-06-15T10:30:29Z</time>
      </trkpt>
      <trkpt lat="45.72707" lon="3.00519">
        <ele>926.9</ele>
        <time>2015-06-15T10:30:43Z</time>
      </trkpt>
      <trkpt lat="45.72794" lon="3.00516">
        <ele>928.9</ele>
        <time>2015-06-15T10:30:57Z</time>
      </trkpt>
      <trkpt lat="45.72851" lon="3.00511">
        <ele>932</ele>
        <time>2015-06-15T10:31:07Z</time>
      </trkpt>
      <trkpt lat="45.72884" lon="3.00494">
        <ele>937.1</ele>
        <time>2015-06-15T10:31:15Z</time>
      </trkpt>
      <trkpt lat="45.72935" lon="3.00435">
        <ele>945.2</ele>
        <time>2015-06-15T10:31:25Z</time>
      </trkpt>
      <trkpt lat="45.72954" lon="3.00395">
        <ele>948.6</ele>
        <time>2015-06-15T10:31:29Z</time>
      </trkpt>
      <trkpt lat="45.7299" lon="3.00315">
        <ele>955.6</ele>
        <time>2015-06-15T10:31:37Z</time>
      </trkpt>
      <trkpt lat="45.73017" lon="3.00253">
        <ele>959.6</ele>
        <time>2015-06-15T10:31:43Z</time>
      </trkpt>
      <trkpt lat="45.73048" lon="3.00145">
        <ele>965.3</ele>
        <time>2015-06-15T10:31:53Z</time>
      </trkpt>
      <trkpt lat="45.73041" lon="3.00076">
        <ele>969.1</ele>
        <time>2015-06-15T10:32:01Z</time>
      </trkpt>
      <trkpt lat="45.73065" lon="2.99961">
        <ele>972.9</ele>
        <time>2015-06-15T10:32:15Z</time>
      </trkpt>
      <trkpt lat="45.7314" lon="2.99766">
        <ele>977</ele>
        <time>2015-06-15T10:32:39Z</time>
      </trkpt>
      <trkpt lat="45.73224" lon="2.9965">
        <ele>981.4</ele>
        <time>2015-06-15T10:32:55Z</time>
      </trkpt>
      <trkpt lat="45.73312" lon="2.99536">
        <ele>984.4</ele>
        <time>2015-06-15T10:33:13Z</time>
      </trkpt>
      <trkpt lat="45.73395" lon="2.9941">
        <ele>989.1</ele>
        <time>2015-06-15T10:33:31Z</time>
      </trkpt>
      <trkpt lat="45.73518" lon="2.99141">
        <ele>992.3</ele>
        <time>2015-06-15T10:34:05Z</time>
      </trkpt>
      <trkpt lat="45.73629" lon="2.98944">
        <ele>991.1</ele>
        <time>2015-06-15T10:34:41Z</time>
      </trkpt>
      <trkpt lat="45.73665" lon="2.98786">
        <ele>993.3</ele>
        <time>2015-06-15T10:35:03Z</time>
      </trkpt>
      <trkpt lat="45.73627" lon="2.9864">
        <ele>994.2</ele>
        <time>2015-06-15T10:35:27Z</time>
      </trkpt>
      <trkpt lat="45.73607" lon="2.98565">
        <ele>992.9</ele>
        <time>2015-06-15T10:35:41Z</time>
      </trkpt>
      <trkpt lat="45.73567" lon="2.98436">
        <ele>993</ele>
        <time>2015-06-15T10:35:59Z</time>
      </trkpt>
      <trkpt lat="45.73522" lon="2.98239">
        <ele>995</ele>
        <time>2015-06-15T10:36:23Z</time>
      </trkpt>
      <trkpt lat="45.73468" lon="2.98102">
        <ele>994.5</ele>
        <time>2015-06-15T10:36:51Z</time>
      </trkpt>
      <trkpt lat="45.73405" lon="2.97819">
        <ele>991.5</ele>
        <time>2015-06-15T10:37:43Z</time>
      </trkpt>
      <trkpt lat="45.73383" lon="2.97569">
        <ele>987.7</ele>
        <time>2015-06-15T10:38:39Z</time>
      </trkpt>
      <trkpt lat="45.73344" lon="2.97426">
        <ele>978.8</ele>
        <time>2015-06-15T10:39:31Z</time>
      </trkpt>
      <trkpt lat="45.73309" lon="2.97346">
        <ele>971.8</ele>
        <time>2015-06-15T10:39:59Z</time>
      </trkpt>
      <trkpt lat="45.73244" lon="2.97137">
        <ele>970.3</ele>
        <time>2015-06-15T10:40:59Z</time>
      </trkpt>
      <trkpt lat="45.73253" lon="2.97164">
        <ele>970.2</ele>
        <time>2015-06-15T10:41:25Z</time>
      </trkpt>
      <trkpt lat="45.73225" lon="2.97103">
        <ele>972.4</ele>
        <time>2015-06-15T10:41:43Z</time>
      </trkpt>
      <trkpt lat="45.73258" lon="2.97072">
        <ele>973.6</ele>
        <time>2015-06-15T10:41:53Z</time>
      </trkpt>
      <trkpt lat="45.73366" lon="2.96948">
        <ele>976.3</ele>
        <time>2015-06-15T10:42:19Z</time>
      </trkpt>
      <trkpt lat="45.73474" lon="2.9683">
        <ele>979.9</ele>
        <time>2015-06-15T10:42:43Z</time>
      </trkpt>
      <trkpt lat="45.73533" lon="2.96728">
        <ele>982.1</ele>
        <time>2015-06-15T10:47:46Z</time>
      </trkpt>
      <trkpt lat="45.73536" lon="2.96725">
        <ele>982.3</ele>
        <time>2015-06-15T10:47:48Z</time>
      </trkpt>
      <trkpt lat="45.73595" lon="2.96644">
        <ele>982.6</ele>
        <time>2015-06-15T10:48:10Z</time>
      </trkpt>
      <trkpt lat="45.73712" lon="2.96519">
        <ele>984.3</ele>
        <time>2015-06-15T10:48:48Z</time>
      </trkpt>
      <trkpt lat="45.73839" lon="2.96576">
        <ele>980.8</ele>
        <time>2015-06-15T10:49:34Z</time>
      </trkpt>
      <trkpt lat="45.73933" lon="2.96593">
        <ele>977.3</ele>
        <time>2015-06-15T10:50:10Z</time>
      </trkpt>
      <trkpt lat="45.73969" lon="2.96613">
        <ele>971.1</ele>
        <time>2015-06-15T10:50:32Z</time>
      </trkpt>
      <trkpt lat="45.74022" lon="2.96624">
        <ele>968.9</ele>
        <time>2015-06-15T10:51:06Z</time>
      </trkpt>
      <trkpt lat="45.74068" lon="2.96527">
        <ele>968.7</ele>
        <time>2015-06-15T10:51:32Z</time>
      </trkpt>
      <trkpt lat="45.74069" lon="2.9657">
        <ele>965.8</ele>
        <time>2015-06-15T10:51:47Z</time>
      </trkpt>
      <trkpt lat="45.74062" lon="2.9669">
        <ele>963.5</ele>
        <time>2015-06-15T10:52:44Z</time>
      </trkpt>
      <trkpt lat="45.74114" lon="2.96683">
        <ele>959.7</ele>
        <time>2015-06-15T10:53:06Z</time>
      </trkpt>
      <trkpt lat="45.74152" lon="2.96771">
        <ele>957.6</ele>
        <time>2015-06-15T10:53:26Z</time>
      </trkpt>
      <trkpt lat="45.74303" lon="2.96889">
        <ele>955.3</ele>
        <time>2015-06-15T10:54:10Z</time>
      </trkpt>
      <trkpt lat="45.7431" lon="2.96894">
        <ele>955.1</ele>
        <time>2015-06-15T10:54:12Z</time>
      </trkpt>
      <trkpt lat="45.74444" lon="2.96953">
        <ele>951</ele>
        <time>2015-06-15T10:54:50Z</time>
      </trkpt>
      <trkpt lat="45.74503" lon="2.96982">
        <ele>947.6</ele>
        <time>2015-06-15T10:55:10Z</time>
      </trkpt>
      <trkpt lat="45.74579" lon="2.97002">
        <ele>942.9</ele>
        <time>2015-06-15T10:55:36Z</time>
      </trkpt>
      <trkpt lat="45.74647" lon="2.96991">
        <ele>941.5</ele>
        <time>2015-06-15T10:55:54Z</time>
      </trkpt>
      <trkpt lat="45.74803" lon="2.96913">
        <ele>939.5</ele>
        <time>2015-06-15T10:56:28Z</time>
      </trkpt>
      <trkpt lat="45.74924" lon="2.96872">
        <ele>940.2</ele>
        <time>2015-06-15T10:56:52Z</time>
      </trkpt>
      <trkpt lat="45.75107" lon="2.96825">
        <ele>942.4</ele>
        <time>2015-06-15T10:57:28Z</time>
      </trkpt>
      <trkpt lat="45.75212" lon="2.968">
        <ele>946.3</ele>
        <time>2015-06-15T10:57:48Z</time>
      </trkpt>
      <trkpt lat="45.75286" lon="2.96769">
        <ele>949.1</ele>
        <time>2015-06-15T11:00:15Z</time>
      </trkpt>
      <trkpt lat="45.75311" lon="2.96735">
        <ele>949</ele>
        <time>2015-06-15T11:00:25Z</time>
      </trkpt>
      <trkpt lat="45.75393" lon="2.96702">
        <ele>950.6</ele>
        <time>2015-06-15T11:00:45Z</time>
      </trkpt>
      <trkpt lat="45.75531" lon="2.96628">
        <ele>951.8</ele>
        <time>2015-06-15T11:01:11Z</time>
      </trkpt>
      <trkpt lat="45.75608" lon="2.96596">
        <ele>952.2</ele>
        <time>2015-06-15T11:01:25Z</time>
      </trkpt>
      <trkpt lat="45.75808" lon="2.9652">
        <ele>953.5</ele>
        <time>2015-06-15T11:02:13Z</time>
      </trkpt>
      <trkpt lat="45.75863" lon="2.96514">
        <ele>956.5</ele>
        <time>2015-06-15T11:02:25Z</time>
      </trkpt>
      <trkpt lat="45.75905" lon="2.96509">
        <ele>958.4</ele>
        <time>2015-06-15T11:02:33Z</time>
      </trkpt>
      <trkpt lat="45.75942" lon="2.96489">
        <ele>958.7</ele>
        <time>2015-06-15T11:02:41Z</time>
      </trkpt>
      <trkpt lat="45.75997" lon="2.96475">
        <ele>960.6</ele>
        <time>2015-06-15T11:02:53Z</time>
      </trkpt>
      <trkpt lat="45.76035" lon="2.96466">
        <ele>962.6</ele>
        <time>2015-06-15T11:03:00Z</time>
      </trkpt>
      <trkpt lat="45.76118" lon="2.96342">
        <ele>970.5</ele>
        <time>2015-06-15T11:03:29Z</time>
      </trkpt>
      <trkpt lat="45.7614" lon="2.96298">
        <ele>971.1</ele>
        <time>2015-06-15T11:04:01Z</time>
      </trkpt>
      <trkpt lat="45.76123" lon="2.96304">
        <ele>970.7</ele>
        <time>2015-06-15T11:04:25Z</time>
      </trkpt>
      <trkpt lat="45.76135" lon="2.96334">
        <ele>968.7</ele>
        <time>2015-06-15T11:05:40Z</time>
      </trkpt>
      <trkpt lat="45.76088" lon="2.96392">
        <ele>964.8</ele>
        <time>2015-06-15T11:06:04Z</time>
      </trkpt>
      <trkpt lat="45.7606" lon="2.96455">
        <ele>961.3</ele>
        <time>2015-06-15T11:06:35Z</time>
      </trkpt>
      <trkpt lat="45.76053" lon="2.9648">
        <ele>961.5</ele>
        <time>2015-06-15T11:07:17Z</time>
      </trkpt>
      <trkpt lat="45.76115" lon="2.96431">
        <ele>965.6</ele>
        <time>2015-06-15T11:07:44Z</time>
      </trkpt>
      <trkpt lat="45.7615" lon="2.9639">
        <ele>968.1</ele>
        <time>2015-06-15T11:08:21Z</time>
      </trkpt>
      <trkpt lat="45.76138" lon="2.96401">
        <ele>966.6</ele>
        <time>2015-06-15T11:08:33Z</time>
      </trkpt>
      <trkpt lat="45.76135" lon="2.96412">
        <ele>966.1</ele>
        <time>2015-06-15T11:10:28Z</time>
      </trkpt>
      <trkpt lat="45.76123" lon="2.96414">
        <ele>964.8</ele>
        <time>2015-06-15T11:11:53Z</time>
      </trkpt>
      <trkpt lat="45.76059" lon="2.96408">
        <ele>964.2</ele>
        <time>2015-06-15T11:12:32Z</time>
      </trkpt>
      <trkpt lat="45.75983" lon="2.96457">
        <ele>960.1</ele>
        <time>2015-06-15T11:13:04Z</time>
      </trkpt>
      <trkpt lat="45.75914" lon="2.96508">
        <ele>957</ele>
        <time>2015-06-15T11:13:32Z</time>
      </trkpt>
      <trkpt lat="45.7583" lon="2.96538">
        <ele>957</ele>
        <time>2015-06-15T11:14:02Z</time>
      </trkpt>
      <trkpt lat="45.75763" lon="2.96574">
        <ele>954</ele>
        <time>2015-06-15T11:14:24Z</time>
      </trkpt>
      <trkpt lat="45.75734" lon="2.96511">
        <ele>954.1</ele>
        <time>2015-06-15T11:14:40Z</time>
      </trkpt>
      <trkpt lat="45.75642" lon="2.96515">
        <ele>953.6</ele>
        <time>2015-06-15T11:15:08Z</time>
      </trkpt>
      <trkpt lat="45.75553" lon="2.96571">
        <ele>953.1</ele>
        <time>2015-06-15T11:15:35Z</time>
      </trkpt>
      <trkpt lat="45.75386" lon="2.96683">
        <ele>950</ele>
        <time>2015-06-15T11:16:28Z</time>
      </trkpt>
      <trkpt lat="45.75327" lon="2.96727">
        <ele>949.5</ele>
        <time>2015-06-15T11:16:56Z</time>
      </trkpt>
      <trkpt lat="45.75282" lon="2.96703">
        <ele>948.6</ele>
        <time>2015-06-15T11:17:32Z</time>
      </trkpt>
      <trkpt lat="45.75284" lon="2.96781">
        <ele>948.7</ele>
        <time>2015-06-15T11:17:54Z</time>
      </trkpt>
      <trkpt lat="45.75246" lon="2.96785">
        <ele>945.6</ele>
        <time>2015-06-15T11:18:26Z</time>
      </trkpt>
      <trkpt lat="45.75121" lon="2.96809">
        <ele>941.6</ele>
        <time>2015-06-15T11:18:56Z</time>
      </trkpt>
      <trkpt lat="45.74759" lon="2.96916">
        <ele>940.3</ele>
        <time>2015-06-15T11:20:10Z</time>
      </trkpt>
      <trkpt lat="45.7463" lon="2.96994">
        <ele>944.4</ele>
        <time>2015-06-15T11:20:38Z</time>
      </trkpt>
      <trkpt lat="45.74522" lon="2.96985">
        <ele>950.1</ele>
        <time>2015-06-15T11:21:00Z</time>
      </trkpt>
      <trkpt lat="45.74481" lon="2.96978">
        <ele>951.7</ele>
        <time>2015-06-15T11:21:08Z</time>
      </trkpt>
      <trkpt lat="45.74324" lon="2.96909">
        <ele>955</ele>
        <time>2015-06-15T11:21:34Z</time>
      </trkpt>
      <trkpt lat="45.74298" lon="2.96896">
        <ele>955.6</ele>
        <time>2015-06-15T11:21:38Z</time>
      </trkpt>
      <trkpt lat="45.7414" lon="2.96768">
        <ele>958.7</ele>
        <time>2015-06-15T11:22:20Z</time>
      </trkpt>
      <trkpt lat="45.74131" lon="2.96758">
        <ele>958.8</ele>
        <time>2015-06-15T11:23:21Z</time>
      </trkpt>
      <trkpt lat="45.74113" lon="2.96699">
        <ele>962.3</ele>
        <time>2015-06-15T11:25:04Z</time>
      </trkpt>
      <trkpt lat="45.7406" lon="2.96619">
        <ele>967.2</ele>
        <time>2015-06-15T11:25:34Z</time>
      </trkpt>
      <trkpt lat="45.74005" lon="2.96615">
        <ele>972.4</ele>
        <time>2015-06-15T11:25:56Z</time>
      </trkpt>
      <trkpt lat="45.73956" lon="2.96594">
        <ele>977.9</ele>
        <time>2015-06-15T11:26:10Z</time>
      </trkpt>
      <trkpt lat="45.73893" lon="2.9658">
        <ele>980.9</ele>
        <time>2015-06-15T11:26:26Z</time>
      </trkpt>
      <trkpt lat="45.73818" lon="2.96562">
        <ele>982</ele>
        <time>2015-06-15T11:26:42Z</time>
      </trkpt>
      <trkpt lat="45.73704" lon="2.96512">
        <ele>983.9</ele>
        <time>2015-06-15T11:27:12Z</time>
      </trkpt>
      <trkpt lat="45.73597" lon="2.96637">
        <ele>982.7</ele>
        <time>2015-06-15T11:27:50Z</time>
      </trkpt>
      <trkpt lat="45.73443" lon="2.96862">
        <ele>975.5</ele>
        <time>2015-06-15T11:28:52Z</time>
      </trkpt>
      <trkpt lat="45.73266" lon="2.97063">
        <ele>970.3</ele>
        <time>2015-06-15T11:29:54Z</time>
      </trkpt>
      <trkpt lat="45.73183" lon="2.97109">
        <ele>968.7</ele>
        <time>2015-06-15T11:30:26Z</time>
      </trkpt>
      <trkpt lat="45.73173" lon="2.97107">
        <ele>967.4</ele>
        <time>2015-06-15T11:30:48Z</time>
      </trkpt>
      <trkpt lat="45.73142" lon="2.97089">
        <ele>967.4</ele>
        <time>2015-06-15T11:30:56Z</time>
      </trkpt>
      <trkpt lat="45.72982" lon="2.97043">
        <ele>967.8</ele>
        <time>2015-06-15T11:31:40Z</time>
      </trkpt>
      <trkpt lat="45.72893" lon="2.97085">
        <ele>966.2</ele>
        <time>2015-06-15T11:32:06Z</time>
      </trkpt>
      <trkpt lat="45.72743" lon="2.97107">
        <ele>963</ele>
        <time>2015-06-15T11:32:44Z</time>
      </trkpt>
      <trkpt lat="45.72674" lon="2.97139">
        <ele>962.9</ele>
        <time>2015-06-15T11:33:02Z</time>
      </trkpt>
      <trkpt lat="45.72557" lon="2.97159">
        <ele>959.5</ele>
        <time>2015-06-15T11:33:34Z</time>
      </trkpt>
      <trkpt lat="45.72481" lon="2.97197">
        <ele>957.1</ele>
        <time>2015-06-15T11:33:58Z</time>
      </trkpt>
      <trkpt lat="45.72279" lon="2.97159">
        <ele>950.9</ele>
        <time>2015-06-15T11:34:58Z</time>
      </trkpt>
      <trkpt lat="45.72124" lon="2.97112">
        <ele>945.4</ele>
        <time>2015-06-15T11:35:46Z</time>
      </trkpt>
      <trkpt lat="45.71999" lon="2.97076">
        <ele>941.6</ele>
        <time>2015-06-15T11:36:20Z</time>
      </trkpt>
      <trkpt lat="45.71843" lon="2.97025">
        <ele>936.7</ele>
        <time>2015-06-15T11:37:06Z</time>
      </trkpt>
      <trkpt lat="45.71767" lon="2.9701">
        <ele>935.7</ele>
        <time>2015-06-15T11:37:26Z</time>
      </trkpt>
      <trkpt lat="45.71709" lon="2.97009">
        <ele>935.4</ele>
        <time>2015-06-15T11:37:40Z</time>
      </trkpt>
      <trkpt lat="45.71599" lon="2.97043">
        <ele>936.2</ele>
        <time>2015-06-15T11:38:14Z</time>
      </trkpt>
      <trkpt lat="45.71597" lon="2.97097">
        <ele>936.3</ele>
        <time>2015-06-15T11:38:38Z</time>
      </trkpt>
      <trkpt lat="45.71589" lon="2.9706">
        <ele>937</ele>
        <time>2015-06-15T11:41:19Z</time>
      </trkpt>
      <trkpt lat="45.71574" lon="2.97053">
        <ele>938.5</ele>
        <time>2015-06-15T11:45:13Z</time>
      </trkpt>
      <trkpt lat="45.71532" lon="2.97118">
        <ele>943.6</ele>
        <time>2015-06-15T11:45:29Z</time>
      </trkpt>
      <trkpt lat="45.7147" lon="2.97111">
        <ele>948.1</ele>
        <time>2015-06-15T11:45:41Z</time>
      </trkpt>
      <trkpt lat="45.71406" lon="2.97135">
        <ele>953</ele>
        <time>2015-06-15T11:45:55Z</time>
      </trkpt>
      <trkpt lat="45.71307" lon="2.97122">
        <ele>954.6</ele>
        <time>2015-06-15T11:46:15Z</time>
      </trkpt>
      <trkpt lat="45.71185" lon="2.97205">
        <ele>952.7</ele>
        <time>2015-06-15T11:46:53Z</time>
      </trkpt>
      <trkpt lat="45.71083" lon="2.97237">
        <ele>951.3</ele>
        <time>2015-06-15T11:47:19Z</time>
      </trkpt>
      <trkpt lat="45.71034" lon="2.97231">
        <ele>950.6</ele>
        <time>2015-06-15T11:47:29Z</time>
      </trkpt>
      <trkpt lat="45.70916" lon="2.9721">
        <ele>954.1</ele>
        <time>2015-06-15T11:47:55Z</time>
      </trkpt>
      <trkpt lat="45.7085" lon="2.97178">
        <ele>953.5</ele>
        <time>2015-06-15T11:48:15Z</time>
      </trkpt>
      <trkpt lat="45.70756" lon="2.9708">
        <ele>955.4</ele>
        <time>2015-06-15T11:48:37Z</time>
      </trkpt>
      <trkpt lat="45.70697" lon="2.97067">
        <ele>958.4</ele>
        <time>2015-06-15T11:48:45Z</time>
      </trkpt>
      <trkpt lat="45.70617" lon="2.9707">
        <ele>962.5</ele>
        <time>2015-06-15T11:48:55Z</time>
      </trkpt>
      <trkpt lat="45.70431" lon="2.96905">
        <ele>971.4</ele>
        <time>2015-06-15T11:49:22Z</time>
      </trkpt>
      <trkpt lat="45.70312" lon="2.96832">
        <ele>973.6</ele>
        <time>2015-06-15T11:49:46Z</time>
      </trkpt>
      <trkpt lat="45.70176" lon="2.96746">
        <ele>970.4</ele>
        <time>2015-06-15T11:50:28Z</time>
      </trkpt>
      <trkpt lat="45.70162" lon="2.96765">
        <ele>969.3</ele>
        <time>2015-06-15T11:51:04Z</time>
      </trkpt>
      <trkpt lat="45.70094" lon="2.96902">
        <ele>968.5</ele>
        <time>2015-06-15T11:51:47Z</time>
      </trkpt>
      <trkpt lat="45.69982" lon="2.97198">
        <ele>969.9</ele>
        <time>2015-06-15T11:52:52Z</time>
      </trkpt>
      <trkpt lat="45.69953" lon="2.97305">
        <ele>965.4</ele>
        <time>2015-06-15T11:53:27Z</time>
      </trkpt>
      <trkpt lat="45.6993" lon="2.97394">
        <ele>959.1</ele>
        <time>2015-06-15T11:53:59Z</time>
      </trkpt>
      <trkpt lat="45.69886" lon="2.97505">
        <ele>953.3</ele>
        <time>2015-06-15T11:54:31Z</time>
      </trkpt>
      <trkpt lat="45.69839" lon="2.97654">
        <ele>946.1</ele>
        <time>2015-06-15T11:55:16Z</time>
      </trkpt>
      <trkpt lat="45.69814" lon="2.97769">
        <ele>942.3</ele>
        <time>2015-06-15T11:55:45Z</time>
      </trkpt>
      <trkpt lat="45.69734" lon="2.97987">
        <ele>938.2</ele>
        <time>2015-06-15T11:56:39Z</time>
      </trkpt>
      <trkpt lat="45.697" lon="2.98196">
        <ele>937.1</ele>
        <time>2015-06-15T11:57:25Z</time>
      </trkpt>
      <trkpt lat="45.69655" lon="2.98443">
        <ele>932</ele>
        <time>2015-06-15T11:58:31Z</time>
      </trkpt>
      <trkpt lat="45.6964" lon="2.98538">
        <ele>927.1</ele>
        <time>2015-06-15T11:58:59Z</time>
      </trkpt>
      <trkpt lat="45.69622" lon="2.98601">
        <ele>925.8</ele>
        <time>2015-06-15T11:59:13Z</time>
      </trkpt>
      <trkpt lat="45.6959" lon="2.98743">
        <ele>925.9</ele>
        <time>2015-06-15T11:59:37Z</time>
      </trkpt>
      <trkpt lat="45.69552" lon="2.98889">
        <ele>921.6</ele>
        <time>2015-06-15T12:00:12Z</time>
      </trkpt>
      <trkpt lat="45.69519" lon="2.98964">
        <ele>921.8</ele>
        <time>2015-06-15T12:00:28Z</time>
      </trkpt>
      <trkpt lat="45.69551" lon="2.99111">
        <ele>922.4</ele>
        <time>2015-06-15T12:00:59Z</time>
      </trkpt>
      <trkpt lat="45.6955" lon="2.99181">
        <ele>918.9</ele>
        <time>2015-06-15T12:01:21Z</time>
      </trkpt>
      <trkpt lat="45.69524" lon="2.99269">
        <ele>915.8</ele>
        <time>2015-06-15T12:01:46Z</time>
      </trkpt>
      <trkpt lat="45.69493" lon="2.99362">
        <ele>911.3</ele>
        <time>2015-06-15T12:02:12Z</time>
      </trkpt>
      <trkpt lat="45.6942" lon="2.99441">
        <ele>907.7</ele>
        <time>2015-06-15T12:02:43Z</time>
      </trkpt>
      <trkpt lat="45.69408" lon="2.99539">
        <ele>904.4</ele>
        <time>2015-06-15T12:03:18Z</time>
      </trkpt>
      <trkpt lat="45.69479" lon="2.99582">
        <ele>896.5</ele>
        <time>2015-06-15T12:03:58Z</time>
      </trkpt>
      <trkpt lat="45.69461" lon="2.99617">
        <ele>897.7</ele>
        <time>2015-06-15T12:04:10Z</time>
      </trkpt>
      <trkpt lat="45.69387" lon="2.99724">
        <ele>901.3</ele>
        <time>2015-06-15T12:04:40Z</time>
      </trkpt>
      <trkpt lat="45.6936" lon="2.9972">
        <ele>905</ele>
        <time>2015-06-15T12:04:52Z</time>
      </trkpt>
      <trkpt lat="45.69398" lon="2.99769">
        <ele>911.4</ele>
        <time>2015-06-15T12:05:20Z</time>
      </trkpt>
      <trkpt lat="45.69385" lon="2.99764">
        <ele>910.2</ele>
        <time>2015-06-15T12:05:37Z</time>
      </trkpt>
      <trkpt lat="45.69422" lon="2.9979">
        <ele>914.6</ele>
        <time>2015-06-15T12:06:07Z</time>
      </trkpt>
      <trkpt lat="45.69441" lon="2.9987">
        <ele>922.1</ele>
        <time>2015-06-15T12:06:21Z</time>
      </trkpt>
      <trkpt lat="45.69442" lon="2.99992">
        <ele>927.9</ele>
        <time>2015-06-15T12:06:40Z</time>
      </trkpt>
      <trkpt lat="45.69407" lon="3.0005">
        <ele>933.6</ele>
        <time>2015-06-15T12:06:50Z</time>
      </trkpt>
      <trkpt lat="45.69382" lon="3.00101">
        <ele>938.4</ele>
        <time>2015-06-15T12:06:57Z</time>
      </trkpt>
      <trkpt lat="45.69363" lon="3.00149">
        <ele>943.6</ele>
        <time>2015-06-15T12:07:03Z</time>
      </trkpt>
      <trkpt lat="45.69348" lon="3.00207">
        <ele>948.3</ele>
        <time>2015-06-15T12:07:09Z</time>
      </trkpt>
      <trkpt lat="45.69332" lon="3.00295">
        <ele>955.9</ele>
        <time>2015-06-15T12:07:19Z</time>
      </trkpt>
      <trkpt lat="45.69295" lon="3.00385">
        <ele>961.8</ele>
        <time>2015-06-15T12:07:33Z</time>
      </trkpt>
      <trkpt lat="45.69281" lon="3.00436">
        <ele>966.6</ele>
        <time>2015-06-15T12:07:44Z</time>
      </trkpt>
      <trkpt lat="45.69229" lon="3.00528">
        <ele>975</ele>
        <time>2015-06-15T12:08:02Z</time>
      </trkpt>
      <trkpt lat="45.69178" lon="3.00597">
        <ele>981.4</ele>
        <time>2015-06-15T12:08:12Z</time>
      </trkpt>
      <trkpt lat="45.69136" lon="3.00658">
        <ele>988.9</ele>
        <time>2015-06-15T12:08:24Z</time>
      </trkpt>
      <trkpt lat="45.69107" lon="3.0071">
        <ele>992.7</ele>
        <time>2015-06-15T12:08:34Z</time>
      </trkpt>
      <trkpt lat="45.69082" lon="3.00752">
        <ele>996.7</ele>
        <time>2015-06-15T12:08:44Z</time>
      </trkpt>
      <trkpt lat="45.69042" lon="3.00793">
        <ele>1001.6</ele>
        <time>2015-06-15T12:08:55Z</time>
      </trkpt>
      <trkpt lat="45.68982" lon="3.00853">
        <ele>1008.2</ele>
        <time>2015-06-15T12:09:13Z</time>
      </trkpt>
      <trkpt lat="45.68955" lon="3.00914">
        <ele>1010.2</ele>
        <time>2015-06-15T12:09:27Z</time>
      </trkpt>
      <trkpt lat="45.68936" lon="3.00955">
        <ele>1010.3</ele>
        <time>2015-06-15T12:09:39Z</time>
      </trkpt>
      <trkpt lat="45.68891" lon="3.01165">
        <ele>1012.5</ele>
        <time>2015-06-15T12:10:37Z</time>
      </trkpt>
      <trkpt lat="45.68861" lon="3.01406">
        <ele>1010.4</ele>
        <time>2015-06-15T12:11:43Z</time>
      </trkpt>
      <trkpt lat="45.68816" lon="3.01573">
        <ele>1004.4</ele>
        <time>2015-06-15T12:12:41Z</time>
      </trkpt>
      <trkpt lat="45.6877" lon="3.01742">
        <ele>995.5</ele>
        <time>2015-06-15T12:13:49Z</time>
      </trkpt>
      <trkpt lat="45.68763" lon="3.01841">
        <ele>990.6</ele>
        <time>2015-06-15T12:14:23Z</time>
      </trkpt>
      <trkpt lat="45.68751" lon="3.01883">
        <ele>986.8</ele>
        <time>2015-06-15T12:14:41Z</time>
      </trkpt>
      <trkpt lat="45.68744" lon="3.01985">
        <ele>981.5</ele>
        <time>2015-06-15T12:15:17Z</time>
      </trkpt>
      <trkpt lat="45.68735" lon="3.02017">
        <ele>981.6</ele>
        <time>2015-06-15T12:15:43Z</time>
      </trkpt>
      <trkpt lat="45.68734" lon="3.01985">
        <ele>981.1</ele>
        <time>2015-06-15T12:16:11Z</time>
      </trkpt>
      <trkpt lat="45.6872" lon="3.02036">
        <ele>976.4</ele>
        <time>2015-06-15T12:16:39Z</time>
      </trkpt>
      <trkpt lat="45.68636" lon="3.02026">
        <ele>970.1</ele>
        <time>2015-06-15T12:17:11Z</time>
      </trkpt>
      <trkpt lat="45.68482" lon="3.02001">
        <ele>964.2</ele>
        <time>2015-06-15T12:18:01Z</time>
      </trkpt>
      <trkpt lat="45.68284" lon="3.0198">
        <ele>957.6</ele>
        <time>2015-06-15T12:19:01Z</time>
      </trkpt>
      <trkpt lat="45.68216" lon="3.01981">
        <ele>954.1</ele>
        <time>2015-06-15T12:19:25Z</time>
      </trkpt>
      <trkpt lat="45.68216" lon="3.02091">
        <ele>953.5</ele>
        <time>2015-06-15T12:19:51Z</time>
      </trkpt>
      <trkpt lat="45.68244" lon="3.02421">
        <ele>947.2</ele>
        <time>2015-06-15T12:20:51Z</time>
      </trkpt>
      <trkpt lat="45.68214" lon="3.025">
        <ele>944.3</ele>
        <time>2015-06-15T12:21:11Z</time>
      </trkpt>
      <trkpt lat="45.68185" lon="3.02587">
        <ele>944.7</ele>
        <time>2015-06-15T12:21:43Z</time>
      </trkpt>
      <trkpt lat="45.68157" lon="3.0268">
        <ele>947.2</ele>
        <time>2015-06-15T12:21:55Z</time>
      </trkpt>
      <trkpt lat="45.68148" lon="3.02841">
        <ele>945.2</ele>
        <time>2015-06-15T12:22:29Z</time>
      </trkpt>
      <trkpt lat="45.6817" lon="3.03055">
        <ele>941</ele>
        <time>2015-06-15T12:23:13Z</time>
      </trkpt>
      <trkpt lat="45.68159" lon="3.03156">
        <ele>938</ele>
        <time>2015-06-15T12:40:05Z</time>
      </trkpt>
      <trkpt lat="45.68164" lon="3.03272">
        <ele>931.1</ele>
        <time>2015-06-15T12:40:45Z</time>
      </trkpt>
      <trkpt lat="45.68189" lon="3.03343">
        <ele>926.4</ele>
        <time>2015-06-15T12:41:15Z</time>
      </trkpt>
      <trkpt lat="45.68168" lon="3.03387">
        <ele>922.3</ele>
        <time>2015-06-15T12:41:33Z</time>
      </trkpt>
      <trkpt lat="45.68137" lon="3.03404">
        <ele>919.1</ele>
        <time>2015-06-15T12:41:49Z</time>
      </trkpt>
      <trkpt lat="45.68078" lon="3.03417">
        <ele>914.6</ele>
        <time>2015-06-15T12:42:19Z</time>
      </trkpt>
      <trkpt lat="45.68075" lon="3.03519">
        <ele>911.3</ele>
        <time>2015-06-15T12:42:49Z</time>
      </trkpt>
      <trkpt lat="45.68054" lon="3.03715">
        <ele>905.1</ele>
        <time>2015-06-15T12:43:45Z</time>
      </trkpt>
      <trkpt lat="45.68051" lon="3.03868">
        <ele>900.4</ele>
        <time>2015-06-15T12:44:35Z</time>
      </trkpt>
      <trkpt lat="45.68031" lon="3.03938">
        <ele>895.7</ele>
        <time>2015-06-15T12:45:01Z</time>
      </trkpt>
      <trkpt lat="45.68028" lon="3.04226">
        <ele>889.2</ele>
        <time>2015-06-15T12:46:29Z</time>
      </trkpt>
      <trkpt lat="45.6808" lon="3.04314">
        <ele>883.5</ele>
        <time>2015-06-15T12:47:15Z</time>
      </trkpt>
      <trkpt lat="45.68094" lon="3.04383">
        <ele>878.3</ele>
        <time>2015-06-15T12:47:45Z</time>
      </trkpt>
      <trkpt lat="45.68108" lon="3.04465">
        <ele>871.7</ele>
        <time>2015-06-15T12:48:21Z</time>
      </trkpt>
      <trkpt lat="45.6811" lon="3.04546">
        <ele>865.5</ele>
        <time>2015-06-15T12:48:55Z</time>
      </trkpt>
      <trkpt lat="45.68092" lon="3.0461">
        <ele>858.8</ele>
        <time>2015-06-15T12:49:26Z</time>
      </trkpt>
      <trkpt lat="45.68065" lon="3.04668">
        <ele>853.8</ele>
        <time>2015-06-15T12:49:51Z</time>
      </trkpt>
      <trkpt lat="45.68044" lon="3.04758">
        <ele>847.4</ele>
        <time>2015-06-15T12:50:23Z</time>
      </trkpt>
      <trkpt lat="45.68014" lon="3.04871">
        <ele>841.9</ele>
        <time>2015-06-15T12:51:07Z</time>
      </trkpt>
      <trkpt lat="45.68008" lon="3.04946">
        <ele>838.5</ele>
        <time>2015-06-15T12:51:41Z</time>
      </trkpt>
      <trkpt lat="45.68117" lon="3.0507">
        <ele>831.9</ele>
        <time>2015-06-15T12:52:45Z</time>
      </trkpt>
      <trkpt lat="45.68224" lon="3.0516">
        <ele>825.6</ele>
        <time>2015-06-15T12:53:47Z</time>
      </trkpt>
      <trkpt lat="45.68243" lon="3.0523">
        <ele>819.5</ele>
        <time>2015-06-15T12:54:15Z</time>
      </trkpt>
      <trkpt lat="45.68246" lon="3.0529">
        <ele>816.4</ele>
        <time>2015-06-15T12:54:36Z</time>
      </trkpt>
      <trkpt lat="45.6827" lon="3.05352">
        <ele>812.8</ele>
        <time>2015-06-15T12:55:02Z</time>
      </trkpt>
      <trkpt lat="45.68306" lon="3.0544">
        <ele>808.1</ele>
        <time>2015-06-15T12:55:44Z</time>
      </trkpt>
      <trkpt lat="45.68374" lon="3.0547">
        <ele>802.1</ele>
        <time>2015-06-15T12:56:28Z</time>
      </trkpt>
      <trkpt lat="45.68404" lon="3.05527">
        <ele>797.3</ele>
        <time>2015-06-15T12:56:56Z</time>
      </trkpt>
      <trkpt lat="45.68419" lon="3.05561">
        <ele>793.3</ele>
        <time>2015-06-15T12:57:14Z</time>
      </trkpt>
      <trkpt lat="45.68454" lon="3.0565">
        <ele>785.6</ele>
        <time>2015-06-15T12:58:13Z</time>
      </trkpt>
      <trkpt lat="45.68473" lon="3.05667">
        <ele>784.3</ele>
        <time>2015-06-15T12:58:41Z</time>
      </trkpt>
      <trkpt lat="45.68458" lon="3.05795">
        <ele>777.8</ele>
        <time>2015-06-15T12:59:16Z</time>
      </trkpt>
      <trkpt lat="45.6845" lon="3.0587">
        <ele>774</ele>
        <time>2015-06-15T12:59:34Z</time>
      </trkpt>
      <trkpt lat="45.68449" lon="3.06032">
        <ele>768.1</ele>
        <time>2015-06-15T13:00:08Z</time>
      </trkpt>
      <trkpt lat="45.68438" lon="3.06115">
        <ele>766</ele>
        <time>2015-06-15T13:00:25Z</time>
      </trkpt>
      <trkpt lat="45.68385" lon="3.06172">
        <ele>766.3</ele>
        <time>2015-06-15T13:01:23Z</time>
      </trkpt>
      <trkpt lat="45.6836" lon="3.06177">
        <ele>765.4</ele>
        <time>2015-06-15T13:02:54Z</time>
      </trkpt>
      <trkpt lat="45.68349" lon="3.06302">
        <ele>684.1</ele>
        <time>2015-06-18T11:59:42Z</time>
      </trkpt>
      <trkpt lat="45.6837" lon="3.06262">
        <ele>687.5</ele>
        <time>2015-06-18T11:59:54Z</time>
      </trkpt>
      <trkpt lat="45.68385" lon="3.06169">
        <ele>690.1</ele>
        <time>2015-06-18T12:00:12Z</time>
      </trkpt>
      <trkpt lat="45.6841" lon="3.06176">
        <ele>690.3</ele>
        <time>2015-06-18T12:00:51Z</time>
      </trkpt>
      <trkpt lat="45.68444" lon="3.06112">
        <ele>693.7</ele>
        <time>2015-06-18T12:01:03Z</time>
      </trkpt>
      <trkpt lat="45.68453" lon="3.06011">
        <ele>698.9</ele>
        <time>2015-06-18T12:01:11Z</time>
      </trkpt>
      <trkpt lat="45.68449" lon="3.05867">
        <ele>704.6</ele>
        <time>2015-06-18T12:01:21Z</time>
      </trkpt>
      <trkpt lat="45.68467" lon="3.05723">
        <ele>706.4</ele>
        <time>2015-06-18T12:01:33Z</time>
      </trkpt>
      <trkpt lat="45.68469" lon="3.0569">
        <ele>706.6</ele>
        <time>2015-06-18T12:01:37Z</time>
      </trkpt>
      <trkpt lat="45.68477" lon="3.05452">
        <ele>702.9</ele>
        <time>2015-06-18T12:02:07Z</time>
      </trkpt>
      <trkpt lat="45.68513" lon="3.05345">
        <ele>703.8</ele>
        <time>2015-06-18T12:02:17Z</time>
      </trkpt>
      <trkpt lat="45.68551" lon="3.05161">
        <ele>708</ele>
        <time>2015-06-18T12:02:31Z</time>
      </trkpt>
      <trkpt lat="45.6857" lon="3.04988">
        <ele>711.5</ele>
        <time>2015-06-18T12:02:45Z</time>
      </trkpt>
      <trkpt lat="45.68632" lon="3.04712">
        <ele>712.7</ele>
        <time>2015-06-18T12:03:11Z</time>
      </trkpt>
      <trkpt lat="45.68633" lon="3.04639">
        <ele>715.7</ele>
        <time>2015-06-18T12:03:17Z</time>
      </trkpt>
      <trkpt lat="45.6863" lon="3.0448">
        <ele>723.3</ele>
        <time>2015-06-18T12:03:27Z</time>
      </trkpt>
      <trkpt lat="45.68632" lon="3.04328">
        <ele>732.1</ele>
        <time>2015-06-18T12:03:35Z</time>
      </trkpt>
      <trkpt lat="45.68647" lon="3.04177">
        <ele>740.1</ele>
        <time>2015-06-18T12:03:43Z</time>
      </trkpt>
      <trkpt lat="45.68679" lon="3.04031">
        <ele>748</ele>
        <time>2015-06-18T12:03:51Z</time>
      </trkpt>
      <trkpt lat="45.68695" lon="3.03881">
        <ele>755.2</ele>
        <time>2015-06-18T12:03:59Z</time>
      </trkpt>
      <trkpt lat="45.68694" lon="3.03687">
        <ele>763.5</ele>
        <time>2015-06-18T12:04:11Z</time>
      </trkpt>
      <trkpt lat="45.68699" lon="3.036">
        <ele>767.1</ele>
        <time>2015-06-18T12:04:17Z</time>
      </trkpt>
      <trkpt lat="45.6873" lon="3.03537">
        <ele>771.2</ele>
        <time>2015-06-18T12:04:23Z</time>
      </trkpt>
      <trkpt lat="45.6878" lon="3.03509">
        <ele>774.5</ele>
        <time>2015-06-18T12:04:29Z</time>
      </trkpt>
      <trkpt lat="45.68826" lon="3.03363">
        <ele>781.1</ele>
        <time>2015-06-18T12:04:43Z</time>
      </trkpt>
      <trkpt lat="45.68873" lon="3.03316">
        <ele>788.8</ele>
        <time>2015-06-18T12:04:55Z</time>
      </trkpt>
      <trkpt lat="45.68911" lon="3.03331">
        <ele>792.7</ele>
        <time>2015-06-18T12:05:01Z</time>
      </trkpt>
      <trkpt lat="45.6895" lon="3.03366">
        <ele>796.8</ele>
        <time>2015-06-18T12:05:07Z</time>
      </trkpt>
      <trkpt lat="45.69013" lon="3.03404">
        <ele>801.3</ele>
        <time>2015-06-18T12:05:23Z</time>
      </trkpt>
      <trkpt lat="45.69051" lon="3.03426">
        <ele>799.6</ele>
        <time>2015-06-18T12:05:39Z</time>
      </trkpt>
      <trkpt lat="45.69143" lon="3.03402">
        <ele>796.2</ele>
        <time>2015-06-18T12:06:09Z</time>
      </trkpt>
      <trkpt lat="45.69255" lon="3.03387">
        <ele>792.3</ele>
        <time>2015-06-18T12:06:46Z</time>
      </trkpt>
      <trkpt lat="45.6931" lon="3.0337">
        <ele>788.8</ele>
        <time>2015-06-18T12:07:04Z</time>
      </trkpt>
      <trkpt lat="45.69448" lon="3.03288">
        <ele>784.6</ele>
        <time>2015-06-18T12:07:50Z</time>
      </trkpt>
      <trkpt lat="45.69497" lon="3.03263">
        <ele>781.3</ele>
        <time>2015-06-18T12:08:08Z</time>
      </trkpt>
      <trkpt lat="45.69613" lon="3.03226">
        <ele>775</ele>
        <time>2015-06-18T12:08:50Z</time>
      </trkpt>
      <trkpt lat="45.69729" lon="3.03189">
        <ele>769.5</ele>
        <time>2015-06-18T12:09:30Z</time>
      </trkpt>
      <trkpt lat="45.69954" lon="3.03161">
        <ele>761.8</ele>
        <time>2015-06-18T12:10:38Z</time>
      </trkpt>
      <trkpt lat="45.7002" lon="3.03139">
        <ele>760.8</ele>
        <time>2015-06-18T12:10:58Z</time>
      </trkpt>
      <trkpt lat="45.70148" lon="3.02899">
        <ele>761.1</ele>
        <time>2015-06-18T12:11:48Z</time>
      </trkpt>
      <trkpt lat="45.70228" lon="3.02756">
        <ele>757.8</ele>
        <time>2015-06-18T12:12:28Z</time>
      </trkpt>
      <trkpt lat="45.70267" lon="3.02721">
        <ele>754.8</ele>
        <time>2015-06-18T12:12:48Z</time>
      </trkpt>
      <trkpt lat="45.70305" lon="3.0263">
        <ele>749</ele>
        <time>2015-06-18T12:13:20Z</time>
      </trkpt>
      <trkpt lat="45.7032" lon="3.02565">
        <ele>746</ele>
        <time>2015-06-18T12:13:40Z</time>
      </trkpt>
      <trkpt lat="45.70326" lon="3.02512">
        <ele>742.7</ele>
        <time>2015-06-18T12:13:56Z</time>
      </trkpt>
      <trkpt lat="45.70344" lon="3.0243">
        <ele>737.2</ele>
        <time>2015-06-18T12:14:20Z</time>
      </trkpt>
      <trkpt lat="45.70329" lon="3.02351">
        <ele>732.3</ele>
        <time>2015-06-18T12:14:42Z</time>
      </trkpt>
      <trkpt lat="45.70322" lon="3.02304">
        <ele>729</ele>
        <time>2015-06-18T12:14:54Z</time>
      </trkpt>
      <trkpt lat="45.70372" lon="3.02228">
        <ele>725.8</ele>
        <time>2015-06-18T12:15:14Z</time>
      </trkpt>
      <trkpt lat="45.70374" lon="3.02081">
        <ele>726.9</ele>
        <time>2015-06-18T12:15:30Z</time>
      </trkpt>
      <trkpt lat="45.70437" lon="3.01871">
        <ele>732.9</ele>
        <time>2015-06-18T12:15:52Z</time>
      </trkpt>
      <trkpt lat="45.70435" lon="3.01782">
        <ele>735.9</ele>
        <time>2015-06-18T12:16:02Z</time>
      </trkpt>
      <trkpt lat="45.70374" lon="3.01663">
        <ele>740.1</ele>
        <time>2015-06-18T12:16:14Z</time>
      </trkpt>
      <trkpt lat="45.70269" lon="3.01454">
        <ele>746.6</ele>
        <time>2015-06-18T12:16:34Z</time>
      </trkpt>
      <trkpt lat="45.70187" lon="3.0129">
        <ele>751.9</ele>
        <time>2015-06-18T12:16:50Z</time>
      </trkpt>
      <trkpt lat="45.70117" lon="3.01138">
        <ele>755.3</ele>
        <time>2015-06-18T12:17:04Z</time>
      </trkpt>
      <trkpt lat="45.7008" lon="3.0096">
        <ele>759.9</ele>
        <time>2015-06-18T12:17:20Z</time>
      </trkpt>
      <trkpt lat="45.70078" lon="3.0094">
        <ele>760.2</ele>
        <time>2015-06-18T12:17:22Z</time>
      </trkpt>
      <trkpt lat="45.70087" lon="3.00668">
        <ele>766.5</ele>
        <time>2015-06-18T12:17:46Z</time>
      </trkpt>
      <trkpt lat="45.70083" lon="3.00564">
        <ele>770</ele>
        <time>2015-06-18T12:17:56Z</time>
      </trkpt>
      <trkpt lat="45.70072" lon="3.005">
        <ele>773.3</ele>
        <time>2015-06-18T12:18:02Z</time>
      </trkpt>
      <trkpt lat="45.70047" lon="3.0041">
        <ele>777.6</ele>
        <time>2015-06-18T12:18:10Z</time>
      </trkpt>
      <trkpt lat="45.70018" lon="3.00344">
        <ele>781.4</ele>
        <time>2015-06-18T12:18:16Z</time>
      </trkpt>
      <trkpt lat="45.69982" lon="3.00282">
        <ele>785.3</ele>
        <time>2015-06-18T12:18:22Z</time>
      </trkpt>
      <trkpt lat="45.69938" lon="3.00228">
        <ele>788.8</ele>
        <time>2015-06-18T12:18:28Z</time>
      </trkpt>
      <trkpt lat="45.6989" lon="3.00181">
        <ele>792.9</ele>
        <time>2015-06-18T12:18:34Z</time>
      </trkpt>
      <trkpt lat="45.69786" lon="3.00083">
        <ele>800</ele>
        <time>2015-06-18T12:18:48Z</time>
      </trkpt>
      <trkpt lat="45.69686" lon="2.99993">
        <ele>807.4</ele>
        <time>2015-06-18T12:19:02Z</time>
      </trkpt>
      <trkpt lat="45.69586" lon="2.99894">
        <ele>815.2</ele>
        <time>2015-06-18T12:19:18Z</time>
      </trkpt>
      <trkpt lat="45.69537" lon="2.99836">
        <ele>818.5</ele>
        <time>2015-06-18T12:19:28Z</time>
      </trkpt>
      <trkpt lat="45.69495" lon="2.99778">
        <ele>821.8</ele>
        <time>2015-06-18T12:19:40Z</time>
      </trkpt>
      <trkpt lat="45.69482" lon="2.99762">
        <ele>822.6</ele>
        <time>2015-06-18T12:19:44Z</time>
      </trkpt>
      <trkpt lat="45.69373" lon="2.99719">
        <ele>825.4</ele>
        <time>2015-06-18T12:20:20Z</time>
      </trkpt>
      <trkpt lat="45.69358" lon="2.99738">
        <ele>828.9</ele>
        <time>2015-06-18T12:20:32Z</time>
      </trkpt>
      <trkpt lat="45.69416" lon="2.99797">
        <ele>836.8</ele>
        <time>2015-06-18T12:20:50Z</time>
      </trkpt>
      <trkpt lat="45.69432" lon="2.99881">
        <ele>844.2</ele>
        <time>2015-06-18T12:21:02Z</time>
      </trkpt>
      <trkpt lat="45.69445" lon="2.99945">
        <ele>848.5</ele>
        <time>2015-06-18T12:21:10Z</time>
      </trkpt>
      <trkpt lat="45.69438" lon="2.99985">
        <ele>851.6</ele>
        <time>2015-06-18T12:21:16Z</time>
      </trkpt>
      <trkpt lat="45.69405" lon="3.00043">
        <ele>855.6</ele>
        <time>2015-06-18T12:21:24Z</time>
      </trkpt>
      <trkpt lat="45.69369" lon="3.00119">
        <ele>861.2</ele>
        <time>2015-06-18T12:21:34Z</time>
      </trkpt>
      <trkpt lat="45.69348" lon="3.00206">
        <ele>865.1</ele>
        <time>2015-06-18T12:21:46Z</time>
      </trkpt>
      <trkpt lat="45.69351" lon="3.00222">
        <ele>863.8</ele>
        <time>2015-06-18T12:22:06Z</time>
      </trkpt>
      <trkpt lat="45.69393" lon="3.00237">
        <ele>858.8</ele>
        <time>2015-06-18T12:22:50Z</time>
      </trkpt>
      <trkpt lat="45.69434" lon="3.00244">
        <ele>852</ele>
        <time>2015-06-18T12:24:11Z</time>
      </trkpt>
      <trkpt lat="45.69482" lon="3.00251">
        <ele>845</ele>
        <time>2015-06-18T12:24:45Z</time>
      </trkpt>
      <trkpt lat="45.69525" lon="3.00254">
        <ele>839.1</ele>
        <time>2015-06-18T12:25:17Z</time>
      </trkpt>
      <trkpt lat="45.6955" lon="3.00259">
        <ele>834.8</ele>
        <time>2015-06-18T12:25:41Z</time>
      </trkpt>
      <trkpt lat="45.69599" lon="3.00273">
        <ele>825.5</ele>
        <time>2015-06-18T12:26:23Z</time>
      </trkpt>
      <trkpt lat="45.69661" lon="3.00367">
        <ele>818.7</ele>
        <time>2015-06-18T12:27:21Z</time>
      </trkpt>
      <trkpt lat="45.69696" lon="3.00373">
        <ele>813.3</ele>
        <time>2015-06-18T12:27:47Z</time>
      </trkpt>
      <trkpt lat="45.69764" lon="3.0045">
        <ele>806.7</ele>
        <time>2015-06-18T12:28:41Z</time>
      </trkpt>
      <trkpt lat="45.69782" lon="3.0048">
        <ele>802.9</ele>
        <time>2015-06-18T12:28:59Z</time>
      </trkpt>
      <trkpt lat="45.69821" lon="3.00506">
        <ele>796.3</ele>
        <time>2015-06-18T12:29:27Z</time>
      </trkpt>
      <trkpt lat="45.69896" lon="3.00489">
        <ele>789.8</ele>
        <time>2015-06-18T12:30:11Z</time>
      </trkpt>
      <trkpt lat="45.6996" lon="3.00518">
        <ele>781</ele>
        <time>2015-06-18T12:30:55Z</time>
      </trkpt>
      <trkpt lat="45.69978" lon="3.00535">
        <ele>777.2</ele>
        <time>2015-06-18T12:31:11Z</time>
      </trkpt>
      <trkpt lat="45.70023" lon="3.00514">
        <ele>770.9</ele>
        <time>2015-06-18T12:31:35Z</time>
      </trkpt>
      <trkpt lat="45.70044" lon="3.00526">
        <ele>767.8</ele>
        <time>2015-06-18T12:31:45Z</time>
      </trkpt>
      <trkpt lat="45.70109" lon="3.00521">
        <ele>766.4</ele>
        <time>2015-06-18T12:32:09Z</time>
      </trkpt>
      <trkpt lat="45.70147" lon="3.00545">
        <ele>763.3</ele>
        <time>2015-06-18T12:32:25Z</time>
      </trkpt>
      <trkpt lat="45.70224" lon="3.00512">
        <ele>758.2</ele>
        <time>2015-06-18T12:33:16Z</time>
      </trkpt>
      <trkpt lat="45.70205" lon="3.00418">
        <ele>756.7</ele>
        <time>2015-06-18T12:33:34Z</time>
      </trkpt>
      <trkpt lat="45.70246" lon="3.0031">
        <ele>758.1</ele>
        <time>2015-06-18T12:33:56Z</time>
      </trkpt>
      <trkpt lat="45.70328" lon="3.00306">
        <ele>755</ele>
        <time>2015-06-18T12:34:24Z</time>
      </trkpt>
      <trkpt lat="45.70411" lon="3.00501">
        <ele>750.7</ele>
        <time>2015-06-18T12:35:02Z</time>
      </trkpt>
      <trkpt lat="45.70454" lon="3.00612">
        <ele>749.2</ele>
        <time>2015-06-18T12:35:22Z</time>
      </trkpt>
      <trkpt lat="45.70476" lon="3.00742">
        <ele>747.3</ele>
        <time>2015-06-18T12:35:50Z</time>
      </trkpt>
      <trkpt lat="45.70504" lon="3.00973">
        <ele>744.5</ele>
        <time>2015-06-18T12:36:28Z</time>
      </trkpt>
      <trkpt lat="45.70505" lon="3.00999">
        <ele>744.2</ele>
        <time>2015-06-18T12:36:32Z</time>
      </trkpt>
      <trkpt lat="45.70504" lon="3.0117">
        <ele>740.6</ele>
        <time>2015-06-18T12:36:58Z</time>
      </trkpt>
      <trkpt lat="45.70546" lon="3.01363">
        <ele>736.3</ele>
        <time>2015-06-18T12:37:30Z</time>
      </trkpt>
      <trkpt lat="45.70515" lon="3.0155">
        <ele>733.5</ele>
        <time>2015-06-18T12:38:00Z</time>
      </trkpt>
      <trkpt lat="45.7051" lon="3.01722">
        <ele>730.3</ele>
        <time>2015-06-18T12:38:28Z</time>
      </trkpt>
      <trkpt lat="45.70428" lon="3.01889">
        <ele>726.9</ele>
        <time>2015-06-18T12:39:02Z</time>
      </trkpt>
      <trkpt lat="45.70373" lon="3.02063">
        <ele>723.7</ele>
        <time>2015-06-18T12:39:30Z</time>
      </trkpt>
      <trkpt lat="45.70384" lon="3.02188">
        <ele>728.7</ele>
        <time>2015-06-18T12:39:46Z</time>
      </trkpt>
      <trkpt lat="45.70358" lon="3.02244">
        <ele>733</ele>
        <time>2015-06-18T12:39:52Z</time>
      </trkpt>
      <trkpt lat="45.70321" lon="3.02317">
        <ele>739.8</ele>
        <time>2015-06-18T12:40:00Z</time>
      </trkpt>
      <trkpt lat="45.70342" lon="3.02393">
        <ele>744.5</ele>
        <time>2015-06-18T12:40:06Z</time>
      </trkpt>
      <trkpt lat="45.70332" lon="3.02482">
        <ele>748.2</ele>
        <time>2015-06-18T12:40:12Z</time>
      </trkpt>
      <trkpt lat="45.70311" lon="3.02596">
        <ele>752.7</ele>
        <time>2015-06-18T12:40:20Z</time>
      </trkpt>
      <trkpt lat="45.70279" lon="3.02694">
        <ele>756.8</ele>
        <time>2015-06-18T12:40:28Z</time>
      </trkpt>
      <trkpt lat="45.70232" lon="3.02753">
        <ele>759</ele>
        <time>2015-06-18T12:40:36Z</time>
      </trkpt>
      <trkpt lat="45.7019" lon="3.0281">
        <ele>759.5</ele>
        <time>2015-06-18T12:40:46Z</time>
      </trkpt>
      <trkpt lat="45.70031" lon="3.03132">
        <ele>762.5</ele>
        <time>2015-06-18T12:41:36Z</time>
      </trkpt>
      <trkpt lat="45.69803" lon="3.03174">
        <ele>770.1</ele>
        <time>2015-06-18T12:42:10Z</time>
      </trkpt>
      <trkpt lat="45.6973" lon="3.0319">
        <ele>773.3</ele>
        <time>2015-06-18T12:42:20Z</time>
      </trkpt>
      <trkpt lat="45.6964" lon="3.03219">
        <ele>777.8</ele>
        <time>2015-06-18T12:42:32Z</time>
      </trkpt>
      <trkpt lat="45.69521" lon="3.03257">
        <ele>783.2</ele>
        <time>2015-06-18T12:42:48Z</time>
      </trkpt>
      <trkpt lat="45.69355" lon="3.03352">
        <ele>789.2</ele>
        <time>2015-06-18T12:43:16Z</time>
      </trkpt>
      <trkpt lat="45.69202" lon="3.03407">
        <ele>792.4</ele>
        <time>2015-06-18T12:43:46Z</time>
      </trkpt>
      <trkpt lat="45.69147" lon="3.03462">
        <ele>789.6</ele>
        <time>2015-06-18T12:44:08Z</time>
      </trkpt>
      <trkpt lat="45.69085" lon="3.035">
        <ele>786.5</ele>
        <time>2015-06-18T12:44:30Z</time>
      </trkpt>
      <trkpt lat="45.69001" lon="3.03475">
        <ele>784.4</ele>
        <time>2015-06-18T12:44:54Z</time>
      </trkpt>
      <trkpt lat="45.68895" lon="3.03353">
        <ele>780.9</ele>
        <time>2015-06-18T12:45:32Z</time>
      </trkpt>
      <trkpt lat="45.68824" lon="3.03355">
        <ele>775.6</ele>
        <time>2015-06-18T12:46:02Z</time>
      </trkpt>
      <trkpt lat="45.68816" lon="3.03412">
        <ele>772.6</ele>
        <time>2015-06-18T12:46:18Z</time>
      </trkpt>
      <trkpt lat="45.68796" lon="3.03472">
        <ele>769.6</ele>
        <time>2015-06-18T12:46:36Z</time>
      </trkpt>
      <trkpt lat="45.68701" lon="3.03575">
        <ele>760.8</ele>
        <time>2015-06-18T12:47:24Z</time>
      </trkpt>
      <trkpt lat="45.68697" lon="3.03636">
        <ele>757.8</ele>
        <time>2015-06-18T12:47:40Z</time>
      </trkpt>
      <trkpt lat="45.68696" lon="3.03708">
        <ele>754.3</ele>
        <time>2015-06-18T12:47:58Z</time>
      </trkpt>
      <trkpt lat="45.687" lon="3.03814">
        <ele>748.8</ele>
        <time>2015-06-18T12:48:30Z</time>
      </trkpt>
      <trkpt lat="45.68692" lon="3.03996">
        <ele>739.5</ele>
        <time>2015-06-18T12:49:22Z</time>
      </trkpt>
      <trkpt lat="45.68678" lon="3.04096">
        <ele>733.4</ele>
        <time>2015-06-18T12:49:52Z</time>
      </trkpt>
      <trkpt lat="45.68648" lon="3.04189">
        <ele>728.1</ele>
        <time>2015-06-18T12:50:18Z</time>
      </trkpt>
      <trkpt lat="45.68641" lon="3.04297">
        <ele>721.8</ele>
        <time>2015-06-18T12:50:46Z</time>
      </trkpt>
      <trkpt lat="45.68639" lon="3.04373">
        <ele>717.2</ele>
        <time>2015-06-18T12:51:06Z</time>
      </trkpt>
      <trkpt lat="45.68633" lon="3.04553">
        <ele>712.3</ele>
        <time>2015-06-18T12:51:40Z</time>
      </trkpt>
      <trkpt lat="45.68633" lon="3.04695">
        <ele>712</ele>
        <time>2015-06-18T12:52:00Z</time>
      </trkpt>
      <trkpt lat="45.68573" lon="3.04969">
        <ele>707.5</ele>
        <time>2015-06-18T12:52:46Z</time>
      </trkpt>
      <trkpt lat="45.6856" lon="3.05149">
        <ele>702.9</ele>
        <time>2015-06-18T12:53:22Z</time>
      </trkpt>
      <trkpt lat="45.685" lon="3.05396">
        <ele>702.6</ele>
        <time>2015-06-18T12:54:06Z</time>
      </trkpt>
      <trkpt lat="45.68467" lon="3.05569">
        <ele>704.7</ele>
        <time>2015-06-18T12:54:34Z</time>
      </trkpt>
      <trkpt lat="45.68469" lon="3.0571">
        <ele>703.6</ele>
        <time>2015-06-18T12:55:02Z</time>
      </trkpt>
      <trkpt lat="45.68459" lon="3.05793">
        <ele>698.7</ele>
        <time>2015-06-18T12:55:22Z</time>
      </trkpt>
      <trkpt lat="45.68452" lon="3.05858">
        <ele>695</ele>
        <time>2015-06-18T12:55:38Z</time>
      </trkpt>
      <trkpt lat="45.68451" lon="3.05942">
        <ele>692.5</ele>
        <time>2015-06-18T12:56:31Z</time>
      </trkpt>
      <trkpt lat="45.68443" lon="3.06111">
        <ele>687.2</ele>
        <time>2015-06-18T12:57:13Z</time>
      </trkpt>
      <trkpt lat="45.68422" lon="3.06161">
        <ele>687.9</ele>
        <time>2015-06-18T12:59:03Z</time>
      </trkpt>
      <trkpt lat="45.6836" lon="3.06192">
        <ele>685</ele>
        <time>2015-06-18T13:03:55Z</time>
      </trkpt>
      <trkpt lat="45.68353" lon="3.06295">
        <ele>679.5</ele>
        <time>2015-06-18T13:04:37Z</time>
      </trkpt>
      <trkpt lat="45.68343" lon="3.06308">
        <ele>678.4</ele>
        <time>2015-06-18T13:05:52Z</time>
      </trkpt>
      <trkpt lat="45.6834" lon="3.06314">
        <ele>678.3</ele>
        <time>2015-06-18T13:06:23Z</time>
      </trkpt>
      <trkpt lat="45.68008" lon="3.06532">
        <ele>678.6</ele>
        <time>2015-06-18T13:08:50Z</time>
      </trkpt>
      <trkpt lat="45.67977" lon="3.06559">
        <ele>678.7</ele>
        <time>2015-06-18T13:09:54Z</time>
      </trkpt>
      <trkpt lat="45.67917" lon="3.06621">
        <ele>595.3</ele>
        <time>2015-06-18T13:10:56Z</time>
      </trkpt>
      <trkpt lat="45.67908" lon="3.06628">
        <ele>483.5</ele>
        <time>2015-06-18T13:11:02Z</time>
      </trkpt>
      <trkpt lat="45.67909" lon="3.06626">
        <ele>259.8</ele>
        <time>2015-06-18T13:11:10Z</time>
      </trkpt>
      <trkpt lat="45.67902" lon="3.06633">
        <ele>120</ele>
        <time>2015-06-18T13:11:14Z</time>
      </trkpt>
    </trkseg>
  </trk>
</gpx>